<?xml version="1.0" encoding="UTF-8" standalone="no" ?>
<gpx xmlns="http://www.topografix.com/GPX/1/1" xmlns:xsi="http://www.w3.org/2001/XMLSchema-instance" xsi:schemaLocation="http://www.topografix.com/GPX/1/1 http://www.topografix.com/GPX/1/1/gpx.xsd" version="1.1" creator="VisuGPX - https://www.visugpx.com">
  <metadata>
    <name>Edirne-Mostar</name>
  </metadata>
  <trk>
    <name><![CDATA[Tour d'Europe: étape 685]]></name>
    <extensions>
      <line xmlns="http://www.topografix.com/GPX/gpx_style/0/2">
        <color>008888</color>
        <width>4</width>
      </line>
    </extensions>
    <trkseg>
      <trkpt lat="41.32614" lon="19.80579">
        <ele>147.541142</ele>
        <time>2022-05-14T08:21:05.097Z</time>
      </trkpt>
      <trkpt lat="41.32617" lon="19.80565">
        <ele>147.541142</ele>
        <time>2022-05-14T08:21:11.070Z</time>
      </trkpt>
      <trkpt lat="41.32626" lon="19.80555">
        <ele>147.541142</ele>
        <time>2022-05-14T08:21:15.074Z</time>
      </trkpt>
      <trkpt lat="41.32633" lon="19.80546">
        <ele>147.541142</ele>
        <time>2022-05-14T08:21:19.053Z</time>
      </trkpt>
      <trkpt lat="41.32643" lon="19.80544">
        <ele>147.541142</ele>
        <time>2022-05-14T08:21:23.097Z</time>
      </trkpt>
      <trkpt lat="41.32647" lon="19.80555">
        <ele>147.541142</ele>
        <time>2022-05-14T08:21:27.066Z</time>
      </trkpt>
      <trkpt lat="41.32651" lon="19.80567">
        <ele>147.541142</ele>
        <time>2022-05-14T08:21:31.070Z</time>
      </trkpt>
      <trkpt lat="41.32656" lon="19.80581">
        <ele>147.541142</ele>
        <time>2022-05-14T08:21:35.100Z</time>
      </trkpt>
      <trkpt lat="41.3266" lon="19.80592">
        <ele>147.541142</ele>
        <time>2022-05-14T08:21:38.064Z</time>
      </trkpt>
      <trkpt lat="41.32662" lon="19.80604">
        <ele>147.593286</ele>
        <time>2022-05-14T08:21:41.067Z</time>
      </trkpt>
      <trkpt lat="41.32663" lon="19.80619">
        <ele>148.071248</ele>
        <time>2022-05-14T08:21:45.086Z</time>
      </trkpt>
      <trkpt lat="41.32665" lon="19.80634">
        <ele>148.554732</ele>
        <time>2022-05-14T08:21:49.074Z</time>
      </trkpt>
      <trkpt lat="41.32669" lon="19.80646">
        <ele>148.947377</ele>
        <time>2022-05-14T08:21:52.075Z</time>
      </trkpt>
      <trkpt lat="41.32674" lon="19.80657">
        <ele>149.352221</ele>
        <time>2022-05-14T08:21:55.056Z</time>
      </trkpt>
      <trkpt lat="41.32677" lon="19.80669">
        <ele>149.754736</ele>
        <time>2022-05-14T08:21:58.101Z</time>
      </trkpt>
      <trkpt lat="41.32678" lon="19.80685">
        <ele>150.237882</ele>
        <time>2022-05-14T08:22:01.076Z</time>
      </trkpt>
      <trkpt lat="41.32681" lon="19.80697">
        <ele>150.629233</ele>
        <time>2022-05-14T08:22:04.087Z</time>
      </trkpt>
      <trkpt lat="41.32686" lon="19.80708">
        <ele>151.040261</ele>
        <time>2022-05-14T08:22:07.099Z</time>
      </trkpt>
      <trkpt lat="41.32692" lon="19.80718">
        <ele>151.44325</ele>
        <time>2022-05-14T08:22:10.088Z</time>
      </trkpt>
      <trkpt lat="41.32698" lon="19.80732">
        <ele>151.941738</ele>
        <time>2022-05-14T08:22:14.091Z</time>
      </trkpt>
      <trkpt lat="41.32702" lon="19.80744">
        <ele>152.353307</ele>
        <time>2022-05-14T08:22:17.069Z</time>
      </trkpt>
      <trkpt lat="41.32706" lon="19.80755">
        <ele>152.746704</ele>
        <time>2022-05-14T08:22:20.105Z</time>
      </trkpt>
      <trkpt lat="41.32711" lon="19.80766">
        <ele>153.152399</ele>
        <time>2022-05-14T08:22:23.082Z</time>
      </trkpt>
      <trkpt lat="41.32717" lon="19.80778">
        <ele>153.599571</ele>
        <time>2022-05-14T08:22:26.106Z</time>
      </trkpt>
      <trkpt lat="41.32721" lon="19.80794">
        <ele>154.103304</ele>
        <time>2022-05-14T08:22:29.081Z</time>
      </trkpt>
      <trkpt lat="41.32724" lon="19.80809">
        <ele>154.602333</ele>
        <time>2022-05-14T08:22:32.096Z</time>
      </trkpt>
      <trkpt lat="41.32727" lon="19.80824">
        <ele>155.038068</ele>
        <time>2022-05-14T08:22:35.075Z</time>
      </trkpt>
      <trkpt lat="41.32729" lon="19.8084">
        <ele>155.249011</ele>
        <time>2022-05-14T08:22:38.086Z</time>
      </trkpt>
      <trkpt lat="41.32733" lon="19.80855">
        <ele>155.452806</ele>
        <time>2022-05-14T08:22:41.079Z</time>
      </trkpt>
      <trkpt lat="41.32736" lon="19.80866">
        <ele>155.611955</ele>
        <time>2022-05-14T08:22:44.053Z</time>
      </trkpt>
      <trkpt lat="41.3274" lon="19.80879">
        <ele>155.788562</ele>
        <time>2022-05-14T08:22:47.075Z</time>
      </trkpt>
      <trkpt lat="41.32745" lon="19.80892">
        <ele>155.985652</ele>
        <time>2022-05-14T08:22:50.101Z</time>
      </trkpt>
      <trkpt lat="41.32749" lon="19.80907">
        <ele>156.186656</ele>
        <time>2022-05-14T08:22:53.067Z</time>
      </trkpt>
      <trkpt lat="41.32753" lon="19.8092">
        <ele>156.37054</ele>
        <time>2022-05-14T08:22:56.078Z</time>
      </trkpt>
      <trkpt lat="41.32757" lon="19.80932">
        <ele>156.547747</ele>
        <time>2022-05-14T08:22:59.071Z</time>
      </trkpt>
      <trkpt lat="41.32762" lon="19.80946">
        <ele>156.746247</ele>
        <time>2022-05-14T08:23:02.080Z</time>
      </trkpt>
      <trkpt lat="41.32766" lon="19.80961">
        <ele>156.950318</ele>
        <time>2022-05-14T08:23:05.068Z</time>
      </trkpt>
      <trkpt lat="41.3277" lon="19.80974">
        <ele>157.130332</ele>
        <time>2022-05-14T08:23:08.073Z</time>
      </trkpt>
      <trkpt lat="41.32774" lon="19.80987">
        <ele>157.317251</ele>
        <time>2022-05-14T08:23:11.072Z</time>
      </trkpt>
      <trkpt lat="41.32778" lon="19.81">
        <ele>157.497744</ele>
        <time>2022-05-14T08:23:14.078Z</time>
      </trkpt>
      <trkpt lat="41.32783" lon="19.81013">
        <ele>157.68786</ele>
        <time>2022-05-14T08:23:17.068Z</time>
      </trkpt>
      <trkpt lat="41.32788" lon="19.81027">
        <ele>157.886458</ele>
        <time>2022-05-14T08:23:20.067Z</time>
      </trkpt>
      <trkpt lat="41.32793" lon="19.8104">
        <ele>158.085342</ele>
        <time>2022-05-14T08:23:23.083Z</time>
      </trkpt>
      <trkpt lat="41.32797" lon="19.81055">
        <ele>157.973151</ele>
        <time>2022-05-14T08:23:26.068Z</time>
      </trkpt>
      <trkpt lat="41.32802" lon="19.81069">
        <ele>157.783541</ele>
        <time>2022-05-14T08:23:29.075Z</time>
      </trkpt>
      <trkpt lat="41.32807" lon="19.81082">
        <ele>157.602398</ele>
        <time>2022-05-14T08:23:32.076Z</time>
      </trkpt>
      <trkpt lat="41.32811" lon="19.81094">
        <ele>157.434441</ele>
        <time>2022-05-14T08:23:35.077Z</time>
      </trkpt>
      <trkpt lat="41.32817" lon="19.81105">
        <ele>157.273115</ele>
        <time>2022-05-14T08:23:38.084Z</time>
      </trkpt>
      <trkpt lat="41.3282" lon="19.81117">
        <ele>157.113347</ele>
        <time>2022-05-14T08:23:41.132Z</time>
      </trkpt>
      <trkpt lat="41.32825" lon="19.81131">
        <ele>156.934939</ele>
        <time>2022-05-14T08:23:45.095Z</time>
      </trkpt>
      <trkpt lat="41.32828" lon="19.81143">
        <ele>156.771041</ele>
        <time>2022-05-14T08:23:50.082Z</time>
      </trkpt>
      <trkpt lat="41.32839" lon="19.81149">
        <ele>156.579294</ele>
        <time>2022-05-14T08:23:59.068Z</time>
      </trkpt>
      <trkpt lat="41.32849" lon="19.81153">
        <ele>156.408957</ele>
        <time>2022-05-14T08:24:02.091Z</time>
      </trkpt>
      <trkpt lat="41.32859" lon="19.81157">
        <ele>156.248009</ele>
        <time>2022-05-14T08:24:05.083Z</time>
      </trkpt>
      <trkpt lat="41.32869" lon="19.81164">
        <ele>156.052272</ele>
        <time>2022-05-14T08:24:09.081Z</time>
      </trkpt>
      <trkpt lat="41.3288" lon="19.81167">
        <ele>155.873266</ele>
        <time>2022-05-14T08:24:13.079Z</time>
      </trkpt>
      <trkpt lat="41.3289" lon="19.81172">
        <ele>155.708694</ele>
        <time>2022-05-14T08:24:16.088Z</time>
      </trkpt>
      <trkpt lat="41.32898" lon="19.81178">
        <ele>155.549411</ele>
        <time>2022-05-14T08:24:19.074Z</time>
      </trkpt>
      <trkpt lat="41.3291" lon="19.81184">
        <ele>155.340303</ele>
        <time>2022-05-14T08:24:23.161Z</time>
      </trkpt>
      <trkpt lat="41.32919" lon="19.81187">
        <ele>155.184017</ele>
        <time>2022-05-14T08:24:26.059Z</time>
      </trkpt>
      <trkpt lat="41.32928" lon="19.81191">
        <ele>155.255587</ele>
        <time>2022-05-14T08:24:29.075Z</time>
      </trkpt>
      <trkpt lat="41.32937" lon="19.81201">
        <ele>155.341943</ele>
        <time>2022-05-14T08:24:32.059Z</time>
      </trkpt>
      <trkpt lat="41.32946" lon="19.8121">
        <ele>155.426167</ele>
        <time>2022-05-14T08:24:35.066Z</time>
      </trkpt>
      <trkpt lat="41.32956" lon="19.81216">
        <ele>155.506782</ele>
        <time>2022-05-14T08:24:38.081Z</time>
      </trkpt>
      <trkpt lat="41.32966" lon="19.81216">
        <ele>155.580873</ele>
        <time>2022-05-14T08:24:41.055Z</time>
      </trkpt>
      <trkpt lat="41.32975" lon="19.81208">
        <ele>155.662989</ele>
        <time>2022-05-14T08:24:44.072Z</time>
      </trkpt>
      <trkpt lat="41.32981" lon="19.81197">
        <ele>155.742621</ele>
        <time>2022-05-14T08:24:47.101Z</time>
      </trkpt>
      <trkpt lat="41.32991" lon="19.81195">
        <ele>155.818689</ele>
        <time>2022-05-14T08:24:51.088Z</time>
      </trkpt>
      <trkpt lat="41.33002" lon="19.81196">
        <ele>155.897555</ele>
        <time>2022-05-14T08:24:54.141Z</time>
      </trkpt>
      <trkpt lat="41.33013" lon="19.81197">
        <ele>155.98184</ele>
        <time>2022-05-14T08:24:57.074Z</time>
      </trkpt>
      <trkpt lat="41.33022" lon="19.81203">
        <ele>156.05531</ele>
        <time>2022-05-14T08:25:01.061Z</time>
      </trkpt>
      <trkpt lat="41.33032" lon="19.81206">
        <ele>156.135955</ele>
        <time>2022-05-14T08:25:10.068Z</time>
      </trkpt>
      <trkpt lat="41.33037" lon="19.81196">
        <ele>156.208666</ele>
        <time>2022-05-14T08:25:14.083Z</time>
      </trkpt>
      <trkpt lat="41.33043" lon="19.81186">
        <ele>156.277756</ele>
        <time>2022-05-14T08:25:17.049Z</time>
      </trkpt>
      <trkpt lat="41.33049" lon="19.81176">
        <ele>156.347787</ele>
        <time>2022-05-14T08:25:20.077Z</time>
      </trkpt>
      <trkpt lat="41.33053" lon="19.81165">
        <ele>156.419136</ele>
        <time>2022-05-14T08:25:23.068Z</time>
      </trkpt>
      <trkpt lat="41.3306" lon="19.81151">
        <ele>156.511607</ele>
        <time>2022-05-14T08:25:27.063Z</time>
      </trkpt>
      <trkpt lat="41.33063" lon="19.81138">
        <ele>156.533272</ele>
        <time>2022-05-14T08:25:30.034Z</time>
      </trkpt>
      <trkpt lat="41.33067" lon="19.81126">
        <ele>156.517751</ele>
        <time>2022-05-14T08:25:33.063Z</time>
      </trkpt>
      <trkpt lat="41.33073" lon="19.81116">
        <ele>156.503151</ele>
        <time>2022-05-14T08:25:36.071Z</time>
      </trkpt>
      <trkpt lat="41.33077" lon="19.81103">
        <ele>156.486664</ele>
        <time>2022-05-14T08:25:39.076Z</time>
      </trkpt>
      <trkpt lat="41.33081" lon="19.81092">
        <ele>156.472512</ele>
        <time>2022-05-14T08:25:41.066Z</time>
      </trkpt>
      <trkpt lat="41.33083" lon="19.81078">
        <ele>156.455606</ele>
        <time>2022-05-14T08:25:43.055Z</time>
      </trkpt>
      <trkpt lat="41.33086" lon="19.8106">
        <ele>156.434777</ele>
        <time>2022-05-14T08:25:45.069Z</time>
      </trkpt>
      <trkpt lat="41.33091" lon="19.81045">
        <ele>156.415354</ele>
        <time>2022-05-14T08:25:47.074Z</time>
      </trkpt>
      <trkpt lat="41.33098" lon="19.81031">
        <ele>156.396191</ele>
        <time>2022-05-14T08:25:49.062Z</time>
      </trkpt>
      <trkpt lat="41.33103" lon="19.81019">
        <ele>156.380049</ele>
        <time>2022-05-14T08:25:51.064Z</time>
      </trkpt>
      <trkpt lat="41.33108" lon="19.81006">
        <ele>156.363136</ele>
        <time>2022-05-14T08:25:53.092Z</time>
      </trkpt>
      <trkpt lat="41.33111" lon="19.80993">
        <ele>156.346922</ele>
        <time>2022-05-14T08:25:55.100Z</time>
      </trkpt>
      <trkpt lat="41.33116" lon="19.80981">
        <ele>156.331387</ele>
        <time>2022-05-14T08:25:57.074Z</time>
      </trkpt>
      <trkpt lat="41.33119" lon="19.8097">
        <ele>156.317209</ele>
        <time>2022-05-14T08:25:59.061Z</time>
      </trkpt>
      <trkpt lat="41.33123" lon="19.80958">
        <ele>156.303049</ele>
        <time>2022-05-14T08:26:01.102Z</time>
      </trkpt>
      <trkpt lat="41.33127" lon="19.80947">
        <ele>156.288127</ele>
        <time>2022-05-14T08:26:03.054Z</time>
      </trkpt>
      <trkpt lat="41.33131" lon="19.80934">
        <ele>156.2717</ele>
        <time>2022-05-14T08:26:06.079Z</time>
      </trkpt>
      <trkpt lat="41.33134" lon="19.80919">
        <ele>156.151598</ele>
        <time>2022-05-14T08:26:10.103Z</time>
      </trkpt>
      <trkpt lat="41.33139" lon="19.80902">
        <ele>155.939158</ele>
        <time>2022-05-14T08:26:13.079Z</time>
      </trkpt>
      <trkpt lat="41.33144" lon="19.80891">
        <ele>155.77725</ele>
        <time>2022-05-14T08:26:15.082Z</time>
      </trkpt>
      <trkpt lat="41.33151" lon="19.80878">
        <ele>155.588546</ele>
        <time>2022-05-14T08:26:18.050Z</time>
      </trkpt>
      <trkpt lat="41.33156" lon="19.80862">
        <ele>155.382854</ele>
        <time>2022-05-14T08:26:21.151Z</time>
      </trkpt>
      <trkpt lat="41.3316" lon="19.80849">
        <ele>155.214715</ele>
        <time>2022-05-14T08:26:23.089Z</time>
      </trkpt>
      <trkpt lat="41.33165" lon="19.80836">
        <ele>155.038489</ele>
        <time>2022-05-14T08:26:25.068Z</time>
      </trkpt>
      <trkpt lat="41.3317" lon="19.80822">
        <ele>154.857959</ele>
        <time>2022-05-14T08:26:27.083Z</time>
      </trkpt>
      <trkpt lat="41.33173" lon="19.8081">
        <ele>154.708383</ele>
        <time>2022-05-14T08:26:29.117Z</time>
      </trkpt>
      <trkpt lat="41.33178" lon="19.80794">
        <ele>154.494516</ele>
        <time>2022-05-14T08:26:32.063Z</time>
      </trkpt>
      <trkpt lat="41.33182" lon="19.80783">
        <ele>154.351094</ele>
        <time>2022-05-14T08:26:34.061Z</time>
      </trkpt>
      <trkpt lat="41.33186" lon="19.80772">
        <ele>154.207623</ele>
        <time>2022-05-14T08:26:36.146Z</time>
      </trkpt>
      <trkpt lat="41.3319" lon="19.80761">
        <ele>154.057797</ele>
        <time>2022-05-14T08:26:38.074Z</time>
      </trkpt>
      <trkpt lat="41.33193" lon="19.80749">
        <ele>153.903282</ele>
        <time>2022-05-14T08:26:40.097Z</time>
      </trkpt>
      <trkpt lat="41.33196" lon="19.80734">
        <ele>153.721003</ele>
        <time>2022-05-14T08:26:42.082Z</time>
      </trkpt>
      <trkpt lat="41.332" lon="19.8072">
        <ele>153.542852</ele>
        <time>2022-05-14T08:26:44.084Z</time>
      </trkpt>
      <trkpt lat="41.33205" lon="19.80708">
        <ele>153.305987</ele>
        <time>2022-05-14T08:26:46.072Z</time>
      </trkpt>
      <trkpt lat="41.3321" lon="19.80696">
        <ele>152.614841</ele>
        <time>2022-05-14T08:26:48.124Z</time>
      </trkpt>
      <trkpt lat="41.33215" lon="19.80684">
        <ele>151.965991</ele>
        <time>2022-05-14T08:26:50.066Z</time>
      </trkpt>
      <trkpt lat="41.3322" lon="19.80673">
        <ele>151.336115</ele>
        <time>2022-05-14T08:26:52.059Z</time>
      </trkpt>
      <trkpt lat="41.33225" lon="19.80661">
        <ele>150.613505</ele>
        <time>2022-05-14T08:26:54.065Z</time>
      </trkpt>
      <trkpt lat="41.33231" lon="19.80649">
        <ele>149.926635</ele>
        <time>2022-05-14T08:26:56.118Z</time>
      </trkpt>
      <trkpt lat="41.33236" lon="19.80636">
        <ele>149.183572</ele>
        <time>2022-05-14T08:26:58.075Z</time>
      </trkpt>
      <trkpt lat="41.33241" lon="19.80624">
        <ele>148.484839</ele>
        <time>2022-05-14T08:27:00.065Z</time>
      </trkpt>
      <trkpt lat="41.33246" lon="19.80611">
        <ele>147.790477</ele>
        <time>2022-05-14T08:27:02.096Z</time>
      </trkpt>
      <trkpt lat="41.33251" lon="19.806">
        <ele>147.149727</ele>
        <time>2022-05-14T08:27:04.066Z</time>
      </trkpt>
      <trkpt lat="41.33256" lon="19.80584">
        <ele>146.273088</ele>
        <time>2022-05-14T08:27:07.044Z</time>
      </trkpt>
      <trkpt lat="41.3326" lon="19.80572">
        <ele>145.646654</ele>
        <time>2022-05-14T08:27:09.069Z</time>
      </trkpt>
      <trkpt lat="41.33264" lon="19.80561">
        <ele>145.051719</ele>
        <time>2022-05-14T08:27:11.083Z</time>
      </trkpt>
      <trkpt lat="41.33269" lon="19.8055">
        <ele>144.40222</ele>
        <time>2022-05-14T08:27:14.079Z</time>
      </trkpt>
      <trkpt lat="41.33274" lon="19.80535">
        <ele>143.582029</ele>
        <time>2022-05-14T08:27:19.072Z</time>
      </trkpt>
      <trkpt lat="41.33278" lon="19.8052">
        <ele>142.759395</ele>
        <time>2022-05-14T08:27:22.078Z</time>
      </trkpt>
      <trkpt lat="41.33282" lon="19.80505">
        <ele>141.980299</ele>
        <time>2022-05-14T08:27:25.081Z</time>
      </trkpt>
      <trkpt lat="41.3329" lon="19.80497">
        <ele>141.553551</ele>
        <time>2022-05-14T08:27:32.074Z</time>
      </trkpt>
      <trkpt lat="41.33302" lon="19.80498">
        <ele>141.760473</ele>
        <time>2022-05-14T08:27:35.142Z</time>
      </trkpt>
      <trkpt lat="41.33315" lon="19.80498">
        <ele>141.993721</ele>
        <time>2022-05-14T08:27:38.100Z</time>
      </trkpt>
      <trkpt lat="41.33324" lon="19.805">
        <ele>142.161904</ele>
        <time>2022-05-14T08:27:40.067Z</time>
      </trkpt>
      <trkpt lat="41.33333" lon="19.80504">
        <ele>142.321252</ele>
        <time>2022-05-14T08:27:42.064Z</time>
      </trkpt>
      <trkpt lat="41.3334" lon="19.80512">
        <ele>142.491226</ele>
        <time>2022-05-14T08:27:44.063Z</time>
      </trkpt>
      <trkpt lat="41.3335" lon="19.80524">
        <ele>142.732251</ele>
        <time>2022-05-14T08:27:47.076Z</time>
      </trkpt>
      <trkpt lat="41.33358" lon="19.80533">
        <ele>142.907595</ele>
        <time>2022-05-14T08:27:49.080Z</time>
      </trkpt>
      <trkpt lat="41.33365" lon="19.80541">
        <ele>143.073783</ele>
        <time>2022-05-14T08:27:51.050Z</time>
      </trkpt>
      <trkpt lat="41.33374" lon="19.80551">
        <ele>143.28165</ele>
        <time>2022-05-14T08:27:54.066Z</time>
      </trkpt>
      <trkpt lat="41.33381" lon="19.80559">
        <ele>143.448677</ele>
        <time>2022-05-14T08:27:57.095Z</time>
      </trkpt>
      <trkpt lat="41.33388" lon="19.80568">
        <ele>143.618203</ele>
        <time>2022-05-14T08:28:01.079Z</time>
      </trkpt>
      <trkpt lat="41.33396" lon="19.80583">
        <ele>143.862295</ele>
        <time>2022-05-14T08:28:06.069Z</time>
      </trkpt>
      <trkpt lat="41.33404" lon="19.80593">
        <ele>144.044873</ele>
        <time>2022-05-14T08:28:10.079Z</time>
      </trkpt>
      <trkpt lat="41.33421" lon="19.80614">
        <ele>144.462031</ele>
        <time>2022-05-14T08:28:39.103Z</time>
      </trkpt>
      <trkpt lat="41.33432" lon="19.80611">
        <ele>144.668147</ele>
        <time>2022-05-14T08:28:42.074Z</time>
      </trkpt>
      <trkpt lat="41.33443" lon="19.80603">
        <ele>144.810975</ele>
        <time>2022-05-14T08:28:45.082Z</time>
      </trkpt>
      <trkpt lat="41.33455" lon="19.80594">
        <ele>144.967706</ele>
        <time>2022-05-14T08:28:48.074Z</time>
      </trkpt>
      <trkpt lat="41.33464" lon="19.80587">
        <ele>145.082214</ele>
        <time>2022-05-14T08:28:50.065Z</time>
      </trkpt>
      <trkpt lat="41.33474" lon="19.80581">
        <ele>145.205085</ele>
        <time>2022-05-14T08:28:53.102Z</time>
      </trkpt>
      <trkpt lat="41.33482" lon="19.80576">
        <ele>145.311471</ele>
        <time>2022-05-14T08:28:59.115Z</time>
      </trkpt>
      <trkpt lat="41.3349" lon="19.80568">
        <ele>145.424327</ele>
        <time>2022-05-14T08:29:02.077Z</time>
      </trkpt>
      <trkpt lat="41.33501" lon="19.8056">
        <ele>145.561545</ele>
        <time>2022-05-14T08:29:05.104Z</time>
      </trkpt>
      <trkpt lat="41.33511" lon="19.80553">
        <ele>145.689227</ele>
        <time>2022-05-14T08:29:08.084Z</time>
      </trkpt>
      <trkpt lat="41.33521" lon="19.80543">
        <ele>145.838794</ele>
        <time>2022-05-14T08:29:11.070Z</time>
      </trkpt>
      <trkpt lat="41.33529" lon="19.80537">
        <ele>145.940548</ele>
        <time>2022-05-14T08:29:13.073Z</time>
      </trkpt>
      <trkpt lat="41.33539" lon="19.80528">
        <ele>146.0783</ele>
        <time>2022-05-14T08:29:16.053Z</time>
      </trkpt>
      <trkpt lat="41.33547" lon="19.80522">
        <ele>146.179617</ele>
        <time>2022-05-14T08:29:18.075Z</time>
      </trkpt>
      <trkpt lat="41.33558" lon="19.80515">
        <ele>146.311822</ele>
        <time>2022-05-14T08:29:21.073Z</time>
      </trkpt>
      <trkpt lat="41.33569" lon="19.80509">
        <ele>146.448126</ele>
        <time>2022-05-14T08:29:24.061Z</time>
      </trkpt>
      <trkpt lat="41.33577" lon="19.80503">
        <ele>146.554511</ele>
        <time>2022-05-14T08:29:27.068Z</time>
      </trkpt>
      <trkpt lat="41.33591" lon="19.80495">
        <ele>146.697515</ele>
        <time>2022-05-14T08:29:30.096Z</time>
      </trkpt>
      <trkpt lat="41.33604" lon="19.80488">
        <ele>146.432928</ele>
        <time>2022-05-14T08:29:32.085Z</time>
      </trkpt>
      <trkpt lat="41.33616" lon="19.80481">
        <ele>146.187924</ele>
        <time>2022-05-14T08:29:34.080Z</time>
      </trkpt>
      <trkpt lat="41.33627" lon="19.80476">
        <ele>145.961439</ele>
        <time>2022-05-14T08:29:36.079Z</time>
      </trkpt>
      <trkpt lat="41.33636" lon="19.8047">
        <ele>145.769815</ele>
        <time>2022-05-14T08:29:38.077Z</time>
      </trkpt>
      <trkpt lat="41.33645" lon="19.80467">
        <ele>145.59324</ele>
        <time>2022-05-14T08:29:40.100Z</time>
      </trkpt>
      <trkpt lat="41.33654" lon="19.80462">
        <ele>145.410133</ele>
        <time>2022-05-14T08:29:42.079Z</time>
      </trkpt>
      <trkpt lat="41.33663" lon="19.80458">
        <ele>145.226726</ele>
        <time>2022-05-14T08:29:44.059Z</time>
      </trkpt>
      <trkpt lat="41.33672" lon="19.80453">
        <ele>145.045554</ele>
        <time>2022-05-14T08:29:46.079Z</time>
      </trkpt>
      <trkpt lat="41.33681" lon="19.80448">
        <ele>144.868473</ele>
        <time>2022-05-14T08:29:48.079Z</time>
      </trkpt>
      <trkpt lat="41.33689" lon="19.80442">
        <ele>144.687709</ele>
        <time>2022-05-14T08:29:50.088Z</time>
      </trkpt>
      <trkpt lat="41.33698" lon="19.80436">
        <ele>144.499885</ele>
        <time>2022-05-14T08:29:52.060Z</time>
      </trkpt>
      <trkpt lat="41.33706" lon="19.80431">
        <ele>144.329668</ele>
        <time>2022-05-14T08:29:54.082Z</time>
      </trkpt>
      <trkpt lat="41.33716" lon="19.80427">
        <ele>144.143884</ele>
        <time>2022-05-14T08:29:56.102Z</time>
      </trkpt>
      <trkpt lat="41.33725" lon="19.80421">
        <ele>143.942457</ele>
        <time>2022-05-14T08:29:58.097Z</time>
      </trkpt>
      <trkpt lat="41.33735" lon="19.80416">
        <ele>143.738177</ele>
        <time>2022-05-14T08:30:00.079Z</time>
      </trkpt>
      <trkpt lat="41.33745" lon="19.8041">
        <ele>143.528949</ele>
        <time>2022-05-14T08:30:03.072Z</time>
      </trkpt>
      <trkpt lat="41.33755" lon="19.80402">
        <ele>143.309148</ele>
        <time>2022-05-14T08:30:07.102Z</time>
      </trkpt>
      <trkpt lat="41.33763" lon="19.80394">
        <ele>143.110924</ele>
        <time>2022-05-14T08:30:11.075Z</time>
      </trkpt>
      <trkpt lat="41.33771" lon="19.80385">
        <ele>142.922166</ele>
        <time>2022-05-14T08:30:14.082Z</time>
      </trkpt>
      <trkpt lat="41.33778" lon="19.80378">
        <ele>142.741624</ele>
        <time>2022-05-14T08:30:17.056Z</time>
      </trkpt>
      <trkpt lat="41.33787" lon="19.80373">
        <ele>142.55315</ele>
        <time>2022-05-14T08:30:20.093Z</time>
      </trkpt>
      <trkpt lat="41.33797" lon="19.80364">
        <ele>142.315422</ele>
        <time>2022-05-14T08:30:23.059Z</time>
      </trkpt>
      <trkpt lat="41.33808" lon="19.80355">
        <ele>142.070099</ele>
        <time>2022-05-14T08:30:26.118Z</time>
      </trkpt>
      <trkpt lat="41.33819" lon="19.80349">
        <ele>141.840742</ele>
        <time>2022-05-14T08:30:30.080Z</time>
      </trkpt>
      <trkpt lat="41.33831" lon="19.8034">
        <ele>141.569445</ele>
        <time>2022-05-14T08:30:33.063Z</time>
      </trkpt>
      <trkpt lat="41.3384" lon="19.80333">
        <ele>141.354405</ele>
        <time>2022-05-14T08:30:35.062Z</time>
      </trkpt>
      <trkpt lat="41.33851" lon="19.80326">
        <ele>141.129464</ele>
        <time>2022-05-14T08:30:37.098Z</time>
      </trkpt>
      <trkpt lat="41.33863" lon="19.80318">
        <ele>140.873206</ele>
        <time>2022-05-14T08:30:39.078Z</time>
      </trkpt>
      <trkpt lat="41.33874" lon="19.80313">
        <ele>140.635116</ele>
        <time>2022-05-14T08:30:41.077Z</time>
      </trkpt>
      <trkpt lat="41.33885" lon="19.80307">
        <ele>140.411067</ele>
        <time>2022-05-14T08:30:43.116Z</time>
      </trkpt>
      <trkpt lat="41.33895" lon="19.80301">
        <ele>140.200639</ele>
        <time>2022-05-14T08:30:46.071Z</time>
      </trkpt>
      <trkpt lat="41.33905" lon="19.80294">
        <ele>139.96772</ele>
        <time>2022-05-14T08:30:50.083Z</time>
      </trkpt>
      <trkpt lat="41.33915" lon="19.80289">
        <ele>139.845222</ele>
        <time>2022-05-14T08:30:54.101Z</time>
      </trkpt>
      <trkpt lat="41.33924" lon="19.80283">
        <ele>140.104608</ele>
        <time>2022-05-14T08:30:57.075Z</time>
      </trkpt>
      <trkpt lat="41.33934" lon="19.80277">
        <ele>140.419919</ele>
        <time>2022-05-14T08:31:00.059Z</time>
      </trkpt>
      <trkpt lat="41.33944" lon="19.80271">
        <ele>140.69236</ele>
        <time>2022-05-14T08:31:02.074Z</time>
      </trkpt>
      <trkpt lat="41.33955" lon="19.80263">
        <ele>141.043608</ele>
        <time>2022-05-14T08:31:05.076Z</time>
      </trkpt>
      <trkpt lat="41.33967" lon="19.80255">
        <ele>141.376463</ele>
        <time>2022-05-14T08:31:08.082Z</time>
      </trkpt>
      <trkpt lat="41.33979" lon="19.80247">
        <ele>141.742745</ele>
        <time>2022-05-14T08:31:11.103Z</time>
      </trkpt>
      <trkpt lat="41.33991" lon="19.8024">
        <ele>142.087449</ele>
        <time>2022-05-14T08:31:14.081Z</time>
      </trkpt>
      <trkpt lat="41.34001" lon="19.80233">
        <ele>142.390489</ele>
        <time>2022-05-14T08:31:17.113Z</time>
      </trkpt>
      <trkpt lat="41.34012" lon="19.80227">
        <ele>142.700019</ele>
        <time>2022-05-14T08:31:20.063Z</time>
      </trkpt>
      <trkpt lat="41.3402" lon="19.80222">
        <ele>142.944719</ele>
        <time>2022-05-14T08:31:22.067Z</time>
      </trkpt>
      <trkpt lat="41.34028" lon="19.80217">
        <ele>143.183748</ele>
        <time>2022-05-14T08:31:24.064Z</time>
      </trkpt>
      <trkpt lat="41.34038" lon="19.80211">
        <ele>143.479523</ele>
        <time>2022-05-14T08:31:27.093Z</time>
      </trkpt>
      <trkpt lat="41.34047" lon="19.80203">
        <ele>143.762872</ele>
        <time>2022-05-14T08:31:30.084Z</time>
      </trkpt>
      <trkpt lat="41.34059" lon="19.80198">
        <ele>144.087758</ele>
        <time>2022-05-14T08:31:33.088Z</time>
      </trkpt>
      <trkpt lat="41.34071" lon="19.8019">
        <ele>144.440497</ele>
        <time>2022-05-14T08:31:36.094Z</time>
      </trkpt>
      <trkpt lat="41.34082" lon="19.80184">
        <ele>145.048839</ele>
        <time>2022-05-14T08:31:39.077Z</time>
      </trkpt>
      <trkpt lat="41.34094" lon="19.80175">
        <ele>145.939041</ele>
        <time>2022-05-14T08:31:42.080Z</time>
      </trkpt>
      <trkpt lat="41.34103" lon="19.80169">
        <ele>146.649733</ele>
        <time>2022-05-14T08:31:44.065Z</time>
      </trkpt>
      <trkpt lat="41.34112" lon="19.80163">
        <ele>147.333662</ele>
        <time>2022-05-14T08:31:46.086Z</time>
      </trkpt>
      <trkpt lat="41.3412" lon="19.80158">
        <ele>147.950961</ele>
        <time>2022-05-14T08:31:48.072Z</time>
      </trkpt>
      <trkpt lat="41.34129" lon="19.80152">
        <ele>148.642771</ele>
        <time>2022-05-14T08:31:50.110Z</time>
      </trkpt>
      <trkpt lat="41.34139" lon="19.80146">
        <ele>149.350598</ele>
        <time>2022-05-14T08:31:52.099Z</time>
      </trkpt>
      <trkpt lat="41.3415" lon="19.80139">
        <ele>150.228565</ele>
        <time>2022-05-14T08:31:55.071Z</time>
      </trkpt>
      <trkpt lat="41.34161" lon="19.80132">
        <ele>151.04567</ele>
        <time>2022-05-14T08:31:58.084Z</time>
      </trkpt>
      <trkpt lat="41.3417" lon="19.80126">
        <ele>151.737479</ele>
        <time>2022-05-14T08:32:00.055Z</time>
      </trkpt>
      <trkpt lat="41.34181" lon="19.80119">
        <ele>152.545483</ele>
        <time>2022-05-14T08:32:03.112Z</time>
      </trkpt>
      <trkpt lat="41.34194" lon="19.8011">
        <ele>153.542687</ele>
        <time>2022-05-14T08:32:06.079Z</time>
      </trkpt>
      <trkpt lat="41.34204" lon="19.80102">
        <ele>154.320826</ele>
        <time>2022-05-14T08:32:08.067Z</time>
      </trkpt>
      <trkpt lat="41.34214" lon="19.80096">
        <ele>155.10565</ele>
        <time>2022-05-14T08:32:11.075Z</time>
      </trkpt>
      <trkpt lat="41.34225" lon="19.80087">
        <ele>155.981018</ele>
        <time>2022-05-14T08:32:14.077Z</time>
      </trkpt>
      <trkpt lat="41.34234" lon="19.80083">
        <ele>156.594507</ele>
        <time>2022-05-14T08:32:16.095Z</time>
      </trkpt>
      <trkpt lat="41.34245" lon="19.80075">
        <ele>156.521849</ele>
        <time>2022-05-14T08:32:19.093Z</time>
      </trkpt>
      <trkpt lat="41.3425" lon="19.80062">
        <ele>156.183221</ele>
        <time>2022-05-14T08:32:22.069Z</time>
      </trkpt>
      <trkpt lat="41.34252" lon="19.80045">
        <ele>155.797378</ele>
        <time>2022-05-14T08:32:25.081Z</time>
      </trkpt>
      <trkpt lat="41.34255" lon="19.80029">
        <ele>155.435797</ele>
        <time>2022-05-14T08:32:28.207Z</time>
      </trkpt>
      <trkpt lat="41.34254" lon="19.80015">
        <ele>155.120957</ele>
        <time>2022-05-14T08:32:31.072Z</time>
      </trkpt>
      <trkpt lat="41.34251" lon="19.8">
        <ele>154.765246</ele>
        <time>2022-05-14T08:32:34.092Z</time>
      </trkpt>
      <trkpt lat="41.34248" lon="19.79984">
        <ele>154.408818</ele>
        <time>2022-05-14T08:32:37.081Z</time>
      </trkpt>
      <trkpt lat="41.34245" lon="19.79967">
        <ele>154.008033</ele>
        <time>2022-05-14T08:32:40.080Z</time>
      </trkpt>
      <trkpt lat="41.34243" lon="19.79955">
        <ele>153.736637</ele>
        <time>2022-05-14T08:32:42.068Z</time>
      </trkpt>
      <trkpt lat="41.3424" lon="19.79939">
        <ele>153.356979</ele>
        <time>2022-05-14T08:32:45.135Z</time>
      </trkpt>
      <trkpt lat="41.34237" lon="19.79922">
        <ele>152.983788</ele>
        <time>2022-05-14T08:32:48.158Z</time>
      </trkpt>
      <trkpt lat="41.34235" lon="19.79906">
        <ele>152.60336</ele>
        <time>2022-05-14T08:32:51.077Z</time>
      </trkpt>
      <trkpt lat="41.34232" lon="19.79889">
        <ele>152.211322</ele>
        <time>2022-05-14T08:32:54.133Z</time>
      </trkpt>
      <trkpt lat="41.34229" lon="19.79875">
        <ele>151.901199</ele>
        <time>2022-05-14T08:32:57.071Z</time>
      </trkpt>
      <trkpt lat="41.34227" lon="19.79863">
        <ele>151.613643</ele>
        <time>2022-05-14T08:33:00.069Z</time>
      </trkpt>
      <trkpt lat="41.34225" lon="19.79849">
        <ele>151.050546</ele>
        <time>2022-05-14T08:33:03.076Z</time>
      </trkpt>
      <trkpt lat="41.34232" lon="19.79842">
        <ele>150.307573</ele>
        <time>2022-05-14T08:33:07.085Z</time>
      </trkpt>
      <trkpt lat="41.34242" lon="19.79841">
        <ele>149.570129</ele>
        <time>2022-05-14T08:33:11.072Z</time>
      </trkpt>
      <trkpt lat="41.34251" lon="19.7984">
        <ele>148.821909</ele>
        <time>2022-05-14T08:33:14.101Z</time>
      </trkpt>
      <trkpt lat="41.34261" lon="19.79839">
        <ele>148.041567</ele>
        <time>2022-05-14T08:33:17.052Z</time>
      </trkpt>
      <trkpt lat="41.34271" lon="19.79838">
        <ele>147.223468</ele>
        <time>2022-05-14T08:33:20.081Z</time>
      </trkpt>
      <trkpt lat="41.34281" lon="19.79837">
        <ele>146.446903</ele>
        <time>2022-05-14T08:33:23.096Z</time>
      </trkpt>
      <trkpt lat="41.34291" lon="19.79835">
        <ele>145.598012</ele>
        <time>2022-05-14T08:33:26.075Z</time>
      </trkpt>
      <trkpt lat="41.34299" lon="19.79827">
        <ele>144.864287</ele>
        <time>2022-05-14T08:33:29.081Z</time>
      </trkpt>
      <trkpt lat="41.34298" lon="19.79811">
        <ele>143.923408</ele>
        <time>2022-05-14T08:33:32.096Z</time>
      </trkpt>
      <trkpt lat="41.34298" lon="19.79795">
        <ele>142.96379</ele>
        <time>2022-05-14T08:33:35.071Z</time>
      </trkpt>
      <trkpt lat="41.34304" lon="19.79787">
        <ele>142.249705</ele>
        <time>2022-05-14T08:33:39.075Z</time>
      </trkpt>
      <trkpt lat="41.34313" lon="19.79786">
        <ele>141.527923</ele>
        <time>2022-05-14T08:33:41.074Z</time>
      </trkpt>
      <trkpt lat="41.34326" lon="19.79785">
        <ele>140.496022</ele>
        <time>2022-05-14T08:33:44.055Z</time>
      </trkpt>
      <trkpt lat="41.34338" lon="19.79786">
        <ele>139.535089</ele>
        <time>2022-05-14T08:33:47.062Z</time>
      </trkpt>
      <trkpt lat="41.34349" lon="19.79784">
        <ele>138.632586</ele>
        <time>2022-05-14T08:33:50.080Z</time>
      </trkpt>
      <trkpt lat="41.34359" lon="19.79784">
        <ele>137.887024</ele>
        <time>2022-05-14T08:33:53.094Z</time>
      </trkpt>
      <trkpt lat="41.34369" lon="19.79783">
        <ele>137.157658</ele>
        <time>2022-05-14T08:33:59.071Z</time>
      </trkpt>
      <trkpt lat="41.34378" lon="19.79783">
        <ele>136.98501</ele>
        <time>2022-05-14T08:34:04.057Z</time>
      </trkpt>
      <trkpt lat="41.34386" lon="19.79792">
        <ele>136.810606</ele>
        <time>2022-05-14T08:34:09.103Z</time>
      </trkpt>
      <trkpt lat="41.34394" lon="19.79799">
        <ele>136.64654</ele>
        <time>2022-05-14T08:34:13.087Z</time>
      </trkpt>
      <trkpt lat="41.34403" lon="19.79804">
        <ele>136.475366</ele>
        <time>2022-05-14T08:34:17.107Z</time>
      </trkpt>
      <trkpt lat="41.34414" lon="19.79805">
        <ele>136.274469</ele>
        <time>2022-05-14T08:34:20.087Z</time>
      </trkpt>
      <trkpt lat="41.34425" lon="19.79803">
        <ele>136.085576</ele>
        <time>2022-05-14T08:34:23.122Z</time>
      </trkpt>
      <trkpt lat="41.34436" lon="19.79803">
        <ele>135.8952</ele>
        <time>2022-05-14T08:34:26.100Z</time>
      </trkpt>
      <trkpt lat="41.34446" lon="19.79803">
        <ele>135.72604</ele>
        <time>2022-05-14T08:34:31.080Z</time>
      </trkpt>
      <trkpt lat="41.34456" lon="19.79801">
        <ele>135.550394</ele>
        <time>2022-05-14T08:34:38.072Z</time>
      </trkpt>
      <trkpt lat="41.34465" lon="19.798">
        <ele>135.387319</ele>
        <time>2022-05-14T08:34:42.068Z</time>
      </trkpt>
      <trkpt lat="41.34474" lon="19.79799">
        <ele>135.227846</ele>
        <time>2022-05-14T08:34:45.076Z</time>
      </trkpt>
      <trkpt lat="41.34485" lon="19.79798">
        <ele>135.047746</ele>
        <time>2022-05-14T08:34:49.076Z</time>
      </trkpt>
      <trkpt lat="41.34495" lon="19.79797">
        <ele>134.86963</ele>
        <time>2022-05-14T08:34:56.076Z</time>
      </trkpt>
      <trkpt lat="41.34497" lon="19.79782">
        <ele>134.673572</ele>
        <time>2022-05-14T08:35:01.065Z</time>
      </trkpt>
      <trkpt lat="41.34495" lon="19.79768">
        <ele>134.489883</ele>
        <time>2022-05-14T08:35:04.070Z</time>
      </trkpt>
      <trkpt lat="41.34495" lon="19.79753">
        <ele>134.281597</ele>
        <time>2022-05-14T08:35:07.061Z</time>
      </trkpt>
      <trkpt lat="41.34495" lon="19.79735">
        <ele>134.053682</ele>
        <time>2022-05-14T08:35:10.156Z</time>
      </trkpt>
      <trkpt lat="41.34495" lon="19.7972">
        <ele>133.733837</ele>
        <time>2022-05-14T08:35:13.058Z</time>
      </trkpt>
      <trkpt lat="41.34495" lon="19.79706">
        <ele>133.427698</ele>
        <time>2022-05-14T08:35:18.084Z</time>
      </trkpt>
      <trkpt lat="41.34494" lon="19.79693">
        <ele>133.144427</ele>
        <time>2022-05-14T08:35:22.087Z</time>
      </trkpt>
      <trkpt lat="41.34501" lon="19.79686">
        <ele>132.877029</ele>
        <time>2022-05-14T08:35:26.059Z</time>
      </trkpt>
      <trkpt lat="41.34511" lon="19.79689">
        <ele>132.600856</ele>
        <time>2022-05-14T08:35:30.145Z</time>
      </trkpt>
      <trkpt lat="41.3452" lon="19.79691">
        <ele>132.333156</ele>
        <time>2022-05-14T08:35:33.134Z</time>
      </trkpt>
      <trkpt lat="41.34531" lon="19.79693">
        <ele>132.013381</ele>
        <time>2022-05-14T08:35:36.056Z</time>
      </trkpt>
      <trkpt lat="41.34542" lon="19.79696">
        <ele>131.665418</ele>
        <time>2022-05-14T08:35:39.067Z</time>
      </trkpt>
      <trkpt lat="41.34552" lon="19.797">
        <ele>131.368912</ele>
        <time>2022-05-14T08:35:42.080Z</time>
      </trkpt>
      <trkpt lat="41.34559" lon="19.79709">
        <ele>131.089304</ele>
        <time>2022-05-14T08:35:45.068Z</time>
      </trkpt>
      <trkpt lat="41.34566" lon="19.79718">
        <ele>130.812761</ele>
        <time>2022-05-14T08:35:48.136Z</time>
      </trkpt>
      <trkpt lat="41.34574" lon="19.79728">
        <ele>130.492507</ele>
        <time>2022-05-14T08:35:51.067Z</time>
      </trkpt>
      <trkpt lat="41.34585" lon="19.79736">
        <ele>130.112873</ele>
        <time>2022-05-14T08:35:54.054Z</time>
      </trkpt>
      <trkpt lat="41.34595" lon="19.79741">
        <ele>129.802445</ele>
        <time>2022-05-14T08:35:56.080Z</time>
      </trkpt>
      <trkpt lat="41.34606" lon="19.79748">
        <ele>129.457125</ele>
        <time>2022-05-14T08:35:58.106Z</time>
      </trkpt>
      <trkpt lat="41.34616" lon="19.79755">
        <ele>129.124661</ele>
        <time>2022-05-14T08:36:00.057Z</time>
      </trkpt>
      <trkpt lat="41.34625" lon="19.79762">
        <ele>128.83039</ele>
        <time>2022-05-14T08:36:02.073Z</time>
      </trkpt>
      <trkpt lat="41.34633" lon="19.79769">
        <ele>128.668089</ele>
        <time>2022-05-14T08:36:04.064Z</time>
      </trkpt>
      <trkpt lat="41.34641" lon="19.79776">
        <ele>128.52211</ele>
        <time>2022-05-14T08:36:06.079Z</time>
      </trkpt>
      <trkpt lat="41.34649" lon="19.79783">
        <ele>128.379155</ele>
        <time>2022-05-14T08:36:10.118Z</time>
      </trkpt>
      <trkpt lat="41.34658" lon="19.7979">
        <ele>128.22836</ele>
        <time>2022-05-14T08:36:17.081Z</time>
      </trkpt>
      <trkpt lat="41.34666" lon="19.79796">
        <ele>128.088604</ele>
        <time>2022-05-14T08:36:22.106Z</time>
      </trkpt>
      <trkpt lat="41.34673" lon="19.79802">
        <ele>127.952387</ele>
        <time>2022-05-14T08:36:27.077Z</time>
      </trkpt>
      <trkpt lat="41.34685" lon="19.79804">
        <ele>127.775905</ele>
        <time>2022-05-14T08:36:31.060Z</time>
      </trkpt>
      <trkpt lat="41.34695" lon="19.79807">
        <ele>127.616293</ele>
        <time>2022-05-14T08:36:35.083Z</time>
      </trkpt>
      <trkpt lat="41.34704" lon="19.79803">
        <ele>127.473822</ele>
        <time>2022-05-14T08:36:38.067Z</time>
      </trkpt>
      <trkpt lat="41.34713" lon="19.79795">
        <ele>127.315369</ele>
        <time>2022-05-14T08:36:42.055Z</time>
      </trkpt>
      <trkpt lat="41.34724" lon="19.79792">
        <ele>127.142384</ele>
        <time>2022-05-14T08:36:45.072Z</time>
      </trkpt>
      <trkpt lat="41.34734" lon="19.79789">
        <ele>126.986491</ele>
        <time>2022-05-14T08:36:48.392Z</time>
      </trkpt>
      <trkpt lat="41.34745" lon="19.79785">
        <ele>126.818238</ele>
        <time>2022-05-14T08:36:51.045Z</time>
      </trkpt>
      <trkpt lat="41.34758" lon="19.79783">
        <ele>126.618053</ele>
        <time>2022-05-14T08:36:54.151Z</time>
      </trkpt>
      <trkpt lat="41.34767" lon="19.79781">
        <ele>126.468872</ele>
        <time>2022-05-14T08:36:56.050Z</time>
      </trkpt>
      <trkpt lat="41.3478" lon="19.79777">
        <ele>126.273959</ele>
        <time>2022-05-14T08:36:59.043Z</time>
      </trkpt>
      <trkpt lat="41.34792" lon="19.79776">
        <ele>126.096899</ele>
        <time>2022-05-14T08:37:02.089Z</time>
      </trkpt>
      <trkpt lat="41.34801" lon="19.79779">
        <ele>125.98944</ele>
        <time>2022-05-14T08:37:06.042Z</time>
      </trkpt>
      <trkpt lat="41.34811" lon="19.79782">
        <ele>125.880666</ele>
        <time>2022-05-14T08:37:11.078Z</time>
      </trkpt>
      <trkpt lat="41.3482" lon="19.79784">
        <ele>125.779577</ele>
        <time>2022-05-14T08:37:16.144Z</time>
      </trkpt>
      <trkpt lat="41.34832" lon="19.79803">
        <ele>125.575925</ele>
        <time>2022-05-14T08:37:59.091Z</time>
      </trkpt>
      <trkpt lat="41.34852" lon="19.7976">
        <ele>125.161414</ele>
        <time>2022-05-14T08:39:55.074Z</time>
      </trkpt>
      <trkpt lat="41.34851" lon="19.79746">
        <ele>125.048719</ele>
        <time>2022-05-14T08:40:00.047Z</time>
      </trkpt>
      <trkpt lat="41.34852" lon="19.79732">
        <ele>124.936163</ele>
        <time>2022-05-14T08:40:05.064Z</time>
      </trkpt>
      <trkpt lat="41.34853" lon="19.79719">
        <ele>124.827186</ele>
        <time>2022-05-14T08:40:10.054Z</time>
      </trkpt>
      <trkpt lat="41.34857" lon="19.79705">
        <ele>124.712617</ele>
        <time>2022-05-14T08:40:15.038Z</time>
      </trkpt>
      <trkpt lat="41.34863" lon="19.79693">
        <ele>124.598615</ele>
        <time>2022-05-14T08:40:21.043Z</time>
      </trkpt>
      <trkpt lat="41.34872" lon="19.7969">
        <ele>124.496281</ele>
        <time>2022-05-14T08:40:26.041Z</time>
      </trkpt>
      <trkpt lat="41.34882" lon="19.79696">
        <ele>124.376396</ele>
        <time>2022-05-14T08:40:35.054Z</time>
      </trkpt>
      <trkpt lat="41.3489" lon="19.79703">
        <ele>124.268584</ele>
        <time>2022-05-14T08:40:43.045Z</time>
      </trkpt>
      <trkpt lat="41.34899" lon="19.79707">
        <ele>124.165671</ele>
        <time>2022-05-14T08:40:50.042Z</time>
      </trkpt>
      <trkpt lat="41.34909" lon="19.79709">
        <ele>124.111378</ele>
        <time>2022-05-14T08:40:55.041Z</time>
      </trkpt>
      <trkpt lat="41.34918" lon="19.7971">
        <ele>124.071723</ele>
        <time>2022-05-14T08:41:00.058Z</time>
      </trkpt>
      <trkpt lat="41.34928" lon="19.79713">
        <ele>124.031309</ele>
        <time>2022-05-14T08:41:06.039Z</time>
      </trkpt>
      <trkpt lat="41.34937" lon="19.79715">
        <ele>123.993937</ele>
        <time>2022-05-14T08:41:12.064Z</time>
      </trkpt>
      <trkpt lat="41.34947" lon="19.79716">
        <ele>123.956663</ele>
        <time>2022-05-14T08:41:18.035Z</time>
      </trkpt>
      <trkpt lat="41.34956" lon="19.79714">
        <ele>123.920127</ele>
        <time>2022-05-14T08:41:25.048Z</time>
      </trkpt>
      <trkpt lat="41.3496" lon="19.79702">
        <ele>123.877717</ele>
        <time>2022-05-14T08:41:39.053Z</time>
      </trkpt>
      <trkpt lat="41.34963" lon="19.79687">
        <ele>123.831854</ele>
        <time>2022-05-14T08:41:42.095Z</time>
      </trkpt>
      <trkpt lat="41.34968" lon="19.7967">
        <ele>123.777292</ele>
        <time>2022-05-14T08:41:45.053Z</time>
      </trkpt>
      <trkpt lat="41.34971" lon="19.79657">
        <ele>123.734385</ele>
        <time>2022-05-14T08:41:47.053Z</time>
      </trkpt>
      <trkpt lat="41.34975" lon="19.79641">
        <ele>123.684903</ele>
        <time>2022-05-14T08:41:49.047Z</time>
      </trkpt>
      <trkpt lat="41.34979" lon="19.79625">
        <ele>123.633883</ele>
        <time>2022-05-14T08:41:51.042Z</time>
      </trkpt>
      <trkpt lat="41.34983" lon="19.7961">
        <ele>123.583853</ele>
        <time>2022-05-14T08:41:53.051Z</time>
      </trkpt>
      <trkpt lat="41.34987" lon="19.79595">
        <ele>123.535517</ele>
        <time>2022-05-14T08:41:55.039Z</time>
      </trkpt>
      <trkpt lat="41.34991" lon="19.7958">
        <ele>123.488617</ele>
        <time>2022-05-14T08:41:57.051Z</time>
      </trkpt>
      <trkpt lat="41.34995" lon="19.79565">
        <ele>123.441433</ele>
        <time>2022-05-14T08:41:59.046Z</time>
      </trkpt>
      <trkpt lat="41.35" lon="19.79551">
        <ele>123.324793</ele>
        <time>2022-05-14T08:42:01.043Z</time>
      </trkpt>
      <trkpt lat="41.35004" lon="19.79536">
        <ele>123.127461</ele>
        <time>2022-05-14T08:42:03.041Z</time>
      </trkpt>
      <trkpt lat="41.35007" lon="19.79522">
        <ele>122.937341</ele>
        <time>2022-05-14T08:42:05.071Z</time>
      </trkpt>
      <trkpt lat="41.35011" lon="19.79508">
        <ele>122.744207</ele>
        <time>2022-05-14T08:42:07.055Z</time>
      </trkpt>
      <trkpt lat="41.35016" lon="19.79494">
        <ele>122.548054</ele>
        <time>2022-05-14T08:42:09.043Z</time>
      </trkpt>
      <trkpt lat="41.3502" lon="19.7948">
        <ele>122.353649</ele>
        <time>2022-05-14T08:42:11.063Z</time>
      </trkpt>
      <trkpt lat="41.35024" lon="19.79466">
        <ele>122.157523</ele>
        <time>2022-05-14T08:42:13.044Z</time>
      </trkpt>
      <trkpt lat="41.35028" lon="19.79453">
        <ele>121.97521</ele>
        <time>2022-05-14T08:42:15.052Z</time>
      </trkpt>
      <trkpt lat="41.35032" lon="19.79439">
        <ele>121.792898</ele>
        <time>2022-05-14T08:42:17.069Z</time>
      </trkpt>
      <trkpt lat="41.35035" lon="19.79425">
        <ele>121.603924</ele>
        <time>2022-05-14T08:42:19.040Z</time>
      </trkpt>
      <trkpt lat="41.35039" lon="19.79412">
        <ele>121.424007</ele>
        <time>2022-05-14T08:42:21.053Z</time>
      </trkpt>
      <trkpt lat="41.35042" lon="19.79399">
        <ele>121.245927</ele>
        <time>2022-05-14T08:42:23.039Z</time>
      </trkpt>
      <trkpt lat="41.35046" lon="19.79386">
        <ele>121.069641</ele>
        <time>2022-05-14T08:42:25.045Z</time>
      </trkpt>
      <trkpt lat="41.3505" lon="19.79374">
        <ele>120.899343</ele>
        <time>2022-05-14T08:42:27.048Z</time>
      </trkpt>
      <trkpt lat="41.35053" lon="19.79362">
        <ele>120.727884</ele>
        <time>2022-05-14T08:42:29.075Z</time>
      </trkpt>
      <trkpt lat="41.35057" lon="19.79349">
        <ele>120.55561</ele>
        <time>2022-05-14T08:42:31.044Z</time>
      </trkpt>
      <trkpt lat="41.35061" lon="19.79337">
        <ele>120.386556</ele>
        <time>2022-05-14T08:42:33.045Z</time>
      </trkpt>
      <trkpt lat="41.35064" lon="19.79324">
        <ele>120.533776</ele>
        <time>2022-05-14T08:42:35.047Z</time>
      </trkpt>
      <trkpt lat="41.35068" lon="19.79311">
        <ele>120.811636</ele>
        <time>2022-05-14T08:42:37.048Z</time>
      </trkpt>
      <trkpt lat="41.35071" lon="19.79299">
        <ele>121.077158</ele>
        <time>2022-05-14T08:42:39.050Z</time>
      </trkpt>
      <trkpt lat="41.35074" lon="19.79286">
        <ele>121.34755</ele>
        <time>2022-05-14T08:42:41.068Z</time>
      </trkpt>
      <trkpt lat="41.35077" lon="19.79273">
        <ele>121.625657</ele>
        <time>2022-05-14T08:42:43.050Z</time>
      </trkpt>
      <trkpt lat="41.3508" lon="19.79261">
        <ele>121.878909</ele>
        <time>2022-05-14T08:42:45.048Z</time>
      </trkpt>
      <trkpt lat="41.35083" lon="19.79249">
        <ele>122.139875</ele>
        <time>2022-05-14T08:42:47.067Z</time>
      </trkpt>
      <trkpt lat="41.35087" lon="19.79237">
        <ele>122.402577</ele>
        <time>2022-05-14T08:42:49.046Z</time>
      </trkpt>
      <trkpt lat="41.3509" lon="19.79225">
        <ele>122.659683</ele>
        <time>2022-05-14T08:42:51.042Z</time>
      </trkpt>
      <trkpt lat="41.35093" lon="19.79213">
        <ele>122.915736</ele>
        <time>2022-05-14T08:42:53.069Z</time>
      </trkpt>
      <trkpt lat="41.35096" lon="19.79202">
        <ele>123.161494</ele>
        <time>2022-05-14T08:42:55.049Z</time>
      </trkpt>
      <trkpt lat="41.351" lon="19.79185">
        <ele>123.513736</ele>
        <time>2022-05-14T08:42:58.086Z</time>
      </trkpt>
      <trkpt lat="41.35103" lon="19.79171">
        <ele>123.821206</ele>
        <time>2022-05-14T08:43:01.055Z</time>
      </trkpt>
      <trkpt lat="41.35107" lon="19.79159">
        <ele>124.085828</ele>
        <time>2022-05-14T08:43:04.162Z</time>
      </trkpt>
      <trkpt lat="41.3511" lon="19.79146">
        <ele>124.354294</ele>
        <time>2022-05-14T08:43:07.105Z</time>
      </trkpt>
      <trkpt lat="41.35114" lon="19.79133">
        <ele>124.649281</ele>
        <time>2022-05-14T08:43:10.071Z</time>
      </trkpt>
      <trkpt lat="41.35117" lon="19.79118">
        <ele>124.951166</ele>
        <time>2022-05-14T08:43:13.087Z</time>
      </trkpt>
      <trkpt lat="41.35121" lon="19.79105">
        <ele>125.204105</ele>
        <time>2022-05-14T08:43:16.081Z</time>
      </trkpt>
      <trkpt lat="41.35123" lon="19.79094">
        <ele>125.192</ele>
        <time>2022-05-14T08:43:19.047Z</time>
      </trkpt>
      <trkpt lat="41.35127" lon="19.79081">
        <ele>125.178652</ele>
        <time>2022-05-14T08:43:22.073Z</time>
      </trkpt>
      <trkpt lat="41.3513" lon="19.79066">
        <ele>125.163327</ele>
        <time>2022-05-14T08:43:25.098Z</time>
      </trkpt>
      <trkpt lat="41.35134" lon="19.79051">
        <ele>125.1474</ele>
        <time>2022-05-14T08:43:28.064Z</time>
      </trkpt>
      <trkpt lat="41.35138" lon="19.79035">
        <ele>125.131297</ele>
        <time>2022-05-14T08:43:31.084Z</time>
      </trkpt>
      <trkpt lat="41.35142" lon="19.7902">
        <ele>125.115151</ele>
        <time>2022-05-14T08:43:34.068Z</time>
      </trkpt>
      <trkpt lat="41.35146" lon="19.79004">
        <ele>125.098684</ele>
        <time>2022-05-14T08:43:37.082Z</time>
      </trkpt>
      <trkpt lat="41.35151" lon="19.78988">
        <ele>125.082401</ele>
        <time>2022-05-14T08:43:40.074Z</time>
      </trkpt>
      <trkpt lat="41.35155" lon="19.78972">
        <ele>125.066061</ele>
        <time>2022-05-14T08:43:43.100Z</time>
      </trkpt>
      <trkpt lat="41.35158" lon="19.78955">
        <ele>125.04869</ele>
        <time>2022-05-14T08:43:46.076Z</time>
      </trkpt>
      <trkpt lat="41.35163" lon="19.78938">
        <ele>125.031023</ele>
        <time>2022-05-14T08:43:49.102Z</time>
      </trkpt>
      <trkpt lat="41.35167" lon="19.78922">
        <ele>125.013591</ele>
        <time>2022-05-14T08:43:52.089Z</time>
      </trkpt>
      <trkpt lat="41.3517" lon="19.7891">
        <ele>125.001766</ele>
        <time>2022-05-14T08:43:54.081Z</time>
      </trkpt>
      <trkpt lat="41.35173" lon="19.78899">
        <ele>124.989805</ele>
        <time>2022-05-14T08:43:56.079Z</time>
      </trkpt>
      <trkpt lat="41.35177" lon="19.78887">
        <ele>124.977478</ele>
        <time>2022-05-14T08:43:58.159Z</time>
      </trkpt>
      <trkpt lat="41.3518" lon="19.78875">
        <ele>124.966718</ele>
        <time>2022-05-14T08:44:00.123Z</time>
      </trkpt>
      <trkpt lat="41.35183" lon="19.78863">
        <ele>124.958382</ele>
        <time>2022-05-14T08:44:02.115Z</time>
      </trkpt>
      <trkpt lat="41.35186" lon="19.78851">
        <ele>124.949772</ele>
        <time>2022-05-14T08:44:04.079Z</time>
      </trkpt>
      <trkpt lat="41.35189" lon="19.78838">
        <ele>124.940583</ele>
        <time>2022-05-14T08:44:06.059Z</time>
      </trkpt>
      <trkpt lat="41.35191" lon="19.78825">
        <ele>124.931534</ele>
        <time>2022-05-14T08:44:08.077Z</time>
      </trkpt>
      <trkpt lat="41.35193" lon="19.78812">
        <ele>124.922656</ele>
        <time>2022-05-14T08:44:10.105Z</time>
      </trkpt>
      <trkpt lat="41.35195" lon="19.788">
        <ele>124.914503</ele>
        <time>2022-05-14T08:44:12.096Z</time>
      </trkpt>
      <trkpt lat="41.35198" lon="19.78783">
        <ele>124.903288</ele>
        <time>2022-05-14T08:44:15.074Z</time>
      </trkpt>
      <trkpt lat="41.35199" lon="19.78766">
        <ele>124.891496</ele>
        <time>2022-05-14T08:44:18.082Z</time>
      </trkpt>
      <trkpt lat="41.35199" lon="19.78753">
        <ele>124.883367</ele>
        <time>2022-05-14T08:44:20.086Z</time>
      </trkpt>
      <trkpt lat="41.35198" lon="19.78741">
        <ele>124.875288</ele>
        <time>2022-05-14T08:44:22.112Z</time>
      </trkpt>
      <trkpt lat="41.35198" lon="19.78729">
        <ele>124.866815</ele>
        <time>2022-05-14T08:44:24.087Z</time>
      </trkpt>
      <trkpt lat="41.35196" lon="19.78714">
        <ele>124.857183</ele>
        <time>2022-05-14T08:44:26.071Z</time>
      </trkpt>
      <trkpt lat="41.35193" lon="19.78702">
        <ele>124.84823</ele>
        <time>2022-05-14T08:44:28.063Z</time>
      </trkpt>
      <trkpt lat="41.35187" lon="19.7869">
        <ele>124.838609</ele>
        <time>2022-05-14T08:44:30.064Z</time>
      </trkpt>
      <trkpt lat="41.35181" lon="19.78676">
        <ele>124.828042</ele>
        <time>2022-05-14T08:44:32.077Z</time>
      </trkpt>
      <trkpt lat="41.35174" lon="19.78663">
        <ele>124.817516</ele>
        <time>2022-05-14T08:44:34.148Z</time>
      </trkpt>
      <trkpt lat="41.35168" lon="19.78649">
        <ele>124.679447</ele>
        <time>2022-05-14T08:44:36.072Z</time>
      </trkpt>
      <trkpt lat="41.35161" lon="19.78636">
        <ele>124.303463</ele>
        <time>2022-05-14T08:44:38.069Z</time>
      </trkpt>
      <trkpt lat="41.35154" lon="19.78622">
        <ele>123.934773</ele>
        <time>2022-05-14T08:44:40.070Z</time>
      </trkpt>
      <trkpt lat="41.35148" lon="19.78608">
        <ele>123.562187</ele>
        <time>2022-05-14T08:44:42.075Z</time>
      </trkpt>
      <trkpt lat="41.35148" lon="19.78593">
        <ele>123.21424</ele>
        <time>2022-05-14T08:44:44.082Z</time>
      </trkpt>
      <trkpt lat="41.35152" lon="19.78579">
        <ele>122.858971</ele>
        <time>2022-05-14T08:44:46.076Z</time>
      </trkpt>
      <trkpt lat="41.35156" lon="19.78564">
        <ele>122.494739</ele>
        <time>2022-05-14T08:44:48.091Z</time>
      </trkpt>
      <trkpt lat="41.3516" lon="19.7855">
        <ele>122.138388</ele>
        <time>2022-05-14T08:44:50.116Z</time>
      </trkpt>
      <trkpt lat="41.35165" lon="19.78536">
        <ele>121.788389</ele>
        <time>2022-05-14T08:44:52.081Z</time>
      </trkpt>
      <trkpt lat="41.35168" lon="19.78522">
        <ele>121.451532</ele>
        <time>2022-05-14T08:44:54.072Z</time>
      </trkpt>
      <trkpt lat="41.35173" lon="19.78509">
        <ele>121.109125</ele>
        <time>2022-05-14T08:44:56.076Z</time>
      </trkpt>
      <trkpt lat="41.35176" lon="19.78495">
        <ele>120.78521</ele>
        <time>2022-05-14T08:44:58.087Z</time>
      </trkpt>
      <trkpt lat="41.3518" lon="19.78483">
        <ele>120.477588</ele>
        <time>2022-05-14T08:45:00.052Z</time>
      </trkpt>
      <trkpt lat="41.35183" lon="19.78471">
        <ele>120.17318</ele>
        <time>2022-05-14T08:45:02.090Z</time>
      </trkpt>
      <trkpt lat="41.35187" lon="19.78459">
        <ele>119.875302</ele>
        <time>2022-05-14T08:45:04.061Z</time>
      </trkpt>
      <trkpt lat="41.3519" lon="19.78447">
        <ele>119.583941</ele>
        <time>2022-05-14T08:45:06.053Z</time>
      </trkpt>
      <trkpt lat="41.35193" lon="19.78435">
        <ele>119.29896</ele>
        <time>2022-05-14T08:45:08.084Z</time>
      </trkpt>
      <trkpt lat="41.35196" lon="19.78424">
        <ele>119.344675</ele>
        <time>2022-05-14T08:45:10.071Z</time>
      </trkpt>
      <trkpt lat="41.352" lon="19.78408">
        <ele>119.463968</ele>
        <time>2022-05-14T08:45:13.103Z</time>
      </trkpt>
      <trkpt lat="41.35204" lon="19.78392">
        <ele>119.588369</ele>
        <time>2022-05-14T08:45:16.060Z</time>
      </trkpt>
      <trkpt lat="41.35208" lon="19.78375">
        <ele>119.712572</ele>
        <time>2022-05-14T08:45:19.071Z</time>
      </trkpt>
      <trkpt lat="41.35211" lon="19.78358">
        <ele>119.83917</ele>
        <time>2022-05-14T08:45:22.062Z</time>
      </trkpt>
      <trkpt lat="41.35214" lon="19.78347">
        <ele>119.926775</ele>
        <time>2022-05-14T08:45:24.115Z</time>
      </trkpt>
      <trkpt lat="41.35217" lon="19.78335">
        <ele>120.015352</ele>
        <time>2022-05-14T08:45:26.107Z</time>
      </trkpt>
      <trkpt lat="41.35221" lon="19.78318">
        <ele>120.144566</ele>
        <time>2022-05-14T08:45:29.076Z</time>
      </trkpt>
      <trkpt lat="41.35224" lon="19.78307">
        <ele>120.231301</ele>
        <time>2022-05-14T08:45:31.081Z</time>
      </trkpt>
      <trkpt lat="41.35226" lon="19.78295">
        <ele>120.318101</ele>
        <time>2022-05-14T08:45:33.073Z</time>
      </trkpt>
      <trkpt lat="41.35231" lon="19.78279">
        <ele>120.44686</ele>
        <time>2022-05-14T08:45:36.071Z</time>
      </trkpt>
      <trkpt lat="41.35234" lon="19.78262">
        <ele>120.56912</ele>
        <time>2022-05-14T08:45:39.084Z</time>
      </trkpt>
      <trkpt lat="41.35239" lon="19.78247">
        <ele>120.690738</ele>
        <time>2022-05-14T08:45:42.082Z</time>
      </trkpt>
      <trkpt lat="41.35242" lon="19.78236">
        <ele>120.777575</ele>
        <time>2022-05-14T08:45:44.048Z</time>
      </trkpt>
      <trkpt lat="41.35245" lon="19.78224">
        <ele>120.866051</ele>
        <time>2022-05-14T08:45:46.077Z</time>
      </trkpt>
      <trkpt lat="41.35248" lon="19.78212">
        <ele>120.954836</ele>
        <time>2022-05-14T08:45:48.075Z</time>
      </trkpt>
      <trkpt lat="41.35251" lon="19.78201">
        <ele>120.900866</ele>
        <time>2022-05-14T08:45:50.093Z</time>
      </trkpt>
      <trkpt lat="41.35254" lon="19.78189">
        <ele>120.705843</ele>
        <time>2022-05-14T08:45:52.081Z</time>
      </trkpt>
      <trkpt lat="41.35258" lon="19.78173">
        <ele>120.423418</ele>
        <time>2022-05-14T08:45:55.063Z</time>
      </trkpt>
      <trkpt lat="41.35263" lon="19.78156">
        <ele>120.143218</ele>
        <time>2022-05-14T08:45:58.068Z</time>
      </trkpt>
      <trkpt lat="41.35266" lon="19.78141">
        <ele>119.874276</ele>
        <time>2022-05-14T08:46:01.072Z</time>
      </trkpt>
      <trkpt lat="41.35269" lon="19.78124">
        <ele>119.599577</ele>
        <time>2022-05-14T08:46:04.087Z</time>
      </trkpt>
      <trkpt lat="41.35272" lon="19.78106">
        <ele>119.305906</ele>
        <time>2022-05-14T08:46:07.072Z</time>
      </trkpt>
      <trkpt lat="41.35275" lon="19.78095">
        <ele>119.104388</ele>
        <time>2022-05-14T08:46:09.075Z</time>
      </trkpt>
      <trkpt lat="41.35278" lon="19.78082">
        <ele>118.892675</ele>
        <time>2022-05-14T08:46:11.087Z</time>
      </trkpt>
      <trkpt lat="41.35281" lon="19.78069">
        <ele>118.672213</ele>
        <time>2022-05-14T08:46:13.054Z</time>
      </trkpt>
      <trkpt lat="41.35284" lon="19.78057">
        <ele>118.462924</ele>
        <time>2022-05-14T08:46:15.088Z</time>
      </trkpt>
      <trkpt lat="41.35287" lon="19.78045">
        <ele>118.268237</ele>
        <time>2022-05-14T08:46:17.066Z</time>
      </trkpt>
      <trkpt lat="41.35289" lon="19.78033">
        <ele>118.057391</ele>
        <time>2022-05-14T08:46:19.067Z</time>
      </trkpt>
      <trkpt lat="41.35292" lon="19.7802">
        <ele>117.835619</ele>
        <time>2022-05-14T08:46:21.053Z</time>
      </trkpt>
      <trkpt lat="41.35295" lon="19.78006">
        <ele>117.604286</ele>
        <time>2022-05-14T08:46:23.063Z</time>
      </trkpt>
      <trkpt lat="41.35298" lon="19.77992">
        <ele>117.368848</ele>
        <time>2022-05-14T08:46:25.062Z</time>
      </trkpt>
      <trkpt lat="41.35301" lon="19.77978">
        <ele>117.135959</ele>
        <time>2022-05-14T08:46:27.069Z</time>
      </trkpt>
      <trkpt lat="41.35304" lon="19.77965">
        <ele>117.082538</ele>
        <time>2022-05-14T08:46:29.074Z</time>
      </trkpt>
      <trkpt lat="41.35307" lon="19.77953">
        <ele>117.046288</ele>
        <time>2022-05-14T08:46:31.075Z</time>
      </trkpt>
      <trkpt lat="41.35309" lon="19.7794">
        <ele>117.010652</ele>
        <time>2022-05-14T08:46:33.066Z</time>
      </trkpt>
      <trkpt lat="41.35311" lon="19.77928">
        <ele>116.97748</ele>
        <time>2022-05-14T08:46:35.074Z</time>
      </trkpt>
      <trkpt lat="41.35313" lon="19.77916">
        <ele>116.944484</ele>
        <time>2022-05-14T08:46:37.076Z</time>
      </trkpt>
      <trkpt lat="41.35317" lon="19.77899">
        <ele>116.8959</ele>
        <time>2022-05-14T08:46:40.062Z</time>
      </trkpt>
      <trkpt lat="41.35321" lon="19.77888">
        <ele>116.863133</ele>
        <time>2022-05-14T08:46:42.067Z</time>
      </trkpt>
      <trkpt lat="41.35327" lon="19.77875">
        <ele>116.821462</ele>
        <time>2022-05-14T08:46:45.070Z</time>
      </trkpt>
      <trkpt lat="41.35333" lon="19.77861">
        <ele>116.777594</ele>
        <time>2022-05-14T08:46:48.076Z</time>
      </trkpt>
      <trkpt lat="41.35339" lon="19.77848">
        <ele>116.735743</ele>
        <time>2022-05-14T08:46:50.108Z</time>
      </trkpt>
      <trkpt lat="41.35344" lon="19.77836">
        <ele>116.697033</ele>
        <time>2022-05-14T08:46:52.076Z</time>
      </trkpt>
      <trkpt lat="41.35349" lon="19.77824">
        <ele>116.660755</ele>
        <time>2022-05-14T08:46:54.079Z</time>
      </trkpt>
      <trkpt lat="41.35354" lon="19.77812">
        <ele>116.624775</ele>
        <time>2022-05-14T08:46:56.083Z</time>
      </trkpt>
      <trkpt lat="41.35359" lon="19.77801">
        <ele>116.589448</ele>
        <time>2022-05-14T08:46:58.083Z</time>
      </trkpt>
      <trkpt lat="41.35363" lon="19.77791">
        <ele>116.556185</ele>
        <time>2022-05-14T08:47:00.063Z</time>
      </trkpt>
      <trkpt lat="41.3537" lon="19.77776">
        <ele>116.508319</ele>
        <time>2022-05-14T08:47:03.070Z</time>
      </trkpt>
      <trkpt lat="41.35376" lon="19.77762">
        <ele>116.464265</ele>
        <time>2022-05-14T08:47:06.097Z</time>
      </trkpt>
      <trkpt lat="41.35383" lon="19.77749">
        <ele>116.333374</ele>
        <time>2022-05-14T08:47:09.075Z</time>
      </trkpt>
      <trkpt lat="41.35389" lon="19.77736">
        <ele>116.20381</ele>
        <time>2022-05-14T08:47:12.063Z</time>
      </trkpt>
      <trkpt lat="41.35395" lon="19.77721">
        <ele>116.056092</ele>
        <time>2022-05-14T08:47:15.064Z</time>
      </trkpt>
      <trkpt lat="41.35402" lon="19.77705">
        <ele>115.906883</ele>
        <time>2022-05-14T08:47:18.084Z</time>
      </trkpt>
      <trkpt lat="41.35407" lon="19.77695">
        <ele>115.801772</ele>
        <time>2022-05-14T08:47:20.060Z</time>
      </trkpt>
      <trkpt lat="41.35411" lon="19.77684">
        <ele>115.700159</ele>
        <time>2022-05-14T08:47:22.074Z</time>
      </trkpt>
      <trkpt lat="41.35418" lon="19.77669">
        <ele>115.555167</ele>
        <time>2022-05-14T08:47:25.069Z</time>
      </trkpt>
      <trkpt lat="41.35424" lon="19.77655">
        <ele>115.415754</ele>
        <time>2022-05-14T08:47:28.063Z</time>
      </trkpt>
      <trkpt lat="41.3543" lon="19.7764">
        <ele>115.271174</ele>
        <time>2022-05-14T08:47:31.064Z</time>
      </trkpt>
      <trkpt lat="41.35436" lon="19.77627">
        <ele>115.139098</ele>
        <time>2022-05-14T08:47:34.101Z</time>
      </trkpt>
      <trkpt lat="41.35442" lon="19.77615">
        <ele>115.01978</ele>
        <time>2022-05-14T08:47:37.078Z</time>
      </trkpt>
      <trkpt lat="41.35447" lon="19.77604">
        <ele>114.91595</ele>
        <time>2022-05-14T08:47:40.066Z</time>
      </trkpt>
      <trkpt lat="41.35452" lon="19.77594">
        <ele>114.805598</ele>
        <time>2022-05-14T08:47:44.080Z</time>
      </trkpt>
      <trkpt lat="41.35458" lon="19.77584">
        <ele>114.699259</ele>
        <time>2022-05-14T08:47:53.060Z</time>
      </trkpt>
      <trkpt lat="41.35465" lon="19.77573">
        <ele>114.574587</ele>
        <time>2022-05-14T08:47:58.095Z</time>
      </trkpt>
      <trkpt lat="41.35472" lon="19.77561">
        <ele>114.449967</ele>
        <time>2022-05-14T08:48:02.081Z</time>
      </trkpt>
      <trkpt lat="41.35479" lon="19.77551">
        <ele>114.74008</ele>
        <time>2022-05-14T08:48:06.084Z</time>
      </trkpt>
      <trkpt lat="41.35485" lon="19.77541">
        <ele>115.046321</ele>
        <time>2022-05-14T08:48:12.074Z</time>
      </trkpt>
      <trkpt lat="41.35491" lon="19.77529">
        <ele>115.380308</ele>
        <time>2022-05-14T08:48:20.077Z</time>
      </trkpt>
      <trkpt lat="41.35498" lon="19.77507">
        <ele>115.967685</ele>
        <time>2022-05-14T08:48:59.074Z</time>
      </trkpt>
      <trkpt lat="41.35503" lon="19.77493">
        <ele>116.347541</ele>
        <time>2022-05-14T08:49:03.073Z</time>
      </trkpt>
      <trkpt lat="41.35509" lon="19.77484">
        <ele>116.64517</ele>
        <time>2022-05-14T08:49:06.073Z</time>
      </trkpt>
      <trkpt lat="41.35518" lon="19.77476">
        <ele>117.000408</ele>
        <time>2022-05-14T08:49:10.059Z</time>
      </trkpt>
      <trkpt lat="41.35528" lon="19.77472">
        <ele>117.356085</ele>
        <time>2022-05-14T08:49:13.063Z</time>
      </trkpt>
      <trkpt lat="41.35539" lon="19.77468">
        <ele>117.716808</ele>
        <time>2022-05-14T08:49:16.056Z</time>
      </trkpt>
      <trkpt lat="41.35549" lon="19.77464">
        <ele>118.053682</ele>
        <time>2022-05-14T08:49:19.091Z</time>
      </trkpt>
      <trkpt lat="41.35559" lon="19.7746">
        <ele>118.378576</ele>
        <time>2022-05-14T08:49:22.074Z</time>
      </trkpt>
      <trkpt lat="41.35569" lon="19.77456">
        <ele>118.742779</ele>
        <time>2022-05-14T08:49:26.052Z</time>
      </trkpt>
      <trkpt lat="41.3558" lon="19.77452">
        <ele>119.111081</ele>
        <time>2022-05-14T08:49:30.093Z</time>
      </trkpt>
      <trkpt lat="41.35589" lon="19.77448">
        <ele>119.40678</ele>
        <time>2022-05-14T08:49:33.063Z</time>
      </trkpt>
      <trkpt lat="41.35598" lon="19.77445">
        <ele>119.723129</ele>
        <time>2022-05-14T08:49:37.079Z</time>
      </trkpt>
      <trkpt lat="41.35608" lon="19.77441">
        <ele>120.039597</ele>
        <time>2022-05-14T08:49:41.103Z</time>
      </trkpt>
      <trkpt lat="41.35618" lon="19.77438">
        <ele>120.515227</ele>
        <time>2022-05-14T08:49:46.066Z</time>
      </trkpt>
      <trkpt lat="41.35627" lon="19.77435">
        <ele>121.114421</ele>
        <time>2022-05-14T08:49:50.068Z</time>
      </trkpt>
      <trkpt lat="41.35637" lon="19.77433">
        <ele>121.748177</ele>
        <time>2022-05-14T08:49:54.075Z</time>
      </trkpt>
      <trkpt lat="41.35647" lon="19.77429">
        <ele>122.428625</ele>
        <time>2022-05-14T08:49:58.075Z</time>
      </trkpt>
      <trkpt lat="41.35658" lon="19.77426">
        <ele>123.159143</ele>
        <time>2022-05-14T08:50:03.098Z</time>
      </trkpt>
      <trkpt lat="41.35667" lon="19.77424">
        <ele>123.761717</ele>
        <time>2022-05-14T08:50:07.076Z</time>
      </trkpt>
      <trkpt lat="41.35676" lon="19.7742">
        <ele>124.380522</ele>
        <time>2022-05-14T08:50:11.053Z</time>
      </trkpt>
      <trkpt lat="41.35685" lon="19.77417">
        <ele>125.039195</ele>
        <time>2022-05-14T08:50:16.081Z</time>
      </trkpt>
      <trkpt lat="41.35694" lon="19.77412">
        <ele>125.645704</ele>
        <time>2022-05-14T08:50:20.109Z</time>
      </trkpt>
      <trkpt lat="41.35703" lon="19.77408">
        <ele>126.275331</ele>
        <time>2022-05-14T08:50:25.057Z</time>
      </trkpt>
      <trkpt lat="41.35713" lon="19.77403">
        <ele>126.989403</ele>
        <time>2022-05-14T08:50:30.093Z</time>
      </trkpt>
      <trkpt lat="41.35723" lon="19.77399">
        <ele>127.681214</ele>
        <time>2022-05-14T08:50:35.075Z</time>
      </trkpt>
      <trkpt lat="41.35733" lon="19.77394">
        <ele>128.363888</ele>
        <time>2022-05-14T08:50:40.070Z</time>
      </trkpt>
      <trkpt lat="41.35743" lon="19.77389">
        <ele>129.0377</ele>
        <time>2022-05-14T08:50:44.064Z</time>
      </trkpt>
      <trkpt lat="41.35751" lon="19.77385">
        <ele>129.633131</ele>
        <time>2022-05-14T08:50:48.072Z</time>
      </trkpt>
      <trkpt lat="41.35761" lon="19.7738">
        <ele>130.282529</ele>
        <time>2022-05-14T08:50:52.061Z</time>
      </trkpt>
      <trkpt lat="41.3577" lon="19.77373">
        <ele>130.973725</ele>
        <time>2022-05-14T08:50:56.087Z</time>
      </trkpt>
      <trkpt lat="41.35779" lon="19.77369">
        <ele>131.592528</ele>
        <time>2022-05-14T08:51:00.074Z</time>
      </trkpt>
      <trkpt lat="41.35787" lon="19.77365">
        <ele>132.1061</ele>
        <time>2022-05-14T08:51:04.068Z</time>
      </trkpt>
      <trkpt lat="41.35795" lon="19.77359">
        <ele>132.322462</ele>
        <time>2022-05-14T08:51:08.085Z</time>
      </trkpt>
      <trkpt lat="41.35806" lon="19.77352">
        <ele>132.584418</ele>
        <time>2022-05-14T08:51:13.076Z</time>
      </trkpt>
      <trkpt lat="41.35816" lon="19.77344">
        <ele>132.855964</ele>
        <time>2022-05-14T08:51:17.103Z</time>
      </trkpt>
      <trkpt lat="41.35824" lon="19.77338">
        <ele>133.064937</ele>
        <time>2022-05-14T08:51:21.108Z</time>
      </trkpt>
      <trkpt lat="41.35833" lon="19.77332">
        <ele>133.315823</ele>
        <time>2022-05-14T08:51:25.069Z</time>
      </trkpt>
      <trkpt lat="41.35842" lon="19.77324">
        <ele>133.547787</ele>
        <time>2022-05-14T08:51:29.066Z</time>
      </trkpt>
      <trkpt lat="41.3585" lon="19.77316">
        <ele>133.783168</ele>
        <time>2022-05-14T08:51:33.107Z</time>
      </trkpt>
      <trkpt lat="41.35857" lon="19.77309">
        <ele>133.994101</ele>
        <time>2022-05-14T08:51:37.092Z</time>
      </trkpt>
      <trkpt lat="41.35865" lon="19.77303">
        <ele>134.202436</ele>
        <time>2022-05-14T08:51:40.133Z</time>
      </trkpt>
      <trkpt lat="41.35874" lon="19.77297">
        <ele>134.440707</ele>
        <time>2022-05-14T08:51:44.078Z</time>
      </trkpt>
      <trkpt lat="41.35883" lon="19.77291">
        <ele>134.666363</ele>
        <time>2022-05-14T08:51:48.088Z</time>
      </trkpt>
      <trkpt lat="41.35892" lon="19.77285">
        <ele>134.882725</ele>
        <time>2022-05-14T08:51:52.069Z</time>
      </trkpt>
      <trkpt lat="41.35901" lon="19.77279">
        <ele>135.113013</ele>
        <time>2022-05-14T08:51:56.085Z</time>
      </trkpt>
      <trkpt lat="41.35909" lon="19.77273">
        <ele>135.345627</ele>
        <time>2022-05-14T08:51:59.069Z</time>
      </trkpt>
      <trkpt lat="41.35918" lon="19.77267">
        <ele>135.568444</ele>
        <time>2022-05-14T08:52:02.065Z</time>
      </trkpt>
      <trkpt lat="41.35928" lon="19.77259">
        <ele>135.829639</ele>
        <time>2022-05-14T08:52:06.066Z</time>
      </trkpt>
      <trkpt lat="41.35937" lon="19.77253">
        <ele>136.060576</ele>
        <time>2022-05-14T08:52:10.072Z</time>
      </trkpt>
      <trkpt lat="41.35947" lon="19.77247">
        <ele>136.144274</ele>
        <time>2022-05-14T08:52:15.092Z</time>
      </trkpt>
      <trkpt lat="41.35956" lon="19.77244">
        <ele>136.023311</ele>
        <time>2022-05-14T08:52:18.071Z</time>
      </trkpt>
      <trkpt lat="41.35966" lon="19.77238">
        <ele>135.882659</ele>
        <time>2022-05-14T08:52:21.076Z</time>
      </trkpt>
      <trkpt lat="41.35975" lon="19.77233">
        <ele>135.75713</ele>
        <time>2022-05-14T08:52:24.094Z</time>
      </trkpt>
      <trkpt lat="41.35985" lon="19.77231">
        <ele>135.616286</ele>
        <time>2022-05-14T08:52:28.085Z</time>
      </trkpt>
      <trkpt lat="41.35995" lon="19.77228">
        <ele>135.485787</ele>
        <time>2022-05-14T08:52:31.106Z</time>
      </trkpt>
      <trkpt lat="41.36004" lon="19.77222">
        <ele>135.353866</ele>
        <time>2022-05-14T08:52:34.065Z</time>
      </trkpt>
      <trkpt lat="41.36015" lon="19.77222">
        <ele>135.210448</ele>
        <time>2022-05-14T08:52:38.066Z</time>
      </trkpt>
      <trkpt lat="41.36027" lon="19.7722">
        <ele>135.058101</ele>
        <time>2022-05-14T08:52:42.071Z</time>
      </trkpt>
      <trkpt lat="41.36039" lon="19.77219">
        <ele>134.899781</ele>
        <time>2022-05-14T08:52:46.071Z</time>
      </trkpt>
      <trkpt lat="41.3605" lon="19.77217">
        <ele>134.750357</ele>
        <time>2022-05-14T08:52:50.072Z</time>
      </trkpt>
      <trkpt lat="41.3606" lon="19.77216">
        <ele>134.61861</ele>
        <time>2022-05-14T08:52:53.133Z</time>
      </trkpt>
      <trkpt lat="41.36073" lon="19.77215">
        <ele>134.453946</ele>
        <time>2022-05-14T08:52:56.119Z</time>
      </trkpt>
      <trkpt lat="41.36083" lon="19.77213">
        <ele>134.321666</ele>
        <time>2022-05-14T08:52:59.057Z</time>
      </trkpt>
      <trkpt lat="41.36094" lon="19.7721">
        <ele>134.173626</ele>
        <time>2022-05-14T08:53:02.121Z</time>
      </trkpt>
      <trkpt lat="41.36105" lon="19.77207">
        <ele>134.027458</ele>
        <time>2022-05-14T08:53:06.048Z</time>
      </trkpt>
      <trkpt lat="41.36116" lon="19.77205">
        <ele>133.886329</ele>
        <time>2022-05-14T08:53:10.039Z</time>
      </trkpt>
      <trkpt lat="41.36125" lon="19.77204">
        <ele>133.568675</ele>
        <time>2022-05-14T08:53:13.090Z</time>
      </trkpt>
      <trkpt lat="41.36135" lon="19.77203">
        <ele>133.207352</ele>
        <time>2022-05-14T08:53:16.074Z</time>
      </trkpt>
      <trkpt lat="41.36147" lon="19.77203">
        <ele>132.755402</ele>
        <time>2022-05-14T08:53:19.050Z</time>
      </trkpt>
      <trkpt lat="41.3616" lon="19.77202">
        <ele>132.26053</ele>
        <time>2022-05-14T08:53:22.094Z</time>
      </trkpt>
      <trkpt lat="41.36169" lon="19.772">
        <ele>131.901005</ele>
        <time>2022-05-14T08:53:24.090Z</time>
      </trkpt>
      <trkpt lat="41.36179" lon="19.77199">
        <ele>131.511297</ele>
        <time>2022-05-14T08:53:26.071Z</time>
      </trkpt>
      <trkpt lat="41.3619" lon="19.77198">
        <ele>131.11532</ele>
        <time>2022-05-14T08:53:28.067Z</time>
      </trkpt>
      <trkpt lat="41.36201" lon="19.77196">
        <ele>130.69101</ele>
        <time>2022-05-14T08:53:31.075Z</time>
      </trkpt>
      <trkpt lat="41.36214" lon="19.77194">
        <ele>130.20089</ele>
        <time>2022-05-14T08:53:34.098Z</time>
      </trkpt>
      <trkpt lat="41.36223" lon="19.77193">
        <ele>129.830663</ele>
        <time>2022-05-14T08:53:36.076Z</time>
      </trkpt>
      <trkpt lat="41.36234" lon="19.77192">
        <ele>129.438474</ele>
        <time>2022-05-14T08:53:38.080Z</time>
      </trkpt>
      <trkpt lat="41.36245" lon="19.7719">
        <ele>129.019097</ele>
        <time>2022-05-14T08:53:40.075Z</time>
      </trkpt>
      <trkpt lat="41.36254" lon="19.7719">
        <ele>128.642962</ele>
        <time>2022-05-14T08:53:42.083Z</time>
      </trkpt>
      <trkpt lat="41.36268" lon="19.7719">
        <ele>128.134052</ele>
        <time>2022-05-14T08:53:45.073Z</time>
      </trkpt>
      <trkpt lat="41.36278" lon="19.77188">
        <ele>127.72788</ele>
        <time>2022-05-14T08:53:47.089Z</time>
      </trkpt>
      <trkpt lat="41.3629" lon="19.77186">
        <ele>127.285004</ele>
        <time>2022-05-14T08:53:49.075Z</time>
      </trkpt>
      <trkpt lat="41.36303" lon="19.77183">
        <ele>126.689996</ele>
        <time>2022-05-14T08:53:51.098Z</time>
      </trkpt>
      <trkpt lat="41.36316" lon="19.77181">
        <ele>125.949357</ele>
        <time>2022-05-14T08:53:53.082Z</time>
      </trkpt>
      <trkpt lat="41.3633" lon="19.77177">
        <ele>125.154317</ele>
        <time>2022-05-14T08:53:55.122Z</time>
      </trkpt>
      <trkpt lat="41.36343" lon="19.77173">
        <ele>124.374577</ele>
        <time>2022-05-14T08:53:57.069Z</time>
      </trkpt>
      <trkpt lat="41.36356" lon="19.77169">
        <ele>123.617008</ele>
        <time>2022-05-14T08:53:59.074Z</time>
      </trkpt>
      <trkpt lat="41.3637" lon="19.77164">
        <ele>122.858359</ele>
        <time>2022-05-14T08:54:01.059Z</time>
      </trkpt>
      <trkpt lat="41.36383" lon="19.77159">
        <ele>122.099342</ele>
        <time>2022-05-14T08:54:03.093Z</time>
      </trkpt>
      <trkpt lat="41.36395" lon="19.77153">
        <ele>121.360535</ele>
        <time>2022-05-14T08:54:05.089Z</time>
      </trkpt>
      <trkpt lat="41.36407" lon="19.77147">
        <ele>120.645263</ele>
        <time>2022-05-14T08:54:07.068Z</time>
      </trkpt>
      <trkpt lat="41.36418" lon="19.77141">
        <ele>119.973313</ele>
        <time>2022-05-14T08:54:09.062Z</time>
      </trkpt>
      <trkpt lat="41.36428" lon="19.77136">
        <ele>119.374546</ele>
        <time>2022-05-14T08:54:11.083Z</time>
      </trkpt>
      <trkpt lat="41.36438" lon="19.77131">
        <ele>118.762321</ele>
        <time>2022-05-14T08:54:13.056Z</time>
      </trkpt>
      <trkpt lat="41.36448" lon="19.77126">
        <ele>118.200877</ele>
        <time>2022-05-14T08:54:15.062Z</time>
      </trkpt>
      <trkpt lat="41.3646" lon="19.77119">
        <ele>117.452943</ele>
        <time>2022-05-14T08:54:18.063Z</time>
      </trkpt>
      <trkpt lat="41.3647" lon="19.77114">
        <ele>116.905071</ele>
        <time>2022-05-14T08:54:20.102Z</time>
      </trkpt>
      <trkpt lat="41.36481" lon="19.77108">
        <ele>116.470793</ele>
        <time>2022-05-14T08:54:22.066Z</time>
      </trkpt>
      <trkpt lat="41.36493" lon="19.77101">
        <ele>115.978153</ele>
        <time>2022-05-14T08:54:24.062Z</time>
      </trkpt>
      <trkpt lat="41.36507" lon="19.77094">
        <ele>115.460011</ele>
        <time>2022-05-14T08:54:26.081Z</time>
      </trkpt>
      <trkpt lat="41.3652" lon="19.77086">
        <ele>114.921998</ele>
        <time>2022-05-14T08:54:28.103Z</time>
      </trkpt>
      <trkpt lat="41.36535" lon="19.77078">
        <ele>114.353024</ele>
        <time>2022-05-14T08:54:30.072Z</time>
      </trkpt>
      <trkpt lat="41.36547" lon="19.77071">
        <ele>113.85932</ele>
        <time>2022-05-14T08:54:32.075Z</time>
      </trkpt>
      <trkpt lat="41.36559" lon="19.77064">
        <ele>113.406495</ele>
        <time>2022-05-14T08:54:34.119Z</time>
      </trkpt>
      <trkpt lat="41.36569" lon="19.77059">
        <ele>113.012952</ele>
        <time>2022-05-14T08:54:36.093Z</time>
      </trkpt>
      <trkpt lat="41.3658" lon="19.77052">
        <ele>112.577792</ele>
        <time>2022-05-14T08:54:38.077Z</time>
      </trkpt>
      <trkpt lat="41.36594" lon="19.77044">
        <ele>112.032039</ele>
        <time>2022-05-14T08:54:40.091Z</time>
      </trkpt>
      <trkpt lat="41.36607" lon="19.77037">
        <ele>111.509629</ele>
        <time>2022-05-14T08:54:42.078Z</time>
      </trkpt>
      <trkpt lat="41.36618" lon="19.77031">
        <ele>111.080281</ele>
        <time>2022-05-14T08:54:44.062Z</time>
      </trkpt>
      <trkpt lat="41.36628" lon="19.77026">
        <ele>110.702226</ele>
        <time>2022-05-14T08:54:46.071Z</time>
      </trkpt>
      <trkpt lat="41.36637" lon="19.77022">
        <ele>110.352809</ele>
        <time>2022-05-14T08:54:48.077Z</time>
      </trkpt>
      <trkpt lat="41.36645" lon="19.77017">
        <ele>110.023957</ele>
        <time>2022-05-14T08:54:52.087Z</time>
      </trkpt>
      <trkpt lat="41.36657" lon="19.77011">
        <ele>109.587387</ele>
        <time>2022-05-14T08:54:56.074Z</time>
      </trkpt>
      <trkpt lat="41.36665" lon="19.77007">
        <ele>109.26519</ele>
        <time>2022-05-14T08:54:58.102Z</time>
      </trkpt>
      <trkpt lat="41.36675" lon="19.77002">
        <ele>108.895261</ele>
        <time>2022-05-14T08:55:00.092Z</time>
      </trkpt>
      <trkpt lat="41.36684" lon="19.76996">
        <ele>108.518948</ele>
        <time>2022-05-14T08:55:02.067Z</time>
      </trkpt>
      <trkpt lat="41.36693" lon="19.76991">
        <ele>108.187267</ele>
        <time>2022-05-14T08:55:04.072Z</time>
      </trkpt>
      <trkpt lat="41.36702" lon="19.76987">
        <ele>107.838336</ele>
        <time>2022-05-14T08:55:06.071Z</time>
      </trkpt>
      <trkpt lat="41.36712" lon="19.76982">
        <ele>107.477031</ele>
        <time>2022-05-14T08:55:08.075Z</time>
      </trkpt>
      <trkpt lat="41.36721" lon="19.76977">
        <ele>107.111416</ele>
        <time>2022-05-14T08:55:10.076Z</time>
      </trkpt>
      <trkpt lat="41.3673" lon="19.76972">
        <ele>106.748091</ele>
        <time>2022-05-14T08:55:12.103Z</time>
      </trkpt>
      <trkpt lat="41.36739" lon="19.76967">
        <ele>106.420756</ele>
        <time>2022-05-14T08:55:14.077Z</time>
      </trkpt>
      <trkpt lat="41.3675" lon="19.76961">
        <ele>105.987814</ele>
        <time>2022-05-14T08:55:17.075Z</time>
      </trkpt>
      <trkpt lat="41.36759" lon="19.76956">
        <ele>105.647403</ele>
        <time>2022-05-14T08:55:19.084Z</time>
      </trkpt>
      <trkpt lat="41.36768" lon="19.76952">
        <ele>105.293282</ele>
        <time>2022-05-14T08:55:21.086Z</time>
      </trkpt>
      <trkpt lat="41.36778" lon="19.76947">
        <ele>104.940587</ele>
        <time>2022-05-14T08:55:23.121Z</time>
      </trkpt>
      <trkpt lat="41.36787" lon="19.76943">
        <ele>104.585808</ele>
        <time>2022-05-14T08:55:25.081Z</time>
      </trkpt>
      <trkpt lat="41.36796" lon="19.76938">
        <ele>104.243244</ele>
        <time>2022-05-14T08:55:27.089Z</time>
      </trkpt>
      <trkpt lat="41.36804" lon="19.76933">
        <ele>104.018822</ele>
        <time>2022-05-14T08:55:29.071Z</time>
      </trkpt>
      <trkpt lat="41.36813" lon="19.76928">
        <ele>103.98041</ele>
        <time>2022-05-14T08:55:31.115Z</time>
      </trkpt>
      <trkpt lat="41.36822" lon="19.76923">
        <ele>103.941375</ele>
        <time>2022-05-14T08:55:33.059Z</time>
      </trkpt>
      <trkpt lat="41.36832" lon="19.76918">
        <ele>103.899362</ele>
        <time>2022-05-14T08:55:35.069Z</time>
      </trkpt>
      <trkpt lat="41.36842" lon="19.76912">
        <ele>103.858556</ele>
        <time>2022-05-14T08:55:37.068Z</time>
      </trkpt>
      <trkpt lat="41.36851" lon="19.76907">
        <ele>103.817979</ele>
        <time>2022-05-14T08:55:39.080Z</time>
      </trkpt>
      <trkpt lat="41.36861" lon="19.76902">
        <ele>103.777536</ele>
        <time>2022-05-14T08:55:41.095Z</time>
      </trkpt>
      <trkpt lat="41.3687" lon="19.76896">
        <ele>103.737937</ele>
        <time>2022-05-14T08:55:43.060Z</time>
      </trkpt>
      <trkpt lat="41.36879" lon="19.76891">
        <ele>103.698817</ele>
        <time>2022-05-14T08:55:45.106Z</time>
      </trkpt>
      <trkpt lat="41.36888" lon="19.76886">
        <ele>103.658718</ele>
        <time>2022-05-14T08:55:47.092Z</time>
      </trkpt>
      <trkpt lat="41.36897" lon="19.76881">
        <ele>103.621157</ele>
        <time>2022-05-14T08:55:49.073Z</time>
      </trkpt>
      <trkpt lat="41.36906" lon="19.76876">
        <ele>103.581753</ele>
        <time>2022-05-14T08:55:51.057Z</time>
      </trkpt>
      <trkpt lat="41.36915" lon="19.76871">
        <ele>103.544185</ele>
        <time>2022-05-14T08:55:53.071Z</time>
      </trkpt>
      <trkpt lat="41.36924" lon="19.76866">
        <ele>103.506504</ele>
        <time>2022-05-14T08:55:55.088Z</time>
      </trkpt>
      <trkpt lat="41.36933" lon="19.76861">
        <ele>103.4675</ele>
        <time>2022-05-14T08:55:57.060Z</time>
      </trkpt>
      <trkpt lat="41.36941" lon="19.76856">
        <ele>103.430309</ele>
        <time>2022-05-14T08:55:59.080Z</time>
      </trkpt>
      <trkpt lat="41.36953" lon="19.76849">
        <ele>103.379392</ele>
        <time>2022-05-14T08:56:02.093Z</time>
      </trkpt>
      <trkpt lat="41.36963" lon="19.76843">
        <ele>103.3369</ele>
        <time>2022-05-14T08:56:05.062Z</time>
      </trkpt>
      <trkpt lat="41.36973" lon="19.76837">
        <ele>103.254233</ele>
        <time>2022-05-14T08:56:08.062Z</time>
      </trkpt>
      <trkpt lat="41.36983" lon="19.76832">
        <ele>103.14732</ele>
        <time>2022-05-14T08:56:11.074Z</time>
      </trkpt>
      <trkpt lat="41.36991" lon="19.76827">
        <ele>103.053242</ele>
        <time>2022-05-14T08:56:14.056Z</time>
      </trkpt>
      <trkpt lat="41.37001" lon="19.76822">
        <ele>102.948293</ele>
        <time>2022-05-14T08:56:17.076Z</time>
      </trkpt>
      <trkpt lat="41.37011" lon="19.76816">
        <ele>102.83924</ele>
        <time>2022-05-14T08:56:20.065Z</time>
      </trkpt>
      <trkpt lat="41.37021" lon="19.76814">
        <ele>102.740181</ele>
        <time>2022-05-14T08:56:23.084Z</time>
      </trkpt>
      <trkpt lat="41.3703" lon="19.76813">
        <ele>102.646568</ele>
        <time>2022-05-14T08:56:26.087Z</time>
      </trkpt>
      <trkpt lat="41.37041" lon="19.76805">
        <ele>102.527616</ele>
        <time>2022-05-14T08:56:29.132Z</time>
      </trkpt>
      <trkpt lat="41.3705" lon="19.76796">
        <ele>102.411377</ele>
        <time>2022-05-14T08:56:33.079Z</time>
      </trkpt>
      <trkpt lat="41.37058" lon="19.76789">
        <ele>102.314166</ele>
        <time>2022-05-14T08:56:36.075Z</time>
      </trkpt>
      <trkpt lat="41.37068" lon="19.76783">
        <ele>102.205734</ele>
        <time>2022-05-14T08:56:39.096Z</time>
      </trkpt>
      <trkpt lat="41.37078" lon="19.76777">
        <ele>102.097302</ele>
        <time>2022-05-14T08:56:42.099Z</time>
      </trkpt>
      <trkpt lat="41.37088" lon="19.7677">
        <ele>101.983501</ele>
        <time>2022-05-14T08:56:45.073Z</time>
      </trkpt>
      <trkpt lat="41.37099" lon="19.76764">
        <ele>101.859674</ele>
        <time>2022-05-14T08:56:48.072Z</time>
      </trkpt>
      <trkpt lat="41.37111" lon="19.76757">
        <ele>101.73473</ele>
        <time>2022-05-14T08:56:51.111Z</time>
      </trkpt>
      <trkpt lat="41.37121" lon="19.76751">
        <ele>101.621942</ele>
        <time>2022-05-14T08:56:54.074Z</time>
      </trkpt>
      <trkpt lat="41.37132" lon="19.76743">
        <ele>101.516321</ele>
        <time>2022-05-14T08:56:57.072Z</time>
      </trkpt>
      <trkpt lat="41.37144" lon="19.76737">
        <ele>101.509531</ele>
        <time>2022-05-14T08:57:00.061Z</time>
      </trkpt>
      <trkpt lat="41.37153" lon="19.76734">
        <ele>101.504392</ele>
        <time>2022-05-14T08:57:02.108Z</time>
      </trkpt>
      <trkpt lat="41.37165" lon="19.76727">
        <ele>101.497617</ele>
        <time>2022-05-14T08:57:05.080Z</time>
      </trkpt>
      <trkpt lat="41.37174" lon="19.76722">
        <ele>101.49259</ele>
        <time>2022-05-14T08:57:07.060Z</time>
      </trkpt>
      <trkpt lat="41.37183" lon="19.76717">
        <ele>101.487532</ele>
        <time>2022-05-14T08:57:09.092Z</time>
      </trkpt>
      <trkpt lat="41.37191" lon="19.76712">
        <ele>101.48279</ele>
        <time>2022-05-14T08:57:11.071Z</time>
      </trkpt>
      <trkpt lat="41.37203" lon="19.76705">
        <ele>101.475838</ele>
        <time>2022-05-14T08:57:14.085Z</time>
      </trkpt>
      <trkpt lat="41.37215" lon="19.76699">
        <ele>101.469054</ele>
        <time>2022-05-14T08:57:17.064Z</time>
      </trkpt>
      <trkpt lat="41.37227" lon="19.76693">
        <ele>101.462531</ele>
        <time>2022-05-14T08:57:20.090Z</time>
      </trkpt>
      <trkpt lat="41.37237" lon="19.76687">
        <ele>101.456285</ele>
        <time>2022-05-14T08:57:23.079Z</time>
      </trkpt>
      <trkpt lat="41.37248" lon="19.76683">
        <ele>101.45054</ele>
        <time>2022-05-14T08:57:26.067Z</time>
      </trkpt>
      <trkpt lat="41.37257" lon="19.76679">
        <ele>101.445289</ele>
        <time>2022-05-14T08:57:29.087Z</time>
      </trkpt>
      <trkpt lat="41.37273" lon="19.76665">
        <ele>101.435574</ele>
        <time>2022-05-14T09:00:28.076Z</time>
      </trkpt>
      <trkpt lat="41.37282" lon="19.7666">
        <ele>101.430191</ele>
        <time>2022-05-14T09:00:31.070Z</time>
      </trkpt>
      <trkpt lat="41.37292" lon="19.76655">
        <ele>101.424764</ele>
        <time>2022-05-14T09:00:34.076Z</time>
      </trkpt>
      <trkpt lat="41.37301" lon="19.76649">
        <ele>101.619708</ele>
        <time>2022-05-14T09:00:37.078Z</time>
      </trkpt>
      <trkpt lat="41.37311" lon="19.76644">
        <ele>101.949089</ele>
        <time>2022-05-14T09:00:40.085Z</time>
      </trkpt>
      <trkpt lat="41.37321" lon="19.76638">
        <ele>102.300335</ele>
        <time>2022-05-14T09:00:43.066Z</time>
      </trkpt>
      <trkpt lat="41.37332" lon="19.76632">
        <ele>102.673693</ele>
        <time>2022-05-14T09:00:46.065Z</time>
      </trkpt>
      <trkpt lat="41.37343" lon="19.76625">
        <ele>103.053773</ele>
        <time>2022-05-14T09:00:49.091Z</time>
      </trkpt>
      <trkpt lat="41.37351" lon="19.7662">
        <ele>103.340881</ele>
        <time>2022-05-14T09:00:51.070Z</time>
      </trkpt>
      <trkpt lat="41.37363" lon="19.76612">
        <ele>103.754083</ele>
        <time>2022-05-14T09:00:54.079Z</time>
      </trkpt>
      <trkpt lat="41.37374" lon="19.76606">
        <ele>104.12383</ele>
        <time>2022-05-14T09:00:57.078Z</time>
      </trkpt>
      <trkpt lat="41.37385" lon="19.766">
        <ele>104.518274</ele>
        <time>2022-05-14T09:01:00.053Z</time>
      </trkpt>
      <trkpt lat="41.37397" lon="19.76593">
        <ele>104.928061</ele>
        <time>2022-05-14T09:01:03.072Z</time>
      </trkpt>
      <trkpt lat="41.3741" lon="19.76587">
        <ele>105.358493</ele>
        <time>2022-05-14T09:01:06.072Z</time>
      </trkpt>
      <trkpt lat="41.37419" lon="19.76582">
        <ele>105.655431</ele>
        <time>2022-05-14T09:01:08.146Z</time>
      </trkpt>
      <trkpt lat="41.37431" lon="19.76575">
        <ele>106.075853</ele>
        <time>2022-05-14T09:01:11.093Z</time>
      </trkpt>
      <trkpt lat="41.3744" lon="19.7657">
        <ele>106.381996</ele>
        <time>2022-05-14T09:01:13.059Z</time>
      </trkpt>
      <trkpt lat="41.37449" lon="19.76566">
        <ele>106.668418</ele>
        <time>2022-05-14T09:01:15.067Z</time>
      </trkpt>
      <trkpt lat="41.3746" lon="19.76558">
        <ele>107.063002</ele>
        <time>2022-05-14T09:01:18.096Z</time>
      </trkpt>
      <trkpt lat="41.37471" lon="19.76552">
        <ele>107.17035</ele>
        <time>2022-05-14T09:01:21.068Z</time>
      </trkpt>
      <trkpt lat="41.37483" lon="19.76545">
        <ele>107.259413</ele>
        <time>2022-05-14T09:01:24.074Z</time>
      </trkpt>
      <trkpt lat="41.37494" lon="19.76539">
        <ele>107.343993</ele>
        <time>2022-05-14T09:01:27.069Z</time>
      </trkpt>
      <trkpt lat="41.37506" lon="19.76532">
        <ele>107.439309</ele>
        <time>2022-05-14T09:01:30.086Z</time>
      </trkpt>
      <trkpt lat="41.37518" lon="19.76525">
        <ele>107.529655</ele>
        <time>2022-05-14T09:01:33.073Z</time>
      </trkpt>
      <trkpt lat="41.3753" lon="19.76519">
        <ele>107.621031</ele>
        <time>2022-05-14T09:01:36.083Z</time>
      </trkpt>
      <trkpt lat="41.37539" lon="19.76514">
        <ele>107.692277</ele>
        <time>2022-05-14T09:01:39.066Z</time>
      </trkpt>
      <trkpt lat="41.3755" lon="19.76509">
        <ele>107.769683</ele>
        <time>2022-05-14T09:01:42.077Z</time>
      </trkpt>
      <trkpt lat="41.3756" lon="19.765">
        <ele>107.857793</ele>
        <time>2022-05-14T09:01:45.088Z</time>
      </trkpt>
      <trkpt lat="41.37568" lon="19.76495">
        <ele>107.921616</ele>
        <time>2022-05-14T09:01:47.109Z</time>
      </trkpt>
      <trkpt lat="41.37581" lon="19.76488">
        <ele>108.017561</ele>
        <time>2022-05-14T09:01:50.071Z</time>
      </trkpt>
      <trkpt lat="41.37592" lon="19.76482">
        <ele>108.104883</ele>
        <time>2022-05-14T09:01:53.113Z</time>
      </trkpt>
      <trkpt lat="41.37604" lon="19.76477">
        <ele>108.195893</ele>
        <time>2022-05-14T09:01:56.094Z</time>
      </trkpt>
      <trkpt lat="41.37613" lon="19.76472">
        <ele>108.260825</ele>
        <time>2022-05-14T09:01:58.062Z</time>
      </trkpt>
      <trkpt lat="41.37624" lon="19.76465">
        <ele>108.349441</ele>
        <time>2022-05-14T09:02:01.086Z</time>
      </trkpt>
      <trkpt lat="41.37636" lon="19.76459">
        <ele>108.596053</ele>
        <time>2022-05-14T09:02:04.102Z</time>
      </trkpt>
      <trkpt lat="41.37648" lon="19.76452">
        <ele>108.897089</ele>
        <time>2022-05-14T09:02:07.060Z</time>
      </trkpt>
      <trkpt lat="41.37659" lon="19.76446">
        <ele>109.166447</ele>
        <time>2022-05-14T09:02:10.070Z</time>
      </trkpt>
      <trkpt lat="41.37671" lon="19.76438">
        <ele>109.445417</ele>
        <time>2022-05-14T09:02:13.065Z</time>
      </trkpt>
      <trkpt lat="41.37681" lon="19.76431">
        <ele>109.707362</ele>
        <time>2022-05-14T09:02:16.113Z</time>
      </trkpt>
      <trkpt lat="41.37693" lon="19.76424">
        <ele>109.997028</ele>
        <time>2022-05-14T09:02:19.080Z</time>
      </trkpt>
      <trkpt lat="41.37705" lon="19.76415">
        <ele>110.297765</ele>
        <time>2022-05-14T09:02:22.063Z</time>
      </trkpt>
      <trkpt lat="41.37714" lon="19.76409">
        <ele>110.514813</ele>
        <time>2022-05-14T09:02:24.081Z</time>
      </trkpt>
      <trkpt lat="41.37723" lon="19.76404">
        <ele>110.736208</ele>
        <time>2022-05-14T09:02:26.117Z</time>
      </trkpt>
      <trkpt lat="41.37733" lon="19.76398">
        <ele>110.971145</ele>
        <time>2022-05-14T09:02:28.064Z</time>
      </trkpt>
      <trkpt lat="41.37742" lon="19.76392">
        <ele>111.202023</ele>
        <time>2022-05-14T09:02:30.093Z</time>
      </trkpt>
      <trkpt lat="41.37751" lon="19.76387">
        <ele>111.409952</ele>
        <time>2022-05-14T09:02:32.084Z</time>
      </trkpt>
      <trkpt lat="41.37762" lon="19.76381">
        <ele>111.672541</ele>
        <time>2022-05-14T09:02:35.069Z</time>
      </trkpt>
      <trkpt lat="41.37771" lon="19.76375">
        <ele>111.898759</ele>
        <time>2022-05-14T09:02:37.118Z</time>
      </trkpt>
      <trkpt lat="41.37781" lon="19.76368">
        <ele>112.147271</ele>
        <time>2022-05-14T09:02:39.063Z</time>
      </trkpt>
      <trkpt lat="41.37791" lon="19.76363">
        <ele>112.350154</ele>
        <time>2022-05-14T09:02:41.071Z</time>
      </trkpt>
      <trkpt lat="41.37801" lon="19.76357">
        <ele>112.370235</ele>
        <time>2022-05-14T09:02:43.066Z</time>
      </trkpt>
      <trkpt lat="41.37811" lon="19.76351">
        <ele>112.390595</ele>
        <time>2022-05-14T09:02:45.080Z</time>
      </trkpt>
      <trkpt lat="41.37822" lon="19.76345">
        <ele>112.411619</ele>
        <time>2022-05-14T09:02:47.062Z</time>
      </trkpt>
      <trkpt lat="41.37833" lon="19.76339">
        <ele>112.433372</ele>
        <time>2022-05-14T09:02:49.070Z</time>
      </trkpt>
      <trkpt lat="41.37843" lon="19.76334">
        <ele>112.453084</ele>
        <time>2022-05-14T09:02:51.064Z</time>
      </trkpt>
      <trkpt lat="41.37852" lon="19.76328">
        <ele>112.471561</ele>
        <time>2022-05-14T09:02:53.051Z</time>
      </trkpt>
      <trkpt lat="41.37861" lon="19.76323">
        <ele>112.488212</ele>
        <time>2022-05-14T09:02:55.052Z</time>
      </trkpt>
      <trkpt lat="41.37873" lon="19.76315">
        <ele>112.512518</ele>
        <time>2022-05-14T09:02:58.086Z</time>
      </trkpt>
      <trkpt lat="41.37882" lon="19.76308">
        <ele>112.531425</ele>
        <time>2022-05-14T09:03:00.065Z</time>
      </trkpt>
      <trkpt lat="41.3789" lon="19.76303">
        <ele>112.548577</ele>
        <time>2022-05-14T09:03:02.073Z</time>
      </trkpt>
      <trkpt lat="41.379" lon="19.76299">
        <ele>112.567099</ele>
        <time>2022-05-14T09:03:04.067Z</time>
      </trkpt>
      <trkpt lat="41.37913" lon="19.76292">
        <ele>112.592436</ele>
        <time>2022-05-14T09:03:06.074Z</time>
      </trkpt>
      <trkpt lat="41.37923" lon="19.76287">
        <ele>112.612173</ele>
        <time>2022-05-14T09:03:08.122Z</time>
      </trkpt>
      <trkpt lat="41.37932" lon="19.76281">
        <ele>112.630762</ele>
        <time>2022-05-14T09:03:11.111Z</time>
      </trkpt>
      <trkpt lat="41.37942" lon="19.76275">
        <ele>112.650677</ele>
        <time>2022-05-14T09:03:14.069Z</time>
      </trkpt>
      <trkpt lat="41.37953" lon="19.76269">
        <ele>112.672042</ele>
        <time>2022-05-14T09:03:17.104Z</time>
      </trkpt>
      <trkpt lat="41.37962" lon="19.76265">
        <ele>112.410125</ele>
        <time>2022-05-14T09:03:19.052Z</time>
      </trkpt>
      <trkpt lat="41.37971" lon="19.76261">
        <ele>112.127483</ele>
        <time>2022-05-14T09:03:21.077Z</time>
      </trkpt>
      <trkpt lat="41.37983" lon="19.76255">
        <ele>111.720544</ele>
        <time>2022-05-14T09:03:24.073Z</time>
      </trkpt>
      <trkpt lat="41.37993" lon="19.7625">
        <ele>111.381325</ele>
        <time>2022-05-14T09:03:26.072Z</time>
      </trkpt>
      <trkpt lat="41.38003" lon="19.76246">
        <ele>111.065489</ele>
        <time>2022-05-14T09:03:28.088Z</time>
      </trkpt>
      <trkpt lat="41.38012" lon="19.76243">
        <ele>110.766381</ele>
        <time>2022-05-14T09:03:30.088Z</time>
      </trkpt>
      <trkpt lat="41.38022" lon="19.76238">
        <ele>110.453602</ele>
        <time>2022-05-14T09:03:32.074Z</time>
      </trkpt>
      <trkpt lat="41.38032" lon="19.76233">
        <ele>110.109366</ele>
        <time>2022-05-14T09:03:34.063Z</time>
      </trkpt>
      <trkpt lat="41.38042" lon="19.76227">
        <ele>109.780076</ele>
        <time>2022-05-14T09:03:36.082Z</time>
      </trkpt>
      <trkpt lat="41.38051" lon="19.76222">
        <ele>109.465136</ele>
        <time>2022-05-14T09:03:38.067Z</time>
      </trkpt>
      <trkpt lat="41.3806" lon="19.76216">
        <ele>109.176677</ele>
        <time>2022-05-14T09:03:40.137Z</time>
      </trkpt>
      <trkpt lat="41.38072" lon="19.76209">
        <ele>108.757954</ele>
        <time>2022-05-14T09:03:43.074Z</time>
      </trkpt>
      <trkpt lat="41.38081" lon="19.76205">
        <ele>108.470976</ele>
        <time>2022-05-14T09:03:45.052Z</time>
      </trkpt>
      <trkpt lat="41.3809" lon="19.762">
        <ele>108.164584</ele>
        <time>2022-05-14T09:03:47.057Z</time>
      </trkpt>
      <trkpt lat="41.38101" lon="19.76194">
        <ele>107.810528</ele>
        <time>2022-05-14T09:03:49.054Z</time>
      </trkpt>
      <trkpt lat="41.3811" lon="19.7619">
        <ele>107.515132</ele>
        <time>2022-05-14T09:03:51.060Z</time>
      </trkpt>
      <trkpt lat="41.3812" lon="19.76185">
        <ele>107.184621</ele>
        <time>2022-05-14T09:03:54.056Z</time>
      </trkpt>
      <trkpt lat="41.38129" lon="19.76181">
        <ele>106.942407</ele>
        <time>2022-05-14T09:04:00.073Z</time>
      </trkpt>
      <trkpt lat="41.38137" lon="19.76176">
        <ele>106.719735</ele>
        <time>2022-05-14T09:04:09.113Z</time>
      </trkpt>
      <trkpt lat="41.38146" lon="19.76172">
        <ele>106.505909</ele>
        <time>2022-05-14T09:04:17.066Z</time>
      </trkpt>
      <trkpt lat="41.38162" lon="19.76163">
        <ele>106.091454</ele>
        <time>2022-05-14T09:04:35.084Z</time>
      </trkpt>
      <trkpt lat="41.3817" lon="19.76158">
        <ele>105.877072</ele>
        <time>2022-05-14T09:04:39.081Z</time>
      </trkpt>
      <trkpt lat="41.38179" lon="19.76153">
        <ele>105.648066</ele>
        <time>2022-05-14T09:04:43.104Z</time>
      </trkpt>
      <trkpt lat="41.38189" lon="19.76147">
        <ele>105.394552</ele>
        <time>2022-05-14T09:04:47.066Z</time>
      </trkpt>
      <trkpt lat="41.38198" lon="19.76142">
        <ele>105.157801</ele>
        <time>2022-05-14T09:04:52.083Z</time>
      </trkpt>
      <trkpt lat="41.38207" lon="19.76135">
        <ele>104.910271</ele>
        <time>2022-05-14T09:04:56.092Z</time>
      </trkpt>
      <trkpt lat="41.38217" lon="19.76127">
        <ele>104.628221</ele>
        <time>2022-05-14T09:05:00.064Z</time>
      </trkpt>
      <trkpt lat="41.38226" lon="19.76123">
        <ele>104.402505</ele>
        <time>2022-05-14T09:05:03.069Z</time>
      </trkpt>
      <trkpt lat="41.38239" lon="19.76117">
        <ele>104.096642</ele>
        <time>2022-05-14T09:05:06.150Z</time>
      </trkpt>
      <trkpt lat="41.38251" lon="19.76111">
        <ele>103.788407</ele>
        <time>2022-05-14T09:05:09.069Z</time>
      </trkpt>
      <trkpt lat="41.38262" lon="19.76104">
        <ele>103.488179</ele>
        <time>2022-05-14T09:05:12.083Z</time>
      </trkpt>
      <trkpt lat="41.38273" lon="19.76098">
        <ele>103.200858</ele>
        <time>2022-05-14T09:05:15.076Z</time>
      </trkpt>
      <trkpt lat="41.38284" lon="19.76092">
        <ele>102.916406</ele>
        <time>2022-05-14T09:05:18.071Z</time>
      </trkpt>
      <trkpt lat="41.38295" lon="19.76088">
        <ele>102.980024</ele>
        <time>2022-05-14T09:05:21.068Z</time>
      </trkpt>
      <trkpt lat="41.38303" lon="19.76082">
        <ele>103.148841</ele>
        <time>2022-05-14T09:05:24.083Z</time>
      </trkpt>
      <trkpt lat="41.38312" lon="19.76076">
        <ele>103.327683</ele>
        <time>2022-05-14T09:05:27.074Z</time>
      </trkpt>
      <trkpt lat="41.38323" lon="19.76069">
        <ele>103.538231</ele>
        <time>2022-05-14T09:05:31.132Z</time>
      </trkpt>
      <trkpt lat="41.38332" lon="19.76064">
        <ele>103.70021</ele>
        <time>2022-05-14T09:05:35.092Z</time>
      </trkpt>
      <trkpt lat="41.38341" lon="19.76063">
        <ele>103.860967</ele>
        <time>2022-05-14T09:05:41.073Z</time>
      </trkpt>
      <trkpt lat="41.3835" lon="19.76058">
        <ele>104.02669</ele>
        <time>2022-05-14T09:05:44.095Z</time>
      </trkpt>
      <trkpt lat="41.38357" lon="19.7605">
        <ele>104.193221</ele>
        <time>2022-05-14T09:05:47.059Z</time>
      </trkpt>
      <trkpt lat="41.38365" lon="19.76041">
        <ele>104.378015</ele>
        <time>2022-05-14T09:05:51.072Z</time>
      </trkpt>
      <trkpt lat="41.38374" lon="19.76031">
        <ele>104.583443</ele>
        <time>2022-05-14T09:05:54.127Z</time>
      </trkpt>
      <trkpt lat="41.38386" lon="19.76025">
        <ele>104.810533</ele>
        <time>2022-05-14T09:05:57.070Z</time>
      </trkpt>
      <trkpt lat="41.38399" lon="19.76018">
        <ele>105.049356</ele>
        <time>2022-05-14T09:06:00.126Z</time>
      </trkpt>
      <trkpt lat="41.38407" lon="19.76014">
        <ele>105.212314</ele>
        <time>2022-05-14T09:06:02.067Z</time>
      </trkpt>
      <trkpt lat="41.38416" lon="19.76009">
        <ele>105.373152</ele>
        <time>2022-05-14T09:06:04.055Z</time>
      </trkpt>
      <trkpt lat="41.38425" lon="19.76004">
        <ele>105.540868</ele>
        <time>2022-05-14T09:06:06.104Z</time>
      </trkpt>
      <trkpt lat="41.38434" lon="19.75999">
        <ele>105.711814</ele>
        <time>2022-05-14T09:06:08.066Z</time>
      </trkpt>
      <trkpt lat="41.38442" lon="19.75994">
        <ele>105.875785</ele>
        <time>2022-05-14T09:06:10.062Z</time>
      </trkpt>
      <trkpt lat="41.38451" lon="19.75989">
        <ele>106.056027</ele>
        <time>2022-05-14T09:06:12.103Z</time>
      </trkpt>
      <trkpt lat="41.38462" lon="19.75982">
        <ele>106.420164</ele>
        <time>2022-05-14T09:06:15.073Z</time>
      </trkpt>
      <trkpt lat="41.38473" lon="19.75974">
        <ele>106.780152</ele>
        <time>2022-05-14T09:06:18.076Z</time>
      </trkpt>
      <trkpt lat="41.38484" lon="19.75967">
        <ele>107.154444</ele>
        <time>2022-05-14T09:06:21.065Z</time>
      </trkpt>
      <trkpt lat="41.38495" lon="19.7596">
        <ele>107.483705</ele>
        <time>2022-05-14T09:06:24.108Z</time>
      </trkpt>
      <trkpt lat="41.38507" lon="19.75953">
        <ele>107.877343</ele>
        <time>2022-05-14T09:06:27.071Z</time>
      </trkpt>
      <trkpt lat="41.38518" lon="19.75945">
        <ele>108.242126</ele>
        <time>2022-05-14T09:06:30.076Z</time>
      </trkpt>
      <trkpt lat="41.38529" lon="19.75939">
        <ele>108.581974</ele>
        <time>2022-05-14T09:06:33.075Z</time>
      </trkpt>
      <trkpt lat="41.38542" lon="19.75932">
        <ele>108.986217</ele>
        <time>2022-05-14T09:06:36.068Z</time>
      </trkpt>
      <trkpt lat="41.38552" lon="19.75926">
        <ele>109.288965</ele>
        <time>2022-05-14T09:06:38.088Z</time>
      </trkpt>
      <trkpt lat="41.38562" lon="19.7592">
        <ele>109.627027</ele>
        <time>2022-05-14T09:06:40.068Z</time>
      </trkpt>
      <trkpt lat="41.38572" lon="19.75915">
        <ele>109.930286</ele>
        <time>2022-05-14T09:06:42.081Z</time>
      </trkpt>
      <trkpt lat="41.38581" lon="19.75912">
        <ele>110.211378</ele>
        <time>2022-05-14T09:06:44.083Z</time>
      </trkpt>
      <trkpt lat="41.38594" lon="19.75905">
        <ele>110.601543</ele>
        <time>2022-05-14T09:06:47.072Z</time>
      </trkpt>
      <trkpt lat="41.38603" lon="19.75899">
        <ele>110.884891</ele>
        <time>2022-05-14T09:06:49.063Z</time>
      </trkpt>
      <trkpt lat="41.38612" lon="19.75894">
        <ele>111.169968</ele>
        <time>2022-05-14T09:06:51.091Z</time>
      </trkpt>
      <trkpt lat="41.38621" lon="19.75889">
        <ele>110.68718</ele>
        <time>2022-05-14T09:06:53.072Z</time>
      </trkpt>
      <trkpt lat="41.38629" lon="19.75883">
        <ele>110.114777</ele>
        <time>2022-05-14T09:06:55.080Z</time>
      </trkpt>
      <trkpt lat="41.38638" lon="19.75878">
        <ele>109.533141</ele>
        <time>2022-05-14T09:06:57.097Z</time>
      </trkpt>
      <trkpt lat="41.3865" lon="19.75871">
        <ele>108.70374</ele>
        <time>2022-05-14T09:07:00.077Z</time>
      </trkpt>
      <trkpt lat="41.38662" lon="19.75864">
        <ele>107.891321</ele>
        <time>2022-05-14T09:07:03.095Z</time>
      </trkpt>
      <trkpt lat="41.38671" lon="19.75859">
        <ele>107.315275</ele>
        <time>2022-05-14T09:07:05.060Z</time>
      </trkpt>
      <trkpt lat="41.38679" lon="19.75854">
        <ele>106.754284</ele>
        <time>2022-05-14T09:07:07.066Z</time>
      </trkpt>
      <trkpt lat="41.38688" lon="19.75849">
        <ele>106.187501</ele>
        <time>2022-05-14T09:07:09.121Z</time>
      </trkpt>
      <trkpt lat="41.387" lon="19.75843">
        <ele>105.367353</ele>
        <time>2022-05-14T09:07:12.084Z</time>
      </trkpt>
      <trkpt lat="41.38708" lon="19.75838">
        <ele>104.798784</ele>
        <time>2022-05-14T09:07:14.078Z</time>
      </trkpt>
      <trkpt lat="41.38717" lon="19.75833">
        <ele>104.228045</ele>
        <time>2022-05-14T09:07:16.061Z</time>
      </trkpt>
      <trkpt lat="41.38726" lon="19.75829">
        <ele>103.646544</ele>
        <time>2022-05-14T09:07:18.070Z</time>
      </trkpt>
      <trkpt lat="41.38735" lon="19.75825">
        <ele>103.05033</ele>
        <time>2022-05-14T09:07:20.063Z</time>
      </trkpt>
      <trkpt lat="41.38744" lon="19.75821">
        <ele>102.466009</ele>
        <time>2022-05-14T09:07:22.087Z</time>
      </trkpt>
      <trkpt lat="41.38757" lon="19.75815">
        <ele>101.641927</ele>
        <time>2022-05-14T09:07:25.068Z</time>
      </trkpt>
      <trkpt lat="41.38768" lon="19.75809">
        <ele>100.862409</ele>
        <time>2022-05-14T09:07:28.065Z</time>
      </trkpt>
      <trkpt lat="41.38781" lon="19.75803">
        <ele>100.103065</ele>
        <time>2022-05-14T09:07:31.076Z</time>
      </trkpt>
      <trkpt lat="41.38789" lon="19.75798">
        <ele>99.868219</ele>
        <time>2022-05-14T09:07:33.093Z</time>
      </trkpt>
      <trkpt lat="41.38798" lon="19.75794">
        <ele>99.626682</ele>
        <time>2022-05-14T09:07:35.069Z</time>
      </trkpt>
      <trkpt lat="41.38807" lon="19.75789">
        <ele>99.380768</ele>
        <time>2022-05-14T09:07:37.092Z</time>
      </trkpt>
      <trkpt lat="41.38819" lon="19.75783">
        <ele>99.046315</ele>
        <time>2022-05-14T09:07:40.112Z</time>
      </trkpt>
      <trkpt lat="41.38831" lon="19.75777">
        <ele>98.702784</ele>
        <time>2022-05-14T09:07:43.066Z</time>
      </trkpt>
      <trkpt lat="41.3884" lon="19.75773">
        <ele>98.453075</ele>
        <time>2022-05-14T09:07:45.080Z</time>
      </trkpt>
      <trkpt lat="41.38849" lon="19.75768">
        <ele>98.202953</ele>
        <time>2022-05-14T09:07:47.069Z</time>
      </trkpt>
      <trkpt lat="41.38858" lon="19.75763">
        <ele>97.951097</ele>
        <time>2022-05-14T09:07:49.078Z</time>
      </trkpt>
      <trkpt lat="41.38867" lon="19.75759">
        <ele>97.699242</ele>
        <time>2022-05-14T09:07:51.110Z</time>
      </trkpt>
      <trkpt lat="41.38876" lon="19.75754">
        <ele>97.463235</ele>
        <time>2022-05-14T09:07:53.074Z</time>
      </trkpt>
      <trkpt lat="41.38888" lon="19.75748">
        <ele>97.131413</ele>
        <time>2022-05-14T09:07:56.079Z</time>
      </trkpt>
      <trkpt lat="41.389" lon="19.75742">
        <ele>96.801118</ele>
        <time>2022-05-14T09:07:59.068Z</time>
      </trkpt>
      <trkpt lat="41.38911" lon="19.75736">
        <ele>96.476619</ele>
        <time>2022-05-14T09:08:02.086Z</time>
      </trkpt>
      <trkpt lat="41.38923" lon="19.75729">
        <ele>96.154634</ele>
        <time>2022-05-14T09:08:05.074Z</time>
      </trkpt>
      <trkpt lat="41.38936" lon="19.75722">
        <ele>95.797668</ele>
        <time>2022-05-14T09:08:08.069Z</time>
      </trkpt>
      <trkpt lat="41.38947" lon="19.75716">
        <ele>95.476452</ele>
        <time>2022-05-14T09:08:11.064Z</time>
      </trkpt>
      <trkpt lat="41.3896" lon="19.75709">
        <ele>95.516515</ele>
        <time>2022-05-14T09:08:14.086Z</time>
      </trkpt>
      <trkpt lat="41.38971" lon="19.75702">
        <ele>95.556843</ele>
        <time>2022-05-14T09:08:17.070Z</time>
      </trkpt>
      <trkpt lat="41.38982" lon="19.75694">
        <ele>95.59474</ele>
        <time>2022-05-14T09:08:20.076Z</time>
      </trkpt>
      <trkpt lat="41.3899" lon="19.7569">
        <ele>95.623792</ele>
        <time>2022-05-14T09:08:22.081Z</time>
      </trkpt>
      <trkpt lat="41.39002" lon="19.75682">
        <ele>95.665604</ele>
        <time>2022-05-14T09:08:25.072Z</time>
      </trkpt>
      <trkpt lat="41.39011" lon="19.75677">
        <ele>95.693897</ele>
        <time>2022-05-14T09:08:27.062Z</time>
      </trkpt>
      <trkpt lat="41.39019" lon="19.75672">
        <ele>95.723331</ele>
        <time>2022-05-14T09:08:29.083Z</time>
      </trkpt>
      <trkpt lat="41.39027" lon="19.75666">
        <ele>95.752578</ele>
        <time>2022-05-14T09:08:31.059Z</time>
      </trkpt>
      <trkpt lat="41.3904" lon="19.75659">
        <ele>95.794877</ele>
        <time>2022-05-14T09:08:34.071Z</time>
      </trkpt>
      <trkpt lat="41.39052" lon="19.75652">
        <ele>95.836967</ele>
        <time>2022-05-14T09:08:37.078Z</time>
      </trkpt>
      <trkpt lat="41.39061" lon="19.75647">
        <ele>95.868104</ele>
        <time>2022-05-14T09:08:39.082Z</time>
      </trkpt>
      <trkpt lat="41.39071" lon="19.75642">
        <ele>95.900043</ele>
        <time>2022-05-14T09:08:41.111Z</time>
      </trkpt>
      <trkpt lat="41.3908" lon="19.75637">
        <ele>95.931401</ele>
        <time>2022-05-14T09:08:43.065Z</time>
      </trkpt>
      <trkpt lat="41.39089" lon="19.75632">
        <ele>95.962288</ele>
        <time>2022-05-14T09:08:45.080Z</time>
      </trkpt>
      <trkpt lat="41.39098" lon="19.75627">
        <ele>95.992329</ele>
        <time>2022-05-14T09:08:47.064Z</time>
      </trkpt>
      <trkpt lat="41.39107" lon="19.75623">
        <ele>96.022749</ele>
        <time>2022-05-14T09:08:49.054Z</time>
      </trkpt>
      <trkpt lat="41.39116" lon="19.75618">
        <ele>95.906259</ele>
        <time>2022-05-14T09:08:51.070Z</time>
      </trkpt>
      <trkpt lat="41.39128" lon="19.75611">
        <ele>95.482495</ele>
        <time>2022-05-14T09:08:54.069Z</time>
      </trkpt>
      <trkpt lat="41.3914" lon="19.75604">
        <ele>95.053895</ele>
        <time>2022-05-14T09:08:57.073Z</time>
      </trkpt>
      <trkpt lat="41.39149" lon="19.75599">
        <ele>94.759999</ele>
        <time>2022-05-14T09:08:59.088Z</time>
      </trkpt>
      <trkpt lat="41.39157" lon="19.75594">
        <ele>94.467461</ele>
        <time>2022-05-14T09:09:01.046Z</time>
      </trkpt>
      <trkpt lat="41.39169" lon="19.75588">
        <ele>94.044432</ele>
        <time>2022-05-14T09:09:04.086Z</time>
      </trkpt>
      <trkpt lat="41.39178" lon="19.75583">
        <ele>93.748011</ele>
        <time>2022-05-14T09:09:06.102Z</time>
      </trkpt>
      <trkpt lat="41.39187" lon="19.75579">
        <ele>93.454964</ele>
        <time>2022-05-14T09:09:08.067Z</time>
      </trkpt>
      <trkpt lat="41.39196" lon="19.75573">
        <ele>93.140014</ele>
        <time>2022-05-14T09:09:10.078Z</time>
      </trkpt>
      <trkpt lat="41.39204" lon="19.75568">
        <ele>92.837744</ele>
        <time>2022-05-14T09:09:12.089Z</time>
      </trkpt>
      <trkpt lat="41.39213" lon="19.75564">
        <ele>92.533473</ele>
        <time>2022-05-14T09:09:14.132Z</time>
      </trkpt>
      <trkpt lat="41.39222" lon="19.75558">
        <ele>92.227324</ele>
        <time>2022-05-14T09:09:16.072Z</time>
      </trkpt>
      <trkpt lat="41.39231" lon="19.75554">
        <ele>91.92893</ele>
        <time>2022-05-14T09:09:18.082Z</time>
      </trkpt>
      <trkpt lat="41.39239" lon="19.75549">
        <ele>91.634409</ele>
        <time>2022-05-14T09:09:20.108Z</time>
      </trkpt>
      <trkpt lat="41.39247" lon="19.75543">
        <ele>91.337904</ele>
        <time>2022-05-14T09:09:22.065Z</time>
      </trkpt>
      <trkpt lat="41.39256" lon="19.75538">
        <ele>91.047154</ele>
        <time>2022-05-14T09:09:24.085Z</time>
      </trkpt>
      <trkpt lat="41.39264" lon="19.75534">
        <ele>90.76037</ele>
        <time>2022-05-14T09:09:26.091Z</time>
      </trkpt>
      <trkpt lat="41.39273" lon="19.75529">
        <ele>90.462909</ele>
        <time>2022-05-14T09:09:28.085Z</time>
      </trkpt>
      <trkpt lat="41.39281" lon="19.75524">
        <ele>90.342314</ele>
        <time>2022-05-14T09:09:30.068Z</time>
      </trkpt>
      <trkpt lat="41.39289" lon="19.75519">
        <ele>90.425856</ele>
        <time>2022-05-14T09:09:32.083Z</time>
      </trkpt>
      <trkpt lat="41.39298" lon="19.75514">
        <ele>90.512781</ele>
        <time>2022-05-14T09:09:34.070Z</time>
      </trkpt>
      <trkpt lat="41.39311" lon="19.75507">
        <ele>90.63709</ele>
        <time>2022-05-14T09:09:37.081Z</time>
      </trkpt>
      <trkpt lat="41.39319" lon="19.75502">
        <ele>90.722606</ele>
        <time>2022-05-14T09:09:39.071Z</time>
      </trkpt>
      <trkpt lat="41.39327" lon="19.75497">
        <ele>90.8059</ele>
        <time>2022-05-14T09:09:41.050Z</time>
      </trkpt>
      <trkpt lat="41.39339" lon="19.75489">
        <ele>90.927223</ele>
        <time>2022-05-14T09:09:44.072Z</time>
      </trkpt>
      <trkpt lat="41.39351" lon="19.75482">
        <ele>91.050167</ele>
        <time>2022-05-14T09:09:47.087Z</time>
      </trkpt>
      <trkpt lat="41.3936" lon="19.75478">
        <ele>91.141202</ele>
        <time>2022-05-14T09:09:49.075Z</time>
      </trkpt>
      <trkpt lat="41.39369" lon="19.75473">
        <ele>91.231536</ele>
        <time>2022-05-14T09:09:51.100Z</time>
      </trkpt>
      <trkpt lat="41.39378" lon="19.75468">
        <ele>91.319627</ele>
        <time>2022-05-14T09:09:53.093Z</time>
      </trkpt>
      <trkpt lat="41.39386" lon="19.75463">
        <ele>91.405434</ele>
        <time>2022-05-14T09:09:55.068Z</time>
      </trkpt>
      <trkpt lat="41.39395" lon="19.75459">
        <ele>91.489664</ele>
        <time>2022-05-14T09:09:57.064Z</time>
      </trkpt>
      <trkpt lat="41.39404" lon="19.75454">
        <ele>91.576589</ele>
        <time>2022-05-14T09:09:59.099Z</time>
      </trkpt>
      <trkpt lat="41.39416" lon="19.75446">
        <ele>91.70133</ele>
        <time>2022-05-14T09:10:02.068Z</time>
      </trkpt>
      <trkpt lat="41.39425" lon="19.75441">
        <ele>91.790279</ele>
        <time>2022-05-14T09:10:04.079Z</time>
      </trkpt>
      <trkpt lat="41.39434" lon="19.75437">
        <ele>91.882927</ele>
        <time>2022-05-14T09:10:06.064Z</time>
      </trkpt>
      <trkpt lat="41.39443" lon="19.75432">
        <ele>91.960574</ele>
        <time>2022-05-14T09:10:08.103Z</time>
      </trkpt>
      <trkpt lat="41.39452" lon="19.75426">
        <ele>91.845689</ele>
        <time>2022-05-14T09:10:10.080Z</time>
      </trkpt>
      <trkpt lat="41.39461" lon="19.75421">
        <ele>91.7347</ele>
        <time>2022-05-14T09:10:12.084Z</time>
      </trkpt>
      <trkpt lat="41.39469" lon="19.75416">
        <ele>91.628629</ele>
        <time>2022-05-14T09:10:14.096Z</time>
      </trkpt>
      <trkpt lat="41.39478" lon="19.75412">
        <ele>91.525711</ele>
        <time>2022-05-14T09:10:16.073Z</time>
      </trkpt>
      <trkpt lat="41.3949" lon="19.75405">
        <ele>91.374393</ele>
        <time>2022-05-14T09:10:19.097Z</time>
      </trkpt>
      <trkpt lat="41.39498" lon="19.754">
        <ele>91.269014</ele>
        <time>2022-05-14T09:10:21.067Z</time>
      </trkpt>
      <trkpt lat="41.3951" lon="19.75393">
        <ele>91.11658</ele>
        <time>2022-05-14T09:10:24.085Z</time>
      </trkpt>
      <trkpt lat="41.39519" lon="19.75388">
        <ele>91.005592</ele>
        <time>2022-05-14T09:10:26.087Z</time>
      </trkpt>
      <trkpt lat="41.39528" lon="19.75383">
        <ele>90.900552</ele>
        <time>2022-05-14T09:10:28.077Z</time>
      </trkpt>
      <trkpt lat="41.39536" lon="19.75378">
        <ele>90.792714</ele>
        <time>2022-05-14T09:10:30.063Z</time>
      </trkpt>
      <trkpt lat="41.39545" lon="19.75373">
        <ele>90.676457</ele>
        <time>2022-05-14T09:10:32.065Z</time>
      </trkpt>
      <trkpt lat="41.39555" lon="19.75368">
        <ele>90.560507</ele>
        <time>2022-05-14T09:10:34.083Z</time>
      </trkpt>
      <trkpt lat="41.39564" lon="19.75362">
        <ele>90.442487</ele>
        <time>2022-05-14T09:10:36.091Z</time>
      </trkpt>
      <trkpt lat="41.39573" lon="19.75357">
        <ele>90.324122</ele>
        <time>2022-05-14T09:10:38.076Z</time>
      </trkpt>
      <trkpt lat="41.39583" lon="19.75351">
        <ele>90.200456</ele>
        <time>2022-05-14T09:10:40.065Z</time>
      </trkpt>
      <trkpt lat="41.39593" lon="19.75346">
        <ele>90.077854</ele>
        <time>2022-05-14T09:10:42.051Z</time>
      </trkpt>
      <trkpt lat="41.39603" lon="19.7534">
        <ele>89.958783</ele>
        <time>2022-05-14T09:10:44.063Z</time>
      </trkpt>
      <trkpt lat="41.39612" lon="19.75335">
        <ele>89.820731</ele>
        <time>2022-05-14T09:10:46.074Z</time>
      </trkpt>
      <trkpt lat="41.39622" lon="19.7533">
        <ele>89.66693</ele>
        <time>2022-05-14T09:10:48.070Z</time>
      </trkpt>
      <trkpt lat="41.39631" lon="19.75325">
        <ele>89.520001</ele>
        <time>2022-05-14T09:10:50.071Z</time>
      </trkpt>
      <trkpt lat="41.39641" lon="19.75319">
        <ele>89.372091</ele>
        <time>2022-05-14T09:10:52.084Z</time>
      </trkpt>
      <trkpt lat="41.3965" lon="19.75314">
        <ele>89.217453</ele>
        <time>2022-05-14T09:10:54.077Z</time>
      </trkpt>
      <trkpt lat="41.3966" lon="19.75309">
        <ele>89.067202</ele>
        <time>2022-05-14T09:10:56.057Z</time>
      </trkpt>
      <trkpt lat="41.39669" lon="19.75304">
        <ele>88.916371</ele>
        <time>2022-05-14T09:10:58.127Z</time>
      </trkpt>
      <trkpt lat="41.39679" lon="19.75299">
        <ele>88.760792</ele>
        <time>2022-05-14T09:11:00.083Z</time>
      </trkpt>
      <trkpt lat="41.39689" lon="19.75293">
        <ele>88.604371</ele>
        <time>2022-05-14T09:11:02.078Z</time>
      </trkpt>
      <trkpt lat="41.39698" lon="19.75288">
        <ele>88.455145</ele>
        <time>2022-05-14T09:11:04.072Z</time>
      </trkpt>
      <trkpt lat="41.39708" lon="19.75282">
        <ele>88.302303</ele>
        <time>2022-05-14T09:11:06.074Z</time>
      </trkpt>
      <trkpt lat="41.39717" lon="19.75276">
        <ele>88.15392</ele>
        <time>2022-05-14T09:11:08.081Z</time>
      </trkpt>
      <trkpt lat="41.39726" lon="19.75271">
        <ele>88.01007</ele>
        <time>2022-05-14T09:11:10.087Z</time>
      </trkpt>
      <trkpt lat="41.39735" lon="19.75266">
        <ele>87.858995</ele>
        <time>2022-05-14T09:11:12.096Z</time>
      </trkpt>
      <trkpt lat="41.39745" lon="19.75261">
        <ele>87.704233</ele>
        <time>2022-05-14T09:11:14.076Z</time>
      </trkpt>
      <trkpt lat="41.39755" lon="19.75255">
        <ele>87.546876</ele>
        <time>2022-05-14T09:11:16.073Z</time>
      </trkpt>
      <trkpt lat="41.39765" lon="19.7525">
        <ele>87.39088</ele>
        <time>2022-05-14T09:11:18.063Z</time>
      </trkpt>
      <trkpt lat="41.39774" lon="19.75244">
        <ele>87.242223</ele>
        <time>2022-05-14T09:11:20.086Z</time>
      </trkpt>
      <trkpt lat="41.39784" lon="19.75238">
        <ele>87.179384</ele>
        <time>2022-05-14T09:11:22.066Z</time>
      </trkpt>
      <trkpt lat="41.39794" lon="19.75232">
        <ele>87.116042</ele>
        <time>2022-05-14T09:11:24.106Z</time>
      </trkpt>
      <trkpt lat="41.39803" lon="19.75226">
        <ele>87.054854</ele>
        <time>2022-05-14T09:11:26.059Z</time>
      </trkpt>
      <trkpt lat="41.39812" lon="19.75221">
        <ele>86.993867</ele>
        <time>2022-05-14T09:11:28.066Z</time>
      </trkpt>
      <trkpt lat="41.39822" lon="19.75215">
        <ele>86.931065</ele>
        <time>2022-05-14T09:11:30.089Z</time>
      </trkpt>
      <trkpt lat="41.39831" lon="19.7521">
        <ele>86.871699</ele>
        <time>2022-05-14T09:11:32.098Z</time>
      </trkpt>
      <trkpt lat="41.3984" lon="19.75204">
        <ele>86.812157</ele>
        <time>2022-05-14T09:11:34.062Z</time>
      </trkpt>
      <trkpt lat="41.3985" lon="19.75199">
        <ele>86.75099</ele>
        <time>2022-05-14T09:11:36.057Z</time>
      </trkpt>
      <trkpt lat="41.39859" lon="19.75193">
        <ele>86.688913</ele>
        <time>2022-05-14T09:11:38.110Z</time>
      </trkpt>
      <trkpt lat="41.39869" lon="19.75188">
        <ele>86.627745</ele>
        <time>2022-05-14T09:11:40.088Z</time>
      </trkpt>
      <trkpt lat="41.39878" lon="19.75182">
        <ele>86.567481</ele>
        <time>2022-05-14T09:11:42.072Z</time>
      </trkpt>
      <trkpt lat="41.39887" lon="19.75177">
        <ele>86.510475</ele>
        <time>2022-05-14T09:11:44.120Z</time>
      </trkpt>
      <trkpt lat="41.39896" lon="19.75172">
        <ele>86.453644</ele>
        <time>2022-05-14T09:11:46.070Z</time>
      </trkpt>
      <trkpt lat="41.39905" lon="19.75167">
        <ele>86.39537</ele>
        <time>2022-05-14T09:11:48.074Z</time>
      </trkpt>
      <trkpt lat="41.39914" lon="19.75162">
        <ele>86.336736</ele>
        <time>2022-05-14T09:11:50.080Z</time>
      </trkpt>
      <trkpt lat="41.39923" lon="19.75156">
        <ele>86.276822</ele>
        <time>2022-05-14T09:11:52.073Z</time>
      </trkpt>
      <trkpt lat="41.39932" lon="19.75151">
        <ele>86.216379</ele>
        <time>2022-05-14T09:11:54.058Z</time>
      </trkpt>
      <trkpt lat="41.39942" lon="19.75146">
        <ele>86.186913</ele>
        <time>2022-05-14T09:11:56.052Z</time>
      </trkpt>
      <trkpt lat="41.39951" lon="19.7514">
        <ele>86.206755</ele>
        <time>2022-05-14T09:11:58.083Z</time>
      </trkpt>
      <trkpt lat="41.3996" lon="19.75135">
        <ele>86.225668</ele>
        <time>2022-05-14T09:12:00.065Z</time>
      </trkpt>
      <trkpt lat="41.3997" lon="19.75129">
        <ele>86.244871</ele>
        <time>2022-05-14T09:12:02.086Z</time>
      </trkpt>
      <trkpt lat="41.39979" lon="19.75124">
        <ele>86.264597</ele>
        <time>2022-05-14T09:12:04.084Z</time>
      </trkpt>
      <trkpt lat="41.39988" lon="19.75118">
        <ele>86.284265</ele>
        <time>2022-05-14T09:12:06.094Z</time>
      </trkpt>
      <trkpt lat="41.39998" lon="19.75112">
        <ele>86.304109</ele>
        <time>2022-05-14T09:12:08.114Z</time>
      </trkpt>
      <trkpt lat="41.40008" lon="19.75108">
        <ele>86.32385</ele>
        <time>2022-05-14T09:12:10.074Z</time>
      </trkpt>
      <trkpt lat="41.40018" lon="19.75103">
        <ele>86.345055</ele>
        <time>2022-05-14T09:12:12.107Z</time>
      </trkpt>
      <trkpt lat="41.40029" lon="19.75096">
        <ele>86.366985</ele>
        <time>2022-05-14T09:12:14.055Z</time>
      </trkpt>
      <trkpt lat="41.40039" lon="19.7509">
        <ele>86.388857</ele>
        <time>2022-05-14T09:12:16.057Z</time>
      </trkpt>
      <trkpt lat="41.4005" lon="19.75084">
        <ele>86.410555</ele>
        <time>2022-05-14T09:12:18.069Z</time>
      </trkpt>
      <trkpt lat="41.4006" lon="19.75078">
        <ele>86.431268</ele>
        <time>2022-05-14T09:12:20.062Z</time>
      </trkpt>
      <trkpt lat="41.40069" lon="19.75073">
        <ele>86.450597</ele>
        <time>2022-05-14T09:12:22.074Z</time>
      </trkpt>
      <trkpt lat="41.40079" lon="19.75068">
        <ele>86.470266</ele>
        <time>2022-05-14T09:12:24.088Z</time>
      </trkpt>
      <trkpt lat="41.40088" lon="19.75062">
        <ele>86.489875</ele>
        <time>2022-05-14T09:12:26.087Z</time>
      </trkpt>
      <trkpt lat="41.40097" lon="19.75057">
        <ele>86.509434</ele>
        <time>2022-05-14T09:12:28.064Z</time>
      </trkpt>
      <trkpt lat="41.40107" lon="19.75052">
        <ele>86.50488</ele>
        <time>2022-05-14T09:12:30.082Z</time>
      </trkpt>
      <trkpt lat="41.40116" lon="19.75046">
        <ele>86.455495</ele>
        <time>2022-05-14T09:12:32.073Z</time>
      </trkpt>
      <trkpt lat="41.40125" lon="19.75041">
        <ele>86.407165</ele>
        <time>2022-05-14T09:12:34.066Z</time>
      </trkpt>
      <trkpt lat="41.40134" lon="19.75036">
        <ele>86.356895</ele>
        <time>2022-05-14T09:12:36.064Z</time>
      </trkpt>
      <trkpt lat="41.40144" lon="19.7503">
        <ele>86.307367</ele>
        <time>2022-05-14T09:12:38.085Z</time>
      </trkpt>
      <trkpt lat="41.40152" lon="19.75025">
        <ele>86.259783</ele>
        <time>2022-05-14T09:12:40.101Z</time>
      </trkpt>
      <trkpt lat="41.40162" lon="19.7502">
        <ele>86.2113</ele>
        <time>2022-05-14T09:12:42.072Z</time>
      </trkpt>
      <trkpt lat="41.40171" lon="19.75015">
        <ele>86.162671</ele>
        <time>2022-05-14T09:12:44.074Z</time>
      </trkpt>
      <trkpt lat="41.4018" lon="19.75009">
        <ele>86.113593</ele>
        <time>2022-05-14T09:12:46.072Z</time>
      </trkpt>
      <trkpt lat="41.40189" lon="19.75004">
        <ele>86.063304</ele>
        <time>2022-05-14T09:12:48.093Z</time>
      </trkpt>
      <trkpt lat="41.40198" lon="19.74999">
        <ele>86.014974</ele>
        <time>2022-05-14T09:12:50.067Z</time>
      </trkpt>
      <trkpt lat="41.40208" lon="19.74993">
        <ele>85.965446</ele>
        <time>2022-05-14T09:12:52.056Z</time>
      </trkpt>
      <trkpt lat="41.40217" lon="19.74988">
        <ele>85.914975</ele>
        <time>2022-05-14T09:12:54.062Z</time>
      </trkpt>
      <trkpt lat="41.40227" lon="19.74983">
        <ele>85.865447</ele>
        <time>2022-05-14T09:12:56.088Z</time>
      </trkpt>
      <trkpt lat="41.40236" lon="19.74978">
        <ele>85.815774</ele>
        <time>2022-05-14T09:12:58.068Z</time>
      </trkpt>
      <trkpt lat="41.40245" lon="19.74972">
        <ele>85.766696</ele>
        <time>2022-05-14T09:13:00.075Z</time>
      </trkpt>
      <trkpt lat="41.40254" lon="19.74967">
        <ele>85.718356</ele>
        <time>2022-05-14T09:13:02.108Z</time>
      </trkpt>
      <trkpt lat="41.40263" lon="19.74962">
        <ele>85.669132</ele>
        <time>2022-05-14T09:13:04.106Z</time>
      </trkpt>
      <trkpt lat="41.40272" lon="19.74957">
        <ele>85.598071</ele>
        <time>2022-05-14T09:13:06.071Z</time>
      </trkpt>
      <trkpt lat="41.40282" lon="19.74952">
        <ele>85.492261</ele>
        <time>2022-05-14T09:13:08.153Z</time>
      </trkpt>
      <trkpt lat="41.40291" lon="19.74946">
        <ele>85.386202</ele>
        <time>2022-05-14T09:13:10.060Z</time>
      </trkpt>
      <trkpt lat="41.40301" lon="19.74941">
        <ele>85.282346</ele>
        <time>2022-05-14T09:13:12.071Z</time>
      </trkpt>
      <trkpt lat="41.4031" lon="19.74936">
        <ele>85.181236</ele>
        <time>2022-05-14T09:13:14.075Z</time>
      </trkpt>
      <trkpt lat="41.40319" lon="19.74932">
        <ele>85.08051</ele>
        <time>2022-05-14T09:13:16.073Z</time>
      </trkpt>
      <trkpt lat="41.40328" lon="19.7493">
        <ele>84.982925</ele>
        <time>2022-05-14T09:13:18.083Z</time>
      </trkpt>
      <trkpt lat="41.40338" lon="19.74927">
        <ele>84.882727</ele>
        <time>2022-05-14T09:13:20.073Z</time>
      </trkpt>
      <trkpt lat="41.40346" lon="19.74921">
        <ele>84.786456</ele>
        <time>2022-05-14T09:13:22.074Z</time>
      </trkpt>
      <trkpt lat="41.40354" lon="19.74914">
        <ele>84.686641</ele>
        <time>2022-05-14T09:13:24.076Z</time>
      </trkpt>
      <trkpt lat="41.40362" lon="19.74907">
        <ele>84.584352</ele>
        <time>2022-05-14T09:13:26.084Z</time>
      </trkpt>
      <trkpt lat="41.40372" lon="19.74902">
        <ele>84.478922</ele>
        <time>2022-05-14T09:13:28.091Z</time>
      </trkpt>
      <trkpt lat="41.40381" lon="19.74896">
        <ele>84.372222</ele>
        <time>2022-05-14T09:13:30.082Z</time>
      </trkpt>
      <trkpt lat="41.40391" lon="19.74891">
        <ele>84.266982</ele>
        <time>2022-05-14T09:13:32.066Z</time>
      </trkpt>
      <trkpt lat="41.404" lon="19.74887">
        <ele>84.161586</ele>
        <time>2022-05-14T09:13:34.066Z</time>
      </trkpt>
      <trkpt lat="41.4041" lon="19.74881">
        <ele>84.054244</ele>
        <time>2022-05-14T09:13:36.108Z</time>
      </trkpt>
      <trkpt lat="41.4042" lon="19.74875">
        <ele>83.944388</ele>
        <time>2022-05-14T09:13:38.072Z</time>
      </trkpt>
      <trkpt lat="41.40429" lon="19.7487">
        <ele>83.837979</ele>
        <time>2022-05-14T09:13:40.075Z</time>
      </trkpt>
      <trkpt lat="41.40438" lon="19.74864">
        <ele>83.79457</ele>
        <time>2022-05-14T09:13:42.055Z</time>
      </trkpt>
      <trkpt lat="41.40447" lon="19.74858">
        <ele>83.819327</ele>
        <time>2022-05-14T09:13:44.086Z</time>
      </trkpt>
      <trkpt lat="41.40456" lon="19.74852">
        <ele>83.843726</ele>
        <time>2022-05-14T09:13:46.072Z</time>
      </trkpt>
      <trkpt lat="41.40465" lon="19.74846">
        <ele>83.867854</ele>
        <time>2022-05-14T09:13:48.059Z</time>
      </trkpt>
      <trkpt lat="41.40474" lon="19.7484">
        <ele>83.892416</ele>
        <time>2022-05-14T09:13:50.077Z</time>
      </trkpt>
      <trkpt lat="41.40483" lon="19.74833">
        <ele>83.91728</ele>
        <time>2022-05-14T09:13:52.066Z</time>
      </trkpt>
      <trkpt lat="41.40492" lon="19.74827">
        <ele>83.94261</ele>
        <time>2022-05-14T09:13:54.075Z</time>
      </trkpt>
      <trkpt lat="41.40501" lon="19.7482">
        <ele>83.968289</ele>
        <time>2022-05-14T09:13:56.084Z</time>
      </trkpt>
      <trkpt lat="41.40511" lon="19.74813">
        <ele>83.993939</ele>
        <time>2022-05-14T09:13:58.113Z</time>
      </trkpt>
      <trkpt lat="41.4052" lon="19.74806">
        <ele>84.020222</ele>
        <time>2022-05-14T09:14:00.116Z</time>
      </trkpt>
      <trkpt lat="41.40529" lon="19.74798">
        <ele>84.046361</ele>
        <time>2022-05-14T09:14:02.054Z</time>
      </trkpt>
      <trkpt lat="41.40538" lon="19.74791">
        <ele>84.07213</ele>
        <time>2022-05-14T09:14:04.069Z</time>
      </trkpt>
      <trkpt lat="41.40547" lon="19.74784">
        <ele>84.097085</ele>
        <time>2022-05-14T09:14:06.086Z</time>
      </trkpt>
      <trkpt lat="41.40556" lon="19.74778">
        <ele>84.121257</ele>
        <time>2022-05-14T09:14:08.059Z</time>
      </trkpt>
      <trkpt lat="41.40565" lon="19.74772">
        <ele>84.146418</ele>
        <time>2022-05-14T09:14:10.075Z</time>
      </trkpt>
      <trkpt lat="41.40574" lon="19.74765">
        <ele>84.170892</ele>
        <time>2022-05-14T09:14:12.081Z</time>
      </trkpt>
      <trkpt lat="41.40583" lon="19.74759">
        <ele>84.195579</ele>
        <time>2022-05-14T09:14:14.104Z</time>
      </trkpt>
      <trkpt lat="41.40591" lon="19.74753">
        <ele>84.219063</ele>
        <time>2022-05-14T09:14:16.078Z</time>
      </trkpt>
      <trkpt lat="41.406" lon="19.74746">
        <ele>84.131985</ele>
        <time>2022-05-14T09:14:18.088Z</time>
      </trkpt>
      <trkpt lat="41.40609" lon="19.7474">
        <ele>84.040091</ele>
        <time>2022-05-14T09:14:20.078Z</time>
      </trkpt>
      <trkpt lat="41.40617" lon="19.74733">
        <ele>83.947381</ele>
        <time>2022-05-14T09:14:22.076Z</time>
      </trkpt>
      <trkpt lat="41.40626" lon="19.74727">
        <ele>83.851221</ele>
        <time>2022-05-14T09:14:24.064Z</time>
      </trkpt>
      <trkpt lat="41.40635" lon="19.74721">
        <ele>83.757374</ele>
        <time>2022-05-14T09:14:26.071Z</time>
      </trkpt>
      <trkpt lat="41.40644" lon="19.74715">
        <ele>83.661716</ele>
        <time>2022-05-14T09:14:28.051Z</time>
      </trkpt>
      <trkpt lat="41.40653" lon="19.74708">
        <ele>83.564228</ele>
        <time>2022-05-14T09:14:30.062Z</time>
      </trkpt>
      <trkpt lat="41.40662" lon="19.74701">
        <ele>83.468721</ele>
        <time>2022-05-14T09:14:32.059Z</time>
      </trkpt>
      <trkpt lat="41.40671" lon="19.74695">
        <ele>83.374033</ele>
        <time>2022-05-14T09:14:34.082Z</time>
      </trkpt>
      <trkpt lat="41.4068" lon="19.74687">
        <ele>83.275238</ele>
        <time>2022-05-14T09:14:36.116Z</time>
      </trkpt>
      <trkpt lat="41.40688" lon="19.7468">
        <ele>83.181966</ele>
        <time>2022-05-14T09:14:38.081Z</time>
      </trkpt>
      <trkpt lat="41.40697" lon="19.74673">
        <ele>83.089888</ele>
        <time>2022-05-14T09:14:40.066Z</time>
      </trkpt>
      <trkpt lat="41.40705" lon="19.74666">
        <ele>82.998591</ele>
        <time>2022-05-14T09:14:42.061Z</time>
      </trkpt>
      <trkpt lat="41.40713" lon="19.74659">
        <ele>82.907295</ele>
        <time>2022-05-14T09:14:44.071Z</time>
      </trkpt>
      <trkpt lat="41.40721" lon="19.74652">
        <ele>82.816564</ele>
        <time>2022-05-14T09:14:46.072Z</time>
      </trkpt>
      <trkpt lat="41.4073" lon="19.74646">
        <ele>82.725209</ele>
        <time>2022-05-14T09:14:48.071Z</time>
      </trkpt>
      <trkpt lat="41.40738" lon="19.7464">
        <ele>82.635168</ele>
        <time>2022-05-14T09:14:50.072Z</time>
      </trkpt>
      <trkpt lat="41.40747" lon="19.74634">
        <ele>82.546455</ele>
        <time>2022-05-14T09:14:52.075Z</time>
      </trkpt>
      <trkpt lat="41.40755" lon="19.74628">
        <ele>82.480116</ele>
        <time>2022-05-14T09:14:54.064Z</time>
      </trkpt>
      <trkpt lat="41.40764" lon="19.74622">
        <ele>82.417202</ele>
        <time>2022-05-14T09:14:56.110Z</time>
      </trkpt>
      <trkpt lat="41.40773" lon="19.74615">
        <ele>82.357048</ele>
        <time>2022-05-14T09:14:58.088Z</time>
      </trkpt>
      <trkpt lat="41.40782" lon="19.74609">
        <ele>82.292919</ele>
        <time>2022-05-14T09:15:00.072Z</time>
      </trkpt>
      <trkpt lat="41.40791" lon="19.74602">
        <ele>82.226553</ele>
        <time>2022-05-14T09:15:02.087Z</time>
      </trkpt>
      <trkpt lat="41.408" lon="19.74595">
        <ele>82.16205</ele>
        <time>2022-05-14T09:15:04.092Z</time>
      </trkpt>
      <trkpt lat="41.40808" lon="19.74589">
        <ele>82.101434</ele>
        <time>2022-05-14T09:15:06.054Z</time>
      </trkpt>
      <trkpt lat="41.40816" lon="19.74582">
        <ele>82.042373</ele>
        <time>2022-05-14T09:15:08.049Z</time>
      </trkpt>
      <trkpt lat="41.40824" lon="19.74577">
        <ele>81.983994</ele>
        <time>2022-05-14T09:15:10.090Z</time>
      </trkpt>
      <trkpt lat="41.40833" lon="19.7457">
        <ele>81.925003</ele>
        <time>2022-05-14T09:15:12.084Z</time>
      </trkpt>
      <trkpt lat="41.40841" lon="19.74564">
        <ele>81.867495</ele>
        <time>2022-05-14T09:15:14.055Z</time>
      </trkpt>
      <trkpt lat="41.40849" lon="19.74558">
        <ele>81.809667</ele>
        <time>2022-05-14T09:15:16.069Z</time>
      </trkpt>
      <trkpt lat="41.40857" lon="19.74552">
        <ele>81.751063</ele>
        <time>2022-05-14T09:15:18.078Z</time>
      </trkpt>
      <trkpt lat="41.40865" lon="19.74546">
        <ele>81.692684</ele>
        <time>2022-05-14T09:15:20.093Z</time>
      </trkpt>
      <trkpt lat="41.40873" lon="19.74541">
        <ele>81.635631</ele>
        <time>2022-05-14T09:15:22.060Z</time>
      </trkpt>
      <trkpt lat="41.40882" lon="19.74535">
        <ele>81.575373</ele>
        <time>2022-05-14T09:15:24.063Z</time>
      </trkpt>
      <trkpt lat="41.4089" lon="19.74528">
        <ele>81.51257</ele>
        <time>2022-05-14T09:15:26.058Z</time>
      </trkpt>
      <trkpt lat="41.40899" lon="19.74522">
        <ele>81.450633</ele>
        <time>2022-05-14T09:15:28.099Z</time>
      </trkpt>
      <trkpt lat="41.40907" lon="19.74515">
        <ele>81.377759</ele>
        <time>2022-05-14T09:15:30.105Z</time>
      </trkpt>
      <trkpt lat="41.40916" lon="19.74509">
        <ele>81.270852</ele>
        <time>2022-05-14T09:15:32.061Z</time>
      </trkpt>
      <trkpt lat="41.40925" lon="19.74503">
        <ele>81.164887</ele>
        <time>2022-05-14T09:15:34.084Z</time>
      </trkpt>
      <trkpt lat="41.40934" lon="19.74496">
        <ele>81.058922</ele>
        <time>2022-05-14T09:15:36.099Z</time>
      </trkpt>
      <trkpt lat="41.40943" lon="19.7449">
        <ele>80.949369</ele>
        <time>2022-05-14T09:15:38.069Z</time>
      </trkpt>
      <trkpt lat="41.40952" lon="19.74483">
        <ele>80.839431</ele>
        <time>2022-05-14T09:15:40.100Z</time>
      </trkpt>
      <trkpt lat="41.40961" lon="19.74477">
        <ele>80.728365</ele>
        <time>2022-05-14T09:15:42.081Z</time>
      </trkpt>
      <trkpt lat="41.4097" lon="19.74471">
        <ele>80.617784</ele>
        <time>2022-05-14T09:15:44.078Z</time>
      </trkpt>
      <trkpt lat="41.40979" lon="19.74466">
        <ele>80.510195</ele>
        <time>2022-05-14T09:15:46.070Z</time>
      </trkpt>
      <trkpt lat="41.40989" lon="19.7446">
        <ele>80.403554</ele>
        <time>2022-05-14T09:15:48.087Z</time>
      </trkpt>
      <trkpt lat="41.40998" lon="19.74456">
        <ele>80.291604</ele>
        <time>2022-05-14T09:15:50.057Z</time>
      </trkpt>
      <trkpt lat="41.41008" lon="19.74452">
        <ele>80.18371</ele>
        <time>2022-05-14T09:15:52.064Z</time>
      </trkpt>
      <trkpt lat="41.41018" lon="19.74448">
        <ele>80.072755</ele>
        <time>2022-05-14T09:15:54.078Z</time>
      </trkpt>
      <trkpt lat="41.41027" lon="19.74444">
        <ele>79.968407</ele>
        <time>2022-05-14T09:15:56.079Z</time>
      </trkpt>
      <trkpt lat="41.41036" lon="19.7444">
        <ele>79.867119</ele>
        <time>2022-05-14T09:15:58.063Z</time>
      </trkpt>
      <trkpt lat="41.41045" lon="19.74436">
        <ele>79.766075</ele>
        <time>2022-05-14T09:16:00.073Z</time>
      </trkpt>
      <trkpt lat="41.41055" lon="19.74432">
        <ele>79.657636</ele>
        <time>2022-05-14T09:16:02.076Z</time>
      </trkpt>
      <trkpt lat="41.41065" lon="19.74428">
        <ele>79.541094</ele>
        <time>2022-05-14T09:16:04.077Z</time>
      </trkpt>
      <trkpt lat="41.41076" lon="19.74424">
        <ele>79.532286</ele>
        <time>2022-05-14T09:16:06.071Z</time>
      </trkpt>
      <trkpt lat="41.41086" lon="19.7442">
        <ele>79.639797</ele>
        <time>2022-05-14T09:16:08.076Z</time>
      </trkpt>
      <trkpt lat="41.41096" lon="19.74416">
        <ele>79.741663</ele>
        <time>2022-05-14T09:16:10.067Z</time>
      </trkpt>
      <trkpt lat="41.41106" lon="19.74412">
        <ele>79.840803</ele>
        <time>2022-05-14T09:16:12.085Z</time>
      </trkpt>
      <trkpt lat="41.41115" lon="19.74408">
        <ele>79.937112</ele>
        <time>2022-05-14T09:16:14.061Z</time>
      </trkpt>
      <trkpt lat="41.41125" lon="19.74404">
        <ele>80.033633</ele>
        <time>2022-05-14T09:16:16.058Z</time>
      </trkpt>
      <trkpt lat="41.41134" lon="19.74401">
        <ele>80.132036</ele>
        <time>2022-05-14T09:16:18.073Z</time>
      </trkpt>
      <trkpt lat="41.41144" lon="19.74397">
        <ele>80.229832</ele>
        <time>2022-05-14T09:16:20.067Z</time>
      </trkpt>
      <trkpt lat="41.41153" lon="19.74394">
        <ele>80.328772</ele>
        <time>2022-05-14T09:16:22.076Z</time>
      </trkpt>
      <trkpt lat="41.41163" lon="19.7439">
        <ele>80.42582</ele>
        <time>2022-05-14T09:16:24.052Z</time>
      </trkpt>
      <trkpt lat="41.41173" lon="19.74387">
        <ele>80.525422</ele>
        <time>2022-05-14T09:16:26.071Z</time>
      </trkpt>
      <trkpt lat="41.41182" lon="19.74384">
        <ele>80.620573</ele>
        <time>2022-05-14T09:16:28.068Z</time>
      </trkpt>
      <trkpt lat="41.41192" lon="19.7438">
        <ele>80.719318</ele>
        <time>2022-05-14T09:16:30.065Z</time>
      </trkpt>
      <trkpt lat="41.41202" lon="19.74377">
        <ele>80.818063</ele>
        <time>2022-05-14T09:16:32.109Z</time>
      </trkpt>
      <trkpt lat="41.41211" lon="19.74373">
        <ele>80.917756</ele>
        <time>2022-05-14T09:16:34.068Z</time>
      </trkpt>
      <trkpt lat="41.41221" lon="19.7437">
        <ele>81.015553</ele>
        <time>2022-05-14T09:16:36.072Z</time>
      </trkpt>
      <trkpt lat="41.41231" lon="19.74367">
        <ele>81.112208</ele>
        <time>2022-05-14T09:16:38.089Z</time>
      </trkpt>
      <trkpt lat="41.4124" lon="19.74363">
        <ele>81.206019</ele>
        <time>2022-05-14T09:16:40.093Z</time>
      </trkpt>
      <trkpt lat="41.41249" lon="19.7436">
        <ele>81.217502</ele>
        <time>2022-05-14T09:16:42.068Z</time>
      </trkpt>
      <trkpt lat="41.41258" lon="19.74356">
        <ele>81.162509</ele>
        <time>2022-05-14T09:16:44.085Z</time>
      </trkpt>
      <trkpt lat="41.41268" lon="19.74353">
        <ele>81.10416</ele>
        <time>2022-05-14T09:16:46.079Z</time>
      </trkpt>
      <trkpt lat="41.41278" lon="19.74349">
        <ele>81.046256</ele>
        <time>2022-05-14T09:16:48.066Z</time>
      </trkpt>
      <trkpt lat="41.41287" lon="19.74345">
        <ele>80.990584</ele>
        <time>2022-05-14T09:16:50.146Z</time>
      </trkpt>
      <trkpt lat="41.41296" lon="19.74342">
        <ele>80.934252</ele>
        <time>2022-05-14T09:16:52.084Z</time>
      </trkpt>
      <trkpt lat="41.41306" lon="19.74339">
        <ele>80.877024</ele>
        <time>2022-05-14T09:16:54.156Z</time>
      </trkpt>
      <trkpt lat="41.41315" lon="19.74335">
        <ele>80.820471</ele>
        <time>2022-05-14T09:16:56.087Z</time>
      </trkpt>
      <trkpt lat="41.41328" lon="19.74331">
        <ele>80.742803</ele>
        <time>2022-05-14T09:16:59.064Z</time>
      </trkpt>
      <trkpt lat="41.41337" lon="19.74328">
        <ele>80.6888</ele>
        <time>2022-05-14T09:17:01.084Z</time>
      </trkpt>
      <trkpt lat="41.41346" lon="19.74324">
        <ele>80.636034</ele>
        <time>2022-05-14T09:17:03.084Z</time>
      </trkpt>
      <trkpt lat="41.41355" lon="19.7432">
        <ele>80.580238</ele>
        <time>2022-05-14T09:17:05.112Z</time>
      </trkpt>
      <trkpt lat="41.41364" lon="19.74317">
        <ele>80.523329</ele>
        <time>2022-05-14T09:17:07.068Z</time>
      </trkpt>
      <trkpt lat="41.41374" lon="19.74313">
        <ele>80.466167</ele>
        <time>2022-05-14T09:17:09.089Z</time>
      </trkpt>
      <trkpt lat="41.41383" lon="19.74309">
        <ele>80.406784</ele>
        <time>2022-05-14T09:17:11.113Z</time>
      </trkpt>
      <trkpt lat="41.41392" lon="19.74306">
        <ele>80.3527</ele>
        <time>2022-05-14T09:17:13.082Z</time>
      </trkpt>
      <trkpt lat="41.41401" lon="19.74302">
        <ele>80.298821</ele>
        <time>2022-05-14T09:17:15.070Z</time>
      </trkpt>
      <trkpt lat="41.4141" lon="19.74298">
        <ele>80.246077</ele>
        <time>2022-05-14T09:17:17.077Z</time>
      </trkpt>
      <trkpt lat="41.41419" lon="19.74295">
        <ele>80.180013</ele>
        <time>2022-05-14T09:17:19.054Z</time>
      </trkpt>
      <trkpt lat="41.41427" lon="19.74291">
        <ele>80.064148</ele>
        <time>2022-05-14T09:17:21.069Z</time>
      </trkpt>
      <trkpt lat="41.41439" lon="19.74286">
        <ele>79.908725</ele>
        <time>2022-05-14T09:17:24.071Z</time>
      </trkpt>
      <trkpt lat="41.41452" lon="19.74282">
        <ele>79.734445</ele>
        <time>2022-05-14T09:17:27.076Z</time>
      </trkpt>
      <trkpt lat="41.41461" lon="19.74278">
        <ele>79.616791</ele>
        <time>2022-05-14T09:17:29.084Z</time>
      </trkpt>
      <trkpt lat="41.4147" lon="19.74274">
        <ele>79.497</ele>
        <time>2022-05-14T09:17:31.121Z</time>
      </trkpt>
      <trkpt lat="41.41479" lon="19.74271">
        <ele>79.376535</ele>
        <time>2022-05-14T09:17:33.106Z</time>
      </trkpt>
      <trkpt lat="41.41488" lon="19.74267">
        <ele>79.257377</ele>
        <time>2022-05-14T09:17:35.064Z</time>
      </trkpt>
      <trkpt lat="41.41497" lon="19.74263">
        <ele>79.139879</ele>
        <time>2022-05-14T09:17:37.072Z</time>
      </trkpt>
      <trkpt lat="41.41506" lon="19.74259">
        <ele>79.018006</ele>
        <time>2022-05-14T09:17:39.078Z</time>
      </trkpt>
      <trkpt lat="41.41515" lon="19.74256">
        <ele>78.902421</ele>
        <time>2022-05-14T09:17:41.150Z</time>
      </trkpt>
      <trkpt lat="41.41523" lon="19.74253">
        <ele>78.787373</ele>
        <time>2022-05-14T09:17:43.056Z</time>
      </trkpt>
      <trkpt lat="41.41532" lon="19.74249">
        <ele>78.671508</ele>
        <time>2022-05-14T09:17:45.093Z</time>
      </trkpt>
      <trkpt lat="41.41545" lon="19.74244">
        <ele>78.50754</ele>
        <time>2022-05-14T09:17:48.091Z</time>
      </trkpt>
      <trkpt lat="41.41557" lon="19.7424">
        <ele>78.343809</ele>
        <time>2022-05-14T09:17:51.061Z</time>
      </trkpt>
      <trkpt lat="41.41566" lon="19.74237">
        <ele>78.228038</ele>
        <time>2022-05-14T09:17:53.077Z</time>
      </trkpt>
      <trkpt lat="41.41575" lon="19.74234">
        <ele>78.110282</ele>
        <time>2022-05-14T09:17:55.092Z</time>
      </trkpt>
      <trkpt lat="41.41584" lon="19.7423">
        <ele>77.98562</ele>
        <time>2022-05-14T09:17:57.109Z</time>
      </trkpt>
      <trkpt lat="41.41594" lon="19.74226">
        <ele>77.911408</ele>
        <time>2022-05-14T09:17:59.070Z</time>
      </trkpt>
      <trkpt lat="41.41603" lon="19.74223">
        <ele>77.900227</ele>
        <time>2022-05-14T09:18:01.069Z</time>
      </trkpt>
      <trkpt lat="41.41613" lon="19.74219">
        <ele>77.88872</ele>
        <time>2022-05-14T09:18:03.096Z</time>
      </trkpt>
      <trkpt lat="41.41623" lon="19.74215">
        <ele>77.877142</ele>
        <time>2022-05-14T09:18:05.083Z</time>
      </trkpt>
      <trkpt lat="41.41633" lon="19.74211">
        <ele>77.865696</ele>
        <time>2022-05-14T09:18:07.101Z</time>
      </trkpt>
      <trkpt lat="41.41642" lon="19.74208">
        <ele>77.854842</ele>
        <time>2022-05-14T09:18:09.076Z</time>
      </trkpt>
      <trkpt lat="41.41651" lon="19.74204">
        <ele>77.844102</ele>
        <time>2022-05-14T09:18:11.088Z</time>
      </trkpt>
      <trkpt lat="41.4166" lon="19.742">
        <ele>77.832982</ele>
        <time>2022-05-14T09:18:13.118Z</time>
      </trkpt>
      <trkpt lat="41.4167" lon="19.74196">
        <ele>77.821646</ele>
        <time>2022-05-14T09:18:15.086Z</time>
      </trkpt>
      <trkpt lat="41.4168" lon="19.74192">
        <ele>77.809959</ele>
        <time>2022-05-14T09:18:17.110Z</time>
      </trkpt>
      <trkpt lat="41.41689" lon="19.74188">
        <ele>77.798387</ele>
        <time>2022-05-14T09:18:19.078Z</time>
      </trkpt>
      <trkpt lat="41.41699" lon="19.74184">
        <ele>77.786734</ele>
        <time>2022-05-14T09:18:21.067Z</time>
      </trkpt>
      <trkpt lat="41.41709" lon="19.74179">
        <ele>77.774757</ele>
        <time>2022-05-14T09:18:23.076Z</time>
      </trkpt>
      <trkpt lat="41.41719" lon="19.74175">
        <ele>77.762805</ele>
        <time>2022-05-14T09:18:25.068Z</time>
      </trkpt>
      <trkpt lat="41.41729" lon="19.74171">
        <ele>77.751443</ele>
        <time>2022-05-14T09:18:27.066Z</time>
      </trkpt>
      <trkpt lat="41.41739" lon="19.74168">
        <ele>77.740045</ele>
        <time>2022-05-14T09:18:29.050Z</time>
      </trkpt>
      <trkpt lat="41.41748" lon="19.74164">
        <ele>77.7286</ele>
        <time>2022-05-14T09:18:31.066Z</time>
      </trkpt>
      <trkpt lat="41.41758" lon="19.7416">
        <ele>77.716913</ele>
        <time>2022-05-14T09:18:33.074Z</time>
      </trkpt>
      <trkpt lat="41.41768" lon="19.74156">
        <ele>77.659203</ele>
        <time>2022-05-14T09:18:35.105Z</time>
      </trkpt>
      <trkpt lat="41.41778" lon="19.74152">
        <ele>77.576498</ele>
        <time>2022-05-14T09:18:37.071Z</time>
      </trkpt>
      <trkpt lat="41.41788" lon="19.74149">
        <ele>77.495669</ele>
        <time>2022-05-14T09:18:39.068Z</time>
      </trkpt>
      <trkpt lat="41.41797" lon="19.74145">
        <ele>77.417137</ele>
        <time>2022-05-14T09:18:41.082Z</time>
      </trkpt>
      <trkpt lat="41.41806" lon="19.74141">
        <ele>77.34004</ele>
        <time>2022-05-14T09:18:43.070Z</time>
      </trkpt>
      <trkpt lat="41.41815" lon="19.74138">
        <ele>77.265682</ele>
        <time>2022-05-14T09:18:45.078Z</time>
      </trkpt>
      <trkpt lat="41.41825" lon="19.74134">
        <ele>77.187916</ele>
        <time>2022-05-14T09:18:47.082Z</time>
      </trkpt>
      <trkpt lat="41.41834" lon="19.7413">
        <ele>77.108789</ele>
        <time>2022-05-14T09:18:49.072Z</time>
      </trkpt>
      <trkpt lat="41.41844" lon="19.74126">
        <ele>77.026085</ele>
        <time>2022-05-14T09:18:51.090Z</time>
      </trkpt>
      <trkpt lat="41.41854" lon="19.74122">
        <ele>76.942262</ele>
        <time>2022-05-14T09:18:53.062Z</time>
      </trkpt>
      <trkpt lat="41.41864" lon="19.74118">
        <ele>76.85973</ele>
        <time>2022-05-14T09:18:55.070Z</time>
      </trkpt>
      <trkpt lat="41.41874" lon="19.74114">
        <ele>76.777365</ele>
        <time>2022-05-14T09:18:57.103Z</time>
      </trkpt>
      <trkpt lat="41.41883" lon="19.7411">
        <ele>76.696189</ele>
        <time>2022-05-14T09:18:59.067Z</time>
      </trkpt>
      <trkpt lat="41.41893" lon="19.74107">
        <ele>76.613825</ele>
        <time>2022-05-14T09:19:01.095Z</time>
      </trkpt>
      <trkpt lat="41.41903" lon="19.74103">
        <ele>76.531012</ele>
        <time>2022-05-14T09:19:03.122Z</time>
      </trkpt>
      <trkpt lat="41.41913" lon="19.74099">
        <ele>76.449415</ele>
        <time>2022-05-14T09:19:05.056Z</time>
      </trkpt>
      <trkpt lat="41.41923" lon="19.74096">
        <ele>76.368302</ele>
        <time>2022-05-14T09:19:07.052Z</time>
      </trkpt>
      <trkpt lat="41.41932" lon="19.74092">
        <ele>76.289771</ele>
        <time>2022-05-14T09:19:09.065Z</time>
      </trkpt>
      <trkpt lat="41.41941" lon="19.74088">
        <ele>76.241955</ele>
        <time>2022-05-14T09:19:11.070Z</time>
      </trkpt>
      <trkpt lat="41.41951" lon="19.74085">
        <ele>76.199913</ele>
        <time>2022-05-14T09:19:13.072Z</time>
      </trkpt>
      <trkpt lat="41.4196" lon="19.74081">
        <ele>76.158202</ele>
        <time>2022-05-14T09:19:15.082Z</time>
      </trkpt>
      <trkpt lat="41.41969" lon="19.74077">
        <ele>76.116931</ele>
        <time>2022-05-14T09:19:17.068Z</time>
      </trkpt>
      <trkpt lat="41.41978" lon="19.74074">
        <ele>76.075544</ele>
        <time>2022-05-14T09:19:19.076Z</time>
      </trkpt>
      <trkpt lat="41.41986" lon="19.7407">
        <ele>76.034479</ele>
        <time>2022-05-14T09:19:21.085Z</time>
      </trkpt>
      <trkpt lat="41.41996" lon="19.74066">
        <ele>75.99295</ele>
        <time>2022-05-14T09:19:23.076Z</time>
      </trkpt>
      <trkpt lat="41.42005" lon="19.74063">
        <ele>75.950207</ele>
        <time>2022-05-14T09:19:25.084Z</time>
      </trkpt>
      <trkpt lat="41.42015" lon="19.74059">
        <ele>75.90578</ele>
        <time>2022-05-14T09:19:27.086Z</time>
      </trkpt>
      <trkpt lat="41.42024" lon="19.74055">
        <ele>75.864069</ele>
        <time>2022-05-14T09:19:29.085Z</time>
      </trkpt>
      <trkpt lat="41.42033" lon="19.74052">
        <ele>75.822028</ele>
        <time>2022-05-14T09:19:31.112Z</time>
      </trkpt>
      <trkpt lat="41.42046" lon="19.74047">
        <ele>75.763687</ele>
        <time>2022-05-14T09:19:34.052Z</time>
      </trkpt>
      <trkpt lat="41.42055" lon="19.74043">
        <ele>75.722817</ele>
        <time>2022-05-14T09:19:36.071Z</time>
      </trkpt>
      <trkpt lat="41.42064" lon="19.7404">
        <ele>75.680684</ele>
        <time>2022-05-14T09:19:38.096Z</time>
      </trkpt>
      <trkpt lat="41.42073" lon="19.74036">
        <ele>75.638037</ele>
        <time>2022-05-14T09:19:40.076Z</time>
      </trkpt>
      <trkpt lat="41.42083" lon="19.74032">
        <ele>75.593936</ele>
        <time>2022-05-14T09:19:42.098Z</time>
      </trkpt>
      <trkpt lat="41.42093" lon="19.74028">
        <ele>75.548152</ele>
        <time>2022-05-14T09:19:44.110Z</time>
      </trkpt>
      <trkpt lat="41.42103" lon="19.74024">
        <ele>75.502882</ele>
        <time>2022-05-14T09:19:46.065Z</time>
      </trkpt>
      <trkpt lat="41.42112" lon="19.74021">
        <ele>75.404666</ele>
        <time>2022-05-14T09:19:48.094Z</time>
      </trkpt>
      <trkpt lat="41.42122" lon="19.74017">
        <ele>75.268541</ele>
        <time>2022-05-14T09:19:50.075Z</time>
      </trkpt>
      <trkpt lat="41.42131" lon="19.74013">
        <ele>75.136555</ele>
        <time>2022-05-14T09:19:52.079Z</time>
      </trkpt>
      <trkpt lat="41.42141" lon="19.74009">
        <ele>75.001291</ele>
        <time>2022-05-14T09:19:54.070Z</time>
      </trkpt>
      <trkpt lat="41.4215" lon="19.74005">
        <ele>74.869305</ele>
        <time>2022-05-14T09:19:56.059Z</time>
      </trkpt>
      <trkpt lat="41.4216" lon="19.74001">
        <ele>74.736069</ele>
        <time>2022-05-14T09:19:58.073Z</time>
      </trkpt>
      <trkpt lat="41.42169" lon="19.73997">
        <ele>74.606943</ele>
        <time>2022-05-14T09:20:00.092Z</time>
      </trkpt>
      <trkpt lat="41.42179" lon="19.73993">
        <ele>74.468254</ele>
        <time>2022-05-14T09:20:02.073Z</time>
      </trkpt>
      <trkpt lat="41.42189" lon="19.73989">
        <ele>74.326411</ele>
        <time>2022-05-14T09:20:04.066Z</time>
      </trkpt>
      <trkpt lat="41.42199" lon="19.73985">
        <ele>74.180428</ele>
        <time>2022-05-14T09:20:06.076Z</time>
      </trkpt>
      <trkpt lat="41.42209" lon="19.7398">
        <ele>74.040835</ele>
        <time>2022-05-14T09:20:08.068Z</time>
      </trkpt>
      <trkpt lat="41.42219" lon="19.73976">
        <ele>73.90057</ele>
        <time>2022-05-14T09:20:10.084Z</time>
      </trkpt>
      <trkpt lat="41.42229" lon="19.73972">
        <ele>73.761285</ele>
        <time>2022-05-14T09:20:12.067Z</time>
      </trkpt>
      <trkpt lat="41.42239" lon="19.73968">
        <ele>73.627026</ele>
        <time>2022-05-14T09:20:14.074Z</time>
      </trkpt>
      <trkpt lat="41.42249" lon="19.73964">
        <ele>73.490601</ele>
        <time>2022-05-14T09:20:16.071Z</time>
      </trkpt>
      <trkpt lat="41.42258" lon="19.7396">
        <ele>73.357035</ele>
        <time>2022-05-14T09:20:18.071Z</time>
      </trkpt>
      <trkpt lat="41.42267" lon="19.73956">
        <ele>73.225633</ele>
        <time>2022-05-14T09:20:20.077Z</time>
      </trkpt>
      <trkpt lat="41.42277" lon="19.73953">
        <ele>73.094231</ele>
        <time>2022-05-14T09:20:22.074Z</time>
      </trkpt>
      <trkpt lat="41.42286" lon="19.73949">
        <ele>73.052829</ele>
        <time>2022-05-14T09:20:24.079Z</time>
      </trkpt>
      <trkpt lat="41.42296" lon="19.73945">
        <ele>73.028165</ele>
        <time>2022-05-14T09:20:26.094Z</time>
      </trkpt>
      <trkpt lat="41.42306" lon="19.73941">
        <ele>73.003967</ele>
        <time>2022-05-14T09:20:28.074Z</time>
      </trkpt>
      <trkpt lat="41.42314" lon="19.73937">
        <ele>72.981612</ele>
        <time>2022-05-14T09:20:30.068Z</time>
      </trkpt>
      <trkpt lat="41.42323" lon="19.73934">
        <ele>72.959436</ele>
        <time>2022-05-14T09:20:32.070Z</time>
      </trkpt>
      <trkpt lat="41.42333" lon="19.7393">
        <ele>72.935343</ele>
        <time>2022-05-14T09:20:34.072Z</time>
      </trkpt>
      <trkpt lat="41.42342" lon="19.73926">
        <ele>72.911322</ele>
        <time>2022-05-14T09:20:36.088Z</time>
      </trkpt>
      <trkpt lat="41.42351" lon="19.73922">
        <ele>72.887643</ele>
        <time>2022-05-14T09:20:38.082Z</time>
      </trkpt>
      <trkpt lat="41.42361" lon="19.73919">
        <ele>72.863498</ele>
        <time>2022-05-14T09:20:40.111Z</time>
      </trkpt>
      <trkpt lat="41.42371" lon="19.73914">
        <ele>72.838029</ele>
        <time>2022-05-14T09:20:42.088Z</time>
      </trkpt>
      <trkpt lat="41.4238" lon="19.73911">
        <ele>72.813936</ele>
        <time>2022-05-14T09:20:44.095Z</time>
      </trkpt>
      <trkpt lat="41.4239" lon="19.73907">
        <ele>72.790361</ele>
        <time>2022-05-14T09:20:46.058Z</time>
      </trkpt>
      <trkpt lat="41.42399" lon="19.73904">
        <ele>72.766787</ele>
        <time>2022-05-14T09:20:48.066Z</time>
      </trkpt>
      <trkpt lat="41.42408" lon="19.739">
        <ele>72.743107</ele>
        <time>2022-05-14T09:20:50.090Z</time>
      </trkpt>
      <trkpt lat="41.42417" lon="19.73896">
        <ele>72.719374</ele>
        <time>2022-05-14T09:20:52.061Z</time>
      </trkpt>
      <trkpt lat="41.42427" lon="19.73892">
        <ele>72.695281</ele>
        <time>2022-05-14T09:20:54.064Z</time>
      </trkpt>
      <trkpt lat="41.42436" lon="19.73888">
        <ele>72.671602</ele>
        <time>2022-05-14T09:20:56.079Z</time>
      </trkpt>
      <trkpt lat="41.42445" lon="19.73885">
        <ele>72.648728</ele>
        <time>2022-05-14T09:20:58.071Z</time>
      </trkpt>
      <trkpt lat="41.42455" lon="19.73881">
        <ele>72.606348</ele>
        <time>2022-05-14T09:21:00.104Z</time>
      </trkpt>
      <trkpt lat="41.42464" lon="19.73877">
        <ele>72.540067</ele>
        <time>2022-05-14T09:21:02.073Z</time>
      </trkpt>
      <trkpt lat="41.42474" lon="19.73873">
        <ele>72.473113</ele>
        <time>2022-05-14T09:21:04.054Z</time>
      </trkpt>
      <trkpt lat="41.42484" lon="19.73869">
        <ele>72.407131</ele>
        <time>2022-05-14T09:21:06.078Z</time>
      </trkpt>
      <trkpt lat="41.42493" lon="19.73865">
        <ele>72.341776</ele>
        <time>2022-05-14T09:21:08.077Z</time>
      </trkpt>
      <trkpt lat="41.42503" lon="19.73861">
        <ele>72.277045</ele>
        <time>2022-05-14T09:21:10.055Z</time>
      </trkpt>
      <trkpt lat="41.42512" lon="19.73857">
        <ele>72.212607</ele>
        <time>2022-05-14T09:21:12.116Z</time>
      </trkpt>
      <trkpt lat="41.42522" lon="19.73853">
        <ele>72.146771</ele>
        <time>2022-05-14T09:21:14.072Z</time>
      </trkpt>
      <trkpt lat="41.42531" lon="19.73849">
        <ele>72.083587</ele>
        <time>2022-05-14T09:21:16.084Z</time>
      </trkpt>
      <trkpt lat="41.4254" lon="19.73846">
        <ele>72.018378</ele>
        <time>2022-05-14T09:21:18.104Z</time>
      </trkpt>
      <trkpt lat="41.4255" lon="19.73842">
        <ele>71.953796</ele>
        <time>2022-05-14T09:21:20.064Z</time>
      </trkpt>
      <trkpt lat="41.42559" lon="19.73838">
        <ele>71.887188</ele>
        <time>2022-05-14T09:21:22.049Z</time>
      </trkpt>
      <trkpt lat="41.42569" lon="19.73834">
        <ele>71.820095</ele>
        <time>2022-05-14T09:21:24.067Z</time>
      </trkpt>
      <trkpt lat="41.42579" lon="19.7383">
        <ele>71.750976</ele>
        <time>2022-05-14T09:21:26.081Z</time>
      </trkpt>
      <trkpt lat="41.42589" lon="19.73826">
        <ele>71.684995</ele>
        <time>2022-05-14T09:21:28.077Z</time>
      </trkpt>
      <trkpt lat="41.42599" lon="19.73822">
        <ele>71.617902</ele>
        <time>2022-05-14T09:21:30.070Z</time>
      </trkpt>
      <trkpt lat="41.42609" lon="19.73818">
        <ele>71.550584</ele>
        <time>2022-05-14T09:21:32.095Z</time>
      </trkpt>
      <trkpt lat="41.42618" lon="19.73815">
        <ele>71.486055</ele>
        <time>2022-05-14T09:21:34.089Z</time>
      </trkpt>
      <trkpt lat="41.42627" lon="19.73811">
        <ele>71.495065</ele>
        <time>2022-05-14T09:21:36.072Z</time>
      </trkpt>
      <trkpt lat="41.42636" lon="19.73808">
        <ele>71.57219</ele>
        <time>2022-05-14T09:21:38.092Z</time>
      </trkpt>
      <trkpt lat="41.42645" lon="19.73804">
        <ele>71.650215</ele>
        <time>2022-05-14T09:21:40.069Z</time>
      </trkpt>
      <trkpt lat="41.42654" lon="19.738">
        <ele>71.729625</ele>
        <time>2022-05-14T09:21:42.069Z</time>
      </trkpt>
      <trkpt lat="41.42664" lon="19.73796">
        <ele>71.814497</ele>
        <time>2022-05-14T09:21:44.107Z</time>
      </trkpt>
      <trkpt lat="41.42674" lon="19.73792">
        <ele>71.901913</ele>
        <time>2022-05-14T09:21:46.086Z</time>
      </trkpt>
      <trkpt lat="41.42685" lon="19.73787">
        <ele>71.990115</ele>
        <time>2022-05-14T09:21:48.056Z</time>
      </trkpt>
      <trkpt lat="41.42695" lon="19.73783">
        <ele>72.079103</ele>
        <time>2022-05-14T09:21:50.065Z</time>
      </trkpt>
      <trkpt lat="41.42705" lon="19.73779">
        <ele>72.16476</ele>
        <time>2022-05-14T09:21:52.064Z</time>
      </trkpt>
      <trkpt lat="41.42715" lon="19.73775">
        <ele>72.249531</ele>
        <time>2022-05-14T09:21:54.127Z</time>
      </trkpt>
      <trkpt lat="41.42724" lon="19.73771">
        <ele>72.332458</ele>
        <time>2022-05-14T09:21:56.056Z</time>
      </trkpt>
      <trkpt lat="41.42734" lon="19.73767">
        <ele>72.418984</ele>
        <time>2022-05-14T09:21:58.068Z</time>
      </trkpt>
      <trkpt lat="41.42744" lon="19.73764">
        <ele>72.503132</ele>
        <time>2022-05-14T09:22:00.063Z</time>
      </trkpt>
      <trkpt lat="41.42754" lon="19.7376">
        <ele>72.587903</ele>
        <time>2022-05-14T09:22:02.096Z</time>
      </trkpt>
      <trkpt lat="41.42764" lon="19.73756">
        <ele>72.670647</ele>
        <time>2022-05-14T09:22:04.071Z</time>
      </trkpt>
      <trkpt lat="41.42773" lon="19.73752">
        <ele>72.752705</ele>
        <time>2022-05-14T09:22:06.063Z</time>
      </trkpt>
      <trkpt lat="41.42783" lon="19.73749">
        <ele>72.833514</ele>
        <time>2022-05-14T09:22:08.065Z</time>
      </trkpt>
      <trkpt lat="41.42792" lon="19.73745">
        <ele>72.912923</ele>
        <time>2022-05-14T09:22:10.059Z</time>
      </trkpt>
      <trkpt lat="41.42801" lon="19.73741">
        <ele>73.013005</ele>
        <time>2022-05-14T09:22:12.084Z</time>
      </trkpt>
      <trkpt lat="41.4281" lon="19.73738">
        <ele>73.12066</ele>
        <time>2022-05-14T09:22:14.070Z</time>
      </trkpt>
      <trkpt lat="41.4282" lon="19.73734">
        <ele>73.232452</ele>
        <time>2022-05-14T09:22:16.099Z</time>
      </trkpt>
      <trkpt lat="41.42829" lon="19.7373">
        <ele>73.338654</ele>
        <time>2022-05-14T09:22:18.055Z</time>
      </trkpt>
      <trkpt lat="41.42838" lon="19.73726">
        <ele>73.448709</ele>
        <time>2022-05-14T09:22:20.075Z</time>
      </trkpt>
      <trkpt lat="41.42847" lon="19.73723">
        <ele>73.558149</ele>
        <time>2022-05-14T09:22:22.062Z</time>
      </trkpt>
      <trkpt lat="41.42857" lon="19.73719">
        <ele>73.664949</ele>
        <time>2022-05-14T09:22:24.080Z</time>
      </trkpt>
      <trkpt lat="41.42865" lon="19.73716">
        <ele>73.768032</ele>
        <time>2022-05-14T09:22:26.089Z</time>
      </trkpt>
      <trkpt lat="41.42874" lon="19.73713">
        <ele>73.869801</ele>
        <time>2022-05-14T09:22:28.070Z</time>
      </trkpt>
      <trkpt lat="41.42883" lon="19.7371">
        <ele>73.971135</ele>
        <time>2022-05-14T09:22:30.085Z</time>
      </trkpt>
      <trkpt lat="41.42891" lon="19.73707">
        <ele>74.072905</ele>
        <time>2022-05-14T09:22:32.078Z</time>
      </trkpt>
      <trkpt lat="41.42904" lon="19.73702">
        <ele>74.218273</ele>
        <time>2022-05-14T09:22:35.075Z</time>
      </trkpt>
      <trkpt lat="41.42913" lon="19.73698">
        <ele>74.322908</ele>
        <time>2022-05-14T09:22:37.070Z</time>
      </trkpt>
      <trkpt lat="41.42922" lon="19.73695">
        <ele>74.42911</ele>
        <time>2022-05-14T09:22:39.064Z</time>
      </trkpt>
      <trkpt lat="41.42931" lon="19.73691">
        <ele>74.538311</ele>
        <time>2022-05-14T09:22:41.078Z</time>
      </trkpt>
      <trkpt lat="41.4294" lon="19.73687">
        <ele>74.643691</ele>
        <time>2022-05-14T09:22:43.108Z</time>
      </trkpt>
      <trkpt lat="41.42953" lon="19.73682">
        <ele>74.795417</ele>
        <time>2022-05-14T09:22:46.070Z</time>
      </trkpt>
      <trkpt lat="41.42962" lon="19.73679">
        <ele>74.899816</ele>
        <time>2022-05-14T09:22:48.074Z</time>
      </trkpt>
      <trkpt lat="41.42971" lon="19.73675">
        <ele>74.946119</ele>
        <time>2022-05-14T09:22:50.072Z</time>
      </trkpt>
      <trkpt lat="41.42983" lon="19.7367">
        <ele>74.864021</ele>
        <time>2022-05-14T09:22:53.073Z</time>
      </trkpt>
      <trkpt lat="41.42993" lon="19.73666">
        <ele>74.804951</ele>
        <time>2022-05-14T09:22:55.073Z</time>
      </trkpt>
      <trkpt lat="41.43001" lon="19.73663">
        <ele>74.747926</ele>
        <time>2022-05-14T09:22:57.051Z</time>
      </trkpt>
      <trkpt lat="41.4301" lon="19.73659">
        <ele>74.691342</ele>
        <time>2022-05-14T09:22:59.082Z</time>
      </trkpt>
      <trkpt lat="41.43019" lon="19.73655">
        <ele>74.635319</ele>
        <time>2022-05-14T09:23:01.071Z</time>
      </trkpt>
      <trkpt lat="41.43028" lon="19.73651">
        <ele>74.577419</ele>
        <time>2022-05-14T09:23:03.078Z</time>
      </trkpt>
      <trkpt lat="41.43037" lon="19.73647">
        <ele>74.518934</ele>
        <time>2022-05-14T09:23:05.111Z</time>
      </trkpt>
      <trkpt lat="41.43046" lon="19.73643">
        <ele>74.460594</ele>
        <time>2022-05-14T09:23:07.074Z</time>
      </trkpt>
      <trkpt lat="41.43054" lon="19.7364">
        <ele>74.403569</ele>
        <time>2022-05-14T09:23:09.087Z</time>
      </trkpt>
      <trkpt lat="41.43067" lon="19.73634">
        <ele>74.323433</ele>
        <time>2022-05-14T09:23:12.065Z</time>
      </trkpt>
      <trkpt lat="41.4308" lon="19.73629">
        <ele>74.241531</ele>
        <time>2022-05-14T09:23:15.061Z</time>
      </trkpt>
      <trkpt lat="41.43088" lon="19.73626">
        <ele>74.18564</ele>
        <time>2022-05-14T09:23:17.072Z</time>
      </trkpt>
      <trkpt lat="41.431" lon="19.73621">
        <ele>74.106956</ele>
        <time>2022-05-14T09:23:20.068Z</time>
      </trkpt>
      <trkpt lat="41.43113" lon="19.73616">
        <ele>74.024857</ele>
        <time>2022-05-14T09:23:23.066Z</time>
      </trkpt>
      <trkpt lat="41.43126" lon="19.73611">
        <ele>73.94427</ele>
        <time>2022-05-14T09:23:26.059Z</time>
      </trkpt>
      <trkpt lat="41.43138" lon="19.73606">
        <ele>73.86572</ele>
        <time>2022-05-14T09:23:29.099Z</time>
      </trkpt>
      <trkpt lat="41.4315" lon="19.73601">
        <ele>73.812059</ele>
        <time>2022-05-14T09:23:32.075Z</time>
      </trkpt>
      <trkpt lat="41.43163" lon="19.73596">
        <ele>73.75996</ele>
        <time>2022-05-14T09:23:35.060Z</time>
      </trkpt>
      <trkpt lat="41.43176" lon="19.7359">
        <ele>73.708425</ele>
        <time>2022-05-14T09:23:38.117Z</time>
      </trkpt>
      <trkpt lat="41.43189" lon="19.73585">
        <ele>73.657033</ele>
        <time>2022-05-14T09:23:41.078Z</time>
      </trkpt>
      <trkpt lat="41.43202" lon="19.7358">
        <ele>73.604191</ele>
        <time>2022-05-14T09:23:44.064Z</time>
      </trkpt>
      <trkpt lat="41.4321" lon="19.73576">
        <ele>73.569239</ele>
        <time>2022-05-14T09:23:46.076Z</time>
      </trkpt>
      <trkpt lat="41.43223" lon="19.73571">
        <ele>73.517225</ele>
        <time>2022-05-14T09:23:49.085Z</time>
      </trkpt>
      <trkpt lat="41.43236" lon="19.73566">
        <ele>73.463804</ele>
        <time>2022-05-14T09:23:52.067Z</time>
      </trkpt>
      <trkpt lat="41.43245" lon="19.73562">
        <ele>73.426161</ele>
        <time>2022-05-14T09:23:54.112Z</time>
      </trkpt>
      <trkpt lat="41.43254" lon="19.73559">
        <ele>73.390465</ele>
        <time>2022-05-14T09:23:56.076Z</time>
      </trkpt>
      <trkpt lat="41.43267" lon="19.73554">
        <ele>73.337952</ele>
        <time>2022-05-14T09:23:59.064Z</time>
      </trkpt>
      <trkpt lat="41.43276" lon="19.7355">
        <ele>73.301055</ele>
        <time>2022-05-14T09:24:01.108Z</time>
      </trkpt>
      <trkpt lat="41.43286" lon="19.73547">
        <ele>73.262501</ele>
        <time>2022-05-14T09:24:03.073Z</time>
      </trkpt>
      <trkpt lat="41.43296" lon="19.73543">
        <ele>73.223362</ele>
        <time>2022-05-14T09:24:05.089Z</time>
      </trkpt>
      <trkpt lat="41.43305" lon="19.7354">
        <ele>73.184752</ele>
        <time>2022-05-14T09:24:07.122Z</time>
      </trkpt>
      <trkpt lat="41.43315" lon="19.73536">
        <ele>73.171291</ele>
        <time>2022-05-14T09:24:09.078Z</time>
      </trkpt>
      <trkpt lat="41.43325" lon="19.73532">
        <ele>73.208511</ele>
        <time>2022-05-14T09:24:11.076Z</time>
      </trkpt>
      <trkpt lat="41.43335" lon="19.73529">
        <ele>73.246015</ele>
        <time>2022-05-14T09:24:13.153Z</time>
      </trkpt>
      <trkpt lat="41.43345" lon="19.73525">
        <ele>73.281857</ele>
        <time>2022-05-14T09:24:15.077Z</time>
      </trkpt>
      <trkpt lat="41.43355" lon="19.73521">
        <ele>73.31773</ele>
        <time>2022-05-14T09:24:17.074Z</time>
      </trkpt>
      <trkpt lat="41.43364" lon="19.73517">
        <ele>73.352345</ele>
        <time>2022-05-14T09:24:19.062Z</time>
      </trkpt>
      <trkpt lat="41.43373" lon="19.73513">
        <ele>73.386777</ele>
        <time>2022-05-14T09:24:21.070Z</time>
      </trkpt>
      <trkpt lat="41.43382" lon="19.7351">
        <ele>73.420975</ele>
        <time>2022-05-14T09:24:23.080Z</time>
      </trkpt>
      <trkpt lat="41.43391" lon="19.73506">
        <ele>73.454306</ele>
        <time>2022-05-14T09:24:25.073Z</time>
      </trkpt>
      <trkpt lat="41.434" lon="19.73502">
        <ele>73.486537</ele>
        <time>2022-05-14T09:24:27.088Z</time>
      </trkpt>
      <trkpt lat="41.43413" lon="19.73497">
        <ele>73.534761</ele>
        <time>2022-05-14T09:24:30.070Z</time>
      </trkpt>
      <trkpt lat="41.43422" lon="19.73493">
        <ele>73.568012</ele>
        <time>2022-05-14T09:24:32.068Z</time>
      </trkpt>
      <trkpt lat="41.43431" lon="19.73489">
        <ele>73.602023</ele>
        <time>2022-05-14T09:24:34.060Z</time>
      </trkpt>
      <trkpt lat="41.4344" lon="19.73486">
        <ele>73.635956</ele>
        <time>2022-05-14T09:24:36.068Z</time>
      </trkpt>
      <trkpt lat="41.43449" lon="19.73482">
        <ele>73.670153</ele>
        <time>2022-05-14T09:24:38.074Z</time>
      </trkpt>
      <trkpt lat="41.43458" lon="19.73478">
        <ele>73.704585</ele>
        <time>2022-05-14T09:24:40.114Z</time>
      </trkpt>
      <trkpt lat="41.43467" lon="19.73475">
        <ele>73.7392</ele>
        <time>2022-05-14T09:24:42.063Z</time>
      </trkpt>
      <trkpt lat="41.43477" lon="19.73471">
        <ele>73.774083</ele>
        <time>2022-05-14T09:24:44.056Z</time>
      </trkpt>
      <trkpt lat="41.43486" lon="19.73467">
        <ele>73.814968</ele>
        <time>2022-05-14T09:24:46.086Z</time>
      </trkpt>
      <trkpt lat="41.43495" lon="19.73464">
        <ele>73.877224</ele>
        <time>2022-05-14T09:24:48.085Z</time>
      </trkpt>
      <trkpt lat="41.43504" lon="19.7346">
        <ele>73.941246</ele>
        <time>2022-05-14T09:24:50.130Z</time>
      </trkpt>
      <trkpt lat="41.43512" lon="19.73457">
        <ele>74.004963</ele>
        <time>2022-05-14T09:24:52.110Z</time>
      </trkpt>
      <trkpt lat="41.43522" lon="19.73453">
        <ele>74.070946</ele>
        <time>2022-05-14T09:24:54.075Z</time>
      </trkpt>
      <trkpt lat="41.43531" lon="19.73449">
        <ele>74.135621</ele>
        <time>2022-05-14T09:24:56.083Z</time>
      </trkpt>
      <trkpt lat="41.4354" lon="19.73445">
        <ele>74.200296</ele>
        <time>2022-05-14T09:24:58.077Z</time>
      </trkpt>
      <trkpt lat="41.43549" lon="19.73442">
        <ele>74.265181</ele>
        <time>2022-05-14T09:25:00.064Z</time>
      </trkpt>
      <trkpt lat="41.43558" lon="19.73438">
        <ele>74.333279</ele>
        <time>2022-05-14T09:25:02.064Z</time>
      </trkpt>
      <trkpt lat="41.43568" lon="19.73434">
        <ele>74.402688</ele>
        <time>2022-05-14T09:25:04.067Z</time>
      </trkpt>
      <trkpt lat="41.43578" lon="19.7343">
        <ele>74.473209</ele>
        <time>2022-05-14T09:25:06.068Z</time>
      </trkpt>
      <trkpt lat="41.43587" lon="19.73426">
        <ele>74.539411</ele>
        <time>2022-05-14T09:25:08.073Z</time>
      </trkpt>
      <trkpt lat="41.43596" lon="19.73423">
        <ele>74.605614</ele>
        <time>2022-05-14T09:25:10.085Z</time>
      </trkpt>
      <trkpt lat="41.43605" lon="19.73419">
        <ele>74.670221</ele>
        <time>2022-05-14T09:25:12.088Z</time>
      </trkpt>
      <trkpt lat="41.43615" lon="19.73416">
        <ele>74.735626</ele>
        <time>2022-05-14T09:25:14.123Z</time>
      </trkpt>
      <trkpt lat="41.43624" lon="19.73412">
        <ele>74.805266</ele>
        <time>2022-05-14T09:25:16.106Z</time>
      </trkpt>
      <trkpt lat="41.43634" lon="19.73409">
        <ele>74.870809</ele>
        <time>2022-05-14T09:25:18.094Z</time>
      </trkpt>
      <trkpt lat="41.43643" lon="19.73405">
        <ele>74.935694</ele>
        <time>2022-05-14T09:25:20.081Z</time>
      </trkpt>
      <trkpt lat="41.43652" lon="19.73402">
        <ele>75.001527</ele>
        <time>2022-05-14T09:25:22.068Z</time>
      </trkpt>
      <trkpt lat="41.43661" lon="19.73398">
        <ele>75.101795</ele>
        <time>2022-05-14T09:25:24.074Z</time>
      </trkpt>
      <trkpt lat="41.4367" lon="19.73394">
        <ele>75.231177</ele>
        <time>2022-05-14T09:25:26.085Z</time>
      </trkpt>
      <trkpt lat="41.43679" lon="19.73391">
        <ele>75.364538</ele>
        <time>2022-05-14T09:25:28.081Z</time>
      </trkpt>
      <trkpt lat="41.43688" lon="19.73387">
        <ele>75.492307</ele>
        <time>2022-05-14T09:25:30.072Z</time>
      </trkpt>
      <trkpt lat="41.43701" lon="19.73383">
        <ele>75.67581</ele>
        <time>2022-05-14T09:25:33.085Z</time>
      </trkpt>
      <trkpt lat="41.4371" lon="19.73379">
        <ele>75.800927</ele>
        <time>2022-05-14T09:25:35.067Z</time>
      </trkpt>
      <trkpt lat="41.43722" lon="19.73375">
        <ele>75.970593</ele>
        <time>2022-05-14T09:25:38.077Z</time>
      </trkpt>
      <trkpt lat="41.43733" lon="19.7337">
        <ele>76.136589</ele>
        <time>2022-05-14T09:25:41.073Z</time>
      </trkpt>
      <trkpt lat="41.43745" lon="19.73365">
        <ele>76.301991</ele>
        <time>2022-05-14T09:25:44.071Z</time>
      </trkpt>
      <trkpt lat="41.43756" lon="19.73361">
        <ele>76.468431</ele>
        <time>2022-05-14T09:25:47.133Z</time>
      </trkpt>
      <trkpt lat="41.43767" lon="19.73357">
        <ele>76.627954</ele>
        <time>2022-05-14T09:25:50.089Z</time>
      </trkpt>
      <trkpt lat="41.43778" lon="19.73352">
        <ele>76.784827</ele>
        <time>2022-05-14T09:25:53.071Z</time>
      </trkpt>
      <trkpt lat="41.43789" lon="19.73348">
        <ele>76.93835</ele>
        <time>2022-05-14T09:25:56.097Z</time>
      </trkpt>
      <trkpt lat="41.438" lon="19.73344">
        <ele>77.102905</ele>
        <time>2022-05-14T09:25:59.087Z</time>
      </trkpt>
      <trkpt lat="41.43811" lon="19.73339">
        <ele>77.26332</ele>
        <time>2022-05-14T09:26:02.079Z</time>
      </trkpt>
      <trkpt lat="41.43823" lon="19.73334">
        <ele>77.433279</ele>
        <time>2022-05-14T09:26:05.092Z</time>
      </trkpt>
      <trkpt lat="41.43835" lon="19.7333">
        <ele>77.556741</ele>
        <time>2022-05-14T09:26:08.098Z</time>
      </trkpt>
      <trkpt lat="41.43846" lon="19.73325">
        <ele>77.636771</ele>
        <time>2022-05-14T09:26:11.075Z</time>
      </trkpt>
      <trkpt lat="41.43857" lon="19.7332">
        <ele>77.719937</ele>
        <time>2022-05-14T09:26:14.088Z</time>
      </trkpt>
      <trkpt lat="41.43869" lon="19.73315">
        <ele>77.807921</ele>
        <time>2022-05-14T09:26:17.085Z</time>
      </trkpt>
      <trkpt lat="41.43882" lon="19.7331">
        <ele>77.901808</ele>
        <time>2022-05-14T09:26:20.072Z</time>
      </trkpt>
      <trkpt lat="41.43894" lon="19.73305">
        <ele>77.989423</ele>
        <time>2022-05-14T09:26:23.066Z</time>
      </trkpt>
      <trkpt lat="41.43906" lon="19.73301">
        <ele>78.073936</ele>
        <time>2022-05-14T09:26:26.068Z</time>
      </trkpt>
      <trkpt lat="41.43917" lon="19.73296">
        <ele>78.153809</ele>
        <time>2022-05-14T09:26:29.055Z</time>
      </trkpt>
      <trkpt lat="41.43928" lon="19.73291">
        <ele>78.235667</ele>
        <time>2022-05-14T09:26:32.084Z</time>
      </trkpt>
      <trkpt lat="41.43941" lon="19.73286">
        <ele>78.325067</ele>
        <time>2022-05-14T09:26:35.079Z</time>
      </trkpt>
      <trkpt lat="41.43953" lon="19.73281">
        <ele>78.414129</ele>
        <time>2022-05-14T09:26:38.056Z</time>
      </trkpt>
      <trkpt lat="41.43965" lon="19.73276">
        <ele>78.500418</ele>
        <time>2022-05-14T09:26:41.082Z</time>
      </trkpt>
      <trkpt lat="41.43977" lon="19.73271">
        <ele>78.58768</ele>
        <time>2022-05-14T09:26:44.111Z</time>
      </trkpt>
      <trkpt lat="41.43989" lon="19.73266">
        <ele>78.674047</ele>
        <time>2022-05-14T09:26:47.054Z</time>
      </trkpt>
      <trkpt lat="41.44001" lon="19.73262">
        <ele>78.761181</ele>
        <time>2022-05-14T09:26:50.081Z</time>
      </trkpt>
      <trkpt lat="41.44013" lon="19.73256">
        <ele>78.767148</ele>
        <time>2022-05-14T09:26:53.057Z</time>
      </trkpt>
      <trkpt lat="41.44026" lon="19.73252">
        <ele>78.773155</ele>
        <time>2022-05-14T09:26:56.068Z</time>
      </trkpt>
      <trkpt lat="41.44039" lon="19.73247">
        <ele>78.779304</ele>
        <time>2022-05-14T09:26:59.086Z</time>
      </trkpt>
      <trkpt lat="41.4405" lon="19.73243">
        <ele>78.784649</ele>
        <time>2022-05-14T09:27:02.072Z</time>
      </trkpt>
      <trkpt lat="41.44061" lon="19.73238">
        <ele>78.790005</ele>
        <time>2022-05-14T09:27:05.069Z</time>
      </trkpt>
      <trkpt lat="41.44074" lon="19.73234">
        <ele>78.796028</ele>
        <time>2022-05-14T09:27:08.074Z</time>
      </trkpt>
      <trkpt lat="41.44086" lon="19.73229">
        <ele>78.802152</ele>
        <time>2022-05-14T09:27:11.074Z</time>
      </trkpt>
      <trkpt lat="41.44095" lon="19.73225">
        <ele>78.806434</ele>
        <time>2022-05-14T09:27:13.072Z</time>
      </trkpt>
      <trkpt lat="41.44104" lon="19.73222">
        <ele>78.810751</ele>
        <time>2022-05-14T09:27:15.072Z</time>
      </trkpt>
      <trkpt lat="41.44113" lon="19.73218">
        <ele>78.815127</ele>
        <time>2022-05-14T09:27:17.100Z</time>
      </trkpt>
      <trkpt lat="41.44122" lon="19.73214">
        <ele>78.819427</ele>
        <time>2022-05-14T09:27:19.064Z</time>
      </trkpt>
      <trkpt lat="41.44131" lon="19.7321">
        <ele>78.823803</ele>
        <time>2022-05-14T09:27:21.082Z</time>
      </trkpt>
      <trkpt lat="41.4414" lon="19.73207">
        <ele>78.827972</ele>
        <time>2022-05-14T09:27:23.082Z</time>
      </trkpt>
      <trkpt lat="41.44151" lon="19.73202">
        <ele>78.833674</ele>
        <time>2022-05-14T09:27:26.084Z</time>
      </trkpt>
      <trkpt lat="41.44164" lon="19.73197">
        <ele>78.839773</ele>
        <time>2022-05-14T09:27:29.066Z</time>
      </trkpt>
      <trkpt lat="41.44176" lon="19.73192">
        <ele>78.846725</ele>
        <time>2022-05-14T09:27:32.057Z</time>
      </trkpt>
      <trkpt lat="41.44189" lon="19.73187">
        <ele>78.856593</ele>
        <time>2022-05-14T09:27:35.073Z</time>
      </trkpt>
      <trkpt lat="41.44202" lon="19.73182">
        <ele>78.866593</ele>
        <time>2022-05-14T09:27:38.054Z</time>
      </trkpt>
      <trkpt lat="41.44213" lon="19.73177">
        <ele>78.87586</ele>
        <time>2022-05-14T09:27:41.085Z</time>
      </trkpt>
      <trkpt lat="41.44225" lon="19.73173">
        <ele>78.884838</ele>
        <time>2022-05-14T09:27:44.068Z</time>
      </trkpt>
      <trkpt lat="41.44236" lon="19.73168">
        <ele>78.894069</ele>
        <time>2022-05-14T09:27:47.083Z</time>
      </trkpt>
      <trkpt lat="41.44248" lon="19.73163">
        <ele>78.903342</ele>
        <time>2022-05-14T09:27:50.081Z</time>
      </trkpt>
      <trkpt lat="41.44259" lon="19.73159">
        <ele>78.912072</ele>
        <time>2022-05-14T09:27:53.068Z</time>
      </trkpt>
      <trkpt lat="41.4427" lon="19.73154">
        <ele>78.920589</ele>
        <time>2022-05-14T09:27:56.109Z</time>
      </trkpt>
      <trkpt lat="41.44281" lon="19.7315">
        <ele>78.928926</ele>
        <time>2022-05-14T09:27:59.073Z</time>
      </trkpt>
      <trkpt lat="41.44291" lon="19.73145">
        <ele>78.936976</ele>
        <time>2022-05-14T09:28:02.088Z</time>
      </trkpt>
      <trkpt lat="41.443" lon="19.73141">
        <ele>78.944418</ele>
        <time>2022-05-14T09:28:05.093Z</time>
      </trkpt>
      <trkpt lat="41.44311" lon="19.73136">
        <ele>78.952898</ele>
        <time>2022-05-14T09:28:08.089Z</time>
      </trkpt>
      <trkpt lat="41.44321" lon="19.73133">
        <ele>78.960725</ele>
        <time>2022-05-14T09:28:11.056Z</time>
      </trkpt>
      <trkpt lat="41.44331" lon="19.73129">
        <ele>78.968859</ele>
        <time>2022-05-14T09:28:14.065Z</time>
      </trkpt>
      <trkpt lat="41.44342" lon="19.73125">
        <ele>78.977386</ele>
        <time>2022-05-14T09:28:17.077Z</time>
      </trkpt>
      <trkpt lat="41.44353" lon="19.7312">
        <ele>79.010229</ele>
        <time>2022-05-14T09:28:20.072Z</time>
      </trkpt>
      <trkpt lat="41.44365" lon="19.73116">
        <ele>79.051665</ele>
        <time>2022-05-14T09:28:23.062Z</time>
      </trkpt>
      <trkpt lat="41.44375" lon="19.73112">
        <ele>79.091632</ele>
        <time>2022-05-14T09:28:26.074Z</time>
      </trkpt>
      <trkpt lat="41.44386" lon="19.73107">
        <ele>79.130691</ele>
        <time>2022-05-14T09:28:29.101Z</time>
      </trkpt>
      <trkpt lat="41.44397" lon="19.73103">
        <ele>79.171333</ele>
        <time>2022-05-14T09:28:32.065Z</time>
      </trkpt>
      <trkpt lat="41.44408" lon="19.73098">
        <ele>79.210884</ele>
        <time>2022-05-14T09:28:35.108Z</time>
      </trkpt>
      <trkpt lat="41.44419" lon="19.73094">
        <ele>79.251188</ele>
        <time>2022-05-14T09:28:38.058Z</time>
      </trkpt>
      <trkpt lat="41.4443" lon="19.7309">
        <ele>79.292769</ele>
        <time>2022-05-14T09:28:41.086Z</time>
      </trkpt>
      <trkpt lat="41.44441" lon="19.73085">
        <ele>79.334839</ele>
        <time>2022-05-14T09:28:44.067Z</time>
      </trkpt>
      <trkpt lat="41.44452" lon="19.7308">
        <ele>79.376056</ele>
        <time>2022-05-14T09:28:47.067Z</time>
      </trkpt>
      <trkpt lat="41.44464" lon="19.73076">
        <ele>79.41696</ele>
        <time>2022-05-14T09:28:50.090Z</time>
      </trkpt>
      <trkpt lat="41.44476" lon="19.73071">
        <ele>79.463733</ele>
        <time>2022-05-14T09:28:53.087Z</time>
      </trkpt>
      <trkpt lat="41.44485" lon="19.73067">
        <ele>79.495909</ele>
        <time>2022-05-14T09:28:55.093Z</time>
      </trkpt>
      <trkpt lat="41.44497" lon="19.73062">
        <ele>79.540576</ele>
        <time>2022-05-14T09:28:58.059Z</time>
      </trkpt>
      <trkpt lat="41.44509" lon="19.73058">
        <ele>79.584414</ele>
        <time>2022-05-14T09:29:01.079Z</time>
      </trkpt>
      <trkpt lat="41.44521" lon="19.73053">
        <ele>79.528793</ele>
        <time>2022-05-14T09:29:04.076Z</time>
      </trkpt>
      <trkpt lat="41.44534" lon="19.73048">
        <ele>79.224745</ele>
        <time>2022-05-14T09:29:07.096Z</time>
      </trkpt>
      <trkpt lat="41.44543" lon="19.73044">
        <ele>79.002356</ele>
        <time>2022-05-14T09:29:09.108Z</time>
      </trkpt>
      <trkpt lat="41.44551" lon="19.73041">
        <ele>78.792019</ele>
        <time>2022-05-14T09:29:11.056Z</time>
      </trkpt>
      <trkpt lat="41.44564" lon="19.73035">
        <ele>78.485258</ele>
        <time>2022-05-14T09:29:14.072Z</time>
      </trkpt>
      <trkpt lat="41.44573" lon="19.73032">
        <ele>78.27387</ele>
        <time>2022-05-14T09:29:16.071Z</time>
      </trkpt>
      <trkpt lat="41.44582" lon="19.73028">
        <ele>78.058088</ele>
        <time>2022-05-14T09:29:18.054Z</time>
      </trkpt>
      <trkpt lat="41.44591" lon="19.73024">
        <ele>77.836845</ele>
        <time>2022-05-14T09:29:20.069Z</time>
      </trkpt>
      <trkpt lat="41.446" lon="19.7302">
        <ele>77.618863</ele>
        <time>2022-05-14T09:29:22.108Z</time>
      </trkpt>
      <trkpt lat="41.44609" lon="19.73016">
        <ele>77.398155</ele>
        <time>2022-05-14T09:29:24.076Z</time>
      </trkpt>
      <trkpt lat="41.44618" lon="19.73012">
        <ele>77.187299</ele>
        <time>2022-05-14T09:29:26.061Z</time>
      </trkpt>
      <trkpt lat="41.44627" lon="19.73008">
        <ele>76.963861</ele>
        <time>2022-05-14T09:29:28.071Z</time>
      </trkpt>
      <trkpt lat="41.44636" lon="19.73004">
        <ele>76.74481</ele>
        <time>2022-05-14T09:29:30.094Z</time>
      </trkpt>
      <trkpt lat="41.44645" lon="19.73001">
        <ele>76.531753</ele>
        <time>2022-05-14T09:29:32.072Z</time>
      </trkpt>
      <trkpt lat="41.44653" lon="19.72997">
        <ele>76.31817</ele>
        <time>2022-05-14T09:29:34.057Z</time>
      </trkpt>
      <trkpt lat="41.44662" lon="19.72993">
        <ele>76.101308</ele>
        <time>2022-05-14T09:29:36.108Z</time>
      </trkpt>
      <trkpt lat="41.44675" lon="19.72987">
        <ele>75.800065</ele>
        <time>2022-05-14T09:29:39.079Z</time>
      </trkpt>
      <trkpt lat="41.44688" lon="19.72982">
        <ele>75.486675</ele>
        <time>2022-05-14T09:29:42.074Z</time>
      </trkpt>
      <trkpt lat="41.447" lon="19.72976">
        <ele>75.48944</ele>
        <time>2022-05-14T09:29:45.078Z</time>
      </trkpt>
      <trkpt lat="41.44713" lon="19.72971">
        <ele>75.519106</ele>
        <time>2022-05-14T09:29:48.067Z</time>
      </trkpt>
      <trkpt lat="41.44725" lon="19.72966">
        <ele>75.548713</ele>
        <time>2022-05-14T09:29:51.083Z</time>
      </trkpt>
      <trkpt lat="41.44737" lon="19.72961">
        <ele>75.577187</ele>
        <time>2022-05-14T09:29:54.076Z</time>
      </trkpt>
      <trkpt lat="41.44748" lon="19.72956">
        <ele>75.605226</ele>
        <time>2022-05-14T09:29:57.072Z</time>
      </trkpt>
      <trkpt lat="41.44761" lon="19.72951">
        <ele>75.634136</ele>
        <time>2022-05-14T09:30:00.067Z</time>
      </trkpt>
      <trkpt lat="41.44773" lon="19.72946">
        <ele>75.664576</ele>
        <time>2022-05-14T09:30:03.089Z</time>
      </trkpt>
      <trkpt lat="41.44786" lon="19.72941">
        <ele>75.694627</ele>
        <time>2022-05-14T09:30:06.067Z</time>
      </trkpt>
      <trkpt lat="41.44799" lon="19.72936">
        <ele>75.724581</ele>
        <time>2022-05-14T09:30:09.084Z</time>
      </trkpt>
      <trkpt lat="41.44811" lon="19.72931">
        <ele>75.753296</ele>
        <time>2022-05-14T09:30:12.103Z</time>
      </trkpt>
      <trkpt lat="41.44823" lon="19.72926">
        <ele>75.781888</ele>
        <time>2022-05-14T09:30:15.061Z</time>
      </trkpt>
      <trkpt lat="41.44835" lon="19.72922">
        <ele>75.810776</ele>
        <time>2022-05-14T09:30:18.070Z</time>
      </trkpt>
      <trkpt lat="41.44848" lon="19.72917">
        <ele>75.841342</ele>
        <time>2022-05-14T09:30:21.066Z</time>
      </trkpt>
      <trkpt lat="41.4486" lon="19.72913">
        <ele>75.87023</ele>
        <time>2022-05-14T09:30:24.059Z</time>
      </trkpt>
      <trkpt lat="41.44872" lon="19.72908">
        <ele>75.788147</ele>
        <time>2022-05-14T09:30:27.071Z</time>
      </trkpt>
      <trkpt lat="41.44884" lon="19.72904">
        <ele>75.69902</ele>
        <time>2022-05-14T09:30:30.068Z</time>
      </trkpt>
      <trkpt lat="41.44896" lon="19.72899">
        <ele>75.605596</ele>
        <time>2022-05-14T09:30:33.045Z</time>
      </trkpt>
      <trkpt lat="41.44905" lon="19.72895">
        <ele>75.540494</ele>
        <time>2022-05-14T09:30:35.061Z</time>
      </trkpt>
      <trkpt lat="41.44917" lon="19.7289">
        <ele>75.446391</ele>
        <time>2022-05-14T09:30:38.076Z</time>
      </trkpt>
      <trkpt lat="41.4493" lon="19.72884">
        <ele>75.347967</ele>
        <time>2022-05-14T09:30:41.070Z</time>
      </trkpt>
      <trkpt lat="41.44939" lon="19.72881">
        <ele>75.279778</ele>
        <time>2022-05-14T09:30:43.071Z</time>
      </trkpt>
      <trkpt lat="41.44948" lon="19.72877">
        <ele>75.212746</ele>
        <time>2022-05-14T09:30:45.130Z</time>
      </trkpt>
      <trkpt lat="41.44957" lon="19.72874">
        <ele>75.144869</ele>
        <time>2022-05-14T09:30:47.067Z</time>
      </trkpt>
      <trkpt lat="41.44967" lon="19.7287">
        <ele>75.072364</ele>
        <time>2022-05-14T09:30:49.063Z</time>
      </trkpt>
      <trkpt lat="41.44977" lon="19.72866">
        <ele>74.996455</ele>
        <time>2022-05-14T09:30:51.058Z</time>
      </trkpt>
      <trkpt lat="41.44987" lon="19.72862">
        <ele>74.921558</ele>
        <time>2022-05-14T09:30:53.056Z</time>
      </trkpt>
      <trkpt lat="41.44996" lon="19.72857">
        <ele>74.847029</ele>
        <time>2022-05-14T09:30:55.072Z</time>
      </trkpt>
      <trkpt lat="41.45006" lon="19.72853">
        <ele>74.77302</ele>
        <time>2022-05-14T09:30:57.079Z</time>
      </trkpt>
      <trkpt lat="41.45016" lon="19.72849">
        <ele>74.69901</ele>
        <time>2022-05-14T09:30:59.121Z</time>
      </trkpt>
      <trkpt lat="41.45026" lon="19.72844">
        <ele>74.620013</ele>
        <time>2022-05-14T09:31:01.085Z</time>
      </trkpt>
      <trkpt lat="41.45036" lon="19.7284">
        <ele>74.531542</ele>
        <time>2022-05-14T09:31:03.072Z</time>
      </trkpt>
      <trkpt lat="41.45046" lon="19.72836">
        <ele>74.418369</ele>
        <time>2022-05-14T09:31:05.074Z</time>
      </trkpt>
      <trkpt lat="41.45056" lon="19.72833">
        <ele>74.305898</ele>
        <time>2022-05-14T09:31:07.094Z</time>
      </trkpt>
      <trkpt lat="41.45065" lon="19.72828">
        <ele>74.196687</ele>
        <time>2022-05-14T09:31:09.077Z</time>
      </trkpt>
      <trkpt lat="41.45075" lon="19.72825">
        <ele>74.087165</ele>
        <time>2022-05-14T09:31:11.046Z</time>
      </trkpt>
      <trkpt lat="41.45084" lon="19.72821">
        <ele>73.975756</ele>
        <time>2022-05-14T09:31:13.057Z</time>
      </trkpt>
      <trkpt lat="41.45094" lon="19.72817">
        <ele>73.862222</ele>
        <time>2022-05-14T09:31:15.066Z</time>
      </trkpt>
      <trkpt lat="41.45104" lon="19.72813">
        <ele>73.745639</ele>
        <time>2022-05-14T09:31:17.068Z</time>
      </trkpt>
      <trkpt lat="41.45114" lon="19.72809">
        <ele>73.631167</ele>
        <time>2022-05-14T09:31:19.055Z</time>
      </trkpt>
      <trkpt lat="41.45124" lon="19.72805">
        <ele>73.51247</ele>
        <time>2022-05-14T09:31:21.071Z</time>
      </trkpt>
      <trkpt lat="41.45135" lon="19.72801">
        <ele>73.396125</ele>
        <time>2022-05-14T09:31:23.088Z</time>
      </trkpt>
      <trkpt lat="41.45145" lon="19.72797">
        <ele>73.278244</ele>
        <time>2022-05-14T09:31:25.080Z</time>
      </trkpt>
      <trkpt lat="41.45155" lon="19.72793">
        <ele>73.164827</ele>
        <time>2022-05-14T09:31:27.087Z</time>
      </trkpt>
      <trkpt lat="41.45165" lon="19.72789">
        <ele>73.050229</ele>
        <time>2022-05-14T09:31:29.054Z</time>
      </trkpt>
      <trkpt lat="41.45175" lon="19.72785">
        <ele>72.931766</ele>
        <time>2022-05-14T09:31:31.059Z</time>
      </trkpt>
      <trkpt lat="41.45185" lon="19.7278">
        <ele>72.809979</ele>
        <time>2022-05-14T09:31:33.104Z</time>
      </trkpt>
      <trkpt lat="41.45196" lon="19.72776">
        <ele>72.691599</ele>
        <time>2022-05-14T09:31:35.061Z</time>
      </trkpt>
      <trkpt lat="41.45206" lon="19.72771">
        <ele>72.564917</ele>
        <time>2022-05-14T09:31:37.068Z</time>
      </trkpt>
      <trkpt lat="41.45216" lon="19.72767">
        <ele>72.415114</ele>
        <time>2022-05-14T09:31:39.062Z</time>
      </trkpt>
      <trkpt lat="41.45227" lon="19.72763">
        <ele>72.261177</ele>
        <time>2022-05-14T09:31:41.120Z</time>
      </trkpt>
      <trkpt lat="41.45237" lon="19.72759">
        <ele>72.113456</ele>
        <time>2022-05-14T09:31:43.067Z</time>
      </trkpt>
      <trkpt lat="41.45247" lon="19.72755">
        <ele>71.965736</ele>
        <time>2022-05-14T09:31:45.068Z</time>
      </trkpt>
      <trkpt lat="41.45257" lon="19.7275">
        <ele>71.82036</ele>
        <time>2022-05-14T09:31:47.096Z</time>
      </trkpt>
      <trkpt lat="41.45268" lon="19.72746">
        <ele>71.673348</ele>
        <time>2022-05-14T09:31:49.061Z</time>
      </trkpt>
      <trkpt lat="41.45278" lon="19.72742">
        <ele>71.523545</ele>
        <time>2022-05-14T09:31:51.071Z</time>
      </trkpt>
      <trkpt lat="41.45288" lon="19.72738">
        <ele>71.376214</ele>
        <time>2022-05-14T09:31:53.096Z</time>
      </trkpt>
      <trkpt lat="41.45298" lon="19.72734">
        <ele>71.229515</ele>
        <time>2022-05-14T09:31:55.087Z</time>
      </trkpt>
      <trkpt lat="41.45308" lon="19.72729">
        <ele>71.081858</ele>
        <time>2022-05-14T09:31:57.084Z</time>
      </trkpt>
      <trkpt lat="41.45318" lon="19.72725">
        <ele>70.934527</ele>
        <time>2022-05-14T09:31:59.116Z</time>
      </trkpt>
      <trkpt lat="41.45328" lon="19.72721">
        <ele>70.789151</ele>
        <time>2022-05-14T09:32:01.073Z</time>
      </trkpt>
      <trkpt lat="41.45338" lon="19.72717">
        <ele>70.647634</ele>
        <time>2022-05-14T09:32:03.071Z</time>
      </trkpt>
      <trkpt lat="41.45348" lon="19.72713">
        <ele>70.503891</ele>
        <time>2022-05-14T09:32:05.083Z</time>
      </trkpt>
      <trkpt lat="41.45358" lon="19.72709">
        <ele>70.361473</ele>
        <time>2022-05-14T09:32:07.065Z</time>
      </trkpt>
      <trkpt lat="41.45368" lon="19.72705">
        <ele>70.218035</ele>
        <time>2022-05-14T09:32:09.072Z</time>
      </trkpt>
      <trkpt lat="41.45378" lon="19.72701">
        <ele>70.075552</ele>
        <time>2022-05-14T09:32:11.073Z</time>
      </trkpt>
      <trkpt lat="41.45388" lon="19.72697">
        <ele>69.933525</ele>
        <time>2022-05-14T09:32:13.076Z</time>
      </trkpt>
      <trkpt lat="41.45397" lon="19.72693">
        <ele>69.794714</ele>
        <time>2022-05-14T09:32:15.079Z</time>
      </trkpt>
      <trkpt lat="41.45407" lon="19.72689">
        <ele>69.654739</ele>
        <time>2022-05-14T09:32:17.077Z</time>
      </trkpt>
      <trkpt lat="41.45417" lon="19.72686">
        <ele>69.516385</ele>
        <time>2022-05-14T09:32:19.077Z</time>
      </trkpt>
      <trkpt lat="41.45426" lon="19.72682">
        <ele>69.382289</ele>
        <time>2022-05-14T09:32:21.124Z</time>
      </trkpt>
      <trkpt lat="41.45435" lon="19.72678">
        <ele>69.248491</ele>
        <time>2022-05-14T09:32:23.075Z</time>
      </trkpt>
      <trkpt lat="41.45444" lon="19.72674">
        <ele>69.118652</ele>
        <time>2022-05-14T09:32:25.085Z</time>
      </trkpt>
      <trkpt lat="41.45453" lon="19.72671">
        <ele>68.989819</ele>
        <time>2022-05-14T09:32:27.112Z</time>
      </trkpt>
      <trkpt lat="41.45462" lon="19.72667">
        <ele>68.858357</ele>
        <time>2022-05-14T09:32:29.074Z</time>
      </trkpt>
      <trkpt lat="41.45471" lon="19.72663">
        <ele>68.731457</ele>
        <time>2022-05-14T09:32:31.078Z</time>
      </trkpt>
      <trkpt lat="41.45484" lon="19.72658">
        <ele>68.546253</ele>
        <time>2022-05-14T09:32:34.072Z</time>
      </trkpt>
      <trkpt lat="41.45493" lon="19.72654">
        <ele>68.419046</ele>
        <time>2022-05-14T09:32:36.062Z</time>
      </trkpt>
      <trkpt lat="41.45502" lon="19.72651">
        <ele>68.289801</ele>
        <time>2022-05-14T09:32:38.100Z</time>
      </trkpt>
      <trkpt lat="41.45511" lon="19.72647">
        <ele>68.161582</ele>
        <time>2022-05-14T09:32:40.084Z</time>
      </trkpt>
      <trkpt lat="41.4552" lon="19.72644">
        <ele>68.031435</ele>
        <time>2022-05-14T09:32:42.081Z</time>
      </trkpt>
      <trkpt lat="41.45528" lon="19.7264">
        <ele>67.907169</ele>
        <time>2022-05-14T09:32:44.107Z</time>
      </trkpt>
      <trkpt lat="41.45537" lon="19.72636">
        <ele>67.781587</ele>
        <time>2022-05-14T09:32:46.067Z</time>
      </trkpt>
      <trkpt lat="41.45545" lon="19.72633">
        <ele>67.657007</ele>
        <time>2022-05-14T09:32:48.081Z</time>
      </trkpt>
      <trkpt lat="41.45554" lon="19.72629">
        <ele>67.643512</ele>
        <time>2022-05-14T09:32:50.081Z</time>
      </trkpt>
      <trkpt lat="41.45563" lon="19.72625">
        <ele>67.698228</ele>
        <time>2022-05-14T09:32:52.072Z</time>
      </trkpt>
      <trkpt lat="41.45572" lon="19.72621">
        <ele>67.752565</ele>
        <time>2022-05-14T09:32:54.055Z</time>
      </trkpt>
      <trkpt lat="41.45581" lon="19.72618">
        <ele>67.806353</ele>
        <time>2022-05-14T09:32:56.063Z</time>
      </trkpt>
      <trkpt lat="41.45591" lon="19.72614">
        <ele>67.861486</ele>
        <time>2022-05-14T09:32:58.057Z</time>
      </trkpt>
      <trkpt lat="41.456" lon="19.7261">
        <ele>67.915399</ele>
        <time>2022-05-14T09:33:00.073Z</time>
      </trkpt>
      <trkpt lat="41.45609" lon="19.72607">
        <ele>67.968516</ele>
        <time>2022-05-14T09:33:02.073Z</time>
      </trkpt>
      <trkpt lat="41.45617" lon="19.72603">
        <ele>68.020536</ele>
        <time>2022-05-14T09:33:04.084Z</time>
      </trkpt>
      <trkpt lat="41.4563" lon="19.72598">
        <ele>68.096219</ele>
        <time>2022-05-14T09:33:07.062Z</time>
      </trkpt>
      <trkpt lat="41.45643" lon="19.72593">
        <ele>68.172886</ele>
        <time>2022-05-14T09:33:10.069Z</time>
      </trkpt>
      <trkpt lat="41.45652" lon="19.7259">
        <ele>68.225031</ele>
        <time>2022-05-14T09:33:12.095Z</time>
      </trkpt>
      <trkpt lat="41.45664" lon="19.72585">
        <ele>68.301505</ele>
        <time>2022-05-14T09:33:15.083Z</time>
      </trkpt>
      <trkpt lat="41.45673" lon="19.72581">
        <ele>68.354325</ele>
        <time>2022-05-14T09:33:17.063Z</time>
      </trkpt>
      <trkpt lat="41.45683" lon="19.72577">
        <ele>68.41031</ele>
        <time>2022-05-14T09:33:19.068Z</time>
      </trkpt>
      <trkpt lat="41.45692" lon="19.72574">
        <ele>68.463743</ele>
        <time>2022-05-14T09:33:21.072Z</time>
      </trkpt>
      <trkpt lat="41.45701" lon="19.72571">
        <ele>68.517176</ele>
        <time>2022-05-14T09:33:23.057Z</time>
      </trkpt>
      <trkpt lat="41.4571" lon="19.72567">
        <ele>68.571636</ele>
        <time>2022-05-14T09:33:25.071Z</time>
      </trkpt>
      <trkpt lat="41.45719" lon="19.72563">
        <ele>68.625549</ele>
        <time>2022-05-14T09:33:27.065Z</time>
      </trkpt>
      <trkpt lat="41.45728" lon="19.7256">
        <ele>68.657882</ele>
        <time>2022-05-14T09:33:29.077Z</time>
      </trkpt>
      <trkpt lat="41.45737" lon="19.72556">
        <ele>68.681785</ele>
        <time>2022-05-14T09:33:31.086Z</time>
      </trkpt>
      <trkpt lat="41.45747" lon="19.72552">
        <ele>68.705927</ele>
        <time>2022-05-14T09:33:33.070Z</time>
      </trkpt>
      <trkpt lat="41.45755" lon="19.72549">
        <ele>68.728875</ele>
        <time>2022-05-14T09:33:35.107Z</time>
      </trkpt>
      <trkpt lat="41.45764" lon="19.72545">
        <ele>68.752593</ele>
        <time>2022-05-14T09:33:37.095Z</time>
      </trkpt>
      <trkpt lat="41.45774" lon="19.72542">
        <ele>68.776974</ele>
        <time>2022-05-14T09:33:39.069Z</time>
      </trkpt>
      <trkpt lat="41.45783" lon="19.72538">
        <ele>68.801207</ele>
        <time>2022-05-14T09:33:41.070Z</time>
      </trkpt>
      <trkpt lat="41.45793" lon="19.72535">
        <ele>68.825729</ele>
        <time>2022-05-14T09:33:43.056Z</time>
      </trkpt>
      <trkpt lat="41.45803" lon="19.72531">
        <ele>68.851022</ele>
        <time>2022-05-14T09:33:45.083Z</time>
      </trkpt>
      <trkpt lat="41.45812" lon="19.72528">
        <ele>68.875353</ele>
        <time>2022-05-14T09:33:47.068Z</time>
      </trkpt>
      <trkpt lat="41.45821" lon="19.72524">
        <ele>68.899256</ele>
        <time>2022-05-14T09:33:49.107Z</time>
      </trkpt>
      <trkpt lat="41.4583" lon="19.72521">
        <ele>68.922973</ele>
        <time>2022-05-14T09:33:51.097Z</time>
      </trkpt>
      <trkpt lat="41.45839" lon="19.72517">
        <ele>68.946984</ele>
        <time>2022-05-14T09:33:53.062Z</time>
      </trkpt>
      <trkpt lat="41.45848" lon="19.72513">
        <ele>68.970519</ele>
        <time>2022-05-14T09:33:55.066Z</time>
      </trkpt>
      <trkpt lat="41.45857" lon="19.72509">
        <ele>68.993891</ele>
        <time>2022-05-14T09:33:57.075Z</time>
      </trkpt>
      <trkpt lat="41.45866" lon="19.72506">
        <ele>69.016951</ele>
        <time>2022-05-14T09:33:59.070Z</time>
      </trkpt>
      <trkpt lat="41.45875" lon="19.72502">
        <ele>69.040723</ele>
        <time>2022-05-14T09:34:01.044Z</time>
      </trkpt>
      <trkpt lat="41.45884" lon="19.72498">
        <ele>69.064078</ele>
        <time>2022-05-14T09:34:03.077Z</time>
      </trkpt>
      <trkpt lat="41.45893" lon="19.72494">
        <ele>69.087613</ele>
        <time>2022-05-14T09:34:05.074Z</time>
      </trkpt>
      <trkpt lat="41.45902" lon="19.7249">
        <ele>69.090441</ele>
        <time>2022-05-14T09:34:07.068Z</time>
      </trkpt>
      <trkpt lat="41.45911" lon="19.72487">
        <ele>69.092949</ele>
        <time>2022-05-14T09:34:09.072Z</time>
      </trkpt>
      <trkpt lat="41.4592" lon="19.72483">
        <ele>69.09539</ele>
        <time>2022-05-14T09:34:11.078Z</time>
      </trkpt>
      <trkpt lat="41.45929" lon="19.72479">
        <ele>69.097835</ele>
        <time>2022-05-14T09:34:13.105Z</time>
      </trkpt>
      <trkpt lat="41.45938" lon="19.72476">
        <ele>69.100276</ele>
        <time>2022-05-14T09:34:15.101Z</time>
      </trkpt>
      <trkpt lat="41.45947" lon="19.72472">
        <ele>69.102661</ele>
        <time>2022-05-14T09:34:17.067Z</time>
      </trkpt>
      <trkpt lat="41.45956" lon="19.72468">
        <ele>69.105163</ele>
        <time>2022-05-14T09:34:19.068Z</time>
      </trkpt>
      <trkpt lat="41.45965" lon="19.72465">
        <ele>69.107669</ele>
        <time>2022-05-14T09:34:21.074Z</time>
      </trkpt>
      <trkpt lat="41.45974" lon="19.72462">
        <ele>69.110211</ele>
        <time>2022-05-14T09:34:23.062Z</time>
      </trkpt>
      <trkpt lat="41.45983" lon="19.72458">
        <ele>69.112714</ele>
        <time>2022-05-14T09:34:25.051Z</time>
      </trkpt>
      <trkpt lat="41.45993" lon="19.72454">
        <ele>69.11523</ele>
        <time>2022-05-14T09:34:27.057Z</time>
      </trkpt>
      <trkpt lat="41.46002" lon="19.72451">
        <ele>69.117762</ele>
        <time>2022-05-14T09:34:29.080Z</time>
      </trkpt>
      <trkpt lat="41.46011" lon="19.72448">
        <ele>69.120304</ele>
        <time>2022-05-14T09:34:31.072Z</time>
      </trkpt>
      <trkpt lat="41.4602" lon="19.72444">
        <ele>69.122781</ele>
        <time>2022-05-14T09:34:33.081Z</time>
      </trkpt>
      <trkpt lat="41.4603" lon="19.72441">
        <ele>69.125318</ele>
        <time>2022-05-14T09:34:35.055Z</time>
      </trkpt>
      <trkpt lat="41.46039" lon="19.72437">
        <ele>69.127931</ele>
        <time>2022-05-14T09:34:37.092Z</time>
      </trkpt>
      <trkpt lat="41.46049" lon="19.72433">
        <ele>69.13052</ele>
        <time>2022-05-14T09:34:39.083Z</time>
      </trkpt>
      <trkpt lat="41.46058" lon="19.72429">
        <ele>69.133028</ele>
        <time>2022-05-14T09:34:41.095Z</time>
      </trkpt>
      <trkpt lat="41.46067" lon="19.72425">
        <ele>69.129573</ele>
        <time>2022-05-14T09:34:43.060Z</time>
      </trkpt>
      <trkpt lat="41.46075" lon="19.72422">
        <ele>69.074463</ele>
        <time>2022-05-14T09:34:45.066Z</time>
      </trkpt>
      <trkpt lat="41.46085" lon="19.72418">
        <ele>69.016172</ele>
        <time>2022-05-14T09:34:47.114Z</time>
      </trkpt>
      <trkpt lat="41.46094" lon="19.72414">
        <ele>68.958077</ele>
        <time>2022-05-14T09:34:49.076Z</time>
      </trkpt>
      <trkpt lat="41.46104" lon="19.72411">
        <ele>68.89794</ele>
        <time>2022-05-14T09:34:51.055Z</time>
      </trkpt>
      <trkpt lat="41.46114" lon="19.72406">
        <ele>68.83418</ele>
        <time>2022-05-14T09:34:53.087Z</time>
      </trkpt>
      <trkpt lat="41.46124" lon="19.72403">
        <ele>68.771501</ele>
        <time>2022-05-14T09:34:55.070Z</time>
      </trkpt>
      <trkpt lat="41.46134" lon="19.72399">
        <ele>68.709717</ele>
        <time>2022-05-14T09:34:57.065Z</time>
      </trkpt>
      <trkpt lat="41.46144" lon="19.72395">
        <ele>68.648544</ele>
        <time>2022-05-14T09:34:59.070Z</time>
      </trkpt>
      <trkpt lat="41.46154" lon="19.72392">
        <ele>68.588407</ele>
        <time>2022-05-14T09:35:01.076Z</time>
      </trkpt>
      <trkpt lat="41.46163" lon="19.72389">
        <ele>68.529515</ele>
        <time>2022-05-14T09:35:03.058Z</time>
      </trkpt>
      <trkpt lat="41.46172" lon="19.72385">
        <ele>68.472373</ele>
        <time>2022-05-14T09:35:05.076Z</time>
      </trkpt>
      <trkpt lat="41.46182" lon="19.72382">
        <ele>68.415471</ele>
        <time>2022-05-14T09:35:07.082Z</time>
      </trkpt>
      <trkpt lat="41.46191" lon="19.72379">
        <ele>68.360169</ele>
        <time>2022-05-14T09:35:09.093Z</time>
      </trkpt>
      <trkpt lat="41.462" lon="19.72376">
        <ele>68.302803</ele>
        <time>2022-05-14T09:35:11.062Z</time>
      </trkpt>
      <trkpt lat="41.46209" lon="19.72373">
        <ele>68.246126</ele>
        <time>2022-05-14T09:35:13.068Z</time>
      </trkpt>
      <trkpt lat="41.46218" lon="19.72369">
        <ele>68.189224</ele>
        <time>2022-05-14T09:35:15.072Z</time>
      </trkpt>
      <trkpt lat="41.46228" lon="19.72366">
        <ele>68.131389</ele>
        <time>2022-05-14T09:35:17.073Z</time>
      </trkpt>
      <trkpt lat="41.46237" lon="19.72363">
        <ele>68.074023</ele>
        <time>2022-05-14T09:35:19.116Z</time>
      </trkpt>
      <trkpt lat="41.46246" lon="19.7236">
        <ele>68.049177</ele>
        <time>2022-05-14T09:35:21.068Z</time>
      </trkpt>
      <trkpt lat="41.46256" lon="19.72356">
        <ele>68.033546</ele>
        <time>2022-05-14T09:35:23.050Z</time>
      </trkpt>
      <trkpt lat="41.46265" lon="19.72353">
        <ele>68.01776</ele>
        <time>2022-05-14T09:35:25.086Z</time>
      </trkpt>
      <trkpt lat="41.46275" lon="19.7235">
        <ele>68.002248</ele>
        <time>2022-05-14T09:35:27.077Z</time>
      </trkpt>
      <trkpt lat="41.46284" lon="19.72346">
        <ele>67.986772</ele>
        <time>2022-05-14T09:35:29.071Z</time>
      </trkpt>
      <trkpt lat="41.46293" lon="19.72343">
        <ele>67.971637</ele>
        <time>2022-05-14T09:35:31.096Z</time>
      </trkpt>
      <trkpt lat="41.46302" lon="19.7234">
        <ele>67.956284</ele>
        <time>2022-05-14T09:35:33.059Z</time>
      </trkpt>
      <trkpt lat="41.46312" lon="19.72336">
        <ele>67.940621</ele>
        <time>2022-05-14T09:35:35.086Z</time>
      </trkpt>
      <trkpt lat="41.46321" lon="19.72333">
        <ele>67.924925</ele>
        <time>2022-05-14T09:35:37.152Z</time>
      </trkpt>
      <trkpt lat="41.4633" lon="19.72329">
        <ele>67.909538</ele>
        <time>2022-05-14T09:35:39.068Z</time>
      </trkpt>
      <trkpt lat="41.4634" lon="19.72326">
        <ele>67.893907</ele>
        <time>2022-05-14T09:35:41.069Z</time>
      </trkpt>
      <trkpt lat="41.46349" lon="19.72322">
        <ele>67.878708</ele>
        <time>2022-05-14T09:35:43.068Z</time>
      </trkpt>
      <trkpt lat="41.46358" lon="19.72319">
        <ele>67.863635</ele>
        <time>2022-05-14T09:35:45.075Z</time>
      </trkpt>
      <trkpt lat="41.46367" lon="19.72315">
        <ele>67.848401</ele>
        <time>2022-05-14T09:35:47.103Z</time>
      </trkpt>
      <trkpt lat="41.46376" lon="19.72312">
        <ele>67.833483</ele>
        <time>2022-05-14T09:35:49.061Z</time>
      </trkpt>
      <trkpt lat="41.46385" lon="19.72309">
        <ele>67.818194</ele>
        <time>2022-05-14T09:35:51.071Z</time>
      </trkpt>
      <trkpt lat="41.46394" lon="19.72306">
        <ele>67.80349</ele>
        <time>2022-05-14T09:35:53.070Z</time>
      </trkpt>
      <trkpt lat="41.46403" lon="19.72302">
        <ele>67.788387</ele>
        <time>2022-05-14T09:35:55.078Z</time>
      </trkpt>
      <trkpt lat="41.46412" lon="19.72299">
        <ele>67.773407</ele>
        <time>2022-05-14T09:35:57.058Z</time>
      </trkpt>
      <trkpt lat="41.46425" lon="19.72295">
        <ele>67.65307</ele>
        <time>2022-05-14T09:36:00.072Z</time>
      </trkpt>
      <trkpt lat="41.46437" lon="19.7229">
        <ele>67.528382</ele>
        <time>2022-05-14T09:36:03.074Z</time>
      </trkpt>
      <trkpt lat="41.46449" lon="19.72286">
        <ele>67.404267</ele>
        <time>2022-05-14T09:36:06.066Z</time>
      </trkpt>
      <trkpt lat="41.46462" lon="19.72281">
        <ele>67.273596</ele>
        <time>2022-05-14T09:36:09.087Z</time>
      </trkpt>
      <trkpt lat="41.46472" lon="19.72278">
        <ele>67.179756</ele>
        <time>2022-05-14T09:36:11.059Z</time>
      </trkpt>
      <trkpt lat="41.46482" lon="19.72274">
        <ele>67.08176</ele>
        <time>2022-05-14T09:36:13.066Z</time>
      </trkpt>
      <trkpt lat="41.46491" lon="19.72271">
        <ele>66.986803</ele>
        <time>2022-05-14T09:36:15.064Z</time>
      </trkpt>
      <trkpt lat="41.46501" lon="19.72267">
        <ele>66.889013</ele>
        <time>2022-05-14T09:36:17.100Z</time>
      </trkpt>
      <trkpt lat="41.4651" lon="19.72263">
        <ele>66.792748</ele>
        <time>2022-05-14T09:36:19.068Z</time>
      </trkpt>
      <trkpt lat="41.4652" lon="19.7226">
        <ele>66.700023</ele>
        <time>2022-05-14T09:36:21.082Z</time>
      </trkpt>
      <trkpt lat="41.46529" lon="19.72257">
        <ele>66.607077</ele>
        <time>2022-05-14T09:36:23.103Z</time>
      </trkpt>
      <trkpt lat="41.46538" lon="19.72253">
        <ele>66.514925</ele>
        <time>2022-05-14T09:36:25.071Z</time>
      </trkpt>
      <trkpt lat="41.46547" lon="19.7225">
        <ele>66.427435</ele>
        <time>2022-05-14T09:36:27.081Z</time>
      </trkpt>
      <trkpt lat="41.46556" lon="19.72247">
        <ele>66.339207</ele>
        <time>2022-05-14T09:36:29.069Z</time>
      </trkpt>
      <trkpt lat="41.46564" lon="19.72243">
        <ele>66.249658</ele>
        <time>2022-05-14T09:36:31.062Z</time>
      </trkpt>
      <trkpt lat="41.46573" lon="19.7224">
        <ele>66.159373</ele>
        <time>2022-05-14T09:36:33.107Z</time>
      </trkpt>
      <trkpt lat="41.46582" lon="19.72237">
        <ele>66.071883</ele>
        <time>2022-05-14T09:36:35.077Z</time>
      </trkpt>
      <trkpt lat="41.46591" lon="19.72234">
        <ele>66.089863</ele>
        <time>2022-05-14T09:36:37.077Z</time>
      </trkpt>
      <trkpt lat="41.466" lon="19.7223">
        <ele>66.194056</ele>
        <time>2022-05-14T09:36:39.123Z</time>
      </trkpt>
      <trkpt lat="41.46613" lon="19.72225">
        <ele>66.347108</ele>
        <time>2022-05-14T09:36:42.070Z</time>
      </trkpt>
      <trkpt lat="41.46622" lon="19.72222">
        <ele>66.452153</ele>
        <time>2022-05-14T09:36:44.087Z</time>
      </trkpt>
      <trkpt lat="41.46631" lon="19.72219">
        <ele>66.559616</ele>
        <time>2022-05-14T09:36:46.091Z</time>
      </trkpt>
      <trkpt lat="41.4664" lon="19.72216">
        <ele>66.66357</ele>
        <time>2022-05-14T09:36:48.071Z</time>
      </trkpt>
      <trkpt lat="41.46649" lon="19.72213">
        <ele>66.766949</ele>
        <time>2022-05-14T09:36:50.072Z</time>
      </trkpt>
      <trkpt lat="41.46657" lon="19.72211">
        <ele>66.869601</ele>
        <time>2022-05-14T09:36:52.085Z</time>
      </trkpt>
      <trkpt lat="41.4667" lon="19.72205">
        <ele>67.014645</ele>
        <time>2022-05-14T09:36:55.086Z</time>
      </trkpt>
      <trkpt lat="41.46682" lon="19.722">
        <ele>67.160763</ele>
        <time>2022-05-14T09:36:58.060Z</time>
      </trkpt>
      <trkpt lat="41.46694" lon="19.72194">
        <ele>67.305108</ele>
        <time>2022-05-14T09:37:01.069Z</time>
      </trkpt>
      <trkpt lat="41.46707" lon="19.72189">
        <ele>67.456188</ele>
        <time>2022-05-14T09:37:04.088Z</time>
      </trkpt>
      <trkpt lat="41.46715" lon="19.72186">
        <ele>67.559752</ele>
        <time>2022-05-14T09:37:06.065Z</time>
      </trkpt>
      <trkpt lat="41.46728" lon="19.72181">
        <ele>67.704566</ele>
        <time>2022-05-14T09:37:09.073Z</time>
      </trkpt>
      <trkpt lat="41.46737" lon="19.72177">
        <ele>67.81328</ele>
        <time>2022-05-14T09:37:11.072Z</time>
      </trkpt>
      <trkpt lat="41.46746" lon="19.72174">
        <ele>67.91854</ele>
        <time>2022-05-14T09:37:13.099Z</time>
      </trkpt>
      <trkpt lat="41.46755" lon="19.72171">
        <ele>68.024064</ele>
        <time>2022-05-14T09:37:15.055Z</time>
      </trkpt>
      <trkpt lat="41.46764" lon="19.72167">
        <ele>67.999161</ele>
        <time>2022-05-14T09:37:17.058Z</time>
      </trkpt>
      <trkpt lat="41.46773" lon="19.72163">
        <ele>67.8537</ele>
        <time>2022-05-14T09:37:19.126Z</time>
      </trkpt>
      <trkpt lat="41.46782" lon="19.7216">
        <ele>67.708733</ele>
        <time>2022-05-14T09:37:21.061Z</time>
      </trkpt>
      <trkpt lat="41.46792" lon="19.72156">
        <ele>67.562354</ele>
        <time>2022-05-14T09:37:23.061Z</time>
      </trkpt>
      <trkpt lat="41.46801" lon="19.72152">
        <ele>67.416594</ele>
        <time>2022-05-14T09:37:25.065Z</time>
      </trkpt>
      <trkpt lat="41.46811" lon="19.72149">
        <ele>67.267993</ele>
        <time>2022-05-14T09:37:27.072Z</time>
      </trkpt>
      <trkpt lat="41.46821" lon="19.72145">
        <ele>67.114223</ele>
        <time>2022-05-14T09:37:29.073Z</time>
      </trkpt>
      <trkpt lat="41.46831" lon="19.72141">
        <ele>66.962481</ele>
        <time>2022-05-14T09:37:31.094Z</time>
      </trkpt>
      <trkpt lat="41.46841" lon="19.72138">
        <ele>66.813029</ele>
        <time>2022-05-14T09:37:33.067Z</time>
      </trkpt>
      <trkpt lat="41.46851" lon="19.72134">
        <ele>66.652456</ele>
        <time>2022-05-14T09:37:35.065Z</time>
      </trkpt>
      <trkpt lat="41.46862" lon="19.7213">
        <ele>66.491882</ele>
        <time>2022-05-14T09:37:37.066Z</time>
      </trkpt>
      <trkpt lat="41.46872" lon="19.72126">
        <ele>66.336158</ele>
        <time>2022-05-14T09:37:39.070Z</time>
      </trkpt>
      <trkpt lat="41.46882" lon="19.72122">
        <ele>66.18109</ele>
        <time>2022-05-14T09:37:41.107Z</time>
      </trkpt>
      <trkpt lat="41.46893" lon="19.72118">
        <ele>66.019302</ele>
        <time>2022-05-14T09:37:43.074Z</time>
      </trkpt>
      <trkpt lat="41.46903" lon="19.72114">
        <ele>65.86066</ele>
        <time>2022-05-14T09:37:45.070Z</time>
      </trkpt>
      <trkpt lat="41.46913" lon="19.7211">
        <ele>65.703431</ele>
        <time>2022-05-14T09:37:47.064Z</time>
      </trkpt>
      <trkpt lat="41.46923" lon="19.72106">
        <ele>65.550761</ele>
        <time>2022-05-14T09:37:49.064Z</time>
      </trkpt>
      <trkpt lat="41.46933" lon="19.72101">
        <ele>65.405305</ele>
        <time>2022-05-14T09:37:51.069Z</time>
      </trkpt>
      <trkpt lat="41.46943" lon="19.72097">
        <ele>65.333353</ele>
        <time>2022-05-14T09:37:53.079Z</time>
      </trkpt>
      <trkpt lat="41.46953" lon="19.72093">
        <ele>65.260892</ele>
        <time>2022-05-14T09:37:55.055Z</time>
      </trkpt>
      <trkpt lat="41.46964" lon="19.72089">
        <ele>65.18535</ele>
        <time>2022-05-14T09:37:57.053Z</time>
      </trkpt>
      <trkpt lat="41.46975" lon="19.72084">
        <ele>65.107377</ele>
        <time>2022-05-14T09:37:59.063Z</time>
      </trkpt>
      <trkpt lat="41.46985" lon="19.7208">
        <ele>65.03279</ele>
        <time>2022-05-14T09:38:01.071Z</time>
      </trkpt>
      <trkpt lat="41.46995" lon="19.72076">
        <ele>64.959813</ele>
        <time>2022-05-14T09:38:03.104Z</time>
      </trkpt>
      <trkpt lat="41.47005" lon="19.72072">
        <ele>64.887861</ele>
        <time>2022-05-14T09:38:05.053Z</time>
      </trkpt>
      <trkpt lat="41.47016" lon="19.72068">
        <ele>64.814443</ele>
        <time>2022-05-14T09:38:07.067Z</time>
      </trkpt>
      <trkpt lat="41.47026" lon="19.72064">
        <ele>64.741322</ele>
        <time>2022-05-14T09:38:09.108Z</time>
      </trkpt>
      <trkpt lat="41.47036" lon="19.7206">
        <ele>64.667246</ele>
        <time>2022-05-14T09:38:11.118Z</time>
      </trkpt>
      <trkpt lat="41.47046" lon="19.72056">
        <ele>64.593978</ele>
        <time>2022-05-14T09:38:13.069Z</time>
      </trkpt>
      <trkpt lat="41.47056" lon="19.72051">
        <ele>64.52355</ele>
        <time>2022-05-14T09:38:15.055Z</time>
      </trkpt>
      <trkpt lat="41.47064" lon="19.72045">
        <ele>64.456429</ele>
        <time>2022-05-14T09:38:17.055Z</time>
      </trkpt>
      <trkpt lat="41.47074" lon="19.72039">
        <ele>64.386845</ele>
        <time>2022-05-14T09:38:19.079Z</time>
      </trkpt>
      <trkpt lat="41.47082" lon="19.72033">
        <ele>64.318723</ele>
        <time>2022-05-14T09:38:21.066Z</time>
      </trkpt>
      <trkpt lat="41.47091" lon="19.72027">
        <ele>64.252216</ele>
        <time>2022-05-14T09:38:23.073Z</time>
      </trkpt>
      <trkpt lat="41.471" lon="19.72021">
        <ele>64.184622</ele>
        <time>2022-05-14T09:38:25.084Z</time>
      </trkpt>
      <trkpt lat="41.47108" lon="19.72015">
        <ele>64.228207</ele>
        <time>2022-05-14T09:38:27.074Z</time>
      </trkpt>
      <trkpt lat="41.4712" lon="19.72007">
        <ele>64.29948</ele>
        <time>2022-05-14T09:38:30.064Z</time>
      </trkpt>
      <trkpt lat="41.47128" lon="19.72001">
        <ele>64.350281</ele>
        <time>2022-05-14T09:38:32.073Z</time>
      </trkpt>
      <trkpt lat="41.47137" lon="19.71995">
        <ele>64.402393</ele>
        <time>2022-05-14T09:38:34.076Z</time>
      </trkpt>
      <trkpt lat="41.47146" lon="19.71988">
        <ele>64.457039</ele>
        <time>2022-05-14T09:38:36.073Z</time>
      </trkpt>
      <trkpt lat="41.47155" lon="19.71981">
        <ele>64.512673</ele>
        <time>2022-05-14T09:38:38.077Z</time>
      </trkpt>
      <trkpt lat="41.47164" lon="19.71975">
        <ele>64.567129</ele>
        <time>2022-05-14T09:38:40.103Z</time>
      </trkpt>
      <trkpt lat="41.47173" lon="19.71968">
        <ele>64.620082</ele>
        <time>2022-05-14T09:38:42.056Z</time>
      </trkpt>
      <trkpt lat="41.47181" lon="19.71962">
        <ele>64.673142</ele>
        <time>2022-05-14T09:38:44.098Z</time>
      </trkpt>
      <trkpt lat="41.4719" lon="19.71956">
        <ele>64.726752</ele>
        <time>2022-05-14T09:38:46.079Z</time>
      </trkpt>
      <trkpt lat="41.47199" lon="19.7195">
        <ele>64.779993</ele>
        <time>2022-05-14T09:38:48.060Z</time>
      </trkpt>
      <trkpt lat="41.47208" lon="19.71944">
        <ele>64.834363</ele>
        <time>2022-05-14T09:38:50.061Z</time>
      </trkpt>
      <trkpt lat="41.47217" lon="19.71937">
        <ele>64.887884</ele>
        <time>2022-05-14T09:38:52.071Z</time>
      </trkpt>
      <trkpt lat="41.47226" lon="19.71931">
        <ele>64.939355</ele>
        <time>2022-05-14T09:38:54.092Z</time>
      </trkpt>
      <trkpt lat="41.47235" lon="19.71925">
        <ele>64.993436</ele>
        <time>2022-05-14T09:38:56.056Z</time>
      </trkpt>
      <trkpt lat="41.47244" lon="19.71919">
        <ele>65.04662</ele>
        <time>2022-05-14T09:38:58.083Z</time>
      </trkpt>
      <trkpt lat="41.47252" lon="19.71913">
        <ele>65.096112</ele>
        <time>2022-05-14T09:39:00.076Z</time>
      </trkpt>
      <trkpt lat="41.4726" lon="19.71908">
        <ele>65.159506</ele>
        <time>2022-05-14T09:39:02.067Z</time>
      </trkpt>
      <trkpt lat="41.4727" lon="19.71904">
        <ele>65.297666</ele>
        <time>2022-05-14T09:39:04.070Z</time>
      </trkpt>
      <trkpt lat="41.47279" lon="19.71902">
        <ele>65.43433</ele>
        <time>2022-05-14T09:39:06.052Z</time>
      </trkpt>
      <trkpt lat="41.47289" lon="19.71899">
        <ele>65.5747</ele>
        <time>2022-05-14T09:39:08.073Z</time>
      </trkpt>
      <trkpt lat="41.47299" lon="19.71896">
        <ele>65.717817</ele>
        <time>2022-05-14T09:39:10.075Z</time>
      </trkpt>
      <trkpt lat="41.47309" lon="19.71893">
        <ele>65.864159</ele>
        <time>2022-05-14T09:39:12.072Z</time>
      </trkpt>
      <trkpt lat="41.47319" lon="19.7189">
        <ele>66.005669</ele>
        <time>2022-05-14T09:39:14.092Z</time>
      </trkpt>
      <trkpt lat="41.47328" lon="19.71887">
        <ele>66.145689</ele>
        <time>2022-05-14T09:39:16.100Z</time>
      </trkpt>
      <trkpt lat="41.47338" lon="19.71883">
        <ele>66.28655</ele>
        <time>2022-05-14T09:39:18.061Z</time>
      </trkpt>
      <trkpt lat="41.47348" lon="19.7188">
        <ele>66.429035</ele>
        <time>2022-05-14T09:39:20.078Z</time>
      </trkpt>
      <trkpt lat="41.47358" lon="19.71878">
        <ele>66.571076</ele>
        <time>2022-05-14T09:39:22.066Z</time>
      </trkpt>
      <trkpt lat="41.47368" lon="19.71874">
        <ele>66.712195</ele>
        <time>2022-05-14T09:39:24.058Z</time>
      </trkpt>
      <trkpt lat="41.47378" lon="19.71871">
        <ele>66.857837</ele>
        <time>2022-05-14T09:39:26.071Z</time>
      </trkpt>
      <trkpt lat="41.47388" lon="19.71868">
        <ele>67.00385</ele>
        <time>2022-05-14T09:39:28.054Z</time>
      </trkpt>
      <trkpt lat="41.47398" lon="19.71865">
        <ele>67.153849</ele>
        <time>2022-05-14T09:39:30.065Z</time>
      </trkpt>
      <trkpt lat="41.47409" lon="19.71862">
        <ele>67.30421</ele>
        <time>2022-05-14T09:39:32.062Z</time>
      </trkpt>
      <trkpt lat="41.47419" lon="19.71859">
        <ele>67.459944</ele>
        <time>2022-05-14T09:39:34.070Z</time>
      </trkpt>
      <trkpt lat="41.4743" lon="19.71856">
        <ele>67.609511</ele>
        <time>2022-05-14T09:39:36.056Z</time>
      </trkpt>
      <trkpt lat="41.4744" lon="19.71853">
        <ele>67.527734</ele>
        <time>2022-05-14T09:39:38.064Z</time>
      </trkpt>
      <trkpt lat="41.4745" lon="19.71851">
        <ele>67.25303</ele>
        <time>2022-05-14T09:39:40.089Z</time>
      </trkpt>
      <trkpt lat="41.4746" lon="19.71848">
        <ele>66.99376</ele>
        <time>2022-05-14T09:39:42.068Z</time>
      </trkpt>
      <trkpt lat="41.47469" lon="19.71846">
        <ele>66.735585</ele>
        <time>2022-05-14T09:39:44.071Z</time>
      </trkpt>
      <trkpt lat="41.47479" lon="19.71844">
        <ele>66.476074</ele>
        <time>2022-05-14T09:39:46.091Z</time>
      </trkpt>
      <trkpt lat="41.47489" lon="19.71842">
        <ele>66.221453</ele>
        <time>2022-05-14T09:39:48.049Z</time>
      </trkpt>
      <trkpt lat="41.47498" lon="19.71839">
        <ele>65.967706</ele>
        <time>2022-05-14T09:39:50.084Z</time>
      </trkpt>
      <trkpt lat="41.47508" lon="19.71837">
        <ele>65.70918</ele>
        <time>2022-05-14T09:39:52.077Z</time>
      </trkpt>
      <trkpt lat="41.47517" lon="19.71835">
        <ele>65.455806</ele>
        <time>2022-05-14T09:39:54.066Z</time>
      </trkpt>
      <trkpt lat="41.47527" lon="19.71832">
        <ele>65.198706</ele>
        <time>2022-05-14T09:39:56.094Z</time>
      </trkpt>
      <trkpt lat="41.47537" lon="19.71829">
        <ele>64.939815</ele>
        <time>2022-05-14T09:39:58.069Z</time>
      </trkpt>
      <trkpt lat="41.47547" lon="19.71827">
        <ele>64.679392</ele>
        <time>2022-05-14T09:40:00.059Z</time>
      </trkpt>
      <trkpt lat="41.47556" lon="19.71825">
        <ele>64.422691</ele>
        <time>2022-05-14T09:40:02.063Z</time>
      </trkpt>
      <trkpt lat="41.47566" lon="19.71822">
        <ele>64.160461</ele>
        <time>2022-05-14T09:40:04.085Z</time>
      </trkpt>
      <trkpt lat="41.47575" lon="19.71818">
        <ele>63.902196</ele>
        <time>2022-05-14T09:40:06.063Z</time>
      </trkpt>
      <trkpt lat="41.47586" lon="19.71816">
        <ele>63.630777</ele>
        <time>2022-05-14T09:40:08.082Z</time>
      </trkpt>
      <trkpt lat="41.47596" lon="19.71814">
        <ele>63.367096</ele>
        <time>2022-05-14T09:40:10.087Z</time>
      </trkpt>
      <trkpt lat="41.47605" lon="19.71811">
        <ele>63.126191</ele>
        <time>2022-05-14T09:40:12.064Z</time>
      </trkpt>
      <trkpt lat="41.47618" lon="19.71807">
        <ele>63.026306</ele>
        <time>2022-05-14T09:40:15.053Z</time>
      </trkpt>
      <trkpt lat="41.47627" lon="19.71805">
        <ele>63.109029</ele>
        <time>2022-05-14T09:40:17.071Z</time>
      </trkpt>
      <trkpt lat="41.47636" lon="19.71803">
        <ele>63.192878</ele>
        <time>2022-05-14T09:40:19.104Z</time>
      </trkpt>
      <trkpt lat="41.47645" lon="19.71801">
        <ele>63.278389</ele>
        <time>2022-05-14T09:40:21.056Z</time>
      </trkpt>
      <trkpt lat="41.47655" lon="19.71798">
        <ele>63.362437</ele>
        <time>2022-05-14T09:40:23.076Z</time>
      </trkpt>
      <trkpt lat="41.47664" lon="19.71794">
        <ele>63.446108</ele>
        <time>2022-05-14T09:40:25.105Z</time>
      </trkpt>
      <trkpt lat="41.47673" lon="19.71792">
        <ele>63.529853</ele>
        <time>2022-05-14T09:40:27.060Z</time>
      </trkpt>
      <trkpt lat="41.47682" lon="19.71789">
        <ele>63.615077</ele>
        <time>2022-05-14T09:40:29.112Z</time>
      </trkpt>
      <trkpt lat="41.47691" lon="19.71786">
        <ele>63.699125</ele>
        <time>2022-05-14T09:40:31.059Z</time>
      </trkpt>
      <trkpt lat="41.477" lon="19.71784">
        <ele>63.783469</ele>
        <time>2022-05-14T09:40:33.049Z</time>
      </trkpt>
      <trkpt lat="41.4771" lon="19.71781">
        <ele>63.871016</ele>
        <time>2022-05-14T09:40:35.073Z</time>
      </trkpt>
      <trkpt lat="41.47719" lon="19.71778">
        <ele>63.95536</ele>
        <time>2022-05-14T09:40:37.082Z</time>
      </trkpt>
      <trkpt lat="41.47728" lon="19.71777">
        <ele>64.039686</ele>
        <time>2022-05-14T09:40:39.062Z</time>
      </trkpt>
      <trkpt lat="41.47738" lon="19.71774">
        <ele>64.126835</ele>
        <time>2022-05-14T09:40:41.048Z</time>
      </trkpt>
      <trkpt lat="41.47747" lon="19.71771">
        <ele>64.214234</ele>
        <time>2022-05-14T09:40:43.077Z</time>
      </trkpt>
      <trkpt lat="41.47757" lon="19.71767">
        <ele>64.301551</ele>
        <time>2022-05-14T09:40:45.116Z</time>
      </trkpt>
      <trkpt lat="41.47766" lon="19.71765">
        <ele>64.387197</ele>
        <time>2022-05-14T09:40:47.062Z</time>
      </trkpt>
      <trkpt lat="41.47775" lon="19.71763">
        <ele>64.473135</ele>
        <time>2022-05-14T09:40:49.063Z</time>
      </trkpt>
      <trkpt lat="41.47785" lon="19.7176">
        <ele>64.559657</ele>
        <time>2022-05-14T09:40:51.070Z</time>
      </trkpt>
      <trkpt lat="41.47793" lon="19.71756">
        <ele>64.553224</ele>
        <time>2022-05-14T09:40:53.094Z</time>
      </trkpt>
      <trkpt lat="41.47806" lon="19.71752">
        <ele>64.510915</ele>
        <time>2022-05-14T09:40:56.068Z</time>
      </trkpt>
      <trkpt lat="41.47815" lon="19.71751">
        <ele>64.481283</ele>
        <time>2022-05-14T09:40:58.086Z</time>
      </trkpt>
      <trkpt lat="41.47825" lon="19.71749">
        <ele>64.451397</ele>
        <time>2022-05-14T09:41:00.071Z</time>
      </trkpt>
      <trkpt lat="41.47833" lon="19.71746">
        <ele>64.422199</ele>
        <time>2022-05-14T09:41:02.076Z</time>
      </trkpt>
      <trkpt lat="41.47842" lon="19.71743">
        <ele>64.392671</ele>
        <time>2022-05-14T09:41:04.085Z</time>
      </trkpt>
      <trkpt lat="41.47852" lon="19.71741">
        <ele>64.361175</ele>
        <time>2022-05-14T09:41:06.070Z</time>
      </trkpt>
      <trkpt lat="41.47862" lon="19.71738">
        <ele>64.327793</ele>
        <time>2022-05-14T09:41:08.077Z</time>
      </trkpt>
      <trkpt lat="41.47873" lon="19.71736">
        <ele>64.293634</ele>
        <time>2022-05-14T09:41:10.068Z</time>
      </trkpt>
      <trkpt lat="41.47882" lon="19.7174">
        <ele>64.261834</ele>
        <time>2022-05-14T09:41:13.068Z</time>
      </trkpt>
      <trkpt lat="41.47887" lon="19.71755">
        <ele>64.22396</ele>
        <time>2022-05-14T09:41:16.057Z</time>
      </trkpt>
      <trkpt lat="41.47891" lon="19.71766">
        <ele>64.194426</ele>
        <time>2022-05-14T09:41:18.132Z</time>
      </trkpt>
      <trkpt lat="41.47896" lon="19.71782">
        <ele>64.151719</ele>
        <time>2022-05-14T09:41:21.079Z</time>
      </trkpt>
      <trkpt lat="41.47901" lon="19.71799">
        <ele>64.108464</ele>
        <time>2022-05-14T09:41:24.088Z</time>
      </trkpt>
      <trkpt lat="41.47904" lon="19.7181">
        <ele>64.079244</ele>
        <time>2022-05-14T09:41:26.101Z</time>
      </trkpt>
      <trkpt lat="41.47908" lon="19.71821">
        <ele>64.049584</ele>
        <time>2022-05-14T09:41:28.119Z</time>
      </trkpt>
      <trkpt lat="41.47912" lon="19.71833">
        <ele>64.020619</ele>
        <time>2022-05-14T09:41:30.082Z</time>
      </trkpt>
      <trkpt lat="41.47916" lon="19.71844">
        <ele>64.017473</ele>
        <time>2022-05-14T09:41:32.063Z</time>
      </trkpt>
      <trkpt lat="41.4792" lon="19.71855">
        <ele>64.075779</ele>
        <time>2022-05-14T09:41:34.071Z</time>
      </trkpt>
      <trkpt lat="41.47922" lon="19.71867">
        <ele>64.131935</ele>
        <time>2022-05-14T09:41:36.134Z</time>
      </trkpt>
      <trkpt lat="41.47923" lon="19.71884">
        <ele>64.212124</ele>
        <time>2022-05-14T09:41:39.105Z</time>
      </trkpt>
      <trkpt lat="41.47922" lon="19.71902">
        <ele>64.292682</ele>
        <time>2022-05-14T09:41:42.086Z</time>
      </trkpt>
      <trkpt lat="41.47922" lon="19.71914">
        <ele>64.34867</ele>
        <time>2022-05-14T09:41:44.092Z</time>
      </trkpt>
      <trkpt lat="41.47919" lon="19.71931">
        <ele>64.430354</ele>
        <time>2022-05-14T09:41:47.073Z</time>
      </trkpt>
      <trkpt lat="41.47917" lon="19.71948">
        <ele>64.511941</ele>
        <time>2022-05-14T09:41:50.086Z</time>
      </trkpt>
      <trkpt lat="41.47915" lon="19.71965">
        <ele>64.594088</ele>
        <time>2022-05-14T09:41:53.062Z</time>
      </trkpt>
      <trkpt lat="41.47913" lon="19.71982">
        <ele>64.671191</ele>
        <time>2022-05-14T09:41:56.124Z</time>
      </trkpt>
      <trkpt lat="41.47911" lon="19.71998">
        <ele>64.747165</ele>
        <time>2022-05-14T09:41:59.085Z</time>
      </trkpt>
      <trkpt lat="41.4791" lon="19.7201">
        <ele>64.805294</ele>
        <time>2022-05-14T09:42:01.085Z</time>
      </trkpt>
      <trkpt lat="41.47909" lon="19.72022">
        <ele>64.861678</ele>
        <time>2022-05-14T09:42:03.079Z</time>
      </trkpt>
      <trkpt lat="41.47908" lon="19.7204">
        <ele>64.944359</ele>
        <time>2022-05-14T09:42:06.135Z</time>
      </trkpt>
      <trkpt lat="41.4791" lon="19.72052">
        <ele>65.001332</ele>
        <time>2022-05-14T09:42:08.046Z</time>
      </trkpt>
      <trkpt lat="41.4792" lon="19.72061">
        <ele>65.077566</ele>
        <time>2022-05-14T09:42:12.115Z</time>
      </trkpt>
      <trkpt lat="41.47932" lon="19.7207">
        <ele>65.346316</ele>
        <time>2022-05-14T09:42:15.075Z</time>
      </trkpt>
      <trkpt lat="41.4794" lon="19.72078">
        <ele>65.688001</ele>
        <time>2022-05-14T09:42:17.079Z</time>
      </trkpt>
      <trkpt lat="41.47948" lon="19.72084">
        <ele>65.998891</ele>
        <time>2022-05-14T09:42:19.106Z</time>
      </trkpt>
      <trkpt lat="41.47956" lon="19.72091">
        <ele>66.298831</ele>
        <time>2022-05-14T09:42:21.060Z</time>
      </trkpt>
      <trkpt lat="41.47964" lon="19.72097">
        <ele>66.609428</ele>
        <time>2022-05-14T09:42:23.071Z</time>
      </trkpt>
      <trkpt lat="41.47976" lon="19.72106">
        <ele>67.044168</ele>
        <time>2022-05-14T09:42:26.055Z</time>
      </trkpt>
      <trkpt lat="41.47984" lon="19.72112">
        <ele>67.343858</ele>
        <time>2022-05-14T09:42:28.070Z</time>
      </trkpt>
      <trkpt lat="41.47995" lon="19.72121">
        <ele>67.781135</ele>
        <time>2022-05-14T09:42:31.069Z</time>
      </trkpt>
      <trkpt lat="41.48006" lon="19.72128">
        <ele>68.17222</ele>
        <time>2022-05-14T09:42:34.061Z</time>
      </trkpt>
      <trkpt lat="41.48016" lon="19.72136">
        <ele>68.556226</ele>
        <time>2022-05-14T09:42:37.085Z</time>
      </trkpt>
      <trkpt lat="41.48026" lon="19.72144">
        <ele>68.917015</ele>
        <time>2022-05-14T09:42:40.074Z</time>
      </trkpt>
      <trkpt lat="41.48035" lon="19.72152">
        <ele>69.280774</ele>
        <time>2022-05-14T09:42:43.082Z</time>
      </trkpt>
      <trkpt lat="41.48046" lon="19.7216">
        <ele>69.674862</ele>
        <time>2022-05-14T09:42:46.052Z</time>
      </trkpt>
      <trkpt lat="41.48054" lon="19.72166">
        <ele>70.004033</ele>
        <time>2022-05-14T09:42:49.058Z</time>
      </trkpt>
      <trkpt lat="41.48062" lon="19.72174">
        <ele>70.326677</ele>
        <time>2022-05-14T09:42:52.065Z</time>
      </trkpt>
      <trkpt lat="41.48071" lon="19.7218">
        <ele>70.636336</ele>
        <time>2022-05-14T09:42:55.066Z</time>
      </trkpt>
      <trkpt lat="41.48078" lon="19.72186">
        <ele>70.933457</ele>
        <time>2022-05-14T09:42:58.076Z</time>
      </trkpt>
      <trkpt lat="41.48087" lon="19.72193">
        <ele>70.851095</ele>
        <time>2022-05-14T09:43:01.059Z</time>
      </trkpt>
      <trkpt lat="41.48095" lon="19.72199">
        <ele>70.651356</ele>
        <time>2022-05-14T09:43:04.068Z</time>
      </trkpt>
      <trkpt lat="41.48104" lon="19.72206">
        <ele>70.444144</ele>
        <time>2022-05-14T09:43:07.078Z</time>
      </trkpt>
      <trkpt lat="41.48112" lon="19.72212">
        <ele>70.242595</ele>
        <time>2022-05-14T09:43:10.073Z</time>
      </trkpt>
      <trkpt lat="41.48121" lon="19.72218">
        <ele>70.033026</ele>
        <time>2022-05-14T09:43:13.109Z</time>
      </trkpt>
      <trkpt lat="41.48129" lon="19.72225">
        <ele>69.836458</ele>
        <time>2022-05-14T09:43:16.085Z</time>
      </trkpt>
      <trkpt lat="41.48138" lon="19.72231">
        <ele>69.634571</ele>
        <time>2022-05-14T09:43:19.112Z</time>
      </trkpt>
      <trkpt lat="41.48147" lon="19.72238">
        <ele>69.41695</ele>
        <time>2022-05-14T09:43:22.078Z</time>
      </trkpt>
      <trkpt lat="41.48156" lon="19.72244">
        <ele>69.212805</ele>
        <time>2022-05-14T09:43:25.113Z</time>
      </trkpt>
      <trkpt lat="41.48164" lon="19.72252">
        <ele>68.993823</ele>
        <time>2022-05-14T09:43:28.056Z</time>
      </trkpt>
      <trkpt lat="41.48173" lon="19.72259">
        <ele>68.778666</ele>
        <time>2022-05-14T09:43:31.075Z</time>
      </trkpt>
      <trkpt lat="41.48182" lon="19.72265">
        <ele>68.570659</ele>
        <time>2022-05-14T09:43:34.082Z</time>
      </trkpt>
      <trkpt lat="41.48192" lon="19.72272">
        <ele>68.343805</ele>
        <time>2022-05-14T09:43:37.074Z</time>
      </trkpt>
      <trkpt lat="41.48201" lon="19.72279">
        <ele>68.120934</ele>
        <time>2022-05-14T09:43:40.077Z</time>
      </trkpt>
      <trkpt lat="41.4821" lon="19.72285">
        <ele>67.913534</ele>
        <time>2022-05-14T09:43:43.110Z</time>
      </trkpt>
      <trkpt lat="41.48219" lon="19.72291">
        <ele>67.714206</ele>
        <time>2022-05-14T09:43:46.077Z</time>
      </trkpt>
      <trkpt lat="41.48229" lon="19.723">
        <ele>67.462216</ele>
        <time>2022-05-14T09:43:50.069Z</time>
      </trkpt>
      <trkpt lat="41.48239" lon="19.72306">
        <ele>67.262327</ele>
        <time>2022-05-14T09:43:53.094Z</time>
      </trkpt>
      <trkpt lat="41.48248" lon="19.72313">
        <ele>67.191039</ele>
        <time>2022-05-14T09:43:56.067Z</time>
      </trkpt>
      <trkpt lat="41.48258" lon="19.7232">
        <ele>67.117084</ele>
        <time>2022-05-14T09:43:59.097Z</time>
      </trkpt>
      <trkpt lat="41.48267" lon="19.72327">
        <ele>67.048468</ele>
        <time>2022-05-14T09:44:02.107Z</time>
      </trkpt>
      <trkpt lat="41.48276" lon="19.72334">
        <ele>66.980768</ele>
        <time>2022-05-14T09:44:05.078Z</time>
      </trkpt>
      <trkpt lat="41.48285" lon="19.7234">
        <ele>66.912826</ele>
        <time>2022-05-14T09:44:08.069Z</time>
      </trkpt>
      <trkpt lat="41.48294" lon="19.72347">
        <ele>66.846177</ele>
        <time>2022-05-14T09:44:11.082Z</time>
      </trkpt>
      <trkpt lat="41.48303" lon="19.72354">
        <ele>66.782454</ele>
        <time>2022-05-14T09:44:14.064Z</time>
      </trkpt>
      <trkpt lat="41.4831" lon="19.7236">
        <ele>66.722983</ele>
        <time>2022-05-14T09:44:17.071Z</time>
      </trkpt>
      <trkpt lat="41.48321" lon="19.72368">
        <ele>66.642985</ele>
        <time>2022-05-14T09:44:21.063Z</time>
      </trkpt>
      <trkpt lat="41.48331" lon="19.72375">
        <ele>66.569153</ele>
        <time>2022-05-14T09:44:24.076Z</time>
      </trkpt>
      <trkpt lat="41.4834" lon="19.72382">
        <ele>66.499208</ele>
        <time>2022-05-14T09:44:27.112Z</time>
      </trkpt>
      <trkpt lat="41.48349" lon="19.72391">
        <ele>66.426804</ele>
        <time>2022-05-14T09:44:30.083Z</time>
      </trkpt>
      <trkpt lat="41.48359" lon="19.72397">
        <ele>66.356526</ele>
        <time>2022-05-14T09:44:33.095Z</time>
      </trkpt>
      <trkpt lat="41.48368" lon="19.72403">
        <ele>66.2893</ele>
        <time>2022-05-14T09:44:36.071Z</time>
      </trkpt>
      <trkpt lat="41.48377" lon="19.7241">
        <ele>66.219486</ele>
        <time>2022-05-14T09:44:39.055Z</time>
      </trkpt>
      <trkpt lat="41.48387" lon="19.72417">
        <ele>66.144722</ele>
        <time>2022-05-14T09:44:42.093Z</time>
      </trkpt>
      <trkpt lat="41.48397" lon="19.72424">
        <ele>66.142026</ele>
        <time>2022-05-14T09:44:45.136Z</time>
      </trkpt>
      <trkpt lat="41.48406" lon="19.72431">
        <ele>66.2984</ele>
        <time>2022-05-14T09:44:48.058Z</time>
      </trkpt>
      <trkpt lat="41.48417" lon="19.72439">
        <ele>66.476441</ele>
        <time>2022-05-14T09:44:51.074Z</time>
      </trkpt>
      <trkpt lat="41.48427" lon="19.72446">
        <ele>66.653179</ele>
        <time>2022-05-14T09:44:54.075Z</time>
      </trkpt>
      <trkpt lat="41.48437" lon="19.72454">
        <ele>66.82786</ele>
        <time>2022-05-14T09:44:57.058Z</time>
      </trkpt>
      <trkpt lat="41.48448" lon="19.72461">
        <ele>66.996766</ele>
        <time>2022-05-14T09:45:00.077Z</time>
      </trkpt>
      <trkpt lat="41.48457" lon="19.72467">
        <ele>67.151422</ele>
        <time>2022-05-14T09:45:03.086Z</time>
      </trkpt>
      <trkpt lat="41.48467" lon="19.72475">
        <ele>67.314903</ele>
        <time>2022-05-14T09:45:06.094Z</time>
      </trkpt>
      <trkpt lat="41.48477" lon="19.72482">
        <ele>67.486156</ele>
        <time>2022-05-14T09:45:09.053Z</time>
      </trkpt>
      <trkpt lat="41.48487" lon="19.72489">
        <ele>67.659822</ele>
        <time>2022-05-14T09:45:12.073Z</time>
      </trkpt>
      <trkpt lat="41.48497" lon="19.72496">
        <ele>67.82639</ele>
        <time>2022-05-14T09:45:15.084Z</time>
      </trkpt>
      <trkpt lat="41.48508" lon="19.72503">
        <ele>67.997919</ele>
        <time>2022-05-14T09:45:18.114Z</time>
      </trkpt>
      <trkpt lat="41.48518" lon="19.7251">
        <ele>68.174657</ele>
        <time>2022-05-14T09:45:21.069Z</time>
      </trkpt>
      <trkpt lat="41.48528" lon="19.72518">
        <ele>68.348522</ele>
        <time>2022-05-14T09:45:24.120Z</time>
      </trkpt>
      <trkpt lat="41.48539" lon="19.72526">
        <ele>68.529453</ele>
        <time>2022-05-14T09:45:27.086Z</time>
      </trkpt>
      <trkpt lat="41.4855" lon="19.72533">
        <ele>68.714552</ele>
        <time>2022-05-14T09:45:30.064Z</time>
      </trkpt>
      <trkpt lat="41.48561" lon="19.7254">
        <ele>68.613972</ele>
        <time>2022-05-14T09:45:33.069Z</time>
      </trkpt>
      <trkpt lat="41.48571" lon="19.72547">
        <ele>68.439184</ele>
        <time>2022-05-14T09:45:36.076Z</time>
      </trkpt>
      <trkpt lat="41.48582" lon="19.72554">
        <ele>68.256565</ele>
        <time>2022-05-14T09:45:39.072Z</time>
      </trkpt>
      <trkpt lat="41.48594" lon="19.72561">
        <ele>68.058737</ele>
        <time>2022-05-14T09:45:42.085Z</time>
      </trkpt>
      <trkpt lat="41.48602" lon="19.72567">
        <ele>67.919456</ele>
        <time>2022-05-14T09:45:44.063Z</time>
      </trkpt>
      <trkpt lat="41.4861" lon="19.72573">
        <ele>67.774542</ele>
        <time>2022-05-14T09:45:46.079Z</time>
      </trkpt>
      <trkpt lat="41.48622" lon="19.72582">
        <ele>67.576995</ele>
        <time>2022-05-14T09:45:49.079Z</time>
      </trkpt>
      <trkpt lat="41.48629" lon="19.72589">
        <ele>67.440354</ele>
        <time>2022-05-14T09:45:51.072Z</time>
      </trkpt>
      <trkpt lat="41.48641" lon="19.72598">
        <ele>67.234952</ele>
        <time>2022-05-14T09:45:54.061Z</time>
      </trkpt>
      <trkpt lat="41.48652" lon="19.72606">
        <ele>67.041733</ele>
        <time>2022-05-14T09:45:57.068Z</time>
      </trkpt>
      <trkpt lat="41.48663" lon="19.72613">
        <ele>66.847047</ele>
        <time>2022-05-14T09:46:00.077Z</time>
      </trkpt>
      <trkpt lat="41.48675" lon="19.72619">
        <ele>66.654422</ele>
        <time>2022-05-14T09:46:03.084Z</time>
      </trkpt>
      <trkpt lat="41.48687" lon="19.72622">
        <ele>66.468504</ele>
        <time>2022-05-14T09:46:06.075Z</time>
      </trkpt>
      <trkpt lat="41.487" lon="19.72621">
        <ele>66.275294</ele>
        <time>2022-05-14T09:46:09.061Z</time>
      </trkpt>
      <trkpt lat="41.48712" lon="19.72619">
        <ele>66.090373</ele>
        <time>2022-05-14T09:46:12.125Z</time>
      </trkpt>
      <trkpt lat="41.48723" lon="19.72613">
        <ele>65.988839</ele>
        <time>2022-05-14T09:46:15.078Z</time>
      </trkpt>
      <trkpt lat="41.48735" lon="19.72607">
        <ele>65.935761</ele>
        <time>2022-05-14T09:46:18.076Z</time>
      </trkpt>
      <trkpt lat="41.48746" lon="19.72599">
        <ele>65.881857</ele>
        <time>2022-05-14T09:46:21.078Z</time>
      </trkpt>
      <trkpt lat="41.48758" lon="19.72591">
        <ele>65.827665</ele>
        <time>2022-05-14T09:46:24.063Z</time>
      </trkpt>
      <trkpt lat="41.48769" lon="19.72584">
        <ele>65.775033</ele>
        <time>2022-05-14T09:46:27.082Z</time>
      </trkpt>
      <trkpt lat="41.48781" lon="19.72575">
        <ele>65.718386</ele>
        <time>2022-05-14T09:46:30.044Z</time>
      </trkpt>
      <trkpt lat="41.48789" lon="19.7257">
        <ele>65.680274</ele>
        <time>2022-05-14T09:46:32.077Z</time>
      </trkpt>
      <trkpt lat="41.488" lon="19.72561">
        <ele>65.624967</ele>
        <time>2022-05-14T09:46:35.099Z</time>
      </trkpt>
      <trkpt lat="41.48812" lon="19.72553">
        <ele>65.567571</ele>
        <time>2022-05-14T09:46:38.031Z</time>
      </trkpt>
      <trkpt lat="41.4882" lon="19.72546">
        <ele>65.527966</ele>
        <time>2022-05-14T09:46:40.071Z</time>
      </trkpt>
      <trkpt lat="41.48828" lon="19.72541">
        <ele>65.489405</ele>
        <time>2022-05-14T09:46:42.073Z</time>
      </trkpt>
      <trkpt lat="41.48836" lon="19.72535">
        <ele>65.451293</ele>
        <time>2022-05-14T09:46:44.078Z</time>
      </trkpt>
      <trkpt lat="41.48848" lon="19.72527">
        <ele>65.396061</ele>
        <time>2022-05-14T09:46:47.125Z</time>
      </trkpt>
      <trkpt lat="41.48859" lon="19.72518">
        <ele>65.340232</ele>
        <time>2022-05-14T09:46:50.070Z</time>
      </trkpt>
      <trkpt lat="41.48871" lon="19.7251">
        <ele>65.284182</ele>
        <time>2022-05-14T09:46:53.075Z</time>
      </trkpt>
      <trkpt lat="41.48882" lon="19.72502">
        <ele>65.192453</ele>
        <time>2022-05-14T09:46:56.065Z</time>
      </trkpt>
      <trkpt lat="41.48893" lon="19.72494">
        <ele>65.071298</ele>
        <time>2022-05-14T09:46:59.079Z</time>
      </trkpt>
      <trkpt lat="41.48905" lon="19.72485">
        <ele>64.943177</ele>
        <time>2022-05-14T09:47:02.058Z</time>
      </trkpt>
      <trkpt lat="41.48913" lon="19.72479">
        <ele>64.854325</ele>
        <time>2022-05-14T09:47:04.102Z</time>
      </trkpt>
      <trkpt lat="41.48921" lon="19.72473">
        <ele>64.764277</ele>
        <time>2022-05-14T09:47:06.079Z</time>
      </trkpt>
      <trkpt lat="41.48929" lon="19.72467">
        <ele>64.676479</ele>
        <time>2022-05-14T09:47:08.071Z</time>
      </trkpt>
      <trkpt lat="41.48937" lon="19.72462">
        <ele>64.588615</ele>
        <time>2022-05-14T09:47:10.080Z</time>
      </trkpt>
      <trkpt lat="41.48946" lon="19.72456">
        <ele>64.495364</ele>
        <time>2022-05-14T09:47:12.071Z</time>
      </trkpt>
      <trkpt lat="41.48954" lon="19.7245">
        <ele>64.403485</ele>
        <time>2022-05-14T09:47:14.048Z</time>
      </trkpt>
      <trkpt lat="41.48963" lon="19.72444">
        <ele>64.313134</ele>
        <time>2022-05-14T09:47:16.085Z</time>
      </trkpt>
      <trkpt lat="41.48971" lon="19.72439">
        <ele>64.225679</ele>
        <time>2022-05-14T09:47:18.088Z</time>
      </trkpt>
      <trkpt lat="41.48979" lon="19.72433">
        <ele>64.137707</ele>
        <time>2022-05-14T09:47:20.078Z</time>
      </trkpt>
      <trkpt lat="41.48991" lon="19.72425">
        <ele>64.008884</ele>
        <time>2022-05-14T09:47:23.074Z</time>
      </trkpt>
      <trkpt lat="41.49002" lon="19.72417">
        <ele>63.882631</ele>
        <time>2022-05-14T09:47:26.080Z</time>
      </trkpt>
      <trkpt lat="41.49014" lon="19.72408">
        <ele>63.753319</ele>
        <time>2022-05-14T09:47:29.061Z</time>
      </trkpt>
      <trkpt lat="41.49026" lon="19.724">
        <ele>63.625683</ele>
        <time>2022-05-14T09:47:32.065Z</time>
      </trkpt>
      <trkpt lat="41.49036" lon="19.72391">
        <ele>63.511077</ele>
        <time>2022-05-14T09:47:35.078Z</time>
      </trkpt>
      <trkpt lat="41.49046" lon="19.72379">
        <ele>63.427461</ele>
        <time>2022-05-14T09:47:38.085Z</time>
      </trkpt>
      <trkpt lat="41.49054" lon="19.72365">
        <ele>63.344944</ele>
        <time>2022-05-14T09:47:41.115Z</time>
      </trkpt>
      <trkpt lat="41.4906" lon="19.7235">
        <ele>63.262759</ele>
        <time>2022-05-14T09:47:44.083Z</time>
      </trkpt>
      <trkpt lat="41.49065" lon="19.72334">
        <ele>63.177126</ele>
        <time>2022-05-14T09:47:47.104Z</time>
      </trkpt>
      <trkpt lat="41.49068" lon="19.72322">
        <ele>63.117894</ele>
        <time>2022-05-14T09:47:49.084Z</time>
      </trkpt>
      <trkpt lat="41.49071" lon="19.7231">
        <ele>63.058363</ele>
        <time>2022-05-14T09:47:51.107Z</time>
      </trkpt>
      <trkpt lat="41.49074" lon="19.72298">
        <ele>62.996819</ele>
        <time>2022-05-14T09:47:53.065Z</time>
      </trkpt>
      <trkpt lat="41.49078" lon="19.72286">
        <ele>62.935955</ele>
        <time>2022-05-14T09:47:55.082Z</time>
      </trkpt>
      <trkpt lat="41.49083" lon="19.72275">
        <ele>62.873805</ele>
        <time>2022-05-14T09:47:57.126Z</time>
      </trkpt>
      <trkpt lat="41.49088" lon="19.72264">
        <ele>62.80943</ele>
        <time>2022-05-14T09:47:59.076Z</time>
      </trkpt>
      <trkpt lat="41.49095" lon="19.72253">
        <ele>62.742271</ele>
        <time>2022-05-14T09:48:01.056Z</time>
      </trkpt>
      <trkpt lat="41.49104" lon="19.72245">
        <ele>62.676007</ele>
        <time>2022-05-14T09:48:03.082Z</time>
      </trkpt>
      <trkpt lat="41.49114" lon="19.72239">
        <ele>62.607704</ele>
        <time>2022-05-14T09:48:05.083Z</time>
      </trkpt>
      <trkpt lat="41.49124" lon="19.72234">
        <ele>62.537021</ele>
        <time>2022-05-14T09:48:07.100Z</time>
      </trkpt>
      <trkpt lat="41.49134" lon="19.72228">
        <ele>62.46829</ele>
        <time>2022-05-14T09:48:09.079Z</time>
      </trkpt>
      <trkpt lat="41.49144" lon="19.72223">
        <ele>62.401444</ele>
        <time>2022-05-14T09:48:11.082Z</time>
      </trkpt>
      <trkpt lat="41.49154" lon="19.72218">
        <ele>62.309515</ele>
        <time>2022-05-14T09:48:13.062Z</time>
      </trkpt>
      <trkpt lat="41.49163" lon="19.72213">
        <ele>62.209881</ele>
        <time>2022-05-14T09:48:15.076Z</time>
      </trkpt>
      <trkpt lat="41.49172" lon="19.72207">
        <ele>62.111472</ele>
        <time>2022-05-14T09:48:17.059Z</time>
      </trkpt>
      <trkpt lat="41.49182" lon="19.72202">
        <ele>62.01239</ele>
        <time>2022-05-14T09:48:19.071Z</time>
      </trkpt>
      <trkpt lat="41.49191" lon="19.72198">
        <ele>61.913693</ele>
        <time>2022-05-14T09:48:21.085Z</time>
      </trkpt>
      <trkpt lat="41.492" lon="19.72194">
        <ele>61.817236</ele>
        <time>2022-05-14T09:48:23.066Z</time>
      </trkpt>
      <trkpt lat="41.4921" lon="19.72189">
        <ele>61.721101</ele>
        <time>2022-05-14T09:48:25.071Z</time>
      </trkpt>
      <trkpt lat="41.49219" lon="19.72185">
        <ele>61.622637</ele>
        <time>2022-05-14T09:48:27.066Z</time>
      </trkpt>
      <trkpt lat="41.49229" lon="19.72181">
        <ele>61.52271</ele>
        <time>2022-05-14T09:48:29.102Z</time>
      </trkpt>
      <trkpt lat="41.49239" lon="19.72178">
        <ele>61.422348</ele>
        <time>2022-05-14T09:48:31.110Z</time>
      </trkpt>
      <trkpt lat="41.4925" lon="19.72177">
        <ele>61.31927</ele>
        <time>2022-05-14T09:48:33.085Z</time>
      </trkpt>
      <trkpt lat="41.4926" lon="19.72178">
        <ele>61.216242</ele>
        <time>2022-05-14T09:48:35.066Z</time>
      </trkpt>
      <trkpt lat="41.4927" lon="19.72181">
        <ele>61.1165</ele>
        <time>2022-05-14T09:48:37.104Z</time>
      </trkpt>
      <trkpt lat="41.49279" lon="19.72186">
        <ele>61.020043</ele>
        <time>2022-05-14T09:48:39.067Z</time>
      </trkpt>
      <trkpt lat="41.49288" lon="19.72193">
        <ele>60.921471</ele>
        <time>2022-05-14T09:48:41.060Z</time>
      </trkpt>
      <trkpt lat="41.49295" lon="19.72201">
        <ele>60.82638</ele>
        <time>2022-05-14T09:48:43.084Z</time>
      </trkpt>
      <trkpt lat="41.49303" lon="19.72209">
        <ele>60.734057</ele>
        <time>2022-05-14T09:48:45.078Z</time>
      </trkpt>
      <trkpt lat="41.4931" lon="19.72217">
        <ele>60.641412</ele>
        <time>2022-05-14T09:48:47.047Z</time>
      </trkpt>
      <trkpt lat="41.49318" lon="19.72223">
        <ele>60.592277</ele>
        <time>2022-05-14T09:48:49.069Z</time>
      </trkpt>
      <trkpt lat="41.49326" lon="19.72229">
        <ele>60.557219</ele>
        <time>2022-05-14T09:48:51.062Z</time>
      </trkpt>
      <trkpt lat="41.49335" lon="19.72234">
        <ele>60.521745</ele>
        <time>2022-05-14T09:48:53.058Z</time>
      </trkpt>
      <trkpt lat="41.49348" lon="19.72238">
        <ele>60.472046</ele>
        <time>2022-05-14T09:48:56.065Z</time>
      </trkpt>
      <trkpt lat="41.49358" lon="19.7224">
        <ele>60.437193</ele>
        <time>2022-05-14T09:48:58.050Z</time>
      </trkpt>
      <trkpt lat="41.49367" lon="19.7224">
        <ele>60.40073</ele>
        <time>2022-05-14T09:49:00.089Z</time>
      </trkpt>
      <trkpt lat="41.49378" lon="19.72238">
        <ele>60.36178</ele>
        <time>2022-05-14T09:49:02.104Z</time>
      </trkpt>
      <trkpt lat="41.49389" lon="19.72235">
        <ele>60.320679</ele>
        <time>2022-05-14T09:49:04.088Z</time>
      </trkpt>
      <trkpt lat="41.49399" lon="19.72231">
        <ele>60.27898</ele>
        <time>2022-05-14T09:49:06.076Z</time>
      </trkpt>
      <trkpt lat="41.4941" lon="19.72226">
        <ele>60.238039</ele>
        <time>2022-05-14T09:49:08.073Z</time>
      </trkpt>
      <trkpt lat="41.4942" lon="19.72221">
        <ele>60.197316</ele>
        <time>2022-05-14T09:49:10.068Z</time>
      </trkpt>
      <trkpt lat="41.4943" lon="19.72215">
        <ele>60.158448</ele>
        <time>2022-05-14T09:49:12.063Z</time>
      </trkpt>
      <trkpt lat="41.49439" lon="19.7221">
        <ele>60.121042</ele>
        <time>2022-05-14T09:49:14.084Z</time>
      </trkpt>
      <trkpt lat="41.49448" lon="19.72205">
        <ele>60.084213</ele>
        <time>2022-05-14T09:49:16.076Z</time>
      </trkpt>
      <trkpt lat="41.49458" lon="19.722">
        <ele>60.044529</ele>
        <time>2022-05-14T09:49:18.068Z</time>
      </trkpt>
      <trkpt lat="41.49468" lon="19.72195">
        <ele>60.004547</ele>
        <time>2022-05-14T09:49:20.088Z</time>
      </trkpt>
      <trkpt lat="41.49478" lon="19.72191">
        <ele>59.965429</ele>
        <time>2022-05-14T09:49:22.072Z</time>
      </trkpt>
      <trkpt lat="41.49488" lon="19.72187">
        <ele>59.879444</ele>
        <time>2022-05-14T09:49:24.083Z</time>
      </trkpt>
      <trkpt lat="41.49498" lon="19.72185">
        <ele>59.758126</ele>
        <time>2022-05-14T09:49:26.070Z</time>
      </trkpt>
      <trkpt lat="41.49508" lon="19.72183">
        <ele>59.638692</ele>
        <time>2022-05-14T09:49:28.098Z</time>
      </trkpt>
      <trkpt lat="41.49518" lon="19.72181">
        <ele>59.520415</ele>
        <time>2022-05-14T09:49:30.067Z</time>
      </trkpt>
      <trkpt lat="41.49528" lon="19.72179">
        <ele>59.399353</ele>
        <time>2022-05-14T09:49:32.064Z</time>
      </trkpt>
      <trkpt lat="41.49538" lon="19.72177">
        <ele>59.282946</ele>
        <time>2022-05-14T09:49:34.100Z</time>
      </trkpt>
      <trkpt lat="41.49548" lon="19.72175">
        <ele>59.167433</ele>
        <time>2022-05-14T09:49:36.082Z</time>
      </trkpt>
      <trkpt lat="41.49557" lon="19.72172">
        <ele>59.051332</ele>
        <time>2022-05-14T09:49:38.064Z</time>
      </trkpt>
      <trkpt lat="41.49567" lon="19.72167">
        <ele>58.930344</ele>
        <time>2022-05-14T09:49:40.070Z</time>
      </trkpt>
      <trkpt lat="41.49576" lon="19.72162">
        <ele>58.814331</ele>
        <time>2022-05-14T09:49:42.087Z</time>
      </trkpt>
      <trkpt lat="41.49585" lon="19.72157">
        <ele>58.700413</ele>
        <time>2022-05-14T09:49:44.068Z</time>
      </trkpt>
      <trkpt lat="41.49593" lon="19.7215">
        <ele>58.585941</ele>
        <time>2022-05-14T09:49:46.079Z</time>
      </trkpt>
      <trkpt lat="41.49601" lon="19.72142">
        <ele>58.469565</ele>
        <time>2022-05-14T09:49:48.075Z</time>
      </trkpt>
      <trkpt lat="41.49609" lon="19.72135">
        <ele>58.362021</ele>
        <time>2022-05-14T09:49:50.069Z</time>
      </trkpt>
      <trkpt lat="41.49617" lon="19.72128">
        <ele>58.251966</ele>
        <time>2022-05-14T09:49:52.084Z</time>
      </trkpt>
      <trkpt lat="41.49625" lon="19.7212">
        <ele>58.133408</ele>
        <time>2022-05-14T09:49:54.123Z</time>
      </trkpt>
      <trkpt lat="41.49632" lon="19.72113">
        <ele>58.022438</ele>
        <time>2022-05-14T09:49:56.059Z</time>
      </trkpt>
      <trkpt lat="41.49641" lon="19.72106">
        <ele>57.908967</ele>
        <time>2022-05-14T09:49:58.087Z</time>
      </trkpt>
      <trkpt lat="41.49648" lon="19.72099">
        <ele>57.825249</ele>
        <time>2022-05-14T09:50:00.080Z</time>
      </trkpt>
      <trkpt lat="41.4966" lon="19.7209">
        <ele>57.782196</ele>
        <time>2022-05-14T09:50:03.064Z</time>
      </trkpt>
      <trkpt lat="41.49671" lon="19.72082">
        <ele>57.739655</ele>
        <time>2022-05-14T09:50:06.081Z</time>
      </trkpt>
      <trkpt lat="41.49682" lon="19.72075">
        <ele>57.697047</ele>
        <time>2022-05-14T09:50:09.072Z</time>
      </trkpt>
      <trkpt lat="41.49694" lon="19.72067">
        <ele>57.653788</ele>
        <time>2022-05-14T09:50:12.064Z</time>
      </trkpt>
      <trkpt lat="41.49703" lon="19.72062">
        <ele>57.62325</ele>
        <time>2022-05-14T09:50:14.120Z</time>
      </trkpt>
      <trkpt lat="41.49714" lon="19.72053">
        <ele>57.578843</ele>
        <time>2022-05-14T09:50:17.078Z</time>
      </trkpt>
      <trkpt lat="41.49725" lon="19.72043">
        <ele>57.535297</ele>
        <time>2022-05-14T09:50:20.053Z</time>
      </trkpt>
      <trkpt lat="41.49732" lon="19.72036">
        <ele>57.505545</ele>
        <time>2022-05-14T09:50:22.077Z</time>
      </trkpt>
      <trkpt lat="41.49739" lon="19.72028">
        <ele>57.475688</ele>
        <time>2022-05-14T09:50:24.058Z</time>
      </trkpt>
      <trkpt lat="41.49745" lon="19.72019">
        <ele>57.445211</ele>
        <time>2022-05-14T09:50:26.105Z</time>
      </trkpt>
      <trkpt lat="41.49754" lon="19.72007">
        <ele>57.404829</ele>
        <time>2022-05-14T09:50:29.068Z</time>
      </trkpt>
      <trkpt lat="41.49763" lon="19.71995">
        <ele>57.36351</ele>
        <time>2022-05-14T09:50:32.065Z</time>
      </trkpt>
      <trkpt lat="41.49769" lon="19.71987">
        <ele>57.332873</ele>
        <time>2022-05-14T09:50:34.073Z</time>
      </trkpt>
      <trkpt lat="41.49779" lon="19.71974">
        <ele>57.287649</ele>
        <time>2022-05-14T09:50:37.099Z</time>
      </trkpt>
      <trkpt lat="41.49787" lon="19.71965">
        <ele>57.253928</ele>
        <time>2022-05-14T09:50:39.084Z</time>
      </trkpt>
      <trkpt lat="41.49794" lon="19.71956">
        <ele>57.235057</ele>
        <time>2022-05-14T09:50:41.066Z</time>
      </trkpt>
      <trkpt lat="41.49801" lon="19.71948">
        <ele>57.225915</ele>
        <time>2022-05-14T09:50:43.057Z</time>
      </trkpt>
      <trkpt lat="41.49809" lon="19.71941">
        <ele>57.216917</ele>
        <time>2022-05-14T09:50:45.063Z</time>
      </trkpt>
      <trkpt lat="41.49816" lon="19.71933">
        <ele>57.208006</ele>
        <time>2022-05-14T09:50:47.074Z</time>
      </trkpt>
      <trkpt lat="41.49824" lon="19.71926">
        <ele>57.199368</ele>
        <time>2022-05-14T09:50:49.070Z</time>
      </trkpt>
      <trkpt lat="41.49831" lon="19.71919">
        <ele>57.190619</ele>
        <time>2022-05-14T09:50:51.067Z</time>
      </trkpt>
      <trkpt lat="41.49838" lon="19.71912">
        <ele>57.181862</ele>
        <time>2022-05-14T09:50:53.081Z</time>
      </trkpt>
      <trkpt lat="41.49849" lon="19.71901">
        <ele>57.16904</ele>
        <time>2022-05-14T09:50:56.085Z</time>
      </trkpt>
      <trkpt lat="41.4986" lon="19.71892">
        <ele>57.156182</ele>
        <time>2022-05-14T09:50:59.115Z</time>
      </trkpt>
      <trkpt lat="41.49872" lon="19.71882">
        <ele>57.143361</ele>
        <time>2022-05-14T09:51:02.078Z</time>
      </trkpt>
      <trkpt lat="41.49883" lon="19.71874">
        <ele>57.130857</ele>
        <time>2022-05-14T09:51:05.071Z</time>
      </trkpt>
      <trkpt lat="41.49892" lon="19.7187">
        <ele>57.122229</ele>
        <time>2022-05-14T09:51:07.105Z</time>
      </trkpt>
      <trkpt lat="41.49904" lon="19.71864">
        <ele>57.109544</ele>
        <time>2022-05-14T09:51:10.080Z</time>
      </trkpt>
      <trkpt lat="41.49917" lon="19.71861">
        <ele>57.097345</ele>
        <time>2022-05-14T09:51:13.070Z</time>
      </trkpt>
      <trkpt lat="41.49929" lon="19.71858">
        <ele>57.084796</ele>
        <time>2022-05-14T09:51:16.064Z</time>
      </trkpt>
      <trkpt lat="41.49942" lon="19.71855">
        <ele>57.072223</ele>
        <time>2022-05-14T09:51:19.060Z</time>
      </trkpt>
      <trkpt lat="41.49956" lon="19.71852">
        <ele>56.99777</ele>
        <time>2022-05-14T09:51:22.072Z</time>
      </trkpt>
      <trkpt lat="41.49965" lon="19.71851">
        <ele>56.924145</ele>
        <time>2022-05-14T09:51:24.094Z</time>
      </trkpt>
      <trkpt lat="41.49974" lon="19.7185">
        <ele>56.850882</ele>
        <time>2022-05-14T09:51:26.076Z</time>
      </trkpt>
      <trkpt lat="41.49983" lon="19.71849">
        <ele>56.777731</ele>
        <time>2022-05-14T09:51:28.069Z</time>
      </trkpt>
      <trkpt lat="41.49996" lon="19.71847">
        <ele>56.670192</ele>
        <time>2022-05-14T09:51:31.082Z</time>
      </trkpt>
      <trkpt lat="41.50009" lon="19.71846">
        <ele>56.563229</ele>
        <time>2022-05-14T09:51:34.056Z</time>
      </trkpt>
      <trkpt lat="41.50022" lon="19.71848">
        <ele>56.45678</ele>
        <time>2022-05-14T09:51:37.077Z</time>
      </trkpt>
      <trkpt lat="41.50035" lon="19.71853">
        <ele>56.349956</ele>
        <time>2022-05-14T09:51:40.066Z</time>
      </trkpt>
      <trkpt lat="41.50046" lon="19.71861">
        <ele>56.246198</ele>
        <time>2022-05-14T09:51:43.072Z</time>
      </trkpt>
      <trkpt lat="41.50056" lon="19.71872">
        <ele>56.141711</ele>
        <time>2022-05-14T09:51:46.071Z</time>
      </trkpt>
      <trkpt lat="41.50064" lon="19.71885">
        <ele>56.036774</ele>
        <time>2022-05-14T09:51:49.087Z</time>
      </trkpt>
      <trkpt lat="41.5007" lon="19.719">
        <ele>55.935604</ele>
        <time>2022-05-14T09:51:52.086Z</time>
      </trkpt>
      <trkpt lat="41.50076" lon="19.71915">
        <ele>55.832297</ele>
        <time>2022-05-14T09:51:55.092Z</time>
      </trkpt>
      <trkpt lat="41.50081" lon="19.7193">
        <ele>55.732247</ele>
        <time>2022-05-14T09:51:58.089Z</time>
      </trkpt>
      <trkpt lat="41.50087" lon="19.71944">
        <ele>55.630687</ele>
        <time>2022-05-14T09:52:01.057Z</time>
      </trkpt>
      <trkpt lat="41.50096" lon="19.71958">
        <ele>55.668745</ele>
        <time>2022-05-14T09:52:04.055Z</time>
      </trkpt>
      <trkpt lat="41.50106" lon="19.71968">
        <ele>55.739306</ele>
        <time>2022-05-14T09:52:07.074Z</time>
      </trkpt>
      <trkpt lat="41.50117" lon="19.71976">
        <ele>55.809323</ele>
        <time>2022-05-14T09:52:10.118Z</time>
      </trkpt>
      <trkpt lat="41.50129" lon="19.71983">
        <ele>55.883635</ele>
        <time>2022-05-14T09:52:13.082Z</time>
      </trkpt>
      <trkpt lat="41.50142" lon="19.71988">
        <ele>55.958408</ele>
        <time>2022-05-14T09:52:16.073Z</time>
      </trkpt>
      <trkpt lat="41.50151" lon="19.71992">
        <ele>56.007968</ele>
        <time>2022-05-14T09:52:18.064Z</time>
      </trkpt>
      <trkpt lat="41.50163" lon="19.71996">
        <ele>56.078801</ele>
        <time>2022-05-14T09:52:21.111Z</time>
      </trkpt>
      <trkpt lat="41.50176" lon="19.72001">
        <ele>56.149102</ele>
        <time>2022-05-14T09:52:24.078Z</time>
      </trkpt>
      <trkpt lat="41.50187" lon="19.72005">
        <ele>56.214402</ele>
        <time>2022-05-14T09:52:27.060Z</time>
      </trkpt>
      <trkpt lat="41.50198" lon="19.72009">
        <ele>56.275998</ele>
        <time>2022-05-14T09:52:30.067Z</time>
      </trkpt>
      <trkpt lat="41.50209" lon="19.72015">
        <ele>56.339942</ele>
        <time>2022-05-14T09:52:33.069Z</time>
      </trkpt>
      <trkpt lat="41.5022" lon="19.7202">
        <ele>56.405443</ele>
        <time>2022-05-14T09:52:36.069Z</time>
      </trkpt>
      <trkpt lat="41.50231" lon="19.72026">
        <ele>56.47212</ele>
        <time>2022-05-14T09:52:39.065Z</time>
      </trkpt>
      <trkpt lat="41.50242" lon="19.72032">
        <ele>56.53849</ele>
        <time>2022-05-14T09:52:42.064Z</time>
      </trkpt>
      <trkpt lat="41.50254" lon="19.72038">
        <ele>56.613241</ele>
        <time>2022-05-14T09:52:45.061Z</time>
      </trkpt>
      <trkpt lat="41.50264" lon="19.72044">
        <ele>56.755069</ele>
        <time>2022-05-14T09:52:48.100Z</time>
      </trkpt>
      <trkpt lat="41.50275" lon="19.7205">
        <ele>56.893098</ele>
        <time>2022-05-14T09:52:51.105Z</time>
      </trkpt>
      <trkpt lat="41.50284" lon="19.72055">
        <ele>57.024327</ele>
        <time>2022-05-14T09:52:54.059Z</time>
      </trkpt>
      <trkpt lat="41.50294" lon="19.72061">
        <ele>57.157771</ele>
        <time>2022-05-14T09:52:57.062Z</time>
      </trkpt>
      <trkpt lat="41.50304" lon="19.72066">
        <ele>57.288566</ele>
        <time>2022-05-14T09:53:00.082Z</time>
      </trkpt>
      <trkpt lat="41.50314" lon="19.72073">
        <ele>57.4262</ele>
        <time>2022-05-14T09:53:03.086Z</time>
      </trkpt>
      <trkpt lat="41.50324" lon="19.7208">
        <ele>57.564582</ele>
        <time>2022-05-14T09:53:06.113Z</time>
      </trkpt>
      <trkpt lat="41.50334" lon="19.72087">
        <ele>57.70678</ele>
        <time>2022-05-14T09:53:09.079Z</time>
      </trkpt>
      <trkpt lat="41.50344" lon="19.72096">
        <ele>57.85284</ele>
        <time>2022-05-14T09:53:12.108Z</time>
      </trkpt>
      <trkpt lat="41.50354" lon="19.72106">
        <ele>58.007797</ele>
        <time>2022-05-14T09:53:15.069Z</time>
      </trkpt>
      <trkpt lat="41.50363" lon="19.72115">
        <ele>58.147911</ele>
        <time>2022-05-14T09:53:18.106Z</time>
      </trkpt>
      <trkpt lat="41.50371" lon="19.72124">
        <ele>58.28381</ele>
        <time>2022-05-14T09:53:21.083Z</time>
      </trkpt>
      <trkpt lat="41.5038" lon="19.72132">
        <ele>58.422259</ele>
        <time>2022-05-14T09:53:24.130Z</time>
      </trkpt>
      <trkpt lat="41.50389" lon="19.72142">
        <ele>58.564845</ele>
        <time>2022-05-14T09:53:27.068Z</time>
      </trkpt>
      <trkpt lat="41.50398" lon="19.72152">
        <ele>58.709362</ele>
        <time>2022-05-14T09:53:30.102Z</time>
      </trkpt>
      <trkpt lat="41.50407" lon="19.72162">
        <ele>58.850091</ele>
        <time>2022-05-14T09:53:33.083Z</time>
      </trkpt>
      <trkpt lat="41.50417" lon="19.72173">
        <ele>58.974499</ele>
        <time>2022-05-14T09:53:36.103Z</time>
      </trkpt>
      <trkpt lat="41.50426" lon="19.72184">
        <ele>59.097896</ele>
        <time>2022-05-14T09:53:39.080Z</time>
      </trkpt>
      <trkpt lat="41.50434" lon="19.72195">
        <ele>59.212654</ele>
        <time>2022-05-14T09:53:42.116Z</time>
      </trkpt>
      <trkpt lat="41.50442" lon="19.72205">
        <ele>59.326883</ele>
        <time>2022-05-14T09:53:45.071Z</time>
      </trkpt>
      <trkpt lat="41.5045" lon="19.72216">
        <ele>59.443783</ele>
        <time>2022-05-14T09:53:48.034Z</time>
      </trkpt>
      <trkpt lat="41.50458" lon="19.72227">
        <ele>59.559898</ele>
        <time>2022-05-14T09:53:51.066Z</time>
      </trkpt>
      <trkpt lat="41.50466" lon="19.72237">
        <ele>59.667182</ele>
        <time>2022-05-14T09:53:54.077Z</time>
      </trkpt>
      <trkpt lat="41.50474" lon="19.72247">
        <ele>59.775367</ele>
        <time>2022-05-14T09:53:57.066Z</time>
      </trkpt>
      <trkpt lat="41.50481" lon="19.72256">
        <ele>59.877678</ele>
        <time>2022-05-14T09:54:00.096Z</time>
      </trkpt>
      <trkpt lat="41.50488" lon="19.72265">
        <ele>59.977134</ele>
        <time>2022-05-14T09:54:03.049Z</time>
      </trkpt>
      <trkpt lat="41.50496" lon="19.72274">
        <ele>60.079484</ele>
        <time>2022-05-14T09:54:06.050Z</time>
      </trkpt>
      <trkpt lat="41.50503" lon="19.72284">
        <ele>60.186421</ele>
        <time>2022-05-14T09:54:09.050Z</time>
      </trkpt>
      <trkpt lat="41.50511" lon="19.72294">
        <ele>60.293357</ele>
        <time>2022-05-14T09:54:12.051Z</time>
      </trkpt>
      <trkpt lat="41.50519" lon="19.72305">
        <ele>60.406013</ele>
        <time>2022-05-14T09:54:15.084Z</time>
      </trkpt>
      <trkpt lat="41.50526" lon="19.72314">
        <ele>60.510132</ele>
        <time>2022-05-14T09:54:18.088Z</time>
      </trkpt>
      <trkpt lat="41.50535" lon="19.72325">
        <ele>60.631325</ele>
        <time>2022-05-14T09:54:21.064Z</time>
      </trkpt>
      <trkpt lat="41.50544" lon="19.72337">
        <ele>60.611518</ele>
        <time>2022-05-14T09:54:24.068Z</time>
      </trkpt>
      <trkpt lat="41.50553" lon="19.72348">
        <ele>60.573121</ele>
        <time>2022-05-14T09:54:27.071Z</time>
      </trkpt>
      <trkpt lat="41.50561" lon="19.72358">
        <ele>60.538528</ele>
        <time>2022-05-14T09:54:30.106Z</time>
      </trkpt>
      <trkpt lat="41.50569" lon="19.72369">
        <ele>60.502276</ele>
        <time>2022-05-14T09:54:33.072Z</time>
      </trkpt>
      <trkpt lat="41.50577" lon="19.72379">
        <ele>60.468009</ele>
        <time>2022-05-14T09:54:36.076Z</time>
      </trkpt>
      <trkpt lat="41.50585" lon="19.72389">
        <ele>60.434136</ele>
        <time>2022-05-14T09:54:39.083Z</time>
      </trkpt>
      <trkpt lat="41.50593" lon="19.72399">
        <ele>60.399986</ele>
        <time>2022-05-14T09:54:42.085Z</time>
      </trkpt>
      <trkpt lat="41.506" lon="19.72409">
        <ele>60.367325</ele>
        <time>2022-05-14T09:54:45.069Z</time>
      </trkpt>
      <trkpt lat="41.50608" lon="19.72419">
        <ele>60.333912</ele>
        <time>2022-05-14T09:54:48.071Z</time>
      </trkpt>
      <trkpt lat="41.50616" lon="19.72429">
        <ele>60.299762</ele>
        <time>2022-05-14T09:54:51.076Z</time>
      </trkpt>
      <trkpt lat="41.50624" lon="19.72439">
        <ele>60.267102</ele>
        <time>2022-05-14T09:54:54.060Z</time>
      </trkpt>
      <trkpt lat="41.50632" lon="19.72448">
        <ele>60.232911</ele>
        <time>2022-05-14T09:54:57.069Z</time>
      </trkpt>
      <trkpt lat="41.50639" lon="19.72459">
        <ele>60.198818</ele>
        <time>2022-05-14T09:55:00.079Z</time>
      </trkpt>
      <trkpt lat="41.50647" lon="19.72469">
        <ele>60.164929</ele>
        <time>2022-05-14T09:55:03.075Z</time>
      </trkpt>
      <trkpt lat="41.50655" lon="19.72479">
        <ele>60.129344</ele>
        <time>2022-05-14T09:55:06.083Z</time>
      </trkpt>
      <trkpt lat="41.50662" lon="19.72491">
        <ele>60.093506</ele>
        <time>2022-05-14T09:55:09.062Z</time>
      </trkpt>
      <trkpt lat="41.50669" lon="19.72503">
        <ele>60.130907</ele>
        <time>2022-05-14T09:55:12.071Z</time>
      </trkpt>
      <trkpt lat="41.50676" lon="19.72514">
        <ele>60.198055</ele>
        <time>2022-05-14T09:55:15.060Z</time>
      </trkpt>
      <trkpt lat="41.50683" lon="19.72527">
        <ele>60.269238</ele>
        <time>2022-05-14T09:55:18.064Z</time>
      </trkpt>
      <trkpt lat="41.50689" lon="19.72539">
        <ele>60.338206</ele>
        <time>2022-05-14T09:55:21.064Z</time>
      </trkpt>
      <trkpt lat="41.50696" lon="19.72551">
        <ele>60.408655</ele>
        <time>2022-05-14T09:55:24.088Z</time>
      </trkpt>
      <trkpt lat="41.50702" lon="19.72564">
        <ele>60.477692</ele>
        <time>2022-05-14T09:55:27.075Z</time>
      </trkpt>
      <trkpt lat="41.50709" lon="19.72576">
        <ele>60.546655</ele>
        <time>2022-05-14T09:55:30.109Z</time>
      </trkpt>
      <trkpt lat="41.50715" lon="19.72589">
        <ele>60.61669</ele>
        <time>2022-05-14T09:55:33.079Z</time>
      </trkpt>
      <trkpt lat="41.5072" lon="19.72601">
        <ele>60.684592</ele>
        <time>2022-05-14T09:55:36.141Z</time>
      </trkpt>
      <trkpt lat="41.50725" lon="19.72614">
        <ele>60.751106</ele>
        <time>2022-05-14T09:55:39.068Z</time>
      </trkpt>
      <trkpt lat="41.50731" lon="19.72627">
        <ele>60.817592</ele>
        <time>2022-05-14T09:55:42.073Z</time>
      </trkpt>
      <trkpt lat="41.50736" lon="19.7264">
        <ele>60.886025</ele>
        <time>2022-05-14T09:55:45.092Z</time>
      </trkpt>
      <trkpt lat="41.50742" lon="19.72652">
        <ele>60.95456</ele>
        <time>2022-05-14T09:55:48.075Z</time>
      </trkpt>
      <trkpt lat="41.50748" lon="19.72664">
        <ele>61.021</ele>
        <time>2022-05-14T09:55:51.044Z</time>
      </trkpt>
      <trkpt lat="41.50754" lon="19.72675">
        <ele>61.085196</ele>
        <time>2022-05-14T09:55:54.071Z</time>
      </trkpt>
      <trkpt lat="41.50762" lon="19.72686">
        <ele>61.15216</ele>
        <time>2022-05-14T09:55:57.102Z</time>
      </trkpt>
      <trkpt lat="41.50769" lon="19.72696">
        <ele>61.221504</ele>
        <time>2022-05-14T09:56:00.074Z</time>
      </trkpt>
      <trkpt lat="41.50775" lon="19.72706">
        <ele>61.292977</ele>
        <time>2022-05-14T09:56:03.065Z</time>
      </trkpt>
      <trkpt lat="41.50781" lon="19.72715">
        <ele>61.36262</ele>
        <time>2022-05-14T09:56:06.078Z</time>
      </trkpt>
      <trkpt lat="41.50788" lon="19.72724">
        <ele>61.434183</ele>
        <time>2022-05-14T09:56:09.122Z</time>
      </trkpt>
      <trkpt lat="41.50794" lon="19.72734">
        <ele>61.504666</ele>
        <time>2022-05-14T09:56:12.070Z</time>
      </trkpt>
      <trkpt lat="41.508" lon="19.72744">
        <ele>61.575086</ele>
        <time>2022-05-14T09:56:15.080Z</time>
      </trkpt>
      <trkpt lat="41.50806" lon="19.72753">
        <ele>61.64227</ele>
        <time>2022-05-14T09:56:18.104Z</time>
      </trkpt>
      <trkpt lat="41.50814" lon="19.72765">
        <ele>61.730474</ele>
        <time>2022-05-14T09:56:22.088Z</time>
      </trkpt>
      <trkpt lat="41.50819" lon="19.72774">
        <ele>61.798167</ele>
        <time>2022-05-14T09:56:25.093Z</time>
      </trkpt>
      <trkpt lat="41.50825" lon="19.72784">
        <ele>61.866722</ele>
        <time>2022-05-14T09:56:28.082Z</time>
      </trkpt>
      <trkpt lat="41.5083" lon="19.72794">
        <ele>61.938356</ele>
        <time>2022-05-14T09:56:31.091Z</time>
      </trkpt>
      <trkpt lat="41.50836" lon="19.72804">
        <ele>62.007795</ele>
        <time>2022-05-14T09:56:34.061Z</time>
      </trkpt>
      <trkpt lat="41.50842" lon="19.72815">
        <ele>62.079429</ele>
        <time>2022-05-14T09:56:37.107Z</time>
      </trkpt>
      <trkpt lat="41.50847" lon="19.72825">
        <ele>62.150618</ele>
        <time>2022-05-14T09:56:40.077Z</time>
      </trkpt>
      <trkpt lat="41.50854" lon="19.72836">
        <ele>62.233122</ele>
        <time>2022-05-14T09:56:44.064Z</time>
      </trkpt>
      <trkpt lat="41.50861" lon="19.72847">
        <ele>62.313861</ele>
        <time>2022-05-14T09:56:48.064Z</time>
      </trkpt>
      <trkpt lat="41.50868" lon="19.72857">
        <ele>62.391158</ele>
        <time>2022-05-14T09:56:51.135Z</time>
      </trkpt>
      <trkpt lat="41.50876" lon="19.72866">
        <ele>62.46647</ele>
        <time>2022-05-14T09:56:54.072Z</time>
      </trkpt>
      <trkpt lat="41.50885" lon="19.72872">
        <ele>62.509966</ele>
        <time>2022-05-14T09:56:57.079Z</time>
      </trkpt>
      <trkpt lat="41.50895" lon="19.72876">
        <ele>62.197404</ele>
        <time>2022-05-14T09:57:00.067Z</time>
      </trkpt>
      <trkpt lat="41.50907" lon="19.72878">
        <ele>61.864427</ele>
        <time>2022-05-14T09:57:03.082Z</time>
      </trkpt>
      <trkpt lat="41.50919" lon="19.72876">
        <ele>61.504979</ele>
        <time>2022-05-14T09:57:06.082Z</time>
      </trkpt>
      <trkpt lat="41.50928" lon="19.72872">
        <ele>61.244106</ele>
        <time>2022-05-14T09:57:08.080Z</time>
      </trkpt>
      <trkpt lat="41.5094" lon="19.72863">
        <ele>60.849077</ele>
        <time>2022-05-14T09:57:11.050Z</time>
      </trkpt>
      <trkpt lat="41.50948" lon="19.72855">
        <ele>60.560332</ele>
        <time>2022-05-14T09:57:13.075Z</time>
      </trkpt>
      <trkpt lat="41.50958" lon="19.72847">
        <ele>60.224056</ele>
        <time>2022-05-14T09:57:15.088Z</time>
      </trkpt>
      <trkpt lat="41.50969" lon="19.72839">
        <ele>59.865556</ele>
        <time>2022-05-14T09:57:17.098Z</time>
      </trkpt>
      <trkpt lat="41.50981" lon="19.7283">
        <ele>59.477938</ele>
        <time>2022-05-14T09:57:19.080Z</time>
      </trkpt>
      <trkpt lat="41.50994" lon="19.72824">
        <ele>59.086329</ele>
        <time>2022-05-14T09:57:21.068Z</time>
      </trkpt>
      <trkpt lat="41.51008" lon="19.72821">
        <ele>58.679769</ele>
        <time>2022-05-14T09:57:23.089Z</time>
      </trkpt>
      <trkpt lat="41.51023" lon="19.7282">
        <ele>58.244847</ele>
        <time>2022-05-14T09:57:25.076Z</time>
      </trkpt>
      <trkpt lat="41.51038" lon="19.72822">
        <ele>57.810375</ele>
        <time>2022-05-14T09:57:27.076Z</time>
      </trkpt>
      <trkpt lat="41.51053" lon="19.72828">
        <ele>57.371694</ele>
        <time>2022-05-14T09:57:29.071Z</time>
      </trkpt>
      <trkpt lat="41.51066" lon="19.72838">
        <ele>56.667587</ele>
        <time>2022-05-14T09:57:31.074Z</time>
      </trkpt>
      <trkpt lat="41.51079" lon="19.72852">
        <ele>55.914729</ele>
        <time>2022-05-14T09:57:33.057Z</time>
      </trkpt>
      <trkpt lat="41.51093" lon="19.72866">
        <ele>55.143522</ele>
        <time>2022-05-14T09:57:35.083Z</time>
      </trkpt>
      <trkpt lat="41.51105" lon="19.72881">
        <ele>54.377444</ele>
        <time>2022-05-14T09:57:37.072Z</time>
      </trkpt>
      <trkpt lat="41.51119" lon="19.72896">
        <ele>53.590029</ele>
        <time>2022-05-14T09:57:39.079Z</time>
      </trkpt>
      <trkpt lat="41.51126" lon="19.72903">
        <ele>53.181663</ele>
        <time>2022-05-14T09:57:40.064Z</time>
      </trkpt>
      <trkpt lat="41.51142" lon="19.72912">
        <ele>52.417957</ele>
        <time>2022-05-14T09:57:42.076Z</time>
      </trkpt>
      <trkpt lat="41.51158" lon="19.72918">
        <ele>51.668695</ele>
        <time>2022-05-14T09:57:44.075Z</time>
      </trkpt>
      <trkpt lat="41.51173" lon="19.7292">
        <ele>50.946973</ele>
        <time>2022-05-14T09:57:46.066Z</time>
      </trkpt>
      <trkpt lat="41.51189" lon="19.7292">
        <ele>50.232077</ele>
        <time>2022-05-14T09:57:48.058Z</time>
      </trkpt>
      <trkpt lat="41.51205" lon="19.7292">
        <ele>49.512625</ele>
        <time>2022-05-14T09:57:50.077Z</time>
      </trkpt>
      <trkpt lat="41.51221" lon="19.72921">
        <ele>49.08719</ele>
        <time>2022-05-14T09:57:52.072Z</time>
      </trkpt>
      <trkpt lat="41.51235" lon="19.72926">
        <ele>48.828544</ele>
        <time>2022-05-14T09:57:54.103Z</time>
      </trkpt>
      <trkpt lat="41.51248" lon="19.72933">
        <ele>48.580072</ele>
        <time>2022-05-14T09:57:56.057Z</time>
      </trkpt>
      <trkpt lat="41.51262" lon="19.72941">
        <ele>48.327415</ele>
        <time>2022-05-14T09:57:58.078Z</time>
      </trkpt>
      <trkpt lat="41.51276" lon="19.72948">
        <ele>48.070213</ele>
        <time>2022-05-14T09:58:00.073Z</time>
      </trkpt>
      <trkpt lat="41.51289" lon="19.72953">
        <ele>47.823622</ele>
        <time>2022-05-14T09:58:02.065Z</time>
      </trkpt>
      <trkpt lat="41.51303" lon="19.72955">
        <ele>47.588969</ele>
        <time>2022-05-14T09:58:04.070Z</time>
      </trkpt>
      <trkpt lat="41.51316" lon="19.72953">
        <ele>47.36599</ele>
        <time>2022-05-14T09:58:06.075Z</time>
      </trkpt>
      <trkpt lat="41.51328" lon="19.72949">
        <ele>47.144033</ele>
        <time>2022-05-14T09:58:08.096Z</time>
      </trkpt>
      <trkpt lat="41.5134" lon="19.72945">
        <ele>46.931092</ele>
        <time>2022-05-14T09:58:10.077Z</time>
      </trkpt>
      <trkpt lat="41.51351" lon="19.72942">
        <ele>46.734484</ele>
        <time>2022-05-14T09:58:12.067Z</time>
      </trkpt>
      <trkpt lat="41.51362" lon="19.72939">
        <ele>46.552467</ele>
        <time>2022-05-14T09:58:14.078Z</time>
      </trkpt>
      <trkpt lat="41.51371" lon="19.72935">
        <ele>46.388509</ele>
        <time>2022-05-14T09:58:16.067Z</time>
      </trkpt>
      <trkpt lat="41.51383" lon="19.72931">
        <ele>46.1612</ele>
        <time>2022-05-14T09:58:19.103Z</time>
      </trkpt>
      <trkpt lat="41.51394" lon="19.72929">
        <ele>46.198093</ele>
        <time>2022-05-14T09:58:22.072Z</time>
      </trkpt>
      <trkpt lat="41.51404" lon="19.72928">
        <ele>46.252382</ele>
        <time>2022-05-14T09:58:25.090Z</time>
      </trkpt>
      <trkpt lat="41.51414" lon="19.72927">
        <ele>46.309791</ele>
        <time>2022-05-14T09:58:28.064Z</time>
      </trkpt>
      <trkpt lat="41.51425" lon="19.72928">
        <ele>46.370512</ele>
        <time>2022-05-14T09:58:31.068Z</time>
      </trkpt>
      <trkpt lat="41.51436" lon="19.72929">
        <ele>46.431336</ele>
        <time>2022-05-14T09:58:34.081Z</time>
      </trkpt>
      <trkpt lat="41.51447" lon="19.7293">
        <ele>46.49327</ele>
        <time>2022-05-14T09:58:37.108Z</time>
      </trkpt>
      <trkpt lat="41.51459" lon="19.72931">
        <ele>46.556379</ele>
        <time>2022-05-14T09:58:40.075Z</time>
      </trkpt>
      <trkpt lat="41.51471" lon="19.72932">
        <ele>46.622701</ele>
        <time>2022-05-14T09:58:43.080Z</time>
      </trkpt>
      <trkpt lat="41.51483" lon="19.72933">
        <ele>46.692499</ele>
        <time>2022-05-14T09:58:46.101Z</time>
      </trkpt>
      <trkpt lat="41.51496" lon="19.72935">
        <ele>46.762887</ele>
        <time>2022-05-14T09:58:49.065Z</time>
      </trkpt>
      <trkpt lat="41.51508" lon="19.72936">
        <ele>46.831577</ele>
        <time>2022-05-14T09:58:52.091Z</time>
      </trkpt>
      <trkpt lat="41.5152" lon="19.72937">
        <ele>46.897951</ele>
        <time>2022-05-14T09:58:55.064Z</time>
      </trkpt>
      <trkpt lat="41.51532" lon="19.72939">
        <ele>46.963278</ele>
        <time>2022-05-14T09:58:58.098Z</time>
      </trkpt>
      <trkpt lat="41.51543" lon="19.72939">
        <ele>47.02676</ele>
        <time>2022-05-14T09:59:01.074Z</time>
      </trkpt>
      <trkpt lat="41.51554" lon="19.72941">
        <ele>47.088799</ele>
        <time>2022-05-14T09:59:04.076Z</time>
      </trkpt>
      <trkpt lat="41.51565" lon="19.72942">
        <ele>47.187665</ele>
        <time>2022-05-14T09:59:07.061Z</time>
      </trkpt>
      <trkpt lat="41.51576" lon="19.72943">
        <ele>47.53437</ele>
        <time>2022-05-14T09:59:10.067Z</time>
      </trkpt>
      <trkpt lat="41.51587" lon="19.72944">
        <ele>47.881341</ele>
        <time>2022-05-14T09:59:13.063Z</time>
      </trkpt>
      <trkpt lat="41.51597" lon="19.72945">
        <ele>48.225271</ele>
        <time>2022-05-14T09:59:16.059Z</time>
      </trkpt>
      <trkpt lat="41.51608" lon="19.72946">
        <ele>48.5602</ele>
        <time>2022-05-14T09:59:19.061Z</time>
      </trkpt>
      <trkpt lat="41.51619" lon="19.72947">
        <ele>48.910108</ele>
        <time>2022-05-14T09:59:22.069Z</time>
      </trkpt>
      <trkpt lat="41.5163" lon="19.72947">
        <ele>49.256614</ele>
        <time>2022-05-14T09:59:25.073Z</time>
      </trkpt>
      <trkpt lat="41.5164" lon="19.72948">
        <ele>49.596914</ele>
        <time>2022-05-14T09:59:28.088Z</time>
      </trkpt>
      <trkpt lat="41.5165" lon="19.72949">
        <ele>49.918</ele>
        <time>2022-05-14T09:59:31.102Z</time>
      </trkpt>
      <trkpt lat="41.5166" lon="19.72949">
        <ele>50.222954</ele>
        <time>2022-05-14T09:59:34.082Z</time>
      </trkpt>
      <trkpt lat="41.51669" lon="19.7295">
        <ele>50.511895</ele>
        <time>2022-05-14T09:59:37.080Z</time>
      </trkpt>
      <trkpt lat="41.51678" lon="19.72951">
        <ele>50.811263</ele>
        <time>2022-05-14T09:59:40.109Z</time>
      </trkpt>
      <trkpt lat="41.51687" lon="19.72951">
        <ele>51.10955</ele>
        <time>2022-05-14T09:59:43.063Z</time>
      </trkpt>
      <trkpt lat="41.51696" lon="19.72952">
        <ele>51.404789</ele>
        <time>2022-05-14T09:59:46.079Z</time>
      </trkpt>
      <trkpt lat="41.51706" lon="19.72954">
        <ele>51.709628</ele>
        <time>2022-05-14T09:59:49.110Z</time>
      </trkpt>
      <trkpt lat="41.51718" lon="19.72956">
        <ele>52.088826</ele>
        <time>2022-05-14T09:59:53.079Z</time>
      </trkpt>
      <trkpt lat="41.51728" lon="19.72959">
        <ele>52.436764</ele>
        <time>2022-05-14T09:59:57.084Z</time>
      </trkpt>
      <trkpt lat="41.51738" lon="19.72964">
        <ele>52.77893</ele>
        <time>2022-05-14T10:00:01.055Z</time>
      </trkpt>
      <trkpt lat="41.51748" lon="19.72969">
        <ele>53.24389</ele>
        <time>2022-05-14T10:00:05.071Z</time>
      </trkpt>
      <trkpt lat="41.51757" lon="19.72975">
        <ele>53.740861</ele>
        <time>2022-05-14T10:00:09.083Z</time>
      </trkpt>
      <trkpt lat="41.51767" lon="19.72982">
        <ele>54.289013</ele>
        <time>2022-05-14T10:00:14.068Z</time>
      </trkpt>
      <trkpt lat="41.51776" lon="19.72988">
        <ele>54.772319</ele>
        <time>2022-05-14T10:00:18.086Z</time>
      </trkpt>
      <trkpt lat="41.51784" lon="19.72992">
        <ele>55.233229</ele>
        <time>2022-05-14T10:00:22.074Z</time>
      </trkpt>
      <trkpt lat="41.51794" lon="19.72997">
        <ele>55.750721</ele>
        <time>2022-05-14T10:00:27.074Z</time>
      </trkpt>
      <trkpt lat="41.51805" lon="19.73">
        <ele>56.277531</ele>
        <time>2022-05-14T10:00:32.076Z</time>
      </trkpt>
      <trkpt lat="41.51817" lon="19.73003">
        <ele>56.885475</ele>
        <time>2022-05-14T10:00:37.063Z</time>
      </trkpt>
      <trkpt lat="41.5181" lon="19.72992">
        <ele>57.375411</ele>
        <time>2022-05-14T10:25:46.057Z</time>
      </trkpt>
      <trkpt lat="41.51834" lon="19.72998">
        <ele>58.535794</ele>
        <time>2022-05-14T10:32:53.085Z</time>
      </trkpt>
      <trkpt lat="41.51844" lon="19.72997">
        <ele>59.050762</ele>
        <time>2022-05-14T10:32:57.068Z</time>
      </trkpt>
      <trkpt lat="41.51853" lon="19.72994">
        <ele>59.509495</ele>
        <time>2022-05-14T10:33:00.056Z</time>
      </trkpt>
      <trkpt lat="41.51862" lon="19.72991">
        <ele>59.969139</ele>
        <time>2022-05-14T10:33:03.093Z</time>
      </trkpt>
      <trkpt lat="41.5187" lon="19.72986">
        <ele>60.423936</ele>
        <time>2022-05-14T10:33:06.068Z</time>
      </trkpt>
      <trkpt lat="41.51878" lon="19.7298">
        <ele>60.875873</ele>
        <time>2022-05-14T10:33:09.050Z</time>
      </trkpt>
      <trkpt lat="41.51886" lon="19.72974">
        <ele>61.32019</ele>
        <time>2022-05-14T10:33:12.074Z</time>
      </trkpt>
      <trkpt lat="41.51894" lon="19.72967">
        <ele>61.787164</ele>
        <time>2022-05-14T10:33:15.085Z</time>
      </trkpt>
      <trkpt lat="41.51902" lon="19.72959">
        <ele>61.913684</ele>
        <time>2022-05-14T10:33:18.069Z</time>
      </trkpt>
      <trkpt lat="41.51909" lon="19.72951">
        <ele>62.020944</ele>
        <time>2022-05-14T10:33:21.079Z</time>
      </trkpt>
      <trkpt lat="41.51917" lon="19.72942">
        <ele>62.13397</ele>
        <time>2022-05-14T10:33:24.088Z</time>
      </trkpt>
      <trkpt lat="41.51925" lon="19.72933">
        <ele>62.254433</ele>
        <time>2022-05-14T10:33:27.071Z</time>
      </trkpt>
      <trkpt lat="41.51933" lon="19.72922">
        <ele>62.379983</ele>
        <time>2022-05-14T10:33:30.109Z</time>
      </trkpt>
      <trkpt lat="41.5194" lon="19.72911">
        <ele>62.503409</ele>
        <time>2022-05-14T10:33:33.060Z</time>
      </trkpt>
      <trkpt lat="41.51947" lon="19.72899">
        <ele>62.627333</ele>
        <time>2022-05-14T10:33:36.096Z</time>
      </trkpt>
      <trkpt lat="41.51953" lon="19.72887">
        <ele>62.744738</ele>
        <time>2022-05-14T10:33:39.064Z</time>
      </trkpt>
      <trkpt lat="41.51959" lon="19.72876">
        <ele>62.860689</ele>
        <time>2022-05-14T10:33:42.085Z</time>
      </trkpt>
      <trkpt lat="41.51965" lon="19.72865">
        <ele>62.978593</ele>
        <time>2022-05-14T10:33:45.086Z</time>
      </trkpt>
      <trkpt lat="41.51971" lon="19.72853">
        <ele>63.097195</ele>
        <time>2022-05-14T10:33:48.068Z</time>
      </trkpt>
      <trkpt lat="41.51977" lon="19.72842">
        <ele>63.211064</ele>
        <time>2022-05-14T10:33:51.076Z</time>
      </trkpt>
      <trkpt lat="41.51984" lon="19.72831">
        <ele>63.330357</ele>
        <time>2022-05-14T10:33:54.076Z</time>
      </trkpt>
      <trkpt lat="41.5199" lon="19.7282">
        <ele>63.446914</ele>
        <time>2022-05-14T10:33:57.092Z</time>
      </trkpt>
      <trkpt lat="41.51997" lon="19.7281">
        <ele>63.554897</ele>
        <time>2022-05-14T10:34:00.067Z</time>
      </trkpt>
      <trkpt lat="41.52004" lon="19.72801">
        <ele>63.666827</ele>
        <time>2022-05-14T10:34:03.099Z</time>
      </trkpt>
      <trkpt lat="41.52011" lon="19.72792">
        <ele>63.778668</ele>
        <time>2022-05-14T10:34:06.091Z</time>
      </trkpt>
      <trkpt lat="41.52018" lon="19.72783">
        <ele>63.650426</ele>
        <time>2022-05-14T10:34:09.067Z</time>
      </trkpt>
      <trkpt lat="41.52026" lon="19.72775">
        <ele>63.394583</ele>
        <time>2022-05-14T10:34:12.080Z</time>
      </trkpt>
      <trkpt lat="41.52034" lon="19.72767">
        <ele>63.139065</ele>
        <time>2022-05-14T10:34:15.067Z</time>
      </trkpt>
      <trkpt lat="41.52042" lon="19.72759">
        <ele>62.870504</ele>
        <time>2022-05-14T10:34:18.095Z</time>
      </trkpt>
      <trkpt lat="41.5205" lon="19.7275">
        <ele>62.607956</ele>
        <time>2022-05-14T10:34:21.101Z</time>
      </trkpt>
      <trkpt lat="41.52058" lon="19.72742">
        <ele>62.346418</ele>
        <time>2022-05-14T10:34:24.088Z</time>
      </trkpt>
      <trkpt lat="41.52066" lon="19.72734">
        <ele>62.071576</ele>
        <time>2022-05-14T10:34:27.107Z</time>
      </trkpt>
      <trkpt lat="41.52075" lon="19.72725">
        <ele>61.782835</ele>
        <time>2022-05-14T10:34:30.079Z</time>
      </trkpt>
      <trkpt lat="41.52084" lon="19.72717">
        <ele>61.5039</ele>
        <time>2022-05-14T10:34:33.118Z</time>
      </trkpt>
      <trkpt lat="41.52093" lon="19.72709">
        <ele>61.231451</ele>
        <time>2022-05-14T10:34:36.092Z</time>
      </trkpt>
      <trkpt lat="41.52102" lon="19.72701">
        <ele>60.943731</ele>
        <time>2022-05-14T10:34:39.084Z</time>
      </trkpt>
      <trkpt lat="41.52111" lon="19.72691">
        <ele>60.629209</ele>
        <time>2022-05-14T10:34:42.063Z</time>
      </trkpt>
      <trkpt lat="41.5212" lon="19.72681">
        <ele>60.31659</ele>
        <time>2022-05-14T10:34:45.068Z</time>
      </trkpt>
      <trkpt lat="41.5213" lon="19.72672">
        <ele>60.005092</ele>
        <time>2022-05-14T10:34:48.066Z</time>
      </trkpt>
      <trkpt lat="41.52141" lon="19.72663">
        <ele>59.680485</ele>
        <time>2022-05-14T10:34:51.069Z</time>
      </trkpt>
      <trkpt lat="41.52152" lon="19.72653">
        <ele>59.331</ele>
        <time>2022-05-14T10:34:54.082Z</time>
      </trkpt>
      <trkpt lat="41.5216" lon="19.72646">
        <ele>59.062728</ele>
        <time>2022-05-14T10:34:56.093Z</time>
      </trkpt>
      <trkpt lat="41.52168" lon="19.72638">
        <ele>58.791989</ele>
        <time>2022-05-14T10:34:58.075Z</time>
      </trkpt>
      <trkpt lat="41.52177" lon="19.72631">
        <ele>58.50966</ele>
        <time>2022-05-14T10:35:00.075Z</time>
      </trkpt>
      <trkpt lat="41.52186" lon="19.72623">
        <ele>58.218176</ele>
        <time>2022-05-14T10:35:02.076Z</time>
      </trkpt>
      <trkpt lat="41.52195" lon="19.72615">
        <ele>57.917484</ele>
        <time>2022-05-14T10:35:04.064Z</time>
      </trkpt>
      <trkpt lat="41.52204" lon="19.72607">
        <ele>57.609878</ele>
        <time>2022-05-14T10:35:06.083Z</time>
      </trkpt>
      <trkpt lat="41.52213" lon="19.72598">
        <ele>57.297649</ele>
        <time>2022-05-14T10:35:08.075Z</time>
      </trkpt>
      <trkpt lat="41.52222" lon="19.7259">
        <ele>56.995793</ele>
        <time>2022-05-14T10:35:10.063Z</time>
      </trkpt>
      <trkpt lat="41.52231" lon="19.72582">
        <ele>56.6928</ele>
        <time>2022-05-14T10:35:12.108Z</time>
      </trkpt>
      <trkpt lat="41.5224" lon="19.72574">
        <ele>56.413875</ele>
        <time>2022-05-14T10:35:14.070Z</time>
      </trkpt>
      <trkpt lat="41.52248" lon="19.72567">
        <ele>56.143115</ele>
        <time>2022-05-14T10:35:16.093Z</time>
      </trkpt>
      <trkpt lat="41.52257" lon="19.7256">
        <ele>55.857336</ele>
        <time>2022-05-14T10:35:18.101Z</time>
      </trkpt>
      <trkpt lat="41.52265" lon="19.72553">
        <ele>55.591209</ele>
        <time>2022-05-14T10:35:20.077Z</time>
      </trkpt>
      <trkpt lat="41.52273" lon="19.72546">
        <ele>55.330454</ele>
        <time>2022-05-14T10:35:22.079Z</time>
      </trkpt>
      <trkpt lat="41.52284" lon="19.72536">
        <ele>54.958335</ele>
        <time>2022-05-14T10:35:25.110Z</time>
      </trkpt>
      <trkpt lat="41.52291" lon="19.7253">
        <ele>54.706008</ele>
        <time>2022-05-14T10:35:27.067Z</time>
      </trkpt>
      <trkpt lat="41.52302" lon="19.7252">
        <ele>54.335041</ele>
        <time>2022-05-14T10:35:30.066Z</time>
      </trkpt>
      <trkpt lat="41.5231" lon="19.72512">
        <ele>54.141132</ele>
        <time>2022-05-14T10:35:32.065Z</time>
      </trkpt>
      <trkpt lat="41.52317" lon="19.72505">
        <ele>54.161109</ele>
        <time>2022-05-14T10:35:34.091Z</time>
      </trkpt>
      <trkpt lat="41.52328" lon="19.72496">
        <ele>54.189902</ele>
        <time>2022-05-14T10:35:37.072Z</time>
      </trkpt>
      <trkpt lat="41.5234" lon="19.72487">
        <ele>54.218782</ele>
        <time>2022-05-14T10:35:40.080Z</time>
      </trkpt>
      <trkpt lat="41.52351" lon="19.72478">
        <ele>54.246718</ele>
        <time>2022-05-14T10:35:43.072Z</time>
      </trkpt>
      <trkpt lat="41.52359" lon="19.72472">
        <ele>54.267875</ele>
        <time>2022-05-14T10:35:45.063Z</time>
      </trkpt>
      <trkpt lat="41.52367" lon="19.72466">
        <ele>54.28788</ele>
        <time>2022-05-14T10:35:47.106Z</time>
      </trkpt>
      <trkpt lat="41.52375" lon="19.7246">
        <ele>54.308512</ele>
        <time>2022-05-14T10:35:49.080Z</time>
      </trkpt>
      <trkpt lat="41.52384" lon="19.72454">
        <ele>54.329426</ele>
        <time>2022-05-14T10:35:51.067Z</time>
      </trkpt>
      <trkpt lat="41.52392" lon="19.72447">
        <ele>54.35054</ele>
        <time>2022-05-14T10:35:53.076Z</time>
      </trkpt>
      <trkpt lat="41.52401" lon="19.72441">
        <ele>54.372234</ele>
        <time>2022-05-14T10:35:55.084Z</time>
      </trkpt>
      <trkpt lat="41.5241" lon="19.72436">
        <ele>54.393731</ele>
        <time>2022-05-14T10:35:57.098Z</time>
      </trkpt>
      <trkpt lat="41.52419" lon="19.7243">
        <ele>54.415889</ele>
        <time>2022-05-14T10:35:59.065Z</time>
      </trkpt>
      <trkpt lat="41.52428" lon="19.72424">
        <ele>54.436879</ele>
        <time>2022-05-14T10:36:01.072Z</time>
      </trkpt>
      <trkpt lat="41.52438" lon="19.72415">
        <ele>54.463574</ele>
        <time>2022-05-14T10:36:04.081Z</time>
      </trkpt>
      <trkpt lat="41.52449" lon="19.72403">
        <ele>54.493629</ele>
        <time>2022-05-14T10:36:07.088Z</time>
      </trkpt>
      <trkpt lat="41.52456" lon="19.72395">
        <ele>54.513804</ele>
        <time>2022-05-14T10:36:09.075Z</time>
      </trkpt>
      <trkpt lat="41.52463" lon="19.72386">
        <ele>54.521494</ele>
        <time>2022-05-14T10:36:11.068Z</time>
      </trkpt>
      <trkpt lat="41.52471" lon="19.72377">
        <ele>54.493735</ele>
        <time>2022-05-14T10:36:13.073Z</time>
      </trkpt>
      <trkpt lat="41.52479" lon="19.72367">
        <ele>54.466585</ele>
        <time>2022-05-14T10:36:15.078Z</time>
      </trkpt>
      <trkpt lat="41.52487" lon="19.72358">
        <ele>54.439036</ele>
        <time>2022-05-14T10:36:17.054Z</time>
      </trkpt>
      <trkpt lat="41.52495" lon="19.72349">
        <ele>54.411488</ele>
        <time>2022-05-14T10:36:19.064Z</time>
      </trkpt>
      <trkpt lat="41.52502" lon="19.72341">
        <ele>54.384699</ele>
        <time>2022-05-14T10:36:21.064Z</time>
      </trkpt>
      <trkpt lat="41.52511" lon="19.72333">
        <ele>54.357437</ele>
        <time>2022-05-14T10:36:23.081Z</time>
      </trkpt>
      <trkpt lat="41.5252" lon="19.72325">
        <ele>54.329541</ele>
        <time>2022-05-14T10:36:25.111Z</time>
      </trkpt>
      <trkpt lat="41.52529" lon="19.72319">
        <ele>54.302829</ele>
        <time>2022-05-14T10:36:27.091Z</time>
      </trkpt>
      <trkpt lat="41.52538" lon="19.72314">
        <ele>54.277628</ele>
        <time>2022-05-14T10:36:29.104Z</time>
      </trkpt>
      <trkpt lat="41.52547" lon="19.7231">
        <ele>54.252207</ele>
        <time>2022-05-14T10:36:31.060Z</time>
      </trkpt>
      <trkpt lat="41.52555" lon="19.72304">
        <ele>54.227435</ele>
        <time>2022-05-14T10:36:33.077Z</time>
      </trkpt>
      <trkpt lat="41.52564" lon="19.72299">
        <ele>54.201461</ele>
        <time>2022-05-14T10:36:35.079Z</time>
      </trkpt>
      <trkpt lat="41.52573" lon="19.72294">
        <ele>54.175487</ele>
        <time>2022-05-14T10:36:37.085Z</time>
      </trkpt>
      <trkpt lat="41.52582" lon="19.72288">
        <ele>54.14959</ele>
        <time>2022-05-14T10:36:39.072Z</time>
      </trkpt>
      <trkpt lat="41.52591" lon="19.72284">
        <ele>54.124143</ele>
        <time>2022-05-14T10:36:41.084Z</time>
      </trkpt>
      <trkpt lat="41.526" lon="19.72279">
        <ele>54.099714</ele>
        <time>2022-05-14T10:36:43.106Z</time>
      </trkpt>
      <trkpt lat="41.52609" lon="19.72276">
        <ele>54.074536</ele>
        <time>2022-05-14T10:36:45.083Z</time>
      </trkpt>
      <trkpt lat="41.52618" lon="19.72272">
        <ele>54.070612</ele>
        <time>2022-05-14T10:36:47.099Z</time>
      </trkpt>
      <trkpt lat="41.52628" lon="19.72269">
        <ele>54.133835</ele>
        <time>2022-05-14T10:36:49.111Z</time>
      </trkpt>
      <trkpt lat="41.52637" lon="19.72266">
        <ele>54.19513</ele>
        <time>2022-05-14T10:36:51.061Z</time>
      </trkpt>
      <trkpt lat="41.52646" lon="19.72263">
        <ele>54.260282</ele>
        <time>2022-05-14T10:36:53.073Z</time>
      </trkpt>
      <trkpt lat="41.52655" lon="19.7226">
        <ele>54.322341</ele>
        <time>2022-05-14T10:36:55.082Z</time>
      </trkpt>
      <trkpt lat="41.52665" lon="19.72257">
        <ele>54.386325</ele>
        <time>2022-05-14T10:36:57.079Z</time>
      </trkpt>
      <trkpt lat="41.52674" lon="19.72254">
        <ele>54.447745</ele>
        <time>2022-05-14T10:36:59.079Z</time>
      </trkpt>
      <trkpt lat="41.52687" lon="19.72249">
        <ele>54.535975</ele>
        <time>2022-05-14T10:37:02.066Z</time>
      </trkpt>
      <trkpt lat="41.52699" lon="19.72245">
        <ele>54.619291</ele>
        <time>2022-05-14T10:37:05.064Z</time>
      </trkpt>
      <trkpt lat="41.52711" lon="19.72241">
        <ele>54.702563</ele>
        <time>2022-05-14T10:37:08.100Z</time>
      </trkpt>
      <trkpt lat="41.52722" lon="19.72236">
        <ele>54.779507</ele>
        <time>2022-05-14T10:37:11.079Z</time>
      </trkpt>
      <trkpt lat="41.52733" lon="19.72232">
        <ele>54.853705</ele>
        <time>2022-05-14T10:37:14.085Z</time>
      </trkpt>
      <trkpt lat="41.52744" lon="19.72229">
        <ele>54.928959</ele>
        <time>2022-05-14T10:37:17.094Z</time>
      </trkpt>
      <trkpt lat="41.52755" lon="19.72225">
        <ele>55.005291</ele>
        <time>2022-05-14T10:37:20.060Z</time>
      </trkpt>
      <trkpt lat="41.52766" lon="19.72221">
        <ele>55.081946</ele>
        <time>2022-05-14T10:37:23.100Z</time>
      </trkpt>
      <trkpt lat="41.52778" lon="19.72217">
        <ele>55.158948</ele>
        <time>2022-05-14T10:37:26.108Z</time>
      </trkpt>
      <trkpt lat="41.5279" lon="19.72212">
        <ele>55.242854</ele>
        <time>2022-05-14T10:37:29.062Z</time>
      </trkpt>
      <trkpt lat="41.52802" lon="19.72208">
        <ele>55.385977</ele>
        <time>2022-05-14T10:37:32.069Z</time>
      </trkpt>
      <trkpt lat="41.52814" lon="19.72204">
        <ele>55.519448</ele>
        <time>2022-05-14T10:37:35.092Z</time>
      </trkpt>
      <trkpt lat="41.52825" lon="19.72201">
        <ele>55.649532</ele>
        <time>2022-05-14T10:37:38.081Z</time>
      </trkpt>
      <trkpt lat="41.52836" lon="19.72197">
        <ele>55.776294</ele>
        <time>2022-05-14T10:37:41.118Z</time>
      </trkpt>
      <trkpt lat="41.52846" lon="19.72194">
        <ele>55.895738</ele>
        <time>2022-05-14T10:37:44.069Z</time>
      </trkpt>
      <trkpt lat="41.52856" lon="19.7219">
        <ele>56.013204</ele>
        <time>2022-05-14T10:37:47.096Z</time>
      </trkpt>
      <trkpt lat="41.52867" lon="19.72187">
        <ele>56.138149</ele>
        <time>2022-05-14T10:37:50.070Z</time>
      </trkpt>
      <trkpt lat="41.52877" lon="19.72184">
        <ele>56.257716</ele>
        <time>2022-05-14T10:37:53.071Z</time>
      </trkpt>
      <trkpt lat="41.52887" lon="19.7218">
        <ele>56.376277</ele>
        <time>2022-05-14T10:37:56.066Z</time>
      </trkpt>
      <trkpt lat="41.52898" lon="19.72177">
        <ele>56.500539</ele>
        <time>2022-05-14T10:37:59.079Z</time>
      </trkpt>
      <trkpt lat="41.52909" lon="19.72172">
        <ele>56.63319</ele>
        <time>2022-05-14T10:38:02.082Z</time>
      </trkpt>
      <trkpt lat="41.52921" lon="19.72167">
        <ele>56.780598</ele>
        <time>2022-05-14T10:38:05.073Z</time>
      </trkpt>
      <trkpt lat="41.52933" lon="19.72159">
        <ele>56.933951</ele>
        <time>2022-05-14T10:38:08.099Z</time>
      </trkpt>
      <trkpt lat="41.52941" lon="19.72153">
        <ele>57.036038</ele>
        <time>2022-05-14T10:38:10.083Z</time>
      </trkpt>
      <trkpt lat="41.52953" lon="19.72144">
        <ele>57.188615</ele>
        <time>2022-05-14T10:38:13.080Z</time>
      </trkpt>
      <trkpt lat="41.52961" lon="19.72138">
        <ele>57.305363</ele>
        <time>2022-05-14T10:38:15.083Z</time>
      </trkpt>
      <trkpt lat="41.52969" lon="19.7213">
        <ele>57.495222</ele>
        <time>2022-05-14T10:38:17.083Z</time>
      </trkpt>
      <trkpt lat="41.52977" lon="19.72122">
        <ele>57.685173</ele>
        <time>2022-05-14T10:38:19.078Z</time>
      </trkpt>
      <trkpt lat="41.52985" lon="19.72115">
        <ele>57.867199</ele>
        <time>2022-05-14T10:38:21.071Z</time>
      </trkpt>
      <trkpt lat="41.52995" lon="19.72105">
        <ele>58.114051</ele>
        <time>2022-05-14T10:38:24.086Z</time>
      </trkpt>
      <trkpt lat="41.53005" lon="19.72095">
        <ele>58.352496</ele>
        <time>2022-05-14T10:38:27.069Z</time>
      </trkpt>
      <trkpt lat="41.53014" lon="19.72084">
        <ele>58.583202</ele>
        <time>2022-05-14T10:38:30.072Z</time>
      </trkpt>
      <trkpt lat="41.53022" lon="19.72073">
        <ele>58.814911</ele>
        <time>2022-05-14T10:38:33.092Z</time>
      </trkpt>
      <trkpt lat="41.5303" lon="19.72061">
        <ele>59.039394</ele>
        <time>2022-05-14T10:38:36.082Z</time>
      </trkpt>
      <trkpt lat="41.53037" lon="19.72049">
        <ele>59.25875</ele>
        <time>2022-05-14T10:38:39.086Z</time>
      </trkpt>
      <trkpt lat="41.53044" lon="19.72038">
        <ele>59.472608</ele>
        <time>2022-05-14T10:38:42.071Z</time>
      </trkpt>
      <trkpt lat="41.5305" lon="19.72025">
        <ele>59.691001</ele>
        <time>2022-05-14T10:38:45.061Z</time>
      </trkpt>
      <trkpt lat="41.53056" lon="19.72012">
        <ele>59.912973</ele>
        <time>2022-05-14T10:38:48.086Z</time>
      </trkpt>
      <trkpt lat="41.53063" lon="19.71998">
        <ele>60.149722</ele>
        <time>2022-05-14T10:38:51.091Z</time>
      </trkpt>
      <trkpt lat="41.53071" lon="19.71984">
        <ele>60.400339</ele>
        <time>2022-05-14T10:38:54.073Z</time>
      </trkpt>
      <trkpt lat="41.53078" lon="19.7197">
        <ele>60.645687</ele>
        <time>2022-05-14T10:38:57.071Z</time>
      </trkpt>
      <trkpt lat="41.53083" lon="19.7196">
        <ele>60.773209</ele>
        <time>2022-05-14T10:38:59.101Z</time>
      </trkpt>
      <trkpt lat="41.53089" lon="19.7195">
        <ele>60.833323</ele>
        <time>2022-05-14T10:39:01.065Z</time>
      </trkpt>
      <trkpt lat="41.53094" lon="19.7194">
        <ele>60.892284</ele>
        <time>2022-05-14T10:39:03.066Z</time>
      </trkpt>
      <trkpt lat="41.53099" lon="19.71929">
        <ele>60.951918</ele>
        <time>2022-05-14T10:39:05.056Z</time>
      </trkpt>
      <trkpt lat="41.53104" lon="19.71918">
        <ele>61.014933</ele>
        <time>2022-05-14T10:39:07.053Z</time>
      </trkpt>
      <trkpt lat="41.53109" lon="19.71908">
        <ele>61.074617</ele>
        <time>2022-05-14T10:39:09.087Z</time>
      </trkpt>
      <trkpt lat="41.53115" lon="19.71897">
        <ele>61.137353</ele>
        <time>2022-05-14T10:39:11.068Z</time>
      </trkpt>
      <trkpt lat="41.53121" lon="19.71887">
        <ele>61.200089</ele>
        <time>2022-05-14T10:39:13.078Z</time>
      </trkpt>
      <trkpt lat="41.53126" lon="19.71876">
        <ele>61.261007</ele>
        <time>2022-05-14T10:39:15.066Z</time>
      </trkpt>
      <trkpt lat="41.53134" lon="19.71863">
        <ele>61.344924</ele>
        <time>2022-05-14T10:39:18.087Z</time>
      </trkpt>
      <trkpt lat="41.5314" lon="19.7185">
        <ele>61.415771</ele>
        <time>2022-05-14T10:39:20.083Z</time>
      </trkpt>
      <trkpt lat="41.53146" lon="19.71839">
        <ele>61.48352</ele>
        <time>2022-05-14T10:39:22.089Z</time>
      </trkpt>
      <trkpt lat="41.53152" lon="19.71829">
        <ele>61.546255</ele>
        <time>2022-05-14T10:39:24.072Z</time>
      </trkpt>
      <trkpt lat="41.53158" lon="19.71819">
        <ele>61.607063</ele>
        <time>2022-05-14T10:39:26.078Z</time>
      </trkpt>
      <trkpt lat="41.53165" lon="19.71809">
        <ele>61.670345</ele>
        <time>2022-05-14T10:39:28.077Z</time>
      </trkpt>
      <trkpt lat="41.53173" lon="19.71801">
        <ele>61.736784</ele>
        <time>2022-05-14T10:39:30.100Z</time>
      </trkpt>
      <trkpt lat="41.53182" lon="19.71792">
        <ele>61.805153</ele>
        <time>2022-05-14T10:39:32.086Z</time>
      </trkpt>
      <trkpt lat="41.53191" lon="19.71786">
        <ele>61.870989</ele>
        <time>2022-05-14T10:39:34.110Z</time>
      </trkpt>
      <trkpt lat="41.532" lon="19.7178">
        <ele>61.616211</ele>
        <time>2022-05-14T10:39:36.059Z</time>
      </trkpt>
      <trkpt lat="41.5321" lon="19.71773">
        <ele>60.985993</ele>
        <time>2022-05-14T10:39:38.082Z</time>
      </trkpt>
      <trkpt lat="41.5322" lon="19.71766">
        <ele>60.354505</ele>
        <time>2022-05-14T10:39:40.100Z</time>
      </trkpt>
      <trkpt lat="41.5323" lon="19.7176">
        <ele>59.723364</ele>
        <time>2022-05-14T10:39:42.081Z</time>
      </trkpt>
      <trkpt lat="41.5324" lon="19.71753">
        <ele>59.081228</ele>
        <time>2022-05-14T10:39:44.069Z</time>
      </trkpt>
      <trkpt lat="41.53251" lon="19.71745">
        <ele>58.387608</ele>
        <time>2022-05-14T10:39:46.079Z</time>
      </trkpt>
      <trkpt lat="41.53262" lon="19.71738">
        <ele>57.680156</ele>
        <time>2022-05-14T10:39:48.079Z</time>
      </trkpt>
      <trkpt lat="41.53274" lon="19.7173">
        <ele>56.949471</ele>
        <time>2022-05-14T10:39:50.069Z</time>
      </trkpt>
      <trkpt lat="41.53286" lon="19.71723">
        <ele>56.225982</ele>
        <time>2022-05-14T10:39:52.069Z</time>
      </trkpt>
      <trkpt lat="41.53297" lon="19.71716">
        <ele>55.551787</ele>
        <time>2022-05-14T10:39:54.066Z</time>
      </trkpt>
      <trkpt lat="41.53307" lon="19.7171">
        <ele>54.93408</ele>
        <time>2022-05-14T10:39:56.083Z</time>
      </trkpt>
      <trkpt lat="41.53316" lon="19.71703">
        <ele>54.313854</ele>
        <time>2022-05-14T10:39:58.081Z</time>
      </trkpt>
      <trkpt lat="41.53325" lon="19.71696">
        <ele>53.736261</ele>
        <time>2022-05-14T10:40:00.072Z</time>
      </trkpt>
      <trkpt lat="41.53334" lon="19.71691">
        <ele>53.176856</ele>
        <time>2022-05-14T10:40:02.074Z</time>
      </trkpt>
      <trkpt lat="41.53343" lon="19.71685">
        <ele>52.637666</ele>
        <time>2022-05-14T10:40:04.069Z</time>
      </trkpt>
      <trkpt lat="41.53351" lon="19.7168">
        <ele>52.126049</ele>
        <time>2022-05-14T10:40:06.100Z</time>
      </trkpt>
      <trkpt lat="41.53362" lon="19.71672">
        <ele>51.688495</ele>
        <time>2022-05-14T10:40:09.065Z</time>
      </trkpt>
      <trkpt lat="41.53373" lon="19.71666">
        <ele>51.504617</ele>
        <time>2022-05-14T10:40:12.068Z</time>
      </trkpt>
      <trkpt lat="41.53383" lon="19.71659">
        <ele>51.315576</ele>
        <time>2022-05-14T10:40:15.071Z</time>
      </trkpt>
      <trkpt lat="41.53394" lon="19.71652">
        <ele>51.12047</ele>
        <time>2022-05-14T10:40:18.074Z</time>
      </trkpt>
      <trkpt lat="41.53405" lon="19.71644">
        <ele>50.91062</ele>
        <time>2022-05-14T10:40:21.069Z</time>
      </trkpt>
      <trkpt lat="41.53416" lon="19.71636">
        <ele>50.697283</ele>
        <time>2022-05-14T10:40:24.084Z</time>
      </trkpt>
      <trkpt lat="41.53428" lon="19.71628">
        <ele>50.484513</ele>
        <time>2022-05-14T10:40:27.074Z</time>
      </trkpt>
      <trkpt lat="41.53439" lon="19.7162">
        <ele>50.280471</ele>
        <time>2022-05-14T10:40:30.056Z</time>
      </trkpt>
      <trkpt lat="41.53449" lon="19.7161">
        <ele>50.072407</ele>
        <time>2022-05-14T10:40:33.081Z</time>
      </trkpt>
      <trkpt lat="41.53459" lon="19.71599">
        <ele>49.861798</ele>
        <time>2022-05-14T10:40:36.106Z</time>
      </trkpt>
      <trkpt lat="41.53468" lon="19.71587">
        <ele>49.647335</ele>
        <time>2022-05-14T10:40:39.075Z</time>
      </trkpt>
      <trkpt lat="41.53475" lon="19.71579">
        <ele>49.497346</ele>
        <time>2022-05-14T10:40:41.074Z</time>
      </trkpt>
      <trkpt lat="41.53481" lon="19.7157">
        <ele>49.346505</ele>
        <time>2022-05-14T10:40:43.080Z</time>
      </trkpt>
      <trkpt lat="41.53488" lon="19.71561">
        <ele>49.186102</ele>
        <time>2022-05-14T10:40:45.081Z</time>
      </trkpt>
      <trkpt lat="41.53495" lon="19.71552">
        <ele>49.027734</ele>
        <time>2022-05-14T10:40:47.064Z</time>
      </trkpt>
      <trkpt lat="41.53502" lon="19.71543">
        <ele>48.87227</ele>
        <time>2022-05-14T10:40:49.097Z</time>
      </trkpt>
      <trkpt lat="41.53508" lon="19.71534">
        <ele>48.911633</ele>
        <time>2022-05-14T10:40:51.083Z</time>
      </trkpt>
      <trkpt lat="41.53515" lon="19.71526">
        <ele>48.999589</ele>
        <time>2022-05-14T10:40:53.110Z</time>
      </trkpt>
      <trkpt lat="41.53522" lon="19.71517">
        <ele>49.08939</ele>
        <time>2022-05-14T10:40:55.089Z</time>
      </trkpt>
      <trkpt lat="41.53529" lon="19.71508">
        <ele>49.17637</ele>
        <time>2022-05-14T10:40:57.065Z</time>
      </trkpt>
      <trkpt lat="41.53536" lon="19.715">
        <ele>49.268711</ele>
        <time>2022-05-14T10:40:59.060Z</time>
      </trkpt>
      <trkpt lat="41.53543" lon="19.71491">
        <ele>49.355994</ele>
        <time>2022-05-14T10:41:01.053Z</time>
      </trkpt>
      <trkpt lat="41.5355" lon="19.71482">
        <ele>49.450467</ele>
        <time>2022-05-14T10:41:03.081Z</time>
      </trkpt>
      <trkpt lat="41.53556" lon="19.71473">
        <ele>49.535111</ele>
        <time>2022-05-14T10:41:05.080Z</time>
      </trkpt>
      <trkpt lat="41.53563" lon="19.71465">
        <ele>49.619957</ele>
        <time>2022-05-14T10:41:07.081Z</time>
      </trkpt>
      <trkpt lat="41.53571" lon="19.71452">
        <ele>49.74097</ele>
        <time>2022-05-14T10:41:10.064Z</time>
      </trkpt>
      <trkpt lat="41.53581" lon="19.71439">
        <ele>49.866866</ele>
        <time>2022-05-14T10:41:13.075Z</time>
      </trkpt>
      <trkpt lat="41.5359" lon="19.71428">
        <ele>49.981696</ele>
        <time>2022-05-14T10:41:16.066Z</time>
      </trkpt>
      <trkpt lat="41.53599" lon="19.71416">
        <ele>50.103771</ele>
        <time>2022-05-14T10:41:19.081Z</time>
      </trkpt>
      <trkpt lat="41.53608" lon="19.71404">
        <ele>50.227142</ele>
        <time>2022-05-14T10:41:22.070Z</time>
      </trkpt>
      <trkpt lat="41.53618" lon="19.71392">
        <ele>50.349467</ele>
        <time>2022-05-14T10:41:25.077Z</time>
      </trkpt>
      <trkpt lat="41.53628" lon="19.71382">
        <ele>50.473271</ele>
        <time>2022-05-14T10:41:28.069Z</time>
      </trkpt>
      <trkpt lat="41.53638" lon="19.71373">
        <ele>50.552629</ele>
        <time>2022-05-14T10:41:31.098Z</time>
      </trkpt>
      <trkpt lat="41.53648" lon="19.71363">
        <ele>50.592875</ele>
        <time>2022-05-14T10:41:34.084Z</time>
      </trkpt>
      <trkpt lat="41.53659" lon="19.71355">
        <ele>50.635217</ele>
        <time>2022-05-14T10:41:37.080Z</time>
      </trkpt>
      <trkpt lat="41.53671" lon="19.71346">
        <ele>50.678592</ele>
        <time>2022-05-14T10:41:40.090Z</time>
      </trkpt>
      <trkpt lat="41.53681" lon="19.71337">
        <ele>50.720822</ele>
        <time>2022-05-14T10:41:43.075Z</time>
      </trkpt>
      <trkpt lat="41.53692" lon="19.71327">
        <ele>50.763464</ele>
        <time>2022-05-14T10:41:46.070Z</time>
      </trkpt>
      <trkpt lat="41.53703" lon="19.71318">
        <ele>50.804595</ele>
        <time>2022-05-14T10:41:49.129Z</time>
      </trkpt>
      <trkpt lat="41.53714" lon="19.7131">
        <ele>50.845513</ele>
        <time>2022-05-14T10:41:52.065Z</time>
      </trkpt>
      <trkpt lat="41.53724" lon="19.71301">
        <ele>50.887611</ele>
        <time>2022-05-14T10:41:55.060Z</time>
      </trkpt>
      <trkpt lat="41.53735" lon="19.71292">
        <ele>50.928466</ele>
        <time>2022-05-14T10:41:58.078Z</time>
      </trkpt>
      <trkpt lat="41.53745" lon="19.71283">
        <ele>50.968909</ele>
        <time>2022-05-14T10:42:01.086Z</time>
      </trkpt>
      <trkpt lat="41.53754" lon="19.71275">
        <ele>51.00469</ele>
        <time>2022-05-14T10:42:04.081Z</time>
      </trkpt>
      <trkpt lat="41.53763" lon="19.71268">
        <ele>51.037201</ele>
        <time>2022-05-14T10:42:07.058Z</time>
      </trkpt>
      <trkpt lat="41.53771" lon="19.71262">
        <ele>51.069013</ele>
        <time>2022-05-14T10:42:10.092Z</time>
      </trkpt>
      <trkpt lat="41.53779" lon="19.71256">
        <ele>51.098812</ele>
        <time>2022-05-14T10:42:13.070Z</time>
      </trkpt>
      <trkpt lat="41.53787" lon="19.7125">
        <ele>51.143432</ele>
        <time>2022-05-14T10:42:16.101Z</time>
      </trkpt>
      <trkpt lat="41.53795" lon="19.71243">
        <ele>51.316648</ele>
        <time>2022-05-14T10:42:19.071Z</time>
      </trkpt>
      <trkpt lat="41.53804" lon="19.71234">
        <ele>51.533284</ele>
        <time>2022-05-14T10:42:23.088Z</time>
      </trkpt>
      <trkpt lat="41.53813" lon="19.71228">
        <ele>51.730366</ele>
        <time>2022-05-14T10:42:27.101Z</time>
      </trkpt>
      <trkpt lat="41.53823" lon="19.71219">
        <ele>51.947739</ele>
        <time>2022-05-14T10:42:31.088Z</time>
      </trkpt>
      <trkpt lat="41.53831" lon="19.71212">
        <ele>52.128836</ele>
        <time>2022-05-14T10:42:34.067Z</time>
      </trkpt>
      <trkpt lat="41.53839" lon="19.71206">
        <ele>52.30132</ele>
        <time>2022-05-14T10:42:37.065Z</time>
      </trkpt>
      <trkpt lat="41.53847" lon="19.712">
        <ele>52.480449</ele>
        <time>2022-05-14T10:42:40.081Z</time>
      </trkpt>
      <trkpt lat="41.53855" lon="19.71193">
        <ele>52.659382</ele>
        <time>2022-05-14T10:42:43.065Z</time>
      </trkpt>
      <trkpt lat="41.53864" lon="19.71186">
        <ele>52.849351</ele>
        <time>2022-05-14T10:42:46.079Z</time>
      </trkpt>
      <trkpt lat="41.53872" lon="19.71178">
        <ele>53.047762</ele>
        <time>2022-05-14T10:42:49.068Z</time>
      </trkpt>
      <trkpt lat="41.53881" lon="19.71171">
        <ele>53.250241</ele>
        <time>2022-05-14T10:42:52.092Z</time>
      </trkpt>
      <trkpt lat="41.53891" lon="19.71164">
        <ele>53.455429</ele>
        <time>2022-05-14T10:42:55.071Z</time>
      </trkpt>
      <trkpt lat="41.539" lon="19.71156">
        <ele>53.662532</ele>
        <time>2022-05-14T10:42:58.085Z</time>
      </trkpt>
      <trkpt lat="41.53908" lon="19.71147">
        <ele>53.86171</ele>
        <time>2022-05-14T10:43:01.103Z</time>
      </trkpt>
      <trkpt lat="41.53916" lon="19.71137">
        <ele>54.065858</ele>
        <time>2022-05-14T10:43:04.072Z</time>
      </trkpt>
      <trkpt lat="41.53923" lon="19.71125">
        <ele>54.291705</ele>
        <time>2022-05-14T10:43:07.072Z</time>
      </trkpt>
      <trkpt lat="41.5393" lon="19.7111">
        <ele>54.532252</ele>
        <time>2022-05-14T10:43:10.087Z</time>
      </trkpt>
      <trkpt lat="41.53938" lon="19.71095">
        <ele>54.506126</ele>
        <time>2022-05-14T10:43:13.100Z</time>
      </trkpt>
      <trkpt lat="41.53942" lon="19.71085">
        <ele>54.48728</ele>
        <time>2022-05-14T10:43:15.074Z</time>
      </trkpt>
      <trkpt lat="41.53947" lon="19.71074">
        <ele>54.468045</ele>
        <time>2022-05-14T10:43:17.083Z</time>
      </trkpt>
      <trkpt lat="41.53951" lon="19.71063">
        <ele>54.448982</ele>
        <time>2022-05-14T10:43:19.072Z</time>
      </trkpt>
      <trkpt lat="41.53956" lon="19.71052">
        <ele>54.429783</ele>
        <time>2022-05-14T10:43:21.083Z</time>
      </trkpt>
      <trkpt lat="41.53961" lon="19.71041">
        <ele>54.409602</ele>
        <time>2022-05-14T10:43:23.111Z</time>
      </trkpt>
      <trkpt lat="41.53965" lon="19.7103">
        <ele>54.38915</ele>
        <time>2022-05-14T10:43:25.069Z</time>
      </trkpt>
      <trkpt lat="41.5397" lon="19.71018">
        <ele>54.368359</ele>
        <time>2022-05-14T10:43:27.087Z</time>
      </trkpt>
      <trkpt lat="41.53976" lon="19.71006">
        <ele>54.347357</ele>
        <time>2022-05-14T10:43:29.071Z</time>
      </trkpt>
      <trkpt lat="41.53981" lon="19.70995">
        <ele>54.326193</ele>
        <time>2022-05-14T10:43:31.070Z</time>
      </trkpt>
      <trkpt lat="41.53986" lon="19.70983">
        <ele>54.30559</ele>
        <time>2022-05-14T10:43:33.074Z</time>
      </trkpt>
      <trkpt lat="41.53991" lon="19.70972">
        <ele>54.284107</ele>
        <time>2022-05-14T10:43:35.087Z</time>
      </trkpt>
      <trkpt lat="41.53997" lon="19.70959">
        <ele>54.261318</ele>
        <time>2022-05-14T10:43:37.084Z</time>
      </trkpt>
      <trkpt lat="41.54003" lon="19.70946">
        <ele>54.238077</ele>
        <time>2022-05-14T10:43:39.072Z</time>
      </trkpt>
      <trkpt lat="41.54008" lon="19.70933">
        <ele>54.214915</ele>
        <time>2022-05-14T10:43:41.071Z</time>
      </trkpt>
      <trkpt lat="41.54014" lon="19.70921">
        <ele>54.192527</ele>
        <time>2022-05-14T10:43:43.112Z</time>
      </trkpt>
      <trkpt lat="41.54019" lon="19.70909">
        <ele>54.171258</ele>
        <time>2022-05-14T10:43:45.116Z</time>
      </trkpt>
      <trkpt lat="41.54024" lon="19.70897">
        <ele>54.107142</ele>
        <time>2022-05-14T10:43:47.075Z</time>
      </trkpt>
      <trkpt lat="41.54029" lon="19.70885">
        <ele>54.007845</ele>
        <time>2022-05-14T10:43:49.068Z</time>
      </trkpt>
      <trkpt lat="41.54034" lon="19.70873">
        <ele>53.905817</ele>
        <time>2022-05-14T10:43:51.095Z</time>
      </trkpt>
      <trkpt lat="41.54039" lon="19.70861">
        <ele>53.803788</ele>
        <time>2022-05-14T10:43:53.072Z</time>
      </trkpt>
      <trkpt lat="41.54044" lon="19.70849">
        <ele>53.70077</ele>
        <time>2022-05-14T10:43:55.075Z</time>
      </trkpt>
      <trkpt lat="41.54049" lon="19.70837">
        <ele>53.600998</ele>
        <time>2022-05-14T10:43:57.097Z</time>
      </trkpt>
      <trkpt lat="41.54054" lon="19.70825">
        <ele>53.500579</ele>
        <time>2022-05-14T10:43:59.082Z</time>
      </trkpt>
      <trkpt lat="41.54059" lon="19.70813">
        <ele>53.398551</ele>
        <time>2022-05-14T10:44:01.079Z</time>
      </trkpt>
      <trkpt lat="41.54064" lon="19.70801">
        <ele>53.294413</ele>
        <time>2022-05-14T10:44:03.063Z</time>
      </trkpt>
      <trkpt lat="41.5407" lon="19.70789">
        <ele>53.190611</ele>
        <time>2022-05-14T10:44:05.078Z</time>
      </trkpt>
      <trkpt lat="41.54075" lon="19.70776">
        <ele>53.082768</ele>
        <time>2022-05-14T10:44:07.073Z</time>
      </trkpt>
      <trkpt lat="41.5408" lon="19.70763">
        <ele>52.977785</ele>
        <time>2022-05-14T10:44:09.074Z</time>
      </trkpt>
      <trkpt lat="41.54085" lon="19.70751">
        <ele>52.873175</ele>
        <time>2022-05-14T10:44:11.081Z</time>
      </trkpt>
      <trkpt lat="41.5409" lon="19.70739">
        <ele>52.768241</ele>
        <time>2022-05-14T10:44:13.090Z</time>
      </trkpt>
      <trkpt lat="41.54096" lon="19.70726">
        <ele>52.65926</ele>
        <time>2022-05-14T10:44:15.079Z</time>
      </trkpt>
      <trkpt lat="41.54101" lon="19.70712">
        <ele>52.546435</ele>
        <time>2022-05-14T10:44:17.098Z</time>
      </trkpt>
      <trkpt lat="41.54107" lon="19.707">
        <ele>52.442277</ele>
        <time>2022-05-14T10:44:19.103Z</time>
      </trkpt>
      <trkpt lat="41.54112" lon="19.70689">
        <ele>52.470006</ele>
        <time>2022-05-14T10:44:21.072Z</time>
      </trkpt>
      <trkpt lat="41.54116" lon="19.70678">
        <ele>52.669998</ele>
        <time>2022-05-14T10:44:23.063Z</time>
      </trkpt>
      <trkpt lat="41.54123" lon="19.70663">
        <ele>52.950852</ele>
        <time>2022-05-14T10:44:26.072Z</time>
      </trkpt>
      <trkpt lat="41.5413" lon="19.70648">
        <ele>53.233089</ele>
        <time>2022-05-14T10:44:29.063Z</time>
      </trkpt>
      <trkpt lat="41.54136" lon="19.70633">
        <ele>53.507332</ele>
        <time>2022-05-14T10:44:32.091Z</time>
      </trkpt>
      <trkpt lat="41.54142" lon="19.70618">
        <ele>53.779933</ele>
        <time>2022-05-14T10:44:35.109Z</time>
      </trkpt>
      <trkpt lat="41.54149" lon="19.70603">
        <ele>54.05035</ele>
        <time>2022-05-14T10:44:38.082Z</time>
      </trkpt>
      <trkpt lat="41.54155" lon="19.70589">
        <ele>54.311175</ele>
        <time>2022-05-14T10:44:41.177Z</time>
      </trkpt>
      <trkpt lat="41.54161" lon="19.70577">
        <ele>54.545679</ele>
        <time>2022-05-14T10:44:44.073Z</time>
      </trkpt>
      <trkpt lat="41.54166" lon="19.70565">
        <ele>54.765183</ele>
        <time>2022-05-14T10:44:47.078Z</time>
      </trkpt>
      <trkpt lat="41.5417" lon="19.70554">
        <ele>54.967029</ele>
        <time>2022-05-14T10:44:50.082Z</time>
      </trkpt>
      <trkpt lat="41.54177" lon="19.7054">
        <ele>55.223782</ele>
        <time>2022-05-14T10:44:54.085Z</time>
      </trkpt>
      <trkpt lat="41.54182" lon="19.70528">
        <ele>55.445097</ele>
        <time>2022-05-14T10:44:58.061Z</time>
      </trkpt>
      <trkpt lat="41.54187" lon="19.70516">
        <ele>55.670545</ele>
        <time>2022-05-14T10:45:03.108Z</time>
      </trkpt>
      <trkpt lat="41.54192" lon="19.70505">
        <ele>55.879595</ele>
        <time>2022-05-14T10:45:08.091Z</time>
      </trkpt>
      <trkpt lat="41.54197" lon="19.70494">
        <ele>56.076503</ele>
        <time>2022-05-14T10:45:13.076Z</time>
      </trkpt>
      <trkpt lat="41.54202" lon="19.70482">
        <ele>56.387366</ele>
        <time>2022-05-14T10:45:18.059Z</time>
      </trkpt>
      <trkpt lat="41.54207" lon="19.70471">
        <ele>56.853275</ele>
        <time>2022-05-14T10:45:23.094Z</time>
      </trkpt>
      <trkpt lat="41.54212" lon="19.70459">
        <ele>57.301442</ele>
        <time>2022-05-14T10:45:28.071Z</time>
      </trkpt>
      <trkpt lat="41.54217" lon="19.70447">
        <ele>57.814602</ele>
        <time>2022-05-14T10:45:34.090Z</time>
      </trkpt>
      <trkpt lat="41.54221" lon="19.70436">
        <ele>58.242104</ele>
        <time>2022-05-14T10:45:40.073Z</time>
      </trkpt>
      <trkpt lat="41.54226" lon="19.70425">
        <ele>58.705625</ele>
        <time>2022-05-14T10:45:46.082Z</time>
      </trkpt>
      <trkpt lat="41.54231" lon="19.70413">
        <ele>59.167538</ele>
        <time>2022-05-14T10:45:52.074Z</time>
      </trkpt>
      <trkpt lat="41.54237" lon="19.70401">
        <ele>59.67384</ele>
        <time>2022-05-14T10:45:58.070Z</time>
      </trkpt>
      <trkpt lat="41.54242" lon="19.70389">
        <ele>60.147228</ele>
        <time>2022-05-14T10:46:04.068Z</time>
      </trkpt>
      <trkpt lat="41.54247" lon="19.70378">
        <ele>60.615036</ele>
        <time>2022-05-14T10:46:10.089Z</time>
      </trkpt>
      <trkpt lat="41.54251" lon="19.70367">
        <ele>61.046393</ele>
        <time>2022-05-14T10:46:15.093Z</time>
      </trkpt>
      <trkpt lat="41.54256" lon="19.70356">
        <ele>61.468536</ele>
        <time>2022-05-14T10:46:20.088Z</time>
      </trkpt>
      <trkpt lat="41.54261" lon="19.70346">
        <ele>61.905107</ele>
        <time>2022-05-14T10:46:25.065Z</time>
      </trkpt>
      <trkpt lat="41.54266" lon="19.70335">
        <ele>62.347613</ele>
        <time>2022-05-14T10:46:30.063Z</time>
      </trkpt>
      <trkpt lat="41.5427" lon="19.70324">
        <ele>62.794286</ele>
        <time>2022-05-14T10:46:36.076Z</time>
      </trkpt>
      <trkpt lat="41.54275" lon="19.70313">
        <ele>63.229627</ele>
        <time>2022-05-14T10:46:41.076Z</time>
      </trkpt>
      <trkpt lat="41.5428" lon="19.70302">
        <ele>63.669668</ele>
        <time>2022-05-14T10:46:46.074Z</time>
      </trkpt>
      <trkpt lat="41.54285" lon="19.70291">
        <ele>64.144637</ele>
        <time>2022-05-14T10:46:51.128Z</time>
      </trkpt>
      <trkpt lat="41.54289" lon="19.7028">
        <ele>64.566778</ele>
        <time>2022-05-14T10:46:55.080Z</time>
      </trkpt>
      <trkpt lat="41.54294" lon="19.7027">
        <ele>64.527593</ele>
        <time>2022-05-14T10:46:59.121Z</time>
      </trkpt>
      <trkpt lat="41.543" lon="19.70258">
        <ele>64.349115</ele>
        <time>2022-05-14T10:47:03.066Z</time>
      </trkpt>
      <trkpt lat="41.54307" lon="19.70248">
        <ele>64.172188</ele>
        <time>2022-05-14T10:47:07.076Z</time>
      </trkpt>
      <trkpt lat="41.54315" lon="19.70239">
        <ele>63.992766</ele>
        <time>2022-05-14T10:47:11.081Z</time>
      </trkpt>
      <trkpt lat="41.54323" lon="19.70232">
        <ele>63.826731</ele>
        <time>2022-05-14T10:47:15.086Z</time>
      </trkpt>
      <trkpt lat="41.54333" lon="19.70227">
        <ele>63.644346</ele>
        <time>2022-05-14T10:47:19.121Z</time>
      </trkpt>
      <trkpt lat="41.54341" lon="19.70223">
        <ele>63.487589</ele>
        <time>2022-05-14T10:47:22.098Z</time>
      </trkpt>
      <trkpt lat="41.54351" lon="19.70221">
        <ele>63.316106</ele>
        <time>2022-05-14T10:47:25.068Z</time>
      </trkpt>
      <trkpt lat="41.54362" lon="19.70219">
        <ele>63.128937</ele>
        <time>2022-05-14T10:47:28.097Z</time>
      </trkpt>
      <trkpt lat="41.54373" lon="19.70219">
        <ele>62.934409</ele>
        <time>2022-05-14T10:47:31.087Z</time>
      </trkpt>
      <trkpt lat="41.54387" lon="19.7022">
        <ele>62.70334</ele>
        <time>2022-05-14T10:47:34.090Z</time>
      </trkpt>
      <trkpt lat="41.54397" lon="19.70221">
        <ele>62.524266</ele>
        <time>2022-05-14T10:47:36.126Z</time>
      </trkpt>
      <trkpt lat="41.54408" lon="19.70222">
        <ele>62.330977</ele>
        <time>2022-05-14T10:47:38.081Z</time>
      </trkpt>
      <trkpt lat="41.54421" lon="19.70223">
        <ele>62.117166</ele>
        <time>2022-05-14T10:47:40.084Z</time>
      </trkpt>
      <trkpt lat="41.54434" lon="19.70224">
        <ele>61.894508</ele>
        <time>2022-05-14T10:47:42.082Z</time>
      </trkpt>
      <trkpt lat="41.54447" lon="19.70226">
        <ele>61.659738</ele>
        <time>2022-05-14T10:47:44.071Z</time>
      </trkpt>
      <trkpt lat="41.54461" lon="19.70227">
        <ele>61.308754</ele>
        <time>2022-05-14T10:47:46.071Z</time>
      </trkpt>
      <trkpt lat="41.54476" lon="19.70229">
        <ele>60.866974</ele>
        <time>2022-05-14T10:47:48.109Z</time>
      </trkpt>
      <trkpt lat="41.54491" lon="19.7023">
        <ele>60.419178</ele>
        <time>2022-05-14T10:47:50.064Z</time>
      </trkpt>
      <trkpt lat="41.54506" lon="19.70231">
        <ele>59.947614</ele>
        <time>2022-05-14T10:47:52.067Z</time>
      </trkpt>
      <trkpt lat="41.54523" lon="19.70233">
        <ele>59.451512</ele>
        <time>2022-05-14T10:47:54.076Z</time>
      </trkpt>
      <trkpt lat="41.54539" lon="19.70232">
        <ele>58.961739</ele>
        <time>2022-05-14T10:47:56.081Z</time>
      </trkpt>
      <trkpt lat="41.54555" lon="19.70226">
        <ele>58.466177</ele>
        <time>2022-05-14T10:47:58.077Z</time>
      </trkpt>
      <trkpt lat="41.54569" lon="19.70216">
        <ele>57.979644</ele>
        <time>2022-05-14T10:48:00.089Z</time>
      </trkpt>
      <trkpt lat="41.54582" lon="19.70202">
        <ele>57.489053</ele>
        <time>2022-05-14T10:48:02.076Z</time>
      </trkpt>
      <trkpt lat="41.54594" lon="19.70187">
        <ele>56.975848</ele>
        <time>2022-05-14T10:48:04.112Z</time>
      </trkpt>
      <trkpt lat="41.54606" lon="19.70171">
        <ele>56.465413</ele>
        <time>2022-05-14T10:48:06.060Z</time>
      </trkpt>
      <trkpt lat="41.54618" lon="19.70156">
        <ele>55.974016</ele>
        <time>2022-05-14T10:48:08.087Z</time>
      </trkpt>
      <trkpt lat="41.54629" lon="19.70141">
        <ele>55.504299</ele>
        <time>2022-05-14T10:48:10.071Z</time>
      </trkpt>
      <trkpt lat="41.54641" lon="19.70126">
        <ele>55.02432</ele>
        <time>2022-05-14T10:48:12.080Z</time>
      </trkpt>
      <trkpt lat="41.54651" lon="19.70111">
        <ele>54.560911</ele>
        <time>2022-05-14T10:48:14.070Z</time>
      </trkpt>
      <trkpt lat="41.5466" lon="19.70094">
        <ele>54.115618</ele>
        <time>2022-05-14T10:48:16.108Z</time>
      </trkpt>
      <trkpt lat="41.54665" lon="19.70076">
        <ele>53.686082</ele>
        <time>2022-05-14T10:48:18.093Z</time>
      </trkpt>
      <trkpt lat="41.54668" lon="19.70057">
        <ele>53.253589</ele>
        <time>2022-05-14T10:48:20.083Z</time>
      </trkpt>
      <trkpt lat="41.54668" lon="19.70038">
        <ele>52.82529</ele>
        <time>2022-05-14T10:48:22.117Z</time>
      </trkpt>
      <trkpt lat="41.54666" lon="19.70019">
        <ele>52.40639</ele>
        <time>2022-05-14T10:48:24.084Z</time>
      </trkpt>
      <trkpt lat="41.54665" lon="19.70001">
        <ele>51.986219</ele>
        <time>2022-05-14T10:48:26.081Z</time>
      </trkpt>
      <trkpt lat="41.54663" lon="19.69983">
        <ele>51.584463</ele>
        <time>2022-05-14T10:48:28.094Z</time>
      </trkpt>
      <trkpt lat="41.54661" lon="19.69965">
        <ele>51.192544</ele>
        <time>2022-05-14T10:48:30.082Z</time>
      </trkpt>
      <trkpt lat="41.54658" lon="19.69949">
        <ele>50.807706</ele>
        <time>2022-05-14T10:48:32.056Z</time>
      </trkpt>
      <trkpt lat="41.54655" lon="19.69932">
        <ele>50.746042</ele>
        <time>2022-05-14T10:48:34.079Z</time>
      </trkpt>
      <trkpt lat="41.54652" lon="19.69915">
        <ele>50.717092</ele>
        <time>2022-05-14T10:48:36.092Z</time>
      </trkpt>
      <trkpt lat="41.54649" lon="19.699">
        <ele>50.690099</ele>
        <time>2022-05-14T10:48:38.127Z</time>
      </trkpt>
      <trkpt lat="41.54646" lon="19.69885">
        <ele>50.663204</ele>
        <time>2022-05-14T10:48:40.085Z</time>
      </trkpt>
      <trkpt lat="41.54642" lon="19.6987">
        <ele>50.637053</ele>
        <time>2022-05-14T10:48:42.071Z</time>
      </trkpt>
      <trkpt lat="41.54639" lon="19.69856">
        <ele>50.612584</ele>
        <time>2022-05-14T10:48:44.110Z</time>
      </trkpt>
      <trkpt lat="41.54636" lon="19.69844">
        <ele>50.590007</ele>
        <time>2022-05-14T10:48:46.064Z</time>
      </trkpt>
      <trkpt lat="41.54633" lon="19.69832">
        <ele>50.569345</ele>
        <time>2022-05-14T10:48:48.068Z</time>
      </trkpt>
      <trkpt lat="41.54628" lon="19.69818">
        <ele>50.543604</ele>
        <time>2022-05-14T10:48:51.098Z</time>
      </trkpt>
      <trkpt lat="41.54622" lon="19.69805">
        <ele>50.517393</ele>
        <time>2022-05-14T10:48:54.082Z</time>
      </trkpt>
      <trkpt lat="41.54615" lon="19.69792">
        <ele>50.490113</ele>
        <time>2022-05-14T10:48:57.068Z</time>
      </trkpt>
      <trkpt lat="41.54607" lon="19.6978">
        <ele>50.46191</ele>
        <time>2022-05-14T10:49:00.088Z</time>
      </trkpt>
      <trkpt lat="41.54596" lon="19.69769">
        <ele>50.432461</ele>
        <time>2022-05-14T10:49:03.080Z</time>
      </trkpt>
      <trkpt lat="41.54586" lon="19.69759">
        <ele>50.402773</ele>
        <time>2022-05-14T10:49:06.079Z</time>
      </trkpt>
      <trkpt lat="41.54575" lon="19.69749">
        <ele>50.373946</ele>
        <time>2022-05-14T10:49:09.073Z</time>
      </trkpt>
      <trkpt lat="41.54565" lon="19.6974">
        <ele>50.461553</ele>
        <time>2022-05-14T10:49:12.112Z</time>
      </trkpt>
      <trkpt lat="41.54555" lon="19.69728">
        <ele>50.604919</ele>
        <time>2022-05-14T10:49:15.073Z</time>
      </trkpt>
      <trkpt lat="41.5455" lon="19.69718">
        <ele>50.707934</ele>
        <time>2022-05-14T10:49:17.075Z</time>
      </trkpt>
      <trkpt lat="41.54545" lon="19.69707">
        <ele>50.813236</ele>
        <time>2022-05-14T10:49:19.071Z</time>
      </trkpt>
      <trkpt lat="41.54542" lon="19.69694">
        <ele>50.921716</ele>
        <time>2022-05-14T10:49:21.086Z</time>
      </trkpt>
      <trkpt lat="41.5454" lon="19.69682">
        <ele>51.028849</ele>
        <time>2022-05-14T10:49:23.064Z</time>
      </trkpt>
      <trkpt lat="41.54539" lon="19.69669">
        <ele>51.134536</ele>
        <time>2022-05-14T10:49:25.076Z</time>
      </trkpt>
      <trkpt lat="41.54539" lon="19.69656">
        <ele>51.240773</ele>
        <time>2022-05-14T10:49:27.086Z</time>
      </trkpt>
      <trkpt lat="41.54541" lon="19.69644">
        <ele>51.343382</ele>
        <time>2022-05-14T10:49:29.082Z</time>
      </trkpt>
      <trkpt lat="41.54544" lon="19.69632">
        <ele>51.449525</ele>
        <time>2022-05-14T10:49:31.076Z</time>
      </trkpt>
      <trkpt lat="41.54548" lon="19.6962">
        <ele>51.555524</ele>
        <time>2022-05-14T10:49:33.074Z</time>
      </trkpt>
      <trkpt lat="41.54552" lon="19.69609">
        <ele>51.661064</ele>
        <time>2022-05-14T10:49:35.082Z</time>
      </trkpt>
      <trkpt lat="41.54556" lon="19.69597">
        <ele>51.769035</ele>
        <time>2022-05-14T10:49:37.073Z</time>
      </trkpt>
      <trkpt lat="41.5456" lon="19.69585">
        <ele>51.877958</ele>
        <time>2022-05-14T10:49:39.085Z</time>
      </trkpt>
      <trkpt lat="41.54564" lon="19.69573">
        <ele>51.985467</ele>
        <time>2022-05-14T10:49:41.080Z</time>
      </trkpt>
      <trkpt lat="41.54568" lon="19.69562">
        <ele>52.092975</ele>
        <time>2022-05-14T10:49:43.088Z</time>
      </trkpt>
      <trkpt lat="41.54572" lon="19.6955">
        <ele>52.197944</ele>
        <time>2022-05-14T10:49:45.061Z</time>
      </trkpt>
      <trkpt lat="41.54576" lon="19.69539">
        <ele>52.302438</ele>
        <time>2022-05-14T10:49:47.089Z</time>
      </trkpt>
      <trkpt lat="41.5458" lon="19.69528">
        <ele>52.375852</ele>
        <time>2022-05-14T10:49:49.089Z</time>
      </trkpt>
      <trkpt lat="41.54584" lon="19.69517">
        <ele>52.412226</ele>
        <time>2022-05-14T10:49:51.071Z</time>
      </trkpt>
      <trkpt lat="41.5459" lon="19.69501">
        <ele>52.463238</ele>
        <time>2022-05-14T10:49:54.080Z</time>
      </trkpt>
      <trkpt lat="41.54596" lon="19.69486">
        <ele>52.512591</ele>
        <time>2022-05-14T10:49:57.107Z</time>
      </trkpt>
      <trkpt lat="41.54602" lon="19.6947">
        <ele>52.565442</ele>
        <time>2022-05-14T10:50:00.091Z</time>
      </trkpt>
      <trkpt lat="41.54608" lon="19.69455">
        <ele>52.616365</ele>
        <time>2022-05-14T10:50:03.079Z</time>
      </trkpt>
      <trkpt lat="41.54612" lon="19.69444">
        <ele>52.651689</ele>
        <time>2022-05-14T10:50:05.077Z</time>
      </trkpt>
      <trkpt lat="41.54616" lon="19.69433">
        <ele>52.687536</ele>
        <time>2022-05-14T10:50:07.076Z</time>
      </trkpt>
      <trkpt lat="41.54622" lon="19.69417">
        <ele>52.740003</ele>
        <time>2022-05-14T10:50:10.080Z</time>
      </trkpt>
      <trkpt lat="41.5463" lon="19.69403">
        <ele>52.792247</ele>
        <time>2022-05-14T10:50:13.085Z</time>
      </trkpt>
      <trkpt lat="41.54639" lon="19.69389">
        <ele>52.844342</ele>
        <time>2022-05-14T10:50:16.075Z</time>
      </trkpt>
      <trkpt lat="41.54645" lon="19.69381">
        <ele>52.880127</ele>
        <time>2022-05-14T10:50:18.103Z</time>
      </trkpt>
      <trkpt lat="41.54652" lon="19.69372">
        <ele>52.9162</ele>
        <time>2022-05-14T10:50:20.063Z</time>
      </trkpt>
      <trkpt lat="41.54659" lon="19.69365">
        <ele>52.952001</ele>
        <time>2022-05-14T10:50:22.088Z</time>
      </trkpt>
      <trkpt lat="41.5467" lon="19.69355">
        <ele>53.001955</ele>
        <time>2022-05-14T10:50:25.079Z</time>
      </trkpt>
      <trkpt lat="41.5468" lon="19.69348">
        <ele>53.048152</ele>
        <time>2022-05-14T10:50:28.079Z</time>
      </trkpt>
      <trkpt lat="41.54689" lon="19.69341">
        <ele>53.120931</ele>
        <time>2022-05-14T10:50:31.074Z</time>
      </trkpt>
      <trkpt lat="41.54698" lon="19.69334">
        <ele>53.206885</ele>
        <time>2022-05-14T10:50:34.072Z</time>
      </trkpt>
      <trkpt lat="41.54706" lon="19.69327">
        <ele>53.296016</ele>
        <time>2022-05-14T10:50:37.082Z</time>
      </trkpt>
      <trkpt lat="41.54715" lon="19.69321">
        <ele>53.38197</ele>
        <time>2022-05-14T10:50:40.075Z</time>
      </trkpt>
      <trkpt lat="41.54726" lon="19.69313">
        <ele>53.488176</ele>
        <time>2022-05-14T10:50:44.075Z</time>
      </trkpt>
      <trkpt lat="41.54734" lon="19.69305">
        <ele>53.58124</ele>
        <time>2022-05-14T10:50:48.085Z</time>
      </trkpt>
      <trkpt lat="41.54742" lon="19.69295">
        <ele>53.676064</ele>
        <time>2022-05-14T10:50:52.068Z</time>
      </trkpt>
      <trkpt lat="41.5475" lon="19.69284">
        <ele>53.775185</ele>
        <time>2022-05-14T10:50:56.085Z</time>
      </trkpt>
      <trkpt lat="41.54755" lon="19.69274">
        <ele>53.855548</ele>
        <time>2022-05-14T10:50:59.072Z</time>
      </trkpt>
      <trkpt lat="41.54758" lon="19.69262">
        <ele>53.940189</ele>
        <time>2022-05-14T10:51:02.065Z</time>
      </trkpt>
      <trkpt lat="41.54761" lon="19.69249">
        <ele>54.023753</ele>
        <time>2022-05-14T10:51:05.067Z</time>
      </trkpt>
      <trkpt lat="41.54762" lon="19.69237">
        <ele>54.107422</ele>
        <time>2022-05-14T10:51:08.097Z</time>
      </trkpt>
      <trkpt lat="41.54762" lon="19.69225">
        <ele>54.1869</ele>
        <time>2022-05-14T10:51:11.071Z</time>
      </trkpt>
      <trkpt lat="41.54761" lon="19.69212">
        <ele>54.269473</ele>
        <time>2022-05-14T10:51:14.079Z</time>
      </trkpt>
      <trkpt lat="41.54759" lon="19.692">
        <ele>54.350224</ele>
        <time>2022-05-14T10:51:17.069Z</time>
      </trkpt>
      <trkpt lat="41.54757" lon="19.69188">
        <ele>54.431534</ele>
        <time>2022-05-14T10:51:20.090Z</time>
      </trkpt>
      <trkpt lat="41.54753" lon="19.69177">
        <ele>54.51459</ele>
        <time>2022-05-14T10:51:23.086Z</time>
      </trkpt>
      <trkpt lat="41.5475" lon="19.69164">
        <ele>54.59984</ele>
        <time>2022-05-14T10:51:26.116Z</time>
      </trkpt>
      <trkpt lat="41.54747" lon="19.69152">
        <ele>54.744291</ele>
        <time>2022-05-14T10:51:29.062Z</time>
      </trkpt>
      <trkpt lat="41.54743" lon="19.69139">
        <ele>54.942253</ele>
        <time>2022-05-14T10:51:32.080Z</time>
      </trkpt>
      <trkpt lat="41.5474" lon="19.69126">
        <ele>55.142429</ele>
        <time>2022-05-14T10:51:35.080Z</time>
      </trkpt>
      <trkpt lat="41.54736" lon="19.69113">
        <ele>55.349464</ele>
        <time>2022-05-14T10:51:38.067Z</time>
      </trkpt>
      <trkpt lat="41.54732" lon="19.691">
        <ele>55.555704</ele>
        <time>2022-05-14T10:51:41.079Z</time>
      </trkpt>
      <trkpt lat="41.54729" lon="19.69087">
        <ele>55.760694</ele>
        <time>2022-05-14T10:51:44.073Z</time>
      </trkpt>
      <trkpt lat="41.54725" lon="19.69073">
        <ele>55.972456</ele>
        <time>2022-05-14T10:51:47.071Z</time>
      </trkpt>
      <trkpt lat="41.54721" lon="19.69059">
        <ele>56.190436</ele>
        <time>2022-05-14T10:51:50.083Z</time>
      </trkpt>
      <trkpt lat="41.54717" lon="19.69045">
        <ele>56.417388</ele>
        <time>2022-05-14T10:51:53.117Z</time>
      </trkpt>
      <trkpt lat="41.54714" lon="19.6903">
        <ele>56.645727</ele>
        <time>2022-05-14T10:51:56.074Z</time>
      </trkpt>
      <trkpt lat="41.54709" lon="19.69016">
        <ele>56.876798</ele>
        <time>2022-05-14T10:51:59.067Z</time>
      </trkpt>
      <trkpt lat="41.54705" lon="19.69002">
        <ele>57.09961</ele>
        <time>2022-05-14T10:52:02.088Z</time>
      </trkpt>
      <trkpt lat="41.54702" lon="19.68987">
        <ele>57.324514</ele>
        <time>2022-05-14T10:52:05.072Z</time>
      </trkpt>
      <trkpt lat="41.54698" lon="19.68974">
        <ele>57.536349</ele>
        <time>2022-05-14T10:52:08.074Z</time>
      </trkpt>
      <trkpt lat="41.54696" lon="19.68962">
        <ele>57.719824</ele>
        <time>2022-05-14T10:52:11.089Z</time>
      </trkpt>
      <trkpt lat="41.54693" lon="19.6895">
        <ele>57.897953</ele>
        <time>2022-05-14T10:52:14.071Z</time>
      </trkpt>
      <trkpt lat="41.54689" lon="19.68936">
        <ele>58.126267</ele>
        <time>2022-05-14T10:52:18.072Z</time>
      </trkpt>
      <trkpt lat="41.54685" lon="19.68921">
        <ele>58.351621</ele>
        <time>2022-05-14T10:52:22.083Z</time>
      </trkpt>
      <trkpt lat="41.54681" lon="19.68908">
        <ele>58.554813</ele>
        <time>2022-05-14T10:52:26.072Z</time>
      </trkpt>
      <trkpt lat="41.54678" lon="19.68896">
        <ele>58.740045</ele>
        <time>2022-05-14T10:52:30.076Z</time>
      </trkpt>
      <trkpt lat="41.54674" lon="19.68884">
        <ele>58.939328</ele>
        <time>2022-05-14T10:52:34.072Z</time>
      </trkpt>
      <trkpt lat="41.5467" lon="19.68872">
        <ele>59.143152</ele>
        <time>2022-05-14T10:52:38.065Z</time>
      </trkpt>
      <trkpt lat="41.54663" lon="19.6886">
        <ele>59.365294</ele>
        <time>2022-05-14T10:52:42.084Z</time>
      </trkpt>
      <trkpt lat="41.54655" lon="19.68848">
        <ele>59.600278</ele>
        <time>2022-05-14T10:52:46.129Z</time>
      </trkpt>
      <trkpt lat="41.54648" lon="19.68839">
        <ele>59.785654</ele>
        <time>2022-05-14T10:52:49.069Z</time>
      </trkpt>
      <trkpt lat="41.54642" lon="19.6883">
        <ele>59.969282</ele>
        <time>2022-05-14T10:52:52.070Z</time>
      </trkpt>
      <trkpt lat="41.54635" lon="19.68821">
        <ele>60.1542</ele>
        <time>2022-05-14T10:52:55.081Z</time>
      </trkpt>
      <trkpt lat="41.54629" lon="19.6881">
        <ele>60.351669</ele>
        <time>2022-05-14T10:52:58.064Z</time>
      </trkpt>
      <trkpt lat="41.54624" lon="19.68798">
        <ele>60.555043</ele>
        <time>2022-05-14T10:53:01.086Z</time>
      </trkpt>
      <trkpt lat="41.54621" lon="19.68786">
        <ele>60.747942</ele>
        <time>2022-05-14T10:53:04.062Z</time>
      </trkpt>
      <trkpt lat="41.5462" lon="19.68773">
        <ele>60.935402</ele>
        <time>2022-05-14T10:53:07.082Z</time>
      </trkpt>
      <trkpt lat="41.54621" lon="19.68761">
        <ele>61.113602</ele>
        <time>2022-05-14T10:53:10.080Z</time>
      </trkpt>
      <trkpt lat="41.54624" lon="19.68747">
        <ele>61.331772</ele>
        <time>2022-05-14T10:53:14.121Z</time>
      </trkpt>
      <trkpt lat="41.54627" lon="19.68733">
        <ele>61.554442</ele>
        <time>2022-05-14T10:53:18.054Z</time>
      </trkpt>
      <trkpt lat="41.54631" lon="19.68718">
        <ele>61.769457</ele>
        <time>2022-05-14T10:53:22.093Z</time>
      </trkpt>
      <trkpt lat="41.54635" lon="19.68706">
        <ele>61.897895</ele>
        <time>2022-05-14T10:53:25.076Z</time>
      </trkpt>
      <trkpt lat="41.5464" lon="19.68695">
        <ele>62.036001</ele>
        <time>2022-05-14T10:53:28.075Z</time>
      </trkpt>
      <trkpt lat="41.54646" lon="19.68686">
        <ele>62.171104</ele>
        <time>2022-05-14T10:53:31.083Z</time>
      </trkpt>
      <trkpt lat="41.54655" lon="19.68679">
        <ele>62.307254</ele>
        <time>2022-05-14T10:53:34.085Z</time>
      </trkpt>
      <trkpt lat="41.54663" lon="19.68675">
        <ele>62.436263</ele>
        <time>2022-05-14T10:53:37.118Z</time>
      </trkpt>
      <trkpt lat="41.54674" lon="19.68673">
        <ele>62.582544</ele>
        <time>2022-05-14T10:53:40.082Z</time>
      </trkpt>
      <trkpt lat="41.54686" lon="19.68671">
        <ele>62.754841</ele>
        <time>2022-05-14T10:53:43.082Z</time>
      </trkpt>
      <trkpt lat="41.54698" lon="19.68667">
        <ele>62.931385</ele>
        <time>2022-05-14T10:53:46.078Z</time>
      </trkpt>
      <trkpt lat="41.54709" lon="19.68662">
        <ele>63.096374</ele>
        <time>2022-05-14T10:53:49.077Z</time>
      </trkpt>
      <trkpt lat="41.5472" lon="19.68653">
        <ele>63.268716</ele>
        <time>2022-05-14T10:53:52.083Z</time>
      </trkpt>
      <trkpt lat="41.5473" lon="19.68643">
        <ele>63.450524</ele>
        <time>2022-05-14T10:53:55.111Z</time>
      </trkpt>
      <trkpt lat="41.54739" lon="19.68631">
        <ele>63.622513</ele>
        <time>2022-05-14T10:53:58.088Z</time>
      </trkpt>
      <trkpt lat="41.54748" lon="19.68618">
        <ele>63.811356</ele>
        <time>2022-05-14T10:54:01.089Z</time>
      </trkpt>
      <trkpt lat="41.54753" lon="19.68607">
        <ele>63.940127</ele>
        <time>2022-05-14T10:54:03.083Z</time>
      </trkpt>
      <trkpt lat="41.54756" lon="19.68596">
        <ele>64.071135</ele>
        <time>2022-05-14T10:54:05.067Z</time>
      </trkpt>
      <trkpt lat="41.54759" lon="19.68583">
        <ele>64.213931</ele>
        <time>2022-05-14T10:54:07.092Z</time>
      </trkpt>
      <trkpt lat="41.54762" lon="19.68569">
        <ele>64.116179</ele>
        <time>2022-05-14T10:54:09.057Z</time>
      </trkpt>
      <trkpt lat="41.54764" lon="19.68556">
        <ele>63.946674</ele>
        <time>2022-05-14T10:54:11.081Z</time>
      </trkpt>
      <trkpt lat="41.54766" lon="19.68542">
        <ele>63.76495</ele>
        <time>2022-05-14T10:54:13.087Z</time>
      </trkpt>
      <trkpt lat="41.54768" lon="19.68527">
        <ele>63.574652</ele>
        <time>2022-05-14T10:54:15.082Z</time>
      </trkpt>
      <trkpt lat="41.5477" lon="19.68511">
        <ele>63.377918</ele>
        <time>2022-05-14T10:54:17.082Z</time>
      </trkpt>
      <trkpt lat="41.54772" lon="19.68496">
        <ele>63.186395</ele>
        <time>2022-05-14T10:54:19.069Z</time>
      </trkpt>
      <trkpt lat="41.54774" lon="19.68481">
        <ele>62.992111</ele>
        <time>2022-05-14T10:54:21.106Z</time>
      </trkpt>
      <trkpt lat="41.54777" lon="19.68466">
        <ele>62.802051</ele>
        <time>2022-05-14T10:54:23.073Z</time>
      </trkpt>
      <trkpt lat="41.5478" lon="19.68451">
        <ele>62.612339</ele>
        <time>2022-05-14T10:54:25.071Z</time>
      </trkpt>
      <trkpt lat="41.54783" lon="19.68436">
        <ele>62.418346</ele>
        <time>2022-05-14T10:54:27.088Z</time>
      </trkpt>
      <trkpt lat="41.54785" lon="19.68421">
        <ele>62.222482</ele>
        <time>2022-05-14T10:54:29.090Z</time>
      </trkpt>
      <trkpt lat="41.54788" lon="19.68406">
        <ele>62.034883</ele>
        <time>2022-05-14T10:54:31.082Z</time>
      </trkpt>
      <trkpt lat="41.54789" lon="19.68392">
        <ele>61.855284</ele>
        <time>2022-05-14T10:54:33.078Z</time>
      </trkpt>
      <trkpt lat="41.54792" lon="19.68378">
        <ele>61.668137</ele>
        <time>2022-05-14T10:54:35.092Z</time>
      </trkpt>
      <trkpt lat="41.54793" lon="19.68364">
        <ele>61.492413</ele>
        <time>2022-05-14T10:54:37.090Z</time>
      </trkpt>
      <trkpt lat="41.54792" lon="19.68349">
        <ele>61.311541</ele>
        <time>2022-05-14T10:54:39.079Z</time>
      </trkpt>
      <trkpt lat="41.54789" lon="19.68334">
        <ele>61.093854</ele>
        <time>2022-05-14T10:54:41.169Z</time>
      </trkpt>
      <trkpt lat="41.54783" lon="19.68318">
        <ele>60.845592</ele>
        <time>2022-05-14T10:54:43.099Z</time>
      </trkpt>
      <trkpt lat="41.54777" lon="19.68304">
        <ele>60.611997</ele>
        <time>2022-05-14T10:54:45.083Z</time>
      </trkpt>
      <trkpt lat="41.54771" lon="19.68289">
        <ele>60.376537</ele>
        <time>2022-05-14T10:54:47.081Z</time>
      </trkpt>
      <trkpt lat="41.54764" lon="19.68275">
        <ele>60.147639</ele>
        <time>2022-05-14T10:54:49.070Z</time>
      </trkpt>
      <trkpt lat="41.54758" lon="19.68262">
        <ele>59.927958</ele>
        <time>2022-05-14T10:54:51.072Z</time>
      </trkpt>
      <trkpt lat="41.54753" lon="19.68249">
        <ele>59.714133</ele>
        <time>2022-05-14T10:54:53.100Z</time>
      </trkpt>
      <trkpt lat="41.54747" lon="19.68237">
        <ele>59.507393</ele>
        <time>2022-05-14T10:54:55.080Z</time>
      </trkpt>
      <trkpt lat="41.54742" lon="19.68224">
        <ele>59.303096</ele>
        <time>2022-05-14T10:54:57.076Z</time>
      </trkpt>
      <trkpt lat="41.54736" lon="19.68212">
        <ele>59.108043</ele>
        <time>2022-05-14T10:54:59.065Z</time>
      </trkpt>
      <trkpt lat="41.54731" lon="19.682">
        <ele>58.91338</ele>
        <time>2022-05-14T10:55:01.078Z</time>
      </trkpt>
      <trkpt lat="41.54727" lon="19.68189">
        <ele>58.724805</ele>
        <time>2022-05-14T10:55:03.096Z</time>
      </trkpt>
      <trkpt lat="41.54722" lon="19.68177">
        <ele>58.530705</ele>
        <time>2022-05-14T10:55:05.087Z</time>
      </trkpt>
      <trkpt lat="41.54719" lon="19.68164">
        <ele>58.346189</ele>
        <time>2022-05-14T10:55:07.136Z</time>
      </trkpt>
      <trkpt lat="41.54716" lon="19.68152">
        <ele>58.159614</ele>
        <time>2022-05-14T10:55:09.084Z</time>
      </trkpt>
      <trkpt lat="41.54716" lon="19.68136">
        <ele>57.942727</ele>
        <time>2022-05-14T10:55:12.117Z</time>
      </trkpt>
      <trkpt lat="41.54718" lon="19.68121">
        <ele>57.777171</ele>
        <time>2022-05-14T10:55:16.096Z</time>
      </trkpt>
      <trkpt lat="41.54721" lon="19.68109">
        <ele>57.674922</ele>
        <time>2022-05-14T10:55:19.073Z</time>
      </trkpt>
      <trkpt lat="41.54726" lon="19.68098">
        <ele>57.569305</ele>
        <time>2022-05-14T10:55:22.144Z</time>
      </trkpt>
      <trkpt lat="41.54731" lon="19.68088">
        <ele>57.474747</ele>
        <time>2022-05-14T10:55:25.071Z</time>
      </trkpt>
      <trkpt lat="41.54736" lon="19.68077">
        <ele>57.371915</ele>
        <time>2022-05-14T10:55:29.073Z</time>
      </trkpt>
      <trkpt lat="41.54743" lon="19.68067">
        <ele>57.268573</ele>
        <time>2022-05-14T10:55:32.085Z</time>
      </trkpt>
      <trkpt lat="41.5475" lon="19.68054">
        <ele>57.143796</ele>
        <time>2022-05-14T10:55:35.056Z</time>
      </trkpt>
      <trkpt lat="41.54756" lon="19.68041">
        <ele>57.026884</ele>
        <time>2022-05-14T10:55:38.078Z</time>
      </trkpt>
      <trkpt lat="41.54761" lon="19.68029">
        <ele>56.907958</ele>
        <time>2022-05-14T10:55:41.072Z</time>
      </trkpt>
      <trkpt lat="41.54767" lon="19.68015">
        <ele>56.789453</ele>
        <time>2022-05-14T10:55:44.094Z</time>
      </trkpt>
      <trkpt lat="41.54772" lon="19.68001">
        <ele>56.662707</ele>
        <time>2022-05-14T10:55:47.074Z</time>
      </trkpt>
      <trkpt lat="41.54776" lon="19.67987">
        <ele>56.546516</ele>
        <time>2022-05-14T10:55:50.077Z</time>
      </trkpt>
      <trkpt lat="41.5478" lon="19.67974">
        <ele>56.432723</ele>
        <time>2022-05-14T10:55:53.084Z</time>
      </trkpt>
      <trkpt lat="41.54784" lon="19.67961">
        <ele>56.323708</ele>
        <time>2022-05-14T10:55:56.080Z</time>
      </trkpt>
      <trkpt lat="41.54786" lon="19.67949">
        <ele>56.222115</ele>
        <time>2022-05-14T10:55:59.098Z</time>
      </trkpt>
      <trkpt lat="41.54789" lon="19.67937">
        <ele>56.12281</ele>
        <time>2022-05-14T10:56:02.069Z</time>
      </trkpt>
      <trkpt lat="41.54792" lon="19.67921">
        <ele>55.998452</ele>
        <time>2022-05-14T10:56:05.088Z</time>
      </trkpt>
      <trkpt lat="41.54794" lon="19.67906">
        <ele>56.060063</ele>
        <time>2022-05-14T10:56:08.074Z</time>
      </trkpt>
      <trkpt lat="41.54798" lon="19.67891">
        <ele>56.269528</ele>
        <time>2022-05-14T10:56:11.081Z</time>
      </trkpt>
      <trkpt lat="41.54803" lon="19.67878">
        <ele>56.467969</ele>
        <time>2022-05-14T10:56:14.088Z</time>
      </trkpt>
      <trkpt lat="41.54809" lon="19.67865">
        <ele>56.675427</ele>
        <time>2022-05-14T10:56:17.105Z</time>
      </trkpt>
      <trkpt lat="41.54817" lon="19.67858">
        <ele>56.861473</ele>
        <time>2022-05-14T10:56:20.081Z</time>
      </trkpt>
      <trkpt lat="41.54828" lon="19.67853">
        <ele>57.07023</ele>
        <time>2022-05-14T10:56:23.088Z</time>
      </trkpt>
      <trkpt lat="41.54838" lon="19.67849">
        <ele>57.247498</ele>
        <time>2022-05-14T10:56:26.075Z</time>
      </trkpt>
      <trkpt lat="41.54847" lon="19.67845">
        <ele>57.434459</ele>
        <time>2022-05-14T10:56:31.079Z</time>
      </trkpt>
      <trkpt lat="41.54858" lon="19.67842">
        <ele>57.628641</ele>
        <time>2022-05-14T10:56:35.126Z</time>
      </trkpt>
      <trkpt lat="41.54867" lon="19.67838">
        <ele>57.806279</ele>
        <time>2022-05-14T10:56:38.105Z</time>
      </trkpt>
      <trkpt lat="41.54877" lon="19.67834">
        <ele>57.996892</ele>
        <time>2022-05-14T10:56:41.064Z</time>
      </trkpt>
      <trkpt lat="41.54887" lon="19.67831">
        <ele>58.184342</ele>
        <time>2022-05-14T10:56:44.077Z</time>
      </trkpt>
      <trkpt lat="41.54897" lon="19.67827">
        <ele>58.370376</ele>
        <time>2022-05-14T10:56:47.077Z</time>
      </trkpt>
      <trkpt lat="41.54907" lon="19.67823">
        <ele>58.55132</ele>
        <time>2022-05-14T10:56:50.101Z</time>
      </trkpt>
      <trkpt lat="41.54916" lon="19.6782">
        <ele>58.729298</ele>
        <time>2022-05-14T10:56:53.069Z</time>
      </trkpt>
      <trkpt lat="41.54925" lon="19.67817">
        <ele>58.896728</ele>
        <time>2022-05-14T10:56:56.075Z</time>
      </trkpt>
      <trkpt lat="41.54934" lon="19.67814">
        <ele>59.069615</ele>
        <time>2022-05-14T10:56:59.079Z</time>
      </trkpt>
      <trkpt lat="41.54944" lon="19.67811">
        <ele>59.286688</ele>
        <time>2022-05-14T10:57:02.069Z</time>
      </trkpt>
      <trkpt lat="41.54953" lon="19.67807">
        <ele>59.632529</ele>
        <time>2022-05-14T10:57:05.072Z</time>
      </trkpt>
      <trkpt lat="41.54963" lon="19.67803">
        <ele>60.020859</ele>
        <time>2022-05-14T10:57:08.063Z</time>
      </trkpt>
      <trkpt lat="41.54973" lon="19.678">
        <ele>60.404071</ele>
        <time>2022-05-14T10:57:11.078Z</time>
      </trkpt>
      <trkpt lat="41.54982" lon="19.67797">
        <ele>60.778242</ele>
        <time>2022-05-14T10:57:14.121Z</time>
      </trkpt>
      <trkpt lat="41.54991" lon="19.67793">
        <ele>61.127661</ele>
        <time>2022-05-14T10:57:17.087Z</time>
      </trkpt>
      <trkpt lat="41.55001" lon="19.6779">
        <ele>61.488597</ele>
        <time>2022-05-14T10:57:20.102Z</time>
      </trkpt>
      <trkpt lat="41.5501" lon="19.67786">
        <ele>61.832904</ele>
        <time>2022-05-14T10:57:23.084Z</time>
      </trkpt>
      <trkpt lat="41.55018" lon="19.67782">
        <ele>62.184757</ele>
        <time>2022-05-14T10:57:26.120Z</time>
      </trkpt>
      <trkpt lat="41.55028" lon="19.6778">
        <ele>62.560196</ele>
        <time>2022-05-14T10:57:29.109Z</time>
      </trkpt>
      <trkpt lat="41.55039" lon="19.67778">
        <ele>62.967188</ele>
        <time>2022-05-14T10:57:33.087Z</time>
      </trkpt>
      <trkpt lat="41.55049" lon="19.67774">
        <ele>63.346062</ele>
        <time>2022-05-14T10:57:37.094Z</time>
      </trkpt>
      <trkpt lat="41.55058" lon="19.67771">
        <ele>63.681437</ele>
        <time>2022-05-14T10:57:40.087Z</time>
      </trkpt>
      <trkpt lat="41.55067" lon="19.67768">
        <ele>64.035218</ele>
        <time>2022-05-14T10:57:43.102Z</time>
      </trkpt>
      <trkpt lat="41.55076" lon="19.67764">
        <ele>64.40332</ele>
        <time>2022-05-14T10:57:46.077Z</time>
      </trkpt>
      <trkpt lat="41.55088" lon="19.6776">
        <ele>64.835485</ele>
        <time>2022-05-14T10:57:50.074Z</time>
      </trkpt>
      <trkpt lat="41.55096" lon="19.67757">
        <ele>65.173356</ele>
        <time>2022-05-14T10:57:53.083Z</time>
      </trkpt>
      <trkpt lat="41.55106" lon="19.67754">
        <ele>65.542873</ele>
        <time>2022-05-14T10:57:56.085Z</time>
      </trkpt>
      <trkpt lat="41.55115" lon="19.67751">
        <ele>65.905174</ele>
        <time>2022-05-14T10:57:59.080Z</time>
      </trkpt>
      <trkpt lat="41.55125" lon="19.67746">
        <ele>65.655637</ele>
        <time>2022-05-14T10:58:02.083Z</time>
      </trkpt>
      <trkpt lat="41.55136" lon="19.67742">
        <ele>65.384029</ele>
        <time>2022-05-14T10:58:05.059Z</time>
      </trkpt>
      <trkpt lat="41.55146" lon="19.67738">
        <ele>65.117805</ele>
        <time>2022-05-14T10:58:08.077Z</time>
      </trkpt>
      <trkpt lat="41.55156" lon="19.67735">
        <ele>64.854112</ele>
        <time>2022-05-14T10:58:11.089Z</time>
      </trkpt>
      <trkpt lat="41.55165" lon="19.67731">
        <ele>64.62363</ele>
        <time>2022-05-14T10:58:14.088Z</time>
      </trkpt>
      <trkpt lat="41.55175" lon="19.67728">
        <ele>64.340321</ele>
        <time>2022-05-14T10:58:18.065Z</time>
      </trkpt>
      <trkpt lat="41.55187" lon="19.67726">
        <ele>64.051452</ele>
        <time>2022-05-14T10:58:22.063Z</time>
      </trkpt>
      <trkpt lat="41.55198" lon="19.67724">
        <ele>63.77757</ele>
        <time>2022-05-14T10:58:26.090Z</time>
      </trkpt>
      <trkpt lat="41.55209" lon="19.67724">
        <ele>63.488965</ele>
        <time>2022-05-14T10:58:30.078Z</time>
      </trkpt>
      <trkpt lat="41.55218" lon="19.67723">
        <ele>63.258708</ele>
        <time>2022-05-14T10:58:33.083Z</time>
      </trkpt>
      <trkpt lat="41.55228" lon="19.67721">
        <ele>63.011707</ele>
        <time>2022-05-14T10:58:36.072Z</time>
      </trkpt>
      <trkpt lat="41.55238" lon="19.67721">
        <ele>62.758872</ele>
        <time>2022-05-14T10:58:39.083Z</time>
      </trkpt>
      <trkpt lat="41.55248" lon="19.6772">
        <ele>62.49056</ele>
        <time>2022-05-14T10:58:42.080Z</time>
      </trkpt>
      <trkpt lat="41.55259" lon="19.67719">
        <ele>62.214775</ele>
        <time>2022-05-14T10:58:45.078Z</time>
      </trkpt>
      <trkpt lat="41.5527" lon="19.6772">
        <ele>61.944039</ele>
        <time>2022-05-14T10:58:48.089Z</time>
      </trkpt>
      <trkpt lat="41.5528" lon="19.67721">
        <ele>61.69591</ele>
        <time>2022-05-14T10:58:51.070Z</time>
      </trkpt>
      <trkpt lat="41.55289" lon="19.67721">
        <ele>61.450704</ele>
        <time>2022-05-14T10:58:54.065Z</time>
      </trkpt>
      <trkpt lat="41.55299" lon="19.67721">
        <ele>61.365515</ele>
        <time>2022-05-14T10:58:57.118Z</time>
      </trkpt>
      <trkpt lat="41.5531" lon="19.67721">
        <ele>61.360941</ele>
        <time>2022-05-14T10:59:00.080Z</time>
      </trkpt>
      <trkpt lat="41.5532" lon="19.67721">
        <ele>61.356412</ele>
        <time>2022-05-14T10:59:03.073Z</time>
      </trkpt>
      <trkpt lat="41.5533" lon="19.67722">
        <ele>61.352099</ele>
        <time>2022-05-14T10:59:06.071Z</time>
      </trkpt>
      <trkpt lat="41.5534" lon="19.67721">
        <ele>61.34743</ele>
        <time>2022-05-14T10:59:09.061Z</time>
      </trkpt>
      <trkpt lat="41.55351" lon="19.67721">
        <ele>61.342549</ele>
        <time>2022-05-14T10:59:12.085Z</time>
      </trkpt>
      <trkpt lat="41.55362" lon="19.67721">
        <ele>61.337975</ele>
        <time>2022-05-14T10:59:15.080Z</time>
      </trkpt>
      <trkpt lat="41.55372" lon="19.67721">
        <ele>61.33371</ele>
        <time>2022-05-14T10:59:18.094Z</time>
      </trkpt>
      <trkpt lat="41.55381" lon="19.6772">
        <ele>61.329573</ele>
        <time>2022-05-14T10:59:21.080Z</time>
      </trkpt>
      <trkpt lat="41.55392" lon="19.6772">
        <ele>61.324779</ele>
        <time>2022-05-14T10:59:25.063Z</time>
      </trkpt>
      <trkpt lat="41.55402" lon="19.6772">
        <ele>61.32038</ele>
        <time>2022-05-14T10:59:28.058Z</time>
      </trkpt>
      <trkpt lat="41.55413" lon="19.67718">
        <ele>61.315605</ele>
        <time>2022-05-14T10:59:31.071Z</time>
      </trkpt>
      <trkpt lat="41.55423" lon="19.67717">
        <ele>61.311059</ele>
        <time>2022-05-14T10:59:34.063Z</time>
      </trkpt>
      <trkpt lat="41.55433" lon="19.67718">
        <ele>61.306785</ele>
        <time>2022-05-14T10:59:37.085Z</time>
      </trkpt>
      <trkpt lat="41.55442" lon="19.67718">
        <ele>61.302608</ele>
        <time>2022-05-14T10:59:40.087Z</time>
      </trkpt>
      <trkpt lat="41.55452" lon="19.67719">
        <ele>61.298246</ele>
        <time>2022-05-14T10:59:43.080Z</time>
      </trkpt>
      <trkpt lat="41.55462" lon="19.67719">
        <ele>61.293761</ele>
        <time>2022-05-14T10:59:46.089Z</time>
      </trkpt>
      <trkpt lat="41.55473" lon="19.67718">
        <ele>61.299666</ele>
        <time>2022-05-14T10:59:49.088Z</time>
      </trkpt>
      <trkpt lat="41.55483" lon="19.67718">
        <ele>61.528562</ele>
        <time>2022-05-14T10:59:52.053Z</time>
      </trkpt>
      <trkpt lat="41.55493" lon="19.67717">
        <ele>61.748436</ele>
        <time>2022-05-14T10:59:55.086Z</time>
      </trkpt>
      <trkpt lat="41.55502" lon="19.67717">
        <ele>61.961646</ele>
        <time>2022-05-14T10:59:58.080Z</time>
      </trkpt>
      <trkpt lat="41.55512" lon="19.67717">
        <ele>62.183718</ele>
        <time>2022-05-14T11:00:01.083Z</time>
      </trkpt>
      <trkpt lat="41.55522" lon="19.67716">
        <ele>62.403803</ele>
        <time>2022-05-14T11:00:04.082Z</time>
      </trkpt>
      <trkpt lat="41.55531" lon="19.67716">
        <ele>62.614605</ele>
        <time>2022-05-14T11:00:07.087Z</time>
      </trkpt>
      <trkpt lat="41.55541" lon="19.67716">
        <ele>62.825414</ele>
        <time>2022-05-14T11:00:10.079Z</time>
      </trkpt>
      <trkpt lat="41.5555" lon="19.67715">
        <ele>63.031839</ele>
        <time>2022-05-14T11:00:13.092Z</time>
      </trkpt>
      <trkpt lat="41.55559" lon="19.67715">
        <ele>63.240405</ele>
        <time>2022-05-14T11:00:16.103Z</time>
      </trkpt>
      <trkpt lat="41.55569" lon="19.67715">
        <ele>63.464763</ele>
        <time>2022-05-14T11:00:19.084Z</time>
      </trkpt>
      <trkpt lat="41.5558" lon="19.67715">
        <ele>63.695772</ele>
        <time>2022-05-14T11:00:22.075Z</time>
      </trkpt>
      <trkpt lat="41.5559" lon="19.67715">
        <ele>63.92457</ele>
        <time>2022-05-14T11:00:25.091Z</time>
      </trkpt>
      <trkpt lat="41.556" lon="19.67715">
        <ele>64.146585</ele>
        <time>2022-05-14T11:00:28.084Z</time>
      </trkpt>
      <trkpt lat="41.55609" lon="19.67714">
        <ele>64.355252</ele>
        <time>2022-05-14T11:00:31.084Z</time>
      </trkpt>
      <trkpt lat="41.55618" lon="19.67714">
        <ele>64.566161</ele>
        <time>2022-05-14T11:00:34.084Z</time>
      </trkpt>
      <trkpt lat="41.55628" lon="19.67713">
        <ele>64.781611</ele>
        <time>2022-05-14T11:00:37.099Z</time>
      </trkpt>
      <trkpt lat="41.55638" lon="19.67713">
        <ele>65.001697</ele>
        <time>2022-05-14T11:00:40.108Z</time>
      </trkpt>
      <trkpt lat="41.55648" lon="19.67713">
        <ele>65.221475</ele>
        <time>2022-05-14T11:00:43.082Z</time>
      </trkpt>
      <trkpt lat="41.55657" lon="19.67713">
        <ele>65.33023</ele>
        <time>2022-05-14T11:00:46.088Z</time>
      </trkpt>
      <trkpt lat="41.55667" lon="19.67713">
        <ele>65.344833</ele>
        <time>2022-05-14T11:00:49.078Z</time>
      </trkpt>
      <trkpt lat="41.55677" lon="19.67713">
        <ele>65.360189</ele>
        <time>2022-05-14T11:00:52.107Z</time>
      </trkpt>
      <trkpt lat="41.55688" lon="19.67714">
        <ele>65.377254</ele>
        <time>2022-05-14T11:00:55.071Z</time>
      </trkpt>
      <trkpt lat="41.55701" lon="19.67715">
        <ele>65.396298</ele>
        <time>2022-05-14T11:00:58.089Z</time>
      </trkpt>
      <trkpt lat="41.55712" lon="19.67719">
        <ele>65.413075</ele>
        <time>2022-05-14T11:01:01.066Z</time>
      </trkpt>
      <trkpt lat="41.55723" lon="19.67724">
        <ele>65.430357</ele>
        <time>2022-05-14T11:01:04.072Z</time>
      </trkpt>
      <trkpt lat="41.55733" lon="19.67729">
        <ele>65.44714</ele>
        <time>2022-05-14T11:01:07.084Z</time>
      </trkpt>
      <trkpt lat="41.55742" lon="19.67736">
        <ele>65.463022</ele>
        <time>2022-05-14T11:01:10.070Z</time>
      </trkpt>
      <trkpt lat="41.55751" lon="19.67745">
        <ele>65.479485</ele>
        <time>2022-05-14T11:01:13.091Z</time>
      </trkpt>
      <trkpt lat="41.55759" lon="19.67753">
        <ele>65.495365</ele>
        <time>2022-05-14T11:01:16.074Z</time>
      </trkpt>
      <trkpt lat="41.55767" lon="19.67762">
        <ele>65.509606</ele>
        <time>2022-05-14T11:01:19.066Z</time>
      </trkpt>
      <trkpt lat="41.55775" lon="19.67771">
        <ele>65.525725</ele>
        <time>2022-05-14T11:01:22.084Z</time>
      </trkpt>
      <trkpt lat="41.55783" lon="19.6778">
        <ele>65.542191</ele>
        <time>2022-05-14T11:01:25.087Z</time>
      </trkpt>
      <trkpt lat="41.55791" lon="19.6779">
        <ele>65.558793</ele>
        <time>2022-05-14T11:01:28.079Z</time>
      </trkpt>
      <trkpt lat="41.558" lon="19.678">
        <ele>65.575547</ele>
        <time>2022-05-14T11:01:31.082Z</time>
      </trkpt>
      <trkpt lat="41.55808" lon="19.67809">
        <ele>65.592273</ele>
        <time>2022-05-14T11:01:34.078Z</time>
      </trkpt>
      <trkpt lat="41.55817" lon="19.67819">
        <ele>65.679635</ele>
        <time>2022-05-14T11:01:37.085Z</time>
      </trkpt>
      <trkpt lat="41.55825" lon="19.67828">
        <ele>65.769181</ele>
        <time>2022-05-14T11:01:40.072Z</time>
      </trkpt>
      <trkpt lat="41.55833" lon="19.67838">
        <ele>65.856194</ele>
        <time>2022-05-14T11:01:43.116Z</time>
      </trkpt>
      <trkpt lat="41.55841" lon="19.67847">
        <ele>65.938084</ele>
        <time>2022-05-14T11:01:46.072Z</time>
      </trkpt>
      <trkpt lat="41.55847" lon="19.67855">
        <ele>66.013066</ele>
        <time>2022-05-14T11:01:49.084Z</time>
      </trkpt>
      <trkpt lat="41.55854" lon="19.67864">
        <ele>66.0952</ele>
        <time>2022-05-14T11:01:52.080Z</time>
      </trkpt>
      <trkpt lat="41.55861" lon="19.67874">
        <ele>66.176583</ele>
        <time>2022-05-14T11:01:55.090Z</time>
      </trkpt>
      <trkpt lat="41.55868" lon="19.67884">
        <ele>66.260583</ele>
        <time>2022-05-14T11:01:58.080Z</time>
      </trkpt>
      <trkpt lat="41.55874" lon="19.67896">
        <ele>66.347531</ele>
        <time>2022-05-14T11:02:01.096Z</time>
      </trkpt>
      <trkpt lat="41.55879" lon="19.67907">
        <ele>66.433666</ele>
        <time>2022-05-14T11:02:04.094Z</time>
      </trkpt>
      <trkpt lat="41.55884" lon="19.67919">
        <ele>66.518405</ele>
        <time>2022-05-14T11:02:07.061Z</time>
      </trkpt>
      <trkpt lat="41.55889" lon="19.67931">
        <ele>66.602354</ele>
        <time>2022-05-14T11:02:10.085Z</time>
      </trkpt>
      <trkpt lat="41.55894" lon="19.67944">
        <ele>66.688296</ele>
        <time>2022-05-14T11:02:13.079Z</time>
      </trkpt>
      <trkpt lat="41.55898" lon="19.67957">
        <ele>66.77363</ele>
        <time>2022-05-14T11:02:16.090Z</time>
      </trkpt>
      <trkpt lat="41.55901" lon="19.67969">
        <ele>66.855107</ele>
        <time>2022-05-14T11:02:19.077Z</time>
      </trkpt>
      <trkpt lat="41.55905" lon="19.67982">
        <ele>66.93954</ele>
        <time>2022-05-14T11:02:22.084Z</time>
      </trkpt>
      <trkpt lat="41.55906" lon="19.67996">
        <ele>67.025963</ele>
        <time>2022-05-14T11:02:25.082Z</time>
      </trkpt>
      <trkpt lat="41.55908" lon="19.68009">
        <ele>67.13422</ele>
        <time>2022-05-14T11:02:28.119Z</time>
      </trkpt>
      <trkpt lat="41.55909" lon="19.68023">
        <ele>67.274559</ele>
        <time>2022-05-14T11:02:31.089Z</time>
      </trkpt>
      <trkpt lat="41.55909" lon="19.68036">
        <ele>67.412273</ele>
        <time>2022-05-14T11:02:34.081Z</time>
      </trkpt>
      <trkpt lat="41.55909" lon="19.68049">
        <ele>67.55477</ele>
        <time>2022-05-14T11:02:37.084Z</time>
      </trkpt>
      <trkpt lat="41.55908" lon="19.68062">
        <ele>67.693189</ele>
        <time>2022-05-14T11:02:40.063Z</time>
      </trkpt>
      <trkpt lat="41.55908" lon="19.68075">
        <ele>67.828612</ele>
        <time>2022-05-14T11:02:43.087Z</time>
      </trkpt>
      <trkpt lat="41.55908" lon="19.68088">
        <ele>67.957495</ele>
        <time>2022-05-14T11:02:46.071Z</time>
      </trkpt>
      <trkpt lat="41.55907" lon="19.68104">
        <ele>68.125284</ele>
        <time>2022-05-14T11:02:50.101Z</time>
      </trkpt>
      <trkpt lat="41.55907" lon="19.68116">
        <ele>68.259427</ele>
        <time>2022-05-14T11:02:53.091Z</time>
      </trkpt>
      <trkpt lat="41.55907" lon="19.68129">
        <ele>68.395702</ele>
        <time>2022-05-14T11:02:56.101Z</time>
      </trkpt>
      <trkpt lat="41.55906" lon="19.68142">
        <ele>68.529846</ele>
        <time>2022-05-14T11:02:59.106Z</time>
      </trkpt>
      <trkpt lat="41.55906" lon="19.68156">
        <ele>68.669262</ele>
        <time>2022-05-14T11:03:02.083Z</time>
      </trkpt>
      <trkpt lat="41.55906" lon="19.68168">
        <ele>68.803493</ele>
        <time>2022-05-14T11:03:05.096Z</time>
      </trkpt>
      <trkpt lat="41.55906" lon="19.68181">
        <ele>68.931329</ele>
        <time>2022-05-14T11:03:08.102Z</time>
      </trkpt>
      <trkpt lat="41.55905" lon="19.68193">
        <ele>69.060235</ele>
        <time>2022-05-14T11:03:11.075Z</time>
      </trkpt>
      <trkpt lat="41.55905" lon="19.68205">
        <ele>69.190226</ele>
        <time>2022-05-14T11:03:14.091Z</time>
      </trkpt>
      <trkpt lat="41.55905" lon="19.68218">
        <ele>69.323322</ele>
        <time>2022-05-14T11:03:17.089Z</time>
      </trkpt>
      <trkpt lat="41.55906" lon="19.68231">
        <ele>69.459561</ele>
        <time>2022-05-14T11:03:20.074Z</time>
      </trkpt>
      <trkpt lat="41.55906" lon="19.68244">
        <ele>69.599854</ele>
        <time>2022-05-14T11:03:23.084Z</time>
      </trkpt>
      <trkpt lat="41.55906" lon="19.68258">
        <ele>69.741496</ele>
        <time>2022-05-14T11:03:26.091Z</time>
      </trkpt>
      <trkpt lat="41.55907" lon="19.68272">
        <ele>69.877081</ele>
        <time>2022-05-14T11:03:29.114Z</time>
      </trkpt>
      <trkpt lat="41.55907" lon="19.68285">
        <ele>70.006548</ele>
        <time>2022-05-14T11:03:32.082Z</time>
      </trkpt>
      <trkpt lat="41.55908" lon="19.68297">
        <ele>70.136247</ele>
        <time>2022-05-14T11:03:35.110Z</time>
      </trkpt>
      <trkpt lat="41.55909" lon="19.6831">
        <ele>70.261915</ele>
        <time>2022-05-14T11:03:38.079Z</time>
      </trkpt>
      <trkpt lat="41.55909" lon="19.68323">
        <ele>70.394638</ele>
        <time>2022-05-14T11:03:41.069Z</time>
      </trkpt>
      <trkpt lat="41.5591" lon="19.68336">
        <ele>70.531393</ele>
        <time>2022-05-14T11:03:44.075Z</time>
      </trkpt>
      <trkpt lat="41.55911" lon="19.68349">
        <ele>70.65993</ele>
        <time>2022-05-14T11:03:47.082Z</time>
      </trkpt>
      <trkpt lat="41.55912" lon="19.68362">
        <ele>70.787842</ele>
        <time>2022-05-14T11:03:50.079Z</time>
      </trkpt>
      <trkpt lat="41.55914" lon="19.68374">
        <ele>70.912574</ele>
        <time>2022-05-14T11:03:53.092Z</time>
      </trkpt>
      <trkpt lat="41.55915" lon="19.68387">
        <ele>71.046794</ele>
        <time>2022-05-14T11:03:56.086Z</time>
      </trkpt>
      <trkpt lat="41.55916" lon="19.684">
        <ele>71.177523</ele>
        <time>2022-05-14T11:03:59.087Z</time>
      </trkpt>
      <trkpt lat="41.55918" lon="19.68412">
        <ele>71.307904</ele>
        <time>2022-05-14T11:04:02.065Z</time>
      </trkpt>
      <trkpt lat="41.5592" lon="19.68425">
        <ele>71.436805</ele>
        <time>2022-05-14T11:04:05.126Z</time>
      </trkpt>
      <trkpt lat="41.55922" lon="19.68438">
        <ele>71.568245</ele>
        <time>2022-05-14T11:04:08.111Z</time>
      </trkpt>
      <trkpt lat="41.55924" lon="19.6845">
        <ele>71.694755</ele>
        <time>2022-05-14T11:04:11.089Z</time>
      </trkpt>
      <trkpt lat="41.55926" lon="19.68462">
        <ele>71.823236</ele>
        <time>2022-05-14T11:04:14.072Z</time>
      </trkpt>
      <trkpt lat="41.55928" lon="19.68475">
        <ele>71.95511</ele>
        <time>2022-05-14T11:04:17.074Z</time>
      </trkpt>
      <trkpt lat="41.55931" lon="19.68488">
        <ele>72.059082</ele>
        <time>2022-05-14T11:04:20.085Z</time>
      </trkpt>
      <trkpt lat="41.55933" lon="19.68501">
        <ele>72.128495</ele>
        <time>2022-05-14T11:04:23.095Z</time>
      </trkpt>
      <trkpt lat="41.55935" lon="19.68514">
        <ele>72.198219</ele>
        <time>2022-05-14T11:04:26.088Z</time>
      </trkpt>
      <trkpt lat="41.55937" lon="19.68527">
        <ele>72.267784</ele>
        <time>2022-05-14T11:04:29.092Z</time>
      </trkpt>
      <trkpt lat="41.55939" lon="19.6854">
        <ele>72.336836</ele>
        <time>2022-05-14T11:04:32.085Z</time>
      </trkpt>
      <trkpt lat="41.55942" lon="19.68552">
        <ele>72.404179</ele>
        <time>2022-05-14T11:04:35.072Z</time>
      </trkpt>
      <trkpt lat="41.55944" lon="19.68565">
        <ele>72.471759</ele>
        <time>2022-05-14T11:04:38.079Z</time>
      </trkpt>
      <trkpt lat="41.55946" lon="19.68577">
        <ele>72.538453</ele>
        <time>2022-05-14T11:04:41.078Z</time>
      </trkpt>
      <trkpt lat="41.55947" lon="19.68589">
        <ele>72.602801</ele>
        <time>2022-05-14T11:04:44.103Z</time>
      </trkpt>
      <trkpt lat="41.55949" lon="19.68601">
        <ele>72.669256</ele>
        <time>2022-05-14T11:04:47.094Z</time>
      </trkpt>
      <trkpt lat="41.5595" lon="19.68614">
        <ele>72.735414</ele>
        <time>2022-05-14T11:04:50.072Z</time>
      </trkpt>
      <trkpt lat="41.55952" lon="19.68626">
        <ele>72.802994</ele>
        <time>2022-05-14T11:04:53.076Z</time>
      </trkpt>
      <trkpt lat="41.55954" lon="19.68639">
        <ele>72.87109</ele>
        <time>2022-05-14T11:04:56.068Z</time>
      </trkpt>
      <trkpt lat="41.55957" lon="19.68652">
        <ele>72.939281</ele>
        <time>2022-05-14T11:04:59.080Z</time>
      </trkpt>
      <trkpt lat="41.55958" lon="19.68664">
        <ele>73.006725</ele>
        <time>2022-05-14T11:05:02.083Z</time>
      </trkpt>
      <trkpt lat="41.5596" lon="19.68677">
        <ele>73.073274</ele>
        <time>2022-05-14T11:05:05.091Z</time>
      </trkpt>
      <trkpt lat="41.55961" lon="19.68689">
        <ele>73.136758</ele>
        <time>2022-05-14T11:05:08.104Z</time>
      </trkpt>
      <trkpt lat="41.55962" lon="19.68704">
        <ele>73.218096</ele>
        <time>2022-05-14T11:05:12.122Z</time>
      </trkpt>
      <trkpt lat="41.55963" lon="19.6872">
        <ele>73.321394</ele>
        <time>2022-05-14T11:05:16.079Z</time>
      </trkpt>
      <trkpt lat="41.55964" lon="19.68733">
        <ele>73.475794</ele>
        <time>2022-05-14T11:05:19.079Z</time>
      </trkpt>
      <trkpt lat="41.55965" lon="19.68745">
        <ele>73.624629</ele>
        <time>2022-05-14T11:05:22.082Z</time>
      </trkpt>
      <trkpt lat="41.55966" lon="19.68757">
        <ele>73.771969</ele>
        <time>2022-05-14T11:05:25.116Z</time>
      </trkpt>
      <trkpt lat="41.55966" lon="19.68769">
        <ele>73.919444</ele>
        <time>2022-05-14T11:05:28.070Z</time>
      </trkpt>
      <trkpt lat="41.55967" lon="19.68782">
        <ele>74.072632</ele>
        <time>2022-05-14T11:05:31.101Z</time>
      </trkpt>
      <trkpt lat="41.55967" lon="19.68794">
        <ele>74.223395</ele>
        <time>2022-05-14T11:05:34.091Z</time>
      </trkpt>
      <trkpt lat="41.55968" lon="19.68807">
        <ele>74.376789</ele>
        <time>2022-05-14T11:05:37.092Z</time>
      </trkpt>
      <trkpt lat="41.55969" lon="19.68819">
        <ele>74.526551</ele>
        <time>2022-05-14T11:05:40.070Z</time>
      </trkpt>
      <trkpt lat="41.55969" lon="19.68834">
        <ele>74.70538</ele>
        <time>2022-05-14T11:05:44.080Z</time>
      </trkpt>
      <trkpt lat="41.5597" lon="19.68849">
        <ele>74.890495</ele>
        <time>2022-05-14T11:05:48.079Z</time>
      </trkpt>
      <trkpt lat="41.55971" lon="19.68865">
        <ele>75.084807</ele>
        <time>2022-05-14T11:05:52.103Z</time>
      </trkpt>
      <trkpt lat="41.55971" lon="19.6888">
        <ele>75.272224</ele>
        <time>2022-05-14T11:05:56.078Z</time>
      </trkpt>
      <trkpt lat="41.55972" lon="19.68893">
        <ele>75.423196</ele>
        <time>2022-05-14T11:05:59.092Z</time>
      </trkpt>
      <trkpt lat="41.55973" lon="19.68906">
        <ele>75.580114</ele>
        <time>2022-05-14T11:06:02.090Z</time>
      </trkpt>
      <trkpt lat="41.55973" lon="19.68919">
        <ele>75.735929</ele>
        <time>2022-05-14T11:06:05.079Z</time>
      </trkpt>
      <trkpt lat="41.55974" lon="19.68931">
        <ele>75.885576</ele>
        <time>2022-05-14T11:06:08.081Z</time>
      </trkpt>
      <trkpt lat="41.55975" lon="19.68943">
        <ele>76.031842</ele>
        <time>2022-05-14T11:06:11.117Z</time>
      </trkpt>
      <trkpt lat="41.55976" lon="19.68958">
        <ele>76.217605</ele>
        <time>2022-05-14T11:06:15.071Z</time>
      </trkpt>
      <trkpt lat="41.55977" lon="19.68972">
        <ele>76.454857</ele>
        <time>2022-05-14T11:06:19.085Z</time>
      </trkpt>
      <trkpt lat="41.55978" lon="19.68985">
        <ele>76.660206</ele>
        <time>2022-05-14T11:06:22.119Z</time>
      </trkpt>
      <trkpt lat="41.55979" lon="19.68997">
        <ele>76.858318</ele>
        <time>2022-05-14T11:06:25.064Z</time>
      </trkpt>
      <trkpt lat="41.55979" lon="19.69013">
        <ele>77.111291</ele>
        <time>2022-05-14T11:06:29.081Z</time>
      </trkpt>
      <trkpt lat="41.5598" lon="19.69028">
        <ele>77.364124</ele>
        <time>2022-05-14T11:06:33.117Z</time>
      </trkpt>
      <trkpt lat="41.5598" lon="19.69044">
        <ele>77.61902</ele>
        <time>2022-05-14T11:06:37.085Z</time>
      </trkpt>
      <trkpt lat="41.55981" lon="19.6906">
        <ele>77.872076</ele>
        <time>2022-05-14T11:06:41.093Z</time>
      </trkpt>
      <trkpt lat="41.55981" lon="19.69075">
        <ele>78.121997</ele>
        <time>2022-05-14T11:06:45.079Z</time>
      </trkpt>
      <trkpt lat="41.55982" lon="19.69087">
        <ele>78.317451</ele>
        <time>2022-05-14T11:06:48.072Z</time>
      </trkpt>
      <trkpt lat="41.55984" lon="19.69102">
        <ele>78.560457</ele>
        <time>2022-05-14T11:06:52.077Z</time>
      </trkpt>
      <trkpt lat="41.55987" lon="19.69116">
        <ele>78.789519</ele>
        <time>2022-05-14T11:06:56.067Z</time>
      </trkpt>
      <trkpt lat="41.55992" lon="19.69129">
        <ele>79.029778</ele>
        <time>2022-05-14T11:07:00.083Z</time>
      </trkpt>
      <trkpt lat="41.55998" lon="19.69139">
        <ele>79.234994</ele>
        <time>2022-05-14T11:07:03.078Z</time>
      </trkpt>
      <trkpt lat="41.56005" lon="19.69147">
        <ele>79.445766</ele>
        <time>2022-05-14T11:07:06.098Z</time>
      </trkpt>
      <trkpt lat="41.56013" lon="19.69153">
        <ele>79.647656</ele>
        <time>2022-05-14T11:07:09.078Z</time>
      </trkpt>
      <trkpt lat="41.56022" lon="19.69157">
        <ele>79.848979</ele>
        <time>2022-05-14T11:07:12.119Z</time>
      </trkpt>
      <trkpt lat="41.56032" lon="19.69161">
        <ele>80.083375</ele>
        <time>2022-05-14T11:07:16.081Z</time>
      </trkpt>
      <trkpt lat="41.56043" lon="19.69163">
        <ele>80.089427</ele>
        <time>2022-05-14T11:07:20.072Z</time>
      </trkpt>
      <trkpt lat="41.56054" lon="19.69166">
        <ele>80.074685</ele>
        <time>2022-05-14T11:07:24.075Z</time>
      </trkpt>
      <trkpt lat="41.56064" lon="19.69168">
        <ele>80.061208</ele>
        <time>2022-05-14T11:07:28.099Z</time>
      </trkpt>
      <trkpt lat="41.56074" lon="19.69171">
        <ele>80.047114</ele>
        <time>2022-05-14T11:07:32.082Z</time>
      </trkpt>
      <trkpt lat="41.56085" lon="19.69174">
        <ele>80.032151</ele>
        <time>2022-05-14T11:07:36.094Z</time>
      </trkpt>
      <trkpt lat="41.56097" lon="19.69177">
        <ele>80.016586</ele>
        <time>2022-05-14T11:07:40.123Z</time>
      </trkpt>
      <trkpt lat="41.56106" lon="19.69179">
        <ele>80.004484</ele>
        <time>2022-05-14T11:07:43.072Z</time>
      </trkpt>
      <trkpt lat="41.56115" lon="19.69181">
        <ele>79.992327</ele>
        <time>2022-05-14T11:07:46.118Z</time>
      </trkpt>
      <trkpt lat="41.56127" lon="19.69184">
        <ele>79.976599</ele>
        <time>2022-05-14T11:07:50.083Z</time>
      </trkpt>
      <trkpt lat="41.56138" lon="19.69187">
        <ele>79.961038</ele>
        <time>2022-05-14T11:07:54.079Z</time>
      </trkpt>
      <trkpt lat="41.56147" lon="19.69189">
        <ele>79.948918</ele>
        <time>2022-05-14T11:07:57.113Z</time>
      </trkpt>
      <trkpt lat="41.56157" lon="19.69191">
        <ele>79.935446</ele>
        <time>2022-05-14T11:08:00.085Z</time>
      </trkpt>
      <trkpt lat="41.56169" lon="19.69192">
        <ele>79.919777</ele>
        <time>2022-05-14T11:08:03.079Z</time>
      </trkpt>
      <trkpt lat="41.56178" lon="19.69193">
        <ele>79.907532</ele>
        <time>2022-05-14T11:08:05.081Z</time>
      </trkpt>
      <trkpt lat="41.56187" lon="19.69196">
        <ele>79.895464</ele>
        <time>2022-05-14T11:08:07.089Z</time>
      </trkpt>
      <trkpt lat="41.56196" lon="19.69198">
        <ele>79.882805</ele>
        <time>2022-05-14T11:08:09.090Z</time>
      </trkpt>
      <trkpt lat="41.56206" lon="19.692">
        <ele>79.870294</ele>
        <time>2022-05-14T11:08:11.066Z</time>
      </trkpt>
      <trkpt lat="41.56215" lon="19.69202">
        <ele>79.850442</ele>
        <time>2022-05-14T11:08:13.073Z</time>
      </trkpt>
      <trkpt lat="41.56224" lon="19.69202">
        <ele>79.823462</ele>
        <time>2022-05-14T11:08:15.083Z</time>
      </trkpt>
      <trkpt lat="41.56237" lon="19.69204">
        <ele>79.785788</ele>
        <time>2022-05-14T11:08:18.091Z</time>
      </trkpt>
      <trkpt lat="41.56249" lon="19.69208">
        <ele>79.751056</ele>
        <time>2022-05-14T11:08:21.068Z</time>
      </trkpt>
      <trkpt lat="41.56261" lon="19.6921">
        <ele>79.714433</ele>
        <time>2022-05-14T11:08:24.093Z</time>
      </trkpt>
      <trkpt lat="41.56274" lon="19.69214">
        <ele>79.676165</ele>
        <time>2022-05-14T11:08:27.069Z</time>
      </trkpt>
      <trkpt lat="41.56287" lon="19.69217">
        <ele>79.637693</ele>
        <time>2022-05-14T11:08:30.067Z</time>
      </trkpt>
      <trkpt lat="41.56295" lon="19.69219">
        <ele>79.61107</ele>
        <time>2022-05-14T11:08:32.071Z</time>
      </trkpt>
      <trkpt lat="41.56305" lon="19.69221">
        <ele>79.584028</ele>
        <time>2022-05-14T11:08:34.072Z</time>
      </trkpt>
      <trkpt lat="41.56313" lon="19.69224">
        <ele>79.557361</ele>
        <time>2022-05-14T11:08:36.087Z</time>
      </trkpt>
      <trkpt lat="41.56322" lon="19.69226">
        <ele>79.530738</ele>
        <time>2022-05-14T11:08:38.096Z</time>
      </trkpt>
      <trkpt lat="41.56332" lon="19.69229">
        <ele>79.503293</ele>
        <time>2022-05-14T11:08:40.069Z</time>
      </trkpt>
      <trkpt lat="41.5634" lon="19.69231">
        <ele>79.476753</ele>
        <time>2022-05-14T11:08:42.084Z</time>
      </trkpt>
      <trkpt lat="41.56349" lon="19.69233">
        <ele>79.45004</ele>
        <time>2022-05-14T11:08:44.078Z</time>
      </trkpt>
      <trkpt lat="41.56358" lon="19.69236">
        <ele>79.423171</ele>
        <time>2022-05-14T11:08:46.082Z</time>
      </trkpt>
      <trkpt lat="41.56368" lon="19.69238">
        <ele>79.395397</ele>
        <time>2022-05-14T11:08:48.090Z</time>
      </trkpt>
      <trkpt lat="41.56377" lon="19.6924">
        <ele>79.367162</ele>
        <time>2022-05-14T11:08:50.088Z</time>
      </trkpt>
      <trkpt lat="41.56387" lon="19.69243">
        <ele>79.338923</ele>
        <time>2022-05-14T11:08:52.063Z</time>
      </trkpt>
      <trkpt lat="41.56395" lon="19.69248">
        <ele>79.245647</ele>
        <time>2022-05-14T11:08:54.082Z</time>
      </trkpt>
      <trkpt lat="41.56404" lon="19.69251">
        <ele>79.146077</ele>
        <time>2022-05-14T11:08:56.079Z</time>
      </trkpt>
      <trkpt lat="41.56414" lon="19.69254">
        <ele>79.041616</ele>
        <time>2022-05-14T11:08:58.142Z</time>
      </trkpt>
      <trkpt lat="41.56424" lon="19.69257">
        <ele>78.939</ele>
        <time>2022-05-14T11:09:00.075Z</time>
      </trkpt>
      <trkpt lat="41.56433" lon="19.69259">
        <ele>78.835774</ele>
        <time>2022-05-14T11:09:02.080Z</time>
      </trkpt>
      <trkpt lat="41.56443" lon="19.69262">
        <ele>78.731657</ele>
        <time>2022-05-14T11:09:04.060Z</time>
      </trkpt>
      <trkpt lat="41.56453" lon="19.69264">
        <ele>78.629837</ele>
        <time>2022-05-14T11:09:06.083Z</time>
      </trkpt>
      <trkpt lat="41.56462" lon="19.69266">
        <ele>78.528935</ele>
        <time>2022-05-14T11:09:08.083Z</time>
      </trkpt>
      <trkpt lat="41.56471" lon="19.69268">
        <ele>78.430877</ele>
        <time>2022-05-14T11:09:10.101Z</time>
      </trkpt>
      <trkpt lat="41.56481" lon="19.6927">
        <ele>78.327902</ele>
        <time>2022-05-14T11:09:12.095Z</time>
      </trkpt>
      <trkpt lat="41.5649" lon="19.69272">
        <ele>78.22931</ele>
        <time>2022-05-14T11:09:14.070Z</time>
      </trkpt>
      <trkpt lat="41.565" lon="19.69273">
        <ele>78.130827</ele>
        <time>2022-05-14T11:09:16.083Z</time>
      </trkpt>
      <trkpt lat="41.56509" lon="19.69275">
        <ele>78.034193</ele>
        <time>2022-05-14T11:09:18.070Z</time>
      </trkpt>
      <trkpt lat="41.56522" lon="19.69278">
        <ele>77.896281</ele>
        <time>2022-05-14T11:09:21.110Z</time>
      </trkpt>
      <trkpt lat="41.56534" lon="19.6928">
        <ele>77.763672</ele>
        <time>2022-05-14T11:09:24.086Z</time>
      </trkpt>
      <trkpt lat="41.56546" lon="19.69283">
        <ele>77.634964</ele>
        <time>2022-05-14T11:09:27.110Z</time>
      </trkpt>
      <trkpt lat="41.56558" lon="19.69285">
        <ele>77.511398</ele>
        <time>2022-05-14T11:09:30.090Z</time>
      </trkpt>
      <trkpt lat="41.5657" lon="19.69286">
        <ele>77.560355</ele>
        <time>2022-05-14T11:09:33.071Z</time>
      </trkpt>
      <trkpt lat="41.5658" lon="19.69286">
        <ele>77.779293</ele>
        <time>2022-05-14T11:09:36.061Z</time>
      </trkpt>
      <trkpt lat="41.56591" lon="19.69284">
        <ele>77.995721</ele>
        <time>2022-05-14T11:09:39.070Z</time>
      </trkpt>
      <trkpt lat="41.56602" lon="19.69282">
        <ele>78.208967</ele>
        <time>2022-05-14T11:09:42.067Z</time>
      </trkpt>
      <trkpt lat="41.56612" lon="19.6928">
        <ele>78.426888</ele>
        <time>2022-05-14T11:09:45.083Z</time>
      </trkpt>
      <trkpt lat="41.56622" lon="19.69278">
        <ele>78.631354</ele>
        <time>2022-05-14T11:09:48.073Z</time>
      </trkpt>
      <trkpt lat="41.56632" lon="19.69277">
        <ele>78.833308</ele>
        <time>2022-05-14T11:09:51.072Z</time>
      </trkpt>
      <trkpt lat="41.56642" lon="19.69277">
        <ele>79.028138</ele>
        <time>2022-05-14T11:09:54.077Z</time>
      </trkpt>
      <trkpt lat="41.56652" lon="19.69279">
        <ele>79.231945</ele>
        <time>2022-05-14T11:09:57.087Z</time>
      </trkpt>
      <trkpt lat="41.56663" lon="19.69283">
        <ele>79.457249</ele>
        <time>2022-05-14T11:10:00.058Z</time>
      </trkpt>
      <trkpt lat="41.56673" lon="19.69288">
        <ele>79.671087</ele>
        <time>2022-05-14T11:10:03.080Z</time>
      </trkpt>
      <trkpt lat="41.56684" lon="19.69293">
        <ele>79.897368</ele>
        <time>2022-05-14T11:10:06.111Z</time>
      </trkpt>
      <trkpt lat="41.56694" lon="19.69298">
        <ele>80.120261</ele>
        <time>2022-05-14T11:10:09.091Z</time>
      </trkpt>
      <trkpt lat="41.56705" lon="19.69303">
        <ele>80.354588</ele>
        <time>2022-05-14T11:10:12.068Z</time>
      </trkpt>
      <trkpt lat="41.56716" lon="19.69308">
        <ele>80.594145</ele>
        <time>2022-05-14T11:10:15.096Z</time>
      </trkpt>
      <trkpt lat="41.56728" lon="19.69313">
        <ele>80.836582</ele>
        <time>2022-05-14T11:10:18.084Z</time>
      </trkpt>
      <trkpt lat="41.56737" lon="19.69317">
        <ele>81.034407</ele>
        <time>2022-05-14T11:10:21.084Z</time>
      </trkpt>
      <trkpt lat="41.56746" lon="19.69322">
        <ele>81.04314</ele>
        <time>2022-05-14T11:10:25.087Z</time>
      </trkpt>
      <trkpt lat="41.56756" lon="19.69325">
        <ele>81.019555</ele>
        <time>2022-05-14T11:10:28.078Z</time>
      </trkpt>
      <trkpt lat="41.56766" lon="19.6933">
        <ele>80.994473</ele>
        <time>2022-05-14T11:10:31.084Z</time>
      </trkpt>
      <trkpt lat="41.56777" lon="19.69334">
        <ele>80.968431</ele>
        <time>2022-05-14T11:10:34.092Z</time>
      </trkpt>
      <trkpt lat="41.56786" lon="19.69339">
        <ele>80.94571</ele>
        <time>2022-05-14T11:10:37.076Z</time>
      </trkpt>
      <trkpt lat="41.56795" lon="19.69344">
        <ele>80.923179</ele>
        <time>2022-05-14T11:10:40.070Z</time>
      </trkpt>
      <trkpt lat="41.56806" lon="19.69349">
        <ele>80.897449</ele>
        <time>2022-05-14T11:10:43.079Z</time>
      </trkpt>
      <trkpt lat="41.56819" lon="19.69355">
        <ele>80.866483</ele>
        <time>2022-05-14T11:10:46.091Z</time>
      </trkpt>
      <trkpt lat="41.56828" lon="19.69359">
        <ele>80.844093</ele>
        <time>2022-05-14T11:10:48.089Z</time>
      </trkpt>
      <trkpt lat="41.56837" lon="19.69364">
        <ele>80.821702</ele>
        <time>2022-05-14T11:10:50.132Z</time>
      </trkpt>
      <trkpt lat="41.56846" lon="19.69368">
        <ele>80.798711</ele>
        <time>2022-05-14T11:10:52.086Z</time>
      </trkpt>
      <trkpt lat="41.56856" lon="19.69372">
        <ele>80.774789</ele>
        <time>2022-05-14T11:10:54.085Z</time>
      </trkpt>
      <trkpt lat="41.56866" lon="19.69376">
        <ele>80.751962</ele>
        <time>2022-05-14T11:10:56.070Z</time>
      </trkpt>
      <trkpt lat="41.56875" lon="19.69381">
        <ele>80.728751</ele>
        <time>2022-05-14T11:10:58.075Z</time>
      </trkpt>
      <trkpt lat="41.56885" lon="19.69385">
        <ele>80.704557</ele>
        <time>2022-05-14T11:11:00.111Z</time>
      </trkpt>
      <trkpt lat="41.56895" lon="19.69389">
        <ele>80.681344</ele>
        <time>2022-05-14T11:11:02.084Z</time>
      </trkpt>
      <trkpt lat="41.56904" lon="19.69393">
        <ele>80.659282</ele>
        <time>2022-05-14T11:11:04.085Z</time>
      </trkpt>
      <trkpt lat="41.56913" lon="19.69397">
        <ele>80.583885</ele>
        <time>2022-05-14T11:11:06.104Z</time>
      </trkpt>
      <trkpt lat="41.56923" lon="19.694">
        <ele>80.443861</ele>
        <time>2022-05-14T11:11:08.087Z</time>
      </trkpt>
      <trkpt lat="41.56935" lon="19.69403">
        <ele>80.26634</ele>
        <time>2022-05-14T11:11:11.071Z</time>
      </trkpt>
      <trkpt lat="41.56946" lon="19.69404">
        <ele>80.110996</ele>
        <time>2022-05-14T11:11:14.077Z</time>
      </trkpt>
      <trkpt lat="41.56956" lon="19.69403">
        <ele>79.96941</ele>
        <time>2022-05-14T11:11:17.084Z</time>
      </trkpt>
      <trkpt lat="41.56966" lon="19.69404">
        <ele>79.840795</ele>
        <time>2022-05-14T11:11:20.081Z</time>
      </trkpt>
      <trkpt lat="41.56975" lon="19.694">
        <ele>79.708573</ele>
        <time>2022-05-14T11:11:23.072Z</time>
      </trkpt>
      <trkpt lat="41.56984" lon="19.69397">
        <ele>79.572956</ele>
        <time>2022-05-14T11:11:28.113Z</time>
      </trkpt>
      <trkpt lat="41.56995" lon="19.69393">
        <ele>79.410529</ele>
        <time>2022-05-14T11:11:32.071Z</time>
      </trkpt>
      <trkpt lat="41.57007" lon="19.69389">
        <ele>79.248864</ele>
        <time>2022-05-14T11:11:35.109Z</time>
      </trkpt>
      <trkpt lat="41.57019" lon="19.69383">
        <ele>79.060475</ele>
        <time>2022-05-14T11:11:38.087Z</time>
      </trkpt>
      <trkpt lat="41.57028" lon="19.6938">
        <ele>78.932854</ele>
        <time>2022-05-14T11:11:40.091Z</time>
      </trkpt>
      <trkpt lat="41.57037" lon="19.69376">
        <ele>78.805685</ele>
        <time>2022-05-14T11:11:42.074Z</time>
      </trkpt>
      <trkpt lat="41.57046" lon="19.69372">
        <ele>78.668252</ele>
        <time>2022-05-14T11:11:44.075Z</time>
      </trkpt>
      <trkpt lat="41.57056" lon="19.69368">
        <ele>78.525476</ele>
        <time>2022-05-14T11:11:46.108Z</time>
      </trkpt>
      <trkpt lat="41.57066" lon="19.69364">
        <ele>78.383102</ele>
        <time>2022-05-14T11:11:48.085Z</time>
      </trkpt>
      <trkpt lat="41.57076" lon="19.6936">
        <ele>78.233771</ele>
        <time>2022-05-14T11:11:50.086Z</time>
      </trkpt>
      <trkpt lat="41.57086" lon="19.69355">
        <ele>78.040441</ele>
        <time>2022-05-14T11:11:52.075Z</time>
      </trkpt>
      <trkpt lat="41.57098" lon="19.6935">
        <ele>77.763347</ele>
        <time>2022-05-14T11:11:54.090Z</time>
      </trkpt>
      <trkpt lat="41.5711" lon="19.69345">
        <ele>77.473102</ele>
        <time>2022-05-14T11:11:56.125Z</time>
      </trkpt>
      <trkpt lat="41.57122" lon="19.69339">
        <ele>77.176805</ele>
        <time>2022-05-14T11:11:58.068Z</time>
      </trkpt>
      <trkpt lat="41.57135" lon="19.69334">
        <ele>76.869454</ele>
        <time>2022-05-14T11:12:00.085Z</time>
      </trkpt>
      <trkpt lat="41.57147" lon="19.69328">
        <ele>76.562201</ele>
        <time>2022-05-14T11:12:02.104Z</time>
      </trkpt>
      <trkpt lat="41.57159" lon="19.69323">
        <ele>76.267514</ele>
        <time>2022-05-14T11:12:04.054Z</time>
      </trkpt>
      <trkpt lat="41.57171" lon="19.69317">
        <ele>75.97727</ele>
        <time>2022-05-14T11:12:06.099Z</time>
      </trkpt>
      <trkpt lat="41.57183" lon="19.69312">
        <ele>75.693038</ele>
        <time>2022-05-14T11:12:08.085Z</time>
      </trkpt>
      <trkpt lat="41.57194" lon="19.69306">
        <ele>75.412946</ele>
        <time>2022-05-14T11:12:10.080Z</time>
      </trkpt>
      <trkpt lat="41.57205" lon="19.69301">
        <ele>75.138594</ele>
        <time>2022-05-14T11:12:12.072Z</time>
      </trkpt>
      <trkpt lat="41.57216" lon="19.69295">
        <ele>74.857242</ele>
        <time>2022-05-14T11:12:14.083Z</time>
      </trkpt>
      <trkpt lat="41.57228" lon="19.69289">
        <ele>74.579533</ele>
        <time>2022-05-14T11:12:16.087Z</time>
      </trkpt>
      <trkpt lat="41.57238" lon="19.69282">
        <ele>74.308948</ele>
        <time>2022-05-14T11:12:18.082Z</time>
      </trkpt>
      <trkpt lat="41.57249" lon="19.69276">
        <ele>74.037697</ele>
        <time>2022-05-14T11:12:20.080Z</time>
      </trkpt>
      <trkpt lat="41.5726" lon="19.6927">
        <ele>73.708914</ele>
        <time>2022-05-14T11:12:22.071Z</time>
      </trkpt>
      <trkpt lat="41.5727" lon="19.69264">
        <ele>73.36336</ele>
        <time>2022-05-14T11:12:24.119Z</time>
      </trkpt>
      <trkpt lat="41.57281" lon="19.69258">
        <ele>73.022276</ele>
        <time>2022-05-14T11:12:26.099Z</time>
      </trkpt>
      <trkpt lat="41.57291" lon="19.69252">
        <ele>72.700154</ele>
        <time>2022-05-14T11:12:28.082Z</time>
      </trkpt>
      <trkpt lat="41.57301" lon="19.69246">
        <ele>72.366346</ele>
        <time>2022-05-14T11:12:30.122Z</time>
      </trkpt>
      <trkpt lat="41.57311" lon="19.6924">
        <ele>72.034333</ele>
        <time>2022-05-14T11:12:32.084Z</time>
      </trkpt>
      <trkpt lat="41.57322" lon="19.69234">
        <ele>71.69957</ele>
        <time>2022-05-14T11:12:34.077Z</time>
      </trkpt>
      <trkpt lat="41.57331" lon="19.69228">
        <ele>71.386491</ele>
        <time>2022-05-14T11:12:36.095Z</time>
      </trkpt>
      <trkpt lat="41.57342" lon="19.69221">
        <ele>71.035435</ele>
        <time>2022-05-14T11:12:39.087Z</time>
      </trkpt>
      <trkpt lat="41.57353" lon="19.6922">
        <ele>70.713924</ele>
        <time>2022-05-14T11:12:43.088Z</time>
      </trkpt>
      <trkpt lat="41.57357" lon="19.69234">
        <ele>70.380225</ele>
        <time>2022-05-14T11:12:50.115Z</time>
      </trkpt>
      <trkpt lat="41.57353" lon="19.69244">
        <ele>70.104019</ele>
        <time>2022-05-14T11:12:56.076Z</time>
      </trkpt>
      <trkpt lat="41.57354" lon="19.69224">
        <ele>69.645502</ele>
        <time>2022-05-14T11:17:43.087Z</time>
      </trkpt>
      <trkpt lat="41.57359" lon="19.69213">
        <ele>69.369854</ele>
        <time>2022-05-14T11:17:46.100Z</time>
      </trkpt>
      <trkpt lat="41.5737" lon="19.69207">
        <ele>69.02415</ele>
        <time>2022-05-14T11:17:50.080Z</time>
      </trkpt>
      <trkpt lat="41.57381" lon="19.69203">
        <ele>68.688953</ele>
        <time>2022-05-14T11:17:53.086Z</time>
      </trkpt>
      <trkpt lat="41.57392" lon="19.69199">
        <ele>68.387071</ele>
        <time>2022-05-14T11:17:56.071Z</time>
      </trkpt>
      <trkpt lat="41.57402" lon="19.69197">
        <ele>68.105615</ele>
        <time>2022-05-14T11:17:59.062Z</time>
      </trkpt>
      <trkpt lat="41.57414" lon="19.69196">
        <ele>67.786306</ele>
        <time>2022-05-14T11:18:02.085Z</time>
      </trkpt>
      <trkpt lat="41.57427" lon="19.69196">
        <ele>67.457133</ele>
        <time>2022-05-14T11:18:05.086Z</time>
      </trkpt>
      <trkpt lat="41.57439" lon="19.69198">
        <ele>67.127178</ele>
        <time>2022-05-14T11:18:08.077Z</time>
      </trkpt>
      <trkpt lat="41.5745" lon="19.692">
        <ele>66.852358</ele>
        <time>2022-05-14T11:18:12.078Z</time>
      </trkpt>
      <trkpt lat="41.57461" lon="19.69203">
        <ele>66.547323</ele>
        <time>2022-05-14T11:18:16.084Z</time>
      </trkpt>
      <trkpt lat="41.57471" lon="19.69205">
        <ele>66.273679</ele>
        <time>2022-05-14T11:18:20.076Z</time>
      </trkpt>
      <trkpt lat="41.57481" lon="19.69209">
        <ele>66.000614</ele>
        <time>2022-05-14T11:18:24.075Z</time>
      </trkpt>
      <trkpt lat="41.57491" lon="19.69212">
        <ele>65.726581</ele>
        <time>2022-05-14T11:18:27.115Z</time>
      </trkpt>
      <trkpt lat="41.57502" lon="19.69215">
        <ele>65.442964</ele>
        <time>2022-05-14T11:18:30.075Z</time>
      </trkpt>
      <trkpt lat="41.57513" lon="19.69217">
        <ele>65.14673</ele>
        <time>2022-05-14T11:18:33.073Z</time>
      </trkpt>
      <trkpt lat="41.57523" lon="19.6922">
        <ele>64.872696</ele>
        <time>2022-05-14T11:18:36.072Z</time>
      </trkpt>
      <trkpt lat="41.57535" lon="19.69223">
        <ele>64.55028</ele>
        <time>2022-05-14T11:18:39.068Z</time>
      </trkpt>
      <trkpt lat="41.57547" lon="19.69227">
        <ele>64.227047</ele>
        <time>2022-05-14T11:18:42.081Z</time>
      </trkpt>
      <trkpt lat="41.57559" lon="19.69231">
        <ele>63.913017</ele>
        <time>2022-05-14T11:18:45.090Z</time>
      </trkpt>
      <trkpt lat="41.57571" lon="19.69234">
        <ele>64.155094</ele>
        <time>2022-05-14T11:18:48.078Z</time>
      </trkpt>
      <trkpt lat="41.57583" lon="19.69238">
        <ele>64.383578</ele>
        <time>2022-05-14T11:18:51.067Z</time>
      </trkpt>
      <trkpt lat="41.57595" lon="19.69241">
        <ele>64.623258</ele>
        <time>2022-05-14T11:18:54.102Z</time>
      </trkpt>
      <trkpt lat="41.57606" lon="19.69244">
        <ele>64.854329</ele>
        <time>2022-05-14T11:18:57.090Z</time>
      </trkpt>
      <trkpt lat="41.57618" lon="19.69248">
        <ele>65.083155</ele>
        <time>2022-05-14T11:19:00.090Z</time>
      </trkpt>
      <trkpt lat="41.57629" lon="19.69251">
        <ele>65.31874</ele>
        <time>2022-05-14T11:19:03.087Z</time>
      </trkpt>
      <trkpt lat="41.57643" lon="19.69254">
        <ele>65.576674</ele>
        <time>2022-05-14T11:19:06.081Z</time>
      </trkpt>
      <trkpt lat="41.57655" lon="19.69255">
        <ele>65.820752</ele>
        <time>2022-05-14T11:19:09.082Z</time>
      </trkpt>
      <trkpt lat="41.57667" lon="19.69256">
        <ele>66.059363</ele>
        <time>2022-05-14T11:19:12.108Z</time>
      </trkpt>
      <trkpt lat="41.57679" lon="19.69257">
        <ele>66.297012</ele>
        <time>2022-05-14T11:19:15.096Z</time>
      </trkpt>
      <trkpt lat="41.57691" lon="19.69257">
        <ele>66.515188</ele>
        <time>2022-05-14T11:19:18.136Z</time>
      </trkpt>
      <trkpt lat="41.57702" lon="19.69256">
        <ele>66.74128</ele>
        <time>2022-05-14T11:19:21.079Z</time>
      </trkpt>
      <trkpt lat="41.57713" lon="19.69255">
        <ele>66.960111</ele>
        <time>2022-05-14T11:19:24.110Z</time>
      </trkpt>
      <trkpt lat="41.57724" lon="19.69254">
        <ele>67.17546</ele>
        <time>2022-05-14T11:19:27.081Z</time>
      </trkpt>
      <trkpt lat="41.57736" lon="19.69252">
        <ele>67.406315</ele>
        <time>2022-05-14T11:19:30.112Z</time>
      </trkpt>
      <trkpt lat="41.57747" lon="19.69252">
        <ele>67.681051</ele>
        <time>2022-05-14T11:19:33.091Z</time>
      </trkpt>
      <trkpt lat="41.57758" lon="19.69251">
        <ele>67.946024</ele>
        <time>2022-05-14T11:19:36.115Z</time>
      </trkpt>
      <trkpt lat="41.57768" lon="19.6925">
        <ele>68.216155</ele>
        <time>2022-05-14T11:19:39.078Z</time>
      </trkpt>
      <trkpt lat="41.57779" lon="19.69248">
        <ele>68.48467</ele>
        <time>2022-05-14T11:19:42.098Z</time>
      </trkpt>
      <trkpt lat="41.57789" lon="19.69246">
        <ele>68.750014</ele>
        <time>2022-05-14T11:19:45.081Z</time>
      </trkpt>
      <trkpt lat="41.578" lon="19.69245">
        <ele>69.024701</ele>
        <time>2022-05-14T11:19:48.114Z</time>
      </trkpt>
      <trkpt lat="41.57812" lon="19.69243">
        <ele>69.308435</ele>
        <time>2022-05-14T11:19:51.084Z</time>
      </trkpt>
      <trkpt lat="41.57823" lon="19.69241">
        <ele>69.590367</ele>
        <time>2022-05-14T11:19:54.077Z</time>
      </trkpt>
      <trkpt lat="41.57834" lon="19.69239">
        <ele>69.881793</ele>
        <time>2022-05-14T11:19:57.075Z</time>
      </trkpt>
      <trkpt lat="41.57843" lon="19.69237">
        <ele>70.112367</ele>
        <time>2022-05-14T11:19:59.112Z</time>
      </trkpt>
      <trkpt lat="41.57853" lon="19.69235">
        <ele>70.353257</ele>
        <time>2022-05-14T11:20:01.056Z</time>
      </trkpt>
      <trkpt lat="41.57862" lon="19.69232">
        <ele>70.601918</ele>
        <time>2022-05-14T11:20:03.075Z</time>
      </trkpt>
      <trkpt lat="41.57872" lon="19.69231">
        <ele>70.849633</ele>
        <time>2022-05-14T11:20:05.115Z</time>
      </trkpt>
      <trkpt lat="41.57883" lon="19.6923">
        <ele>71.13246</ele>
        <time>2022-05-14T11:20:07.092Z</time>
      </trkpt>
      <trkpt lat="41.57894" lon="19.69228">
        <ele>71.39694</ele>
        <time>2022-05-14T11:20:09.095Z</time>
      </trkpt>
      <trkpt lat="41.57904" lon="19.69226">
        <ele>71.670672</ele>
        <time>2022-05-14T11:20:11.080Z</time>
      </trkpt>
      <trkpt lat="41.57914" lon="19.69224">
        <ele>71.922165</ele>
        <time>2022-05-14T11:20:13.097Z</time>
      </trkpt>
      <trkpt lat="41.57924" lon="19.69224">
        <ele>71.646226</ele>
        <time>2022-05-14T11:20:15.071Z</time>
      </trkpt>
      <trkpt lat="41.57933" lon="19.69224">
        <ele>71.341136</ele>
        <time>2022-05-14T11:20:17.094Z</time>
      </trkpt>
      <trkpt lat="41.57945" lon="19.69221">
        <ele>70.963714</ele>
        <time>2022-05-14T11:20:20.069Z</time>
      </trkpt>
      <trkpt lat="41.57957" lon="19.69215">
        <ele>70.536882</ele>
        <time>2022-05-14T11:20:23.078Z</time>
      </trkpt>
      <trkpt lat="41.57966" lon="19.69212">
        <ele>70.218096</ele>
        <time>2022-05-14T11:20:25.094Z</time>
      </trkpt>
      <trkpt lat="41.57977" lon="19.6921">
        <ele>69.864041</ele>
        <time>2022-05-14T11:20:27.120Z</time>
      </trkpt>
      <trkpt lat="41.57989" lon="19.69211">
        <ele>69.45868</ele>
        <time>2022-05-14T11:20:30.096Z</time>
      </trkpt>
      <trkpt lat="41.57999" lon="19.69211">
        <ele>69.146828</ele>
        <time>2022-05-14T11:20:33.087Z</time>
      </trkpt>
      <trkpt lat="41.58008" lon="19.69209">
        <ele>68.83305</ele>
        <time>2022-05-14T11:20:36.090Z</time>
      </trkpt>
      <trkpt lat="41.58019" lon="19.69207">
        <ele>68.466641</ele>
        <time>2022-05-14T11:20:39.076Z</time>
      </trkpt>
      <trkpt lat="41.58031" lon="19.69206">
        <ele>68.085009</ele>
        <time>2022-05-14T11:20:42.069Z</time>
      </trkpt>
      <trkpt lat="41.58041" lon="19.69204">
        <ele>67.742151</ele>
        <time>2022-05-14T11:20:46.077Z</time>
      </trkpt>
      <trkpt lat="41.58052" lon="19.69203">
        <ele>67.386237</ele>
        <time>2022-05-14T11:20:50.093Z</time>
      </trkpt>
      <trkpt lat="41.58062" lon="19.69201">
        <ele>67.049074</ele>
        <time>2022-05-14T11:20:53.092Z</time>
      </trkpt>
      <trkpt lat="41.58074" lon="19.692">
        <ele>66.676598</ele>
        <time>2022-05-14T11:20:56.087Z</time>
      </trkpt>
      <trkpt lat="41.58086" lon="19.69196">
        <ele>66.262354</ele>
        <time>2022-05-14T11:20:59.075Z</time>
      </trkpt>
      <trkpt lat="41.58099" lon="19.69194">
        <ele>65.809331</ele>
        <time>2022-05-14T11:21:02.083Z</time>
      </trkpt>
      <trkpt lat="41.58108" lon="19.69193">
        <ele>65.464298</ele>
        <time>2022-05-14T11:21:04.075Z</time>
      </trkpt>
      <trkpt lat="41.58118" lon="19.69192">
        <ele>65.114749</ele>
        <time>2022-05-14T11:21:06.067Z</time>
      </trkpt>
      <trkpt lat="41.5813" lon="19.6919">
        <ele>64.647718</ele>
        <time>2022-05-14T11:21:09.086Z</time>
      </trkpt>
      <trkpt lat="41.58141" lon="19.69187">
        <ele>64.261563</ele>
        <time>2022-05-14T11:21:13.078Z</time>
      </trkpt>
      <trkpt lat="41.5815" lon="19.69185">
        <ele>63.916511</ele>
        <time>2022-05-14T11:21:17.107Z</time>
      </trkpt>
      <trkpt lat="41.5816" lon="19.69183">
        <ele>63.542888</ele>
        <time>2022-05-14T11:21:20.082Z</time>
      </trkpt>
      <trkpt lat="41.58172" lon="19.69182">
        <ele>63.102457</ele>
        <time>2022-05-14T11:21:23.117Z</time>
      </trkpt>
      <trkpt lat="41.58181" lon="19.69183">
        <ele>62.76527</ele>
        <time>2022-05-14T11:21:25.082Z</time>
      </trkpt>
      <trkpt lat="41.58191" lon="19.69184">
        <ele>62.41742</ele>
        <time>2022-05-14T11:21:27.096Z</time>
      </trkpt>
      <trkpt lat="41.582" lon="19.69187">
        <ele>62.078296</ele>
        <time>2022-05-14T11:21:29.079Z</time>
      </trkpt>
      <trkpt lat="41.58209" lon="19.69192">
        <ele>61.729104</ele>
        <time>2022-05-14T11:21:31.080Z</time>
      </trkpt>
      <trkpt lat="41.58217" lon="19.69196">
        <ele>61.386656</ele>
        <time>2022-05-14T11:21:33.085Z</time>
      </trkpt>
      <trkpt lat="41.58226" lon="19.69203">
        <ele>61.013753</ele>
        <time>2022-05-14T11:21:35.070Z</time>
      </trkpt>
      <trkpt lat="41.58236" lon="19.69208">
        <ele>60.643275</ele>
        <time>2022-05-14T11:21:37.080Z</time>
      </trkpt>
      <trkpt lat="41.58245" lon="19.69215">
        <ele>60.250314</ele>
        <time>2022-05-14T11:21:39.080Z</time>
      </trkpt>
      <trkpt lat="41.58255" lon="19.69221">
        <ele>59.849844</ele>
        <time>2022-05-14T11:21:41.073Z</time>
      </trkpt>
      <trkpt lat="41.58265" lon="19.69227">
        <ele>59.450392</ele>
        <time>2022-05-14T11:21:43.067Z</time>
      </trkpt>
      <trkpt lat="41.58276" lon="19.69233">
        <ele>59.242139</ele>
        <time>2022-05-14T11:21:45.056Z</time>
      </trkpt>
      <trkpt lat="41.58285" lon="19.69239">
        <ele>59.051049</ele>
        <time>2022-05-14T11:21:47.085Z</time>
      </trkpt>
      <trkpt lat="41.58295" lon="19.69245">
        <ele>58.857745</ele>
        <time>2022-05-14T11:21:49.071Z</time>
      </trkpt>
      <trkpt lat="41.58304" lon="19.69251">
        <ele>58.685372</ele>
        <time>2022-05-14T11:21:51.083Z</time>
      </trkpt>
      <trkpt lat="41.58315" lon="19.69259">
        <ele>58.444476</ele>
        <time>2022-05-14T11:21:54.074Z</time>
      </trkpt>
      <trkpt lat="41.58323" lon="19.69265">
        <ele>58.280156</ele>
        <time>2022-05-14T11:21:56.091Z</time>
      </trkpt>
      <trkpt lat="41.58332" lon="19.69271">
        <ele>58.10695</ele>
        <time>2022-05-14T11:21:58.097Z</time>
      </trkpt>
      <trkpt lat="41.5834" lon="19.69276">
        <ele>57.936787</ele>
        <time>2022-05-14T11:22:00.068Z</time>
      </trkpt>
      <trkpt lat="41.58349" lon="19.69283">
        <ele>57.767691</ele>
        <time>2022-05-14T11:22:02.089Z</time>
      </trkpt>
      <trkpt lat="41.58357" lon="19.69288">
        <ele>57.602977</ele>
        <time>2022-05-14T11:22:04.067Z</time>
      </trkpt>
      <trkpt lat="41.58369" lon="19.69296">
        <ele>57.354703</ele>
        <time>2022-05-14T11:22:07.083Z</time>
      </trkpt>
      <trkpt lat="41.58377" lon="19.69302">
        <ele>57.19058</ele>
        <time>2022-05-14T11:22:09.118Z</time>
      </trkpt>
      <trkpt lat="41.5839" lon="19.69309">
        <ele>56.945319</ele>
        <time>2022-05-14T11:22:12.066Z</time>
      </trkpt>
      <trkpt lat="41.58399" lon="19.69312">
        <ele>56.781988</ele>
        <time>2022-05-14T11:22:14.063Z</time>
      </trkpt>
      <trkpt lat="41.58412" lon="19.69315">
        <ele>56.539579</ele>
        <time>2022-05-14T11:22:17.091Z</time>
      </trkpt>
      <trkpt lat="41.58421" lon="19.69316">
        <ele>56.376727</ele>
        <time>2022-05-14T11:22:19.091Z</time>
      </trkpt>
      <trkpt lat="41.58433" lon="19.69316">
        <ele>56.28695</ele>
        <time>2022-05-14T11:22:22.080Z</time>
      </trkpt>
      <trkpt lat="41.58442" lon="19.69316">
        <ele>56.504944</ele>
        <time>2022-05-14T11:22:25.078Z</time>
      </trkpt>
      <trkpt lat="41.58454" lon="19.69314">
        <ele>56.787455</ele>
        <time>2022-05-14T11:22:29.098Z</time>
      </trkpt>
      <trkpt lat="41.58464" lon="19.69314">
        <ele>57.008358</ele>
        <time>2022-05-14T11:22:32.072Z</time>
      </trkpt>
      <trkpt lat="41.58474" lon="19.69312">
        <ele>57.258034</ele>
        <time>2022-05-14T11:22:35.072Z</time>
      </trkpt>
      <trkpt lat="41.58485" lon="19.69312">
        <ele>57.497126</ele>
        <time>2022-05-14T11:22:38.063Z</time>
      </trkpt>
      <trkpt lat="41.58495" lon="19.69312">
        <ele>57.736223</ele>
        <time>2022-05-14T11:22:41.070Z</time>
      </trkpt>
      <trkpt lat="41.58505" lon="19.69312">
        <ele>57.977817</ele>
        <time>2022-05-14T11:22:44.063Z</time>
      </trkpt>
      <trkpt lat="41.58515" lon="19.6931">
        <ele>58.21602</ele>
        <time>2022-05-14T11:22:47.129Z</time>
      </trkpt>
      <trkpt lat="41.58526" lon="19.69309">
        <ele>58.465235</ele>
        <time>2022-05-14T11:22:50.066Z</time>
      </trkpt>
      <trkpt lat="41.58537" lon="19.69308">
        <ele>58.718687</ele>
        <time>2022-05-14T11:22:53.086Z</time>
      </trkpt>
      <trkpt lat="41.58547" lon="19.69307">
        <ele>58.967655</ele>
        <time>2022-05-14T11:22:56.099Z</time>
      </trkpt>
      <trkpt lat="41.58558" lon="19.69306">
        <ele>59.212849</ele>
        <time>2022-05-14T11:22:59.064Z</time>
      </trkpt>
      <trkpt lat="41.58567" lon="19.69305">
        <ele>59.440894</ele>
        <time>2022-05-14T11:23:02.074Z</time>
      </trkpt>
      <trkpt lat="41.58577" lon="19.69304">
        <ele>59.664741</ele>
        <time>2022-05-14T11:23:05.094Z</time>
      </trkpt>
      <trkpt lat="41.58588" lon="19.69302">
        <ele>59.933617</ele>
        <time>2022-05-14T11:23:09.099Z</time>
      </trkpt>
      <trkpt lat="41.58599" lon="19.69301">
        <ele>60.175688</ele>
        <time>2022-05-14T11:23:13.069Z</time>
      </trkpt>
      <trkpt lat="41.58609" lon="19.693">
        <ele>60.421911</ele>
        <time>2022-05-14T11:23:17.099Z</time>
      </trkpt>
      <trkpt lat="41.5862" lon="19.69299">
        <ele>60.586232</ele>
        <time>2022-05-14T11:23:21.109Z</time>
      </trkpt>
      <trkpt lat="41.58631" lon="19.69298">
        <ele>60.746566</ele>
        <time>2022-05-14T11:23:25.079Z</time>
      </trkpt>
      <trkpt lat="41.58641" lon="19.69297">
        <ele>60.892266</ele>
        <time>2022-05-14T11:23:29.081Z</time>
      </trkpt>
      <trkpt lat="41.5865" lon="19.69296">
        <ele>61.035927</ele>
        <time>2022-05-14T11:23:33.117Z</time>
      </trkpt>
      <trkpt lat="41.5866" lon="19.69295">
        <ele>61.187323</ele>
        <time>2022-05-14T11:23:37.073Z</time>
      </trkpt>
      <trkpt lat="41.58671" lon="19.69293">
        <ele>61.338546</ele>
        <time>2022-05-14T11:23:41.075Z</time>
      </trkpt>
      <trkpt lat="41.5868" lon="19.69292">
        <ele>61.482208</ele>
        <time>2022-05-14T11:23:45.120Z</time>
      </trkpt>
      <trkpt lat="41.58691" lon="19.69292">
        <ele>61.634657</ele>
        <time>2022-05-14T11:23:49.090Z</time>
      </trkpt>
      <trkpt lat="41.58701" lon="19.6929">
        <ele>61.791273</ele>
        <time>2022-05-14T11:23:53.086Z</time>
      </trkpt>
      <trkpt lat="41.58711" lon="19.6929">
        <ele>61.942244</ele>
        <time>2022-05-14T11:23:57.096Z</time>
      </trkpt>
      <trkpt lat="41.58723" lon="19.6929">
        <ele>62.109438</ele>
        <time>2022-05-14T11:24:01.064Z</time>
      </trkpt>
      <trkpt lat="41.58732" lon="19.69291">
        <ele>62.245837</ele>
        <time>2022-05-14T11:24:04.088Z</time>
      </trkpt>
      <trkpt lat="41.58741" lon="19.69295">
        <ele>62.384401</ele>
        <time>2022-05-14T11:24:07.079Z</time>
      </trkpt>
      <trkpt lat="41.58749" lon="19.693">
        <ele>62.525846</ele>
        <time>2022-05-14T11:24:10.079Z</time>
      </trkpt>
      <trkpt lat="41.58757" lon="19.69307">
        <ele>62.669142</ele>
        <time>2022-05-14T11:24:13.119Z</time>
      </trkpt>
      <trkpt lat="41.58765" lon="19.69315">
        <ele>62.815761</ele>
        <time>2022-05-14T11:24:16.100Z</time>
      </trkpt>
      <trkpt lat="41.58774" lon="19.69325">
        <ele>62.977407</ele>
        <time>2022-05-14T11:24:19.094Z</time>
      </trkpt>
      <trkpt lat="41.5878" lon="19.69334">
        <ele>63.014688</ele>
        <time>2022-05-14T11:24:22.133Z</time>
      </trkpt>
      <trkpt lat="41.58788" lon="19.69342">
        <ele>62.637366</ele>
        <time>2022-05-14T11:24:25.111Z</time>
      </trkpt>
      <trkpt lat="41.58797" lon="19.69353">
        <ele>62.205656</ele>
        <time>2022-05-14T11:24:28.082Z</time>
      </trkpt>
      <trkpt lat="41.58803" lon="19.69361">
        <ele>61.866593</ele>
        <time>2022-05-14T11:24:30.091Z</time>
      </trkpt>
      <trkpt lat="41.5881" lon="19.69371">
        <ele>61.490856</ele>
        <time>2022-05-14T11:24:32.064Z</time>
      </trkpt>
      <trkpt lat="41.58818" lon="19.6938">
        <ele>61.113086</ele>
        <time>2022-05-14T11:24:34.083Z</time>
      </trkpt>
      <trkpt lat="41.58825" lon="19.69388">
        <ele>60.777837</ele>
        <time>2022-05-14T11:24:36.114Z</time>
      </trkpt>
      <trkpt lat="41.58833" lon="19.69399">
        <ele>60.33609</ele>
        <time>2022-05-14T11:24:39.077Z</time>
      </trkpt>
      <trkpt lat="41.58841" lon="19.69409">
        <ele>59.932761</ele>
        <time>2022-05-14T11:24:42.110Z</time>
      </trkpt>
      <trkpt lat="41.58848" lon="19.69421">
        <ele>59.520392</ele>
        <time>2022-05-14T11:24:45.087Z</time>
      </trkpt>
      <trkpt lat="41.58855" lon="19.69435">
        <ele>59.046785</ele>
        <time>2022-05-14T11:24:48.092Z</time>
      </trkpt>
      <trkpt lat="41.58862" lon="19.6945">
        <ele>58.55979</ele>
        <time>2022-05-14T11:24:51.112Z</time>
      </trkpt>
      <trkpt lat="41.58869" lon="19.69464">
        <ele>58.077952</ele>
        <time>2022-05-14T11:24:54.091Z</time>
      </trkpt>
      <trkpt lat="41.58875" lon="19.69478">
        <ele>57.634229</ele>
        <time>2022-05-14T11:24:57.089Z</time>
      </trkpt>
      <trkpt lat="41.58879" lon="19.69489">
        <ele>57.275196</ele>
        <time>2022-05-14T11:25:01.095Z</time>
      </trkpt>
      <trkpt lat="41.58883" lon="19.69504">
        <ele>56.839856</ele>
        <time>2022-05-14T11:25:05.107Z</time>
      </trkpt>
      <trkpt lat="41.58887" lon="19.69516">
        <ele>56.481198</ele>
        <time>2022-05-14T11:25:08.094Z</time>
      </trkpt>
      <trkpt lat="41.58891" lon="19.69529">
        <ele>56.338378</ele>
        <time>2022-05-14T11:25:11.083Z</time>
      </trkpt>
      <trkpt lat="41.58895" lon="19.69543">
        <ele>56.263222</ele>
        <time>2022-05-14T11:25:14.080Z</time>
      </trkpt>
      <trkpt lat="41.58898" lon="19.69557">
        <ele>56.187804</ele>
        <time>2022-05-14T11:25:17.088Z</time>
      </trkpt>
      <trkpt lat="41.58901" lon="19.69571">
        <ele>56.111658</ele>
        <time>2022-05-14T11:25:20.082Z</time>
      </trkpt>
      <trkpt lat="41.58904" lon="19.69588">
        <ele>56.025911</ele>
        <time>2022-05-14T11:25:23.084Z</time>
      </trkpt>
      <trkpt lat="41.58905" lon="19.69601">
        <ele>55.956796</ele>
        <time>2022-05-14T11:25:26.082Z</time>
      </trkpt>
      <trkpt lat="41.58906" lon="19.69617">
        <ele>55.876275</ele>
        <time>2022-05-14T11:25:30.087Z</time>
      </trkpt>
      <trkpt lat="41.58905" lon="19.69632">
        <ele>55.795708</ele>
        <time>2022-05-14T11:25:34.076Z</time>
      </trkpt>
      <trkpt lat="41.58905" lon="19.69645">
        <ele>55.731561</ele>
        <time>2022-05-14T11:25:37.092Z</time>
      </trkpt>
      <trkpt lat="41.58904" lon="19.69659">
        <ele>55.658641</ele>
        <time>2022-05-14T11:25:42.077Z</time>
      </trkpt>
      <trkpt lat="41.58904" lon="19.69674">
        <ele>55.584287</ele>
        <time>2022-05-14T11:25:46.088Z</time>
      </trkpt>
      <trkpt lat="41.58903" lon="19.69689">
        <ele>55.505696</ele>
        <time>2022-05-14T11:25:50.076Z</time>
      </trkpt>
      <trkpt lat="41.58903" lon="19.69702">
        <ele>55.436871</ele>
        <time>2022-05-14T11:25:53.081Z</time>
      </trkpt>
      <trkpt lat="41.58902" lon="19.69716">
        <ele>55.365079</ele>
        <time>2022-05-14T11:25:56.089Z</time>
      </trkpt>
      <trkpt lat="41.58902" lon="19.69731">
        <ele>55.288125</ele>
        <time>2022-05-14T11:25:59.082Z</time>
      </trkpt>
      <trkpt lat="41.58901" lon="19.69746">
        <ele>55.210461</ele>
        <time>2022-05-14T11:26:02.088Z</time>
      </trkpt>
      <trkpt lat="41.589" lon="19.69762">
        <ele>55.080118</ele>
        <time>2022-05-14T11:26:05.099Z</time>
      </trkpt>
      <trkpt lat="41.589" lon="19.69779">
        <ele>54.863571</ele>
        <time>2022-05-14T11:26:08.076Z</time>
      </trkpt>
      <trkpt lat="41.58899" lon="19.69795">
        <ele>54.647298</ele>
        <time>2022-05-14T11:26:11.082Z</time>
      </trkpt>
      <trkpt lat="41.58898" lon="19.69813">
        <ele>54.420244</ele>
        <time>2022-05-14T11:26:14.075Z</time>
      </trkpt>
      <trkpt lat="41.58897" lon="19.6983">
        <ele>54.193304</ele>
        <time>2022-05-14T11:26:17.111Z</time>
      </trkpt>
      <trkpt lat="41.58897" lon="19.69847">
        <ele>53.971663</ele>
        <time>2022-05-14T11:26:20.076Z</time>
      </trkpt>
      <trkpt lat="41.58896" lon="19.69864">
        <ele>53.746345</ele>
        <time>2022-05-14T11:26:23.116Z</time>
      </trkpt>
      <trkpt lat="41.58896" lon="19.69882">
        <ele>53.51569</ele>
        <time>2022-05-14T11:26:26.087Z</time>
      </trkpt>
      <trkpt lat="41.58896" lon="19.69898">
        <ele>53.30083</ele>
        <time>2022-05-14T11:26:29.074Z</time>
      </trkpt>
      <trkpt lat="41.58899" lon="19.69916">
        <ele>53.064179</ele>
        <time>2022-05-14T11:26:32.111Z</time>
      </trkpt>
      <trkpt lat="41.58903" lon="19.69929">
        <ele>52.887863</ele>
        <time>2022-05-14T11:26:34.091Z</time>
      </trkpt>
      <trkpt lat="41.58907" lon="19.69943">
        <ele>52.688974</ele>
        <time>2022-05-14T11:26:36.086Z</time>
      </trkpt>
      <trkpt lat="41.58913" lon="19.69955">
        <ele>52.499015</ele>
        <time>2022-05-14T11:26:38.088Z</time>
      </trkpt>
      <trkpt lat="41.5892" lon="19.69966">
        <ele>52.311366</ele>
        <time>2022-05-14T11:26:40.124Z</time>
      </trkpt>
      <trkpt lat="41.58927" lon="19.69976">
        <ele>52.131902</ele>
        <time>2022-05-14T11:26:42.097Z</time>
      </trkpt>
      <trkpt lat="41.58935" lon="19.69984">
        <ele>51.983675</ele>
        <time>2022-05-14T11:26:44.081Z</time>
      </trkpt>
      <trkpt lat="41.58946" lon="19.69992">
        <ele>51.812472</ele>
        <time>2022-05-14T11:26:47.077Z</time>
      </trkpt>
      <trkpt lat="41.58958" lon="19.69999">
        <ele>51.642325</ele>
        <time>2022-05-14T11:26:50.087Z</time>
      </trkpt>
      <trkpt lat="41.58969" lon="19.70005">
        <ele>51.489437</ele>
        <time>2022-05-14T11:26:53.098Z</time>
      </trkpt>
      <trkpt lat="41.58979" lon="19.70011">
        <ele>51.331398</ele>
        <time>2022-05-14T11:26:56.074Z</time>
      </trkpt>
      <trkpt lat="41.5899" lon="19.70017">
        <ele>51.184234</ele>
        <time>2022-05-14T11:26:59.080Z</time>
      </trkpt>
      <trkpt lat="41.59" lon="19.70023">
        <ele>51.039067</ele>
        <time>2022-05-14T11:27:02.125Z</time>
      </trkpt>
      <trkpt lat="41.5901" lon="19.70028">
        <ele>50.896794</ele>
        <time>2022-05-14T11:27:05.090Z</time>
      </trkpt>
      <trkpt lat="41.5902" lon="19.70029">
        <ele>50.76223</ele>
        <time>2022-05-14T11:27:08.079Z</time>
      </trkpt>
      <trkpt lat="41.5903" lon="19.7003">
        <ele>50.623178</ele>
        <time>2022-05-14T11:27:11.084Z</time>
      </trkpt>
      <trkpt lat="41.59041" lon="19.70027">
        <ele>50.483751</ele>
        <time>2022-05-14T11:27:14.083Z</time>
      </trkpt>
      <trkpt lat="41.5905" lon="19.70022">
        <ele>50.345733</ele>
        <time>2022-05-14T11:27:17.073Z</time>
      </trkpt>
      <trkpt lat="41.5906" lon="19.70015">
        <ele>50.203564</ele>
        <time>2022-05-14T11:27:20.094Z</time>
      </trkpt>
      <trkpt lat="41.59069" lon="19.70007">
        <ele>50.054296</ele>
        <time>2022-05-14T11:27:23.079Z</time>
      </trkpt>
      <trkpt lat="41.59079" lon="19.69997">
        <ele>49.889532</ele>
        <time>2022-05-14T11:27:26.076Z</time>
      </trkpt>
      <trkpt lat="41.59089" lon="19.69988">
        <ele>49.731478</ele>
        <time>2022-05-14T11:27:29.066Z</time>
      </trkpt>
      <trkpt lat="41.59099" lon="19.69977">
        <ele>49.719267</ele>
        <time>2022-05-14T11:27:32.073Z</time>
      </trkpt>
      <trkpt lat="41.59109" lon="19.69966">
        <ele>49.851985</ele>
        <time>2022-05-14T11:27:35.113Z</time>
      </trkpt>
      <trkpt lat="41.59119" lon="19.69957">
        <ele>49.977864</ele>
        <time>2022-05-14T11:27:38.077Z</time>
      </trkpt>
      <trkpt lat="41.5913" lon="19.69948">
        <ele>50.110924</ele>
        <time>2022-05-14T11:27:41.083Z</time>
      </trkpt>
      <trkpt lat="41.59141" lon="19.69938">
        <ele>50.240998</ele>
        <time>2022-05-14T11:27:44.095Z</time>
      </trkpt>
      <trkpt lat="41.59151" lon="19.69929">
        <ele>50.365985</ele>
        <time>2022-05-14T11:27:47.118Z</time>
      </trkpt>
      <trkpt lat="41.59162" lon="19.6992">
        <ele>50.490972</ele>
        <time>2022-05-14T11:27:50.086Z</time>
      </trkpt>
      <trkpt lat="41.59172" lon="19.69912">
        <ele>50.615263</ele>
        <time>2022-05-14T11:27:53.075Z</time>
      </trkpt>
      <trkpt lat="41.59183" lon="19.69909">
        <ele>50.725483</ele>
        <time>2022-05-14T11:27:56.083Z</time>
      </trkpt>
      <trkpt lat="41.59195" lon="19.69906">
        <ele>50.849353</ele>
        <time>2022-05-14T11:27:59.082Z</time>
      </trkpt>
      <trkpt lat="41.59206" lon="19.69904">
        <ele>50.963487</ele>
        <time>2022-05-14T11:28:02.059Z</time>
      </trkpt>
      <trkpt lat="41.59218" lon="19.69905">
        <ele>51.083372</ele>
        <time>2022-05-14T11:28:05.091Z</time>
      </trkpt>
      <trkpt lat="41.5923" lon="19.69905">
        <ele>51.207308</ele>
        <time>2022-05-14T11:28:08.072Z</time>
      </trkpt>
      <trkpt lat="41.59242" lon="19.69905">
        <ele>51.327194</ele>
        <time>2022-05-14T11:28:11.077Z</time>
      </trkpt>
      <trkpt lat="41.59253" lon="19.69904">
        <ele>51.446284</ele>
        <time>2022-05-14T11:28:14.099Z</time>
      </trkpt>
      <trkpt lat="41.59265" lon="19.69903">
        <ele>51.35809</ele>
        <time>2022-05-14T11:28:17.081Z</time>
      </trkpt>
      <trkpt lat="41.59278" lon="19.699">
        <ele>51.18959</ele>
        <time>2022-05-14T11:28:20.081Z</time>
      </trkpt>
      <trkpt lat="41.59289" lon="19.69898">
        <ele>51.02957</ele>
        <time>2022-05-14T11:28:23.094Z</time>
      </trkpt>
      <trkpt lat="41.59301" lon="19.69896">
        <ele>50.868601</ele>
        <time>2022-05-14T11:28:26.106Z</time>
      </trkpt>
      <trkpt lat="41.59313" lon="19.69893">
        <ele>50.706793</ele>
        <time>2022-05-14T11:28:29.095Z</time>
      </trkpt>
      <trkpt lat="41.59324" lon="19.69892">
        <ele>50.552545</ele>
        <time>2022-05-14T11:28:32.083Z</time>
      </trkpt>
      <trkpt lat="41.59336" lon="19.6989">
        <ele>50.397075</ele>
        <time>2022-05-14T11:28:35.097Z</time>
      </trkpt>
      <trkpt lat="41.59347" lon="19.69887">
        <ele>50.239437</ele>
        <time>2022-05-14T11:28:38.097Z</time>
      </trkpt>
      <trkpt lat="41.59359" lon="19.69886">
        <ele>50.084083</ele>
        <time>2022-05-14T11:28:41.081Z</time>
      </trkpt>
      <trkpt lat="41.5937" lon="19.69884">
        <ele>49.925543</ele>
        <time>2022-05-14T11:28:44.091Z</time>
      </trkpt>
      <trkpt lat="41.59382" lon="19.69882">
        <ele>49.770668</ele>
        <time>2022-05-14T11:28:47.080Z</time>
      </trkpt>
      <trkpt lat="41.59393" lon="19.69881">
        <ele>49.621015</ele>
        <time>2022-05-14T11:28:50.076Z</time>
      </trkpt>
      <trkpt lat="41.59403" lon="19.69879">
        <ele>49.473849</ele>
        <time>2022-05-14T11:28:53.094Z</time>
      </trkpt>
      <trkpt lat="41.59414" lon="19.69877">
        <ele>49.32484</ele>
        <time>2022-05-14T11:28:56.088Z</time>
      </trkpt>
      <trkpt lat="41.59425" lon="19.69876">
        <ele>49.172393</ele>
        <time>2022-05-14T11:28:59.073Z</time>
      </trkpt>
      <trkpt lat="41.59437" lon="19.69874">
        <ele>49.036683</ele>
        <time>2022-05-14T11:29:02.057Z</time>
      </trkpt>
      <trkpt lat="41.59448" lon="19.69872">
        <ele>48.998878</ele>
        <time>2022-05-14T11:29:05.068Z</time>
      </trkpt>
      <trkpt lat="41.59459" lon="19.69869">
        <ele>48.960529</ele>
        <time>2022-05-14T11:29:08.078Z</time>
      </trkpt>
      <trkpt lat="41.5947" lon="19.69866">
        <ele>48.922467</ele>
        <time>2022-05-14T11:29:11.076Z</time>
      </trkpt>
      <trkpt lat="41.59481" lon="19.69865">
        <ele>48.884324</ele>
        <time>2022-05-14T11:29:14.081Z</time>
      </trkpt>
      <trkpt lat="41.59492" lon="19.69862">
        <ele>48.845032</ele>
        <time>2022-05-14T11:29:17.058Z</time>
      </trkpt>
      <trkpt lat="41.59504" lon="19.69859">
        <ele>48.805012</ele>
        <time>2022-05-14T11:29:20.075Z</time>
      </trkpt>
      <trkpt lat="41.59516" lon="19.69858">
        <ele>48.762879</ele>
        <time>2022-05-14T11:29:23.113Z</time>
      </trkpt>
      <trkpt lat="41.59528" lon="19.69858">
        <ele>48.721923</ele>
        <time>2022-05-14T11:29:26.079Z</time>
      </trkpt>
      <trkpt lat="41.5954" lon="19.69862">
        <ele>48.680577</ele>
        <time>2022-05-14T11:29:29.095Z</time>
      </trkpt>
      <trkpt lat="41.59551" lon="19.69867">
        <ele>48.639727</ele>
        <time>2022-05-14T11:29:32.094Z</time>
      </trkpt>
      <trkpt lat="41.59563" lon="19.69872">
        <ele>48.597978</ele>
        <time>2022-05-14T11:29:35.083Z</time>
      </trkpt>
      <trkpt lat="41.59575" lon="19.69878">
        <ele>48.554</ele>
        <time>2022-05-14T11:29:38.102Z</time>
      </trkpt>
      <trkpt lat="41.59587" lon="19.69883">
        <ele>48.51185</ele>
        <time>2022-05-14T11:29:41.080Z</time>
      </trkpt>
      <trkpt lat="41.59598" lon="19.69887">
        <ele>48.471644</ele>
        <time>2022-05-14T11:29:44.076Z</time>
      </trkpt>
      <trkpt lat="41.5961" lon="19.6989">
        <ele>48.429838</ele>
        <time>2022-05-14T11:29:47.082Z</time>
      </trkpt>
      <trkpt lat="41.59622" lon="19.69892">
        <ele>48.416997</ele>
        <time>2022-05-14T11:29:50.102Z</time>
      </trkpt>
      <trkpt lat="41.59633" lon="19.69894">
        <ele>48.405137</ele>
        <time>2022-05-14T11:29:53.060Z</time>
      </trkpt>
      <trkpt lat="41.59645" lon="19.69896">
        <ele>48.393044</ele>
        <time>2022-05-14T11:29:56.083Z</time>
      </trkpt>
      <trkpt lat="41.59657" lon="19.69898">
        <ele>48.380994</ele>
        <time>2022-05-14T11:29:59.086Z</time>
      </trkpt>
      <trkpt lat="41.59668" lon="19.699">
        <ele>48.369288</ele>
        <time>2022-05-14T11:30:02.058Z</time>
      </trkpt>
      <trkpt lat="41.5968" lon="19.69902">
        <ele>48.357462</ele>
        <time>2022-05-14T11:30:05.098Z</time>
      </trkpt>
      <trkpt lat="41.59691" lon="19.69904">
        <ele>48.345544</ele>
        <time>2022-05-14T11:30:08.114Z</time>
      </trkpt>
      <trkpt lat="41.59703" lon="19.69907">
        <ele>48.333847</ele>
        <time>2022-05-14T11:30:11.107Z</time>
      </trkpt>
      <trkpt lat="41.59714" lon="19.69909">
        <ele>48.322503</ele>
        <time>2022-05-14T11:30:14.103Z</time>
      </trkpt>
      <trkpt lat="41.59725" lon="19.69912">
        <ele>48.311158</ele>
        <time>2022-05-14T11:30:17.103Z</time>
      </trkpt>
      <trkpt lat="41.59735" lon="19.69914">
        <ele>48.300115</ele>
        <time>2022-05-14T11:30:20.090Z</time>
      </trkpt>
      <trkpt lat="41.59746" lon="19.69916">
        <ele>48.289016</ele>
        <time>2022-05-14T11:30:23.086Z</time>
      </trkpt>
      <trkpt lat="41.59757" lon="19.69918">
        <ele>48.278086</ele>
        <time>2022-05-14T11:30:26.080Z</time>
      </trkpt>
      <trkpt lat="41.59767" lon="19.6992">
        <ele>48.267156</ele>
        <time>2022-05-14T11:30:29.092Z</time>
      </trkpt>
      <trkpt lat="41.59778" lon="19.69922">
        <ele>48.25655</ele>
        <time>2022-05-14T11:30:32.072Z</time>
      </trkpt>
      <trkpt lat="41.59788" lon="19.69924">
        <ele>48.245844</ele>
        <time>2022-05-14T11:30:35.094Z</time>
      </trkpt>
      <trkpt lat="41.59798" lon="19.69926">
        <ele>48.385352</ele>
        <time>2022-05-14T11:30:38.070Z</time>
      </trkpt>
      <trkpt lat="41.59808" lon="19.69927">
        <ele>48.528794</ele>
        <time>2022-05-14T11:30:41.094Z</time>
      </trkpt>
      <trkpt lat="41.59818" lon="19.69929">
        <ele>48.668867</ele>
        <time>2022-05-14T11:30:44.071Z</time>
      </trkpt>
      <trkpt lat="41.59828" lon="19.69932">
        <ele>48.812686</ele>
        <time>2022-05-14T11:30:47.087Z</time>
      </trkpt>
      <trkpt lat="41.59838" lon="19.69935">
        <ele>48.957904</ele>
        <time>2022-05-14T11:30:50.093Z</time>
      </trkpt>
      <trkpt lat="41.59848" lon="19.69937">
        <ele>49.105726</ele>
        <time>2022-05-14T11:30:53.111Z</time>
      </trkpt>
      <trkpt lat="41.59858" lon="19.69939">
        <ele>49.248963</ele>
        <time>2022-05-14T11:30:56.065Z</time>
      </trkpt>
      <trkpt lat="41.59867" lon="19.69942">
        <ele>49.384996</ele>
        <time>2022-05-14T11:30:59.092Z</time>
      </trkpt>
      <trkpt lat="41.59876" lon="19.69944">
        <ele>49.518221</ele>
        <time>2022-05-14T11:31:02.117Z</time>
      </trkpt>
      <trkpt lat="41.59885" lon="19.69946">
        <ele>49.65065</ele>
        <time>2022-05-14T11:31:05.106Z</time>
      </trkpt>
      <trkpt lat="41.59898" lon="19.69949">
        <ele>49.830093</ele>
        <time>2022-05-14T11:31:09.101Z</time>
      </trkpt>
      <trkpt lat="41.59907" lon="19.69951">
        <ele>49.965039</ele>
        <time>2022-05-14T11:31:12.070Z</time>
      </trkpt>
      <trkpt lat="41.59917" lon="19.69953">
        <ele>50.105659</ele>
        <time>2022-05-14T11:31:15.044Z</time>
      </trkpt>
      <trkpt lat="41.59926" lon="19.69955">
        <ele>50.243281</ele>
        <time>2022-05-14T11:31:18.056Z</time>
      </trkpt>
      <trkpt lat="41.59936" lon="19.69958">
        <ele>50.388108</ele>
        <time>2022-05-14T11:31:21.077Z</time>
      </trkpt>
      <trkpt lat="41.59947" lon="19.6996">
        <ele>50.533979</ele>
        <time>2022-05-14T11:31:24.075Z</time>
      </trkpt>
      <trkpt lat="41.59957" lon="19.69962">
        <ele>50.678444</ele>
        <time>2022-05-14T11:31:27.080Z</time>
      </trkpt>
      <trkpt lat="41.59966" lon="19.69964">
        <ele>50.826016</ele>
        <time>2022-05-14T11:31:30.099Z</time>
      </trkpt>
      <trkpt lat="41.59975" lon="19.69966">
        <ele>51.163605</ele>
        <time>2022-05-14T11:31:33.059Z</time>
      </trkpt>
      <trkpt lat="41.59985" lon="19.69969">
        <ele>51.513279</ele>
        <time>2022-05-14T11:31:36.073Z</time>
      </trkpt>
      <trkpt lat="41.59995" lon="19.69971">
        <ele>51.874625</ele>
        <time>2022-05-14T11:31:39.100Z</time>
      </trkpt>
      <trkpt lat="41.60004" lon="19.69974">
        <ele>52.238753</ele>
        <time>2022-05-14T11:31:42.091Z</time>
      </trkpt>
      <trkpt lat="41.60014" lon="19.69977">
        <ele>52.579327</ele>
        <time>2022-05-14T11:31:45.122Z</time>
      </trkpt>
      <trkpt lat="41.60023" lon="19.6998">
        <ele>52.92782</ele>
        <time>2022-05-14T11:31:48.102Z</time>
      </trkpt>
      <trkpt lat="41.60032" lon="19.69985">
        <ele>53.286491</ele>
        <time>2022-05-14T11:31:51.082Z</time>
      </trkpt>
      <trkpt lat="41.6004" lon="19.69992">
        <ele>53.629768</ele>
        <time>2022-05-14T11:31:54.094Z</time>
      </trkpt>
      <trkpt lat="41.60047" lon="19.70001">
        <ele>53.976986</ele>
        <time>2022-05-14T11:31:57.085Z</time>
      </trkpt>
      <trkpt lat="41.60053" lon="19.70012">
        <ele>54.341387</ele>
        <time>2022-05-14T11:32:00.098Z</time>
      </trkpt>
      <trkpt lat="41.60058" lon="19.70023">
        <ele>54.70688</ele>
        <time>2022-05-14T11:32:03.076Z</time>
      </trkpt>
      <trkpt lat="41.60062" lon="19.70036">
        <ele>55.07557</ele>
        <time>2022-05-14T11:32:06.077Z</time>
      </trkpt>
      <trkpt lat="41.60067" lon="19.7005">
        <ele>55.507162</ele>
        <time>2022-05-14T11:32:09.076Z</time>
      </trkpt>
      <trkpt lat="41.60071" lon="19.70062">
        <ele>55.842324</ele>
        <time>2022-05-14T11:32:11.077Z</time>
      </trkpt>
      <trkpt lat="41.60075" lon="19.70074">
        <ele>56.200338</ele>
        <time>2022-05-14T11:32:13.084Z</time>
      </trkpt>
      <trkpt lat="41.60081" lon="19.70089">
        <ele>56.681081</ele>
        <time>2022-05-14T11:32:16.089Z</time>
      </trkpt>
      <trkpt lat="41.60085" lon="19.70102">
        <ele>57.03752</ele>
        <time>2022-05-14T11:32:18.086Z</time>
      </trkpt>
      <trkpt lat="41.60088" lon="19.70113">
        <ele>57.330978</ele>
        <time>2022-05-14T11:32:20.096Z</time>
      </trkpt>
      <trkpt lat="41.60094" lon="19.70129">
        <ele>57.401398</ele>
        <time>2022-05-14T11:32:23.091Z</time>
      </trkpt>
      <trkpt lat="41.60099" lon="19.70144">
        <ele>57.468771</ele>
        <time>2022-05-14T11:32:26.095Z</time>
      </trkpt>
      <trkpt lat="41.60104" lon="19.70159">
        <ele>57.534619</ele>
        <time>2022-05-14T11:32:29.100Z</time>
      </trkpt>
      <trkpt lat="41.6011" lon="19.70174">
        <ele>57.60348</ele>
        <time>2022-05-14T11:32:32.076Z</time>
      </trkpt>
      <trkpt lat="41.60115" lon="19.7019">
        <ele>57.673435</ele>
        <time>2022-05-14T11:32:35.075Z</time>
      </trkpt>
      <trkpt lat="41.60121" lon="19.70205">
        <ele>57.740482</ele>
        <time>2022-05-14T11:32:38.093Z</time>
      </trkpt>
      <trkpt lat="41.60126" lon="19.7022">
        <ele>57.806234</ele>
        <time>2022-05-14T11:32:41.079Z</time>
      </trkpt>
      <trkpt lat="41.60131" lon="19.70235">
        <ele>57.873643</ele>
        <time>2022-05-14T11:32:44.089Z</time>
      </trkpt>
      <trkpt lat="41.60137" lon="19.7025">
        <ele>57.943233</ele>
        <time>2022-05-14T11:32:47.105Z</time>
      </trkpt>
      <trkpt lat="41.60142" lon="19.70264">
        <ele>58.006335</ele>
        <time>2022-05-14T11:32:50.075Z</time>
      </trkpt>
      <trkpt lat="41.60146" lon="19.70278">
        <ele>58.066055</ele>
        <time>2022-05-14T11:32:53.076Z</time>
      </trkpt>
      <trkpt lat="41.60151" lon="19.70291">
        <ele>58.126431</ele>
        <time>2022-05-14T11:32:56.079Z</time>
      </trkpt>
      <trkpt lat="41.60156" lon="19.70305">
        <ele>58.186019</ele>
        <time>2022-05-14T11:32:59.107Z</time>
      </trkpt>
      <trkpt lat="41.6016" lon="19.70319">
        <ele>58.247814</ele>
        <time>2022-05-14T11:33:02.075Z</time>
      </trkpt>
      <trkpt lat="41.60165" lon="19.70332">
        <ele>58.327803</ele>
        <time>2022-05-14T11:33:05.111Z</time>
      </trkpt>
      <trkpt lat="41.60169" lon="19.70345">
        <ele>58.472321</ele>
        <time>2022-05-14T11:33:08.091Z</time>
      </trkpt>
      <trkpt lat="41.60173" lon="19.7036">
        <ele>58.632266</ele>
        <time>2022-05-14T11:33:11.077Z</time>
      </trkpt>
      <trkpt lat="41.60176" lon="19.70376">
        <ele>58.79945</ele>
        <time>2022-05-14T11:33:14.104Z</time>
      </trkpt>
      <trkpt lat="41.60177" lon="19.70391">
        <ele>58.950493</ele>
        <time>2022-05-14T11:33:17.082Z</time>
      </trkpt>
      <trkpt lat="41.60178" lon="19.70405">
        <ele>59.098176</ele>
        <time>2022-05-14T11:33:20.086Z</time>
      </trkpt>
      <trkpt lat="41.60179" lon="19.70419">
        <ele>59.24129</ele>
        <time>2022-05-14T11:33:23.114Z</time>
      </trkpt>
      <trkpt lat="41.6018" lon="19.70432">
        <ele>59.370072</ele>
        <time>2022-05-14T11:33:26.078Z</time>
      </trkpt>
      <trkpt lat="41.6018" lon="19.70445">
        <ele>59.499634</ele>
        <time>2022-05-14T11:33:29.084Z</time>
      </trkpt>
      <trkpt lat="41.6018" lon="19.70457">
        <ele>59.628178</ele>
        <time>2022-05-14T11:33:32.122Z</time>
      </trkpt>
      <trkpt lat="41.60181" lon="19.7047">
        <ele>59.761382</ele>
        <time>2022-05-14T11:33:35.091Z</time>
      </trkpt>
      <trkpt lat="41.60182" lon="19.70486">
        <ele>59.918403</ele>
        <time>2022-05-14T11:33:38.072Z</time>
      </trkpt>
      <trkpt lat="41.60182" lon="19.70502">
        <ele>60.085702</ele>
        <time>2022-05-14T11:33:41.078Z</time>
      </trkpt>
      <trkpt lat="41.60183" lon="19.70517">
        <ele>60.241941</ele>
        <time>2022-05-14T11:33:44.099Z</time>
      </trkpt>
      <trkpt lat="41.60185" lon="19.70533">
        <ele>60.401569</ele>
        <time>2022-05-14T11:33:47.078Z</time>
      </trkpt>
      <trkpt lat="41.6019" lon="19.70547">
        <ele>60.55672</ele>
        <time>2022-05-14T11:33:50.110Z</time>
      </trkpt>
      <trkpt lat="41.60194" lon="19.70559">
        <ele>60.702382</ele>
        <time>2022-05-14T11:33:53.094Z</time>
      </trkpt>
      <trkpt lat="41.60201" lon="19.70571">
        <ele>60.613443</ele>
        <time>2022-05-14T11:33:56.113Z</time>
      </trkpt>
      <trkpt lat="41.60209" lon="19.70583">
        <ele>60.394408</ele>
        <time>2022-05-14T11:33:59.087Z</time>
      </trkpt>
      <trkpt lat="41.60218" lon="19.70594">
        <ele>60.160305</ele>
        <time>2022-05-14T11:34:02.081Z</time>
      </trkpt>
      <trkpt lat="41.60229" lon="19.70605">
        <ele>59.919488</ele>
        <time>2022-05-14T11:34:05.074Z</time>
      </trkpt>
      <trkpt lat="41.6024" lon="19.70615">
        <ele>59.672787</ele>
        <time>2022-05-14T11:34:08.070Z</time>
      </trkpt>
      <trkpt lat="41.60247" lon="19.70623">
        <ele>59.504236</ele>
        <time>2022-05-14T11:34:10.123Z</time>
      </trkpt>
      <trkpt lat="41.60257" lon="19.70634">
        <ele>59.260923</ele>
        <time>2022-05-14T11:34:13.121Z</time>
      </trkpt>
      <trkpt lat="41.60268" lon="19.70645">
        <ele>59.013538</ele>
        <time>2022-05-14T11:34:16.069Z</time>
      </trkpt>
      <trkpt lat="41.60279" lon="19.70655">
        <ele>58.767782</ele>
        <time>2022-05-14T11:34:19.088Z</time>
      </trkpt>
      <trkpt lat="41.6029" lon="19.70665">
        <ele>58.525044</ele>
        <time>2022-05-14T11:34:22.094Z</time>
      </trkpt>
      <trkpt lat="41.60301" lon="19.70676">
        <ele>58.281114</ele>
        <time>2022-05-14T11:34:25.072Z</time>
      </trkpt>
      <trkpt lat="41.60312" lon="19.70685">
        <ele>58.038409</ele>
        <time>2022-05-14T11:34:28.096Z</time>
      </trkpt>
      <trkpt lat="41.60319" lon="19.70692">
        <ele>57.870252</ele>
        <time>2022-05-14T11:34:30.085Z</time>
      </trkpt>
      <trkpt lat="41.60327" lon="19.70699">
        <ele>57.704377</ele>
        <time>2022-05-14T11:34:32.108Z</time>
      </trkpt>
      <trkpt lat="41.60335" lon="19.70705">
        <ele>57.536963</ele>
        <time>2022-05-14T11:34:34.067Z</time>
      </trkpt>
      <trkpt lat="41.60343" lon="19.70712">
        <ele>57.391428</ele>
        <time>2022-05-14T11:34:36.070Z</time>
      </trkpt>
      <trkpt lat="41.60351" lon="19.70719">
        <ele>57.271032</ele>
        <time>2022-05-14T11:34:38.084Z</time>
      </trkpt>
      <trkpt lat="41.60358" lon="19.70725">
        <ele>57.15235</ele>
        <time>2022-05-14T11:34:40.095Z</time>
      </trkpt>
      <trkpt lat="41.60366" lon="19.70732">
        <ele>57.03632</ele>
        <time>2022-05-14T11:34:42.093Z</time>
      </trkpt>
      <trkpt lat="41.60374" lon="19.70738">
        <ele>56.920289</ele>
        <time>2022-05-14T11:34:44.081Z</time>
      </trkpt>
      <trkpt lat="41.60381" lon="19.70745">
        <ele>56.803204</ele>
        <time>2022-05-14T11:34:46.073Z</time>
      </trkpt>
      <trkpt lat="41.60389" lon="19.70752">
        <ele>56.684522</ele>
        <time>2022-05-14T11:34:48.097Z</time>
      </trkpt>
      <trkpt lat="41.60396" lon="19.70759">
        <ele>56.567437</ele>
        <time>2022-05-14T11:34:50.096Z</time>
      </trkpt>
      <trkpt lat="41.60404" lon="19.70766">
        <ele>56.450894</ele>
        <time>2022-05-14T11:34:52.086Z</time>
      </trkpt>
      <trkpt lat="41.60411" lon="19.70773">
        <ele>56.332204</ele>
        <time>2022-05-14T11:34:54.082Z</time>
      </trkpt>
      <trkpt lat="41.60419" lon="19.7078">
        <ele>56.209115</ele>
        <time>2022-05-14T11:34:56.081Z</time>
      </trkpt>
      <trkpt lat="41.60427" lon="19.70788">
        <ele>56.081778</ele>
        <time>2022-05-14T11:34:58.125Z</time>
      </trkpt>
      <trkpt lat="41.60435" lon="19.70797">
        <ele>55.950532</ele>
        <time>2022-05-14T11:35:00.081Z</time>
      </trkpt>
      <trkpt lat="41.60443" lon="19.70805">
        <ele>55.822115</ele>
        <time>2022-05-14T11:35:02.084Z</time>
      </trkpt>
      <trkpt lat="41.60451" lon="19.70814">
        <ele>55.690862</ele>
        <time>2022-05-14T11:35:04.117Z</time>
      </trkpt>
      <trkpt lat="41.60458" lon="19.70822">
        <ele>55.563794</ele>
        <time>2022-05-14T11:35:06.079Z</time>
      </trkpt>
      <trkpt lat="41.60465" lon="19.70831">
        <ele>55.445732</ele>
        <time>2022-05-14T11:35:08.089Z</time>
      </trkpt>
      <trkpt lat="41.60473" lon="19.70844">
        <ele>55.280493</ele>
        <time>2022-05-14T11:35:11.087Z</time>
      </trkpt>
      <trkpt lat="41.60479" lon="19.70854">
        <ele>55.162599</ele>
        <time>2022-05-14T11:35:13.078Z</time>
      </trkpt>
      <trkpt lat="41.60484" lon="19.70864">
        <ele>55.200107</ele>
        <time>2022-05-14T11:35:15.111Z</time>
      </trkpt>
      <trkpt lat="41.6049" lon="19.70875">
        <ele>55.275516</ele>
        <time>2022-05-14T11:35:17.076Z</time>
      </trkpt>
      <trkpt lat="41.60496" lon="19.70887">
        <ele>55.350256</ele>
        <time>2022-05-14T11:35:19.094Z</time>
      </trkpt>
      <trkpt lat="41.60501" lon="19.70898">
        <ele>55.422024</ele>
        <time>2022-05-14T11:35:21.122Z</time>
      </trkpt>
      <trkpt lat="41.60506" lon="19.70909">
        <ele>55.493936</ele>
        <time>2022-05-14T11:35:23.068Z</time>
      </trkpt>
      <trkpt lat="41.60512" lon="19.7092">
        <ele>55.566764</ele>
        <time>2022-05-14T11:35:25.065Z</time>
      </trkpt>
      <trkpt lat="41.60517" lon="19.7093">
        <ele>55.636573</ele>
        <time>2022-05-14T11:35:27.093Z</time>
      </trkpt>
      <trkpt lat="41.60522" lon="19.7094">
        <ele>55.704121</ele>
        <time>2022-05-14T11:35:29.103Z</time>
      </trkpt>
      <trkpt lat="41.60529" lon="19.70954">
        <ele>55.799104</ele>
        <time>2022-05-14T11:35:32.064Z</time>
      </trkpt>
      <trkpt lat="41.60536" lon="19.70968">
        <ele>55.889511</ele>
        <time>2022-05-14T11:35:35.085Z</time>
      </trkpt>
      <trkpt lat="41.60542" lon="19.70982">
        <ele>55.980534</ele>
        <time>2022-05-14T11:35:38.082Z</time>
      </trkpt>
      <trkpt lat="41.60548" lon="19.70995">
        <ele>56.065615</ele>
        <time>2022-05-14T11:35:41.080Z</time>
      </trkpt>
      <trkpt lat="41.60554" lon="19.71008">
        <ele>56.149283</ele>
        <time>2022-05-14T11:35:44.092Z</time>
      </trkpt>
      <trkpt lat="41.6056" lon="19.71021">
        <ele>56.232483</ele>
        <time>2022-05-14T11:35:47.084Z</time>
      </trkpt>
      <trkpt lat="41.60567" lon="19.71033">
        <ele>56.313265</ele>
        <time>2022-05-14T11:35:50.092Z</time>
      </trkpt>
      <trkpt lat="41.60573" lon="19.71044">
        <ele>56.392296</ele>
        <time>2022-05-14T11:35:53.075Z</time>
      </trkpt>
      <trkpt lat="41.60579" lon="19.71056">
        <ele>56.474677</ele>
        <time>2022-05-14T11:35:56.106Z</time>
      </trkpt>
      <trkpt lat="41.60586" lon="19.71068">
        <ele>56.694163</ele>
        <time>2022-05-14T11:35:59.081Z</time>
      </trkpt>
      <trkpt lat="41.60593" lon="19.7108">
        <ele>56.910224</ele>
        <time>2022-05-14T11:36:02.110Z</time>
      </trkpt>
      <trkpt lat="41.606" lon="19.7109">
        <ele>57.10755</ele>
        <time>2022-05-14T11:36:05.120Z</time>
      </trkpt>
      <trkpt lat="41.60606" lon="19.71101">
        <ele>57.309849</ele>
        <time>2022-05-14T11:36:08.082Z</time>
      </trkpt>
      <trkpt lat="41.60613" lon="19.71112">
        <ele>57.51794</ele>
        <time>2022-05-14T11:36:11.098Z</time>
      </trkpt>
      <trkpt lat="41.6062" lon="19.71124">
        <ele>57.735194</ele>
        <time>2022-05-14T11:36:14.073Z</time>
      </trkpt>
      <trkpt lat="41.60627" lon="19.71136">
        <ele>57.94661</ele>
        <time>2022-05-14T11:36:17.071Z</time>
      </trkpt>
      <trkpt lat="41.60634" lon="19.71147">
        <ele>58.15921</ele>
        <time>2022-05-14T11:36:20.081Z</time>
      </trkpt>
      <trkpt lat="41.60641" lon="19.71159">
        <ele>58.373091</ele>
        <time>2022-05-14T11:36:23.085Z</time>
      </trkpt>
      <trkpt lat="41.60648" lon="19.7117">
        <ele>58.584876</ele>
        <time>2022-05-14T11:36:26.106Z</time>
      </trkpt>
      <trkpt lat="41.60655" lon="19.71181">
        <ele>58.800895</ele>
        <time>2022-05-14T11:36:29.084Z</time>
      </trkpt>
      <trkpt lat="41.60663" lon="19.71191">
        <ele>59.007335</ele>
        <time>2022-05-14T11:36:32.064Z</time>
      </trkpt>
      <trkpt lat="41.60672" lon="19.71199">
        <ele>59.207002</ele>
        <time>2022-05-14T11:36:35.092Z</time>
      </trkpt>
      <trkpt lat="41.60681" lon="19.71206">
        <ele>59.418142</ele>
        <time>2022-05-14T11:36:38.135Z</time>
      </trkpt>
      <trkpt lat="41.60691" lon="19.71213">
        <ele>59.637223</ele>
        <time>2022-05-14T11:36:41.070Z</time>
      </trkpt>
      <trkpt lat="41.60702" lon="19.71218">
        <ele>59.855859</ele>
        <time>2022-05-14T11:36:44.078Z</time>
      </trkpt>
      <trkpt lat="41.60714" lon="19.71222">
        <ele>59.81811</ele>
        <time>2022-05-14T11:36:47.107Z</time>
      </trkpt>
      <trkpt lat="41.60723" lon="19.71226">
        <ele>59.655433</ele>
        <time>2022-05-14T11:36:49.124Z</time>
      </trkpt>
      <trkpt lat="41.60733" lon="19.7123">
        <ele>59.482675</ele>
        <time>2022-05-14T11:36:51.068Z</time>
      </trkpt>
      <trkpt lat="41.60743" lon="19.71234">
        <ele>59.311784</ele>
        <time>2022-05-14T11:36:53.102Z</time>
      </trkpt>
      <trkpt lat="41.60754" lon="19.71238">
        <ele>59.134393</ele>
        <time>2022-05-14T11:36:55.102Z</time>
      </trkpt>
      <trkpt lat="41.60764" lon="19.71243">
        <ele>58.952348</ele>
        <time>2022-05-14T11:36:57.074Z</time>
      </trkpt>
      <trkpt lat="41.60775" lon="19.71248">
        <ele>58.760192</ele>
        <time>2022-05-14T11:36:59.068Z</time>
      </trkpt>
      <trkpt lat="41.60786" lon="19.71253">
        <ele>58.570743</ele>
        <time>2022-05-14T11:37:01.104Z</time>
      </trkpt>
      <trkpt lat="41.60796" lon="19.71258">
        <ele>58.390125</ele>
        <time>2022-05-14T11:37:03.091Z</time>
      </trkpt>
      <trkpt lat="41.60807" lon="19.71264">
        <ele>58.209798</ele>
        <time>2022-05-14T11:37:05.092Z</time>
      </trkpt>
      <trkpt lat="41.60816" lon="19.7127">
        <ele>58.033883</ele>
        <time>2022-05-14T11:37:07.096Z</time>
      </trkpt>
      <trkpt lat="41.60825" lon="19.71278">
        <ele>57.862028</ele>
        <time>2022-05-14T11:37:09.082Z</time>
      </trkpt>
      <trkpt lat="41.60833" lon="19.71286">
        <ele>57.696102</ele>
        <time>2022-05-14T11:37:12.099Z</time>
      </trkpt>
      <trkpt lat="41.60841" lon="19.71295">
        <ele>57.522338</ele>
        <time>2022-05-14T11:37:16.076Z</time>
      </trkpt>
      <trkpt lat="41.60848" lon="19.71305">
        <ele>57.356321</ele>
        <time>2022-05-14T11:37:19.096Z</time>
      </trkpt>
      <trkpt lat="41.60856" lon="19.71316">
        <ele>57.161392</ele>
        <time>2022-05-14T11:37:22.099Z</time>
      </trkpt>
      <trkpt lat="41.60865" lon="19.71328">
        <ele>56.946336</ele>
        <time>2022-05-14T11:37:25.083Z</time>
      </trkpt>
      <trkpt lat="41.60874" lon="19.71339">
        <ele>56.589034</ele>
        <time>2022-05-14T11:37:28.125Z</time>
      </trkpt>
      <trkpt lat="41.60886" lon="19.71348">
        <ele>56.214271</ele>
        <time>2022-05-14T11:37:31.096Z</time>
      </trkpt>
      <trkpt lat="41.60894" lon="19.71353">
        <ele>55.952215</ele>
        <time>2022-05-14T11:37:33.092Z</time>
      </trkpt>
      <trkpt lat="41.60907" lon="19.71355">
        <ele>55.582417</ele>
        <time>2022-05-14T11:37:36.069Z</time>
      </trkpt>
      <trkpt lat="41.60921" lon="19.71353">
        <ele>55.210062</ele>
        <time>2022-05-14T11:37:39.112Z</time>
      </trkpt>
      <trkpt lat="41.6093" lon="19.7135">
        <ele>54.955828</ele>
        <time>2022-05-14T11:37:41.097Z</time>
      </trkpt>
      <trkpt lat="41.60939" lon="19.71348">
        <ele>54.690572</ele>
        <time>2022-05-14T11:37:43.075Z</time>
      </trkpt>
      <trkpt lat="41.60952" lon="19.71345">
        <ele>54.316305</ele>
        <time>2022-05-14T11:37:46.087Z</time>
      </trkpt>
      <trkpt lat="41.60961" lon="19.71342">
        <ele>54.058915</ele>
        <time>2022-05-14T11:37:48.085Z</time>
      </trkpt>
      <trkpt lat="41.6097" lon="19.7134">
        <ele>53.78695</ele>
        <time>2022-05-14T11:37:50.081Z</time>
      </trkpt>
      <trkpt lat="41.6098" lon="19.71337">
        <ele>53.508182</ele>
        <time>2022-05-14T11:37:52.102Z</time>
      </trkpt>
      <trkpt lat="41.6099" lon="19.71333">
        <ele>53.226786</ele>
        <time>2022-05-14T11:37:54.096Z</time>
      </trkpt>
      <trkpt lat="41.61" lon="19.71329">
        <ele>52.938487</ele>
        <time>2022-05-14T11:37:56.081Z</time>
      </trkpt>
      <trkpt lat="41.6101" lon="19.71326">
        <ele>52.65233</ele>
        <time>2022-05-14T11:37:58.083Z</time>
      </trkpt>
      <trkpt lat="41.6102" lon="19.71324">
        <ele>52.365655</ele>
        <time>2022-05-14T11:38:00.078Z</time>
      </trkpt>
      <trkpt lat="41.6103" lon="19.71324">
        <ele>52.08796</ele>
        <time>2022-05-14T11:38:02.086Z</time>
      </trkpt>
      <trkpt lat="41.61039" lon="19.71321">
        <ele>51.86371</ele>
        <time>2022-05-14T11:38:04.086Z</time>
      </trkpt>
      <trkpt lat="41.61049" lon="19.71318">
        <ele>51.69703</ele>
        <time>2022-05-14T11:38:06.077Z</time>
      </trkpt>
      <trkpt lat="41.61058" lon="19.71316">
        <ele>51.537943</ele>
        <time>2022-05-14T11:38:08.078Z</time>
      </trkpt>
      <trkpt lat="41.6107" lon="19.71311">
        <ele>51.314334</ele>
        <time>2022-05-14T11:38:11.085Z</time>
      </trkpt>
      <trkpt lat="41.61082" lon="19.71306">
        <ele>51.102088</ele>
        <time>2022-05-14T11:38:14.065Z</time>
      </trkpt>
      <trkpt lat="41.61093" lon="19.713">
        <ele>50.901153</ele>
        <time>2022-05-14T11:38:17.096Z</time>
      </trkpt>
      <trkpt lat="41.61102" lon="19.71293">
        <ele>50.720731</ele>
        <time>2022-05-14T11:38:20.078Z</time>
      </trkpt>
      <trkpt lat="41.61112" lon="19.71286">
        <ele>50.517435</ele>
        <time>2022-05-14T11:38:23.088Z</time>
      </trkpt>
      <trkpt lat="41.61123" lon="19.71276">
        <ele>50.290144</ele>
        <time>2022-05-14T11:38:26.117Z</time>
      </trkpt>
      <trkpt lat="41.61131" lon="19.71269">
        <ele>50.133815</ele>
        <time>2022-05-14T11:38:28.087Z</time>
      </trkpt>
      <trkpt lat="41.61138" lon="19.71262">
        <ele>49.975375</ele>
        <time>2022-05-14T11:38:30.095Z</time>
      </trkpt>
      <trkpt lat="41.61146" lon="19.71255">
        <ele>49.81408</ele>
        <time>2022-05-14T11:38:32.080Z</time>
      </trkpt>
      <trkpt lat="41.61154" lon="19.71248">
        <ele>49.648466</ele>
        <time>2022-05-14T11:38:34.065Z</time>
      </trkpt>
      <trkpt lat="41.61162" lon="19.7124">
        <ele>49.481867</ele>
        <time>2022-05-14T11:38:36.083Z</time>
      </trkpt>
      <trkpt lat="41.61169" lon="19.71233">
        <ele>49.320157</ele>
        <time>2022-05-14T11:38:38.091Z</time>
      </trkpt>
      <trkpt lat="41.61177" lon="19.71225">
        <ele>49.157083</ele>
        <time>2022-05-14T11:38:40.114Z</time>
      </trkpt>
      <trkpt lat="41.61186" lon="19.71213">
        <ele>48.929929</ele>
        <time>2022-05-14T11:38:43.069Z</time>
      </trkpt>
      <trkpt lat="41.61196" lon="19.712">
        <ele>48.900518</ele>
        <time>2022-05-14T11:38:46.094Z</time>
      </trkpt>
      <trkpt lat="41.61202" lon="19.71191">
        <ele>48.959681</ele>
        <time>2022-05-14T11:38:48.096Z</time>
      </trkpt>
      <trkpt lat="41.61211" lon="19.7118">
        <ele>49.043873</ele>
        <time>2022-05-14T11:38:51.081Z</time>
      </trkpt>
      <trkpt lat="41.6122" lon="19.71167">
        <ele>49.130719</ele>
        <time>2022-05-14T11:38:54.075Z</time>
      </trkpt>
      <trkpt lat="41.6123" lon="19.71156">
        <ele>49.212756</ele>
        <time>2022-05-14T11:38:57.103Z</time>
      </trkpt>
      <trkpt lat="41.61238" lon="19.71149">
        <ele>49.27828</ele>
        <time>2022-05-14T11:39:00.060Z</time>
      </trkpt>
      <trkpt lat="41.61246" lon="19.71143">
        <ele>49.339185</ele>
        <time>2022-05-14T11:39:04.091Z</time>
      </trkpt>
      <trkpt lat="41.61257" lon="19.71139">
        <ele>49.412372</ele>
        <time>2022-05-14T11:39:08.083Z</time>
      </trkpt>
      <trkpt lat="41.61268" lon="19.71135">
        <ele>49.488437</ele>
        <time>2022-05-14T11:39:11.091Z</time>
      </trkpt>
      <trkpt lat="41.61281" lon="19.71134">
        <ele>49.572706</ele>
        <time>2022-05-14T11:39:14.081Z</time>
      </trkpt>
      <trkpt lat="41.6129" lon="19.71133">
        <ele>49.634887</ele>
        <time>2022-05-14T11:39:16.081Z</time>
      </trkpt>
      <trkpt lat="41.613" lon="19.71132">
        <ele>49.696997</ele>
        <time>2022-05-14T11:39:18.074Z</time>
      </trkpt>
      <trkpt lat="41.61309" lon="19.71131">
        <ele>49.76231</ele>
        <time>2022-05-14T11:39:20.084Z</time>
      </trkpt>
      <trkpt lat="41.6132" lon="19.71131">
        <ele>49.83155</ele>
        <time>2022-05-14T11:39:22.111Z</time>
      </trkpt>
      <trkpt lat="41.6133" lon="19.71132">
        <ele>49.899472</ele>
        <time>2022-05-14T11:39:24.083Z</time>
      </trkpt>
      <trkpt lat="41.61341" lon="19.71132">
        <ele>49.968755</ele>
        <time>2022-05-14T11:39:26.084Z</time>
      </trkpt>
      <trkpt lat="41.61351" lon="19.71132">
        <ele>50.033469</ele>
        <time>2022-05-14T11:39:28.097Z</time>
      </trkpt>
      <trkpt lat="41.6136" lon="19.71133">
        <ele>50.066364</ele>
        <time>2022-05-14T11:39:30.070Z</time>
      </trkpt>
      <trkpt lat="41.6137" lon="19.71135">
        <ele>50.099718</ele>
        <time>2022-05-14T11:39:32.070Z</time>
      </trkpt>
      <trkpt lat="41.61379" lon="19.71136">
        <ele>50.130771</ele>
        <time>2022-05-14T11:39:34.076Z</time>
      </trkpt>
      <trkpt lat="41.61392" lon="19.71139">
        <ele>50.176251</ele>
        <time>2022-05-14T11:39:37.104Z</time>
      </trkpt>
      <trkpt lat="41.61404" lon="19.71142">
        <ele>50.219223</ele>
        <time>2022-05-14T11:39:40.077Z</time>
      </trkpt>
      <trkpt lat="41.61416" lon="19.71145">
        <ele>50.26042</ele>
        <time>2022-05-14T11:39:43.084Z</time>
      </trkpt>
      <trkpt lat="41.61429" lon="19.71148">
        <ele>50.304877</ele>
        <time>2022-05-14T11:39:46.091Z</time>
      </trkpt>
      <trkpt lat="41.61441" lon="19.71151">
        <ele>50.349514</ele>
        <time>2022-05-14T11:39:49.078Z</time>
      </trkpt>
      <trkpt lat="41.61454" lon="19.71154">
        <ele>50.395368</ele>
        <time>2022-05-14T11:39:52.076Z</time>
      </trkpt>
      <trkpt lat="41.61467" lon="19.71158">
        <ele>50.438309</ele>
        <time>2022-05-14T11:39:55.091Z</time>
      </trkpt>
      <trkpt lat="41.61477" lon="19.71161">
        <ele>50.475843</ele>
        <time>2022-05-14T11:39:58.085Z</time>
      </trkpt>
      <trkpt lat="41.6149" lon="19.71165">
        <ele>50.520236</ele>
        <time>2022-05-14T11:40:01.074Z</time>
      </trkpt>
      <trkpt lat="41.61499" lon="19.71168">
        <ele>50.551937</ele>
        <time>2022-05-14T11:40:03.119Z</time>
      </trkpt>
      <trkpt lat="41.61508" lon="19.71172">
        <ele>50.584458</ele>
        <time>2022-05-14T11:40:05.079Z</time>
      </trkpt>
      <trkpt lat="41.61516" lon="19.71175">
        <ele>50.615741</ele>
        <time>2022-05-14T11:40:07.095Z</time>
      </trkpt>
      <trkpt lat="41.61528" lon="19.7118">
        <ele>50.636431</ele>
        <time>2022-05-14T11:40:10.081Z</time>
      </trkpt>
      <trkpt lat="41.6154" lon="19.71187">
        <ele>50.551533</ele>
        <time>2022-05-14T11:40:13.094Z</time>
      </trkpt>
      <trkpt lat="41.61552" lon="19.71193">
        <ele>50.467099</ele>
        <time>2022-05-14T11:40:16.093Z</time>
      </trkpt>
      <trkpt lat="41.61564" lon="19.71197">
        <ele>50.381469</ele>
        <time>2022-05-14T11:40:19.061Z</time>
      </trkpt>
      <trkpt lat="41.61577" lon="19.71198">
        <ele>50.292502</ele>
        <time>2022-05-14T11:40:22.167Z</time>
      </trkpt>
      <trkpt lat="41.6159" lon="19.71196">
        <ele>50.208597</ele>
        <time>2022-05-14T11:40:25.090Z</time>
      </trkpt>
      <trkpt lat="41.61603" lon="19.71194">
        <ele>50.120042</ele>
        <time>2022-05-14T11:40:28.094Z</time>
      </trkpt>
      <trkpt lat="41.61611" lon="19.71192">
        <ele>50.059376</ele>
        <time>2022-05-14T11:40:30.074Z</time>
      </trkpt>
      <trkpt lat="41.61621" lon="19.7119">
        <ele>49.996636</ele>
        <time>2022-05-14T11:40:32.119Z</time>
      </trkpt>
      <trkpt lat="41.6163" lon="19.71188">
        <ele>49.935803</ele>
        <time>2022-05-14T11:40:34.107Z</time>
      </trkpt>
      <trkpt lat="41.61638" lon="19.71185">
        <ele>49.87488</ele>
        <time>2022-05-14T11:40:36.076Z</time>
      </trkpt>
      <trkpt lat="41.61651" lon="19.71183">
        <ele>49.786676</ele>
        <time>2022-05-14T11:40:39.075Z</time>
      </trkpt>
      <trkpt lat="41.61664" lon="19.7118">
        <ele>49.698453</ele>
        <time>2022-05-14T11:40:42.059Z</time>
      </trkpt>
      <trkpt lat="41.61677" lon="19.71175">
        <ele>49.612853</ele>
        <time>2022-05-14T11:40:45.076Z</time>
      </trkpt>
      <trkpt lat="41.61687" lon="19.71168">
        <ele>49.531067</ele>
        <time>2022-05-14T11:40:48.062Z</time>
      </trkpt>
      <trkpt lat="41.61698" lon="19.71159">
        <ele>49.443433</ele>
        <time>2022-05-14T11:40:51.075Z</time>
      </trkpt>
      <trkpt lat="41.6171" lon="19.7115">
        <ele>49.541478</ele>
        <time>2022-05-14T11:40:54.077Z</time>
      </trkpt>
      <trkpt lat="41.61723" lon="19.71146">
        <ele>49.641959</ele>
        <time>2022-05-14T11:40:57.077Z</time>
      </trkpt>
      <trkpt lat="41.61736" lon="19.71145">
        <ele>49.744962</ele>
        <time>2022-05-14T11:41:00.080Z</time>
      </trkpt>
      <trkpt lat="41.61746" lon="19.71147">
        <ele>49.819901</ele>
        <time>2022-05-14T11:41:02.101Z</time>
      </trkpt>
      <trkpt lat="41.61755" lon="19.71149">
        <ele>49.892987</ele>
        <time>2022-05-14T11:41:04.106Z</time>
      </trkpt>
      <trkpt lat="41.61764" lon="19.71151">
        <ele>49.965636</ele>
        <time>2022-05-14T11:41:06.125Z</time>
      </trkpt>
      <trkpt lat="41.61773" lon="19.71154">
        <ele>50.039055</ele>
        <time>2022-05-14T11:41:08.096Z</time>
      </trkpt>
      <trkpt lat="41.61786" lon="19.7116">
        <ele>50.143657</ele>
        <time>2022-05-14T11:41:11.083Z</time>
      </trkpt>
      <trkpt lat="41.61795" lon="19.71163">
        <ele>50.217426</ele>
        <time>2022-05-14T11:41:13.083Z</time>
      </trkpt>
      <trkpt lat="41.61805" lon="19.71165">
        <ele>50.293003</ele>
        <time>2022-05-14T11:41:15.085Z</time>
      </trkpt>
      <trkpt lat="41.61815" lon="19.71165">
        <ele>50.368843</ele>
        <time>2022-05-14T11:41:17.112Z</time>
      </trkpt>
      <trkpt lat="41.61825" lon="19.71163">
        <ele>50.444794</ele>
        <time>2022-05-14T11:41:19.072Z</time>
      </trkpt>
      <trkpt lat="41.61833" lon="19.71159">
        <ele>50.516569</ele>
        <time>2022-05-14T11:41:21.069Z</time>
      </trkpt>
      <trkpt lat="41.61842" lon="19.71153">
        <ele>50.59026</ele>
        <time>2022-05-14T11:41:23.124Z</time>
      </trkpt>
      <trkpt lat="41.6185" lon="19.71145">
        <ele>50.666194</ele>
        <time>2022-05-14T11:41:25.083Z</time>
      </trkpt>
      <trkpt lat="41.61858" lon="19.71137">
        <ele>50.747976</ele>
        <time>2022-05-14T11:41:27.068Z</time>
      </trkpt>
      <trkpt lat="41.61866" lon="19.71129">
        <ele>50.824585</ele>
        <time>2022-05-14T11:41:29.085Z</time>
      </trkpt>
      <trkpt lat="41.61874" lon="19.71121">
        <ele>50.842031</ele>
        <time>2022-05-14T11:41:31.090Z</time>
      </trkpt>
      <trkpt lat="41.61881" lon="19.71114">
        <ele>50.851683</ele>
        <time>2022-05-14T11:41:33.072Z</time>
      </trkpt>
      <trkpt lat="41.61891" lon="19.71103">
        <ele>50.865333</ele>
        <time>2022-05-14T11:41:36.078Z</time>
      </trkpt>
      <trkpt lat="41.61902" lon="19.71093">
        <ele>50.879271</ele>
        <time>2022-05-14T11:41:39.072Z</time>
      </trkpt>
      <trkpt lat="41.61912" lon="19.71084">
        <ele>50.891986</ele>
        <time>2022-05-14T11:41:42.064Z</time>
      </trkpt>
      <trkpt lat="41.61921" lon="19.71076">
        <ele>50.903202</ele>
        <time>2022-05-14T11:41:46.086Z</time>
      </trkpt>
      <trkpt lat="41.6193" lon="19.71067">
        <ele>50.915647</ele>
        <time>2022-05-14T11:41:50.120Z</time>
      </trkpt>
      <trkpt lat="41.61939" lon="19.71059">
        <ele>50.926523</ele>
        <time>2022-05-14T11:41:53.086Z</time>
      </trkpt>
      <trkpt lat="41.61947" lon="19.71051">
        <ele>50.937522</ele>
        <time>2022-05-14T11:41:56.076Z</time>
      </trkpt>
      <trkpt lat="41.61956" lon="19.71042">
        <ele>50.948911</ele>
        <time>2022-05-14T11:41:59.080Z</time>
      </trkpt>
      <trkpt lat="41.61965" lon="19.71033">
        <ele>50.961108</ele>
        <time>2022-05-14T11:42:02.082Z</time>
      </trkpt>
      <trkpt lat="41.61974" lon="19.71024">
        <ele>50.972729</ele>
        <time>2022-05-14T11:42:05.099Z</time>
      </trkpt>
      <trkpt lat="41.61983" lon="19.71015">
        <ele>50.984494</ele>
        <time>2022-05-14T11:42:08.094Z</time>
      </trkpt>
      <trkpt lat="41.61991" lon="19.71006">
        <ele>50.996068</ele>
        <time>2022-05-14T11:42:11.096Z</time>
      </trkpt>
      <trkpt lat="41.62" lon="19.70998">
        <ele>51.007557</ele>
        <time>2022-05-14T11:42:14.085Z</time>
      </trkpt>
      <trkpt lat="41.62009" lon="19.70989">
        <ele>51.019339</ele>
        <time>2022-05-14T11:42:17.086Z</time>
      </trkpt>
      <trkpt lat="41.62019" lon="19.70981">
        <ele>51.150127</ele>
        <time>2022-05-14T11:42:20.099Z</time>
      </trkpt>
      <trkpt lat="41.62029" lon="19.70973">
        <ele>51.353352</ele>
        <time>2022-05-14T11:42:23.098Z</time>
      </trkpt>
      <trkpt lat="41.6204" lon="19.70966">
        <ele>51.557976</ele>
        <time>2022-05-14T11:42:26.090Z</time>
      </trkpt>
      <trkpt lat="41.62052" lon="19.7096">
        <ele>51.763309</ele>
        <time>2022-05-14T11:42:29.112Z</time>
      </trkpt>
      <trkpt lat="41.62063" lon="19.70955">
        <ele>51.960057</ele>
        <time>2022-05-14T11:42:32.079Z</time>
      </trkpt>
      <trkpt lat="41.62073" lon="19.70951">
        <ele>52.145278</ele>
        <time>2022-05-14T11:42:35.111Z</time>
      </trkpt>
      <trkpt lat="41.62084" lon="19.70946">
        <ele>52.324188</ele>
        <time>2022-05-14T11:42:38.079Z</time>
      </trkpt>
      <trkpt lat="41.62094" lon="19.70943">
        <ele>52.501394</ele>
        <time>2022-05-14T11:42:41.106Z</time>
      </trkpt>
      <trkpt lat="41.62103" lon="19.7094">
        <ele>52.658154</ele>
        <time>2022-05-14T11:42:44.081Z</time>
      </trkpt>
      <trkpt lat="41.62114" lon="19.70936">
        <ele>52.846456</ele>
        <time>2022-05-14T11:42:48.079Z</time>
      </trkpt>
      <trkpt lat="41.62124" lon="19.70934">
        <ele>53.020651</ele>
        <time>2022-05-14T11:42:52.117Z</time>
      </trkpt>
      <trkpt lat="41.62133" lon="19.7093">
        <ele>53.186514</ele>
        <time>2022-05-14T11:42:55.085Z</time>
      </trkpt>
      <trkpt lat="41.62142" lon="19.70924">
        <ele>53.348697</ele>
        <time>2022-05-14T11:42:58.107Z</time>
      </trkpt>
      <trkpt lat="41.62153" lon="19.7092">
        <ele>53.5439</ele>
        <time>2022-05-14T11:43:02.127Z</time>
      </trkpt>
      <trkpt lat="41.62164" lon="19.70915">
        <ele>53.741052</ele>
        <time>2022-05-14T11:43:06.067Z</time>
      </trkpt>
      <trkpt lat="41.62173" lon="19.7091">
        <ele>53.905371</ele>
        <time>2022-05-14T11:43:09.082Z</time>
      </trkpt>
      <trkpt lat="41.62182" lon="19.70905">
        <ele>54.052307</ele>
        <time>2022-05-14T11:43:12.067Z</time>
      </trkpt>
      <trkpt lat="41.62193" lon="19.70899">
        <ele>54.136742</ele>
        <time>2022-05-14T11:43:16.102Z</time>
      </trkpt>
      <trkpt lat="41.62202" lon="19.70893">
        <ele>54.207303</ele>
        <time>2022-05-14T11:43:20.096Z</time>
      </trkpt>
      <trkpt lat="41.6221" lon="19.70888">
        <ele>54.276764</ele>
        <time>2022-05-14T11:43:23.082Z</time>
      </trkpt>
      <trkpt lat="41.6222" lon="19.70883">
        <ele>54.349132</ele>
        <time>2022-05-14T11:43:26.099Z</time>
      </trkpt>
      <trkpt lat="41.6223" lon="19.70877">
        <ele>54.433111</ele>
        <time>2022-05-14T11:43:30.081Z</time>
      </trkpt>
      <trkpt lat="41.6224" lon="19.70873">
        <ele>54.506399</ele>
        <time>2022-05-14T11:43:33.075Z</time>
      </trkpt>
      <trkpt lat="41.6225" lon="19.70869">
        <ele>54.580222</ele>
        <time>2022-05-14T11:43:36.080Z</time>
      </trkpt>
      <trkpt lat="41.6226" lon="19.70866">
        <ele>54.651985</ele>
        <time>2022-05-14T11:43:39.071Z</time>
      </trkpt>
      <trkpt lat="41.6227" lon="19.70864">
        <ele>54.72534</ele>
        <time>2022-05-14T11:43:42.084Z</time>
      </trkpt>
      <trkpt lat="41.62279" lon="19.70861">
        <ele>54.796664</ele>
        <time>2022-05-14T11:43:45.085Z</time>
      </trkpt>
      <trkpt lat="41.62288" lon="19.70859">
        <ele>54.863032</ele>
        <time>2022-05-14T11:43:48.084Z</time>
      </trkpt>
      <trkpt lat="41.62297" lon="19.70858">
        <ele>54.929723</ele>
        <time>2022-05-14T11:43:51.077Z</time>
      </trkpt>
      <trkpt lat="41.62307" lon="19.70856">
        <ele>55.000165</ele>
        <time>2022-05-14T11:43:55.092Z</time>
      </trkpt>
      <trkpt lat="41.62318" lon="19.70854">
        <ele>55.081184</ele>
        <time>2022-05-14T11:44:00.113Z</time>
      </trkpt>
      <trkpt lat="41.62328" lon="19.70853">
        <ele>55.150969</ele>
        <time>2022-05-14T11:44:03.086Z</time>
      </trkpt>
      <trkpt lat="41.62339" lon="19.70851">
        <ele>55.232859</ele>
        <time>2022-05-14T11:44:06.113Z</time>
      </trkpt>
      <trkpt lat="41.62352" lon="19.70852">
        <ele>55.325291</ele>
        <time>2022-05-14T11:44:09.095Z</time>
      </trkpt>
      <trkpt lat="41.62361" lon="19.70852">
        <ele>55.45196</ele>
        <time>2022-05-14T11:44:11.103Z</time>
      </trkpt>
      <trkpt lat="41.62371" lon="19.70852">
        <ele>55.600142</ele>
        <time>2022-05-14T11:44:13.090Z</time>
      </trkpt>
      <trkpt lat="41.62384" lon="19.70854">
        <ele>55.816405</ele>
        <time>2022-05-14T11:44:16.097Z</time>
      </trkpt>
      <trkpt lat="41.62394" lon="19.70855">
        <ele>55.971594</ele>
        <time>2022-05-14T11:44:18.096Z</time>
      </trkpt>
      <trkpt lat="41.62406" lon="19.70857">
        <ele>56.16438</ele>
        <time>2022-05-14T11:44:21.105Z</time>
      </trkpt>
      <trkpt lat="41.62418" lon="19.70861">
        <ele>56.355492</ele>
        <time>2022-05-14T11:44:24.075Z</time>
      </trkpt>
      <trkpt lat="41.62428" lon="19.70864">
        <ele>56.506402</ele>
        <time>2022-05-14T11:44:26.082Z</time>
      </trkpt>
      <trkpt lat="41.6244" lon="19.70868">
        <ele>56.709927</ele>
        <time>2022-05-14T11:44:29.102Z</time>
      </trkpt>
      <trkpt lat="41.62452" lon="19.70872">
        <ele>56.910775</ele>
        <time>2022-05-14T11:44:32.075Z</time>
      </trkpt>
      <trkpt lat="41.62464" lon="19.70876">
        <ele>57.09008</ele>
        <time>2022-05-14T11:44:35.088Z</time>
      </trkpt>
      <trkpt lat="41.62473" lon="19.70878">
        <ele>57.239927</ele>
        <time>2022-05-14T11:44:40.123Z</time>
      </trkpt>
      <trkpt lat="41.62485" lon="19.70882">
        <ele>57.428453</ele>
        <time>2022-05-14T11:44:45.079Z</time>
      </trkpt>
      <trkpt lat="41.62494" lon="19.70885">
        <ele>57.585487</ele>
        <time>2022-05-14T11:44:48.103Z</time>
      </trkpt>
      <trkpt lat="41.62505" lon="19.70888">
        <ele>57.752258</ele>
        <time>2022-05-14T11:44:51.141Z</time>
      </trkpt>
      <trkpt lat="41.62515" lon="19.70892">
        <ele>57.926577</ele>
        <time>2022-05-14T11:44:54.061Z</time>
      </trkpt>
      <trkpt lat="41.62527" lon="19.70896">
        <ele>58.112765</ele>
        <time>2022-05-14T11:44:57.085Z</time>
      </trkpt>
      <trkpt lat="41.62538" lon="19.70902">
        <ele>58.300718</ele>
        <time>2022-05-14T11:45:00.087Z</time>
      </trkpt>
      <trkpt lat="41.62549" lon="19.70909">
        <ele>58.488724</ele>
        <time>2022-05-14T11:45:03.074Z</time>
      </trkpt>
      <trkpt lat="41.6256" lon="19.70916">
        <ele>58.677313</ele>
        <time>2022-05-14T11:45:06.095Z</time>
      </trkpt>
      <trkpt lat="41.6257" lon="19.70925">
        <ele>58.860513</ele>
        <time>2022-05-14T11:45:09.094Z</time>
      </trkpt>
      <trkpt lat="41.62579" lon="19.70935">
        <ele>59.029601</ele>
        <time>2022-05-14T11:45:12.086Z</time>
      </trkpt>
      <trkpt lat="41.62587" lon="19.70944">
        <ele>59.19615</ele>
        <time>2022-05-14T11:45:15.078Z</time>
      </trkpt>
      <trkpt lat="41.62595" lon="19.70954">
        <ele>59.360394</ele>
        <time>2022-05-14T11:45:18.095Z</time>
      </trkpt>
      <trkpt lat="41.62603" lon="19.70963">
        <ele>59.522115</ele>
        <time>2022-05-14T11:45:21.072Z</time>
      </trkpt>
      <trkpt lat="41.62611" lon="19.70972">
        <ele>59.683717</ele>
        <time>2022-05-14T11:45:24.102Z</time>
      </trkpt>
      <trkpt lat="41.62619" lon="19.70981">
        <ele>59.840459</ele>
        <time>2022-05-14T11:45:27.096Z</time>
      </trkpt>
      <trkpt lat="41.62627" lon="19.7099">
        <ele>59.995973</ele>
        <time>2022-05-14T11:45:30.083Z</time>
      </trkpt>
      <trkpt lat="41.62635" lon="19.70999">
        <ele>60.155791</ele>
        <time>2022-05-14T11:45:33.097Z</time>
      </trkpt>
      <trkpt lat="41.62643" lon="19.71008">
        <ele>60.310632</ele>
        <time>2022-05-14T11:45:36.084Z</time>
      </trkpt>
      <trkpt lat="41.62652" lon="19.71014">
        <ele>60.473848</ele>
        <time>2022-05-14T11:45:39.092Z</time>
      </trkpt>
      <trkpt lat="41.62662" lon="19.71016">
        <ele>60.630073</ele>
        <time>2022-05-14T11:45:42.083Z</time>
      </trkpt>
      <trkpt lat="41.62671" lon="19.71014">
        <ele>60.769179</ele>
        <time>2022-05-14T11:45:45.073Z</time>
      </trkpt>
      <trkpt lat="41.62683" lon="19.7101">
        <ele>61.020331</ele>
        <time>2022-05-14T11:45:49.104Z</time>
      </trkpt>
      <trkpt lat="41.62692" lon="19.71007">
        <ele>61.445026</ele>
        <time>2022-05-14T11:45:52.084Z</time>
      </trkpt>
      <trkpt lat="41.62704" lon="19.71003">
        <ele>61.991418</ele>
        <time>2022-05-14T11:45:56.084Z</time>
      </trkpt>
      <trkpt lat="41.62715" lon="19.71001">
        <ele>62.526498</ele>
        <time>2022-05-14T11:46:00.072Z</time>
      </trkpt>
      <trkpt lat="41.62726" lon="19.71001">
        <ele>63.026826</ele>
        <time>2022-05-14T11:46:04.073Z</time>
      </trkpt>
      <trkpt lat="41.62737" lon="19.71001">
        <ele>63.527071</ele>
        <time>2022-05-14T11:46:08.057Z</time>
      </trkpt>
      <trkpt lat="41.62748" lon="19.71003">
        <ele>64.054632</ele>
        <time>2022-05-14T11:46:12.092Z</time>
      </trkpt>
      <trkpt lat="41.6276" lon="19.71005">
        <ele>64.582649</ele>
        <time>2022-05-14T11:46:16.076Z</time>
      </trkpt>
      <trkpt lat="41.6277" lon="19.71009">
        <ele>65.081752</ele>
        <time>2022-05-14T11:46:20.077Z</time>
      </trkpt>
      <trkpt lat="41.62781" lon="19.71014">
        <ele>65.600781</ele>
        <time>2022-05-14T11:46:24.087Z</time>
      </trkpt>
      <trkpt lat="41.62791" lon="19.7102">
        <ele>66.113569</ele>
        <time>2022-05-14T11:46:28.064Z</time>
      </trkpt>
      <trkpt lat="41.62801" lon="19.71027">
        <ele>66.622639</ele>
        <time>2022-05-14T11:46:32.079Z</time>
      </trkpt>
      <trkpt lat="41.62811" lon="19.71034">
        <ele>67.135807</ele>
        <time>2022-05-14T11:46:36.086Z</time>
      </trkpt>
      <trkpt lat="41.62819" lon="19.71041">
        <ele>67.57063</ele>
        <time>2022-05-14T11:46:39.070Z</time>
      </trkpt>
      <trkpt lat="41.62827" lon="19.71047">
        <ele>68.007594</ele>
        <time>2022-05-14T11:46:42.082Z</time>
      </trkpt>
      <trkpt lat="41.62835" lon="19.71055">
        <ele>68.474817</ele>
        <time>2022-05-14T11:46:45.131Z</time>
      </trkpt>
      <trkpt lat="41.62844" lon="19.71063">
        <ele>68.947741</ele>
        <time>2022-05-14T11:46:48.063Z</time>
      </trkpt>
      <trkpt lat="41.62852" lon="19.7107">
        <ele>69.183701</ele>
        <time>2022-05-14T11:46:51.076Z</time>
      </trkpt>
      <trkpt lat="41.62861" lon="19.71078">
        <ele>69.210553</ele>
        <time>2022-05-14T11:46:54.067Z</time>
      </trkpt>
      <trkpt lat="41.62871" lon="19.71085">
        <ele>69.240263</ele>
        <time>2022-05-14T11:46:57.066Z</time>
      </trkpt>
      <trkpt lat="41.62879" lon="19.71091">
        <ele>69.264074</ele>
        <time>2022-05-14T11:46:59.086Z</time>
      </trkpt>
      <trkpt lat="41.62892" lon="19.71096">
        <ele>69.29769</ele>
        <time>2022-05-14T11:47:02.107Z</time>
      </trkpt>
      <trkpt lat="41.62903" lon="19.71099">
        <ele>69.326975</ele>
        <time>2022-05-14T11:47:05.060Z</time>
      </trkpt>
      <trkpt lat="41.62914" lon="19.71101">
        <ele>69.355324</ele>
        <time>2022-05-14T11:47:08.088Z</time>
      </trkpt>
      <trkpt lat="41.62925" lon="19.71102">
        <ele>69.384071</ele>
        <time>2022-05-14T11:47:11.138Z</time>
      </trkpt>
      <trkpt lat="41.62936" lon="19.71106">
        <ele>69.413864</ele>
        <time>2022-05-14T11:47:14.094Z</time>
      </trkpt>
      <trkpt lat="41.62947" lon="19.71112">
        <ele>69.442515</ele>
        <time>2022-05-14T11:47:17.088Z</time>
      </trkpt>
      <trkpt lat="41.62957" lon="19.71118">
        <ele>69.471553</ele>
        <time>2022-05-14T11:47:20.104Z</time>
      </trkpt>
      <trkpt lat="41.62967" lon="19.71123">
        <ele>69.499439</ele>
        <time>2022-05-14T11:47:23.079Z</time>
      </trkpt>
      <trkpt lat="41.62979" lon="19.71128">
        <ele>69.530159</ele>
        <time>2022-05-14T11:47:26.076Z</time>
      </trkpt>
      <trkpt lat="41.6299" lon="19.7113">
        <ele>69.559613</ele>
        <time>2022-05-14T11:47:29.079Z</time>
      </trkpt>
      <trkpt lat="41.63001" lon="19.7113">
        <ele>69.588587</ele>
        <time>2022-05-14T11:47:32.136Z</time>
      </trkpt>
      <trkpt lat="41.63012" lon="19.71128">
        <ele>69.61578</ele>
        <time>2022-05-14T11:47:35.075Z</time>
      </trkpt>
      <trkpt lat="41.63023" lon="19.71126">
        <ele>69.538152</ele>
        <time>2022-05-14T11:47:38.108Z</time>
      </trkpt>
      <trkpt lat="41.63035" lon="19.71126">
        <ele>69.302321</ele>
        <time>2022-05-14T11:47:41.083Z</time>
      </trkpt>
      <trkpt lat="41.63047" lon="19.71127">
        <ele>69.064384</ele>
        <time>2022-05-14T11:47:44.081Z</time>
      </trkpt>
      <trkpt lat="41.63056" lon="19.71129">
        <ele>68.887431</ele>
        <time>2022-05-14T11:47:46.112Z</time>
      </trkpt>
      <trkpt lat="41.63069" lon="19.71132">
        <ele>68.629837</ele>
        <time>2022-05-14T11:47:49.094Z</time>
      </trkpt>
      <trkpt lat="41.63081" lon="19.71133">
        <ele>68.381195</ele>
        <time>2022-05-14T11:47:52.096Z</time>
      </trkpt>
      <trkpt lat="41.63093" lon="19.71134">
        <ele>68.145546</ele>
        <time>2022-05-14T11:47:55.083Z</time>
      </trkpt>
      <trkpt lat="41.63106" lon="19.71133">
        <ele>67.897533</ele>
        <time>2022-05-14T11:47:58.086Z</time>
      </trkpt>
      <trkpt lat="41.63118" lon="19.71131">
        <ele>67.658156</ele>
        <time>2022-05-14T11:48:01.096Z</time>
      </trkpt>
      <trkpt lat="41.6313" lon="19.71127">
        <ele>67.411559</ele>
        <time>2022-05-14T11:48:04.090Z</time>
      </trkpt>
      <trkpt lat="41.63142" lon="19.71124">
        <ele>67.177091</ele>
        <time>2022-05-14T11:48:07.070Z</time>
      </trkpt>
      <trkpt lat="41.63153" lon="19.71121">
        <ele>66.948688</ele>
        <time>2022-05-14T11:48:10.093Z</time>
      </trkpt>
      <trkpt lat="41.63165" lon="19.71118">
        <ele>66.723812</ele>
        <time>2022-05-14T11:48:13.133Z</time>
      </trkpt>
      <trkpt lat="41.63175" lon="19.71116">
        <ele>66.510025</ele>
        <time>2022-05-14T11:48:16.073Z</time>
      </trkpt>
      <trkpt lat="41.63186" lon="19.71113">
        <ele>66.290707</ele>
        <time>2022-05-14T11:48:19.120Z</time>
      </trkpt>
      <trkpt lat="41.63198" lon="19.7111">
        <ele>66.14583</ele>
        <time>2022-05-14T11:48:22.104Z</time>
      </trkpt>
      <trkpt lat="41.63208" lon="19.71108">
        <ele>66.402583</ele>
        <time>2022-05-14T11:48:25.063Z</time>
      </trkpt>
      <trkpt lat="41.63218" lon="19.71105">
        <ele>66.653135</ele>
        <time>2022-05-14T11:48:28.083Z</time>
      </trkpt>
      <trkpt lat="41.63227" lon="19.71102">
        <ele>66.900462</ele>
        <time>2022-05-14T11:48:31.064Z</time>
      </trkpt>
      <trkpt lat="41.63238" lon="19.71099">
        <ele>67.164922</ele>
        <time>2022-05-14T11:48:34.093Z</time>
      </trkpt>
      <trkpt lat="41.63249" lon="19.71097">
        <ele>67.446895</ele>
        <time>2022-05-14T11:48:37.112Z</time>
      </trkpt>
      <trkpt lat="41.6326" lon="19.71094">
        <ele>67.724271</ele>
        <time>2022-05-14T11:48:40.091Z</time>
      </trkpt>
      <trkpt lat="41.63271" lon="19.71092">
        <ele>68.008813</ele>
        <time>2022-05-14T11:48:43.092Z</time>
      </trkpt>
      <trkpt lat="41.63282" lon="19.71092">
        <ele>68.273955</ele>
        <time>2022-05-14T11:48:46.070Z</time>
      </trkpt>
      <trkpt lat="41.63292" lon="19.7109">
        <ele>68.52019</ele>
        <time>2022-05-14T11:48:49.094Z</time>
      </trkpt>
      <trkpt lat="41.63301" lon="19.7109">
        <ele>68.764836</ele>
        <time>2022-05-14T11:48:52.093Z</time>
      </trkpt>
      <trkpt lat="41.63312" lon="19.7109">
        <ele>69.039589</ele>
        <time>2022-05-14T11:48:55.084Z</time>
      </trkpt>
      <trkpt lat="41.63322" lon="19.71091">
        <ele>69.289918</ele>
        <time>2022-05-14T11:48:58.062Z</time>
      </trkpt>
      <trkpt lat="41.63332" lon="19.71092">
        <ele>69.530289</ele>
        <time>2022-05-14T11:49:01.074Z</time>
      </trkpt>
      <trkpt lat="41.63341" lon="19.71093">
        <ele>69.760223</ele>
        <time>2022-05-14T11:49:04.094Z</time>
      </trkpt>
      <trkpt lat="41.63353" lon="19.71094">
        <ele>70.05066</ele>
        <time>2022-05-14T11:49:08.085Z</time>
      </trkpt>
      <trkpt lat="41.63364" lon="19.71095">
        <ele>70.343587</ele>
        <time>2022-05-14T11:49:12.085Z</time>
      </trkpt>
      <trkpt lat="41.63374" lon="19.71096">
        <ele>70.574004</ele>
        <time>2022-05-14T11:49:15.097Z</time>
      </trkpt>
      <trkpt lat="41.63383" lon="19.71099">
        <ele>71.032199</ele>
        <time>2022-05-14T11:49:18.063Z</time>
      </trkpt>
      <trkpt lat="41.63395" lon="19.71102">
        <ele>71.617425</ele>
        <time>2022-05-14T11:49:22.084Z</time>
      </trkpt>
      <trkpt lat="41.63404" lon="19.71105">
        <ele>72.076434</ele>
        <time>2022-05-14T11:49:25.086Z</time>
      </trkpt>
      <trkpt lat="41.63413" lon="19.71109">
        <ele>72.580912</ele>
        <time>2022-05-14T11:49:28.128Z</time>
      </trkpt>
      <trkpt lat="41.63423" lon="19.71114">
        <ele>73.099743</ele>
        <time>2022-05-14T11:49:31.079Z</time>
      </trkpt>
      <trkpt lat="41.63432" lon="19.71118">
        <ele>73.576157</ele>
        <time>2022-05-14T11:49:34.077Z</time>
      </trkpt>
      <trkpt lat="41.63442" lon="19.71122">
        <ele>74.098521</ele>
        <time>2022-05-14T11:49:38.119Z</time>
      </trkpt>
      <trkpt lat="41.63453" lon="19.71126">
        <ele>74.633166</ele>
        <time>2022-05-14T11:49:42.085Z</time>
      </trkpt>
      <trkpt lat="41.63464" lon="19.7113">
        <ele>75.22585</ele>
        <time>2022-05-14T11:49:46.081Z</time>
      </trkpt>
      <trkpt lat="41.63474" lon="19.71134">
        <ele>75.721294</ele>
        <time>2022-05-14T11:49:49.074Z</time>
      </trkpt>
      <trkpt lat="41.63484" lon="19.71137">
        <ele>76.222353</ele>
        <time>2022-05-14T11:49:52.088Z</time>
      </trkpt>
      <trkpt lat="41.63493" lon="19.71141">
        <ele>76.73499</ele>
        <time>2022-05-14T11:49:55.087Z</time>
      </trkpt>
      <trkpt lat="41.63504" lon="19.71143">
        <ele>77.238184</ele>
        <time>2022-05-14T11:49:58.071Z</time>
      </trkpt>
      <trkpt lat="41.63513" lon="19.71144">
        <ele>77.732715</ele>
        <time>2022-05-14T11:50:01.078Z</time>
      </trkpt>
      <trkpt lat="41.63524" lon="19.71145">
        <ele>78.235568</ele>
        <time>2022-05-14T11:50:04.097Z</time>
      </trkpt>
      <trkpt lat="41.63534" lon="19.71146">
        <ele>78.761885</ele>
        <time>2022-05-14T11:50:07.095Z</time>
      </trkpt>
      <trkpt lat="41.63545" lon="19.71145">
        <ele>79.288203</ele>
        <time>2022-05-14T11:50:10.082Z</time>
      </trkpt>
      <trkpt lat="41.63554" lon="19.71145">
        <ele>79.357933</ele>
        <time>2022-05-14T11:50:13.103Z</time>
      </trkpt>
      <trkpt lat="41.63564" lon="19.71143">
        <ele>79.067046</ele>
        <time>2022-05-14T11:50:16.077Z</time>
      </trkpt>
      <trkpt lat="41.63577" lon="19.71144">
        <ele>78.704958</ele>
        <time>2022-05-14T11:50:19.081Z</time>
      </trkpt>
      <trkpt lat="41.6359" lon="19.71144">
        <ele>78.316646</ele>
        <time>2022-05-14T11:50:22.078Z</time>
      </trkpt>
      <trkpt lat="41.63602" lon="19.71144">
        <ele>77.95461</ele>
        <time>2022-05-14T11:50:25.093Z</time>
      </trkpt>
      <trkpt lat="41.63613" lon="19.71143">
        <ele>77.636256</ele>
        <time>2022-05-14T11:50:27.082Z</time>
      </trkpt>
      <trkpt lat="41.63625" lon="19.71142">
        <ele>77.288386</ele>
        <time>2022-05-14T11:50:29.078Z</time>
      </trkpt>
      <trkpt lat="41.63637" lon="19.71142">
        <ele>76.958011</ele>
        <time>2022-05-14T11:50:31.068Z</time>
      </trkpt>
      <trkpt lat="41.63647" lon="19.71141">
        <ele>76.657222</ele>
        <time>2022-05-14T11:50:33.089Z</time>
      </trkpt>
      <trkpt lat="41.63656" lon="19.7114">
        <ele>76.383987</ele>
        <time>2022-05-14T11:50:35.084Z</time>
      </trkpt>
      <trkpt lat="41.63666" lon="19.7114">
        <ele>76.089101</ele>
        <time>2022-05-14T11:50:37.080Z</time>
      </trkpt>
      <trkpt lat="41.63676" lon="19.71141">
        <ele>75.793062</ele>
        <time>2022-05-14T11:50:39.079Z</time>
      </trkpt>
      <trkpt lat="41.63687" lon="19.71141">
        <ele>75.494976</ele>
        <time>2022-05-14T11:50:41.079Z</time>
      </trkpt>
      <trkpt lat="41.63696" lon="19.7114">
        <ele>75.208449</ele>
        <time>2022-05-14T11:50:43.072Z</time>
      </trkpt>
      <trkpt lat="41.6371" lon="19.7114">
        <ele>74.820144</ele>
        <time>2022-05-14T11:50:46.098Z</time>
      </trkpt>
      <trkpt lat="41.63719" lon="19.71139">
        <ele>74.554139</ele>
        <time>2022-05-14T11:50:48.113Z</time>
      </trkpt>
      <trkpt lat="41.63728" lon="19.71139">
        <ele>74.291375</ele>
        <time>2022-05-14T11:50:50.085Z</time>
      </trkpt>
      <trkpt lat="41.63737" lon="19.71141">
        <ele>74.26992</ele>
        <time>2022-05-14T11:50:52.092Z</time>
      </trkpt>
      <trkpt lat="41.63746" lon="19.71142">
        <ele>74.282878</ele>
        <time>2022-05-14T11:50:54.091Z</time>
      </trkpt>
      <trkpt lat="41.63756" lon="19.71145">
        <ele>74.296183</ele>
        <time>2022-05-14T11:50:56.081Z</time>
      </trkpt>
      <trkpt lat="41.63765" lon="19.7115">
        <ele>74.309282</ele>
        <time>2022-05-14T11:50:58.078Z</time>
      </trkpt>
      <trkpt lat="41.63773" lon="19.71156">
        <ele>74.322468</ele>
        <time>2022-05-14T11:51:00.096Z</time>
      </trkpt>
      <trkpt lat="41.63783" lon="19.71163">
        <ele>74.33644</ele>
        <time>2022-05-14T11:51:02.071Z</time>
      </trkpt>
      <trkpt lat="41.63793" lon="19.71174">
        <ele>74.35411</ele>
        <time>2022-05-14T11:51:05.091Z</time>
      </trkpt>
      <trkpt lat="41.63799" lon="19.71182">
        <ele>74.366386</ele>
        <time>2022-05-14T11:51:07.077Z</time>
      </trkpt>
      <trkpt lat="41.63808" lon="19.7119">
        <ele>74.380825</ele>
        <time>2022-05-14T11:51:09.097Z</time>
      </trkpt>
      <trkpt lat="41.63817" lon="19.71198">
        <ele>74.394927</ele>
        <time>2022-05-14T11:51:11.061Z</time>
      </trkpt>
      <trkpt lat="41.63826" lon="19.71207">
        <ele>74.410444</ele>
        <time>2022-05-14T11:51:13.119Z</time>
      </trkpt>
      <trkpt lat="41.63836" lon="19.71216">
        <ele>74.427077</ele>
        <time>2022-05-14T11:51:15.144Z</time>
      </trkpt>
      <trkpt lat="41.63845" lon="19.71226">
        <ele>74.442415</ele>
        <time>2022-05-14T11:51:17.063Z</time>
      </trkpt>
      <trkpt lat="41.63854" lon="19.71236">
        <ele>74.458726</ele>
        <time>2022-05-14T11:51:19.066Z</time>
      </trkpt>
      <trkpt lat="41.63863" lon="19.71246">
        <ele>74.474837</ele>
        <time>2022-05-14T11:51:21.074Z</time>
      </trkpt>
      <trkpt lat="41.63872" lon="19.71256">
        <ele>74.490043</ele>
        <time>2022-05-14T11:51:23.095Z</time>
      </trkpt>
      <trkpt lat="41.63881" lon="19.71265">
        <ele>74.49707</ele>
        <time>2022-05-14T11:51:25.085Z</time>
      </trkpt>
      <trkpt lat="41.63888" lon="19.71273">
        <ele>74.476829</ele>
        <time>2022-05-14T11:51:27.083Z</time>
      </trkpt>
      <trkpt lat="41.63897" lon="19.71281">
        <ele>74.453804</ele>
        <time>2022-05-14T11:51:30.087Z</time>
      </trkpt>
      <trkpt lat="41.63906" lon="19.7129">
        <ele>74.428676</ele>
        <time>2022-05-14T11:51:33.086Z</time>
      </trkpt>
      <trkpt lat="41.63913" lon="19.71297">
        <ele>74.408673</ele>
        <time>2022-05-14T11:51:35.117Z</time>
      </trkpt>
      <trkpt lat="41.6392" lon="19.71306">
        <ele>74.388728</ele>
        <time>2022-05-14T11:51:37.195Z</time>
      </trkpt>
      <trkpt lat="41.63926" lon="19.71315">
        <ele>74.367964</ele>
        <time>2022-05-14T11:51:39.121Z</time>
      </trkpt>
      <trkpt lat="41.63935" lon="19.71327">
        <ele>74.339804</ele>
        <time>2022-05-14T11:51:42.070Z</time>
      </trkpt>
      <trkpt lat="41.63942" lon="19.71335">
        <ele>74.31971</ele>
        <time>2022-05-14T11:51:44.076Z</time>
      </trkpt>
      <trkpt lat="41.63952" lon="19.71345">
        <ele>74.292307</ele>
        <time>2022-05-14T11:51:47.090Z</time>
      </trkpt>
      <trkpt lat="41.63962" lon="19.71355">
        <ele>74.264653</ele>
        <time>2022-05-14T11:51:50.080Z</time>
      </trkpt>
      <trkpt lat="41.63972" lon="19.71363">
        <ele>74.238557</ele>
        <time>2022-05-14T11:51:53.075Z</time>
      </trkpt>
      <trkpt lat="41.63983" lon="19.71367">
        <ele>74.213354</ele>
        <time>2022-05-14T11:51:56.090Z</time>
      </trkpt>
      <trkpt lat="41.63995" lon="19.71369">
        <ele>74.187817</ele>
        <time>2022-05-14T11:51:59.059Z</time>
      </trkpt>
      <trkpt lat="41.64005" lon="19.71369">
        <ele>74.164421</ele>
        <time>2022-05-14T11:52:03.110Z</time>
      </trkpt>
      <trkpt lat="41.64014" lon="19.71366">
        <ele>74.143559</ele>
        <time>2022-05-14T11:52:07.079Z</time>
      </trkpt>
      <trkpt lat="41.64025" lon="19.71361">
        <ele>74.118072</ele>
        <time>2022-05-14T11:52:11.087Z</time>
      </trkpt>
      <trkpt lat="41.64035" lon="19.71357">
        <ele>74.009776</ele>
        <time>2022-05-14T11:52:14.063Z</time>
      </trkpt>
      <trkpt lat="41.64044" lon="19.71353">
        <ele>73.80082</ele>
        <time>2022-05-14T11:52:17.074Z</time>
      </trkpt>
      <trkpt lat="41.64054" lon="19.71349">
        <ele>73.570223</ele>
        <time>2022-05-14T11:52:20.085Z</time>
      </trkpt>
      <trkpt lat="41.64064" lon="19.71344">
        <ele>73.334875</ele>
        <time>2022-05-14T11:52:23.089Z</time>
      </trkpt>
      <trkpt lat="41.64073" lon="19.7134">
        <ele>73.122208</ele>
        <time>2022-05-14T11:52:26.091Z</time>
      </trkpt>
      <trkpt lat="41.64084" lon="19.71336">
        <ele>72.866814</ele>
        <time>2022-05-14T11:52:30.089Z</time>
      </trkpt>
      <trkpt lat="41.64093" lon="19.71332">
        <ele>72.652027</ele>
        <time>2022-05-14T11:52:33.096Z</time>
      </trkpt>
      <trkpt lat="41.64102" lon="19.71328">
        <ele>72.445568</ele>
        <time>2022-05-14T11:52:36.073Z</time>
      </trkpt>
      <trkpt lat="41.64113" lon="19.71323">
        <ele>72.182259</ele>
        <time>2022-05-14T11:52:40.095Z</time>
      </trkpt>
      <trkpt lat="41.64122" lon="19.7132">
        <ele>71.973193</ele>
        <time>2022-05-14T11:52:43.080Z</time>
      </trkpt>
      <trkpt lat="41.64131" lon="19.71316">
        <ele>71.771934</ele>
        <time>2022-05-14T11:52:46.100Z</time>
      </trkpt>
      <trkpt lat="41.64141" lon="19.71312">
        <ele>71.528025</ele>
        <time>2022-05-14T11:52:50.076Z</time>
      </trkpt>
      <trkpt lat="41.64151" lon="19.71308">
        <ele>71.305864</ele>
        <time>2022-05-14T11:52:55.076Z</time>
      </trkpt>
      <trkpt lat="41.64161" lon="19.71303">
        <ele>71.057816</ele>
        <time>2022-05-14T11:53:00.107Z</time>
      </trkpt>
      <trkpt lat="41.6417" lon="19.71298">
        <ele>70.838044</ele>
        <time>2022-05-14T11:53:04.075Z</time>
      </trkpt>
      <trkpt lat="41.64182" lon="19.71293">
        <ele>70.570427</ele>
        <time>2022-05-14T11:53:08.097Z</time>
      </trkpt>
      <trkpt lat="41.64191" lon="19.71289">
        <ele>70.356136</ele>
        <time>2022-05-14T11:53:11.067Z</time>
      </trkpt>
      <trkpt lat="41.64201" lon="19.71283">
        <ele>70.120255</ele>
        <time>2022-05-14T11:53:14.063Z</time>
      </trkpt>
      <trkpt lat="41.64211" lon="19.71277">
        <ele>69.774045</ele>
        <time>2022-05-14T11:53:17.144Z</time>
      </trkpt>
      <trkpt lat="41.64222" lon="19.71269">
        <ele>69.408831</ele>
        <time>2022-05-14T11:53:20.088Z</time>
      </trkpt>
      <trkpt lat="41.64231" lon="19.7126">
        <ele>69.052834</ele>
        <time>2022-05-14T11:53:23.110Z</time>
      </trkpt>
      <trkpt lat="41.64241" lon="19.71251">
        <ele>68.713069</ele>
        <time>2022-05-14T11:53:26.092Z</time>
      </trkpt>
      <trkpt lat="41.6425" lon="19.71242">
        <ele>68.36954</ele>
        <time>2022-05-14T11:53:29.125Z</time>
      </trkpt>
      <trkpt lat="41.6426" lon="19.71234">
        <ele>68.020946</ele>
        <time>2022-05-14T11:53:32.080Z</time>
      </trkpt>
      <trkpt lat="41.6427" lon="19.71225">
        <ele>67.658705</ele>
        <time>2022-05-14T11:53:35.110Z</time>
      </trkpt>
      <trkpt lat="41.6428" lon="19.71215">
        <ele>67.277344</ele>
        <time>2022-05-14T11:53:38.094Z</time>
      </trkpt>
      <trkpt lat="41.6429" lon="19.71205">
        <ele>66.890044</ele>
        <time>2022-05-14T11:53:41.106Z</time>
      </trkpt>
      <trkpt lat="41.643" lon="19.71195">
        <ele>66.519361</ele>
        <time>2022-05-14T11:53:44.058Z</time>
      </trkpt>
      <trkpt lat="41.64308" lon="19.71184">
        <ele>66.168029</ele>
        <time>2022-05-14T11:53:47.054Z</time>
      </trkpt>
      <trkpt lat="41.64315" lon="19.71171">
        <ele>65.816313</ele>
        <time>2022-05-14T11:53:50.084Z</time>
      </trkpt>
      <trkpt lat="41.64318" lon="19.71155">
        <ele>65.444362</ele>
        <time>2022-05-14T11:53:53.098Z</time>
      </trkpt>
      <trkpt lat="41.64321" lon="19.71144">
        <ele>65.173081</ele>
        <time>2022-05-14T11:53:55.075Z</time>
      </trkpt>
      <trkpt lat="41.64323" lon="19.71131">
        <ele>64.879258</ele>
        <time>2022-05-14T11:53:57.126Z</time>
      </trkpt>
      <trkpt lat="41.64325" lon="19.71119">
        <ele>64.634348</ele>
        <time>2022-05-14T11:53:59.104Z</time>
      </trkpt>
      <trkpt lat="41.64328" lon="19.71105">
        <ele>64.46361</ele>
        <time>2022-05-14T11:54:01.096Z</time>
      </trkpt>
      <trkpt lat="41.64331" lon="19.71091">
        <ele>64.290038</ele>
        <time>2022-05-14T11:54:03.077Z</time>
      </trkpt>
      <trkpt lat="41.64335" lon="19.71076">
        <ele>64.105086</ele>
        <time>2022-05-14T11:54:05.086Z</time>
      </trkpt>
      <trkpt lat="41.64339" lon="19.71061">
        <ele>63.912801</ele>
        <time>2022-05-14T11:54:07.091Z</time>
      </trkpt>
      <trkpt lat="41.64343" lon="19.71047">
        <ele>63.729327</ele>
        <time>2022-05-14T11:54:09.066Z</time>
      </trkpt>
      <trkpt lat="41.64348" lon="19.71033">
        <ele>63.542093</ele>
        <time>2022-05-14T11:54:11.098Z</time>
      </trkpt>
      <trkpt lat="41.64355" lon="19.71019">
        <ele>63.342125</ele>
        <time>2022-05-14T11:54:13.065Z</time>
      </trkpt>
      <trkpt lat="41.64362" lon="19.71003">
        <ele>63.115539</ele>
        <time>2022-05-14T11:54:15.064Z</time>
      </trkpt>
      <trkpt lat="41.64369" lon="19.70987">
        <ele>62.892687</ele>
        <time>2022-05-14T11:54:17.079Z</time>
      </trkpt>
      <trkpt lat="41.64377" lon="19.70971">
        <ele>62.659738</ele>
        <time>2022-05-14T11:54:19.109Z</time>
      </trkpt>
      <trkpt lat="41.64385" lon="19.70955">
        <ele>62.427789</ele>
        <time>2022-05-14T11:54:21.086Z</time>
      </trkpt>
      <trkpt lat="41.64393" lon="19.70939">
        <ele>62.202612</ele>
        <time>2022-05-14T11:54:23.086Z</time>
      </trkpt>
      <trkpt lat="41.64401" lon="19.70925">
        <ele>61.986365</ele>
        <time>2022-05-14T11:54:25.086Z</time>
      </trkpt>
      <trkpt lat="41.6441" lon="19.70912">
        <ele>61.781741</ele>
        <time>2022-05-14T11:54:27.096Z</time>
      </trkpt>
      <trkpt lat="41.6442" lon="19.70901">
        <ele>61.649691</ele>
        <time>2022-05-14T11:54:29.080Z</time>
      </trkpt>
      <trkpt lat="41.6443" lon="19.70891">
        <ele>61.520029</ele>
        <time>2022-05-14T11:54:31.076Z</time>
      </trkpt>
      <trkpt lat="41.6444" lon="19.70882">
        <ele>61.390812</ele>
        <time>2022-05-14T11:54:33.071Z</time>
      </trkpt>
      <trkpt lat="41.6445" lon="19.70876">
        <ele>61.274861</ele>
        <time>2022-05-14T11:54:35.068Z</time>
      </trkpt>
      <trkpt lat="41.64459" lon="19.7087">
        <ele>61.176389</ele>
        <time>2022-05-14T11:54:37.068Z</time>
      </trkpt>
      <trkpt lat="41.64469" lon="19.70864">
        <ele>61.062717</ele>
        <time>2022-05-14T11:54:40.083Z</time>
      </trkpt>
      <trkpt lat="41.64477" lon="19.70858">
        <ele>60.958794</ele>
        <time>2022-05-14T11:54:43.115Z</time>
      </trkpt>
      <trkpt lat="41.64486" lon="19.70851">
        <ele>60.855507</ele>
        <time>2022-05-14T11:54:46.078Z</time>
      </trkpt>
      <trkpt lat="41.64496" lon="19.70845">
        <ele>60.738618</ele>
        <time>2022-05-14T11:54:49.071Z</time>
      </trkpt>
      <trkpt lat="41.64505" lon="19.70838">
        <ele>60.627903</ele>
        <time>2022-05-14T11:54:52.081Z</time>
      </trkpt>
      <trkpt lat="41.64515" lon="19.70832">
        <ele>60.518996</ele>
        <time>2022-05-14T11:54:55.082Z</time>
      </trkpt>
      <trkpt lat="41.64524" lon="19.70826">
        <ele>60.408156</ele>
        <time>2022-05-14T11:54:58.118Z</time>
      </trkpt>
      <trkpt lat="41.64534" lon="19.7082">
        <ele>60.297649</ele>
        <time>2022-05-14T11:55:01.077Z</time>
      </trkpt>
      <trkpt lat="41.64544" lon="19.70814">
        <ele>60.179819</ele>
        <time>2022-05-14T11:55:04.121Z</time>
      </trkpt>
      <trkpt lat="41.64555" lon="19.70807">
        <ele>60.053136</ele>
        <time>2022-05-14T11:55:07.085Z</time>
      </trkpt>
      <trkpt lat="41.64566" lon="19.708">
        <ele>59.925485</ele>
        <time>2022-05-14T11:55:10.115Z</time>
      </trkpt>
      <trkpt lat="41.64578" lon="19.70793">
        <ele>60.161964</ele>
        <time>2022-05-14T11:55:13.105Z</time>
      </trkpt>
      <trkpt lat="41.64589" lon="19.70786">
        <ele>60.43718</ele>
        <time>2022-05-14T11:55:16.071Z</time>
      </trkpt>
      <trkpt lat="41.646" lon="19.70779">
        <ele>60.687471</ele>
        <time>2022-05-14T11:55:19.083Z</time>
      </trkpt>
      <trkpt lat="41.6461" lon="19.70773">
        <ele>60.920241</ele>
        <time>2022-05-14T11:55:22.087Z</time>
      </trkpt>
      <trkpt lat="41.64619" lon="19.70767">
        <ele>61.141075</ele>
        <time>2022-05-14T11:55:25.094Z</time>
      </trkpt>
      <trkpt lat="41.64629" lon="19.7076">
        <ele>61.381774</ele>
        <time>2022-05-14T11:55:30.086Z</time>
      </trkpt>
      <trkpt lat="41.64639" lon="19.70754">
        <ele>61.617905</ele>
        <time>2022-05-14T11:55:34.084Z</time>
      </trkpt>
      <trkpt lat="41.64649" lon="19.70748">
        <ele>61.858364</ele>
        <time>2022-05-14T11:55:38.083Z</time>
      </trkpt>
      <trkpt lat="41.64659" lon="19.70742">
        <ele>62.087031</ele>
        <time>2022-05-14T11:55:42.084Z</time>
      </trkpt>
      <trkpt lat="41.64668" lon="19.70738">
        <ele>62.291654</ele>
        <time>2022-05-14T11:55:46.074Z</time>
      </trkpt>
      <trkpt lat="41.64677" lon="19.70734">
        <ele>62.507471</ele>
        <time>2022-05-14T11:55:50.076Z</time>
      </trkpt>
      <trkpt lat="41.64688" lon="19.70733">
        <ele>62.735111</ele>
        <time>2022-05-14T11:55:55.065Z</time>
      </trkpt>
      <trkpt lat="41.64698" lon="19.70732">
        <ele>62.957084</ele>
        <time>2022-05-14T11:55:59.085Z</time>
      </trkpt>
      <trkpt lat="41.64708" lon="19.70734">
        <ele>63.165302</ele>
        <time>2022-05-14T11:56:03.084Z</time>
      </trkpt>
      <trkpt lat="41.64717" lon="19.70736">
        <ele>63.363471</ele>
        <time>2022-05-14T11:56:07.080Z</time>
      </trkpt>
      <trkpt lat="41.64727" lon="19.70741">
        <ele>63.59159</ele>
        <time>2022-05-14T11:56:12.107Z</time>
      </trkpt>
      <trkpt lat="41.64735" lon="19.70747">
        <ele>63.814689</ele>
        <time>2022-05-14T11:56:16.098Z</time>
      </trkpt>
      <trkpt lat="41.64743" lon="19.70754">
        <ele>64.278028</ele>
        <time>2022-05-14T11:56:20.141Z</time>
      </trkpt>
      <trkpt lat="41.64752" lon="19.70762">
        <ele>64.809044</ele>
        <time>2022-05-14T11:56:25.093Z</time>
      </trkpt>
      <trkpt lat="41.64761" lon="19.7077">
        <ele>65.31803</ele>
        <time>2022-05-14T11:56:30.070Z</time>
      </trkpt>
      <trkpt lat="41.6477" lon="19.70779">
        <ele>65.881277</ele>
        <time>2022-05-14T11:56:35.083Z</time>
      </trkpt>
      <trkpt lat="41.64778" lon="19.70786">
        <ele>66.356979</ele>
        <time>2022-05-14T11:56:39.123Z</time>
      </trkpt>
      <trkpt lat="41.64785" lon="19.70795">
        <ele>66.850395</ele>
        <time>2022-05-14T11:56:43.082Z</time>
      </trkpt>
      <trkpt lat="41.64793" lon="19.70804">
        <ele>67.353718</ele>
        <time>2022-05-14T11:56:47.093Z</time>
      </trkpt>
      <trkpt lat="41.64802" lon="19.70813">
        <ele>67.908013</ele>
        <time>2022-05-14T11:56:51.076Z</time>
      </trkpt>
      <trkpt lat="41.64811" lon="19.70822">
        <ele>68.472426</ele>
        <time>2022-05-14T11:56:55.070Z</time>
      </trkpt>
      <trkpt lat="41.64819" lon="19.70831">
        <ele>68.987153</ele>
        <time>2022-05-14T11:56:59.087Z</time>
      </trkpt>
      <trkpt lat="41.64829" lon="19.7084">
        <ele>69.551566</ele>
        <time>2022-05-14T11:57:03.087Z</time>
      </trkpt>
      <trkpt lat="41.64836" lon="19.70847">
        <ele>70.009535</ele>
        <time>2022-05-14T11:57:06.111Z</time>
      </trkpt>
      <trkpt lat="41.64843" lon="19.70855">
        <ele>70.465287</ele>
        <time>2022-05-14T11:57:09.095Z</time>
      </trkpt>
      <trkpt lat="41.64851" lon="19.70862">
        <ele>70.927198</ele>
        <time>2022-05-14T11:57:12.136Z</time>
      </trkpt>
      <trkpt lat="41.6486" lon="19.70871">
        <ele>71.487258</ele>
        <time>2022-05-14T11:57:16.083Z</time>
      </trkpt>
      <trkpt lat="41.64869" lon="19.7088">
        <ele>72.046621</ele>
        <time>2022-05-14T11:57:21.096Z</time>
      </trkpt>
      <trkpt lat="41.64877" lon="19.70888">
        <ele>72.51914</ele>
        <time>2022-05-14T11:57:25.089Z</time>
      </trkpt>
      <trkpt lat="41.64884" lon="19.70896">
        <ele>72.65174</ele>
        <time>2022-05-14T11:57:29.105Z</time>
      </trkpt>
      <trkpt lat="41.64892" lon="19.70903">
        <ele>72.641786</ele>
        <time>2022-05-14T11:57:33.081Z</time>
      </trkpt>
      <trkpt lat="41.64901" lon="19.70911">
        <ele>72.630134</ele>
        <time>2022-05-14T11:57:38.096Z</time>
      </trkpt>
      <trkpt lat="41.64908" lon="19.70918">
        <ele>72.620397</ele>
        <time>2022-05-14T11:57:42.074Z</time>
      </trkpt>
      <trkpt lat="41.64917" lon="19.70926">
        <ele>72.6096</ele>
        <time>2022-05-14T11:57:46.080Z</time>
      </trkpt>
      <trkpt lat="41.64926" lon="19.70932">
        <ele>72.598664</ele>
        <time>2022-05-14T11:57:50.091Z</time>
      </trkpt>
      <trkpt lat="41.64935" lon="19.70936">
        <ele>72.588523</ele>
        <time>2022-05-14T11:57:54.082Z</time>
      </trkpt>
      <trkpt lat="41.64945" lon="19.70938">
        <ele>72.57746</ele>
        <time>2022-05-14T11:57:58.094Z</time>
      </trkpt>
      <trkpt lat="41.64955" lon="19.70936">
        <ele>72.567142</ele>
        <time>2022-05-14T11:58:02.129Z</time>
      </trkpt>
      <trkpt lat="41.64965" lon="19.70933">
        <ele>72.555945</ele>
        <time>2022-05-14T11:58:06.082Z</time>
      </trkpt>
      <trkpt lat="41.64975" lon="19.70926">
        <ele>72.543543</ele>
        <time>2022-05-14T11:58:10.078Z</time>
      </trkpt>
      <trkpt lat="41.64983" lon="19.70919">
        <ele>72.533232</ele>
        <time>2022-05-14T11:58:13.065Z</time>
      </trkpt>
      <trkpt lat="41.64993" lon="19.70912">
        <ele>72.521762</ele>
        <time>2022-05-14T11:58:16.087Z</time>
      </trkpt>
      <trkpt lat="41.65002" lon="19.70904">
        <ele>72.509987</ele>
        <time>2022-05-14T11:58:19.094Z</time>
      </trkpt>
      <trkpt lat="41.65011" lon="19.70895">
        <ele>72.497718</ele>
        <time>2022-05-14T11:58:22.080Z</time>
      </trkpt>
      <trkpt lat="41.65021" lon="19.70887">
        <ele>72.485301</ele>
        <time>2022-05-14T11:58:25.105Z</time>
      </trkpt>
      <trkpt lat="41.65031" lon="19.7088">
        <ele>72.472911</ele>
        <time>2022-05-14T11:58:28.084Z</time>
      </trkpt>
      <trkpt lat="41.65041" lon="19.70873">
        <ele>72.329344</ele>
        <time>2022-05-14T11:58:31.100Z</time>
      </trkpt>
      <trkpt lat="41.65054" lon="19.70867">
        <ele>71.992986</ele>
        <time>2022-05-14T11:58:34.065Z</time>
      </trkpt>
      <trkpt lat="41.65063" lon="19.70863">
        <ele>71.756475</ele>
        <time>2022-05-14T11:58:36.099Z</time>
      </trkpt>
      <trkpt lat="41.65076" lon="19.70858">
        <ele>71.40827</ele>
        <time>2022-05-14T11:58:39.117Z</time>
      </trkpt>
      <trkpt lat="41.65085" lon="19.70855">
        <ele>71.157892</ele>
        <time>2022-05-14T11:58:41.083Z</time>
      </trkpt>
      <trkpt lat="41.65097" lon="19.70853">
        <ele>70.872189</ele>
        <time>2022-05-14T11:58:43.086Z</time>
      </trkpt>
      <trkpt lat="41.65108" lon="19.70851">
        <ele>70.590159</ele>
        <time>2022-05-14T11:58:45.112Z</time>
      </trkpt>
      <trkpt lat="41.65118" lon="19.70849">
        <ele>70.317085</ele>
        <time>2022-05-14T11:58:47.074Z</time>
      </trkpt>
      <trkpt lat="41.6513" lon="19.70847">
        <ele>70.026143</ele>
        <time>2022-05-14T11:58:49.082Z</time>
      </trkpt>
      <trkpt lat="41.65141" lon="19.70846">
        <ele>69.72995</ele>
        <time>2022-05-14T11:58:51.103Z</time>
      </trkpt>
      <trkpt lat="41.65152" lon="19.70844">
        <ele>69.450949</ele>
        <time>2022-05-14T11:58:53.122Z</time>
      </trkpt>
      <trkpt lat="41.65163" lon="19.70843">
        <ele>69.175716</ele>
        <time>2022-05-14T11:58:55.091Z</time>
      </trkpt>
      <trkpt lat="41.65173" lon="19.70842">
        <ele>68.90853</ele>
        <time>2022-05-14T11:58:57.084Z</time>
      </trkpt>
      <trkpt lat="41.65184" lon="19.70841">
        <ele>68.646408</ele>
        <time>2022-05-14T11:58:59.116Z</time>
      </trkpt>
      <trkpt lat="41.65194" lon="19.70839">
        <ele>68.384141</ele>
        <time>2022-05-14T11:59:01.076Z</time>
      </trkpt>
      <trkpt lat="41.65205" lon="19.70839">
        <ele>68.11455</ele>
        <time>2022-05-14T11:59:03.074Z</time>
      </trkpt>
      <trkpt lat="41.65216" lon="19.70838">
        <ele>67.832779</ele>
        <time>2022-05-14T11:59:05.115Z</time>
      </trkpt>
      <trkpt lat="41.65226" lon="19.70837">
        <ele>67.544939</ele>
        <time>2022-05-14T11:59:07.088Z</time>
      </trkpt>
      <trkpt lat="41.65237" lon="19.70836">
        <ele>67.250602</ele>
        <time>2022-05-14T11:59:09.085Z</time>
      </trkpt>
      <trkpt lat="41.65247" lon="19.70834">
        <ele>66.966446</ele>
        <time>2022-05-14T11:59:11.095Z</time>
      </trkpt>
      <trkpt lat="41.65258" lon="19.70832">
        <ele>66.66781</ele>
        <time>2022-05-14T11:59:13.088Z</time>
      </trkpt>
      <trkpt lat="41.65269" lon="19.70829">
        <ele>66.366152</ele>
        <time>2022-05-14T11:59:15.088Z</time>
      </trkpt>
      <trkpt lat="41.6528" lon="19.70826">
        <ele>66.051318</ele>
        <time>2022-05-14T11:59:17.092Z</time>
      </trkpt>
      <trkpt lat="41.65291" lon="19.70821">
        <ele>65.746876</ele>
        <time>2022-05-14T11:59:19.087Z</time>
      </trkpt>
      <trkpt lat="41.65302" lon="19.70816">
        <ele>65.444807</ele>
        <time>2022-05-14T11:59:21.077Z</time>
      </trkpt>
      <trkpt lat="41.65312" lon="19.7081">
        <ele>65.130804</ele>
        <time>2022-05-14T11:59:23.095Z</time>
      </trkpt>
      <trkpt lat="41.65324" lon="19.70804">
        <ele>64.796021</ele>
        <time>2022-05-14T11:59:25.089Z</time>
      </trkpt>
      <trkpt lat="41.65336" lon="19.70797">
        <ele>64.43821</ele>
        <time>2022-05-14T11:59:27.097Z</time>
      </trkpt>
      <trkpt lat="41.65348" lon="19.70789">
        <ele>64.064716</ele>
        <time>2022-05-14T11:59:29.072Z</time>
      </trkpt>
      <trkpt lat="41.65361" lon="19.70781">
        <ele>63.670551</ele>
        <time>2022-05-14T11:59:31.086Z</time>
      </trkpt>
      <trkpt lat="41.65376" lon="19.70773">
        <ele>63.249952</ele>
        <time>2022-05-14T11:59:33.084Z</time>
      </trkpt>
      <trkpt lat="41.6539" lon="19.70763">
        <ele>62.737367</ele>
        <time>2022-05-14T11:59:35.087Z</time>
      </trkpt>
      <trkpt lat="41.65405" lon="19.70754">
        <ele>62.136875</ele>
        <time>2022-05-14T11:59:37.084Z</time>
      </trkpt>
      <trkpt lat="41.65421" lon="19.70744">
        <ele>61.525191</ele>
        <time>2022-05-14T11:59:39.090Z</time>
      </trkpt>
      <trkpt lat="41.65436" lon="19.70734">
        <ele>60.891257</ele>
        <time>2022-05-14T11:59:41.086Z</time>
      </trkpt>
      <trkpt lat="41.65452" lon="19.70724">
        <ele>60.248042</ele>
        <time>2022-05-14T11:59:43.077Z</time>
      </trkpt>
      <trkpt lat="41.65468" lon="19.70713">
        <ele>59.59183</ele>
        <time>2022-05-14T11:59:45.100Z</time>
      </trkpt>
      <trkpt lat="41.65476" lon="19.70707">
        <ele>59.260665</ele>
        <time>2022-05-14T11:59:46.080Z</time>
      </trkpt>
      <trkpt lat="41.65485" lon="19.70702">
        <ele>58.924482</ele>
        <time>2022-05-14T11:59:47.075Z</time>
      </trkpt>
      <trkpt lat="41.65493" lon="19.70697">
        <ele>58.595774</ele>
        <time>2022-05-14T11:59:48.087Z</time>
      </trkpt>
      <trkpt lat="41.65509" lon="19.70687">
        <ele>57.966506</ele>
        <time>2022-05-14T11:59:50.086Z</time>
      </trkpt>
      <trkpt lat="41.65524" lon="19.70677">
        <ele>57.351543</ele>
        <time>2022-05-14T11:59:52.081Z</time>
      </trkpt>
      <trkpt lat="41.65539" lon="19.70667">
        <ele>56.733051</ele>
        <time>2022-05-14T11:59:54.086Z</time>
      </trkpt>
      <trkpt lat="41.65555" lon="19.70657">
        <ele>56.222491</ele>
        <time>2022-05-14T11:59:56.098Z</time>
      </trkpt>
      <trkpt lat="41.65564" lon="19.70652">
        <ele>55.99324</ele>
        <time>2022-05-14T11:59:57.083Z</time>
      </trkpt>
      <trkpt lat="41.65572" lon="19.70647">
        <ele>55.76248</ele>
        <time>2022-05-14T11:59:58.085Z</time>
      </trkpt>
      <trkpt lat="41.65581" lon="19.70642">
        <ele>55.536968</ele>
        <time>2022-05-14T11:59:59.099Z</time>
      </trkpt>
      <trkpt lat="41.65597" lon="19.70633">
        <ele>55.101681</ele>
        <time>2022-05-14T12:00:01.082Z</time>
      </trkpt>
      <trkpt lat="41.65612" lon="19.70623">
        <ele>54.683581</ele>
        <time>2022-05-14T12:00:03.088Z</time>
      </trkpt>
      <trkpt lat="41.65627" lon="19.70614">
        <ele>54.284851</ele>
        <time>2022-05-14T12:00:05.085Z</time>
      </trkpt>
      <trkpt lat="41.6564" lon="19.70604">
        <ele>53.906883</ele>
        <time>2022-05-14T12:00:07.078Z</time>
      </trkpt>
      <trkpt lat="41.65652" lon="19.70593">
        <ele>53.563266</ele>
        <time>2022-05-14T12:00:09.061Z</time>
      </trkpt>
      <trkpt lat="41.65662" lon="19.70583">
        <ele>53.238717</ele>
        <time>2022-05-14T12:00:11.087Z</time>
      </trkpt>
      <trkpt lat="41.65672" lon="19.70571">
        <ele>52.926387</ele>
        <time>2022-05-14T12:00:13.081Z</time>
      </trkpt>
      <trkpt lat="41.6568" lon="19.7056">
        <ele>52.624476</ele>
        <time>2022-05-14T12:00:15.084Z</time>
      </trkpt>
      <trkpt lat="41.65688" lon="19.70548">
        <ele>52.342401</ele>
        <time>2022-05-14T12:00:17.115Z</time>
      </trkpt>
      <trkpt lat="41.65695" lon="19.70537">
        <ele>52.071072</ele>
        <time>2022-05-14T12:00:19.099Z</time>
      </trkpt>
      <trkpt lat="41.65702" lon="19.70525">
        <ele>52.072953</ele>
        <time>2022-05-14T12:00:21.074Z</time>
      </trkpt>
      <trkpt lat="41.65709" lon="19.70515">
        <ele>52.086981</ele>
        <time>2022-05-14T12:00:23.100Z</time>
      </trkpt>
      <trkpt lat="41.65717" lon="19.70506">
        <ele>52.100989</ele>
        <time>2022-05-14T12:00:25.093Z</time>
      </trkpt>
      <trkpt lat="41.65727" lon="19.705">
        <ele>52.115284</ele>
        <time>2022-05-14T12:00:27.066Z</time>
      </trkpt>
      <trkpt lat="41.65738" lon="19.70497">
        <ele>52.129316</ele>
        <time>2022-05-14T12:00:29.116Z</time>
      </trkpt>
      <trkpt lat="41.65747" lon="19.70497">
        <ele>52.141846</ele>
        <time>2022-05-14T12:00:31.089Z</time>
      </trkpt>
      <trkpt lat="41.65756" lon="19.705">
        <ele>52.154098</ele>
        <time>2022-05-14T12:00:33.130Z</time>
      </trkpt>
      <trkpt lat="41.65768" lon="19.70506">
        <ele>52.1708</ele>
        <time>2022-05-14T12:00:36.077Z</time>
      </trkpt>
      <trkpt lat="41.65778" lon="19.70516">
        <ele>52.186865</ele>
        <time>2022-05-14T12:00:39.091Z</time>
      </trkpt>
      <trkpt lat="41.65786" lon="19.70527">
        <ele>52.202132</ele>
        <time>2022-05-14T12:00:42.091Z</time>
      </trkpt>
      <trkpt lat="41.65794" lon="19.70539">
        <ele>52.218214</ele>
        <time>2022-05-14T12:00:45.094Z</time>
      </trkpt>
      <trkpt lat="41.65802" lon="19.70551">
        <ele>52.233555</ele>
        <time>2022-05-14T12:00:48.093Z</time>
      </trkpt>
      <trkpt lat="41.6581" lon="19.70562">
        <ele>52.249355</ele>
        <time>2022-05-14T12:00:51.077Z</time>
      </trkpt>
      <trkpt lat="41.6582" lon="19.70572">
        <ele>52.265042</ele>
        <time>2022-05-14T12:00:54.090Z</time>
      </trkpt>
      <trkpt lat="41.6583" lon="19.70579">
        <ele>52.280764</ele>
        <time>2022-05-14T12:00:57.089Z</time>
      </trkpt>
      <trkpt lat="41.65841" lon="19.70583">
        <ele>52.295682</ele>
        <time>2022-05-14T12:01:00.064Z</time>
      </trkpt>
      <trkpt lat="41.65854" lon="19.70587">
        <ele>52.267993</ele>
        <time>2022-05-14T12:01:03.086Z</time>
      </trkpt>
      <trkpt lat="41.65863" lon="19.70589">
        <ele>52.246382</ele>
        <time>2022-05-14T12:01:05.088Z</time>
      </trkpt>
      <trkpt lat="41.65873" lon="19.7059">
        <ele>52.22422</ele>
        <time>2022-05-14T12:01:07.070Z</time>
      </trkpt>
      <trkpt lat="41.65882" lon="19.70592">
        <ele>52.202248</ele>
        <time>2022-05-14T12:01:09.094Z</time>
      </trkpt>
      <trkpt lat="41.65892" lon="19.70593">
        <ele>52.180661</ele>
        <time>2022-05-14T12:01:11.083Z</time>
      </trkpt>
      <trkpt lat="41.65901" lon="19.70595">
        <ele>52.158849</ele>
        <time>2022-05-14T12:01:13.079Z</time>
      </trkpt>
      <trkpt lat="41.65911" lon="19.70597">
        <ele>52.137687</ele>
        <time>2022-05-14T12:01:15.082Z</time>
      </trkpt>
      <trkpt lat="41.65923" lon="19.70601">
        <ele>52.107805</ele>
        <time>2022-05-14T12:01:18.064Z</time>
      </trkpt>
      <trkpt lat="41.65936" lon="19.70606">
        <ele>52.078422</ele>
        <time>2022-05-14T12:01:21.104Z</time>
      </trkpt>
      <trkpt lat="41.65948" lon="19.70611">
        <ele>52.049149</ele>
        <time>2022-05-14T12:01:24.086Z</time>
      </trkpt>
      <trkpt lat="41.6596" lon="19.70616">
        <ele>52.020259</ele>
        <time>2022-05-14T12:01:27.077Z</time>
      </trkpt>
      <trkpt lat="41.65972" lon="19.70622">
        <ele>51.991255</ele>
        <time>2022-05-14T12:01:30.081Z</time>
      </trkpt>
      <trkpt lat="41.65984" lon="19.70629">
        <ele>51.962671</ele>
        <time>2022-05-14T12:01:33.083Z</time>
      </trkpt>
      <trkpt lat="41.65995" lon="19.70636">
        <ele>51.934158</ele>
        <time>2022-05-14T12:01:36.071Z</time>
      </trkpt>
      <trkpt lat="41.66006" lon="19.70642">
        <ele>51.907787</ele>
        <time>2022-05-14T12:01:39.088Z</time>
      </trkpt>
      <trkpt lat="41.66016" lon="19.7065">
        <ele>51.966381</ele>
        <time>2022-05-14T12:01:42.093Z</time>
      </trkpt>
      <trkpt lat="41.66027" lon="19.70658">
        <ele>52.256454</ele>
        <time>2022-05-14T12:01:45.111Z</time>
      </trkpt>
      <trkpt lat="41.66037" lon="19.70666">
        <ele>52.528713</ele>
        <time>2022-05-14T12:01:48.085Z</time>
      </trkpt>
      <trkpt lat="41.66046" lon="19.70677">
        <ele>52.806655</ele>
        <time>2022-05-14T12:01:51.130Z</time>
      </trkpt>
      <trkpt lat="41.66053" lon="19.70689">
        <ele>53.080794</ele>
        <time>2022-05-14T12:01:54.077Z</time>
      </trkpt>
      <trkpt lat="41.6606" lon="19.70702">
        <ele>53.357877</ele>
        <time>2022-05-14T12:01:57.080Z</time>
      </trkpt>
      <trkpt lat="41.66066" lon="19.70715">
        <ele>53.631176</ele>
        <time>2022-05-14T12:02:00.079Z</time>
      </trkpt>
      <trkpt lat="41.66071" lon="19.70727">
        <ele>53.875844</ele>
        <time>2022-05-14T12:02:03.079Z</time>
      </trkpt>
      <trkpt lat="41.66078" lon="19.70738">
        <ele>54.135675</ele>
        <time>2022-05-14T12:02:06.100Z</time>
      </trkpt>
      <trkpt lat="41.66086" lon="19.70749">
        <ele>54.400511</ele>
        <time>2022-05-14T12:02:09.091Z</time>
      </trkpt>
      <trkpt lat="41.66095" lon="19.70757">
        <ele>54.651229</ele>
        <time>2022-05-14T12:02:12.065Z</time>
      </trkpt>
      <trkpt lat="41.66104" lon="19.70764">
        <ele>54.898925</ele>
        <time>2022-05-14T12:02:15.086Z</time>
      </trkpt>
      <trkpt lat="41.66113" lon="19.70769">
        <ele>55.137154</ele>
        <time>2022-05-14T12:02:18.072Z</time>
      </trkpt>
      <trkpt lat="41.66122" lon="19.70774">
        <ele>55.349751</ele>
        <time>2022-05-14T12:02:21.074Z</time>
      </trkpt>
      <trkpt lat="41.6613" lon="19.70778">
        <ele>55.568789</ele>
        <time>2022-05-14T12:02:25.086Z</time>
      </trkpt>
      <trkpt lat="41.6614" lon="19.70782">
        <ele>55.805288</ele>
        <time>2022-05-14T12:02:29.084Z</time>
      </trkpt>
      <trkpt lat="41.66149" lon="19.70787">
        <ele>56.0383</ele>
        <time>2022-05-14T12:02:33.072Z</time>
      </trkpt>
      <trkpt lat="41.6616" lon="19.70792">
        <ele>56.273183</ele>
        <time>2022-05-14T12:02:37.085Z</time>
      </trkpt>
      <trkpt lat="41.66171" lon="19.70798">
        <ele>56.484358</ele>
        <time>2022-05-14T12:02:41.085Z</time>
      </trkpt>
      <trkpt lat="41.66179" lon="19.70802">
        <ele>56.65359</ele>
        <time>2022-05-14T12:02:44.069Z</time>
      </trkpt>
      <trkpt lat="41.66189" lon="19.70807">
        <ele>56.839575</ele>
        <time>2022-05-14T12:02:47.103Z</time>
      </trkpt>
      <trkpt lat="41.66198" lon="19.70811">
        <ele>57.021018</ele>
        <time>2022-05-14T12:02:50.080Z</time>
      </trkpt>
      <trkpt lat="41.66209" lon="19.70816">
        <ele>57.231884</ele>
        <time>2022-05-14T12:02:54.081Z</time>
      </trkpt>
      <trkpt lat="41.66219" lon="19.70819">
        <ele>57.430361</ele>
        <time>2022-05-14T12:02:58.119Z</time>
      </trkpt>
      <trkpt lat="41.66229" lon="19.70821">
        <ele>57.619224</ele>
        <time>2022-05-14T12:03:02.089Z</time>
      </trkpt>
      <trkpt lat="41.6624" lon="19.70823">
        <ele>57.813263</ele>
        <time>2022-05-14T12:03:06.076Z</time>
      </trkpt>
      <trkpt lat="41.66251" lon="19.70826">
        <ele>58.02477</ele>
        <time>2022-05-14T12:03:10.074Z</time>
      </trkpt>
      <trkpt lat="41.66262" lon="19.70827">
        <ele>58.234979</ele>
        <time>2022-05-14T12:03:14.081Z</time>
      </trkpt>
      <trkpt lat="41.66274" lon="19.70831">
        <ele>58.450889</ele>
        <time>2022-05-14T12:03:18.116Z</time>
      </trkpt>
      <trkpt lat="41.66283" lon="19.70834">
        <ele>58.633447</ele>
        <time>2022-05-14T12:03:21.083Z</time>
      </trkpt>
      <trkpt lat="41.66294" lon="19.70838">
        <ele>58.832494</ele>
        <time>2022-05-14T12:03:24.081Z</time>
      </trkpt>
      <trkpt lat="41.66305" lon="19.70844">
        <ele>59.053789</ele>
        <time>2022-05-14T12:03:27.078Z</time>
      </trkpt>
      <trkpt lat="41.66316" lon="19.70852">
        <ele>59.284006</ele>
        <time>2022-05-14T12:03:30.091Z</time>
      </trkpt>
      <trkpt lat="41.66326" lon="19.7086">
        <ele>59.399489</ele>
        <time>2022-05-14T12:03:33.093Z</time>
      </trkpt>
      <trkpt lat="41.66338" lon="19.70867">
        <ele>59.161845</ele>
        <time>2022-05-14T12:03:36.082Z</time>
      </trkpt>
      <trkpt lat="41.66351" lon="19.70871">
        <ele>58.925094</ele>
        <time>2022-05-14T12:03:39.091Z</time>
      </trkpt>
      <trkpt lat="41.6636" lon="19.70872">
        <ele>58.758582</ele>
        <time>2022-05-14T12:03:41.089Z</time>
      </trkpt>
      <trkpt lat="41.66373" lon="19.70871">
        <ele>58.518765</ele>
        <time>2022-05-14T12:03:44.095Z</time>
      </trkpt>
      <trkpt lat="41.66384" lon="19.70867">
        <ele>58.304931</ele>
        <time>2022-05-14T12:03:47.095Z</time>
      </trkpt>
      <trkpt lat="41.66394" lon="19.70861">
        <ele>58.104579</ele>
        <time>2022-05-14T12:03:50.092Z</time>
      </trkpt>
      <trkpt lat="41.66404" lon="19.70853">
        <ele>57.893362</ele>
        <time>2022-05-14T12:03:53.099Z</time>
      </trkpt>
      <trkpt lat="41.66413" lon="19.70843">
        <ele>57.678649</ele>
        <time>2022-05-14T12:03:56.074Z</time>
      </trkpt>
      <trkpt lat="41.66422" lon="19.70833">
        <ele>57.465118</ele>
        <time>2022-05-14T12:03:59.101Z</time>
      </trkpt>
      <trkpt lat="41.66432" lon="19.70826">
        <ele>57.254399</ele>
        <time>2022-05-14T12:04:02.092Z</time>
      </trkpt>
      <trkpt lat="41.66442" lon="19.7082">
        <ele>57.051148</ele>
        <time>2022-05-14T12:04:05.114Z</time>
      </trkpt>
      <trkpt lat="41.66453" lon="19.70816">
        <ele>56.845909</ele>
        <time>2022-05-14T12:04:08.078Z</time>
      </trkpt>
      <trkpt lat="41.66465" lon="19.70814">
        <ele>56.62247</ele>
        <time>2022-05-14T12:04:11.124Z</time>
      </trkpt>
      <trkpt lat="41.66478" lon="19.70813">
        <ele>56.391963</ele>
        <time>2022-05-14T12:04:14.083Z</time>
      </trkpt>
      <trkpt lat="41.6649" lon="19.70814">
        <ele>56.173561</ele>
        <time>2022-05-14T12:04:17.100Z</time>
      </trkpt>
      <trkpt lat="41.66501" lon="19.70816">
        <ele>56.410151</ele>
        <time>2022-05-14T12:04:20.076Z</time>
      </trkpt>
      <trkpt lat="41.66513" lon="19.70819">
        <ele>56.666674</ele>
        <time>2022-05-14T12:04:23.099Z</time>
      </trkpt>
      <trkpt lat="41.66523" lon="19.70822">
        <ele>56.909438</ele>
        <time>2022-05-14T12:04:26.078Z</time>
      </trkpt>
      <trkpt lat="41.66534" lon="19.70827">
        <ele>57.156377</ele>
        <time>2022-05-14T12:04:29.086Z</time>
      </trkpt>
      <trkpt lat="41.66544" lon="19.70832">
        <ele>57.409229</ele>
        <time>2022-05-14T12:04:32.092Z</time>
      </trkpt>
      <trkpt lat="41.66555" lon="19.70839">
        <ele>57.673804</ele>
        <time>2022-05-14T12:04:35.071Z</time>
      </trkpt>
      <trkpt lat="41.66565" lon="19.70847">
        <ele>57.934453</ele>
        <time>2022-05-14T12:04:38.143Z</time>
      </trkpt>
      <trkpt lat="41.66573" lon="19.70854">
        <ele>58.159676</ele>
        <time>2022-05-14T12:04:41.087Z</time>
      </trkpt>
      <trkpt lat="41.66581" lon="19.70861">
        <ele>58.362623</ele>
        <time>2022-05-14T12:04:44.070Z</time>
      </trkpt>
      <trkpt lat="41.66588" lon="19.70868">
        <ele>58.573109</ele>
        <time>2022-05-14T12:04:47.072Z</time>
      </trkpt>
      <trkpt lat="41.66598" lon="19.70877">
        <ele>58.830136</ele>
        <time>2022-05-14T12:04:51.080Z</time>
      </trkpt>
      <trkpt lat="41.66606" lon="19.70886">
        <ele>59.06662</ele>
        <time>2022-05-14T12:04:55.060Z</time>
      </trkpt>
      <trkpt lat="41.66615" lon="19.70892">
        <ele>59.285055</ele>
        <time>2022-05-14T12:04:58.080Z</time>
      </trkpt>
      <trkpt lat="41.66626" lon="19.70896">
        <ele>59.550582</ele>
        <time>2022-05-14T12:05:01.079Z</time>
      </trkpt>
      <trkpt lat="41.66637" lon="19.70897">
        <ele>59.795177</ele>
        <time>2022-05-14T12:05:04.072Z</time>
      </trkpt>
      <trkpt lat="41.66649" lon="19.70895">
        <ele>60.070079</ele>
        <time>2022-05-14T12:05:07.092Z</time>
      </trkpt>
      <trkpt lat="41.66663" lon="19.70893">
        <ele>60.253247</ele>
        <time>2022-05-14T12:05:10.085Z</time>
      </trkpt>
      <trkpt lat="41.66672" lon="19.7089">
        <ele>60.33083</ele>
        <time>2022-05-14T12:05:12.077Z</time>
      </trkpt>
      <trkpt lat="41.66683" lon="19.70887">
        <ele>60.412204</ele>
        <time>2022-05-14T12:05:14.076Z</time>
      </trkpt>
      <trkpt lat="41.66693" lon="19.70884">
        <ele>60.495328</ele>
        <time>2022-05-14T12:05:16.105Z</time>
      </trkpt>
      <trkpt lat="41.66704" lon="19.70881">
        <ele>60.581603</ele>
        <time>2022-05-14T12:05:18.073Z</time>
      </trkpt>
      <trkpt lat="41.66715" lon="19.70878">
        <ele>60.666126</ele>
        <time>2022-05-14T12:05:20.082Z</time>
      </trkpt>
      <trkpt lat="41.66725" lon="19.70875">
        <ele>60.748258</ele>
        <time>2022-05-14T12:05:22.069Z</time>
      </trkpt>
      <trkpt lat="41.66736" lon="19.70872">
        <ele>60.830392</ele>
        <time>2022-05-14T12:05:24.080Z</time>
      </trkpt>
      <trkpt lat="41.66746" lon="19.70869">
        <ele>60.912759</ele>
        <time>2022-05-14T12:05:26.100Z</time>
      </trkpt>
      <trkpt lat="41.66756" lon="19.70866">
        <ele>60.993149</ele>
        <time>2022-05-14T12:05:28.115Z</time>
      </trkpt>
      <trkpt lat="41.66766" lon="19.70863">
        <ele>61.070496</ele>
        <time>2022-05-14T12:05:30.078Z</time>
      </trkpt>
      <trkpt lat="41.66776" lon="19.70859">
        <ele>61.149024</ele>
        <time>2022-05-14T12:05:32.090Z</time>
      </trkpt>
      <trkpt lat="41.66785" lon="19.70855">
        <ele>61.228692</ele>
        <time>2022-05-14T12:05:34.132Z</time>
      </trkpt>
      <trkpt lat="41.66795" lon="19.7085">
        <ele>61.308033</ele>
        <time>2022-05-14T12:05:36.073Z</time>
      </trkpt>
      <trkpt lat="41.66805" lon="19.70846">
        <ele>61.387327</ele>
        <time>2022-05-14T12:05:38.094Z</time>
      </trkpt>
      <trkpt lat="41.66814" lon="19.70841">
        <ele>61.467394</ele>
        <time>2022-05-14T12:05:40.078Z</time>
      </trkpt>
      <trkpt lat="41.66823" lon="19.70837">
        <ele>61.540849</ele>
        <time>2022-05-14T12:05:42.073Z</time>
      </trkpt>
      <trkpt lat="41.66832" lon="19.70833">
        <ele>61.5717</ele>
        <time>2022-05-14T12:05:44.085Z</time>
      </trkpt>
      <trkpt lat="41.66842" lon="19.7083">
        <ele>61.539307</ele>
        <time>2022-05-14T12:05:46.083Z</time>
      </trkpt>
      <trkpt lat="41.66852" lon="19.70829">
        <ele>61.506333</ele>
        <time>2022-05-14T12:05:48.086Z</time>
      </trkpt>
      <trkpt lat="41.66862" lon="19.70828">
        <ele>61.472002</ele>
        <time>2022-05-14T12:05:50.095Z</time>
      </trkpt>
      <trkpt lat="41.66871" lon="19.70828">
        <ele>61.441017</ele>
        <time>2022-05-14T12:05:52.088Z</time>
      </trkpt>
      <trkpt lat="41.66884" lon="19.7083">
        <ele>61.396808</ele>
        <time>2022-05-14T12:05:55.065Z</time>
      </trkpt>
      <trkpt lat="41.66896" lon="19.70834">
        <ele>61.355889</ele>
        <time>2022-05-14T12:05:58.081Z</time>
      </trkpt>
      <trkpt lat="41.66907" lon="19.70837">
        <ele>61.319209</ele>
        <time>2022-05-14T12:06:01.093Z</time>
      </trkpt>
      <trkpt lat="41.66919" lon="19.70839">
        <ele>61.278057</ele>
        <time>2022-05-14T12:06:04.073Z</time>
      </trkpt>
      <trkpt lat="41.66929" lon="19.70839">
        <ele>61.245753</ele>
        <time>2022-05-14T12:06:06.114Z</time>
      </trkpt>
      <trkpt lat="41.66941" lon="19.70838">
        <ele>61.207778</ele>
        <time>2022-05-14T12:06:08.077Z</time>
      </trkpt>
      <trkpt lat="41.66953" lon="19.70838">
        <ele>61.166126</ele>
        <time>2022-05-14T12:06:10.084Z</time>
      </trkpt>
      <trkpt lat="41.66966" lon="19.70837">
        <ele>61.122433</ele>
        <time>2022-05-14T12:06:12.112Z</time>
      </trkpt>
      <trkpt lat="41.66979" lon="19.70836">
        <ele>61.078099</ele>
        <time>2022-05-14T12:06:14.099Z</time>
      </trkpt>
      <trkpt lat="41.66993" lon="19.70834">
        <ele>61.033673</ele>
        <time>2022-05-14T12:06:16.091Z</time>
      </trkpt>
      <trkpt lat="41.67007" lon="19.70833">
        <ele>60.986973</ele>
        <time>2022-05-14T12:06:18.092Z</time>
      </trkpt>
      <trkpt lat="41.6702" lon="19.70832">
        <ele>60.820453</ele>
        <time>2022-05-14T12:06:20.119Z</time>
      </trkpt>
      <trkpt lat="41.67034" lon="19.7083">
        <ele>60.650742</ele>
        <time>2022-05-14T12:06:22.103Z</time>
      </trkpt>
      <trkpt lat="41.67047" lon="19.70829">
        <ele>60.486139</ele>
        <time>2022-05-14T12:06:24.106Z</time>
      </trkpt>
      <trkpt lat="41.6706" lon="19.70829">
        <ele>60.320786</ele>
        <time>2022-05-14T12:06:26.084Z</time>
      </trkpt>
      <trkpt lat="41.67073" lon="19.7083">
        <ele>60.147753</ele>
        <time>2022-05-14T12:06:28.082Z</time>
      </trkpt>
      <trkpt lat="41.67087" lon="19.70832">
        <ele>59.970501</ele>
        <time>2022-05-14T12:06:30.079Z</time>
      </trkpt>
      <trkpt lat="41.67101" lon="19.70834">
        <ele>59.795185</ele>
        <time>2022-05-14T12:06:32.085Z</time>
      </trkpt>
      <trkpt lat="41.67115" lon="19.70835">
        <ele>59.62079</ele>
        <time>2022-05-14T12:06:34.086Z</time>
      </trkpt>
      <trkpt lat="41.67128" lon="19.70835">
        <ele>59.458032</ele>
        <time>2022-05-14T12:06:36.126Z</time>
      </trkpt>
      <trkpt lat="41.67141" lon="19.70833">
        <ele>59.296717</ele>
        <time>2022-05-14T12:06:38.078Z</time>
      </trkpt>
      <trkpt lat="41.67153" lon="19.7083">
        <ele>59.136516</ele>
        <time>2022-05-14T12:06:40.097Z</time>
      </trkpt>
      <trkpt lat="41.67164" lon="19.70826">
        <ele>58.995648</ele>
        <time>2022-05-14T12:06:42.088Z</time>
      </trkpt>
      <trkpt lat="41.67175" lon="19.70821">
        <ele>58.850863</ele>
        <time>2022-05-14T12:06:44.089Z</time>
      </trkpt>
      <trkpt lat="41.67186" lon="19.70815">
        <ele>58.669795</ele>
        <time>2022-05-14T12:06:46.089Z</time>
      </trkpt>
      <trkpt lat="41.67197" lon="19.70809">
        <ele>58.271892</ele>
        <time>2022-05-14T12:06:48.100Z</time>
      </trkpt>
      <trkpt lat="41.67207" lon="19.70803">
        <ele>57.887527</ele>
        <time>2022-05-14T12:06:50.075Z</time>
      </trkpt>
      <trkpt lat="41.67217" lon="19.70797">
        <ele>57.512856</ele>
        <time>2022-05-14T12:06:52.099Z</time>
      </trkpt>
      <trkpt lat="41.67226" lon="19.70792">
        <ele>57.153967</ele>
        <time>2022-05-14T12:06:54.081Z</time>
      </trkpt>
      <trkpt lat="41.67236" lon="19.70786">
        <ele>56.779296</ele>
        <time>2022-05-14T12:06:56.086Z</time>
      </trkpt>
      <trkpt lat="41.67245" lon="19.7078">
        <ele>56.444602</ele>
        <time>2022-05-14T12:06:58.108Z</time>
      </trkpt>
      <trkpt lat="41.67254" lon="19.70775">
        <ele>56.097239</ele>
        <time>2022-05-14T12:07:00.086Z</time>
      </trkpt>
      <trkpt lat="41.67263" lon="19.70769">
        <ele>55.756246</ele>
        <time>2022-05-14T12:07:02.081Z</time>
      </trkpt>
      <trkpt lat="41.67272" lon="19.70764">
        <ele>55.436275</ele>
        <time>2022-05-14T12:07:04.085Z</time>
      </trkpt>
      <trkpt lat="41.6728" lon="19.70759">
        <ele>55.098435</ele>
        <time>2022-05-14T12:07:06.081Z</time>
      </trkpt>
      <trkpt lat="41.67289" lon="19.70754">
        <ele>54.777434</ele>
        <time>2022-05-14T12:07:08.090Z</time>
      </trkpt>
      <trkpt lat="41.67298" lon="19.70749">
        <ele>54.444357</ele>
        <time>2022-05-14T12:07:10.091Z</time>
      </trkpt>
      <trkpt lat="41.67308" lon="19.70744">
        <ele>54.084048</ele>
        <time>2022-05-14T12:07:12.068Z</time>
      </trkpt>
      <trkpt lat="41.67317" lon="19.7074">
        <ele>53.732356</ele>
        <time>2022-05-14T12:07:14.084Z</time>
      </trkpt>
      <trkpt lat="41.67327" lon="19.70736">
        <ele>53.372953</ele>
        <time>2022-05-14T12:07:16.082Z</time>
      </trkpt>
      <trkpt lat="41.67337" lon="19.70733">
        <ele>53.044307</ele>
        <time>2022-05-14T12:07:18.117Z</time>
      </trkpt>
      <trkpt lat="41.67345" lon="19.70731">
        <ele>52.728792</ele>
        <time>2022-05-14T12:07:20.101Z</time>
      </trkpt>
      <trkpt lat="41.67358" lon="19.70727">
        <ele>52.52305</ele>
        <time>2022-05-14T12:07:23.103Z</time>
      </trkpt>
      <trkpt lat="41.67368" lon="19.70724">
        <ele>52.559994</ele>
        <time>2022-05-14T12:07:25.081Z</time>
      </trkpt>
      <trkpt lat="41.67377" lon="19.70722">
        <ele>52.59595</ele>
        <time>2022-05-14T12:07:27.134Z</time>
      </trkpt>
      <trkpt lat="41.67386" lon="19.7072">
        <ele>52.631747</ele>
        <time>2022-05-14T12:07:29.085Z</time>
      </trkpt>
      <trkpt lat="41.67395" lon="19.70717">
        <ele>52.667819</ele>
        <time>2022-05-14T12:07:31.083Z</time>
      </trkpt>
      <trkpt lat="41.67404" lon="19.70715">
        <ele>52.705029</ele>
        <time>2022-05-14T12:07:33.089Z</time>
      </trkpt>
      <trkpt lat="41.67414" lon="19.70713">
        <ele>52.740778</ele>
        <time>2022-05-14T12:07:35.118Z</time>
      </trkpt>
      <trkpt lat="41.67423" lon="19.70711">
        <ele>52.776358</ele>
        <time>2022-05-14T12:07:37.060Z</time>
      </trkpt>
      <trkpt lat="41.67432" lon="19.7071">
        <ele>52.813794</ele>
        <time>2022-05-14T12:07:39.093Z</time>
      </trkpt>
      <trkpt lat="41.67442" lon="19.7071">
        <ele>52.849847</ele>
        <time>2022-05-14T12:07:41.098Z</time>
      </trkpt>
      <trkpt lat="41.67451" lon="19.7071">
        <ele>52.886292</ele>
        <time>2022-05-14T12:07:43.081Z</time>
      </trkpt>
      <trkpt lat="41.67461" lon="19.70711">
        <ele>52.923697</ele>
        <time>2022-05-14T12:07:45.068Z</time>
      </trkpt>
      <trkpt lat="41.67471" lon="19.70713">
        <ele>52.963277</ele>
        <time>2022-05-14T12:07:47.122Z</time>
      </trkpt>
      <trkpt lat="41.6748" lon="19.70716">
        <ele>53.000054</ele>
        <time>2022-05-14T12:07:49.151Z</time>
      </trkpt>
      <trkpt lat="41.67492" lon="19.70722">
        <ele>53.051153</ele>
        <time>2022-05-14T12:07:52.096Z</time>
      </trkpt>
      <trkpt lat="41.67504" lon="19.70728">
        <ele>53.099933</ele>
        <time>2022-05-14T12:07:55.068Z</time>
      </trkpt>
      <trkpt lat="41.67515" lon="19.70735">
        <ele>53.148201</ele>
        <time>2022-05-14T12:07:58.082Z</time>
      </trkpt>
      <trkpt lat="41.67527" lon="19.70743">
        <ele>53.222218</ele>
        <time>2022-05-14T12:08:01.090Z</time>
      </trkpt>
      <trkpt lat="41.67539" lon="19.70752">
        <ele>53.507663</ele>
        <time>2022-05-14T12:08:04.094Z</time>
      </trkpt>
      <trkpt lat="41.67547" lon="19.70758">
        <ele>53.707232</ele>
        <time>2022-05-14T12:08:06.107Z</time>
      </trkpt>
      <trkpt lat="41.67555" lon="19.70765">
        <ele>53.9127</ele>
        <time>2022-05-14T12:08:08.077Z</time>
      </trkpt>
      <trkpt lat="41.67563" lon="19.70774">
        <ele>54.126584</ele>
        <time>2022-05-14T12:08:10.072Z</time>
      </trkpt>
      <trkpt lat="41.67571" lon="19.70782">
        <ele>54.336164</ele>
        <time>2022-05-14T12:08:12.107Z</time>
      </trkpt>
      <trkpt lat="41.6758" lon="19.70794">
        <ele>54.612043</ele>
        <time>2022-05-14T12:08:15.067Z</time>
      </trkpt>
      <trkpt lat="41.67587" lon="19.70803">
        <ele>54.805576</ele>
        <time>2022-05-14T12:08:17.108Z</time>
      </trkpt>
      <trkpt lat="41.67596" lon="19.70816">
        <ele>55.08971</ele>
        <time>2022-05-14T12:08:20.085Z</time>
      </trkpt>
      <trkpt lat="41.67603" lon="19.70825">
        <ele>55.283944</ele>
        <time>2022-05-14T12:08:22.083Z</time>
      </trkpt>
      <trkpt lat="41.67611" lon="19.70837">
        <ele>55.551332</ele>
        <time>2022-05-14T12:08:25.092Z</time>
      </trkpt>
      <trkpt lat="41.67619" lon="19.70848">
        <ele>55.791422</ele>
        <time>2022-05-14T12:08:28.072Z</time>
      </trkpt>
      <trkpt lat="41.67628" lon="19.70858">
        <ele>56.038453</ele>
        <time>2022-05-14T12:08:31.081Z</time>
      </trkpt>
      <trkpt lat="41.67637" lon="19.70869">
        <ele>56.290185</ele>
        <time>2022-05-14T12:08:34.095Z</time>
      </trkpt>
      <trkpt lat="41.67647" lon="19.7088">
        <ele>56.567964</ele>
        <time>2022-05-14T12:08:37.100Z</time>
      </trkpt>
      <trkpt lat="41.67658" lon="19.70889">
        <ele>56.847312</ele>
        <time>2022-05-14T12:08:40.105Z</time>
      </trkpt>
      <trkpt lat="41.67669" lon="19.70898">
        <ele>56.775335</ele>
        <time>2022-05-14T12:08:43.070Z</time>
      </trkpt>
      <trkpt lat="41.67679" lon="19.70906">
        <ele>56.235766</ele>
        <time>2022-05-14T12:08:46.065Z</time>
      </trkpt>
      <trkpt lat="41.6769" lon="19.70914">
        <ele>55.699075</ele>
        <time>2022-05-14T12:08:49.070Z</time>
      </trkpt>
      <trkpt lat="41.67698" lon="19.7092">
        <ele>55.292261</ele>
        <time>2022-05-14T12:08:51.083Z</time>
      </trkpt>
      <trkpt lat="41.67706" lon="19.70926">
        <ele>54.877391</ele>
        <time>2022-05-14T12:08:53.083Z</time>
      </trkpt>
      <trkpt lat="41.67714" lon="19.70932">
        <ele>54.470155</ele>
        <time>2022-05-14T12:08:55.078Z</time>
      </trkpt>
      <trkpt lat="41.67722" lon="19.70939">
        <ele>54.053989</ele>
        <time>2022-05-14T12:08:57.081Z</time>
      </trkpt>
      <trkpt lat="41.67733" lon="19.70949">
        <ele>53.455686</ele>
        <time>2022-05-14T12:09:00.091Z</time>
      </trkpt>
      <trkpt lat="41.67743" lon="19.70961">
        <ele>52.860833</ele>
        <time>2022-05-14T12:09:03.115Z</time>
      </trkpt>
      <trkpt lat="41.6775" lon="19.70969">
        <ele>52.443396</ele>
        <time>2022-05-14T12:09:05.105Z</time>
      </trkpt>
      <trkpt lat="41.6776" lon="19.70982">
        <ele>51.858112</ele>
        <time>2022-05-14T12:09:08.093Z</time>
      </trkpt>
      <trkpt lat="41.67766" lon="19.7099">
        <ele>51.443251</ele>
        <time>2022-05-14T12:09:10.085Z</time>
      </trkpt>
      <trkpt lat="41.67773" lon="19.71">
        <ele>50.999461</ele>
        <time>2022-05-14T12:09:12.075Z</time>
      </trkpt>
      <trkpt lat="41.6778" lon="19.71009">
        <ele>50.591445</ele>
        <time>2022-05-14T12:09:14.104Z</time>
      </trkpt>
      <trkpt lat="41.67786" lon="19.71018">
        <ele>50.194308</ele>
        <time>2022-05-14T12:09:16.071Z</time>
      </trkpt>
      <trkpt lat="41.67792" lon="19.71027">
        <ele>49.789842</ele>
        <time>2022-05-14T12:09:18.084Z</time>
      </trkpt>
      <trkpt lat="41.67801" lon="19.71041">
        <ele>49.1871</ele>
        <time>2022-05-14T12:09:21.105Z</time>
      </trkpt>
      <trkpt lat="41.67807" lon="19.7105">
        <ele>49.101251</ele>
        <time>2022-05-14T12:09:23.100Z</time>
      </trkpt>
      <trkpt lat="41.67813" lon="19.7106">
        <ele>49.223873</ele>
        <time>2022-05-14T12:09:25.093Z</time>
      </trkpt>
      <trkpt lat="41.67819" lon="19.71069">
        <ele>49.34224</ele>
        <time>2022-05-14T12:09:27.101Z</time>
      </trkpt>
      <trkpt lat="41.67828" lon="19.71082">
        <ele>49.508482</ele>
        <time>2022-05-14T12:09:30.075Z</time>
      </trkpt>
      <trkpt lat="41.67836" lon="19.71095">
        <ele>49.670069</ele>
        <time>2022-05-14T12:09:33.082Z</time>
      </trkpt>
      <trkpt lat="41.67845" lon="19.71107">
        <ele>49.830106</ele>
        <time>2022-05-14T12:09:36.078Z</time>
      </trkpt>
      <trkpt lat="41.67852" lon="19.71119">
        <ele>49.97502</ele>
        <time>2022-05-14T12:09:39.073Z</time>
      </trkpt>
      <trkpt lat="41.6786" lon="19.7113">
        <ele>50.122337</ele>
        <time>2022-05-14T12:09:42.076Z</time>
      </trkpt>
      <trkpt lat="41.67867" lon="19.71141">
        <ele>50.258213</ele>
        <time>2022-05-14T12:09:45.077Z</time>
      </trkpt>
      <trkpt lat="41.67875" lon="19.71153">
        <ele>50.406601</ele>
        <time>2022-05-14T12:09:48.081Z</time>
      </trkpt>
      <trkpt lat="41.67882" lon="19.71163">
        <ele>50.540221</ele>
        <time>2022-05-14T12:09:51.074Z</time>
      </trkpt>
      <trkpt lat="41.67889" lon="19.71174">
        <ele>50.677267</ele>
        <time>2022-05-14T12:09:54.080Z</time>
      </trkpt>
      <trkpt lat="41.67897" lon="19.71185">
        <ele>50.817297</ele>
        <time>2022-05-14T12:09:57.077Z</time>
      </trkpt>
      <trkpt lat="41.67904" lon="19.71195">
        <ele>50.951267</ele>
        <time>2022-05-14T12:10:00.083Z</time>
      </trkpt>
      <trkpt lat="41.67912" lon="19.71206">
        <ele>51.092847</ele>
        <time>2022-05-14T12:10:03.082Z</time>
      </trkpt>
      <trkpt lat="41.6792" lon="19.71215">
        <ele>51.2302</ele>
        <time>2022-05-14T12:10:06.086Z</time>
      </trkpt>
      <trkpt lat="41.67928" lon="19.71224">
        <ele>51.386908</ele>
        <time>2022-05-14T12:10:09.093Z</time>
      </trkpt>
      <trkpt lat="41.67937" lon="19.71233">
        <ele>51.57312</ele>
        <time>2022-05-14T12:10:12.132Z</time>
      </trkpt>
      <trkpt lat="41.67946" lon="19.71241">
        <ele>51.74379</ele>
        <time>2022-05-14T12:10:15.084Z</time>
      </trkpt>
      <trkpt lat="41.67954" lon="19.7125">
        <ele>51.922348</ele>
        <time>2022-05-14T12:10:18.083Z</time>
      </trkpt>
      <trkpt lat="41.67964" lon="19.71255">
        <ele>52.108374</ele>
        <time>2022-05-14T12:10:21.072Z</time>
      </trkpt>
      <trkpt lat="41.67976" lon="19.71257">
        <ele>52.301573</ele>
        <time>2022-05-14T12:10:24.090Z</time>
      </trkpt>
      <trkpt lat="41.67985" lon="19.71254">
        <ele>52.456535</ele>
        <time>2022-05-14T12:10:26.065Z</time>
      </trkpt>
      <trkpt lat="41.67993" lon="19.7125">
        <ele>52.611315</ele>
        <time>2022-05-14T12:10:28.105Z</time>
      </trkpt>
      <trkpt lat="41.68001" lon="19.71244">
        <ele>52.766264</ele>
        <time>2022-05-14T12:10:30.075Z</time>
      </trkpt>
      <trkpt lat="41.6801" lon="19.71237">
        <ele>52.933099</ele>
        <time>2022-05-14T12:10:32.148Z</time>
      </trkpt>
      <trkpt lat="41.68019" lon="19.71231">
        <ele>53.102538</ele>
        <time>2022-05-14T12:10:34.081Z</time>
      </trkpt>
      <trkpt lat="41.68028" lon="19.71224">
        <ele>53.271086</ele>
        <time>2022-05-14T12:10:36.085Z</time>
      </trkpt>
      <trkpt lat="41.68036" lon="19.71218">
        <ele>53.435836</ele>
        <time>2022-05-14T12:10:38.081Z</time>
      </trkpt>
      <trkpt lat="41.68045" lon="19.71212">
        <ele>53.594184</ele>
        <time>2022-05-14T12:10:40.079Z</time>
      </trkpt>
      <trkpt lat="41.68052" lon="19.71206">
        <ele>53.747048</ele>
        <time>2022-05-14T12:10:42.081Z</time>
      </trkpt>
      <trkpt lat="41.68064" lon="19.71198">
        <ele>53.960417</ele>
        <time>2022-05-14T12:10:45.096Z</time>
      </trkpt>
      <trkpt lat="41.68074" lon="19.71191">
        <ele>54.160714</ele>
        <time>2022-05-14T12:10:48.065Z</time>
      </trkpt>
      <trkpt lat="41.68084" lon="19.71184">
        <ele>54.35104</ele>
        <time>2022-05-14T12:10:51.098Z</time>
      </trkpt>
      <trkpt lat="41.68093" lon="19.71177">
        <ele>54.667412</ele>
        <time>2022-05-14T12:10:54.087Z</time>
      </trkpt>
      <trkpt lat="41.68102" lon="19.71171">
        <ele>54.943937</ele>
        <time>2022-05-14T12:10:57.091Z</time>
      </trkpt>
      <trkpt lat="41.68112" lon="19.71164">
        <ele>55.283582</ele>
        <time>2022-05-14T12:11:01.089Z</time>
      </trkpt>
      <trkpt lat="41.68122" lon="19.71156">
        <ele>55.632917</ele>
        <time>2022-05-14T12:11:05.107Z</time>
      </trkpt>
      <trkpt lat="41.68132" lon="19.71148">
        <ele>55.977782</ele>
        <time>2022-05-14T12:11:09.079Z</time>
      </trkpt>
      <trkpt lat="41.68141" lon="19.7114">
        <ele>56.311066</ele>
        <time>2022-05-14T12:11:13.110Z</time>
      </trkpt>
      <trkpt lat="41.68149" lon="19.71133">
        <ele>56.595086</ele>
        <time>2022-05-14T12:11:17.052Z</time>
      </trkpt>
      <trkpt lat="41.68159" lon="19.71124">
        <ele>56.928387</ele>
        <time>2022-05-14T12:11:21.068Z</time>
      </trkpt>
      <trkpt lat="41.68166" lon="19.71117">
        <ele>57.215157</ele>
        <time>2022-05-14T12:11:24.066Z</time>
      </trkpt>
      <trkpt lat="41.68174" lon="19.71108">
        <ele>57.50907</ele>
        <time>2022-05-14T12:11:27.070Z</time>
      </trkpt>
      <trkpt lat="41.68182" lon="19.71099">
        <ele>57.816016</ele>
        <time>2022-05-14T12:11:30.097Z</time>
      </trkpt>
      <trkpt lat="41.6819" lon="19.7109">
        <ele>58.122162</ele>
        <time>2022-05-14T12:11:33.091Z</time>
      </trkpt>
      <trkpt lat="41.68198" lon="19.71081">
        <ele>58.444706</ele>
        <time>2022-05-14T12:11:36.089Z</time>
      </trkpt>
      <trkpt lat="41.68206" lon="19.71071">
        <ele>58.769962</ele>
        <time>2022-05-14T12:11:39.086Z</time>
      </trkpt>
      <trkpt lat="41.68215" lon="19.71061">
        <ele>59.109385</ele>
        <time>2022-05-14T12:11:42.092Z</time>
      </trkpt>
      <trkpt lat="41.68224" lon="19.71049">
        <ele>59.473266</ele>
        <time>2022-05-14T12:11:45.077Z</time>
      </trkpt>
      <trkpt lat="41.6823" lon="19.7104">
        <ele>59.655882</ele>
        <time>2022-05-14T12:11:47.126Z</time>
      </trkpt>
      <trkpt lat="41.68237" lon="19.71031">
        <ele>59.628198</ele>
        <time>2022-05-14T12:11:49.072Z</time>
      </trkpt>
      <trkpt lat="41.68244" lon="19.71022">
        <ele>59.600053</ele>
        <time>2022-05-14T12:11:51.099Z</time>
      </trkpt>
      <trkpt lat="41.68252" lon="19.71011">
        <ele>59.564655</ele>
        <time>2022-05-14T12:11:54.095Z</time>
      </trkpt>
      <trkpt lat="41.6826" lon="19.71001">
        <ele>59.533595</ele>
        <time>2022-05-14T12:11:56.102Z</time>
      </trkpt>
      <trkpt lat="41.68269" lon="19.70989">
        <ele>59.498499</ele>
        <time>2022-05-14T12:11:58.105Z</time>
      </trkpt>
      <trkpt lat="41.68278" lon="19.70979">
        <ele>59.464218</ele>
        <time>2022-05-14T12:12:00.096Z</time>
      </trkpt>
      <trkpt lat="41.68286" lon="19.70968">
        <ele>59.430289</ele>
        <time>2022-05-14T12:12:02.075Z</time>
      </trkpt>
      <trkpt lat="41.68294" lon="19.70958">
        <ele>59.398824</ele>
        <time>2022-05-14T12:12:04.103Z</time>
      </trkpt>
      <trkpt lat="41.68301" lon="19.70947">
        <ele>59.368607</ele>
        <time>2022-05-14T12:12:06.088Z</time>
      </trkpt>
      <trkpt lat="41.68308" lon="19.70938">
        <ele>59.339301</ele>
        <time>2022-05-14T12:12:08.086Z</time>
      </trkpt>
      <trkpt lat="41.68315" lon="19.70929">
        <ele>59.31122</ele>
        <time>2022-05-14T12:12:10.097Z</time>
      </trkpt>
      <trkpt lat="41.68322" lon="19.70919">
        <ele>59.282577</ele>
        <time>2022-05-14T12:12:12.078Z</time>
      </trkpt>
      <trkpt lat="41.68328" lon="19.70909">
        <ele>59.253686</ele>
        <time>2022-05-14T12:12:14.085Z</time>
      </trkpt>
      <trkpt lat="41.68336" lon="19.70901">
        <ele>59.224567</ele>
        <time>2022-05-14T12:12:16.095Z</time>
      </trkpt>
      <trkpt lat="41.68344" lon="19.70893">
        <ele>59.195813</ele>
        <time>2022-05-14T12:12:18.099Z</time>
      </trkpt>
      <trkpt lat="41.68352" lon="19.70884">
        <ele>59.167355</ele>
        <time>2022-05-14T12:12:20.081Z</time>
      </trkpt>
      <trkpt lat="41.68358" lon="19.70876">
        <ele>59.129819</ele>
        <time>2022-05-14T12:12:22.062Z</time>
      </trkpt>
      <trkpt lat="41.68364" lon="19.70866">
        <ele>58.993703</ele>
        <time>2022-05-14T12:12:24.087Z</time>
      </trkpt>
      <trkpt lat="41.68373" lon="19.70854">
        <ele>58.802467</ele>
        <time>2022-05-14T12:12:27.111Z</time>
      </trkpt>
      <trkpt lat="41.68382" lon="19.70844">
        <ele>58.628296</ele>
        <time>2022-05-14T12:12:30.083Z</time>
      </trkpt>
      <trkpt lat="41.6839" lon="19.70834">
        <ele>58.460377</ele>
        <time>2022-05-14T12:12:33.061Z</time>
      </trkpt>
      <trkpt lat="41.68398" lon="19.70824">
        <ele>58.289003</ele>
        <time>2022-05-14T12:12:36.093Z</time>
      </trkpt>
      <trkpt lat="41.68407" lon="19.70813">
        <ele>58.113502</ele>
        <time>2022-05-14T12:12:39.068Z</time>
      </trkpt>
      <trkpt lat="41.68416" lon="19.70802">
        <ele>57.932298</ele>
        <time>2022-05-14T12:12:42.084Z</time>
      </trkpt>
      <trkpt lat="41.68423" lon="19.70793">
        <ele>57.787365</ele>
        <time>2022-05-14T12:12:46.094Z</time>
      </trkpt>
      <trkpt lat="41.6843" lon="19.70784">
        <ele>57.646925</ele>
        <time>2022-05-14T12:12:51.088Z</time>
      </trkpt>
      <trkpt lat="41.68437" lon="19.70773">
        <ele>57.480083</ele>
        <time>2022-05-14T12:12:55.106Z</time>
      </trkpt>
      <trkpt lat="41.68444" lon="19.70764">
        <ele>57.333598</ele>
        <time>2022-05-14T12:12:58.081Z</time>
      </trkpt>
      <trkpt lat="41.6845" lon="19.70753">
        <ele>57.177997</ele>
        <time>2022-05-14T12:13:01.094Z</time>
      </trkpt>
      <trkpt lat="41.68459" lon="19.70744">
        <ele>57.007661</ele>
        <time>2022-05-14T12:13:04.090Z</time>
      </trkpt>
      <trkpt lat="41.68466" lon="19.70732">
        <ele>56.834884</ele>
        <time>2022-05-14T12:13:07.096Z</time>
      </trkpt>
      <trkpt lat="41.68476" lon="19.70722">
        <ele>56.659547</ele>
        <time>2022-05-14T12:13:10.074Z</time>
      </trkpt>
      <trkpt lat="41.68484" lon="19.70713">
        <ele>56.501941</ele>
        <time>2022-05-14T12:13:14.096Z</time>
      </trkpt>
      <trkpt lat="41.68491" lon="19.70704">
        <ele>56.504628</ele>
        <time>2022-05-14T12:13:19.072Z</time>
      </trkpt>
      <trkpt lat="41.68499" lon="19.70692">
        <ele>56.629395</ele>
        <time>2022-05-14T12:13:23.082Z</time>
      </trkpt>
      <trkpt lat="41.68506" lon="19.70683">
        <ele>56.735543</ele>
        <time>2022-05-14T12:13:26.080Z</time>
      </trkpt>
      <trkpt lat="41.68514" lon="19.70674">
        <ele>56.846501</ele>
        <time>2022-05-14T12:13:29.095Z</time>
      </trkpt>
      <trkpt lat="41.68522" lon="19.70664">
        <ele>56.961078</ele>
        <time>2022-05-14T12:13:32.095Z</time>
      </trkpt>
      <trkpt lat="41.68531" lon="19.70654">
        <ele>57.078907</ele>
        <time>2022-05-14T12:13:35.076Z</time>
      </trkpt>
      <trkpt lat="41.68538" lon="19.70643">
        <ele>57.192743</ele>
        <time>2022-05-14T12:13:38.095Z</time>
      </trkpt>
      <trkpt lat="41.68547" lon="19.70633">
        <ele>57.311601</ele>
        <time>2022-05-14T12:13:41.083Z</time>
      </trkpt>
      <trkpt lat="41.68554" lon="19.70623">
        <ele>57.425436</ele>
        <time>2022-05-14T12:13:44.070Z</time>
      </trkpt>
      <trkpt lat="41.68562" lon="19.70613">
        <ele>57.534922</ele>
        <time>2022-05-14T12:13:48.083Z</time>
      </trkpt>
      <trkpt lat="41.6857" lon="19.70603">
        <ele>57.649878</ele>
        <time>2022-05-14T12:13:52.073Z</time>
      </trkpt>
      <trkpt lat="41.68577" lon="19.70595">
        <ele>57.748047</ele>
        <time>2022-05-14T12:13:56.112Z</time>
      </trkpt>
      <trkpt lat="41.68585" lon="19.70584">
        <ele>57.868689</ele>
        <time>2022-05-14T12:14:01.082Z</time>
      </trkpt>
      <trkpt lat="41.68593" lon="19.70572">
        <ele>57.99362</ele>
        <time>2022-05-14T12:14:05.097Z</time>
      </trkpt>
      <trkpt lat="41.68601" lon="19.70564">
        <ele>58.099499</ele>
        <time>2022-05-14T12:14:08.084Z</time>
      </trkpt>
      <trkpt lat="41.68609" lon="19.70554">
        <ele>58.208775</ele>
        <time>2022-05-14T12:14:11.104Z</time>
      </trkpt>
      <trkpt lat="41.68615" lon="19.70544">
        <ele>58.314879</ele>
        <time>2022-05-14T12:14:14.093Z</time>
      </trkpt>
      <trkpt lat="41.68623" lon="19.70533">
        <ele>58.492828</ele>
        <time>2022-05-14T12:14:17.098Z</time>
      </trkpt>
      <trkpt lat="41.68631" lon="19.70524">
        <ele>58.678273</ele>
        <time>2022-05-14T12:14:20.089Z</time>
      </trkpt>
      <trkpt lat="41.68639" lon="19.70514">
        <ele>58.869606</ele>
        <time>2022-05-14T12:14:23.095Z</time>
      </trkpt>
      <trkpt lat="41.68646" lon="19.70503">
        <ele>59.053874</ele>
        <time>2022-05-14T12:14:26.081Z</time>
      </trkpt>
      <trkpt lat="41.68654" lon="19.70494">
        <ele>59.220795</ele>
        <time>2022-05-14T12:14:31.087Z</time>
      </trkpt>
      <trkpt lat="41.68662" lon="19.70483">
        <ele>59.409638</ele>
        <time>2022-05-14T12:14:36.104Z</time>
      </trkpt>
      <trkpt lat="41.6867" lon="19.70473">
        <ele>59.598125</ele>
        <time>2022-05-14T12:14:40.114Z</time>
      </trkpt>
      <trkpt lat="41.68677" lon="19.70463">
        <ele>59.778056</ele>
        <time>2022-05-14T12:14:44.078Z</time>
      </trkpt>
      <trkpt lat="41.68684" lon="19.70455">
        <ele>59.933938</ele>
        <time>2022-05-14T12:14:47.079Z</time>
      </trkpt>
      <trkpt lat="41.68691" lon="19.70446">
        <ele>60.088828</ele>
        <time>2022-05-14T12:14:50.074Z</time>
      </trkpt>
      <trkpt lat="41.68697" lon="19.70438">
        <ele>60.242531</ele>
        <time>2022-05-14T12:14:53.062Z</time>
      </trkpt>
      <trkpt lat="41.68705" lon="19.70426">
        <ele>60.445956</ele>
        <time>2022-05-14T12:14:57.101Z</time>
      </trkpt>
      <trkpt lat="41.68712" lon="19.70418">
        <ele>60.601838</ele>
        <time>2022-05-14T12:15:00.095Z</time>
      </trkpt>
      <trkpt lat="41.6872" lon="19.70407">
        <ele>60.794531</ele>
        <time>2022-05-14T12:15:05.084Z</time>
      </trkpt>
      <trkpt lat="41.68728" lon="19.70397">
        <ele>60.98367</ele>
        <time>2022-05-14T12:15:09.104Z</time>
      </trkpt>
      <trkpt lat="41.68735" lon="19.70388">
        <ele>61.144848</ele>
        <time>2022-05-14T12:15:12.093Z</time>
      </trkpt>
      <trkpt lat="41.68742" lon="19.70378">
        <ele>61.317734</ele>
        <time>2022-05-14T12:15:15.072Z</time>
      </trkpt>
      <trkpt lat="41.68749" lon="19.70368">
        <ele>61.302183</ele>
        <time>2022-05-14T12:15:18.111Z</time>
      </trkpt>
      <trkpt lat="41.68756" lon="19.70359">
        <ele>61.185326</ele>
        <time>2022-05-14T12:15:21.076Z</time>
      </trkpt>
      <trkpt lat="41.68763" lon="19.70349">
        <ele>61.065581</ele>
        <time>2022-05-14T12:15:24.086Z</time>
      </trkpt>
      <trkpt lat="41.6877" lon="19.7034">
        <ele>60.954277</ele>
        <time>2022-05-14T12:15:27.099Z</time>
      </trkpt>
      <trkpt lat="41.68777" lon="19.70331">
        <ele>60.83863</ele>
        <time>2022-05-14T12:15:30.103Z</time>
      </trkpt>
      <trkpt lat="41.68785" lon="19.70322">
        <ele>60.719116</ele>
        <time>2022-05-14T12:15:33.094Z</time>
      </trkpt>
      <trkpt lat="41.68792" lon="19.70312">
        <ele>60.595873</ele>
        <time>2022-05-14T12:15:36.064Z</time>
      </trkpt>
      <trkpt lat="41.68799" lon="19.70302">
        <ele>60.475953</ele>
        <time>2022-05-14T12:15:39.084Z</time>
      </trkpt>
      <trkpt lat="41.68806" lon="19.70292">
        <ele>60.360696</ele>
        <time>2022-05-14T12:15:42.082Z</time>
      </trkpt>
      <trkpt lat="41.68814" lon="19.70283">
        <ele>60.23725</ele>
        <time>2022-05-14T12:15:45.080Z</time>
      </trkpt>
      <trkpt lat="41.68821" lon="19.70273">
        <ele>60.114641</ele>
        <time>2022-05-14T12:15:48.087Z</time>
      </trkpt>
      <trkpt lat="41.6883" lon="19.70264">
        <ele>59.99152</ele>
        <time>2022-05-14T12:15:51.078Z</time>
      </trkpt>
      <trkpt lat="41.68836" lon="19.70255">
        <ele>59.877986</ele>
        <time>2022-05-14T12:15:54.083Z</time>
      </trkpt>
      <trkpt lat="41.68843" lon="19.70245">
        <ele>59.755857</ele>
        <time>2022-05-14T12:15:57.094Z</time>
      </trkpt>
      <trkpt lat="41.68851" lon="19.70234">
        <ele>59.628789</ele>
        <time>2022-05-14T12:16:00.082Z</time>
      </trkpt>
      <trkpt lat="41.68859" lon="19.70224">
        <ele>59.501207</ele>
        <time>2022-05-14T12:16:03.098Z</time>
      </trkpt>
      <trkpt lat="41.68866" lon="19.70215">
        <ele>59.384708</ele>
        <time>2022-05-14T12:16:07.072Z</time>
      </trkpt>
      <trkpt lat="41.68873" lon="19.70205">
        <ele>59.268145</ele>
        <time>2022-05-14T12:16:11.094Z</time>
      </trkpt>
      <trkpt lat="41.68881" lon="19.70196">
        <ele>59.183534</ele>
        <time>2022-05-14T12:16:14.092Z</time>
      </trkpt>
      <trkpt lat="41.68888" lon="19.70187">
        <ele>59.096255</ele>
        <time>2022-05-14T12:16:17.101Z</time>
      </trkpt>
      <trkpt lat="41.68896" lon="19.70177">
        <ele>59.006432</ele>
        <time>2022-05-14T12:16:20.087Z</time>
      </trkpt>
      <trkpt lat="41.68904" lon="19.70167">
        <ele>58.915934</ele>
        <time>2022-05-14T12:16:23.094Z</time>
      </trkpt>
      <trkpt lat="41.68911" lon="19.70157">
        <ele>58.824717</ele>
        <time>2022-05-14T12:16:26.091Z</time>
      </trkpt>
      <trkpt lat="41.68919" lon="19.70147">
        <ele>58.733947</ele>
        <time>2022-05-14T12:16:29.069Z</time>
      </trkpt>
      <trkpt lat="41.68927" lon="19.70137">
        <ele>58.640624</ele>
        <time>2022-05-14T12:16:32.084Z</time>
      </trkpt>
      <trkpt lat="41.68934" lon="19.70126">
        <ele>58.547845</ele>
        <time>2022-05-14T12:16:35.093Z</time>
      </trkpt>
      <trkpt lat="41.68942" lon="19.70116">
        <ele>58.45075</ele>
        <time>2022-05-14T12:16:38.067Z</time>
      </trkpt>
      <trkpt lat="41.68951" lon="19.70105">
        <ele>58.348182</ele>
        <time>2022-05-14T12:16:41.093Z</time>
      </trkpt>
      <trkpt lat="41.6896" lon="19.70094">
        <ele>58.243514</ele>
        <time>2022-05-14T12:16:44.090Z</time>
      </trkpt>
      <trkpt lat="41.68969" lon="19.70083">
        <ele>58.139469</ele>
        <time>2022-05-14T12:16:47.085Z</time>
      </trkpt>
      <trkpt lat="41.68979" lon="19.70071">
        <ele>58.030139</ele>
        <time>2022-05-14T12:16:50.091Z</time>
      </trkpt>
      <trkpt lat="41.68988" lon="19.70059">
        <ele>57.916771</ele>
        <time>2022-05-14T12:16:53.094Z</time>
      </trkpt>
      <trkpt lat="41.68998" lon="19.70047">
        <ele>57.804968</ele>
        <time>2022-05-14T12:16:56.102Z</time>
      </trkpt>
      <trkpt lat="41.69007" lon="19.70034">
        <ele>57.728232</ele>
        <time>2022-05-14T12:16:59.104Z</time>
      </trkpt>
      <trkpt lat="41.69016" lon="19.70023">
        <ele>57.693336</ele>
        <time>2022-05-14T12:17:02.078Z</time>
      </trkpt>
      <trkpt lat="41.69025" lon="19.70012">
        <ele>57.658386</ele>
        <time>2022-05-14T12:17:05.100Z</time>
      </trkpt>
      <trkpt lat="41.69034" lon="19.70001">
        <ele>57.623549</ele>
        <time>2022-05-14T12:17:08.078Z</time>
      </trkpt>
      <trkpt lat="41.69042" lon="19.6999">
        <ele>57.589273</ele>
        <time>2022-05-14T12:17:11.092Z</time>
      </trkpt>
      <trkpt lat="41.69051" lon="19.69978">
        <ele>57.553681</ele>
        <time>2022-05-14T12:17:14.101Z</time>
      </trkpt>
      <trkpt lat="41.6906" lon="19.69966">
        <ele>57.518038</ele>
        <time>2022-05-14T12:17:17.092Z</time>
      </trkpt>
      <trkpt lat="41.69069" lon="19.69955">
        <ele>57.480515</ele>
        <time>2022-05-14T12:17:20.079Z</time>
      </trkpt>
      <trkpt lat="41.69079" lon="19.69942">
        <ele>57.442028</ele>
        <time>2022-05-14T12:17:23.079Z</time>
      </trkpt>
      <trkpt lat="41.69085" lon="19.69933">
        <ele>57.416064</ele>
        <time>2022-05-14T12:17:25.068Z</time>
      </trkpt>
      <trkpt lat="41.69092" lon="19.69924">
        <ele>57.388681</ele>
        <time>2022-05-14T12:17:27.071Z</time>
      </trkpt>
      <trkpt lat="41.69099" lon="19.69916">
        <ele>57.361093</ele>
        <time>2022-05-14T12:17:29.093Z</time>
      </trkpt>
      <trkpt lat="41.69106" lon="19.69908">
        <ele>57.334791</ele>
        <time>2022-05-14T12:17:31.085Z</time>
      </trkpt>
      <trkpt lat="41.69112" lon="19.69899">
        <ele>57.308223</ele>
        <time>2022-05-14T12:17:33.075Z</time>
      </trkpt>
      <trkpt lat="41.69119" lon="19.6989">
        <ele>57.280946</ele>
        <time>2022-05-14T12:17:35.122Z</time>
      </trkpt>
      <trkpt lat="41.69125" lon="19.69881">
        <ele>57.254477</ele>
        <time>2022-05-14T12:17:37.066Z</time>
      </trkpt>
      <trkpt lat="41.69132" lon="19.69872">
        <ele>57.226843</ele>
        <time>2022-05-14T12:17:39.071Z</time>
      </trkpt>
      <trkpt lat="41.69139" lon="19.69863">
        <ele>57.088946</ele>
        <time>2022-05-14T12:17:41.110Z</time>
      </trkpt>
      <trkpt lat="41.69146" lon="19.69854">
        <ele>56.959862</ele>
        <time>2022-05-14T12:17:43.080Z</time>
      </trkpt>
      <trkpt lat="41.69153" lon="19.69845">
        <ele>56.826217</ele>
        <time>2022-05-14T12:17:45.074Z</time>
      </trkpt>
      <trkpt lat="41.6916" lon="19.69837">
        <ele>56.697534</ele>
        <time>2022-05-14T12:17:47.059Z</time>
      </trkpt>
      <trkpt lat="41.69167" lon="19.69828">
        <ele>56.566451</ele>
        <time>2022-05-14T12:17:49.067Z</time>
      </trkpt>
      <trkpt lat="41.69174" lon="19.69819">
        <ele>56.431558</ele>
        <time>2022-05-14T12:17:51.105Z</time>
      </trkpt>
      <trkpt lat="41.69181" lon="19.6981">
        <ele>56.299073</ele>
        <time>2022-05-14T12:17:53.095Z</time>
      </trkpt>
      <trkpt lat="41.69188" lon="19.69801">
        <ele>56.16288</ele>
        <time>2022-05-14T12:17:55.066Z</time>
      </trkpt>
      <trkpt lat="41.69195" lon="19.69792">
        <ele>56.028751</ele>
        <time>2022-05-14T12:17:57.076Z</time>
      </trkpt>
      <trkpt lat="41.69203" lon="19.69783">
        <ele>55.895267</ele>
        <time>2022-05-14T12:17:59.071Z</time>
      </trkpt>
      <trkpt lat="41.6921" lon="19.69775">
        <ele>55.761138</ele>
        <time>2022-05-14T12:18:01.064Z</time>
      </trkpt>
      <trkpt lat="41.69217" lon="19.69766">
        <ele>55.628932</ele>
        <time>2022-05-14T12:18:03.096Z</time>
      </trkpt>
      <trkpt lat="41.69224" lon="19.69756">
        <ele>55.493328</ele>
        <time>2022-05-14T12:18:05.078Z</time>
      </trkpt>
      <trkpt lat="41.69231" lon="19.69747">
        <ele>55.357441</ele>
        <time>2022-05-14T12:18:07.059Z</time>
      </trkpt>
      <trkpt lat="41.69238" lon="19.69738">
        <ele>55.223645</ele>
        <time>2022-05-14T12:18:09.092Z</time>
      </trkpt>
      <trkpt lat="41.69245" lon="19.6973">
        <ele>55.09597</ele>
        <time>2022-05-14T12:18:11.085Z</time>
      </trkpt>
      <trkpt lat="41.69252" lon="19.69721">
        <ele>54.964744</ele>
        <time>2022-05-14T12:18:13.063Z</time>
      </trkpt>
      <trkpt lat="41.69259" lon="19.69712">
        <ele>54.835215</ele>
        <time>2022-05-14T12:18:15.090Z</time>
      </trkpt>
      <trkpt lat="41.69268" lon="19.697">
        <ele>54.73757</ele>
        <time>2022-05-14T12:18:18.079Z</time>
      </trkpt>
      <trkpt lat="41.69278" lon="19.69688">
        <ele>54.700877</ele>
        <time>2022-05-14T12:18:21.099Z</time>
      </trkpt>
      <trkpt lat="41.69285" lon="19.69681">
        <ele>54.675514</ele>
        <time>2022-05-14T12:18:23.076Z</time>
      </trkpt>
      <trkpt lat="41.69296" lon="19.6967">
        <ele>54.637901</ele>
        <time>2022-05-14T12:18:26.089Z</time>
      </trkpt>
      <trkpt lat="41.69304" lon="19.69663">
        <ele>54.612075</ele>
        <time>2022-05-14T12:18:28.066Z</time>
      </trkpt>
      <trkpt lat="41.69315" lon="19.69654">
        <ele>54.574749</ele>
        <time>2022-05-14T12:18:31.095Z</time>
      </trkpt>
      <trkpt lat="41.69327" lon="19.69645">
        <ele>54.537109</ele>
        <time>2022-05-14T12:18:34.079Z</time>
      </trkpt>
      <trkpt lat="41.69335" lon="19.69639">
        <ele>54.511819</ele>
        <time>2022-05-14T12:18:36.092Z</time>
      </trkpt>
      <trkpt lat="41.69342" lon="19.69633">
        <ele>54.486391</ele>
        <time>2022-05-14T12:18:38.086Z</time>
      </trkpt>
      <trkpt lat="41.6935" lon="19.69626">
        <ele>54.460559</ele>
        <time>2022-05-14T12:18:40.078Z</time>
      </trkpt>
      <trkpt lat="41.69361" lon="19.69618">
        <ele>54.425244</ele>
        <time>2022-05-14T12:18:43.074Z</time>
      </trkpt>
      <trkpt lat="41.69371" lon="19.69608">
        <ele>54.390346</ele>
        <time>2022-05-14T12:18:46.131Z</time>
      </trkpt>
      <trkpt lat="41.69382" lon="19.69599">
        <ele>54.353699</ele>
        <time>2022-05-14T12:18:49.072Z</time>
      </trkpt>
      <trkpt lat="41.6939" lon="19.69593">
        <ele>54.328326</ele>
        <time>2022-05-14T12:18:51.091Z</time>
      </trkpt>
      <trkpt lat="41.69399" lon="19.69585">
        <ele>54.299819</ele>
        <time>2022-05-14T12:18:53.084Z</time>
      </trkpt>
      <trkpt lat="41.69408" lon="19.69578">
        <ele>54.269949</ele>
        <time>2022-05-14T12:18:55.082Z</time>
      </trkpt>
      <trkpt lat="41.69417" lon="19.69571">
        <ele>54.113484</ele>
        <time>2022-05-14T12:18:57.122Z</time>
      </trkpt>
      <trkpt lat="41.69427" lon="19.69565">
        <ele>53.82912</ele>
        <time>2022-05-14T12:18:59.091Z</time>
      </trkpt>
      <trkpt lat="41.69437" lon="19.69559">
        <ele>53.541202</ele>
        <time>2022-05-14T12:19:01.092Z</time>
      </trkpt>
      <trkpt lat="41.69446" lon="19.69554">
        <ele>53.266051</ele>
        <time>2022-05-14T12:19:03.107Z</time>
      </trkpt>
      <trkpt lat="41.69456" lon="19.69548">
        <ele>52.987827</ele>
        <time>2022-05-14T12:19:05.091Z</time>
      </trkpt>
      <trkpt lat="41.69466" lon="19.69542">
        <ele>52.680367</ele>
        <time>2022-05-14T12:19:07.087Z</time>
      </trkpt>
      <trkpt lat="41.69477" lon="19.69536">
        <ele>52.379499</ele>
        <time>2022-05-14T12:19:09.086Z</time>
      </trkpt>
      <trkpt lat="41.69487" lon="19.69529">
        <ele>52.064589</ele>
        <time>2022-05-14T12:19:11.092Z</time>
      </trkpt>
      <trkpt lat="41.69497" lon="19.69522">
        <ele>51.766198</ele>
        <time>2022-05-14T12:19:13.081Z</time>
      </trkpt>
      <trkpt lat="41.69507" lon="19.69516">
        <ele>51.479056</ele>
        <time>2022-05-14T12:19:15.134Z</time>
      </trkpt>
      <trkpt lat="41.69517" lon="19.6951">
        <ele>51.200034</ele>
        <time>2022-05-14T12:19:17.092Z</time>
      </trkpt>
      <trkpt lat="41.69526" lon="19.69505">
        <ele>50.92315</ele>
        <time>2022-05-14T12:19:19.110Z</time>
      </trkpt>
      <trkpt lat="41.69535" lon="19.69498">
        <ele>50.651459</ele>
        <time>2022-05-14T12:19:21.095Z</time>
      </trkpt>
      <trkpt lat="41.69544" lon="19.69493">
        <ele>50.407783</ele>
        <time>2022-05-14T12:19:23.077Z</time>
      </trkpt>
      <trkpt lat="41.69552" lon="19.69488">
        <ele>50.167556</ele>
        <time>2022-05-14T12:19:25.073Z</time>
      </trkpt>
      <trkpt lat="41.69563" lon="19.69481">
        <ele>49.833447</ele>
        <time>2022-05-14T12:19:28.096Z</time>
      </trkpt>
      <trkpt lat="41.69575" lon="19.69475">
        <ele>49.501011</ele>
        <time>2022-05-14T12:19:31.090Z</time>
      </trkpt>
      <trkpt lat="41.69586" lon="19.69469">
        <ele>49.760671</ele>
        <time>2022-05-14T12:19:34.082Z</time>
      </trkpt>
      <trkpt lat="41.69597" lon="19.69463">
        <ele>50.051972</ele>
        <time>2022-05-14T12:19:37.104Z</time>
      </trkpt>
      <trkpt lat="41.69607" lon="19.69458">
        <ele>50.328387</ele>
        <time>2022-05-14T12:19:40.099Z</time>
      </trkpt>
      <trkpt lat="41.69617" lon="19.69453">
        <ele>50.620384</ele>
        <time>2022-05-14T12:19:43.080Z</time>
      </trkpt>
      <trkpt lat="41.69629" lon="19.69448">
        <ele>50.933951</ele>
        <time>2022-05-14T12:19:46.097Z</time>
      </trkpt>
      <trkpt lat="41.6964" lon="19.69443">
        <ele>51.23771</ele>
        <time>2022-05-14T12:19:49.092Z</time>
      </trkpt>
      <trkpt lat="41.69651" lon="19.69437">
        <ele>51.529011</ele>
        <time>2022-05-14T12:19:52.074Z</time>
      </trkpt>
      <trkpt lat="41.69661" lon="19.69433">
        <ele>51.807365</ele>
        <time>2022-05-14T12:19:55.083Z</time>
      </trkpt>
      <trkpt lat="41.69671" lon="19.69429">
        <ele>52.059482</ele>
        <time>2022-05-14T12:19:58.096Z</time>
      </trkpt>
      <trkpt lat="41.6968" lon="19.69424">
        <ele>52.317274</ele>
        <time>2022-05-14T12:20:01.071Z</time>
      </trkpt>
      <trkpt lat="41.69691" lon="19.69418">
        <ele>52.609979</ele>
        <time>2022-05-14T12:20:04.131Z</time>
      </trkpt>
      <trkpt lat="41.69701" lon="19.69413">
        <ele>52.90914</ele>
        <time>2022-05-14T12:20:07.109Z</time>
      </trkpt>
      <trkpt lat="41.69713" lon="19.69407">
        <ele>53.214174</ele>
        <time>2022-05-14T12:20:10.079Z</time>
      </trkpt>
      <trkpt lat="41.69724" lon="19.69401">
        <ele>53.52667</ele>
        <time>2022-05-14T12:20:13.077Z</time>
      </trkpt>
      <trkpt lat="41.69736" lon="19.69397">
        <ele>53.838357</ele>
        <time>2022-05-14T12:20:16.078Z</time>
      </trkpt>
      <trkpt lat="41.69747" lon="19.6939">
        <ele>54.063065</ele>
        <time>2022-05-14T12:20:19.063Z</time>
      </trkpt>
      <trkpt lat="41.6976" lon="19.69384">
        <ele>53.966969</ele>
        <time>2022-05-14T12:20:22.083Z</time>
      </trkpt>
      <trkpt lat="41.69772" lon="19.69379">
        <ele>53.872804</ele>
        <time>2022-05-14T12:20:25.103Z</time>
      </trkpt>
      <trkpt lat="41.69783" lon="19.69373">
        <ele>53.781936</ele>
        <time>2022-05-14T12:20:28.084Z</time>
      </trkpt>
      <trkpt lat="41.69796" lon="19.69368">
        <ele>53.687412</ele>
        <time>2022-05-14T12:20:31.084Z</time>
      </trkpt>
      <trkpt lat="41.69804" lon="19.69364">
        <ele>53.620777</ele>
        <time>2022-05-14T12:20:33.077Z</time>
      </trkpt>
      <trkpt lat="41.69817" lon="19.69359">
        <ele>53.522944</ele>
        <time>2022-05-14T12:20:36.085Z</time>
      </trkpt>
      <trkpt lat="41.69829" lon="19.69354">
        <ele>53.427353</ele>
        <time>2022-05-14T12:20:39.095Z</time>
      </trkpt>
      <trkpt lat="41.69842" lon="19.69348">
        <ele>53.331072</ele>
        <time>2022-05-14T12:20:42.095Z</time>
      </trkpt>
      <trkpt lat="41.69854" lon="19.69342">
        <ele>53.236364</ele>
        <time>2022-05-14T12:20:45.083Z</time>
      </trkpt>
      <trkpt lat="41.69865" lon="19.69336">
        <ele>53.143639</ele>
        <time>2022-05-14T12:20:48.076Z</time>
      </trkpt>
      <trkpt lat="41.69877" lon="19.69329">
        <ele>53.049189</ele>
        <time>2022-05-14T12:20:51.075Z</time>
      </trkpt>
      <trkpt lat="41.69889" lon="19.69321">
        <ele>52.952217</ele>
        <time>2022-05-14T12:20:54.094Z</time>
      </trkpt>
      <trkpt lat="41.699" lon="19.69314">
        <ele>52.860474</ele>
        <time>2022-05-14T12:20:57.085Z</time>
      </trkpt>
      <trkpt lat="41.69911" lon="19.69307">
        <ele>52.769511</ele>
        <time>2022-05-14T12:21:00.107Z</time>
      </trkpt>
      <trkpt lat="41.69924" lon="19.69299">
        <ele>53.121081</ele>
        <time>2022-05-14T12:21:03.080Z</time>
      </trkpt>
      <trkpt lat="41.69933" lon="19.69294">
        <ele>53.419614</ele>
        <time>2022-05-14T12:21:05.126Z</time>
      </trkpt>
      <trkpt lat="41.69942" lon="19.69289">
        <ele>53.713872</ele>
        <time>2022-05-14T12:21:07.076Z</time>
      </trkpt>
      <trkpt lat="41.69952" lon="19.69283">
        <ele>54.024214</ele>
        <time>2022-05-14T12:21:09.074Z</time>
      </trkpt>
      <trkpt lat="41.69962" lon="19.69278">
        <ele>54.325635</ele>
        <time>2022-05-14T12:21:11.095Z</time>
      </trkpt>
      <trkpt lat="41.69971" lon="19.69273">
        <ele>54.628909</ele>
        <time>2022-05-14T12:21:13.101Z</time>
      </trkpt>
      <trkpt lat="41.69981" lon="19.69267">
        <ele>54.931189</ele>
        <time>2022-05-14T12:21:15.096Z</time>
      </trkpt>
      <trkpt lat="41.6999" lon="19.69261">
        <ele>55.238784</ele>
        <time>2022-05-14T12:21:17.142Z</time>
      </trkpt>
      <trkpt lat="41.7" lon="19.69256">
        <ele>55.556204</ele>
        <time>2022-05-14T12:21:19.061Z</time>
      </trkpt>
      <trkpt lat="41.7001" lon="19.6925">
        <ele>55.873579</ele>
        <time>2022-05-14T12:21:21.063Z</time>
      </trkpt>
      <trkpt lat="41.7002" lon="19.69244">
        <ele>56.17769</ele>
        <time>2022-05-14T12:21:23.121Z</time>
      </trkpt>
      <trkpt lat="41.70029" lon="19.69238">
        <ele>56.483722</ele>
        <time>2022-05-14T12:21:25.074Z</time>
      </trkpt>
      <trkpt lat="41.70039" lon="19.69232">
        <ele>56.793098</ele>
        <time>2022-05-14T12:21:27.077Z</time>
      </trkpt>
      <trkpt lat="41.70049" lon="19.69227">
        <ele>57.094519</ele>
        <time>2022-05-14T12:21:29.065Z</time>
      </trkpt>
      <trkpt lat="41.70058" lon="19.6922">
        <ele>57.394205</ele>
        <time>2022-05-14T12:21:31.086Z</time>
      </trkpt>
      <trkpt lat="41.70066" lon="19.69214">
        <ele>57.689244</ele>
        <time>2022-05-14T12:21:33.080Z</time>
      </trkpt>
      <trkpt lat="41.70075" lon="19.69207">
        <ele>57.992924</ele>
        <time>2022-05-14T12:21:35.123Z</time>
      </trkpt>
      <trkpt lat="41.70084" lon="19.69199">
        <ele>58.196141</ele>
        <time>2022-05-14T12:21:37.097Z</time>
      </trkpt>
      <trkpt lat="41.70094" lon="19.69192">
        <ele>58.396791</ele>
        <time>2022-05-14T12:21:39.075Z</time>
      </trkpt>
      <trkpt lat="41.70103" lon="19.69184">
        <ele>58.597023</ele>
        <time>2022-05-14T12:21:41.107Z</time>
      </trkpt>
      <trkpt lat="41.70112" lon="19.69175">
        <ele>58.805693</ele>
        <time>2022-05-14T12:21:43.086Z</time>
      </trkpt>
      <trkpt lat="41.70121" lon="19.69167">
        <ele>59.015902</ele>
        <time>2022-05-14T12:21:45.077Z</time>
      </trkpt>
      <trkpt lat="41.70131" lon="19.69159">
        <ele>59.21921</ele>
        <time>2022-05-14T12:21:47.074Z</time>
      </trkpt>
      <trkpt lat="41.70139" lon="19.6915">
        <ele>59.415923</ele>
        <time>2022-05-14T12:21:49.098Z</time>
      </trkpt>
      <trkpt lat="41.70147" lon="19.69142">
        <ele>59.605723</ele>
        <time>2022-05-14T12:21:51.088Z</time>
      </trkpt>
      <trkpt lat="41.70155" lon="19.69134">
        <ele>59.776927</ele>
        <time>2022-05-14T12:21:53.100Z</time>
      </trkpt>
      <trkpt lat="41.70163" lon="19.69127">
        <ele>59.954946</ele>
        <time>2022-05-14T12:21:55.091Z</time>
      </trkpt>
      <trkpt lat="41.70172" lon="19.69119">
        <ele>60.155298</ele>
        <time>2022-05-14T12:21:57.077Z</time>
      </trkpt>
      <trkpt lat="41.70181" lon="19.69109">
        <ele>60.373278</ele>
        <time>2022-05-14T12:21:59.087Z</time>
      </trkpt>
      <trkpt lat="41.70191" lon="19.691">
        <ele>60.589759</ele>
        <time>2022-05-14T12:22:01.074Z</time>
      </trkpt>
      <trkpt lat="41.702" lon="19.69091">
        <ele>60.808544</ele>
        <time>2022-05-14T12:22:03.093Z</time>
      </trkpt>
      <trkpt lat="41.7021" lon="19.69081">
        <ele>61.029633</ele>
        <time>2022-05-14T12:22:05.084Z</time>
      </trkpt>
      <trkpt lat="41.70219" lon="19.69072">
        <ele>61.246924</ele>
        <time>2022-05-14T12:22:07.086Z</time>
      </trkpt>
      <trkpt lat="41.70228" lon="19.69063">
        <ele>60.998187</ele>
        <time>2022-05-14T12:22:09.141Z</time>
      </trkpt>
      <trkpt lat="41.70238" lon="19.69054">
        <ele>60.435499</ele>
        <time>2022-05-14T12:22:11.093Z</time>
      </trkpt>
      <trkpt lat="41.70247" lon="19.69045">
        <ele>59.865701</ele>
        <time>2022-05-14T12:22:13.100Z</time>
      </trkpt>
      <trkpt lat="41.70256" lon="19.69036">
        <ele>59.298614</ele>
        <time>2022-05-14T12:22:15.072Z</time>
      </trkpt>
      <trkpt lat="41.70265" lon="19.69027">
        <ele>58.733735</ele>
        <time>2022-05-14T12:22:17.073Z</time>
      </trkpt>
      <trkpt lat="41.70274" lon="19.69018">
        <ele>58.17249</ele>
        <time>2022-05-14T12:22:19.088Z</time>
      </trkpt>
      <trkpt lat="41.70283" lon="19.69009">
        <ele>57.605699</ele>
        <time>2022-05-14T12:22:21.082Z</time>
      </trkpt>
      <trkpt lat="41.70292" lon="19.69001">
        <ele>57.063735</ele>
        <time>2022-05-14T12:22:23.088Z</time>
      </trkpt>
      <trkpt lat="41.70299" lon="19.68993">
        <ele>56.580495</ele>
        <time>2022-05-14T12:22:25.092Z</time>
      </trkpt>
      <trkpt lat="41.70308" lon="19.68985">
        <ele>56.059192</ele>
        <time>2022-05-14T12:22:27.092Z</time>
      </trkpt>
      <trkpt lat="41.70316" lon="19.68976">
        <ele>55.506485</ele>
        <time>2022-05-14T12:22:29.075Z</time>
      </trkpt>
      <trkpt lat="41.70325" lon="19.68967">
        <ele>54.957216</ele>
        <time>2022-05-14T12:22:31.077Z</time>
      </trkpt>
      <trkpt lat="41.70333" lon="19.68958">
        <ele>54.424094</ele>
        <time>2022-05-14T12:22:33.056Z</time>
      </trkpt>
      <trkpt lat="41.70342" lon="19.68949">
        <ele>53.878057</ele>
        <time>2022-05-14T12:22:35.070Z</time>
      </trkpt>
      <trkpt lat="41.70351" lon="19.68942">
        <ele>53.352824</ele>
        <time>2022-05-14T12:22:37.115Z</time>
      </trkpt>
      <trkpt lat="41.7036" lon="19.68936">
        <ele>52.846199</ele>
        <time>2022-05-14T12:22:39.118Z</time>
      </trkpt>
      <trkpt lat="41.70368" lon="19.68931">
        <ele>52.365112</ele>
        <time>2022-05-14T12:22:41.083Z</time>
      </trkpt>
      <trkpt lat="41.70378" lon="19.68926">
        <ele>52.262563</ele>
        <time>2022-05-14T12:22:43.110Z</time>
      </trkpt>
      <trkpt lat="41.70389" lon="19.68923">
        <ele>52.238315</ele>
        <time>2022-05-14T12:22:45.073Z</time>
      </trkpt>
      <trkpt lat="41.70399" lon="19.6892">
        <ele>52.212746</ele>
        <time>2022-05-14T12:22:47.083Z</time>
      </trkpt>
      <trkpt lat="41.7041" lon="19.68916">
        <ele>52.188626</ele>
        <time>2022-05-14T12:22:49.113Z</time>
      </trkpt>
      <trkpt lat="41.7042" lon="19.68912">
        <ele>52.164409</ele>
        <time>2022-05-14T12:22:51.087Z</time>
      </trkpt>
      <trkpt lat="41.7043" lon="19.68908">
        <ele>52.140383</ele>
        <time>2022-05-14T12:22:53.085Z</time>
      </trkpt>
      <trkpt lat="41.70441" lon="19.68903">
        <ele>52.11421</ele>
        <time>2022-05-14T12:22:55.071Z</time>
      </trkpt>
      <trkpt lat="41.70451" lon="19.68899">
        <ele>52.089993</ele>
        <time>2022-05-14T12:22:57.084Z</time>
      </trkpt>
      <trkpt lat="41.7046" lon="19.68896">
        <ele>52.067118</ele>
        <time>2022-05-14T12:22:59.087Z</time>
      </trkpt>
      <trkpt lat="41.7047" lon="19.68892">
        <ele>52.043578</ele>
        <time>2022-05-14T12:23:01.136Z</time>
      </trkpt>
      <trkpt lat="41.7048" lon="19.68888">
        <ele>52.019285</ele>
        <time>2022-05-14T12:23:03.081Z</time>
      </trkpt>
      <trkpt lat="41.70491" lon="19.68883">
        <ele>51.993322</ele>
        <time>2022-05-14T12:23:05.118Z</time>
      </trkpt>
      <trkpt lat="41.70501" lon="19.68879">
        <ele>51.969074</ele>
        <time>2022-05-14T12:23:07.090Z</time>
      </trkpt>
      <trkpt lat="41.70512" lon="19.68876">
        <ele>51.944326</ele>
        <time>2022-05-14T12:23:09.102Z</time>
      </trkpt>
      <trkpt lat="41.70522" lon="19.68872">
        <ele>51.918835</ele>
        <time>2022-05-14T12:23:11.083Z</time>
      </trkpt>
      <trkpt lat="41.70533" lon="19.68868">
        <ele>51.894187</ele>
        <time>2022-05-14T12:23:13.073Z</time>
      </trkpt>
      <trkpt lat="41.70543" lon="19.68865">
        <ele>51.870335</ele>
        <time>2022-05-14T12:23:15.089Z</time>
      </trkpt>
      <trkpt lat="41.70552" lon="19.68862">
        <ele>51.809407</ele>
        <time>2022-05-14T12:23:17.126Z</time>
      </trkpt>
      <trkpt lat="41.70562" lon="19.68859">
        <ele>51.749771</ele>
        <time>2022-05-14T12:23:19.081Z</time>
      </trkpt>
      <trkpt lat="41.70571" lon="19.68856">
        <ele>51.688192</ele>
        <time>2022-05-14T12:23:21.089Z</time>
      </trkpt>
      <trkpt lat="41.70581" lon="19.68854">
        <ele>51.627135</ele>
        <time>2022-05-14T12:23:23.120Z</time>
      </trkpt>
      <trkpt lat="41.7059" lon="19.68851">
        <ele>51.567921</ele>
        <time>2022-05-14T12:23:25.094Z</time>
      </trkpt>
      <trkpt lat="41.70599" lon="19.68848">
        <ele>51.509321</ele>
        <time>2022-05-14T12:23:27.097Z</time>
      </trkpt>
      <trkpt lat="41.70608" lon="19.68846">
        <ele>51.450617</ele>
        <time>2022-05-14T12:23:29.098Z</time>
      </trkpt>
      <trkpt lat="41.70621" lon="19.68841">
        <ele>51.366924</ele>
        <time>2022-05-14T12:23:32.078Z</time>
      </trkpt>
      <trkpt lat="41.7063" lon="19.68838">
        <ele>51.309337</ele>
        <time>2022-05-14T12:23:34.123Z</time>
      </trkpt>
      <trkpt lat="41.70639" lon="19.68835">
        <ele>51.249334</ele>
        <time>2022-05-14T12:23:36.095Z</time>
      </trkpt>
      <trkpt lat="41.70648" lon="19.68832">
        <ele>51.193217</ele>
        <time>2022-05-14T12:23:38.095Z</time>
      </trkpt>
      <trkpt lat="41.7066" lon="19.68827">
        <ele>51.111934</ele>
        <time>2022-05-14T12:23:41.078Z</time>
      </trkpt>
      <trkpt lat="41.70673" lon="19.68823">
        <ele>51.029689</ele>
        <time>2022-05-14T12:23:44.082Z</time>
      </trkpt>
      <trkpt lat="41.70685" lon="19.68819">
        <ele>50.949204</ele>
        <time>2022-05-14T12:23:47.078Z</time>
      </trkpt>
      <trkpt lat="41.70697" lon="19.68815">
        <ele>50.872925</ele>
        <time>2022-05-14T12:23:50.106Z</time>
      </trkpt>
      <trkpt lat="41.70707" lon="19.68811">
        <ele>50.807443</ele>
        <time>2022-05-14T12:23:53.102Z</time>
      </trkpt>
      <trkpt lat="41.70717" lon="19.68807">
        <ele>50.745012</ele>
        <time>2022-05-14T12:23:56.086Z</time>
      </trkpt>
      <trkpt lat="41.70727" lon="19.68804">
        <ele>50.676681</ele>
        <time>2022-05-14T12:23:59.084Z</time>
      </trkpt>
      <trkpt lat="41.70739" lon="19.68799">
        <ele>50.603327</ele>
        <time>2022-05-14T12:24:02.073Z</time>
      </trkpt>
      <trkpt lat="41.70747" lon="19.68796">
        <ele>50.546607</ele>
        <time>2022-05-14T12:24:04.099Z</time>
      </trkpt>
      <trkpt lat="41.70756" lon="19.68792">
        <ele>50.488655</ele>
        <time>2022-05-14T12:24:06.088Z</time>
      </trkpt>
      <trkpt lat="41.70765" lon="19.6879">
        <ele>50.430044</ele>
        <time>2022-05-14T12:24:08.093Z</time>
      </trkpt>
      <trkpt lat="41.70775" lon="19.68786">
        <ele>50.369351</ele>
        <time>2022-05-14T12:24:10.082Z</time>
      </trkpt>
      <trkpt lat="41.70784" lon="19.68783">
        <ele>50.307903</ele>
        <time>2022-05-14T12:24:12.091Z</time>
      </trkpt>
      <trkpt lat="41.70793" lon="19.6878">
        <ele>50.251299</ele>
        <time>2022-05-14T12:24:14.083Z</time>
      </trkpt>
      <trkpt lat="41.70802" lon="19.68777">
        <ele>50.193373</ele>
        <time>2022-05-14T12:24:16.093Z</time>
      </trkpt>
      <trkpt lat="41.70815" lon="19.68771">
        <ele>50.111934</ele>
        <time>2022-05-14T12:24:19.099Z</time>
      </trkpt>
      <trkpt lat="41.70826" lon="19.68767">
        <ele>50.036307</ele>
        <time>2022-05-14T12:24:22.084Z</time>
      </trkpt>
      <trkpt lat="41.70837" lon="19.68765">
        <ele>49.965676</ele>
        <time>2022-05-14T12:24:25.076Z</time>
      </trkpt>
      <trkpt lat="41.70848" lon="19.68762">
        <ele>49.899054</ele>
        <time>2022-05-14T12:24:28.080Z</time>
      </trkpt>
      <trkpt lat="41.70858" lon="19.68758">
        <ele>49.831256</ele>
        <time>2022-05-14T12:24:31.092Z</time>
      </trkpt>
      <trkpt lat="41.7087" lon="19.68754">
        <ele>49.755382</ele>
        <time>2022-05-14T12:24:34.105Z</time>
      </trkpt>
      <trkpt lat="41.70882" lon="19.6875">
        <ele>49.682153</ele>
        <time>2022-05-14T12:24:37.063Z</time>
      </trkpt>
      <trkpt lat="41.7089" lon="19.68747">
        <ele>49.62519</ele>
        <time>2022-05-14T12:24:39.081Z</time>
      </trkpt>
      <trkpt lat="41.70899" lon="19.68744">
        <ele>49.608349</ele>
        <time>2022-05-14T12:24:41.069Z</time>
      </trkpt>
      <trkpt lat="41.70908" lon="19.68741">
        <ele>49.597264</ele>
        <time>2022-05-14T12:24:43.134Z</time>
      </trkpt>
      <trkpt lat="41.70917" lon="19.68737">
        <ele>49.586157</ele>
        <time>2022-05-14T12:24:45.088Z</time>
      </trkpt>
      <trkpt lat="41.70929" lon="19.68733">
        <ele>49.569851</ele>
        <time>2022-05-14T12:24:48.081Z</time>
      </trkpt>
      <trkpt lat="41.70939" lon="19.6873">
        <ele>49.558385</ele>
        <time>2022-05-14T12:24:50.110Z</time>
      </trkpt>
      <trkpt lat="41.70951" lon="19.68726">
        <ele>49.542174</ele>
        <time>2022-05-14T12:24:53.080Z</time>
      </trkpt>
      <trkpt lat="41.70964" lon="19.68721">
        <ele>49.526292</ele>
        <time>2022-05-14T12:24:56.094Z</time>
      </trkpt>
      <trkpt lat="41.70977" lon="19.68717">
        <ele>49.510452</ele>
        <time>2022-05-14T12:24:59.095Z</time>
      </trkpt>
      <trkpt lat="41.7099" lon="19.68712">
        <ele>49.493603</ele>
        <time>2022-05-14T12:25:02.088Z</time>
      </trkpt>
      <trkpt lat="41.70999" lon="19.68709">
        <ele>49.481604</ele>
        <time>2022-05-14T12:25:04.091Z</time>
      </trkpt>
      <trkpt lat="41.7101" lon="19.68706">
        <ele>49.468809</ele>
        <time>2022-05-14T12:25:06.119Z</time>
      </trkpt>
      <trkpt lat="41.71019" lon="19.68704">
        <ele>49.456606</ele>
        <time>2022-05-14T12:25:08.093Z</time>
      </trkpt>
      <trkpt lat="41.71029" lon="19.68702">
        <ele>49.444915</ele>
        <time>2022-05-14T12:25:10.091Z</time>
      </trkpt>
      <trkpt lat="41.71039" lon="19.68702">
        <ele>49.433032</ele>
        <time>2022-05-14T12:25:12.112Z</time>
      </trkpt>
      <trkpt lat="41.71049" lon="19.68701">
        <ele>49.420798</ele>
        <time>2022-05-14T12:25:14.087Z</time>
      </trkpt>
      <trkpt lat="41.71058" lon="19.68703">
        <ele>49.409856</ele>
        <time>2022-05-14T12:25:16.103Z</time>
      </trkpt>
      <trkpt lat="41.7107" lon="19.68705">
        <ele>49.402045</ele>
        <time>2022-05-14T12:25:19.115Z</time>
      </trkpt>
      <trkpt lat="41.71082" lon="19.68707">
        <ele>49.416017</ele>
        <time>2022-05-14T12:25:22.077Z</time>
      </trkpt>
      <trkpt lat="41.71095" lon="19.68712">
        <ele>49.432893</ele>
        <time>2022-05-14T12:25:25.086Z</time>
      </trkpt>
      <trkpt lat="41.71105" lon="19.68716">
        <ele>49.445395</ele>
        <time>2022-05-14T12:25:27.075Z</time>
      </trkpt>
      <trkpt lat="41.71114" lon="19.68719">
        <ele>49.457889</ele>
        <time>2022-05-14T12:25:29.076Z</time>
      </trkpt>
      <trkpt lat="41.71124" lon="19.68722">
        <ele>49.470075</ele>
        <time>2022-05-14T12:25:31.082Z</time>
      </trkpt>
      <trkpt lat="41.71134" lon="19.68725">
        <ele>49.482744</ele>
        <time>2022-05-14T12:25:33.083Z</time>
      </trkpt>
      <trkpt lat="41.71145" lon="19.68726">
        <ele>49.495971</ele>
        <time>2022-05-14T12:25:35.120Z</time>
      </trkpt>
      <trkpt lat="41.71155" lon="19.68726">
        <ele>49.508906</ele>
        <time>2022-05-14T12:25:37.099Z</time>
      </trkpt>
      <trkpt lat="41.71166" lon="19.68726">
        <ele>49.521841</ele>
        <time>2022-05-14T12:25:39.075Z</time>
      </trkpt>
      <trkpt lat="41.71176" lon="19.68727">
        <ele>49.534904</ele>
        <time>2022-05-14T12:25:41.090Z</time>
      </trkpt>
      <trkpt lat="41.71187" lon="19.68727">
        <ele>49.547715</ele>
        <time>2022-05-14T12:25:43.082Z</time>
      </trkpt>
      <trkpt lat="41.71197" lon="19.68726">
        <ele>49.560173</ele>
        <time>2022-05-14T12:25:45.090Z</time>
      </trkpt>
      <trkpt lat="41.71207" lon="19.68725">
        <ele>49.572882</ele>
        <time>2022-05-14T12:25:47.069Z</time>
      </trkpt>
      <trkpt lat="41.71217" lon="19.68725">
        <ele>49.58545</ele>
        <time>2022-05-14T12:25:49.098Z</time>
      </trkpt>
      <trkpt lat="41.71227" lon="19.68724">
        <ele>49.597434</ele>
        <time>2022-05-14T12:25:51.085Z</time>
      </trkpt>
      <trkpt lat="41.71237" lon="19.68724">
        <ele>49.609638</ele>
        <time>2022-05-14T12:25:53.105Z</time>
      </trkpt>
      <trkpt lat="41.71247" lon="19.68723">
        <ele>49.611392</ele>
        <time>2022-05-14T12:25:55.097Z</time>
      </trkpt>
      <trkpt lat="41.71257" lon="19.68723">
        <ele>49.563185</ele>
        <time>2022-05-14T12:25:57.116Z</time>
      </trkpt>
      <trkpt lat="41.71266" lon="19.68723">
        <ele>49.518919</ele>
        <time>2022-05-14T12:25:59.112Z</time>
      </trkpt>
      <trkpt lat="41.71279" lon="19.68722">
        <ele>49.453476</ele>
        <time>2022-05-14T12:26:02.081Z</time>
      </trkpt>
      <trkpt lat="41.71292" lon="19.68722">
        <ele>49.389545</ele>
        <time>2022-05-14T12:26:05.084Z</time>
      </trkpt>
      <trkpt lat="41.71305" lon="19.68721">
        <ele>49.323386</ele>
        <time>2022-05-14T12:26:08.090Z</time>
      </trkpt>
      <trkpt lat="41.71315" lon="19.6872">
        <ele>49.277439</ele>
        <time>2022-05-14T12:26:10.104Z</time>
      </trkpt>
      <trkpt lat="41.71324" lon="19.68719">
        <ele>49.2321</ele>
        <time>2022-05-14T12:26:12.074Z</time>
      </trkpt>
      <trkpt lat="41.71333" lon="19.68718">
        <ele>49.187766</ele>
        <time>2022-05-14T12:26:14.086Z</time>
      </trkpt>
      <trkpt lat="41.71342" lon="19.68717">
        <ele>49.142918</ele>
        <time>2022-05-14T12:26:16.069Z</time>
      </trkpt>
      <trkpt lat="41.71351" lon="19.68717">
        <ele>49.098583</ele>
        <time>2022-05-14T12:26:18.070Z</time>
      </trkpt>
      <trkpt lat="41.7136" lon="19.68716">
        <ele>49.05371</ele>
        <time>2022-05-14T12:26:20.095Z</time>
      </trkpt>
      <trkpt lat="41.71373" lon="19.68714">
        <ele>48.988381</ele>
        <time>2022-05-14T12:26:23.084Z</time>
      </trkpt>
      <trkpt lat="41.71386" lon="19.68712">
        <ele>48.924734</ele>
        <time>2022-05-14T12:26:26.097Z</time>
      </trkpt>
      <trkpt lat="41.71399" lon="19.68711">
        <ele>48.860989</ele>
        <time>2022-05-14T12:26:29.094Z</time>
      </trkpt>
      <trkpt lat="41.71412" lon="19.68709">
        <ele>48.797861</ele>
        <time>2022-05-14T12:26:32.077Z</time>
      </trkpt>
      <trkpt lat="41.71424" lon="19.68709">
        <ele>48.735378</ele>
        <time>2022-05-14T12:26:35.109Z</time>
      </trkpt>
      <trkpt lat="41.71436" lon="19.68707">
        <ele>48.770329</ele>
        <time>2022-05-14T12:26:38.074Z</time>
      </trkpt>
      <trkpt lat="41.71448" lon="19.68707">
        <ele>48.803632</ele>
        <time>2022-05-14T12:26:41.084Z</time>
      </trkpt>
      <trkpt lat="41.71459" lon="19.68706">
        <ele>48.837596</ele>
        <time>2022-05-14T12:26:44.101Z</time>
      </trkpt>
      <trkpt lat="41.7147" lon="19.68705">
        <ele>48.869796</ele>
        <time>2022-05-14T12:26:47.110Z</time>
      </trkpt>
      <trkpt lat="41.71481" lon="19.68703">
        <ele>48.902963</ele>
        <time>2022-05-14T12:26:50.111Z</time>
      </trkpt>
      <trkpt lat="41.71491" lon="19.68701">
        <ele>48.932695</ele>
        <time>2022-05-14T12:26:53.120Z</time>
      </trkpt>
      <trkpt lat="41.71501" lon="19.687">
        <ele>48.962367</ele>
        <time>2022-05-14T12:26:56.080Z</time>
      </trkpt>
      <trkpt lat="41.71512" lon="19.68699">
        <ele>48.997252</ele>
        <time>2022-05-14T12:27:00.086Z</time>
      </trkpt>
      <trkpt lat="41.71522" lon="19.68698">
        <ele>49.02644</ele>
        <time>2022-05-14T12:27:04.111Z</time>
      </trkpt>
      <trkpt lat="41.71534" lon="19.68695">
        <ele>49.060747</ele>
        <time>2022-05-14T12:27:08.095Z</time>
      </trkpt>
      <trkpt lat="41.71543" lon="19.68694">
        <ele>49.089271</ele>
        <time>2022-05-14T12:27:11.110Z</time>
      </trkpt>
      <trkpt lat="41.71553" lon="19.68691">
        <ele>49.119985</ele>
        <time>2022-05-14T12:27:14.077Z</time>
      </trkpt>
      <trkpt lat="41.71564" lon="19.6869">
        <ele>49.152288</ele>
        <time>2022-05-14T12:27:17.070Z</time>
      </trkpt>
      <trkpt lat="41.71575" lon="19.68688">
        <ele>49.185774</ele>
        <time>2022-05-14T12:27:20.090Z</time>
      </trkpt>
      <trkpt lat="41.71586" lon="19.68686">
        <ele>49.217597</ele>
        <time>2022-05-14T12:27:23.076Z</time>
      </trkpt>
      <trkpt lat="41.71597" lon="19.68685">
        <ele>49.250787</ele>
        <time>2022-05-14T12:27:26.143Z</time>
      </trkpt>
      <trkpt lat="41.71608" lon="19.68682">
        <ele>49.280723</ele>
        <time>2022-05-14T12:27:29.089Z</time>
      </trkpt>
      <trkpt lat="41.7162" lon="19.6868">
        <ele>49.308646</ele>
        <time>2022-05-14T12:27:32.058Z</time>
      </trkpt>
      <trkpt lat="41.71632" lon="19.68678">
        <ele>49.337183</ele>
        <time>2022-05-14T12:27:35.094Z</time>
      </trkpt>
      <trkpt lat="41.71644" lon="19.68677">
        <ele>49.366608</ele>
        <time>2022-05-14T12:27:38.092Z</time>
      </trkpt>
      <trkpt lat="41.71657" lon="19.68675">
        <ele>49.396616</ele>
        <time>2022-05-14T12:27:41.078Z</time>
      </trkpt>
      <trkpt lat="41.7167" lon="19.68673">
        <ele>49.427777</ele>
        <time>2022-05-14T12:27:44.074Z</time>
      </trkpt>
      <trkpt lat="41.71679" lon="19.68671">
        <ele>49.449105</ele>
        <time>2022-05-14T12:27:46.091Z</time>
      </trkpt>
      <trkpt lat="41.71688" lon="19.68669">
        <ele>49.472015</ele>
        <time>2022-05-14T12:27:48.090Z</time>
      </trkpt>
      <trkpt lat="41.71698" lon="19.68668">
        <ele>49.495454</ele>
        <time>2022-05-14T12:27:50.071Z</time>
      </trkpt>
      <trkpt lat="41.71708" lon="19.68666">
        <ele>49.518832</ele>
        <time>2022-05-14T12:27:52.072Z</time>
      </trkpt>
      <trkpt lat="41.71718" lon="19.68665">
        <ele>49.542165</ele>
        <time>2022-05-14T12:27:54.084Z</time>
      </trkpt>
      <trkpt lat="41.71727" lon="19.68663">
        <ele>49.564632</ele>
        <time>2022-05-14T12:27:56.076Z</time>
      </trkpt>
      <trkpt lat="41.71736" lon="19.68661">
        <ele>49.586347</ele>
        <time>2022-05-14T12:27:58.115Z</time>
      </trkpt>
      <trkpt lat="41.71748" lon="19.6866">
        <ele>49.615493</ele>
        <time>2022-05-14T12:28:01.061Z</time>
      </trkpt>
      <trkpt lat="41.7176" lon="19.68661">
        <ele>49.643932</ele>
        <time>2022-05-14T12:28:04.091Z</time>
      </trkpt>
      <trkpt lat="41.71773" lon="19.68664">
        <ele>49.673652</ele>
        <time>2022-05-14T12:28:07.059Z</time>
      </trkpt>
      <trkpt lat="41.71786" lon="19.68668">
        <ele>49.852864</ele>
        <time>2022-05-14T12:28:10.065Z</time>
      </trkpt>
      <trkpt lat="41.71798" lon="19.68672">
        <ele>50.333287</ele>
        <time>2022-05-14T12:28:13.098Z</time>
      </trkpt>
      <trkpt lat="41.7181" lon="19.68676">
        <ele>50.776094</ele>
        <time>2022-05-14T12:28:16.158Z</time>
      </trkpt>
      <trkpt lat="41.71821" lon="19.6868">
        <ele>51.224013</ele>
        <time>2022-05-14T12:28:19.120Z</time>
      </trkpt>
      <trkpt lat="41.71833" lon="19.68685">
        <ele>51.701833</ele>
        <time>2022-05-14T12:28:22.079Z</time>
      </trkpt>
      <trkpt lat="41.71846" lon="19.6869">
        <ele>52.182432</ele>
        <time>2022-05-14T12:28:25.135Z</time>
      </trkpt>
      <trkpt lat="41.71857" lon="19.68694">
        <ele>52.633203</ele>
        <time>2022-05-14T12:28:28.076Z</time>
      </trkpt>
      <trkpt lat="41.71868" lon="19.68699">
        <ele>53.058765</ele>
        <time>2022-05-14T12:28:31.077Z</time>
      </trkpt>
      <trkpt lat="41.71879" lon="19.68702">
        <ele>53.491473</ele>
        <time>2022-05-14T12:28:34.080Z</time>
      </trkpt>
      <trkpt lat="41.71891" lon="19.68707">
        <ele>53.93428</ele>
        <time>2022-05-14T12:28:37.085Z</time>
      </trkpt>
      <trkpt lat="41.71902" lon="19.6871">
        <ele>54.382078</ele>
        <time>2022-05-14T12:28:40.094Z</time>
      </trkpt>
      <trkpt lat="41.71915" lon="19.68713">
        <ele>54.852446</ele>
        <time>2022-05-14T12:28:43.081Z</time>
      </trkpt>
      <trkpt lat="41.71927" lon="19.68717">
        <ele>55.336776</ele>
        <time>2022-05-14T12:28:46.099Z</time>
      </trkpt>
      <trkpt lat="41.7194" lon="19.68721">
        <ele>55.826698</ele>
        <time>2022-05-14T12:28:49.083Z</time>
      </trkpt>
      <trkpt lat="41.71953" lon="19.68725">
        <ele>56.30738</ele>
        <time>2022-05-14T12:28:52.097Z</time>
      </trkpt>
      <trkpt lat="41.71965" lon="19.68729">
        <ele>56.47707</ele>
        <time>2022-05-14T12:28:55.091Z</time>
      </trkpt>
      <trkpt lat="41.71976" lon="19.68733">
        <ele>56.536163</ele>
        <time>2022-05-14T12:28:58.114Z</time>
      </trkpt>
      <trkpt lat="41.71987" lon="19.68737">
        <ele>56.593216</ele>
        <time>2022-05-14T12:29:01.095Z</time>
      </trkpt>
      <trkpt lat="41.71997" lon="19.68741">
        <ele>56.646489</ele>
        <time>2022-05-14T12:29:04.092Z</time>
      </trkpt>
      <trkpt lat="41.72008" lon="19.68745">
        <ele>56.701114</ele>
        <time>2022-05-14T12:29:07.083Z</time>
      </trkpt>
      <trkpt lat="41.72018" lon="19.68748">
        <ele>56.753728</ele>
        <time>2022-05-14T12:29:10.066Z</time>
      </trkpt>
      <trkpt lat="41.72028" lon="19.68751">
        <ele>56.807676</ele>
        <time>2022-05-14T12:29:13.072Z</time>
      </trkpt>
      <trkpt lat="41.72038" lon="19.68755">
        <ele>56.859681</ele>
        <time>2022-05-14T12:29:16.093Z</time>
      </trkpt>
      <trkpt lat="41.72048" lon="19.68758">
        <ele>56.911149</ele>
        <time>2022-05-14T12:29:19.084Z</time>
      </trkpt>
      <trkpt lat="41.72057" lon="19.68761">
        <ele>56.956945</ele>
        <time>2022-05-14T12:29:22.090Z</time>
      </trkpt>
      <trkpt lat="41.72066" lon="19.68764">
        <ele>57.003524</ele>
        <time>2022-05-14T12:29:25.087Z</time>
      </trkpt>
      <trkpt lat="41.72076" lon="19.68767">
        <ele>57.052298</ele>
        <time>2022-05-14T12:29:28.063Z</time>
      </trkpt>
      <trkpt lat="41.72086" lon="19.6877">
        <ele>57.107529</ele>
        <time>2022-05-14T12:29:31.142Z</time>
      </trkpt>
      <trkpt lat="41.72097" lon="19.68775">
        <ele>57.161347</ele>
        <time>2022-05-14T12:29:34.083Z</time>
      </trkpt>
      <trkpt lat="41.72107" lon="19.68778">
        <ele>57.215024</ele>
        <time>2022-05-14T12:29:37.080Z</time>
      </trkpt>
      <trkpt lat="41.72118" lon="19.68782">
        <ele>57.271505</ele>
        <time>2022-05-14T12:29:40.100Z</time>
      </trkpt>
      <trkpt lat="41.72129" lon="19.68786">
        <ele>57.327682</ele>
        <time>2022-05-14T12:29:43.079Z</time>
      </trkpt>
      <trkpt lat="41.72139" lon="19.68789">
        <ele>56.953391</ele>
        <time>2022-05-14T12:29:46.072Z</time>
      </trkpt>
      <trkpt lat="41.7215" lon="19.68793">
        <ele>56.47909</ele>
        <time>2022-05-14T12:29:49.099Z</time>
      </trkpt>
      <trkpt lat="41.72162" lon="19.68797">
        <ele>55.982248</ele>
        <time>2022-05-14T12:29:52.095Z</time>
      </trkpt>
      <trkpt lat="41.72172" lon="19.688">
        <ele>55.5987</ele>
        <time>2022-05-14T12:29:54.093Z</time>
      </trkpt>
      <trkpt lat="41.72181" lon="19.68803">
        <ele>55.223639</ele>
        <time>2022-05-14T12:29:56.097Z</time>
      </trkpt>
      <trkpt lat="41.72193" lon="19.68809">
        <ele>54.699309</ele>
        <time>2022-05-14T12:29:59.101Z</time>
      </trkpt>
      <trkpt lat="41.72206" lon="19.68813">
        <ele>54.152466</ele>
        <time>2022-05-14T12:30:02.112Z</time>
      </trkpt>
      <trkpt lat="41.72215" lon="19.68816">
        <ele>53.782956</ele>
        <time>2022-05-14T12:30:04.102Z</time>
      </trkpt>
      <trkpt lat="41.72227" lon="19.68821">
        <ele>53.250191</ele>
        <time>2022-05-14T12:30:07.087Z</time>
      </trkpt>
      <trkpt lat="41.72239" lon="19.68826">
        <ele>52.751017</ele>
        <time>2022-05-14T12:30:10.095Z</time>
      </trkpt>
      <trkpt lat="41.72251" lon="19.6883">
        <ele>52.26434</ele>
        <time>2022-05-14T12:30:13.058Z</time>
      </trkpt>
      <trkpt lat="41.72263" lon="19.68833">
        <ele>51.748581</ele>
        <time>2022-05-14T12:30:16.103Z</time>
      </trkpt>
      <trkpt lat="41.72274" lon="19.68838">
        <ele>51.28826</ele>
        <time>2022-05-14T12:30:19.093Z</time>
      </trkpt>
      <trkpt lat="41.72286" lon="19.68842">
        <ele>50.797685</ele>
        <time>2022-05-14T12:30:22.086Z</time>
      </trkpt>
      <trkpt lat="41.72299" lon="19.68845">
        <ele>50.279121</ele>
        <time>2022-05-14T12:30:25.100Z</time>
      </trkpt>
      <trkpt lat="41.7231" lon="19.68848">
        <ele>49.883948</ele>
        <time>2022-05-14T12:30:28.080Z</time>
      </trkpt>
      <trkpt lat="41.72321" lon="19.68851">
        <ele>49.550496</ele>
        <time>2022-05-14T12:30:31.086Z</time>
      </trkpt>
      <trkpt lat="41.72332" lon="19.68855">
        <ele>49.216084</ele>
        <time>2022-05-14T12:30:34.112Z</time>
      </trkpt>
      <trkpt lat="41.72342" lon="19.68859">
        <ele>48.899319</ele>
        <time>2022-05-14T12:30:37.081Z</time>
      </trkpt>
      <trkpt lat="41.72353" lon="19.68863">
        <ele>48.553858</ele>
        <time>2022-05-14T12:30:40.099Z</time>
      </trkpt>
      <trkpt lat="41.72366" lon="19.68866">
        <ele>48.180854</ele>
        <time>2022-05-14T12:30:43.101Z</time>
      </trkpt>
      <trkpt lat="41.72379" lon="19.6887">
        <ele>47.797418</ele>
        <time>2022-05-14T12:30:46.079Z</time>
      </trkpt>
      <trkpt lat="41.72391" lon="19.68874">
        <ele>47.42068</ele>
        <time>2022-05-14T12:30:49.124Z</time>
      </trkpt>
      <trkpt lat="41.72403" lon="19.68878">
        <ele>47.056618</ele>
        <time>2022-05-14T12:30:52.090Z</time>
      </trkpt>
      <trkpt lat="41.72414" lon="19.68882">
        <ele>46.706219</ele>
        <time>2022-05-14T12:30:55.064Z</time>
      </trkpt>
      <trkpt lat="41.72425" lon="19.68885">
        <ele>46.372171</ele>
        <time>2022-05-14T12:30:58.095Z</time>
      </trkpt>
      <trkpt lat="41.72437" lon="19.68887">
        <ele>46.036786</ele>
        <time>2022-05-14T12:31:01.112Z</time>
      </trkpt>
      <trkpt lat="41.72448" lon="19.6889">
        <ele>45.694832</ele>
        <time>2022-05-14T12:31:04.085Z</time>
      </trkpt>
      <trkpt lat="41.7246" lon="19.68892">
        <ele>45.329806</ele>
        <time>2022-05-14T12:31:07.078Z</time>
      </trkpt>
      <trkpt lat="41.72471" lon="19.68892">
        <ele>45.022223</ele>
        <time>2022-05-14T12:31:10.094Z</time>
      </trkpt>
      <trkpt lat="41.72483" lon="19.68892">
        <ele>44.790878</ele>
        <time>2022-05-14T12:31:13.073Z</time>
      </trkpt>
      <trkpt lat="41.72495" lon="19.68892">
        <ele>44.973934</ele>
        <time>2022-05-14T12:31:16.134Z</time>
      </trkpt>
      <trkpt lat="41.72507" lon="19.68891">
        <ele>45.161876</ele>
        <time>2022-05-14T12:31:19.071Z</time>
      </trkpt>
      <trkpt lat="41.72518" lon="19.6889">
        <ele>45.340672</ele>
        <time>2022-05-14T12:31:22.108Z</time>
      </trkpt>
      <trkpt lat="41.72528" lon="19.68889">
        <ele>45.495007</ele>
        <time>2022-05-14T12:31:25.100Z</time>
      </trkpt>
      <trkpt lat="41.7254" lon="19.68888">
        <ele>45.669788</ele>
        <time>2022-05-14T12:31:28.085Z</time>
      </trkpt>
      <trkpt lat="41.7255" lon="19.68887">
        <ele>45.825656</ele>
        <time>2022-05-14T12:31:31.080Z</time>
      </trkpt>
      <trkpt lat="41.72561" lon="19.68885">
        <ele>45.999454</ele>
        <time>2022-05-14T12:31:35.111Z</time>
      </trkpt>
      <trkpt lat="41.72571" lon="19.68882">
        <ele>46.154414</ele>
        <time>2022-05-14T12:31:39.126Z</time>
      </trkpt>
      <trkpt lat="41.72581" lon="19.6888">
        <ele>46.308089</ele>
        <time>2022-05-14T12:31:43.080Z</time>
      </trkpt>
      <trkpt lat="41.72607" lon="19.68878">
        <ele>46.714814</ele>
        <time>2022-05-14T12:40:16.078Z</time>
      </trkpt>
      <trkpt lat="41.72619" lon="19.68878">
        <ele>46.898033</ele>
        <time>2022-05-14T12:40:20.073Z</time>
      </trkpt>
      <trkpt lat="41.7263" lon="19.68874">
        <ele>47.072677</ele>
        <time>2022-05-14T12:40:24.078Z</time>
      </trkpt>
      <trkpt lat="41.72639" lon="19.68875">
        <ele>47.212693</ele>
        <time>2022-05-14T12:40:27.076Z</time>
      </trkpt>
      <trkpt lat="41.72649" lon="19.68874">
        <ele>47.366938</ele>
        <time>2022-05-14T12:40:30.120Z</time>
      </trkpt>
      <trkpt lat="41.72659" lon="19.68873">
        <ele>47.511981</ele>
        <time>2022-05-14T12:40:33.088Z</time>
      </trkpt>
      <trkpt lat="41.72668" lon="19.68871">
        <ele>47.557638</ele>
        <time>2022-05-14T12:40:36.081Z</time>
      </trkpt>
      <trkpt lat="41.72679" lon="19.68869">
        <ele>47.604597</ele>
        <time>2022-05-14T12:40:39.097Z</time>
      </trkpt>
      <trkpt lat="41.72689" lon="19.68868">
        <ele>47.652488</ele>
        <time>2022-05-14T12:40:42.082Z</time>
      </trkpt>
      <trkpt lat="41.727" lon="19.68867">
        <ele>47.698734</ele>
        <time>2022-05-14T12:40:45.098Z</time>
      </trkpt>
      <trkpt lat="41.7271" lon="19.68864">
        <ele>47.74682</ele>
        <time>2022-05-14T12:40:48.083Z</time>
      </trkpt>
      <trkpt lat="41.72721" lon="19.68863">
        <ele>47.793627</ele>
        <time>2022-05-14T12:40:51.084Z</time>
      </trkpt>
      <trkpt lat="41.72731" lon="19.68861">
        <ele>47.838687</ele>
        <time>2022-05-14T12:40:54.093Z</time>
      </trkpt>
      <trkpt lat="41.7274" lon="19.6886">
        <ele>47.882495</ele>
        <time>2022-05-14T12:40:57.101Z</time>
      </trkpt>
      <trkpt lat="41.7275" lon="19.68858">
        <ele>47.926747</ele>
        <time>2022-05-14T12:41:00.096Z</time>
      </trkpt>
      <trkpt lat="41.7276" lon="19.68857">
        <ele>47.970847</ele>
        <time>2022-05-14T12:41:03.081Z</time>
      </trkpt>
      <trkpt lat="41.7277" lon="19.68855">
        <ele>48.015871</ele>
        <time>2022-05-14T12:41:06.101Z</time>
      </trkpt>
      <trkpt lat="41.7278" lon="19.68853">
        <ele>48.062431</ele>
        <time>2022-05-14T12:41:09.095Z</time>
      </trkpt>
      <trkpt lat="41.72791" lon="19.68852">
        <ele>48.110608</ele>
        <time>2022-05-14T12:41:12.087Z</time>
      </trkpt>
      <trkpt lat="41.72802" lon="19.6885">
        <ele>48.160856</ele>
        <time>2022-05-14T12:41:15.076Z</time>
      </trkpt>
      <trkpt lat="41.72813" lon="19.68847">
        <ele>48.210935</ele>
        <time>2022-05-14T12:41:18.087Z</time>
      </trkpt>
      <trkpt lat="41.72824" lon="19.68844">
        <ele>48.261515</ele>
        <time>2022-05-14T12:41:21.098Z</time>
      </trkpt>
      <trkpt lat="41.72835" lon="19.68842">
        <ele>48.310595</ele>
        <time>2022-05-14T12:41:24.086Z</time>
      </trkpt>
      <trkpt lat="41.72845" lon="19.68839">
        <ele>48.277587</ele>
        <time>2022-05-14T12:41:27.059Z</time>
      </trkpt>
      <trkpt lat="41.72857" lon="19.68837">
        <ele>48.215808</ele>
        <time>2022-05-14T12:41:30.070Z</time>
      </trkpt>
      <trkpt lat="41.72868" lon="19.68834">
        <ele>48.154617</ele>
        <time>2022-05-14T12:41:33.088Z</time>
      </trkpt>
      <trkpt lat="41.7288" lon="19.68831">
        <ele>48.089504</ele>
        <time>2022-05-14T12:41:36.066Z</time>
      </trkpt>
      <trkpt lat="41.72892" lon="19.68828">
        <ele>48.023799</ele>
        <time>2022-05-14T12:41:39.109Z</time>
      </trkpt>
      <trkpt lat="41.72905" lon="19.68825">
        <ele>47.955792</ele>
        <time>2022-05-14T12:41:42.083Z</time>
      </trkpt>
      <trkpt lat="41.72918" lon="19.68821">
        <ele>47.88798</ele>
        <time>2022-05-14T12:41:45.076Z</time>
      </trkpt>
      <trkpt lat="41.72929" lon="19.68819">
        <ele>47.826514</ele>
        <time>2022-05-14T12:41:48.098Z</time>
      </trkpt>
      <trkpt lat="41.7294" lon="19.68815">
        <ele>47.765593</ele>
        <time>2022-05-14T12:41:51.080Z</time>
      </trkpt>
      <trkpt lat="41.72951" lon="19.68812">
        <ele>47.709069</ele>
        <time>2022-05-14T12:41:54.079Z</time>
      </trkpt>
      <trkpt lat="41.7296" lon="19.68809">
        <ele>47.655123</ele>
        <time>2022-05-14T12:41:57.083Z</time>
      </trkpt>
      <trkpt lat="41.72972" lon="19.68806">
        <ele>47.592021</ele>
        <time>2022-05-14T12:42:01.119Z</time>
      </trkpt>
      <trkpt lat="41.72983" lon="19.68802">
        <ele>47.532971</ele>
        <time>2022-05-14T12:42:05.106Z</time>
      </trkpt>
      <trkpt lat="41.72993" lon="19.68798">
        <ele>47.477182</ele>
        <time>2022-05-14T12:42:09.118Z</time>
      </trkpt>
      <trkpt lat="41.73004" lon="19.68795">
        <ele>47.419431</ele>
        <time>2022-05-14T12:42:13.080Z</time>
      </trkpt>
      <trkpt lat="41.73014" lon="19.68794">
        <ele>47.372064</ele>
        <time>2022-05-14T12:42:17.092Z</time>
      </trkpt>
      <trkpt lat="41.73023" lon="19.68793">
        <ele>47.610131</ele>
        <time>2022-05-14T12:42:21.101Z</time>
      </trkpt>
      <trkpt lat="41.73034" lon="19.68794">
        <ele>47.88013</ele>
        <time>2022-05-14T12:42:25.082Z</time>
      </trkpt>
      <trkpt lat="41.73043" lon="19.68794">
        <ele>48.105932</ele>
        <time>2022-05-14T12:42:28.090Z</time>
      </trkpt>
      <trkpt lat="41.73053" lon="19.68794">
        <ele>48.343998</ele>
        <time>2022-05-14T12:42:31.069Z</time>
      </trkpt>
      <trkpt lat="41.73063" lon="19.68795">
        <ele>48.591924</ele>
        <time>2022-05-14T12:42:34.063Z</time>
      </trkpt>
      <trkpt lat="41.73075" lon="19.68795">
        <ele>48.881506</ele>
        <time>2022-05-14T12:42:37.087Z</time>
      </trkpt>
      <trkpt lat="41.73089" lon="19.68796">
        <ele>49.217834</ele>
        <time>2022-05-14T12:42:40.087Z</time>
      </trkpt>
      <trkpt lat="41.73099" lon="19.68796">
        <ele>49.468112</ele>
        <time>2022-05-14T12:42:42.081Z</time>
      </trkpt>
      <trkpt lat="41.7311" lon="19.68795">
        <ele>49.738037</ele>
        <time>2022-05-14T12:42:44.068Z</time>
      </trkpt>
      <trkpt lat="41.73122" lon="19.68795">
        <ele>50.025118</ele>
        <time>2022-05-14T12:42:46.134Z</time>
      </trkpt>
      <trkpt lat="41.73134" lon="19.68795">
        <ele>50.331911</ele>
        <time>2022-05-14T12:42:48.097Z</time>
      </trkpt>
      <trkpt lat="41.73147" lon="19.68796">
        <ele>50.646169</ele>
        <time>2022-05-14T12:42:50.095Z</time>
      </trkpt>
      <trkpt lat="41.73158" lon="19.68795">
        <ele>50.918529</ele>
        <time>2022-05-14T12:42:52.066Z</time>
      </trkpt>
      <trkpt lat="41.73167" lon="19.68796">
        <ele>51.149432</ele>
        <time>2022-05-14T12:42:54.073Z</time>
      </trkpt>
      <trkpt lat="41.73181" lon="19.68797">
        <ele>51.485706</ele>
        <time>2022-05-14T12:42:57.120Z</time>
      </trkpt>
      <trkpt lat="41.73191" lon="19.68796">
        <ele>51.723772</ele>
        <time>2022-05-14T12:42:59.086Z</time>
      </trkpt>
      <trkpt lat="41.73201" lon="19.68796">
        <ele>52.078151</ele>
        <time>2022-05-14T12:43:01.082Z</time>
      </trkpt>
      <trkpt lat="41.7321" lon="19.68798">
        <ele>52.411512</ele>
        <time>2022-05-14T12:43:03.106Z</time>
      </trkpt>
      <trkpt lat="41.73222" lon="19.68796">
        <ele>52.83153</ele>
        <time>2022-05-14T12:43:06.083Z</time>
      </trkpt>
      <trkpt lat="41.73233" lon="19.68796">
        <ele>53.217546</ele>
        <time>2022-05-14T12:43:09.115Z</time>
      </trkpt>
      <trkpt lat="41.73244" lon="19.68798">
        <ele>53.635308</ele>
        <time>2022-05-14T12:43:12.068Z</time>
      </trkpt>
      <trkpt lat="41.73255" lon="19.688">
        <ele>54.040077</ele>
        <time>2022-05-14T12:43:15.079Z</time>
      </trkpt>
      <trkpt lat="41.73265" lon="19.68802">
        <ele>54.421719</ele>
        <time>2022-05-14T12:43:18.087Z</time>
      </trkpt>
      <trkpt lat="41.73274" lon="19.68805">
        <ele>54.759913</ele>
        <time>2022-05-14T12:43:20.069Z</time>
      </trkpt>
      <trkpt lat="41.73284" lon="19.68811">
        <ele>55.160312</ele>
        <time>2022-05-14T12:43:23.060Z</time>
      </trkpt>
      <trkpt lat="41.73293" lon="19.68818">
        <ele>55.546695</ele>
        <time>2022-05-14T12:43:26.074Z</time>
      </trkpt>
      <trkpt lat="41.73302" lon="19.68825">
        <ele>55.922274</ele>
        <time>2022-05-14T12:43:29.064Z</time>
      </trkpt>
      <trkpt lat="41.73311" lon="19.68833">
        <ele>56.286802</ele>
        <time>2022-05-14T12:43:32.062Z</time>
      </trkpt>
      <trkpt lat="41.73319" lon="19.68839">
        <ele>56.628709</ele>
        <time>2022-05-14T12:43:35.060Z</time>
      </trkpt>
      <trkpt lat="41.73328" lon="19.68846">
        <ele>57.017479</ele>
        <time>2022-05-14T12:43:38.068Z</time>
      </trkpt>
      <trkpt lat="41.73338" lon="19.68852">
        <ele>57.413059</ele>
        <time>2022-05-14T12:43:41.071Z</time>
      </trkpt>
      <trkpt lat="41.73347" lon="19.68859">
        <ele>57.784124</ele>
        <time>2022-05-14T12:43:44.064Z</time>
      </trkpt>
      <trkpt lat="41.73355" lon="19.68863">
        <ele>58.120673</ele>
        <time>2022-05-14T12:43:47.069Z</time>
      </trkpt>
      <trkpt lat="41.73366" lon="19.6887">
        <ele>58.553218</ele>
        <time>2022-05-14T12:43:51.105Z</time>
      </trkpt>
      <trkpt lat="41.73374" lon="19.68875">
        <ele>58.897464</ele>
        <time>2022-05-14T12:43:54.124Z</time>
      </trkpt>
      <trkpt lat="41.73384" lon="19.68881">
        <ele>59.307595</ele>
        <time>2022-05-14T12:43:58.089Z</time>
      </trkpt>
      <trkpt lat="41.73393" lon="19.68888">
        <ele>59.699283</ele>
        <time>2022-05-14T12:44:02.065Z</time>
      </trkpt>
      <trkpt lat="41.73402" lon="19.68894">
        <ele>60.071275</ele>
        <time>2022-05-14T12:44:06.092Z</time>
      </trkpt>
      <trkpt lat="41.73411" lon="19.68899">
        <ele>60.46751</ele>
        <time>2022-05-14T12:44:10.066Z</time>
      </trkpt>
      <trkpt lat="41.7342" lon="19.68906">
        <ele>60.832872</ele>
        <time>2022-05-14T12:44:14.059Z</time>
      </trkpt>
      <trkpt lat="41.73429" lon="19.68911">
        <ele>61.214269</ele>
        <time>2022-05-14T12:44:19.072Z</time>
      </trkpt>
      <trkpt lat="41.73439" lon="19.68917">
        <ele>61.625901</ele>
        <time>2022-05-14T12:44:24.095Z</time>
      </trkpt>
      <trkpt lat="41.73448" lon="19.68923">
        <ele>62.018901</ele>
        <time>2022-05-14T12:44:29.077Z</time>
      </trkpt>
      <trkpt lat="41.73457" lon="19.6893">
        <ele>62.428452</ele>
        <time>2022-05-14T12:44:34.098Z</time>
      </trkpt>
      <trkpt lat="41.73467" lon="19.68935">
        <ele>62.814471</ele>
        <time>2022-05-14T12:44:39.074Z</time>
      </trkpt>
      <trkpt lat="41.73477" lon="19.68939">
        <ele>63.214853</ele>
        <time>2022-05-14T12:44:44.064Z</time>
      </trkpt>
      <trkpt lat="41.73487" lon="19.68942">
        <ele>63.588255</ele>
        <time>2022-05-14T12:44:49.093Z</time>
      </trkpt>
      <trkpt lat="41.73496" lon="19.68944">
        <ele>63.941565</ele>
        <time>2022-05-14T12:44:54.084Z</time>
      </trkpt>
      <trkpt lat="41.73506" lon="19.68943">
        <ele>64.317845</ele>
        <time>2022-05-14T12:44:59.072Z</time>
      </trkpt>
      <trkpt lat="41.73517" lon="19.68943">
        <ele>64.731568</ele>
        <time>2022-05-14T12:45:04.090Z</time>
      </trkpt>
      <trkpt lat="41.73528" lon="19.6894">
        <ele>65.152228</ele>
        <time>2022-05-14T12:45:09.076Z</time>
      </trkpt>
      <trkpt lat="41.73539" lon="19.68938">
        <ele>64.978474</ele>
        <time>2022-05-14T12:45:13.098Z</time>
      </trkpt>
      <trkpt lat="41.7355" lon="19.68935">
        <ele>64.797144</ele>
        <time>2022-05-14T12:45:17.059Z</time>
      </trkpt>
      <trkpt lat="41.73559" lon="19.68932">
        <ele>64.653239</ele>
        <time>2022-05-14T12:45:20.114Z</time>
      </trkpt>
      <trkpt lat="41.7357" lon="19.68929">
        <ele>64.469722</ele>
        <time>2022-05-14T12:45:24.079Z</time>
      </trkpt>
      <trkpt lat="41.73582" lon="19.68925">
        <ele>64.275687</ele>
        <time>2022-05-14T12:45:28.073Z</time>
      </trkpt>
      <trkpt lat="41.73592" lon="19.68923">
        <ele>64.116572</ele>
        <time>2022-05-14T12:45:31.100Z</time>
      </trkpt>
      <trkpt lat="41.73603" lon="19.6892">
        <ele>63.945183</ele>
        <time>2022-05-14T12:45:34.080Z</time>
      </trkpt>
      <trkpt lat="41.73616" lon="19.68918">
        <ele>63.737949</ele>
        <time>2022-05-14T12:45:37.102Z</time>
      </trkpt>
      <trkpt lat="41.73625" lon="19.68916">
        <ele>63.583916</ele>
        <time>2022-05-14T12:45:39.080Z</time>
      </trkpt>
      <trkpt lat="41.73636" lon="19.68913">
        <ele>63.411716</ele>
        <time>2022-05-14T12:45:41.063Z</time>
      </trkpt>
      <trkpt lat="41.73648" lon="19.68911">
        <ele>63.216153</ele>
        <time>2022-05-14T12:45:43.121Z</time>
      </trkpt>
      <trkpt lat="41.7366" lon="19.68907">
        <ele>63.019076</ele>
        <time>2022-05-14T12:45:45.070Z</time>
      </trkpt>
      <trkpt lat="41.73673" lon="19.68904">
        <ele>62.810916</ele>
        <time>2022-05-14T12:45:47.062Z</time>
      </trkpt>
      <trkpt lat="41.73686" lon="19.68901">
        <ele>62.609865</ele>
        <time>2022-05-14T12:45:49.080Z</time>
      </trkpt>
      <trkpt lat="41.73699" lon="19.68896">
        <ele>62.398373</ele>
        <time>2022-05-14T12:45:51.095Z</time>
      </trkpt>
      <trkpt lat="41.73713" lon="19.68891">
        <ele>62.17016</ele>
        <time>2022-05-14T12:45:53.074Z</time>
      </trkpt>
      <trkpt lat="41.73725" lon="19.68884">
        <ele>61.950225</ele>
        <time>2022-05-14T12:45:55.063Z</time>
      </trkpt>
      <trkpt lat="41.73737" lon="19.68876">
        <ele>61.738539</ele>
        <time>2022-05-14T12:45:57.070Z</time>
      </trkpt>
      <trkpt lat="41.7375" lon="19.68868">
        <ele>61.507418</ele>
        <time>2022-05-14T12:45:59.077Z</time>
      </trkpt>
      <trkpt lat="41.73764" lon="19.68862">
        <ele>61.268246</ele>
        <time>2022-05-14T12:46:01.064Z</time>
      </trkpt>
      <trkpt lat="41.73778" lon="19.68857">
        <ele>61.044006</ele>
        <time>2022-05-14T12:46:03.073Z</time>
      </trkpt>
      <trkpt lat="41.73791" lon="19.68853">
        <ele>60.834911</ele>
        <time>2022-05-14T12:46:05.073Z</time>
      </trkpt>
      <trkpt lat="41.73803" lon="19.68851">
        <ele>60.644276</ele>
        <time>2022-05-14T12:46:07.075Z</time>
      </trkpt>
      <trkpt lat="41.73813" lon="19.68847">
        <ele>60.47524</ele>
        <time>2022-05-14T12:46:09.086Z</time>
      </trkpt>
      <trkpt lat="41.73823" lon="19.68845">
        <ele>60.31418</ele>
        <time>2022-05-14T12:46:11.075Z</time>
      </trkpt>
      <trkpt lat="41.73832" lon="19.68842">
        <ele>60.161792</ele>
        <time>2022-05-14T12:46:13.084Z</time>
      </trkpt>
      <trkpt lat="41.73841" lon="19.68839">
        <ele>60.015637</ele>
        <time>2022-05-14T12:46:15.068Z</time>
      </trkpt>
      <trkpt lat="41.73852" lon="19.68836">
        <ele>59.840214</ele>
        <time>2022-05-14T12:46:18.063Z</time>
      </trkpt>
      <trkpt lat="41.73863" lon="19.68833">
        <ele>59.656495</ele>
        <time>2022-05-14T12:46:21.079Z</time>
      </trkpt>
      <trkpt lat="41.73873" lon="19.68832">
        <ele>59.491304</ele>
        <time>2022-05-14T12:46:24.072Z</time>
      </trkpt>
      <trkpt lat="41.73885" lon="19.68831">
        <ele>59.571027</ele>
        <time>2022-05-14T12:46:28.082Z</time>
      </trkpt>
      <trkpt lat="41.73895" lon="19.68831">
        <ele>59.727679</ele>
        <time>2022-05-14T12:46:32.080Z</time>
      </trkpt>
      <trkpt lat="41.73904" lon="19.6883">
        <ele>59.881527</ele>
        <time>2022-05-14T12:46:36.084Z</time>
      </trkpt>
      <trkpt lat="41.73914" lon="19.68829">
        <ele>60.048527</ele>
        <time>2022-05-14T12:46:40.115Z</time>
      </trkpt>
      <trkpt lat="41.73924" lon="19.68828">
        <ele>60.218732</ele>
        <time>2022-05-14T12:46:44.077Z</time>
      </trkpt>
      <trkpt lat="41.73934" lon="19.68824">
        <ele>60.387883</ele>
        <time>2022-05-14T12:46:48.077Z</time>
      </trkpt>
      <trkpt lat="41.73944" lon="19.68823">
        <ele>60.543982</ele>
        <time>2022-05-14T12:46:52.076Z</time>
      </trkpt>
      <trkpt lat="41.73954" lon="19.6882">
        <ele>60.717999</ele>
        <time>2022-05-14T12:46:56.077Z</time>
      </trkpt>
      <trkpt lat="41.73964" lon="19.68818">
        <ele>60.8825</ele>
        <time>2022-05-14T12:47:00.092Z</time>
      </trkpt>
      <trkpt lat="41.73973" lon="19.68816">
        <ele>61.039849</ele>
        <time>2022-05-14T12:47:04.073Z</time>
      </trkpt>
      <trkpt lat="41.73983" lon="19.68813">
        <ele>61.199038</ele>
        <time>2022-05-14T12:47:08.081Z</time>
      </trkpt>
      <trkpt lat="41.73992" lon="19.68812">
        <ele>61.349275</ele>
        <time>2022-05-14T12:47:12.078Z</time>
      </trkpt>
      <trkpt lat="41.74001" lon="19.68808">
        <ele>61.511105</ele>
        <time>2022-05-14T12:47:16.087Z</time>
      </trkpt>
      <trkpt lat="41.7401" lon="19.68807">
        <ele>61.665879</ele>
        <time>2022-05-14T12:47:20.076Z</time>
      </trkpt>
      <trkpt lat="41.7402" lon="19.68805">
        <ele>61.822636</ele>
        <time>2022-05-14T12:47:24.088Z</time>
      </trkpt>
      <trkpt lat="41.7403" lon="19.68802">
        <ele>61.999669</ele>
        <time>2022-05-14T12:47:28.082Z</time>
      </trkpt>
      <trkpt lat="41.7404" lon="19.68798">
        <ele>62.164394</ele>
        <time>2022-05-14T12:47:31.078Z</time>
      </trkpt>
      <trkpt lat="41.7405" lon="19.68795">
        <ele>62.341515</ele>
        <time>2022-05-14T12:47:34.085Z</time>
      </trkpt>
      <trkpt lat="41.74061" lon="19.6879">
        <ele>62.216356</ele>
        <time>2022-05-14T12:47:37.092Z</time>
      </trkpt>
      <trkpt lat="41.74072" lon="19.68786">
        <ele>61.953665</ele>
        <time>2022-05-14T12:47:40.067Z</time>
      </trkpt>
      <trkpt lat="41.74083" lon="19.6878">
        <ele>61.692026</ele>
        <time>2022-05-14T12:47:43.092Z</time>
      </trkpt>
      <trkpt lat="41.74093" lon="19.68776">
        <ele>61.459786</ele>
        <time>2022-05-14T12:47:46.089Z</time>
      </trkpt>
      <trkpt lat="41.74103" lon="19.68772">
        <ele>61.214562</ele>
        <time>2022-05-14T12:47:49.072Z</time>
      </trkpt>
      <trkpt lat="41.74112" lon="19.68766">
        <ele>60.977069</ele>
        <time>2022-05-14T12:47:52.090Z</time>
      </trkpt>
      <trkpt lat="41.7412" lon="19.68759">
        <ele>60.761196</ele>
        <time>2022-05-14T12:47:55.097Z</time>
      </trkpt>
      <trkpt lat="41.74128" lon="19.68751">
        <ele>60.551113</ele>
        <time>2022-05-14T12:47:58.114Z</time>
      </trkpt>
      <trkpt lat="41.74135" lon="19.68741">
        <ele>60.310634</ele>
        <time>2022-05-14T12:48:01.087Z</time>
      </trkpt>
      <trkpt lat="41.74142" lon="19.68731">
        <ele>60.073239</ele>
        <time>2022-05-14T12:48:04.106Z</time>
      </trkpt>
      <trkpt lat="41.74148" lon="19.6872">
        <ele>59.839167</ele>
        <time>2022-05-14T12:48:07.084Z</time>
      </trkpt>
      <trkpt lat="41.74156" lon="19.68707">
        <ele>59.56262</ele>
        <time>2022-05-14T12:48:10.081Z</time>
      </trkpt>
      <trkpt lat="41.74163" lon="19.68694">
        <ele>59.271122</ele>
        <time>2022-05-14T12:48:13.085Z</time>
      </trkpt>
      <trkpt lat="41.74171" lon="19.6868">
        <ele>58.968671</ele>
        <time>2022-05-14T12:48:16.084Z</time>
      </trkpt>
      <trkpt lat="41.74176" lon="19.6867">
        <ele>58.763344</ele>
        <time>2022-05-14T12:48:18.059Z</time>
      </trkpt>
      <trkpt lat="41.74182" lon="19.68659">
        <ele>58.54574</ele>
        <time>2022-05-14T12:48:20.101Z</time>
      </trkpt>
      <trkpt lat="41.74187" lon="19.6865">
        <ele>58.33633</ele>
        <time>2022-05-14T12:48:22.102Z</time>
      </trkpt>
      <trkpt lat="41.74195" lon="19.68638">
        <ele>57.922538</ele>
        <time>2022-05-14T12:48:25.095Z</time>
      </trkpt>
      <trkpt lat="41.74204" lon="19.68628">
        <ele>57.467803</ele>
        <time>2022-05-14T12:48:28.078Z</time>
      </trkpt>
      <trkpt lat="41.74216" lon="19.68619">
        <ele>56.966867</ele>
        <time>2022-05-14T12:48:31.119Z</time>
      </trkpt>
      <trkpt lat="41.74224" lon="19.68612">
        <ele>56.618618</ele>
        <time>2022-05-14T12:48:33.115Z</time>
      </trkpt>
      <trkpt lat="41.74233" lon="19.686">
        <ele>56.118874</ele>
        <time>2022-05-14T12:48:36.079Z</time>
      </trkpt>
      <trkpt lat="41.74239" lon="19.6859">
        <ele>55.764886</ele>
        <time>2022-05-14T12:48:38.072Z</time>
      </trkpt>
      <trkpt lat="41.74243" lon="19.68573">
        <ele>55.266384</ele>
        <time>2022-05-14T12:48:41.095Z</time>
      </trkpt>
      <trkpt lat="41.74245" lon="19.68558">
        <ele>54.815583</ele>
        <time>2022-05-14T12:48:44.087Z</time>
      </trkpt>
      <trkpt lat="41.74247" lon="19.68542">
        <ele>54.374565</ele>
        <time>2022-05-14T12:48:47.074Z</time>
      </trkpt>
      <trkpt lat="41.74248" lon="19.68526">
        <ele>53.904955</ele>
        <time>2022-05-14T12:48:50.081Z</time>
      </trkpt>
      <trkpt lat="41.7425" lon="19.68509">
        <ele>53.431678</ele>
        <time>2022-05-14T12:48:53.084Z</time>
      </trkpt>
      <trkpt lat="41.74251" lon="19.68493">
        <ele>52.972447</ele>
        <time>2022-05-14T12:48:56.084Z</time>
      </trkpt>
      <trkpt lat="41.74253" lon="19.68475">
        <ele>52.463509</ele>
        <time>2022-05-14T12:48:59.077Z</time>
      </trkpt>
      <trkpt lat="41.74254" lon="19.68463">
        <ele>52.111539</ele>
        <time>2022-05-14T12:49:01.120Z</time>
      </trkpt>
      <trkpt lat="41.74255" lon="19.68449">
        <ele>51.728567</ele>
        <time>2022-05-14T12:49:03.092Z</time>
      </trkpt>
      <trkpt lat="41.74256" lon="19.68435">
        <ele>51.377037</ele>
        <time>2022-05-14T12:49:05.080Z</time>
      </trkpt>
      <trkpt lat="41.74257" lon="19.6842">
        <ele>51.160478</ele>
        <time>2022-05-14T12:49:07.075Z</time>
      </trkpt>
      <trkpt lat="41.74258" lon="19.68406">
        <ele>50.941789</ele>
        <time>2022-05-14T12:49:09.091Z</time>
      </trkpt>
      <trkpt lat="41.7426" lon="19.68392">
        <ele>50.723262</ele>
        <time>2022-05-14T12:49:11.091Z</time>
      </trkpt>
      <trkpt lat="41.74262" lon="19.68378">
        <ele>50.506236</ele>
        <time>2022-05-14T12:49:13.112Z</time>
      </trkpt>
      <trkpt lat="41.74265" lon="19.68365">
        <ele>50.287389</ele>
        <time>2022-05-14T12:49:15.098Z</time>
      </trkpt>
      <trkpt lat="41.7427" lon="19.68352">
        <ele>50.066979</ele>
        <time>2022-05-14T12:49:17.082Z</time>
      </trkpt>
      <trkpt lat="41.74275" lon="19.68338">
        <ele>49.841807</ele>
        <time>2022-05-14T12:49:19.096Z</time>
      </trkpt>
      <trkpt lat="41.74281" lon="19.68325">
        <ele>49.596352</ele>
        <time>2022-05-14T12:49:21.064Z</time>
      </trkpt>
      <trkpt lat="41.74287" lon="19.68311">
        <ele>49.351386</ele>
        <time>2022-05-14T12:49:23.104Z</time>
      </trkpt>
      <trkpt lat="41.74293" lon="19.68299">
        <ele>49.127208</ele>
        <time>2022-05-14T12:49:25.078Z</time>
      </trkpt>
      <trkpt lat="41.74298" lon="19.68287">
        <ele>48.914298</ele>
        <time>2022-05-14T12:49:27.076Z</time>
      </trkpt>
      <trkpt lat="41.74304" lon="19.68275">
        <ele>48.708523</ele>
        <time>2022-05-14T12:49:29.156Z</time>
      </trkpt>
      <trkpt lat="41.74309" lon="19.68263">
        <ele>48.496445</ele>
        <time>2022-05-14T12:49:31.094Z</time>
      </trkpt>
      <trkpt lat="41.74315" lon="19.68251">
        <ele>48.277467</ele>
        <time>2022-05-14T12:49:33.118Z</time>
      </trkpt>
      <trkpt lat="41.7432" lon="19.68239">
        <ele>48.064558</ele>
        <time>2022-05-14T12:49:35.096Z</time>
      </trkpt>
      <trkpt lat="41.74326" lon="19.68228">
        <ele>47.859616</ele>
        <time>2022-05-14T12:49:37.090Z</time>
      </trkpt>
      <trkpt lat="41.74331" lon="19.68218">
        <ele>47.788602</ele>
        <time>2022-05-14T12:49:39.085Z</time>
      </trkpt>
      <trkpt lat="41.74337" lon="19.68208">
        <ele>47.815877</ele>
        <time>2022-05-14T12:49:41.074Z</time>
      </trkpt>
      <trkpt lat="41.74345" lon="19.68195">
        <ele>47.852533</ele>
        <time>2022-05-14T12:49:44.090Z</time>
      </trkpt>
      <trkpt lat="41.74353" lon="19.68182">
        <ele>47.890757</ele>
        <time>2022-05-14T12:49:47.068Z</time>
      </trkpt>
      <trkpt lat="41.74362" lon="19.6817">
        <ele>47.927883</ele>
        <time>2022-05-14T12:49:50.095Z</time>
      </trkpt>
      <trkpt lat="41.74369" lon="19.68158">
        <ele>47.963373</ele>
        <time>2022-05-14T12:49:53.091Z</time>
      </trkpt>
      <trkpt lat="41.74377" lon="19.68146">
        <ele>47.998382</ele>
        <time>2022-05-14T12:49:56.066Z</time>
      </trkpt>
      <trkpt lat="41.74384" lon="19.68134">
        <ele>48.031291</ele>
        <time>2022-05-14T12:49:59.086Z</time>
      </trkpt>
      <trkpt lat="41.74391" lon="19.68124">
        <ele>48.062892</ele>
        <time>2022-05-14T12:50:02.086Z</time>
      </trkpt>
      <trkpt lat="41.74398" lon="19.68112">
        <ele>48.095411</ele>
        <time>2022-05-14T12:50:05.083Z</time>
      </trkpt>
      <trkpt lat="41.74405" lon="19.68102">
        <ele>48.126334</ele>
        <time>2022-05-14T12:50:08.091Z</time>
      </trkpt>
      <trkpt lat="41.74411" lon="19.68091">
        <ele>48.157711</ele>
        <time>2022-05-14T12:50:11.084Z</time>
      </trkpt>
      <trkpt lat="41.74417" lon="19.68079">
        <ele>48.189279</ele>
        <time>2022-05-14T12:50:14.070Z</time>
      </trkpt>
      <trkpt lat="41.74424" lon="19.68068">
        <ele>48.221242</ele>
        <time>2022-05-14T12:50:17.116Z</time>
      </trkpt>
      <trkpt lat="41.74431" lon="19.68058">
        <ele>48.251971</ele>
        <time>2022-05-14T12:50:20.094Z</time>
      </trkpt>
      <trkpt lat="41.74438" lon="19.68048">
        <ele>48.283324</ele>
        <time>2022-05-14T12:50:23.074Z</time>
      </trkpt>
      <trkpt lat="41.74444" lon="19.68037">
        <ele>48.347366</ele>
        <time>2022-05-14T12:50:26.087Z</time>
      </trkpt>
      <trkpt lat="41.74451" lon="19.68026">
        <ele>48.552252</ele>
        <time>2022-05-14T12:50:29.089Z</time>
      </trkpt>
      <trkpt lat="41.74457" lon="19.68015">
        <ele>48.765558</ele>
        <time>2022-05-14T12:50:32.074Z</time>
      </trkpt>
      <trkpt lat="41.74464" lon="19.68004">
        <ele>48.987385</ele>
        <time>2022-05-14T12:50:35.084Z</time>
      </trkpt>
      <trkpt lat="41.74472" lon="19.67991">
        <ele>49.227332</ele>
        <time>2022-05-14T12:50:38.083Z</time>
      </trkpt>
      <trkpt lat="41.74478" lon="19.67982">
        <ele>49.413121</ele>
        <time>2022-05-14T12:50:40.087Z</time>
      </trkpt>
      <trkpt lat="41.74483" lon="19.67972">
        <ele>49.600964</ele>
        <time>2022-05-14T12:50:42.079Z</time>
      </trkpt>
      <trkpt lat="41.7449" lon="19.67962">
        <ele>49.801061</ele>
        <time>2022-05-14T12:50:44.095Z</time>
      </trkpt>
      <trkpt lat="41.74496" lon="19.67951">
        <ele>50.009691</ele>
        <time>2022-05-14T12:50:46.082Z</time>
      </trkpt>
      <trkpt lat="41.74503" lon="19.6794">
        <ele>50.229068</ele>
        <time>2022-05-14T12:50:48.101Z</time>
      </trkpt>
      <trkpt lat="41.7451" lon="19.67928">
        <ele>50.459417</ele>
        <time>2022-05-14T12:50:50.093Z</time>
      </trkpt>
      <trkpt lat="41.74518" lon="19.67917">
        <ele>50.697644</ele>
        <time>2022-05-14T12:50:52.073Z</time>
      </trkpt>
      <trkpt lat="41.74525" lon="19.67904">
        <ele>50.93152</ele>
        <time>2022-05-14T12:50:54.081Z</time>
      </trkpt>
      <trkpt lat="41.74532" lon="19.67893">
        <ele>51.150896</ele>
        <time>2022-05-14T12:50:56.080Z</time>
      </trkpt>
      <trkpt lat="41.74539" lon="19.67882">
        <ele>51.373897</ele>
        <time>2022-05-14T12:50:58.115Z</time>
      </trkpt>
      <trkpt lat="41.74546" lon="19.6787">
        <ele>51.596771</ele>
        <time>2022-05-14T12:51:00.082Z</time>
      </trkpt>
      <trkpt lat="41.74553" lon="19.67857">
        <ele>51.840341</ele>
        <time>2022-05-14T12:51:02.085Z</time>
      </trkpt>
      <trkpt lat="41.7456" lon="19.67844">
        <ele>51.755307</ele>
        <time>2022-05-14T12:51:04.084Z</time>
      </trkpt>
      <trkpt lat="41.74566" lon="19.67831">
        <ele>51.456275</ele>
        <time>2022-05-14T12:51:06.088Z</time>
      </trkpt>
      <trkpt lat="41.74571" lon="19.67818">
        <ele>51.145348</ele>
        <time>2022-05-14T12:51:08.096Z</time>
      </trkpt>
      <trkpt lat="41.74574" lon="19.67804">
        <ele>50.85056</ele>
        <time>2022-05-14T12:51:10.089Z</time>
      </trkpt>
      <trkpt lat="41.74576" lon="19.67791">
        <ele>50.572493</ele>
        <time>2022-05-14T12:51:12.083Z</time>
      </trkpt>
      <trkpt lat="41.74577" lon="19.67779">
        <ele>50.313382</ele>
        <time>2022-05-14T12:51:14.120Z</time>
      </trkpt>
      <trkpt lat="41.7458" lon="19.67761">
        <ele>49.947146</ele>
        <time>2022-05-14T12:51:17.089Z</time>
      </trkpt>
      <trkpt lat="41.74582" lon="19.67746">
        <ele>49.626835</ele>
        <time>2022-05-14T12:51:20.133Z</time>
      </trkpt>
      <trkpt lat="41.74584" lon="19.67731">
        <ele>49.314187</ele>
        <time>2022-05-14T12:51:23.084Z</time>
      </trkpt>
      <trkpt lat="41.74586" lon="19.67719">
        <ele>49.05699</ele>
        <time>2022-05-14T12:51:25.096Z</time>
      </trkpt>
      <trkpt lat="41.74588" lon="19.67707">
        <ele>48.798348</ele>
        <time>2022-05-14T12:51:27.085Z</time>
      </trkpt>
      <trkpt lat="41.7459" lon="19.67694">
        <ele>48.523434</ele>
        <time>2022-05-14T12:51:29.091Z</time>
      </trkpt>
      <trkpt lat="41.74592" lon="19.67681">
        <ele>48.235765</ele>
        <time>2022-05-14T12:51:31.112Z</time>
      </trkpt>
      <trkpt lat="41.74594" lon="19.67667">
        <ele>47.958814</ele>
        <time>2022-05-14T12:51:33.067Z</time>
      </trkpt>
      <trkpt lat="41.74596" lon="19.67654">
        <ele>47.675749</ele>
        <time>2022-05-14T12:51:35.093Z</time>
      </trkpt>
      <trkpt lat="41.74598" lon="19.6764">
        <ele>47.388081</ele>
        <time>2022-05-14T12:51:37.110Z</time>
      </trkpt>
      <trkpt lat="41.74599" lon="19.67627">
        <ele>47.112137</ele>
        <time>2022-05-14T12:51:39.063Z</time>
      </trkpt>
      <trkpt lat="41.74601" lon="19.67615">
        <ele>46.921509</ele>
        <time>2022-05-14T12:51:41.060Z</time>
      </trkpt>
      <trkpt lat="41.74604" lon="19.67598">
        <ele>46.816032</ele>
        <time>2022-05-14T12:51:44.081Z</time>
      </trkpt>
      <trkpt lat="41.74606" lon="19.67586">
        <ele>46.741753</ele>
        <time>2022-05-14T12:51:46.124Z</time>
      </trkpt>
      <trkpt lat="41.74608" lon="19.67574">
        <ele>46.668068</ele>
        <time>2022-05-14T12:51:48.097Z</time>
      </trkpt>
      <trkpt lat="41.7461" lon="19.67557">
        <ele>46.56188</ele>
        <time>2022-05-14T12:51:51.123Z</time>
      </trkpt>
      <trkpt lat="41.74613" lon="19.67542">
        <ele>46.46706</ele>
        <time>2022-05-14T12:51:54.070Z</time>
      </trkpt>
      <trkpt lat="41.74616" lon="19.67528">
        <ele>46.379757</ele>
        <time>2022-05-14T12:51:57.096Z</time>
      </trkpt>
      <trkpt lat="41.74619" lon="19.67517">
        <ele>46.304276</ele>
        <time>2022-05-14T12:52:00.067Z</time>
      </trkpt>
      <trkpt lat="41.74622" lon="19.67505">
        <ele>46.229224</ele>
        <time>2022-05-14T12:52:03.089Z</time>
      </trkpt>
      <trkpt lat="41.74627" lon="19.67491">
        <ele>46.135506</ele>
        <time>2022-05-14T12:52:07.107Z</time>
      </trkpt>
      <trkpt lat="41.74631" lon="19.67479">
        <ele>46.059506</ele>
        <time>2022-05-14T12:52:10.073Z</time>
      </trkpt>
      <trkpt lat="41.74636" lon="19.67465">
        <ele>45.965144</ele>
        <time>2022-05-14T12:52:14.096Z</time>
      </trkpt>
      <trkpt lat="41.74642" lon="19.67453">
        <ele>45.87676</ele>
        <time>2022-05-14T12:52:18.076Z</time>
      </trkpt>
      <trkpt lat="41.74648" lon="19.67441">
        <ele>45.783371</ele>
        <time>2022-05-14T12:52:22.089Z</time>
      </trkpt>
      <trkpt lat="41.74655" lon="19.6743">
        <ele>45.701604</ele>
        <time>2022-05-14T12:52:25.086Z</time>
      </trkpt>
      <trkpt lat="41.74661" lon="19.6742">
        <ele>45.621292</ele>
        <time>2022-05-14T12:52:28.065Z</time>
      </trkpt>
      <trkpt lat="41.74667" lon="19.6741">
        <ele>45.544428</ele>
        <time>2022-05-14T12:52:31.096Z</time>
      </trkpt>
      <trkpt lat="41.74673" lon="19.674">
        <ele>45.424591</ele>
        <time>2022-05-14T12:52:34.079Z</time>
      </trkpt>
      <trkpt lat="41.7468" lon="19.67388">
        <ele>45.052157</ele>
        <time>2022-05-14T12:52:38.073Z</time>
      </trkpt>
      <trkpt lat="41.74688" lon="19.67377">
        <ele>44.705365</ele>
        <time>2022-05-14T12:52:42.088Z</time>
      </trkpt>
      <trkpt lat="41.74696" lon="19.67367">
        <ele>44.365166</ele>
        <time>2022-05-14T12:52:46.072Z</time>
      </trkpt>
      <trkpt lat="41.74705" lon="19.67356">
        <ele>43.978723</ele>
        <time>2022-05-14T12:52:50.111Z</time>
      </trkpt>
      <trkpt lat="41.74714" lon="19.67348">
        <ele>43.648105</ele>
        <time>2022-05-14T12:52:53.092Z</time>
      </trkpt>
      <trkpt lat="41.74724" lon="19.67339">
        <ele>43.271262</ele>
        <time>2022-05-14T12:52:56.087Z</time>
      </trkpt>
      <trkpt lat="41.74734" lon="19.6733">
        <ele>42.889139</ele>
        <time>2022-05-14T12:52:59.071Z</time>
      </trkpt>
      <trkpt lat="41.74745" lon="19.67321">
        <ele>42.500017</ele>
        <time>2022-05-14T12:53:02.091Z</time>
      </trkpt>
      <trkpt lat="41.74753" lon="19.67315">
        <ele>42.20208</ele>
        <time>2022-05-14T12:53:04.100Z</time>
      </trkpt>
      <trkpt lat="41.74763" lon="19.67308">
        <ele>41.859218</ele>
        <time>2022-05-14T12:53:06.090Z</time>
      </trkpt>
      <trkpt lat="41.74775" lon="19.67301">
        <ele>41.459073</ele>
        <time>2022-05-14T12:53:08.067Z</time>
      </trkpt>
      <trkpt lat="41.74787" lon="19.67293">
        <ele>41.048674</ele>
        <time>2022-05-14T12:53:10.119Z</time>
      </trkpt>
      <trkpt lat="41.748" lon="19.67284">
        <ele>40.579342</ele>
        <time>2022-05-14T12:53:12.083Z</time>
      </trkpt>
      <trkpt lat="41.74815" lon="19.67273">
        <ele>40.052936</ele>
        <time>2022-05-14T12:53:14.118Z</time>
      </trkpt>
      <trkpt lat="41.7483" lon="19.67263">
        <ele>39.412414</ele>
        <time>2022-05-14T12:53:16.079Z</time>
      </trkpt>
      <trkpt lat="41.74846" lon="19.67251">
        <ele>38.722571</ele>
        <time>2022-05-14T12:53:18.088Z</time>
      </trkpt>
      <trkpt lat="41.74859" lon="19.67241">
        <ele>38.104211</ele>
        <time>2022-05-14T12:53:20.091Z</time>
      </trkpt>
      <trkpt lat="41.74872" lon="19.67232">
        <ele>37.506935</ele>
        <time>2022-05-14T12:53:22.072Z</time>
      </trkpt>
      <trkpt lat="41.74885" lon="19.67223">
        <ele>36.941873</ele>
        <time>2022-05-14T12:53:24.072Z</time>
      </trkpt>
      <trkpt lat="41.74898" lon="19.67214">
        <ele>36.375435</ele>
        <time>2022-05-14T12:53:26.075Z</time>
      </trkpt>
      <trkpt lat="41.7491" lon="19.67206">
        <ele>35.838387</ele>
        <time>2022-05-14T12:53:28.069Z</time>
      </trkpt>
      <trkpt lat="41.74921" lon="19.67199">
        <ele>35.349239</ele>
        <time>2022-05-14T12:53:30.092Z</time>
      </trkpt>
      <trkpt lat="41.74931" lon="19.67192">
        <ele>34.911712</ele>
        <time>2022-05-14T12:53:32.101Z</time>
      </trkpt>
      <trkpt lat="41.7494" lon="19.67186">
        <ele>34.495054</ele>
        <time>2022-05-14T12:53:34.089Z</time>
      </trkpt>
      <trkpt lat="41.74949" lon="19.6718">
        <ele>34.099257</ele>
        <time>2022-05-14T12:53:36.130Z</time>
      </trkpt>
      <trkpt lat="41.74958" lon="19.67174">
        <ele>33.692352</ele>
        <time>2022-05-14T12:53:38.074Z</time>
      </trkpt>
      <trkpt lat="41.74967" lon="19.67169">
        <ele>33.292869</ele>
        <time>2022-05-14T12:53:40.096Z</time>
      </trkpt>
      <trkpt lat="41.74976" lon="19.67164">
        <ele>32.91828</ele>
        <time>2022-05-14T12:53:42.087Z</time>
      </trkpt>
      <trkpt lat="41.74986" lon="19.6716">
        <ele>32.902723</ele>
        <time>2022-05-14T12:53:44.070Z</time>
      </trkpt>
      <trkpt lat="41.74996" lon="19.67158">
        <ele>33.177255</ele>
        <time>2022-05-14T12:53:46.065Z</time>
      </trkpt>
      <trkpt lat="41.75005" lon="19.67157">
        <ele>33.440621</ele>
        <time>2022-05-14T12:53:48.080Z</time>
      </trkpt>
      <trkpt lat="41.75015" lon="19.67157">
        <ele>33.695642</ele>
        <time>2022-05-14T12:53:50.084Z</time>
      </trkpt>
      <trkpt lat="41.75024" lon="19.67157">
        <ele>33.950663</ele>
        <time>2022-05-14T12:53:52.089Z</time>
      </trkpt>
      <trkpt lat="41.75033" lon="19.67157">
        <ele>34.205676</ele>
        <time>2022-05-14T12:53:54.086Z</time>
      </trkpt>
      <trkpt lat="41.75042" lon="19.67157">
        <ele>34.45528</ele>
        <time>2022-05-14T12:53:56.086Z</time>
      </trkpt>
      <trkpt lat="41.75051" lon="19.67157">
        <ele>34.707559</ele>
        <time>2022-05-14T12:53:58.080Z</time>
      </trkpt>
      <trkpt lat="41.75064" lon="19.67157">
        <ele>35.039508</ele>
        <time>2022-05-14T12:54:01.074Z</time>
      </trkpt>
      <trkpt lat="41.75077" lon="19.67158">
        <ele>35.396189</ele>
        <time>2022-05-14T12:54:04.067Z</time>
      </trkpt>
      <trkpt lat="41.75086" lon="19.67158">
        <ele>35.645751</ele>
        <time>2022-05-14T12:54:06.078Z</time>
      </trkpt>
      <trkpt lat="41.75099" lon="19.67158">
        <ele>36.016072</ele>
        <time>2022-05-14T12:54:09.092Z</time>
      </trkpt>
      <trkpt lat="41.75112" lon="19.67158">
        <ele>36.380768</ele>
        <time>2022-05-14T12:54:12.085Z</time>
      </trkpt>
      <trkpt lat="41.75122" lon="19.67158">
        <ele>36.633047</ele>
        <time>2022-05-14T12:54:14.081Z</time>
      </trkpt>
      <trkpt lat="41.75135" lon="19.67158">
        <ele>36.992265</ele>
        <time>2022-05-14T12:54:17.088Z</time>
      </trkpt>
      <trkpt lat="41.75147" lon="19.67158">
        <ele>37.337772</ele>
        <time>2022-05-14T12:54:20.095Z</time>
      </trkpt>
      <trkpt lat="41.7516" lon="19.67159">
        <ele>37.693582</ele>
        <time>2022-05-14T12:54:23.089Z</time>
      </trkpt>
      <trkpt lat="41.75172" lon="19.6716">
        <ele>38.123212</ele>
        <time>2022-05-14T12:54:26.100Z</time>
      </trkpt>
      <trkpt lat="41.75184" lon="19.6716">
        <ele>38.559927</ele>
        <time>2022-05-14T12:54:29.087Z</time>
      </trkpt>
      <trkpt lat="41.75195" lon="19.6716">
        <ele>38.970745</ele>
        <time>2022-05-14T12:54:32.078Z</time>
      </trkpt>
      <trkpt lat="41.75206" lon="19.6716">
        <ele>39.388851</ele>
        <time>2022-05-14T12:54:35.066Z</time>
      </trkpt>
      <trkpt lat="41.75218" lon="19.6716">
        <ele>39.821624</ele>
        <time>2022-05-14T12:54:38.105Z</time>
      </trkpt>
      <trkpt lat="41.7523" lon="19.6716">
        <ele>40.272833</ele>
        <time>2022-05-14T12:54:41.083Z</time>
      </trkpt>
      <trkpt lat="41.75242" lon="19.6716">
        <ele>40.709933</ele>
        <time>2022-05-14T12:54:44.063Z</time>
      </trkpt>
      <trkpt lat="41.75255" lon="19.67158">
        <ele>41.160351</ele>
        <time>2022-05-14T12:54:47.091Z</time>
      </trkpt>
      <trkpt lat="41.75267" lon="19.67154">
        <ele>41.619068</ele>
        <time>2022-05-14T12:54:50.096Z</time>
      </trkpt>
      <trkpt lat="41.75279" lon="19.6715">
        <ele>42.075309</ele>
        <time>2022-05-14T12:54:53.070Z</time>
      </trkpt>
      <trkpt lat="41.7529" lon="19.67145">
        <ele>42.504625</ele>
        <time>2022-05-14T12:54:56.087Z</time>
      </trkpt>
      <trkpt lat="41.75301" lon="19.67142">
        <ele>42.927004</ele>
        <time>2022-05-14T12:54:59.115Z</time>
      </trkpt>
      <trkpt lat="41.75313" lon="19.67137">
        <ele>43.381681</ele>
        <time>2022-05-14T12:55:02.070Z</time>
      </trkpt>
      <trkpt lat="41.75325" lon="19.67131">
        <ele>43.846769</ele>
        <time>2022-05-14T12:55:05.095Z</time>
      </trkpt>
      <trkpt lat="41.75337" lon="19.67125">
        <ele>44.275633</ele>
        <time>2022-05-14T12:55:08.076Z</time>
      </trkpt>
      <trkpt lat="41.75349" lon="19.67119">
        <ele>44.341693</ele>
        <time>2022-05-14T12:55:11.082Z</time>
      </trkpt>
      <trkpt lat="41.7536" lon="19.67115">
        <ele>44.404994</ele>
        <time>2022-05-14T12:55:14.091Z</time>
      </trkpt>
      <trkpt lat="41.75373" lon="19.67112">
        <ele>44.471393</ele>
        <time>2022-05-14T12:55:17.123Z</time>
      </trkpt>
      <trkpt lat="41.75386" lon="19.67112">
        <ele>44.536053</ele>
        <time>2022-05-14T12:55:20.076Z</time>
      </trkpt>
      <trkpt lat="41.75398" lon="19.67113">
        <ele>44.600771</ele>
        <time>2022-05-14T12:55:23.072Z</time>
      </trkpt>
      <trkpt lat="41.75411" lon="19.67115">
        <ele>44.667373</ele>
        <time>2022-05-14T12:55:26.084Z</time>
      </trkpt>
      <trkpt lat="41.75423" lon="19.67117">
        <ele>44.732583</ele>
        <time>2022-05-14T12:55:29.084Z</time>
      </trkpt>
      <trkpt lat="41.75436" lon="19.67119">
        <ele>44.797004</ele>
        <time>2022-05-14T12:55:32.087Z</time>
      </trkpt>
      <trkpt lat="41.75448" lon="19.6712">
        <ele>44.861351</ele>
        <time>2022-05-14T12:55:35.077Z</time>
      </trkpt>
      <trkpt lat="41.75461" lon="19.67121">
        <ele>44.926028</ele>
        <time>2022-05-14T12:55:38.085Z</time>
      </trkpt>
      <trkpt lat="41.75472" lon="19.67122">
        <ele>44.987189</ele>
        <time>2022-05-14T12:55:41.082Z</time>
      </trkpt>
      <trkpt lat="41.75484" lon="19.67122">
        <ele>45.049209</ele>
        <time>2022-05-14T12:55:44.086Z</time>
      </trkpt>
      <trkpt lat="41.75496" lon="19.67122">
        <ele>45.109172</ele>
        <time>2022-05-14T12:55:47.105Z</time>
      </trkpt>
      <trkpt lat="41.75507" lon="19.67122">
        <ele>45.167078</ele>
        <time>2022-05-14T12:55:50.086Z</time>
      </trkpt>
      <trkpt lat="41.75519" lon="19.67122">
        <ele>45.105526</ele>
        <time>2022-05-14T12:55:53.087Z</time>
      </trkpt>
      <trkpt lat="41.75531" lon="19.67123">
        <ele>44.901746</ele>
        <time>2022-05-14T12:55:56.105Z</time>
      </trkpt>
      <trkpt lat="41.75542" lon="19.67126">
        <ele>44.690415</ele>
        <time>2022-05-14T12:55:59.096Z</time>
      </trkpt>
      <trkpt lat="41.75554" lon="19.67129">
        <ele>44.470162</ele>
        <time>2022-05-14T12:56:02.085Z</time>
      </trkpt>
      <trkpt lat="41.75566" lon="19.67132">
        <ele>44.257429</ele>
        <time>2022-05-14T12:56:05.071Z</time>
      </trkpt>
      <trkpt lat="41.75577" lon="19.67135">
        <ele>44.058947</ele>
        <time>2022-05-14T12:56:08.088Z</time>
      </trkpt>
      <trkpt lat="41.75587" lon="19.67137">
        <ele>43.873492</ele>
        <time>2022-05-14T12:56:11.088Z</time>
      </trkpt>
      <trkpt lat="41.75598" lon="19.67139">
        <ele>43.684839</ele>
        <time>2022-05-14T12:56:14.076Z</time>
      </trkpt>
      <trkpt lat="41.75608" lon="19.6714">
        <ele>43.494713</ele>
        <time>2022-05-14T12:56:17.080Z</time>
      </trkpt>
      <trkpt lat="41.75619" lon="19.67142">
        <ele>43.304723</ele>
        <time>2022-05-14T12:56:20.078Z</time>
      </trkpt>
      <trkpt lat="41.7563" lon="19.67144">
        <ele>43.112018</ele>
        <time>2022-05-14T12:56:23.120Z</time>
      </trkpt>
      <trkpt lat="41.7564" lon="19.67145">
        <ele>42.919492</ele>
        <time>2022-05-14T12:56:26.087Z</time>
      </trkpt>
      <trkpt lat="41.75651" lon="19.67148">
        <ele>42.726781</ele>
        <time>2022-05-14T12:56:29.080Z</time>
      </trkpt>
      <trkpt lat="41.75662" lon="19.67151">
        <ele>42.535556</ele>
        <time>2022-05-14T12:56:32.101Z</time>
      </trkpt>
      <trkpt lat="41.75671" lon="19.67154">
        <ele>42.361365</ele>
        <time>2022-05-14T12:56:35.109Z</time>
      </trkpt>
      <trkpt lat="41.75681" lon="19.67156">
        <ele>42.191596</ele>
        <time>2022-05-14T12:56:38.068Z</time>
      </trkpt>
      <trkpt lat="41.7569" lon="19.67157">
        <ele>42.022031</ele>
        <time>2022-05-14T12:56:41.079Z</time>
      </trkpt>
      <trkpt lat="41.75699" lon="19.6716">
        <ele>42.280039</ele>
        <time>2022-05-14T12:56:44.085Z</time>
      </trkpt>
      <trkpt lat="41.75709" lon="19.67162">
        <ele>42.654484</ele>
        <time>2022-05-14T12:56:47.080Z</time>
      </trkpt>
      <trkpt lat="41.75719" lon="19.67165">
        <ele>43.023311</ele>
        <time>2022-05-14T12:56:50.082Z</time>
      </trkpt>
      <trkpt lat="41.7573" lon="19.67167">
        <ele>43.4136</ele>
        <time>2022-05-14T12:56:53.086Z</time>
      </trkpt>
      <trkpt lat="41.7574" lon="19.67169">
        <ele>43.788678</ele>
        <time>2022-05-14T12:56:56.119Z</time>
      </trkpt>
      <trkpt lat="41.7575" lon="19.67172">
        <ele>44.148353</ele>
        <time>2022-05-14T12:56:59.081Z</time>
      </trkpt>
      <trkpt lat="41.75759" lon="19.67174">
        <ele>44.478719</ele>
        <time>2022-05-14T12:57:02.091Z</time>
      </trkpt>
      <trkpt lat="41.75769" lon="19.67176">
        <ele>44.832775</ele>
        <time>2022-05-14T12:57:05.120Z</time>
      </trkpt>
      <trkpt lat="41.75778" lon="19.67179">
        <ele>45.180181</ele>
        <time>2022-05-14T12:57:08.080Z</time>
      </trkpt>
      <trkpt lat="41.75788" lon="19.67181">
        <ele>45.549008</ele>
        <time>2022-05-14T12:57:11.129Z</time>
      </trkpt>
      <trkpt lat="41.75798" lon="19.67183">
        <ele>45.906176</ele>
        <time>2022-05-14T12:57:14.080Z</time>
      </trkpt>
      <trkpt lat="41.75809" lon="19.67186">
        <ele>46.336747</ele>
        <time>2022-05-14T12:57:18.063Z</time>
      </trkpt>
      <trkpt lat="41.75819" lon="19.67188">
        <ele>46.68772</ele>
        <time>2022-05-14T12:57:21.084Z</time>
      </trkpt>
      <trkpt lat="41.75829" lon="19.6719">
        <ele>47.059215</ele>
        <time>2022-05-14T12:57:24.086Z</time>
      </trkpt>
      <trkpt lat="41.75839" lon="19.67192">
        <ele>47.428144</ele>
        <time>2022-05-14T12:57:27.070Z</time>
      </trkpt>
      <trkpt lat="41.75849" lon="19.67193">
        <ele>47.808199</ele>
        <time>2022-05-14T12:57:30.090Z</time>
      </trkpt>
      <trkpt lat="41.7586" lon="19.67195">
        <ele>48.195469</ele>
        <time>2022-05-14T12:57:33.080Z</time>
      </trkpt>
      <trkpt lat="41.7587" lon="19.67197">
        <ele>48.581533</ele>
        <time>2022-05-14T12:57:36.067Z</time>
      </trkpt>
      <trkpt lat="41.7588" lon="19.67199">
        <ele>49.06903</ele>
        <time>2022-05-14T12:57:39.124Z</time>
      </trkpt>
      <trkpt lat="41.7589" lon="19.67201">
        <ele>49.577528</ele>
        <time>2022-05-14T12:57:42.093Z</time>
      </trkpt>
      <trkpt lat="41.759" lon="19.67204">
        <ele>50.097833</ele>
        <time>2022-05-14T12:57:45.083Z</time>
      </trkpt>
      <trkpt lat="41.7591" lon="19.67207">
        <ele>50.593326</ele>
        <time>2022-05-14T12:57:48.085Z</time>
      </trkpt>
      <trkpt lat="41.75921" lon="19.6721">
        <ele>51.18613</ele>
        <time>2022-05-14T12:57:52.115Z</time>
      </trkpt>
      <trkpt lat="41.75932" lon="19.67212">
        <ele>51.734854</ele>
        <time>2022-05-14T12:57:55.098Z</time>
      </trkpt>
      <trkpt lat="41.75943" lon="19.67215">
        <ele>52.297391</ele>
        <time>2022-05-14T12:57:58.091Z</time>
      </trkpt>
      <trkpt lat="41.75953" lon="19.67218">
        <ele>52.827928</ele>
        <time>2022-05-14T12:58:01.072Z</time>
      </trkpt>
      <trkpt lat="41.75963" lon="19.67221">
        <ele>53.345601</ele>
        <time>2022-05-14T12:58:04.115Z</time>
      </trkpt>
      <trkpt lat="41.75973" lon="19.67224">
        <ele>53.829608</ele>
        <time>2022-05-14T12:58:07.102Z</time>
      </trkpt>
      <trkpt lat="41.75983" lon="19.67227">
        <ele>54.344312</ele>
        <time>2022-05-14T12:58:10.115Z</time>
      </trkpt>
      <trkpt lat="41.75995" lon="19.67229">
        <ele>54.958082</ele>
        <time>2022-05-14T12:58:14.059Z</time>
      </trkpt>
      <trkpt lat="41.76007" lon="19.67231">
        <ele>55.589766</ele>
        <time>2022-05-14T12:58:18.094Z</time>
      </trkpt>
      <trkpt lat="41.76017" lon="19.67233">
        <ele>56.096567</ele>
        <time>2022-05-14T12:58:21.096Z</time>
      </trkpt>
      <trkpt lat="41.76028" lon="19.67235">
        <ele>56.653584</ele>
        <time>2022-05-14T12:58:24.083Z</time>
      </trkpt>
      <trkpt lat="41.7604" lon="19.67237">
        <ele>57.256361</ele>
        <time>2022-05-14T12:58:27.076Z</time>
      </trkpt>
      <trkpt lat="41.76052" lon="19.6724">
        <ele>57.508146</ele>
        <time>2022-05-14T12:58:30.087Z</time>
      </trkpt>
      <trkpt lat="41.76066" lon="19.67243">
        <ele>57.42133</ele>
        <time>2022-05-14T12:58:33.087Z</time>
      </trkpt>
      <trkpt lat="41.76075" lon="19.67245">
        <ele>57.362697</ele>
        <time>2022-05-14T12:58:35.083Z</time>
      </trkpt>
      <trkpt lat="41.76085" lon="19.67248">
        <ele>57.297393</ele>
        <time>2022-05-14T12:58:38.099Z</time>
      </trkpt>
      <trkpt lat="41.76096" lon="19.6725">
        <ele>57.226906</ele>
        <time>2022-05-14T12:58:41.087Z</time>
      </trkpt>
      <trkpt lat="41.76108" lon="19.67252">
        <ele>57.150814</ele>
        <time>2022-05-14T12:58:44.093Z</time>
      </trkpt>
      <trkpt lat="41.76119" lon="19.67255">
        <ele>57.075583</ele>
        <time>2022-05-14T12:58:47.083Z</time>
      </trkpt>
      <trkpt lat="41.76133" lon="19.67258">
        <ele>56.990407</ele>
        <time>2022-05-14T12:58:50.079Z</time>
      </trkpt>
      <trkpt lat="41.76142" lon="19.67261">
        <ele>56.927301</ele>
        <time>2022-05-14T12:58:52.082Z</time>
      </trkpt>
      <trkpt lat="41.76152" lon="19.67264">
        <ele>56.864709</ele>
        <time>2022-05-14T12:58:54.125Z</time>
      </trkpt>
      <trkpt lat="41.76161" lon="19.67267">
        <ele>56.803666</ele>
        <time>2022-05-14T12:58:56.084Z</time>
      </trkpt>
      <trkpt lat="41.7617" lon="19.67269">
        <ele>56.746736</ele>
        <time>2022-05-14T12:58:58.079Z</time>
      </trkpt>
      <trkpt lat="41.76179" lon="19.67271">
        <ele>56.688374</ele>
        <time>2022-05-14T12:59:00.083Z</time>
      </trkpt>
      <trkpt lat="41.76188" lon="19.67274">
        <ele>56.628146</ele>
        <time>2022-05-14T12:59:02.069Z</time>
      </trkpt>
      <trkpt lat="41.76198" lon="19.67277">
        <ele>56.563465</ele>
        <time>2022-05-14T12:59:04.166Z</time>
      </trkpt>
      <trkpt lat="41.76209" lon="19.6728">
        <ele>56.491453</ele>
        <time>2022-05-14T12:59:06.083Z</time>
      </trkpt>
      <trkpt lat="41.7622" lon="19.67283">
        <ele>56.42122</ele>
        <time>2022-05-14T12:59:08.076Z</time>
      </trkpt>
      <trkpt lat="41.76231" lon="19.67287">
        <ele>56.417185</ele>
        <time>2022-05-14T12:59:10.070Z</time>
      </trkpt>
      <trkpt lat="41.76241" lon="19.6729">
        <ele>56.430396</ele>
        <time>2022-05-14T12:59:12.080Z</time>
      </trkpt>
      <trkpt lat="41.76251" lon="19.67293">
        <ele>56.443353</ele>
        <time>2022-05-14T12:59:14.091Z</time>
      </trkpt>
      <trkpt lat="41.76261" lon="19.67296">
        <ele>56.456094</ele>
        <time>2022-05-14T12:59:16.096Z</time>
      </trkpt>
      <trkpt lat="41.7627" lon="19.67297">
        <ele>56.468208</ele>
        <time>2022-05-14T12:59:18.082Z</time>
      </trkpt>
      <trkpt lat="41.76283" lon="19.67298">
        <ele>56.484428</ele>
        <time>2022-05-14T12:59:21.063Z</time>
      </trkpt>
      <trkpt lat="41.76294" lon="19.67294">
        <ele>56.499009</ele>
        <time>2022-05-14T12:59:24.091Z</time>
      </trkpt>
      <trkpt lat="41.76306" lon="19.67285">
        <ele>56.515639</ele>
        <time>2022-05-14T12:59:27.086Z</time>
      </trkpt>
      <trkpt lat="41.76317" lon="19.67276">
        <ele>56.531998</ele>
        <time>2022-05-14T12:59:30.115Z</time>
      </trkpt>
      <trkpt lat="41.76327" lon="19.67266">
        <ele>56.547574</ele>
        <time>2022-05-14T12:59:33.094Z</time>
      </trkpt>
      <trkpt lat="41.76337" lon="19.67256">
        <ele>56.563702</ele>
        <time>2022-05-14T12:59:36.076Z</time>
      </trkpt>
      <trkpt lat="41.76345" lon="19.67248">
        <ele>56.576297</ele>
        <time>2022-05-14T12:59:38.089Z</time>
      </trkpt>
      <trkpt lat="41.76354" lon="19.67236">
        <ele>56.592885</ele>
        <time>2022-05-14T12:59:41.119Z</time>
      </trkpt>
      <trkpt lat="41.76364" lon="19.67223">
        <ele>56.610031</ele>
        <time>2022-05-14T12:59:44.111Z</time>
      </trkpt>
      <trkpt lat="41.76372" lon="19.67209">
        <ele>56.62672</ele>
        <time>2022-05-14T12:59:47.120Z</time>
      </trkpt>
      <trkpt lat="41.76378" lon="19.672">
        <ele>56.61132</ele>
        <time>2022-05-14T12:59:49.081Z</time>
      </trkpt>
      <trkpt lat="41.76383" lon="19.6719">
        <ele>56.545211</ele>
        <time>2022-05-14T12:59:51.089Z</time>
      </trkpt>
      <trkpt lat="41.76389" lon="19.67181">
        <ele>56.479127</ele>
        <time>2022-05-14T12:59:53.134Z</time>
      </trkpt>
      <trkpt lat="41.76394" lon="19.67171">
        <ele>56.412123</ele>
        <time>2022-05-14T12:59:55.097Z</time>
      </trkpt>
      <trkpt lat="41.76399" lon="19.67161">
        <ele>56.344288</ele>
        <time>2022-05-14T12:59:57.085Z</time>
      </trkpt>
      <trkpt lat="41.76405" lon="19.6715">
        <ele>56.273792</ele>
        <time>2022-05-14T12:59:59.076Z</time>
      </trkpt>
      <trkpt lat="41.76412" lon="19.67141">
        <ele>56.203157</ele>
        <time>2022-05-14T13:00:01.086Z</time>
      </trkpt>
      <trkpt lat="41.76418" lon="19.67131">
        <ele>56.134566</ele>
        <time>2022-05-14T13:00:03.087Z</time>
      </trkpt>
      <trkpt lat="41.76424" lon="19.67122">
        <ele>56.066379</ele>
        <time>2022-05-14T13:00:05.084Z</time>
      </trkpt>
      <trkpt lat="41.76432" lon="19.67109">
        <ele>55.974733</ele>
        <time>2022-05-14T13:00:08.069Z</time>
      </trkpt>
      <trkpt lat="41.76439" lon="19.67095">
        <ele>55.880367</ele>
        <time>2022-05-14T13:00:11.086Z</time>
      </trkpt>
      <trkpt lat="41.76446" lon="19.6708">
        <ele>55.784708</ele>
        <time>2022-05-14T13:00:14.085Z</time>
      </trkpt>
      <trkpt lat="41.76451" lon="19.67064">
        <ele>55.692296</ele>
        <time>2022-05-14T13:00:17.078Z</time>
      </trkpt>
      <trkpt lat="41.76457" lon="19.67049">
        <ele>55.599567</ele>
        <time>2022-05-14T13:00:20.083Z</time>
      </trkpt>
      <trkpt lat="41.76463" lon="19.67033">
        <ele>55.502918</ele>
        <time>2022-05-14T13:00:23.096Z</time>
      </trkpt>
      <trkpt lat="41.76468" lon="19.67023">
        <ele>55.435496</ele>
        <time>2022-05-14T13:00:25.082Z</time>
      </trkpt>
      <trkpt lat="41.76477" lon="19.6701">
        <ele>55.339155</ele>
        <time>2022-05-14T13:00:28.070Z</time>
      </trkpt>
      <trkpt lat="41.76484" lon="19.67002">
        <ele>55.176772</ele>
        <time>2022-05-14T13:00:30.067Z</time>
      </trkpt>
      <trkpt lat="41.76491" lon="19.66994">
        <ele>54.968821</ele>
        <time>2022-05-14T13:00:32.098Z</time>
      </trkpt>
      <trkpt lat="41.76501" lon="19.66983">
        <ele>54.693584</ele>
        <time>2022-05-14T13:00:35.094Z</time>
      </trkpt>
      <trkpt lat="41.7651" lon="19.66973">
        <ele>54.434586</ele>
        <time>2022-05-14T13:00:38.079Z</time>
      </trkpt>
      <trkpt lat="41.76519" lon="19.66963">
        <ele>54.166679</ele>
        <time>2022-05-14T13:00:41.082Z</time>
      </trkpt>
      <trkpt lat="41.76529" lon="19.66952">
        <ele>53.891443</ele>
        <time>2022-05-14T13:00:44.090Z</time>
      </trkpt>
      <trkpt lat="41.76538" lon="19.66941">
        <ele>53.625251</ele>
        <time>2022-05-14T13:00:47.082Z</time>
      </trkpt>
      <trkpt lat="41.76548" lon="19.66931">
        <ele>53.353163</ele>
        <time>2022-05-14T13:00:50.074Z</time>
      </trkpt>
      <trkpt lat="41.76558" lon="19.66921">
        <ele>53.083821</ele>
        <time>2022-05-14T13:00:53.081Z</time>
      </trkpt>
      <trkpt lat="41.76567" lon="19.66911">
        <ele>52.827567</ele>
        <time>2022-05-14T13:00:56.100Z</time>
      </trkpt>
      <trkpt lat="41.76575" lon="19.66903">
        <ele>52.601404</ele>
        <time>2022-05-14T13:00:59.090Z</time>
      </trkpt>
      <trkpt lat="41.76583" lon="19.66896">
        <ele>52.391135</ele>
        <time>2022-05-14T13:01:02.078Z</time>
      </trkpt>
      <trkpt lat="41.76592" lon="19.66889">
        <ele>52.167792</ele>
        <time>2022-05-14T13:01:05.083Z</time>
      </trkpt>
      <trkpt lat="41.76601" lon="19.66882">
        <ele>51.93617</ele>
        <time>2022-05-14T13:01:08.074Z</time>
      </trkpt>
      <trkpt lat="41.76611" lon="19.66877">
        <ele>51.698248</ele>
        <time>2022-05-14T13:01:11.092Z</time>
      </trkpt>
      <trkpt lat="41.7662" lon="19.66871">
        <ele>51.473141</ele>
        <time>2022-05-14T13:01:14.085Z</time>
      </trkpt>
      <trkpt lat="41.76631" lon="19.66866">
        <ele>51.276678</ele>
        <time>2022-05-14T13:01:17.074Z</time>
      </trkpt>
      <trkpt lat="41.7664" lon="19.6686">
        <ele>51.141185</ele>
        <time>2022-05-14T13:01:20.084Z</time>
      </trkpt>
      <trkpt lat="41.7665" lon="19.66855">
        <ele>51.006547</ele>
        <time>2022-05-14T13:01:23.115Z</time>
      </trkpt>
      <trkpt lat="41.76659" lon="19.66849">
        <ele>50.865517</ele>
        <time>2022-05-14T13:01:26.071Z</time>
      </trkpt>
      <trkpt lat="41.7667" lon="19.66844">
        <ele>50.718311</ele>
        <time>2022-05-14T13:01:29.113Z</time>
      </trkpt>
      <trkpt lat="41.7668" lon="19.66839">
        <ele>50.579124</ele>
        <time>2022-05-14T13:01:32.084Z</time>
      </trkpt>
      <trkpt lat="41.76689" lon="19.66834">
        <ele>50.448533</ele>
        <time>2022-05-14T13:01:35.120Z</time>
      </trkpt>
      <trkpt lat="41.76699" lon="19.66829">
        <ele>50.30598</ele>
        <time>2022-05-14T13:01:38.085Z</time>
      </trkpt>
      <trkpt lat="41.7671" lon="19.66824">
        <ele>50.147711</ele>
        <time>2022-05-14T13:01:41.084Z</time>
      </trkpt>
      <trkpt lat="41.76722" lon="19.66818">
        <ele>49.979722</ele>
        <time>2022-05-14T13:01:44.094Z</time>
      </trkpt>
      <trkpt lat="41.76734" lon="19.66811">
        <ele>49.802205</ele>
        <time>2022-05-14T13:01:47.083Z</time>
      </trkpt>
      <trkpt lat="41.76743" lon="19.66807">
        <ele>49.677147</ele>
        <time>2022-05-14T13:01:49.086Z</time>
      </trkpt>
      <trkpt lat="41.76752" lon="19.66802">
        <ele>49.547671</ele>
        <time>2022-05-14T13:01:51.081Z</time>
      </trkpt>
      <trkpt lat="41.76762" lon="19.66797">
        <ele>49.412178</ele>
        <time>2022-05-14T13:01:53.086Z</time>
      </trkpt>
      <trkpt lat="41.76771" lon="19.66792">
        <ele>49.28639</ele>
        <time>2022-05-14T13:01:55.085Z</time>
      </trkpt>
      <trkpt lat="41.7678" lon="19.66787">
        <ele>49.157271</ele>
        <time>2022-05-14T13:01:57.082Z</time>
      </trkpt>
      <trkpt lat="41.76789" lon="19.66782">
        <ele>49.026562</ele>
        <time>2022-05-14T13:01:59.091Z</time>
      </trkpt>
      <trkpt lat="41.76799" lon="19.66777">
        <ele>48.907377</ele>
        <time>2022-05-14T13:02:01.083Z</time>
      </trkpt>
      <trkpt lat="41.76809" lon="19.66772">
        <ele>48.80095</ele>
        <time>2022-05-14T13:02:03.084Z</time>
      </trkpt>
      <trkpt lat="41.76818" lon="19.66767">
        <ele>48.697304</ele>
        <time>2022-05-14T13:02:05.088Z</time>
      </trkpt>
      <trkpt lat="41.76828" lon="19.66762">
        <ele>48.59479</ele>
        <time>2022-05-14T13:02:07.074Z</time>
      </trkpt>
      <trkpt lat="41.76837" lon="19.66756">
        <ele>48.492361</ele>
        <time>2022-05-14T13:02:09.096Z</time>
      </trkpt>
      <trkpt lat="41.76847" lon="19.66751">
        <ele>48.389291</ele>
        <time>2022-05-14T13:02:11.085Z</time>
      </trkpt>
      <trkpt lat="41.76856" lon="19.66745">
        <ele>48.284717</ele>
        <time>2022-05-14T13:02:13.069Z</time>
      </trkpt>
      <trkpt lat="41.76866" lon="19.6674">
        <ele>48.180145</ele>
        <time>2022-05-14T13:02:15.072Z</time>
      </trkpt>
      <trkpt lat="41.76875" lon="19.66734">
        <ele>48.076789</ele>
        <time>2022-05-14T13:02:17.084Z</time>
      </trkpt>
      <trkpt lat="41.76885" lon="19.66729">
        <ele>47.974276</ele>
        <time>2022-05-14T13:02:19.092Z</time>
      </trkpt>
      <trkpt lat="41.76895" lon="19.66724">
        <ele>47.865453</ele>
        <time>2022-05-14T13:02:21.119Z</time>
      </trkpt>
      <trkpt lat="41.76905" lon="19.66717">
        <ele>47.753242</ele>
        <time>2022-05-14T13:02:23.093Z</time>
      </trkpt>
      <trkpt lat="41.76915" lon="19.66711">
        <ele>47.642259</ele>
        <time>2022-05-14T13:02:25.077Z</time>
      </trkpt>
      <trkpt lat="41.76924" lon="19.66705">
        <ele>47.535226</ele>
        <time>2022-05-14T13:02:27.118Z</time>
      </trkpt>
      <trkpt lat="41.76933" lon="19.66698">
        <ele>47.432922</ele>
        <time>2022-05-14T13:02:29.077Z</time>
      </trkpt>
      <trkpt lat="41.76941" lon="19.66689">
        <ele>47.329756</ele>
        <time>2022-05-14T13:02:31.077Z</time>
      </trkpt>
      <trkpt lat="41.76948" lon="19.6668">
        <ele>47.233252</ele>
        <time>2022-05-14T13:02:33.066Z</time>
      </trkpt>
      <trkpt lat="41.76954" lon="19.6667">
        <ele>47.153711</ele>
        <time>2022-05-14T13:02:35.071Z</time>
      </trkpt>
      <trkpt lat="41.76961" lon="19.66661">
        <ele>47.104721</ele>
        <time>2022-05-14T13:02:37.092Z</time>
      </trkpt>
      <trkpt lat="41.76968" lon="19.66651">
        <ele>47.057902</ele>
        <time>2022-05-14T13:02:39.096Z</time>
      </trkpt>
      <trkpt lat="41.76973" lon="19.66641">
        <ele>47.012622</ele>
        <time>2022-05-14T13:02:41.086Z</time>
      </trkpt>
      <trkpt lat="41.7698" lon="19.66632">
        <ele>46.968293</ele>
        <time>2022-05-14T13:02:43.076Z</time>
      </trkpt>
      <trkpt lat="41.76987" lon="19.66623">
        <ele>46.920453</ele>
        <time>2022-05-14T13:02:45.085Z</time>
      </trkpt>
      <trkpt lat="41.76993" lon="19.66614">
        <ele>46.872928</ele>
        <time>2022-05-14T13:02:47.098Z</time>
      </trkpt>
      <trkpt lat="41.77" lon="19.66604">
        <ele>46.826868</ele>
        <time>2022-05-14T13:02:49.125Z</time>
      </trkpt>
      <trkpt lat="41.77006" lon="19.66595">
        <ele>46.780807</ele>
        <time>2022-05-14T13:02:51.099Z</time>
      </trkpt>
      <trkpt lat="41.77012" lon="19.66585">
        <ele>46.734936</ele>
        <time>2022-05-14T13:02:53.068Z</time>
      </trkpt>
      <trkpt lat="41.77021" lon="19.66573">
        <ele>46.670492</ele>
        <time>2022-05-14T13:02:56.095Z</time>
      </trkpt>
      <trkpt lat="41.77028" lon="19.66564">
        <ele>46.625828</ele>
        <time>2022-05-14T13:02:58.077Z</time>
      </trkpt>
      <trkpt lat="41.77037" lon="19.66552">
        <ele>46.560772</ele>
        <time>2022-05-14T13:03:01.125Z</time>
      </trkpt>
      <trkpt lat="41.77046" lon="19.66539">
        <ele>46.498731</ele>
        <time>2022-05-14T13:03:04.067Z</time>
      </trkpt>
      <trkpt lat="41.77055" lon="19.66527">
        <ele>46.438892</ele>
        <time>2022-05-14T13:03:07.086Z</time>
      </trkpt>
      <trkpt lat="41.77063" lon="19.66515">
        <ele>46.378784</ele>
        <time>2022-05-14T13:03:10.100Z</time>
      </trkpt>
      <trkpt lat="41.77072" lon="19.66502">
        <ele>46.313887</ele>
        <time>2022-05-14T13:03:13.122Z</time>
      </trkpt>
      <trkpt lat="41.77078" lon="19.66493">
        <ele>46.240161</ele>
        <time>2022-05-14T13:03:15.118Z</time>
      </trkpt>
      <trkpt lat="41.77085" lon="19.66479">
        <ele>46.098684</ele>
        <time>2022-05-14T13:03:18.104Z</time>
      </trkpt>
      <trkpt lat="41.77092" lon="19.66466">
        <ele>45.968919</ele>
        <time>2022-05-14T13:03:21.120Z</time>
      </trkpt>
      <trkpt lat="41.77097" lon="19.66453">
        <ele>45.841839</ele>
        <time>2022-05-14T13:03:24.076Z</time>
      </trkpt>
      <trkpt lat="41.77102" lon="19.66438">
        <ele>45.706407</ele>
        <time>2022-05-14T13:03:27.097Z</time>
      </trkpt>
      <trkpt lat="41.77103" lon="19.66422">
        <ele>45.573194</ele>
        <time>2022-05-14T13:03:30.081Z</time>
      </trkpt>
      <trkpt lat="41.77102" lon="19.66405">
        <ele>45.429893</ele>
        <time>2022-05-14T13:03:33.067Z</time>
      </trkpt>
      <trkpt lat="41.771" lon="19.66388">
        <ele>45.285125</ele>
        <time>2022-05-14T13:03:36.092Z</time>
      </trkpt>
      <trkpt lat="41.77098" lon="19.66371">
        <ele>45.141024</ele>
        <time>2022-05-14T13:03:39.096Z</time>
      </trkpt>
      <trkpt lat="41.77096" lon="19.66355">
        <ele>45.004036</ele>
        <time>2022-05-14T13:03:42.069Z</time>
      </trkpt>
      <trkpt lat="41.77094" lon="19.66338">
        <ele>44.861177</ele>
        <time>2022-05-14T13:03:45.087Z</time>
      </trkpt>
      <trkpt lat="41.77092" lon="19.66326">
        <ele>44.759839</ele>
        <time>2022-05-14T13:03:47.111Z</time>
      </trkpt>
      <trkpt lat="41.7709" lon="19.66308">
        <ele>44.610111</ele>
        <time>2022-05-14T13:03:50.099Z</time>
      </trkpt>
      <trkpt lat="41.77088" lon="19.66292">
        <ele>44.467994</ele>
        <time>2022-05-14T13:03:53.096Z</time>
      </trkpt>
      <trkpt lat="41.77088" lon="19.66279">
        <ele>44.360791</ele>
        <time>2022-05-14T13:03:55.079Z</time>
      </trkpt>
      <trkpt lat="41.77087" lon="19.66266">
        <ele>44.215451</ele>
        <time>2022-05-14T13:03:57.089Z</time>
      </trkpt>
      <trkpt lat="41.77088" lon="19.66254">
        <ele>43.895912</ele>
        <time>2022-05-14T13:03:59.082Z</time>
      </trkpt>
      <trkpt lat="41.77089" lon="19.66241">
        <ele>43.5621</ele>
        <time>2022-05-14T13:04:01.076Z</time>
      </trkpt>
      <trkpt lat="41.77091" lon="19.66229">
        <ele>43.235248</ele>
        <time>2022-05-14T13:04:03.088Z</time>
      </trkpt>
      <trkpt lat="41.77093" lon="19.66217">
        <ele>42.921927</ele>
        <time>2022-05-14T13:04:05.091Z</time>
      </trkpt>
      <trkpt lat="41.77095" lon="19.66204">
        <ele>42.571317</ele>
        <time>2022-05-14T13:04:07.084Z</time>
      </trkpt>
      <trkpt lat="41.77098" lon="19.6619">
        <ele>42.179137</ele>
        <time>2022-05-14T13:04:09.074Z</time>
      </trkpt>
      <trkpt lat="41.77102" lon="19.66177">
        <ele>41.810056</ele>
        <time>2022-05-14T13:04:11.085Z</time>
      </trkpt>
      <trkpt lat="41.77106" lon="19.66166">
        <ele>41.474864</ele>
        <time>2022-05-14T13:04:13.084Z</time>
      </trkpt>
      <trkpt lat="41.77112" lon="19.66154">
        <ele>41.113295</ele>
        <time>2022-05-14T13:04:15.116Z</time>
      </trkpt>
      <trkpt lat="41.77118" lon="19.66143">
        <ele>40.75246</ele>
        <time>2022-05-14T13:04:17.084Z</time>
      </trkpt>
      <trkpt lat="41.77125" lon="19.66134">
        <ele>40.417233</ele>
        <time>2022-05-14T13:04:19.091Z</time>
      </trkpt>
      <trkpt lat="41.77132" lon="19.66125">
        <ele>40.076229</ele>
        <time>2022-05-14T13:04:21.116Z</time>
      </trkpt>
      <trkpt lat="41.77139" lon="19.66116">
        <ele>39.731821</ele>
        <time>2022-05-14T13:04:23.098Z</time>
      </trkpt>
      <trkpt lat="41.77147" lon="19.66108">
        <ele>39.390889</ele>
        <time>2022-05-14T13:04:25.094Z</time>
      </trkpt>
      <trkpt lat="41.77156" lon="19.66096">
        <ele>38.955736</ele>
        <time>2022-05-14T13:04:28.090Z</time>
      </trkpt>
      <trkpt lat="41.77163" lon="19.66087">
        <ele>38.598823</ele>
        <time>2022-05-14T13:04:30.093Z</time>
      </trkpt>
      <trkpt lat="41.7717" lon="19.66078">
        <ele>38.254925</ele>
        <time>2022-05-14T13:04:32.101Z</time>
      </trkpt>
      <trkpt lat="41.77178" lon="19.66067">
        <ele>38.135739</ele>
        <time>2022-05-14T13:04:34.089Z</time>
      </trkpt>
      <trkpt lat="41.77186" lon="19.66056">
        <ele>38.782152</ele>
        <time>2022-05-14T13:04:36.084Z</time>
      </trkpt>
      <trkpt lat="41.77194" lon="19.66046">
        <ele>39.37</ele>
        <time>2022-05-14T13:04:38.077Z</time>
      </trkpt>
      <trkpt lat="41.77201" lon="19.66035">
        <ele>39.985401</ele>
        <time>2022-05-14T13:04:40.086Z</time>
      </trkpt>
      <trkpt lat="41.77208" lon="19.66026">
        <ele>40.519948</ele>
        <time>2022-05-14T13:04:42.082Z</time>
      </trkpt>
      <trkpt lat="41.77214" lon="19.66017">
        <ele>41.028354</ele>
        <time>2022-05-14T13:04:44.093Z</time>
      </trkpt>
      <trkpt lat="41.77223" lon="19.66005">
        <ele>41.703717</ele>
        <time>2022-05-14T13:04:47.080Z</time>
      </trkpt>
      <trkpt lat="41.77231" lon="19.65994">
        <ele>42.384537</ele>
        <time>2022-05-14T13:04:51.084Z</time>
      </trkpt>
      <trkpt lat="41.77241" lon="19.65983">
        <ele>43.081457</ele>
        <time>2022-05-14T13:04:54.086Z</time>
      </trkpt>
      <trkpt lat="41.77248" lon="19.65974">
        <ele>43.641466</ele>
        <time>2022-05-14T13:04:56.114Z</time>
      </trkpt>
      <trkpt lat="41.77255" lon="19.65965">
        <ele>44.168301</ele>
        <time>2022-05-14T13:04:58.071Z</time>
      </trkpt>
      <trkpt lat="41.77263" lon="19.65956">
        <ele>44.767114</ele>
        <time>2022-05-14T13:05:00.090Z</time>
      </trkpt>
      <trkpt lat="41.77271" lon="19.65946">
        <ele>45.37693</ele>
        <time>2022-05-14T13:05:02.085Z</time>
      </trkpt>
      <trkpt lat="41.7728" lon="19.65936">
        <ele>45.981186</ele>
        <time>2022-05-14T13:05:04.083Z</time>
      </trkpt>
      <trkpt lat="41.77287" lon="19.65926">
        <ele>46.591392</ele>
        <time>2022-05-14T13:05:06.077Z</time>
      </trkpt>
      <trkpt lat="41.77297" lon="19.65914">
        <ele>47.28431</ele>
        <time>2022-05-14T13:05:08.086Z</time>
      </trkpt>
      <trkpt lat="41.77305" lon="19.65904">
        <ele>47.931519</ele>
        <time>2022-05-14T13:05:10.078Z</time>
      </trkpt>
      <trkpt lat="41.77314" lon="19.65893">
        <ele>48.231459</ele>
        <time>2022-05-14T13:05:12.095Z</time>
      </trkpt>
      <trkpt lat="41.77322" lon="19.65883">
        <ele>48.494842</ele>
        <time>2022-05-14T13:05:14.091Z</time>
      </trkpt>
      <trkpt lat="41.77329" lon="19.65874">
        <ele>48.721498</ele>
        <time>2022-05-14T13:05:16.073Z</time>
      </trkpt>
      <trkpt lat="41.77338" lon="19.65861">
        <ele>49.023867</ele>
        <time>2022-05-14T13:05:19.101Z</time>
      </trkpt>
      <trkpt lat="41.77347" lon="19.65848">
        <ele>49.326832</ele>
        <time>2022-05-14T13:05:22.106Z</time>
      </trkpt>
      <trkpt lat="41.77353" lon="19.65839">
        <ele>49.540376</ele>
        <time>2022-05-14T13:05:24.109Z</time>
      </trkpt>
      <trkpt lat="41.77359" lon="19.6583">
        <ele>49.757221</ele>
        <time>2022-05-14T13:05:26.090Z</time>
      </trkpt>
      <trkpt lat="41.77366" lon="19.6582">
        <ele>49.99187</ele>
        <time>2022-05-14T13:05:28.083Z</time>
      </trkpt>
      <trkpt lat="41.77372" lon="19.65809">
        <ele>50.220868</ele>
        <time>2022-05-14T13:05:30.131Z</time>
      </trkpt>
      <trkpt lat="41.77378" lon="19.658">
        <ele>50.430711</ele>
        <time>2022-05-14T13:05:32.096Z</time>
      </trkpt>
      <trkpt lat="41.77386" lon="19.65787">
        <ele>50.735738</ele>
        <time>2022-05-14T13:05:35.108Z</time>
      </trkpt>
      <trkpt lat="41.77395" lon="19.65774">
        <ele>51.051129</ele>
        <time>2022-05-14T13:05:38.060Z</time>
      </trkpt>
      <trkpt lat="41.77404" lon="19.65761">
        <ele>51.358234</ele>
        <time>2022-05-14T13:05:41.115Z</time>
      </trkpt>
      <trkpt lat="41.77413" lon="19.65747">
        <ele>51.665701</ele>
        <time>2022-05-14T13:05:44.095Z</time>
      </trkpt>
      <trkpt lat="41.77421" lon="19.65734">
        <ele>51.967677</ele>
        <time>2022-05-14T13:05:47.119Z</time>
      </trkpt>
      <trkpt lat="41.77429" lon="19.6572">
        <ele>52.147545</ele>
        <time>2022-05-14T13:05:50.094Z</time>
      </trkpt>
      <trkpt lat="41.77436" lon="19.65706">
        <ele>52.078265</ele>
        <time>2022-05-14T13:05:53.126Z</time>
      </trkpt>
      <trkpt lat="41.7744" lon="19.65695">
        <ele>52.029251</ele>
        <time>2022-05-14T13:05:55.077Z</time>
      </trkpt>
      <trkpt lat="41.77444" lon="19.65683">
        <ele>51.978599</ele>
        <time>2022-05-14T13:05:57.096Z</time>
      </trkpt>
      <trkpt lat="41.77448" lon="19.65671">
        <ele>51.926779</ele>
        <time>2022-05-14T13:05:59.117Z</time>
      </trkpt>
      <trkpt lat="41.77451" lon="19.65658">
        <ele>51.873708</ele>
        <time>2022-05-14T13:06:01.076Z</time>
      </trkpt>
      <trkpt lat="41.77455" lon="19.65646">
        <ele>51.820264</ele>
        <time>2022-05-14T13:06:03.062Z</time>
      </trkpt>
      <trkpt lat="41.77458" lon="19.65633">
        <ele>51.765699</ele>
        <time>2022-05-14T13:06:05.072Z</time>
      </trkpt>
      <trkpt lat="41.77462" lon="19.6562">
        <ele>51.710902</ele>
        <time>2022-05-14T13:06:07.089Z</time>
      </trkpt>
      <trkpt lat="41.77466" lon="19.65607">
        <ele>51.655036</ele>
        <time>2022-05-14T13:06:09.084Z</time>
      </trkpt>
      <trkpt lat="41.77469" lon="19.65594">
        <ele>51.599528</ele>
        <time>2022-05-14T13:06:11.114Z</time>
      </trkpt>
      <trkpt lat="41.77472" lon="19.65582">
        <ele>51.548468</ele>
        <time>2022-05-14T13:06:13.082Z</time>
      </trkpt>
      <trkpt lat="41.77475" lon="19.65569">
        <ele>51.496313</ele>
        <time>2022-05-14T13:06:15.081Z</time>
      </trkpt>
      <trkpt lat="41.77479" lon="19.65556">
        <ele>51.440805</ele>
        <time>2022-05-14T13:06:17.133Z</time>
      </trkpt>
      <trkpt lat="41.77482" lon="19.65543">
        <ele>51.384336</ele>
        <time>2022-05-14T13:06:19.083Z</time>
      </trkpt>
      <trkpt lat="41.77485" lon="19.65529">
        <ele>51.325597</ele>
        <time>2022-05-14T13:06:21.082Z</time>
      </trkpt>
      <trkpt lat="41.77488" lon="19.65516">
        <ele>51.273564</ele>
        <time>2022-05-14T13:06:23.065Z</time>
      </trkpt>
      <trkpt lat="41.77491" lon="19.65504">
        <ele>51.224948</ele>
        <time>2022-05-14T13:06:25.078Z</time>
      </trkpt>
      <trkpt lat="41.77494" lon="19.65493">
        <ele>51.517899</ele>
        <time>2022-05-14T13:06:27.079Z</time>
      </trkpt>
      <trkpt lat="41.77497" lon="19.65481">
        <ele>51.958796</ele>
        <time>2022-05-14T13:06:29.074Z</time>
      </trkpt>
      <trkpt lat="41.775" lon="19.65468">
        <ele>52.431704</ele>
        <time>2022-05-14T13:06:31.073Z</time>
      </trkpt>
      <trkpt lat="41.77502" lon="19.65455">
        <ele>52.939684</ele>
        <time>2022-05-14T13:06:33.122Z</time>
      </trkpt>
      <trkpt lat="41.77505" lon="19.65441">
        <ele>53.431497</ele>
        <time>2022-05-14T13:06:35.097Z</time>
      </trkpt>
      <trkpt lat="41.77508" lon="19.65428">
        <ele>53.924238</ele>
        <time>2022-05-14T13:06:37.092Z</time>
      </trkpt>
      <trkpt lat="41.7751" lon="19.65414">
        <ele>54.424126</ele>
        <time>2022-05-14T13:06:39.087Z</time>
      </trkpt>
      <trkpt lat="41.77513" lon="19.65401">
        <ele>54.909033</ele>
        <time>2022-05-14T13:06:41.081Z</time>
      </trkpt>
      <trkpt lat="41.77515" lon="19.65388">
        <ele>55.390316</ele>
        <time>2022-05-14T13:06:43.098Z</time>
      </trkpt>
      <trkpt lat="41.77517" lon="19.65375">
        <ele>55.867397</ele>
        <time>2022-05-14T13:06:45.088Z</time>
      </trkpt>
      <trkpt lat="41.77519" lon="19.65362">
        <ele>56.339745</ele>
        <time>2022-05-14T13:06:47.111Z</time>
      </trkpt>
      <trkpt lat="41.77522" lon="19.65349">
        <ele>56.803976</ele>
        <time>2022-05-14T13:06:49.079Z</time>
      </trkpt>
      <trkpt lat="41.77525" lon="19.65336">
        <ele>57.293523</ele>
        <time>2022-05-14T13:06:51.091Z</time>
      </trkpt>
      <trkpt lat="41.77527" lon="19.65323">
        <ele>57.782055</ele>
        <time>2022-05-14T13:06:53.085Z</time>
      </trkpt>
      <trkpt lat="41.77528" lon="19.6531">
        <ele>58.225207</ele>
        <time>2022-05-14T13:06:55.119Z</time>
      </trkpt>
      <trkpt lat="41.77528" lon="19.65296">
        <ele>58.73617</ele>
        <time>2022-05-14T13:06:57.088Z</time>
      </trkpt>
      <trkpt lat="41.77529" lon="19.6528">
        <ele>59.288378</ele>
        <time>2022-05-14T13:06:59.088Z</time>
      </trkpt>
      <trkpt lat="41.77529" lon="19.65264">
        <ele>59.850242</ele>
        <time>2022-05-14T13:07:01.101Z</time>
      </trkpt>
      <trkpt lat="41.7753" lon="19.65249">
        <ele>60.296534</ele>
        <time>2022-05-14T13:07:03.069Z</time>
      </trkpt>
      <trkpt lat="41.7753" lon="19.65235">
        <ele>60.718925</ele>
        <time>2022-05-14T13:07:05.086Z</time>
      </trkpt>
      <trkpt lat="41.7753" lon="19.6522">
        <ele>61.129721</ele>
        <time>2022-05-14T13:07:07.074Z</time>
      </trkpt>
      <trkpt lat="41.77529" lon="19.65205">
        <ele>61.567095</ele>
        <time>2022-05-14T13:07:09.096Z</time>
      </trkpt>
      <trkpt lat="41.77529" lon="19.65189">
        <ele>62.04483</ele>
        <time>2022-05-14T13:07:11.083Z</time>
      </trkpt>
      <trkpt lat="41.77528" lon="19.65174">
        <ele>62.485789</ele>
        <time>2022-05-14T13:07:13.086Z</time>
      </trkpt>
      <trkpt lat="41.77528" lon="19.6516">
        <ele>62.899884</ele>
        <time>2022-05-14T13:07:15.083Z</time>
      </trkpt>
      <trkpt lat="41.77527" lon="19.65146">
        <ele>63.313979</ele>
        <time>2022-05-14T13:07:17.092Z</time>
      </trkpt>
      <trkpt lat="41.77526" lon="19.65132">
        <ele>63.70626</ele>
        <time>2022-05-14T13:07:19.075Z</time>
      </trkpt>
      <trkpt lat="41.77526" lon="19.65119">
        <ele>64.079625</ele>
        <time>2022-05-14T13:07:21.059Z</time>
      </trkpt>
      <trkpt lat="41.77525" lon="19.65105">
        <ele>64.510382</ele>
        <time>2022-05-14T13:07:23.074Z</time>
      </trkpt>
      <trkpt lat="41.77523" lon="19.65089">
        <ele>64.958097</ele>
        <time>2022-05-14T13:07:25.067Z</time>
      </trkpt>
      <trkpt lat="41.77521" lon="19.65075">
        <ele>65.393172</ele>
        <time>2022-05-14T13:07:27.087Z</time>
      </trkpt>
      <trkpt lat="41.7752" lon="19.6506">
        <ele>65.831674</ele>
        <time>2022-05-14T13:07:29.109Z</time>
      </trkpt>
      <trkpt lat="41.77519" lon="19.65045">
        <ele>66.276518</ele>
        <time>2022-05-14T13:07:31.063Z</time>
      </trkpt>
      <trkpt lat="41.77518" lon="19.65029">
        <ele>66.717218</ele>
        <time>2022-05-14T13:07:33.082Z</time>
      </trkpt>
      <trkpt lat="41.77517" lon="19.65015">
        <ele>66.725979</ele>
        <time>2022-05-14T13:07:35.096Z</time>
      </trkpt>
      <trkpt lat="41.77516" lon="19.65001">
        <ele>66.601166</ele>
        <time>2022-05-14T13:07:37.115Z</time>
      </trkpt>
      <trkpt lat="41.77515" lon="19.64987">
        <ele>66.476012</ele>
        <time>2022-05-14T13:07:39.067Z</time>
      </trkpt>
      <trkpt lat="41.77514" lon="19.64971">
        <ele>66.335605</ele>
        <time>2022-05-14T13:07:41.069Z</time>
      </trkpt>
      <trkpt lat="41.77513" lon="19.64955">
        <ele>66.195678</ele>
        <time>2022-05-14T13:07:43.079Z</time>
      </trkpt>
      <trkpt lat="41.77512" lon="19.6494">
        <ele>66.061162</ele>
        <time>2022-05-14T13:07:45.084Z</time>
      </trkpt>
      <trkpt lat="41.77511" lon="19.64925">
        <ele>65.930051</ele>
        <time>2022-05-14T13:07:47.076Z</time>
      </trkpt>
      <trkpt lat="41.7751" lon="19.64911">
        <ele>65.798639</ele>
        <time>2022-05-14T13:07:49.087Z</time>
      </trkpt>
      <trkpt lat="41.77509" lon="19.64896">
        <ele>65.669532</ele>
        <time>2022-05-14T13:07:51.114Z</time>
      </trkpt>
      <trkpt lat="41.77508" lon="19.64882">
        <ele>65.5399</ele>
        <time>2022-05-14T13:07:53.081Z</time>
      </trkpt>
      <trkpt lat="41.77507" lon="19.64866">
        <ele>65.400291</ele>
        <time>2022-05-14T13:07:55.089Z</time>
      </trkpt>
      <trkpt lat="41.77507" lon="19.64851">
        <ele>65.264639</ele>
        <time>2022-05-14T13:07:57.084Z</time>
      </trkpt>
      <trkpt lat="41.77507" lon="19.64836">
        <ele>65.131514</ele>
        <time>2022-05-14T13:07:59.066Z</time>
      </trkpt>
      <trkpt lat="41.77506" lon="19.64822">
        <ele>65.007337</ele>
        <time>2022-05-14T13:08:01.069Z</time>
      </trkpt>
      <trkpt lat="41.77505" lon="19.64808">
        <ele>64.885446</ele>
        <time>2022-05-14T13:08:03.072Z</time>
      </trkpt>
      <trkpt lat="41.77503" lon="19.64792">
        <ele>64.740229</ele>
        <time>2022-05-14T13:08:06.097Z</time>
      </trkpt>
      <trkpt lat="41.77502" lon="19.64778">
        <ele>64.67645</ele>
        <time>2022-05-14T13:08:10.081Z</time>
      </trkpt>
      <trkpt lat="41.77502" lon="19.64766">
        <ele>64.661302</ele>
        <time>2022-05-14T13:08:16.079Z</time>
      </trkpt>
      <trkpt lat="41.77501" lon="19.64753">
        <ele>64.645174</ele>
        <time>2022-05-14T13:08:20.087Z</time>
      </trkpt>
      <trkpt lat="41.775" lon="19.64738">
        <ele>64.62686</ele>
        <time>2022-05-14T13:08:24.098Z</time>
      </trkpt>
      <trkpt lat="41.77498" lon="19.64725">
        <ele>64.610962</ele>
        <time>2022-05-14T13:08:28.065Z</time>
      </trkpt>
      <trkpt lat="41.77498" lon="19.6471">
        <ele>64.592469</ele>
        <time>2022-05-14T13:08:32.098Z</time>
      </trkpt>
      <trkpt lat="41.77497" lon="19.64696">
        <ele>64.574367</ele>
        <time>2022-05-14T13:08:35.090Z</time>
      </trkpt>
      <trkpt lat="41.77496" lon="19.64682">
        <ele>64.557357</ele>
        <time>2022-05-14T13:08:38.084Z</time>
      </trkpt>
      <trkpt lat="41.77495" lon="19.64665">
        <ele>64.536792</ele>
        <time>2022-05-14T13:08:41.140Z</time>
      </trkpt>
      <trkpt lat="41.77494" lon="19.64649">
        <ele>64.516524</ele>
        <time>2022-05-14T13:08:44.099Z</time>
      </trkpt>
      <trkpt lat="41.77492" lon="19.64632">
        <ele>64.495365</ele>
        <time>2022-05-14T13:08:47.112Z</time>
      </trkpt>
      <trkpt lat="41.77491" lon="19.64615">
        <ele>64.475202</ele>
        <time>2022-05-14T13:08:50.094Z</time>
      </trkpt>
      <trkpt lat="41.7749" lon="19.64602">
        <ele>64.458939</ele>
        <time>2022-05-14T13:08:53.102Z</time>
      </trkpt>
      <trkpt lat="41.7749" lon="19.64586">
        <ele>64.439393</ele>
        <time>2022-05-14T13:08:56.098Z</time>
      </trkpt>
      <trkpt lat="41.7749" lon="19.6457">
        <ele>64.418742</ele>
        <time>2022-05-14T13:08:59.064Z</time>
      </trkpt>
      <trkpt lat="41.77489" lon="19.64552">
        <ele>64.397073</ele>
        <time>2022-05-14T13:09:02.079Z</time>
      </trkpt>
      <trkpt lat="41.77488" lon="19.64538">
        <ele>64.259719</ele>
        <time>2022-05-14T13:09:05.071Z</time>
      </trkpt>
      <trkpt lat="41.77486" lon="19.64522">
        <ele>63.977863</ele>
        <time>2022-05-14T13:09:08.061Z</time>
      </trkpt>
      <trkpt lat="41.77485" lon="19.64507">
        <ele>63.719269</ele>
        <time>2022-05-14T13:09:11.071Z</time>
      </trkpt>
      <trkpt lat="41.77482" lon="19.64492">
        <ele>63.444511</ele>
        <time>2022-05-14T13:09:14.101Z</time>
      </trkpt>
      <trkpt lat="41.7748" lon="19.64479">
        <ele>63.225261</ele>
        <time>2022-05-14T13:09:16.086Z</time>
      </trkpt>
      <trkpt lat="41.77478" lon="19.64467">
        <ele>63.008425</ele>
        <time>2022-05-14T13:09:18.074Z</time>
      </trkpt>
      <trkpt lat="41.77477" lon="19.64454">
        <ele>62.772764</ele>
        <time>2022-05-14T13:09:20.131Z</time>
      </trkpt>
      <trkpt lat="41.77477" lon="19.64441">
        <ele>62.550892</ele>
        <time>2022-05-14T13:09:22.077Z</time>
      </trkpt>
      <trkpt lat="41.77477" lon="19.64428">
        <ele>62.328911</ele>
        <time>2022-05-14T13:09:24.087Z</time>
      </trkpt>
      <trkpt lat="41.77477" lon="19.64416">
        <ele>62.117439</ele>
        <time>2022-05-14T13:09:26.117Z</time>
      </trkpt>
      <trkpt lat="41.77479" lon="19.64401">
        <ele>61.854402</ele>
        <time>2022-05-14T13:09:29.101Z</time>
      </trkpt>
      <trkpt lat="41.77491" lon="19.64397">
        <ele>61.576913</ele>
        <time>2022-05-14T13:09:33.092Z</time>
      </trkpt>
      <trkpt lat="41.775" lon="19.64396">
        <ele>61.353756</ele>
        <time>2022-05-14T13:09:36.077Z</time>
      </trkpt>
      <trkpt lat="41.7751" lon="19.64396">
        <ele>61.120915</ele>
        <time>2022-05-14T13:09:39.091Z</time>
      </trkpt>
      <trkpt lat="41.77521" lon="19.64393">
        <ele>60.876201</ele>
        <time>2022-05-14T13:09:41.081Z</time>
      </trkpt>
      <trkpt lat="41.77529" lon="19.64386">
        <ele>60.643441</ele>
        <time>2022-05-14T13:09:46.123Z</time>
      </trkpt>
      <trkpt lat="41.77529" lon="19.64374">
        <ele>60.431856</ele>
        <time>2022-05-14T13:09:52.076Z</time>
      </trkpt>
      <trkpt lat="41.77529" lon="19.64361">
        <ele>60.208412</ele>
        <time>2022-05-14T13:09:55.142Z</time>
      </trkpt>
      <trkpt lat="41.77529" lon="19.64348">
        <ele>60.208412</ele>
        <time>2022-05-14T13:09:58.095Z</time>
      </trkpt>
      <trkpt lat="41.77529" lon="19.64334">
        <ele>60.208412</ele>
        <time>2022-05-14T13:10:02.081Z</time>
      </trkpt>
      <trkpt lat="41.77529" lon="19.64321">
        <ele>60.208412</ele>
        <time>2022-05-14T13:10:06.080Z</time>
      </trkpt>
      <trkpt lat="41.77529" lon="19.64308">
        <ele>60.208412</ele>
        <time>2022-05-14T13:10:10.084Z</time>
      </trkpt>
      <trkpt lat="41.77529" lon="19.64295">
        <ele>60.208412</ele>
        <time>2022-05-14T13:10:14.340Z</time>
      </trkpt>
      <trkpt lat="41.7753" lon="19.64282">
        <ele>60.208412</ele>
        <time>2022-05-14T13:10:19.080Z</time>
      </trkpt>
      <trkpt lat="41.7753" lon="19.6427">
        <ele>60.208412</ele>
        <time>2022-05-14T13:10:24.086Z</time>
      </trkpt>
      <trkpt lat="41.7753" lon="19.64256">
        <ele>60.208412</ele>
        <time>2022-05-14T13:10:28.079Z</time>
      </trkpt>
      <trkpt lat="41.77535" lon="19.64241">
        <ele>60.208412</ele>
        <time>2022-05-14T13:10:33.061Z</time>
      </trkpt>
      <trkpt lat="41.77526" lon="19.64246">
        <ele>60.208412</ele>
        <time>2022-05-14T13:10:39.061Z</time>
      </trkpt>
      <trkpt lat="41.77528" lon="19.64259">
        <ele>60.208412</ele>
        <time>2022-05-14T13:10:43.073Z</time>
      </trkpt>
      <trkpt lat="41.77533" lon="19.6427">
        <ele>60.208412</ele>
        <time>2022-05-14T13:10:48.078Z</time>
      </trkpt>
      <trkpt lat="41.77544" lon="19.64274">
        <ele>60.208412</ele>
        <time>2022-05-14T13:10:53.067Z</time>
      </trkpt>
      <trkpt lat="41.77555" lon="19.64273">
        <ele>60.208412</ele>
        <time>2022-05-14T13:10:58.087Z</time>
      </trkpt>
      <trkpt lat="41.77563" lon="19.64265">
        <ele>60.208412</ele>
        <time>2022-05-14T13:11:03.115Z</time>
      </trkpt>
      <trkpt lat="41.77557" lon="19.64255">
        <ele>60.208412</ele>
        <time>2022-05-14T13:11:19.089Z</time>
      </trkpt>
      <trkpt lat="41.77562" lon="19.64259">
        <ele>60.208412</ele>
        <time>2022-05-14T13:12:48.432Z</time>
      </trkpt>
    </trkseg>
  </trk>
</gpx>